<?xml version="1.0" encoding="UTF-8" standalone="no" ?>
<gpx xmlns="http://www.topografix.com/GPX/1/1" xmlns:xsi="http://www.w3.org/2001/XMLSchema-instance" xsi:schemaLocation="http://www.topografix.com/GPX/1/1 http://www.topografix.com/GPX/1/1/gpx.xsd" version="1.1" creator="VisuGPX - https://www.visugpx.com">
  <metadata>
    <name>2015-11-11 Bike ride-Dombes O-Medium</name>
    <desc><![CDATA[2015-11-11 Bike ride-Dombes O-Medium]]></desc>
  </metadata>
  <wpt lat="45.9243" lon="4.73729">
    <ele>141.3</ele>
    <name><![CDATA[2015-11-11 10:26 (Start)]]></name>
  </wpt>
  <wpt lat="45.92456" lon="4.73709">
    <ele>171.6</ele>
    <name><![CDATA[2015-11-11 10:26 (End)]]></name>
    <desc><![CDATA[Created by Google My Tracks on Android  Name: 2015-11-11 10:26 Activity type: biking Description: - Total distance: 56.09 km (34.9 mi) Total time: 2:59:10 Moving time: 2:51:30 Average speed: 18.78 km/h (11.7 mi/h) Average moving speed: 19.62 km/h (12.2 mi/h) Max speed: 43.93 km/h (27.3 mi/h) Average pace: 3:12 min/km (5:08 min/mi) Average moving pace: 3:03 min/km (4:55 min/mi) Fastest pace: 1:22 min/km (2:12 min/mi) Max elevation: 307 m (1009 ft) Min elevation: 141 m (464 ft) Elevation gain: 653 m (2141 ft) Max grade: 29 % Min grade: -12 % Recorded: 11/11/2015 10:26]]></desc>
  </wpt>
  <trk>
    <name><![CDATA[2015-11-11 10:26]]></name>
    <trkseg>
      <trkpt lat="45.9243" lon="4.73729">
        <ele>141.300003052</ele>
        <time>2015-11-11T09:26:39.206Z</time>
      </trkpt>
      <trkpt lat="45.9243" lon="4.73729">
        <ele>141.300003052</ele>
        <time>2015-11-11T09:26:48.071Z</time>
      </trkpt>
      <trkpt lat="45.92441" lon="4.73725">
        <ele>146.699996948</ele>
        <time>2015-11-11T09:26:50.991Z</time>
      </trkpt>
      <trkpt lat="45.92441" lon="4.73722">
        <ele>147.199996948</ele>
        <time>2015-11-11T09:27:01.999Z</time>
      </trkpt>
      <trkpt lat="45.9245" lon="4.73719">
        <ele>155</ele>
        <time>2015-11-11T09:27:02.987Z</time>
      </trkpt>
      <trkpt lat="45.9245" lon="4.73719">
        <ele>155</ele>
        <time>2015-11-11T09:27:03.012Z</time>
      </trkpt>
      <trkpt lat="45.92451" lon="4.7372">
        <ele>155.600006104</ele>
        <time>2015-11-11T09:27:05.998Z</time>
      </trkpt>
      <trkpt lat="45.92452" lon="4.73721">
        <ele>155.800003052</ele>
        <time>2015-11-11T09:27:06.983Z</time>
      </trkpt>
      <trkpt lat="45.92457" lon="4.73715">
        <ele>154.600006104</ele>
        <time>2015-11-11T09:27:08Z</time>
      </trkpt>
      <trkpt lat="45.9246" lon="4.73712">
        <ele>154.300003052</ele>
        <time>2015-11-11T09:27:08.986Z</time>
      </trkpt>
      <trkpt lat="45.92465" lon="4.73705">
        <ele>156.199996948</ele>
        <time>2015-11-11T09:27:10.999Z</time>
      </trkpt>
      <trkpt lat="45.92466" lon="4.73702">
        <ele>156.5</ele>
        <time>2015-11-11T09:27:11.983Z</time>
      </trkpt>
      <trkpt lat="45.92467" lon="4.73692">
        <ele>157.600006104</ele>
        <time>2015-11-11T09:27:15.005Z</time>
      </trkpt>
      <trkpt lat="45.92468" lon="4.73689">
        <ele>158</ele>
        <time>2015-11-11T09:27:15.985Z</time>
      </trkpt>
      <trkpt lat="45.92468" lon="4.73678">
        <ele>163.100006104</ele>
        <time>2015-11-11T09:27:21.004Z</time>
      </trkpt>
      <trkpt lat="45.92468" lon="4.73676">
        <ele>164</ele>
        <time>2015-11-11T09:27:21.984Z</time>
      </trkpt>
      <trkpt lat="45.9247" lon="4.73664">
        <ele>167.800003052</ele>
        <time>2015-11-11T09:27:27.005Z</time>
      </trkpt>
      <trkpt lat="45.92471" lon="4.7366">
        <ele>168.199996948</ele>
        <time>2015-11-11T09:27:28.058Z</time>
      </trkpt>
      <trkpt lat="45.92475" lon="4.73654">
        <ele>169.399993896</ele>
        <time>2015-11-11T09:27:30.118Z</time>
      </trkpt>
      <trkpt lat="45.92478" lon="4.73651">
        <ele>170.199996948</ele>
        <time>2015-11-11T09:27:31.078Z</time>
      </trkpt>
      <trkpt lat="45.92484" lon="4.73648">
        <ele>171.600006104</ele>
        <time>2015-11-11T09:27:33.087Z</time>
      </trkpt>
      <trkpt lat="45.92488" lon="4.73647">
        <ele>171.399993896</ele>
        <time>2015-11-11T09:27:34.028Z</time>
      </trkpt>
      <trkpt lat="45.92496" lon="4.73647">
        <ele>172.100006104</ele>
        <time>2015-11-11T09:27:36.108Z</time>
      </trkpt>
      <trkpt lat="45.925" lon="4.73647">
        <ele>172.100006104</ele>
        <time>2015-11-11T09:27:37.038Z</time>
      </trkpt>
      <trkpt lat="45.92505" lon="4.73646">
        <ele>172.199996948</ele>
        <time>2015-11-11T09:27:38.118Z</time>
      </trkpt>
      <trkpt lat="45.92509" lon="4.73645">
        <ele>172.100006104</ele>
        <time>2015-11-11T09:27:39.068Z</time>
      </trkpt>
      <trkpt lat="45.92514" lon="4.73644">
        <ele>172</ele>
        <time>2015-11-11T09:27:40.118Z</time>
      </trkpt>
      <trkpt lat="45.92519" lon="4.73644">
        <ele>171.899993896</ele>
        <time>2015-11-11T09:27:41.039Z</time>
      </trkpt>
      <trkpt lat="45.92524" lon="4.73643">
        <ele>171.899993896</ele>
        <time>2015-11-11T09:27:42.128Z</time>
      </trkpt>
      <trkpt lat="45.92529" lon="4.73642">
        <ele>171.699996948</ele>
        <time>2015-11-11T09:27:42.983Z</time>
      </trkpt>
      <trkpt lat="45.92535" lon="4.73642">
        <ele>171.699996948</ele>
        <time>2015-11-11T09:27:44Z</time>
      </trkpt>
      <trkpt lat="45.9254" lon="4.73641">
        <ele>171.899993896</ele>
        <time>2015-11-11T09:27:44.986Z</time>
      </trkpt>
      <trkpt lat="45.92545" lon="4.7364">
        <ele>171.600006104</ele>
        <time>2015-11-11T09:27:45.999Z</time>
      </trkpt>
      <trkpt lat="45.92551" lon="4.73639">
        <ele>171.5</ele>
        <time>2015-11-11T09:27:46.984Z</time>
      </trkpt>
      <trkpt lat="45.92555" lon="4.73639">
        <ele>171.800003052</ele>
        <time>2015-11-11T09:27:47.999Z</time>
      </trkpt>
      <trkpt lat="45.92561" lon="4.73638">
        <ele>171.5</ele>
        <time>2015-11-11T09:27:48.983Z</time>
      </trkpt>
      <trkpt lat="45.92566" lon="4.73636">
        <ele>171.399993896</ele>
        <time>2015-11-11T09:27:49.999Z</time>
      </trkpt>
      <trkpt lat="45.92571" lon="4.73634">
        <ele>171.399993896</ele>
        <time>2015-11-11T09:27:50.987Z</time>
      </trkpt>
      <trkpt lat="45.92576" lon="4.73633">
        <ele>171.600006104</ele>
        <time>2015-11-11T09:27:52.013Z</time>
      </trkpt>
      <trkpt lat="45.92581" lon="4.73631">
        <ele>171.5</ele>
        <time>2015-11-11T09:27:52.984Z</time>
      </trkpt>
      <trkpt lat="45.92587" lon="4.73628">
        <ele>170.600006104</ele>
        <time>2015-11-11T09:27:53.998Z</time>
      </trkpt>
      <trkpt lat="45.92593" lon="4.73628">
        <ele>170.800003052</ele>
        <time>2015-11-11T09:27:54.983Z</time>
      </trkpt>
      <trkpt lat="45.92599" lon="4.73627">
        <ele>170.699996948</ele>
        <time>2015-11-11T09:27:56.001Z</time>
      </trkpt>
      <trkpt lat="45.92604" lon="4.73627">
        <ele>170.5</ele>
        <time>2015-11-11T09:27:56.987Z</time>
      </trkpt>
      <trkpt lat="45.9261" lon="4.73627">
        <ele>170.600006104</ele>
        <time>2015-11-11T09:27:57.999Z</time>
      </trkpt>
      <trkpt lat="45.92615" lon="4.7363">
        <ele>169.800003052</ele>
        <time>2015-11-11T09:27:58.984Z</time>
      </trkpt>
      <trkpt lat="45.92619" lon="4.73635">
        <ele>169</ele>
        <time>2015-11-11T09:28:00Z</time>
      </trkpt>
      <trkpt lat="45.92623" lon="4.73641">
        <ele>168.800003052</ele>
        <time>2015-11-11T09:28:00.984Z</time>
      </trkpt>
      <trkpt lat="45.92626" lon="4.73647">
        <ele>168.800003052</ele>
        <time>2015-11-11T09:28:01.999Z</time>
      </trkpt>
      <trkpt lat="45.92629" lon="4.73652">
        <ele>169.199996948</ele>
        <time>2015-11-11T09:28:02.987Z</time>
      </trkpt>
      <trkpt lat="45.92632" lon="4.73658">
        <ele>169.300003052</ele>
        <time>2015-11-11T09:28:03.999Z</time>
      </trkpt>
      <trkpt lat="45.92635" lon="4.73664">
        <ele>169.399993896</ele>
        <time>2015-11-11T09:28:04.986Z</time>
      </trkpt>
      <trkpt lat="45.92638" lon="4.7367">
        <ele>169.300003052</ele>
        <time>2015-11-11T09:28:06Z</time>
      </trkpt>
      <trkpt lat="45.92641" lon="4.73676">
        <ele>169.199996948</ele>
        <time>2015-11-11T09:28:06.984Z</time>
      </trkpt>
      <trkpt lat="45.92645" lon="4.73682">
        <ele>169.199996948</ele>
        <time>2015-11-11T09:28:08.012Z</time>
      </trkpt>
      <trkpt lat="45.92649" lon="4.73688">
        <ele>168.800003052</ele>
        <time>2015-11-11T09:28:08.987Z</time>
      </trkpt>
      <trkpt lat="45.92653" lon="4.73693">
        <ele>168.699996948</ele>
        <time>2015-11-11T09:28:10Z</time>
      </trkpt>
      <trkpt lat="45.92658" lon="4.73698">
        <ele>168.800003052</ele>
        <time>2015-11-11T09:28:10.984Z</time>
      </trkpt>
      <trkpt lat="45.92663" lon="4.73702">
        <ele>168.899993896</ele>
        <time>2015-11-11T09:28:11.999Z</time>
      </trkpt>
      <trkpt lat="45.92668" lon="4.73706">
        <ele>168.5</ele>
        <time>2015-11-11T09:28:12.983Z</time>
      </trkpt>
      <trkpt lat="45.92673" lon="4.73709">
        <ele>168.600006104</ele>
        <time>2015-11-11T09:28:14Z</time>
      </trkpt>
      <trkpt lat="45.92678" lon="4.73711">
        <ele>168.699996948</ele>
        <time>2015-11-11T09:28:14.987Z</time>
      </trkpt>
      <trkpt lat="45.92683" lon="4.73713">
        <ele>168.699996948</ele>
        <time>2015-11-11T09:28:16.119Z</time>
      </trkpt>
      <trkpt lat="45.92689" lon="4.73715">
        <ele>168.899993896</ele>
        <time>2015-11-11T09:28:16.984Z</time>
      </trkpt>
      <trkpt lat="45.92694" lon="4.73716">
        <ele>169.300003052</ele>
        <time>2015-11-11T09:28:17.999Z</time>
      </trkpt>
      <trkpt lat="45.92699" lon="4.73718">
        <ele>169.300003052</ele>
        <time>2015-11-11T09:28:18.984Z</time>
      </trkpt>
      <trkpt lat="45.92705" lon="4.73719">
        <ele>169.600006104</ele>
        <time>2015-11-11T09:28:19.999Z</time>
      </trkpt>
      <trkpt lat="45.9271" lon="4.7372">
        <ele>169.899993896</ele>
        <time>2015-11-11T09:28:20.987Z</time>
      </trkpt>
      <trkpt lat="45.92716" lon="4.73721">
        <ele>169.800003052</ele>
        <time>2015-11-11T09:28:21.998Z</time>
      </trkpt>
      <trkpt lat="45.92722" lon="4.73721">
        <ele>169.899993896</ele>
        <time>2015-11-11T09:28:22.983Z</time>
      </trkpt>
      <trkpt lat="45.92727" lon="4.73723">
        <ele>169.600006104</ele>
        <time>2015-11-11T09:28:24.012Z</time>
      </trkpt>
      <trkpt lat="45.92733" lon="4.73724">
        <ele>169.800003052</ele>
        <time>2015-11-11T09:28:24.983Z</time>
      </trkpt>
      <trkpt lat="45.92738" lon="4.73725">
        <ele>169.800003052</ele>
        <time>2015-11-11T09:28:25.999Z</time>
      </trkpt>
      <trkpt lat="45.92743" lon="4.73727">
        <ele>169.800003052</ele>
        <time>2015-11-11T09:28:26.987Z</time>
      </trkpt>
      <trkpt lat="45.92749" lon="4.73728">
        <ele>169.600006104</ele>
        <time>2015-11-11T09:28:27.998Z</time>
      </trkpt>
      <trkpt lat="45.92755" lon="4.7373">
        <ele>169.5</ele>
        <time>2015-11-11T09:28:28.984Z</time>
      </trkpt>
      <trkpt lat="45.9276" lon="4.73731">
        <ele>169.899993896</ele>
        <time>2015-11-11T09:28:29.998Z</time>
      </trkpt>
      <trkpt lat="45.92764" lon="4.73733">
        <ele>170.199996948</ele>
        <time>2015-11-11T09:28:30.986Z</time>
      </trkpt>
      <trkpt lat="45.92772" lon="4.73735">
        <ele>170.5</ele>
        <time>2015-11-11T09:28:33.002Z</time>
      </trkpt>
      <trkpt lat="45.92776" lon="4.73736">
        <ele>170.899993896</ele>
        <time>2015-11-11T09:28:33.984Z</time>
      </trkpt>
      <trkpt lat="45.92782" lon="4.73745">
        <ele>173.600006104</ele>
        <time>2015-11-11T09:28:37.001Z</time>
      </trkpt>
      <trkpt lat="45.92784" lon="4.73751">
        <ele>173</ele>
        <time>2015-11-11T09:28:37.984Z</time>
      </trkpt>
      <trkpt lat="45.92789" lon="4.73758">
        <ele>172.699996948</ele>
        <time>2015-11-11T09:28:40.016Z</time>
      </trkpt>
      <trkpt lat="45.92793" lon="4.73761">
        <ele>172.699996948</ele>
        <time>2015-11-11T09:28:40.984Z</time>
      </trkpt>
      <trkpt lat="45.92797" lon="4.73763">
        <ele>172</ele>
        <time>2015-11-11T09:28:41.999Z</time>
      </trkpt>
      <trkpt lat="45.92802" lon="4.73766">
        <ele>171.800003052</ele>
        <time>2015-11-11T09:28:42.983Z</time>
      </trkpt>
      <trkpt lat="45.92807" lon="4.73769">
        <ele>171.899993896</ele>
        <time>2015-11-11T09:28:43.999Z</time>
      </trkpt>
      <trkpt lat="45.92812" lon="4.73773">
        <ele>171.899993896</ele>
        <time>2015-11-11T09:28:44.987Z</time>
      </trkpt>
      <trkpt lat="45.92817" lon="4.73776">
        <ele>171.800003052</ele>
        <time>2015-11-11T09:28:45.999Z</time>
      </trkpt>
      <trkpt lat="45.92822" lon="4.73779">
        <ele>171.800003052</ele>
        <time>2015-11-11T09:28:47.097Z</time>
      </trkpt>
      <trkpt lat="45.92828" lon="4.73783">
        <ele>171.699996948</ele>
        <time>2015-11-11T09:28:47.998Z</time>
      </trkpt>
      <trkpt lat="45.92832" lon="4.73786">
        <ele>171.800003052</ele>
        <time>2015-11-11T09:28:48.983Z</time>
      </trkpt>
      <trkpt lat="45.92838" lon="4.7379">
        <ele>171.600006104</ele>
        <time>2015-11-11T09:28:49.998Z</time>
      </trkpt>
      <trkpt lat="45.92843" lon="4.73794">
        <ele>171.5</ele>
        <time>2015-11-11T09:28:50.988Z</time>
      </trkpt>
      <trkpt lat="45.92849" lon="4.73799">
        <ele>171.100006104</ele>
        <time>2015-11-11T09:28:52.138Z</time>
      </trkpt>
      <trkpt lat="45.92853" lon="4.73804">
        <ele>170.899993896</ele>
        <time>2015-11-11T09:28:53.048Z</time>
      </trkpt>
      <trkpt lat="45.92856" lon="4.73811">
        <ele>171.100006104</ele>
        <time>2015-11-11T09:28:54.118Z</time>
      </trkpt>
      <trkpt lat="45.92858" lon="4.73818">
        <ele>170.699996948</ele>
        <time>2015-11-11T09:28:55.048Z</time>
      </trkpt>
      <trkpt lat="45.9286" lon="4.73826">
        <ele>170.699996948</ele>
        <time>2015-11-11T09:28:56.138Z</time>
      </trkpt>
      <trkpt lat="45.92862" lon="4.73833">
        <ele>170.800003052</ele>
        <time>2015-11-11T09:28:57.048Z</time>
      </trkpt>
      <trkpt lat="45.92864" lon="4.73841">
        <ele>171</ele>
        <time>2015-11-11T09:28:58.108Z</time>
      </trkpt>
      <trkpt lat="45.92866" lon="4.73848">
        <ele>171.300003052</ele>
        <time>2015-11-11T09:28:59.039Z</time>
      </trkpt>
      <trkpt lat="45.92868" lon="4.73856">
        <ele>171.399993896</ele>
        <time>2015-11-11T09:29:00.311Z</time>
      </trkpt>
      <trkpt lat="45.9287" lon="4.73863">
        <ele>171.600006104</ele>
        <time>2015-11-11T09:29:01.018Z</time>
      </trkpt>
      <trkpt lat="45.92872" lon="4.73871">
        <ele>171.300003052</ele>
        <time>2015-11-11T09:29:02.108Z</time>
      </trkpt>
      <trkpt lat="45.92874" lon="4.73879">
        <ele>171.100006104</ele>
        <time>2015-11-11T09:29:03.048Z</time>
      </trkpt>
      <trkpt lat="45.92875" lon="4.73888">
        <ele>170.699996948</ele>
        <time>2015-11-11T09:29:04.098Z</time>
      </trkpt>
      <trkpt lat="45.92877" lon="4.73896">
        <ele>170.800003052</ele>
        <time>2015-11-11T09:29:05.048Z</time>
      </trkpt>
      <trkpt lat="45.92878" lon="4.73904">
        <ele>170.899993896</ele>
        <time>2015-11-11T09:29:05.998Z</time>
      </trkpt>
      <trkpt lat="45.92879" lon="4.73912">
        <ele>170.800003052</ele>
        <time>2015-11-11T09:29:06.984Z</time>
      </trkpt>
      <trkpt lat="45.9288" lon="4.73921">
        <ele>170.600006104</ele>
        <time>2015-11-11T09:29:07.998Z</time>
      </trkpt>
      <trkpt lat="45.9288" lon="4.73929">
        <ele>170.600006104</ele>
        <time>2015-11-11T09:29:08.986Z</time>
      </trkpt>
      <trkpt lat="45.92881" lon="4.73937">
        <ele>170.399993896</ele>
        <time>2015-11-11T09:29:09.998Z</time>
      </trkpt>
      <trkpt lat="45.92884" lon="4.73947">
        <ele>166.399993896</ele>
        <time>2015-11-11T09:29:10.983Z</time>
      </trkpt>
      <trkpt lat="45.92883" lon="4.73955">
        <ele>167.800003052</ele>
        <time>2015-11-11T09:29:12.012Z</time>
      </trkpt>
      <trkpt lat="45.92884" lon="4.73964">
        <ele>167.899993896</ele>
        <time>2015-11-11T09:29:12.983Z</time>
      </trkpt>
      <trkpt lat="45.92884" lon="4.73971">
        <ele>167.399993896</ele>
        <time>2015-11-11T09:29:13.997Z</time>
      </trkpt>
      <trkpt lat="45.92884" lon="4.73979">
        <ele>167.800003052</ele>
        <time>2015-11-11T09:29:14.986Z</time>
      </trkpt>
      <trkpt lat="45.92884" lon="4.73986">
        <ele>168</ele>
        <time>2015-11-11T09:29:15.998Z</time>
      </trkpt>
      <trkpt lat="45.92882" lon="4.73993">
        <ele>168.699996948</ele>
        <time>2015-11-11T09:29:16.983Z</time>
      </trkpt>
      <trkpt lat="45.92881" lon="4.74">
        <ele>168.199996948</ele>
        <time>2015-11-11T09:29:17.998Z</time>
      </trkpt>
      <trkpt lat="45.92879" lon="4.74007">
        <ele>168</ele>
        <time>2015-11-11T09:29:18.982Z</time>
      </trkpt>
      <trkpt lat="45.92878" lon="4.74015">
        <ele>167.800003052</ele>
        <time>2015-11-11T09:29:19.998Z</time>
      </trkpt>
      <trkpt lat="45.92877" lon="4.74022">
        <ele>167.699996948</ele>
        <time>2015-11-11T09:29:20.988Z</time>
      </trkpt>
      <trkpt lat="45.92876" lon="4.74029">
        <ele>167.5</ele>
        <time>2015-11-11T09:29:21.998Z</time>
      </trkpt>
      <trkpt lat="45.92875" lon="4.74037">
        <ele>167.5</ele>
        <time>2015-11-11T09:29:22.986Z</time>
      </trkpt>
      <trkpt lat="45.92872" lon="4.74043">
        <ele>168.800003052</ele>
        <time>2015-11-11T09:29:23.999Z</time>
      </trkpt>
      <trkpt lat="45.92869" lon="4.74049">
        <ele>169.300003052</ele>
        <time>2015-11-11T09:29:24.984Z</time>
      </trkpt>
      <trkpt lat="45.92865" lon="4.74055">
        <ele>169.5</ele>
        <time>2015-11-11T09:29:25.999Z</time>
      </trkpt>
      <trkpt lat="45.92861" lon="4.7406">
        <ele>169.800003052</ele>
        <time>2015-11-11T09:29:26.987Z</time>
      </trkpt>
      <trkpt lat="45.92856" lon="4.74066">
        <ele>169.300003052</ele>
        <time>2015-11-11T09:29:28.012Z</time>
      </trkpt>
      <trkpt lat="45.92852" lon="4.74071">
        <ele>169.300003052</ele>
        <time>2015-11-11T09:29:28.984Z</time>
      </trkpt>
      <trkpt lat="45.92847" lon="4.74076">
        <ele>169.199996948</ele>
        <time>2015-11-11T09:29:29.998Z</time>
      </trkpt>
      <trkpt lat="45.92843" lon="4.74081">
        <ele>169.300003052</ele>
        <time>2015-11-11T09:29:30.984Z</time>
      </trkpt>
      <trkpt lat="45.92838" lon="4.74087">
        <ele>169.100006104</ele>
        <time>2015-11-11T09:29:32Z</time>
      </trkpt>
      <trkpt lat="45.92834" lon="4.74092">
        <ele>169</ele>
        <time>2015-11-11T09:29:32.988Z</time>
      </trkpt>
      <trkpt lat="45.92829" lon="4.74098">
        <ele>168.899993896</ele>
        <time>2015-11-11T09:29:33.999Z</time>
      </trkpt>
      <trkpt lat="45.92824" lon="4.74104">
        <ele>168.600006104</ele>
        <time>2015-11-11T09:29:34.984Z</time>
      </trkpt>
      <trkpt lat="45.9282" lon="4.74109">
        <ele>168.399993896</ele>
        <time>2015-11-11T09:29:36Z</time>
      </trkpt>
      <trkpt lat="45.92815" lon="4.74115">
        <ele>168.300003052</ele>
        <time>2015-11-11T09:29:36.984Z</time>
      </trkpt>
      <trkpt lat="45.9281" lon="4.7412">
        <ele>168.399993896</ele>
        <time>2015-11-11T09:29:37.998Z</time>
      </trkpt>
      <trkpt lat="45.92805" lon="4.74124">
        <ele>168.399993896</ele>
        <time>2015-11-11T09:29:38.987Z</time>
      </trkpt>
      <trkpt lat="45.928" lon="4.7413">
        <ele>168.399993896</ele>
        <time>2015-11-11T09:29:40Z</time>
      </trkpt>
      <trkpt lat="45.92795" lon="4.74135">
        <ele>168.600006104</ele>
        <time>2015-11-11T09:29:40.983Z</time>
      </trkpt>
      <trkpt lat="45.9279" lon="4.7414">
        <ele>168.800003052</ele>
        <time>2015-11-11T09:29:41.997Z</time>
      </trkpt>
      <trkpt lat="45.92785" lon="4.74145">
        <ele>168.800003052</ele>
        <time>2015-11-11T09:29:42.983Z</time>
      </trkpt>
      <trkpt lat="45.9278" lon="4.7415">
        <ele>168.800003052</ele>
        <time>2015-11-11T09:29:44.012Z</time>
      </trkpt>
      <trkpt lat="45.92775" lon="4.74155">
        <ele>168.899993896</ele>
        <time>2015-11-11T09:29:44.986Z</time>
      </trkpt>
      <trkpt lat="45.9277" lon="4.7416">
        <ele>169</ele>
        <time>2015-11-11T09:29:45.997Z</time>
      </trkpt>
      <trkpt lat="45.92765" lon="4.74166">
        <ele>169</ele>
        <time>2015-11-11T09:29:46.983Z</time>
      </trkpt>
      <trkpt lat="45.9276" lon="4.74171">
        <ele>169.100006104</ele>
        <time>2015-11-11T09:29:47.998Z</time>
      </trkpt>
      <trkpt lat="45.92755" lon="4.74176">
        <ele>169.199996948</ele>
        <time>2015-11-11T09:29:48.985Z</time>
      </trkpt>
      <trkpt lat="45.9275" lon="4.74182">
        <ele>169.100006104</ele>
        <time>2015-11-11T09:29:50.014Z</time>
      </trkpt>
      <trkpt lat="45.92746" lon="4.74187">
        <ele>169</ele>
        <time>2015-11-11T09:29:50.986Z</time>
      </trkpt>
      <trkpt lat="45.92742" lon="4.74192">
        <ele>169.399993896</ele>
        <time>2015-11-11T09:29:52.128Z</time>
      </trkpt>
      <trkpt lat="45.92738" lon="4.74198">
        <ele>169.300003052</ele>
        <time>2015-11-11T09:29:52.985Z</time>
      </trkpt>
      <trkpt lat="45.92734" lon="4.74203">
        <ele>169.300003052</ele>
        <time>2015-11-11T09:29:53.998Z</time>
      </trkpt>
      <trkpt lat="45.9273" lon="4.74209">
        <ele>169.399993896</ele>
        <time>2015-11-11T09:29:54.983Z</time>
      </trkpt>
      <trkpt lat="45.92726" lon="4.74214">
        <ele>169.399993896</ele>
        <time>2015-11-11T09:29:55.998Z</time>
      </trkpt>
      <trkpt lat="45.92722" lon="4.7422">
        <ele>169.399993896</ele>
        <time>2015-11-11T09:29:56.987Z</time>
      </trkpt>
      <trkpt lat="45.92718" lon="4.74225">
        <ele>169.399993896</ele>
        <time>2015-11-11T09:29:58.108Z</time>
      </trkpt>
      <trkpt lat="45.92715" lon="4.74231">
        <ele>169.300003052</ele>
        <time>2015-11-11T09:29:58.982Z</time>
      </trkpt>
      <trkpt lat="45.92711" lon="4.74237">
        <ele>169.399993896</ele>
        <time>2015-11-11T09:30:00.026Z</time>
      </trkpt>
      <trkpt lat="45.92707" lon="4.74243">
        <ele>169.399993896</ele>
        <time>2015-11-11T09:30:00.983Z</time>
      </trkpt>
      <trkpt lat="45.92703" lon="4.74249">
        <ele>169.399993896</ele>
        <time>2015-11-11T09:30:01.999Z</time>
      </trkpt>
      <trkpt lat="45.92699" lon="4.74255">
        <ele>169.399993896</ele>
        <time>2015-11-11T09:30:02.986Z</time>
      </trkpt>
      <trkpt lat="45.92695" lon="4.74262">
        <ele>169.300003052</ele>
        <time>2015-11-11T09:30:03.998Z</time>
      </trkpt>
      <trkpt lat="45.92691" lon="4.74269">
        <ele>169.300003052</ele>
        <time>2015-11-11T09:30:04.983Z</time>
      </trkpt>
      <trkpt lat="45.92688" lon="4.74275">
        <ele>169.199996948</ele>
        <time>2015-11-11T09:30:05.998Z</time>
      </trkpt>
      <trkpt lat="45.92684" lon="4.74282">
        <ele>169.199996948</ele>
        <time>2015-11-11T09:30:06.983Z</time>
      </trkpt>
      <trkpt lat="45.9268" lon="4.74289">
        <ele>169.100006104</ele>
        <time>2015-11-11T09:30:07.997Z</time>
      </trkpt>
      <trkpt lat="45.92677" lon="4.74295">
        <ele>169.199996948</ele>
        <time>2015-11-11T09:30:08.986Z</time>
      </trkpt>
      <trkpt lat="45.92673" lon="4.74302">
        <ele>169.100006104</ele>
        <time>2015-11-11T09:30:09.998Z</time>
      </trkpt>
      <trkpt lat="45.92669" lon="4.74309">
        <ele>169.100006104</ele>
        <time>2015-11-11T09:30:10.985Z</time>
      </trkpt>
      <trkpt lat="45.92666" lon="4.74315">
        <ele>169</ele>
        <time>2015-11-11T09:30:11.997Z</time>
      </trkpt>
      <trkpt lat="45.92662" lon="4.74322">
        <ele>169</ele>
        <time>2015-11-11T09:30:12.983Z</time>
      </trkpt>
      <trkpt lat="45.92658" lon="4.74329">
        <ele>168.899993896</ele>
        <time>2015-11-11T09:30:13.997Z</time>
      </trkpt>
      <trkpt lat="45.92655" lon="4.74336">
        <ele>168.800003052</ele>
        <time>2015-11-11T09:30:15.099Z</time>
      </trkpt>
      <trkpt lat="45.92651" lon="4.74343">
        <ele>168.800003052</ele>
        <time>2015-11-11T09:30:16.011Z</time>
      </trkpt>
      <trkpt lat="45.92647" lon="4.7435">
        <ele>168.600006104</ele>
        <time>2015-11-11T09:30:16.985Z</time>
      </trkpt>
      <trkpt lat="45.92643" lon="4.74356">
        <ele>168.5</ele>
        <time>2015-11-11T09:30:17.997Z</time>
      </trkpt>
      <trkpt lat="45.9264" lon="4.74363">
        <ele>168.399993896</ele>
        <time>2015-11-11T09:30:18.984Z</time>
      </trkpt>
      <trkpt lat="45.92636" lon="4.7437">
        <ele>168.399993896</ele>
        <time>2015-11-11T09:30:19.997Z</time>
      </trkpt>
      <trkpt lat="45.92632" lon="4.74377">
        <ele>168.300003052</ele>
        <time>2015-11-11T09:30:20.986Z</time>
      </trkpt>
      <trkpt lat="45.92629" lon="4.74384">
        <ele>168.300003052</ele>
        <time>2015-11-11T09:30:21.998Z</time>
      </trkpt>
      <trkpt lat="45.92625" lon="4.7439">
        <ele>168.399993896</ele>
        <time>2015-11-11T09:30:22.983Z</time>
      </trkpt>
      <trkpt lat="45.92621" lon="4.74397">
        <ele>168.199996948</ele>
        <time>2015-11-11T09:30:23.997Z</time>
      </trkpt>
      <trkpt lat="45.92617" lon="4.74404">
        <ele>168.199996948</ele>
        <time>2015-11-11T09:30:24.983Z</time>
      </trkpt>
      <trkpt lat="45.92614" lon="4.74411">
        <ele>168.199996948</ele>
        <time>2015-11-11T09:30:25.998Z</time>
      </trkpt>
      <trkpt lat="45.9261" lon="4.74418">
        <ele>168.199996948</ele>
        <time>2015-11-11T09:30:26.988Z</time>
      </trkpt>
      <trkpt lat="45.92606" lon="4.74425">
        <ele>168.100006104</ele>
        <time>2015-11-11T09:30:28.108Z</time>
      </trkpt>
      <trkpt lat="45.92602" lon="4.74432">
        <ele>168.100006104</ele>
        <time>2015-11-11T09:30:28.983Z</time>
      </trkpt>
      <trkpt lat="45.92598" lon="4.74439">
        <ele>168.100006104</ele>
        <time>2015-11-11T09:30:29.997Z</time>
      </trkpt>
      <trkpt lat="45.92595" lon="4.74446">
        <ele>168.100006104</ele>
        <time>2015-11-11T09:30:30.982Z</time>
      </trkpt>
      <trkpt lat="45.92591" lon="4.74453">
        <ele>168</ele>
        <time>2015-11-11T09:30:32.011Z</time>
      </trkpt>
      <trkpt lat="45.92587" lon="4.74459">
        <ele>167.800003052</ele>
        <time>2015-11-11T09:30:32.986Z</time>
      </trkpt>
      <trkpt lat="45.92584" lon="4.74466">
        <ele>167.800003052</ele>
        <time>2015-11-11T09:30:33.998Z</time>
      </trkpt>
      <trkpt lat="45.9258" lon="4.74472">
        <ele>167.699996948</ele>
        <time>2015-11-11T09:30:34.983Z</time>
      </trkpt>
      <trkpt lat="45.92576" lon="4.74478">
        <ele>167.699996948</ele>
        <time>2015-11-11T09:30:35.998Z</time>
      </trkpt>
      <trkpt lat="45.92573" lon="4.74485">
        <ele>167.699996948</ele>
        <time>2015-11-11T09:30:36.983Z</time>
      </trkpt>
      <trkpt lat="45.9257" lon="4.74491">
        <ele>167.600006104</ele>
        <time>2015-11-11T09:30:37.998Z</time>
      </trkpt>
      <trkpt lat="45.92566" lon="4.74498">
        <ele>167.600006104</ele>
        <time>2015-11-11T09:30:38.986Z</time>
      </trkpt>
      <trkpt lat="45.92563" lon="4.74504">
        <ele>167.600006104</ele>
        <time>2015-11-11T09:30:39.999Z</time>
      </trkpt>
      <trkpt lat="45.92559" lon="4.74511">
        <ele>167.5</ele>
        <time>2015-11-11T09:30:41.01Z</time>
      </trkpt>
      <trkpt lat="45.92556" lon="4.74517">
        <ele>167.399993896</ele>
        <time>2015-11-11T09:30:41.997Z</time>
      </trkpt>
      <trkpt lat="45.92552" lon="4.74524">
        <ele>167.199996948</ele>
        <time>2015-11-11T09:30:42.983Z</time>
      </trkpt>
      <trkpt lat="45.92548" lon="4.74531">
        <ele>167.100006104</ele>
        <time>2015-11-11T09:30:43.997Z</time>
      </trkpt>
      <trkpt lat="45.92545" lon="4.74537">
        <ele>167</ele>
        <time>2015-11-11T09:30:44.987Z</time>
      </trkpt>
      <trkpt lat="45.92541" lon="4.74544">
        <ele>166.899993896</ele>
        <time>2015-11-11T09:30:45.997Z</time>
      </trkpt>
      <trkpt lat="45.92537" lon="4.7455">
        <ele>166.899993896</ele>
        <time>2015-11-11T09:30:46.986Z</time>
      </trkpt>
      <trkpt lat="45.92533" lon="4.74557">
        <ele>166.800003052</ele>
        <time>2015-11-11T09:30:48.011Z</time>
      </trkpt>
      <trkpt lat="45.92528" lon="4.74563">
        <ele>166.800003052</ele>
        <time>2015-11-11T09:30:48.982Z</time>
      </trkpt>
      <trkpt lat="45.92524" lon="4.74568">
        <ele>167</ele>
        <time>2015-11-11T09:30:49.997Z</time>
      </trkpt>
      <trkpt lat="45.92519" lon="4.74574">
        <ele>167.100006104</ele>
        <time>2015-11-11T09:30:50.986Z</time>
      </trkpt>
      <trkpt lat="45.92515" lon="4.74579">
        <ele>167.199996948</ele>
        <time>2015-11-11T09:30:51.997Z</time>
      </trkpt>
      <trkpt lat="45.9251" lon="4.74584">
        <ele>167.300003052</ele>
        <time>2015-11-11T09:30:52.983Z</time>
      </trkpt>
      <trkpt lat="45.92506" lon="4.7459">
        <ele>167.5</ele>
        <time>2015-11-11T09:30:53.997Z</time>
      </trkpt>
      <trkpt lat="45.92501" lon="4.74595">
        <ele>167.600006104</ele>
        <time>2015-11-11T09:30:54.983Z</time>
      </trkpt>
      <trkpt lat="45.92497" lon="4.746">
        <ele>167.800003052</ele>
        <time>2015-11-11T09:30:55.997Z</time>
      </trkpt>
      <trkpt lat="45.92492" lon="4.74605">
        <ele>167.800003052</ele>
        <time>2015-11-11T09:30:56.986Z</time>
      </trkpt>
      <trkpt lat="45.92488" lon="4.7461">
        <ele>167.899993896</ele>
        <time>2015-11-11T09:30:57.997Z</time>
      </trkpt>
      <trkpt lat="45.92484" lon="4.74616">
        <ele>167.899993896</ele>
        <time>2015-11-11T09:30:58.996Z</time>
      </trkpt>
      <trkpt lat="45.9248" lon="4.74621">
        <ele>167.899993896</ele>
        <time>2015-11-11T09:30:59.997Z</time>
      </trkpt>
      <trkpt lat="45.92476" lon="4.74627">
        <ele>167.899993896</ele>
        <time>2015-11-11T09:31:00.983Z</time>
      </trkpt>
      <trkpt lat="45.92472" lon="4.74633">
        <ele>167.899993896</ele>
        <time>2015-11-11T09:31:01.997Z</time>
      </trkpt>
      <trkpt lat="45.92468" lon="4.74639">
        <ele>167.899993896</ele>
        <time>2015-11-11T09:31:02.986Z</time>
      </trkpt>
      <trkpt lat="45.92465" lon="4.74645">
        <ele>167.899993896</ele>
        <time>2015-11-11T09:31:03.998Z</time>
      </trkpt>
      <trkpt lat="45.92461" lon="4.74651">
        <ele>167.899993896</ele>
        <time>2015-11-11T09:31:04.984Z</time>
      </trkpt>
      <trkpt lat="45.92458" lon="4.74657">
        <ele>167.899993896</ele>
        <time>2015-11-11T09:31:05.998Z</time>
      </trkpt>
      <trkpt lat="45.92454" lon="4.74664">
        <ele>167.899993896</ele>
        <time>2015-11-11T09:31:06.988Z</time>
      </trkpt>
      <trkpt lat="45.92451" lon="4.7467">
        <ele>167.899993896</ele>
        <time>2015-11-11T09:31:07.997Z</time>
      </trkpt>
      <trkpt lat="45.92447" lon="4.74676">
        <ele>168</ele>
        <time>2015-11-11T09:31:08.986Z</time>
      </trkpt>
      <trkpt lat="45.92444" lon="4.74683">
        <ele>168</ele>
        <time>2015-11-11T09:31:09.996Z</time>
      </trkpt>
      <trkpt lat="45.92441" lon="4.74691">
        <ele>167.899993896</ele>
        <time>2015-11-11T09:31:10.983Z</time>
      </trkpt>
      <trkpt lat="45.92438" lon="4.74697">
        <ele>168</ele>
        <time>2015-11-11T09:31:11.997Z</time>
      </trkpt>
      <trkpt lat="45.92435" lon="4.74704">
        <ele>168.100006104</ele>
        <time>2015-11-11T09:31:13.092Z</time>
      </trkpt>
      <trkpt lat="45.92432" lon="4.74711">
        <ele>168.100006104</ele>
        <time>2015-11-11T09:31:13.996Z</time>
      </trkpt>
      <trkpt lat="45.92429" lon="4.74719">
        <ele>167.800003052</ele>
        <time>2015-11-11T09:31:14.986Z</time>
      </trkpt>
      <trkpt lat="45.92427" lon="4.74727">
        <ele>167.699996948</ele>
        <time>2015-11-11T09:31:15.997Z</time>
      </trkpt>
      <trkpt lat="45.92424" lon="4.74736">
        <ele>167.699996948</ele>
        <time>2015-11-11T09:31:16.986Z</time>
      </trkpt>
      <trkpt lat="45.92422" lon="4.74743">
        <ele>167.899993896</ele>
        <time>2015-11-11T09:31:17.998Z</time>
      </trkpt>
      <trkpt lat="45.9242" lon="4.74751">
        <ele>167.899993896</ele>
        <time>2015-11-11T09:31:18.982Z</time>
      </trkpt>
      <trkpt lat="45.92418" lon="4.74759">
        <ele>167.899993896</ele>
        <time>2015-11-11T09:31:20.012Z</time>
      </trkpt>
      <trkpt lat="45.92415" lon="4.74767">
        <ele>167.899993896</ele>
        <time>2015-11-11T09:31:20.986Z</time>
      </trkpt>
      <trkpt lat="45.92413" lon="4.74776">
        <ele>168</ele>
        <time>2015-11-11T09:31:21.997Z</time>
      </trkpt>
      <trkpt lat="45.92412" lon="4.74785">
        <ele>167.899993896</ele>
        <time>2015-11-11T09:31:22.983Z</time>
      </trkpt>
      <trkpt lat="45.9241" lon="4.74794">
        <ele>167.899993896</ele>
        <time>2015-11-11T09:31:23.997Z</time>
      </trkpt>
      <trkpt lat="45.92408" lon="4.74802">
        <ele>167.800003052</ele>
        <time>2015-11-11T09:31:24.983Z</time>
      </trkpt>
      <trkpt lat="45.92406" lon="4.74811">
        <ele>167.800003052</ele>
        <time>2015-11-11T09:31:25.999Z</time>
      </trkpt>
      <trkpt lat="45.92404" lon="4.7482">
        <ele>167.600006104</ele>
        <time>2015-11-11T09:31:26.99Z</time>
      </trkpt>
      <trkpt lat="45.92402" lon="4.74829">
        <ele>167.100006104</ele>
        <time>2015-11-11T09:31:28.124Z</time>
      </trkpt>
      <trkpt lat="45.924" lon="4.74838">
        <ele>167</ele>
        <time>2015-11-11T09:31:28.995Z</time>
      </trkpt>
      <trkpt lat="45.92397" lon="4.74847">
        <ele>166.800003052</ele>
        <time>2015-11-11T09:31:30.006Z</time>
      </trkpt>
      <trkpt lat="45.92395" lon="4.74856">
        <ele>166.600006104</ele>
        <time>2015-11-11T09:31:31.008Z</time>
      </trkpt>
      <trkpt lat="45.92392" lon="4.74864">
        <ele>166.399993896</ele>
        <time>2015-11-11T09:31:32.002Z</time>
      </trkpt>
      <trkpt lat="45.9239" lon="4.74872">
        <ele>166.300003052</ele>
        <time>2015-11-11T09:31:32.991Z</time>
      </trkpt>
      <trkpt lat="45.92387" lon="4.7488">
        <ele>166.199996948</ele>
        <time>2015-11-11T09:31:34.002Z</time>
      </trkpt>
      <trkpt lat="45.92384" lon="4.74888">
        <ele>166.300003052</ele>
        <time>2015-11-11T09:31:34.987Z</time>
      </trkpt>
      <trkpt lat="45.92381" lon="4.74896">
        <ele>166.399993896</ele>
        <time>2015-11-11T09:31:36.001Z</time>
      </trkpt>
      <trkpt lat="45.92378" lon="4.74904">
        <ele>166.5</ele>
        <time>2015-11-11T09:31:36.993Z</time>
      </trkpt>
      <trkpt lat="45.92375" lon="4.74912">
        <ele>166.300003052</ele>
        <time>2015-11-11T09:31:38Z</time>
      </trkpt>
      <trkpt lat="45.92372" lon="4.7492">
        <ele>166.199996948</ele>
        <time>2015-11-11T09:31:38.988Z</time>
      </trkpt>
      <trkpt lat="45.92369" lon="4.74928">
        <ele>166.199996948</ele>
        <time>2015-11-11T09:31:40.003Z</time>
      </trkpt>
      <trkpt lat="45.92366" lon="4.74935">
        <ele>166.199996948</ele>
        <time>2015-11-11T09:31:40.985Z</time>
      </trkpt>
      <trkpt lat="45.92363" lon="4.74943">
        <ele>166.199996948</ele>
        <time>2015-11-11T09:31:42Z</time>
      </trkpt>
      <trkpt lat="45.9236" lon="4.74949">
        <ele>166.100006104</ele>
        <time>2015-11-11T09:31:42.985Z</time>
      </trkpt>
      <trkpt lat="45.92358" lon="4.74957">
        <ele>166</ele>
        <time>2015-11-11T09:31:43.999Z</time>
      </trkpt>
      <trkpt lat="45.92355" lon="4.74964">
        <ele>165.899993896</ele>
        <time>2015-11-11T09:31:44.988Z</time>
      </trkpt>
      <trkpt lat="45.92352" lon="4.74971">
        <ele>165.899993896</ele>
        <time>2015-11-11T09:31:46.001Z</time>
      </trkpt>
      <trkpt lat="45.92349" lon="4.74977">
        <ele>165.899993896</ele>
        <time>2015-11-11T09:31:47.005Z</time>
      </trkpt>
      <trkpt lat="45.92346" lon="4.74985">
        <ele>165.899993896</ele>
        <time>2015-11-11T09:31:48Z</time>
      </trkpt>
      <trkpt lat="45.92343" lon="4.74992">
        <ele>165.800003052</ele>
        <time>2015-11-11T09:31:48.984Z</time>
      </trkpt>
      <trkpt lat="45.92341" lon="4.74999">
        <ele>165.699996948</ele>
        <time>2015-11-11T09:31:50.001Z</time>
      </trkpt>
      <trkpt lat="45.92338" lon="4.75006">
        <ele>165.5</ele>
        <time>2015-11-11T09:31:50.988Z</time>
      </trkpt>
      <trkpt lat="45.92335" lon="4.75014">
        <ele>165.399993896</ele>
        <time>2015-11-11T09:31:52.008Z</time>
      </trkpt>
      <trkpt lat="45.92332" lon="4.75021">
        <ele>165.199996948</ele>
        <time>2015-11-11T09:31:52.983Z</time>
      </trkpt>
      <trkpt lat="45.92328" lon="4.75028">
        <ele>165</ele>
        <time>2015-11-11T09:31:53.999Z</time>
      </trkpt>
      <trkpt lat="45.92325" lon="4.75035">
        <ele>164.899993896</ele>
        <time>2015-11-11T09:31:54.983Z</time>
      </trkpt>
      <trkpt lat="45.92321" lon="4.75042">
        <ele>164.600006104</ele>
        <time>2015-11-11T09:31:56Z</time>
      </trkpt>
      <trkpt lat="45.92317" lon="4.75049">
        <ele>164.399993896</ele>
        <time>2015-11-11T09:31:57.126Z</time>
      </trkpt>
      <trkpt lat="45.92314" lon="4.75055">
        <ele>163.800003052</ele>
        <time>2015-11-11T09:31:57.999Z</time>
      </trkpt>
      <trkpt lat="45.92309" lon="4.75061">
        <ele>164.300003052</ele>
        <time>2015-11-11T09:31:58.989Z</time>
      </trkpt>
      <trkpt lat="45.92305" lon="4.75067">
        <ele>164.300003052</ele>
        <time>2015-11-11T09:32:00.029Z</time>
      </trkpt>
      <trkpt lat="45.923" lon="4.75072">
        <ele>164.399993896</ele>
        <time>2015-11-11T09:32:00.999Z</time>
      </trkpt>
      <trkpt lat="45.92295" lon="4.75078">
        <ele>164.5</ele>
        <time>2015-11-11T09:32:02.013Z</time>
      </trkpt>
      <trkpt lat="45.92291" lon="4.75083">
        <ele>164.5</ele>
        <time>2015-11-11T09:32:02.987Z</time>
      </trkpt>
      <trkpt lat="45.92286" lon="4.75088">
        <ele>164.699996948</ele>
        <time>2015-11-11T09:32:04.014Z</time>
      </trkpt>
      <trkpt lat="45.92282" lon="4.75092">
        <ele>164.800003052</ele>
        <time>2015-11-11T09:32:04.986Z</time>
      </trkpt>
      <trkpt lat="45.92278" lon="4.75097">
        <ele>164.600006104</ele>
        <time>2015-11-11T09:32:05.999Z</time>
      </trkpt>
      <trkpt lat="45.92273" lon="4.75102">
        <ele>164.800003052</ele>
        <time>2015-11-11T09:32:06.989Z</time>
      </trkpt>
      <trkpt lat="45.92268" lon="4.75106">
        <ele>165.399993896</ele>
        <time>2015-11-11T09:32:08.004Z</time>
      </trkpt>
      <trkpt lat="45.92264" lon="4.75111">
        <ele>165.5</ele>
        <time>2015-11-11T09:32:08.987Z</time>
      </trkpt>
      <trkpt lat="45.92259" lon="4.75116">
        <ele>165.699996948</ele>
        <time>2015-11-11T09:32:10Z</time>
      </trkpt>
      <trkpt lat="45.92255" lon="4.75121">
        <ele>165.899993896</ele>
        <time>2015-11-11T09:32:10.985Z</time>
      </trkpt>
      <trkpt lat="45.92251" lon="4.75126">
        <ele>166.100006104</ele>
        <time>2015-11-11T09:32:12Z</time>
      </trkpt>
      <trkpt lat="45.92246" lon="4.75131">
        <ele>166.100006104</ele>
        <time>2015-11-11T09:32:12.997Z</time>
      </trkpt>
      <trkpt lat="45.92243" lon="4.75137">
        <ele>166.100006104</ele>
        <time>2015-11-11T09:32:13.998Z</time>
      </trkpt>
      <trkpt lat="45.92239" lon="4.75142">
        <ele>166.199996948</ele>
        <time>2015-11-11T09:32:14.987Z</time>
      </trkpt>
      <trkpt lat="45.92235" lon="4.75148">
        <ele>166.199996948</ele>
        <time>2015-11-11T09:32:16.029Z</time>
      </trkpt>
      <trkpt lat="45.92232" lon="4.75154">
        <ele>166.199996948</ele>
        <time>2015-11-11T09:32:16.991Z</time>
      </trkpt>
      <trkpt lat="45.92229" lon="4.75161">
        <ele>166.199996948</ele>
        <time>2015-11-11T09:32:18.01Z</time>
      </trkpt>
      <trkpt lat="45.92226" lon="4.75168">
        <ele>166.199996948</ele>
        <time>2015-11-11T09:32:18.984Z</time>
      </trkpt>
      <trkpt lat="45.92223" lon="4.75174">
        <ele>166.199996948</ele>
        <time>2015-11-11T09:32:20.001Z</time>
      </trkpt>
      <trkpt lat="45.92221" lon="4.75181">
        <ele>166.199996948</ele>
        <time>2015-11-11T09:32:20.989Z</time>
      </trkpt>
      <trkpt lat="45.92219" lon="4.75188">
        <ele>166</ele>
        <time>2015-11-11T09:32:22.001Z</time>
      </trkpt>
      <trkpt lat="45.92217" lon="4.75196">
        <ele>166</ele>
        <time>2015-11-11T09:32:22.986Z</time>
      </trkpt>
      <trkpt lat="45.92216" lon="4.75203">
        <ele>166</ele>
        <time>2015-11-11T09:32:24.001Z</time>
      </trkpt>
      <trkpt lat="45.92215" lon="4.7521">
        <ele>166</ele>
        <time>2015-11-11T09:32:24.987Z</time>
      </trkpt>
      <trkpt lat="45.92214" lon="4.75217">
        <ele>166.100006104</ele>
        <time>2015-11-11T09:32:25.999Z</time>
      </trkpt>
      <trkpt lat="45.92213" lon="4.75225">
        <ele>166.300003052</ele>
        <time>2015-11-11T09:32:26.993Z</time>
      </trkpt>
      <trkpt lat="45.92212" lon="4.75233">
        <ele>166.5</ele>
        <time>2015-11-11T09:32:28Z</time>
      </trkpt>
      <trkpt lat="45.92211" lon="4.7524">
        <ele>166.800003052</ele>
        <time>2015-11-11T09:32:28.984Z</time>
      </trkpt>
      <trkpt lat="45.92211" lon="4.75248">
        <ele>167</ele>
        <time>2015-11-11T09:32:30Z</time>
      </trkpt>
      <trkpt lat="45.92211" lon="4.75254">
        <ele>167.199996948</ele>
        <time>2015-11-11T09:32:30.985Z</time>
      </trkpt>
      <trkpt lat="45.92211" lon="4.75262">
        <ele>167.600006104</ele>
        <time>2015-11-11T09:32:31.998Z</time>
      </trkpt>
      <trkpt lat="45.9221" lon="4.75269">
        <ele>168</ele>
        <time>2015-11-11T09:32:32.987Z</time>
      </trkpt>
      <trkpt lat="45.92211" lon="4.75277">
        <ele>168.300003052</ele>
        <time>2015-11-11T09:32:34.011Z</time>
      </trkpt>
      <trkpt lat="45.92211" lon="4.75284">
        <ele>168.600006104</ele>
        <time>2015-11-11T09:32:34.985Z</time>
      </trkpt>
      <trkpt lat="45.9221" lon="4.75291">
        <ele>169.199996948</ele>
        <time>2015-11-11T09:32:35.999Z</time>
      </trkpt>
      <trkpt lat="45.9221" lon="4.75298">
        <ele>169.5</ele>
        <time>2015-11-11T09:32:36.99Z</time>
      </trkpt>
      <trkpt lat="45.9221" lon="4.75305">
        <ele>169.899993896</ele>
        <time>2015-11-11T09:32:37.998Z</time>
      </trkpt>
      <trkpt lat="45.92209" lon="4.75313">
        <ele>170.300003052</ele>
        <time>2015-11-11T09:32:39Z</time>
      </trkpt>
      <trkpt lat="45.92208" lon="4.7532">
        <ele>170.699996948</ele>
        <time>2015-11-11T09:32:40.001Z</time>
      </trkpt>
      <trkpt lat="45.92207" lon="4.75327">
        <ele>170.899993896</ele>
        <time>2015-11-11T09:32:40.984Z</time>
      </trkpt>
      <trkpt lat="45.92207" lon="4.75333">
        <ele>171.100006104</ele>
        <time>2015-11-11T09:32:41.999Z</time>
      </trkpt>
      <trkpt lat="45.92206" lon="4.7534">
        <ele>171.300003052</ele>
        <time>2015-11-11T09:32:42.983Z</time>
      </trkpt>
      <trkpt lat="45.92204" lon="4.75347">
        <ele>171.300003052</ele>
        <time>2015-11-11T09:32:43.999Z</time>
      </trkpt>
      <trkpt lat="45.92203" lon="4.75353">
        <ele>171.300003052</ele>
        <time>2015-11-11T09:32:45.106Z</time>
      </trkpt>
      <trkpt lat="45.92201" lon="4.75359">
        <ele>171.600006104</ele>
        <time>2015-11-11T09:32:45.998Z</time>
      </trkpt>
      <trkpt lat="45.92199" lon="4.75366">
        <ele>171.399993896</ele>
        <time>2015-11-11T09:32:46.989Z</time>
      </trkpt>
      <trkpt lat="45.92197" lon="4.75373">
        <ele>171.899993896</ele>
        <time>2015-11-11T09:32:47.999Z</time>
      </trkpt>
      <trkpt lat="45.92194" lon="4.75379">
        <ele>171.899993896</ele>
        <time>2015-11-11T09:32:48.984Z</time>
      </trkpt>
      <trkpt lat="45.92192" lon="4.75385">
        <ele>172.199996948</ele>
        <time>2015-11-11T09:32:49.999Z</time>
      </trkpt>
      <trkpt lat="45.92189" lon="4.75392">
        <ele>172.399993896</ele>
        <time>2015-11-11T09:32:50.99Z</time>
      </trkpt>
      <trkpt lat="45.92187" lon="4.75399">
        <ele>172.5</ele>
        <time>2015-11-11T09:32:52.001Z</time>
      </trkpt>
      <trkpt lat="45.92186" lon="4.75406">
        <ele>173.100006104</ele>
        <time>2015-11-11T09:32:52.986Z</time>
      </trkpt>
      <trkpt lat="45.92183" lon="4.75412">
        <ele>173.699996948</ele>
        <time>2015-11-11T09:32:53.999Z</time>
      </trkpt>
      <trkpt lat="45.92181" lon="4.75419">
        <ele>173.699996948</ele>
        <time>2015-11-11T09:32:54.984Z</time>
      </trkpt>
      <trkpt lat="45.92178" lon="4.75425">
        <ele>173.800003052</ele>
        <time>2015-11-11T09:32:56.014Z</time>
      </trkpt>
      <trkpt lat="45.92176" lon="4.75432">
        <ele>174</ele>
        <time>2015-11-11T09:32:56.992Z</time>
      </trkpt>
      <trkpt lat="45.92174" lon="4.75438">
        <ele>174.399993896</ele>
        <time>2015-11-11T09:32:57.999Z</time>
      </trkpt>
      <trkpt lat="45.92171" lon="4.75445">
        <ele>174.600006104</ele>
        <time>2015-11-11T09:32:58.985Z</time>
      </trkpt>
      <trkpt lat="45.92168" lon="4.75451">
        <ele>174.399993896</ele>
        <time>2015-11-11T09:33:00.132Z</time>
      </trkpt>
      <trkpt lat="45.92165" lon="4.75459">
        <ele>173.600006104</ele>
        <time>2015-11-11T09:33:00.984Z</time>
      </trkpt>
      <trkpt lat="45.92161" lon="4.75466">
        <ele>173.5</ele>
        <time>2015-11-11T09:33:01.999Z</time>
      </trkpt>
      <trkpt lat="45.92158" lon="4.75473">
        <ele>173.199996948</ele>
        <time>2015-11-11T09:33:02.987Z</time>
      </trkpt>
      <trkpt lat="45.92154" lon="4.7548">
        <ele>172.899993896</ele>
        <time>2015-11-11T09:33:03.999Z</time>
      </trkpt>
      <trkpt lat="45.92151" lon="4.75487">
        <ele>172.800003052</ele>
        <time>2015-11-11T09:33:04.985Z</time>
      </trkpt>
      <trkpt lat="45.92147" lon="4.75494">
        <ele>172</ele>
        <time>2015-11-11T09:33:05.999Z</time>
      </trkpt>
      <trkpt lat="45.92144" lon="4.75501">
        <ele>171.600006104</ele>
        <time>2015-11-11T09:33:06.99Z</time>
      </trkpt>
      <trkpt lat="45.92141" lon="4.75508">
        <ele>171.600006104</ele>
        <time>2015-11-11T09:33:07.999Z</time>
      </trkpt>
      <trkpt lat="45.92137" lon="4.75514">
        <ele>171.300003052</ele>
        <time>2015-11-11T09:33:08.987Z</time>
      </trkpt>
      <trkpt lat="45.92134" lon="4.7552">
        <ele>171.399993896</ele>
        <time>2015-11-11T09:33:09.998Z</time>
      </trkpt>
      <trkpt lat="45.9213" lon="4.75526">
        <ele>171.300003052</ele>
        <time>2015-11-11T09:33:10.985Z</time>
      </trkpt>
      <trkpt lat="45.92127" lon="4.75532">
        <ele>171.5</ele>
        <time>2015-11-11T09:33:12.013Z</time>
      </trkpt>
      <trkpt lat="45.92124" lon="4.75539">
        <ele>171.100006104</ele>
        <time>2015-11-11T09:33:12.983Z</time>
      </trkpt>
      <trkpt lat="45.92121" lon="4.75545">
        <ele>171</ele>
        <time>2015-11-11T09:33:13.999Z</time>
      </trkpt>
      <trkpt lat="45.92117" lon="4.75551">
        <ele>171.100006104</ele>
        <time>2015-11-11T09:33:14.988Z</time>
      </trkpt>
      <trkpt lat="45.92114" lon="4.75557">
        <ele>171.300003052</ele>
        <time>2015-11-11T09:33:15.999Z</time>
      </trkpt>
      <trkpt lat="45.9211" lon="4.75563">
        <ele>171.5</ele>
        <time>2015-11-11T09:33:16.994Z</time>
      </trkpt>
      <trkpt lat="45.92107" lon="4.75568">
        <ele>171.800003052</ele>
        <time>2015-11-11T09:33:17.999Z</time>
      </trkpt>
      <trkpt lat="45.92103" lon="4.75574">
        <ele>171.699996948</ele>
        <time>2015-11-11T09:33:18.984Z</time>
      </trkpt>
      <trkpt lat="45.92099" lon="4.75581">
        <ele>171.699996948</ele>
        <time>2015-11-11T09:33:19.998Z</time>
      </trkpt>
      <trkpt lat="45.92096" lon="4.75587">
        <ele>171.600006104</ele>
        <time>2015-11-11T09:33:20.987Z</time>
      </trkpt>
      <trkpt lat="45.92093" lon="4.75593">
        <ele>171.699996948</ele>
        <time>2015-11-11T09:33:21.998Z</time>
      </trkpt>
      <trkpt lat="45.92089" lon="4.756">
        <ele>172</ele>
        <time>2015-11-11T09:33:22.986Z</time>
      </trkpt>
      <trkpt lat="45.92086" lon="4.75607">
        <ele>172</ele>
        <time>2015-11-11T09:33:24Z</time>
      </trkpt>
      <trkpt lat="45.92082" lon="4.75613">
        <ele>172.100006104</ele>
        <time>2015-11-11T09:33:24.985Z</time>
      </trkpt>
      <trkpt lat="45.92079" lon="4.7562">
        <ele>172.399993896</ele>
        <time>2015-11-11T09:33:26Z</time>
      </trkpt>
      <trkpt lat="45.92075" lon="4.75626">
        <ele>172.5</ele>
        <time>2015-11-11T09:33:27Z</time>
      </trkpt>
      <trkpt lat="45.92072" lon="4.75633">
        <ele>172.5</ele>
        <time>2015-11-11T09:33:28.015Z</time>
      </trkpt>
      <trkpt lat="45.92068" lon="4.75639">
        <ele>172.5</ele>
        <time>2015-11-11T09:33:28.985Z</time>
      </trkpt>
      <trkpt lat="45.92064" lon="4.75646">
        <ele>172.699996948</ele>
        <time>2015-11-11T09:33:29.999Z</time>
      </trkpt>
      <trkpt lat="45.9206" lon="4.75653">
        <ele>172.800003052</ele>
        <time>2015-11-11T09:33:30.984Z</time>
      </trkpt>
      <trkpt lat="45.92056" lon="4.7566">
        <ele>172.800003052</ele>
        <time>2015-11-11T09:33:31.999Z</time>
      </trkpt>
      <trkpt lat="45.92053" lon="4.75667">
        <ele>172.399993896</ele>
        <time>2015-11-11T09:33:32.986Z</time>
      </trkpt>
      <trkpt lat="45.92049" lon="4.75673">
        <ele>172.800003052</ele>
        <time>2015-11-11T09:33:33.999Z</time>
      </trkpt>
      <trkpt lat="45.92045" lon="4.7568">
        <ele>172.899993896</ele>
        <time>2015-11-11T09:33:34.985Z</time>
      </trkpt>
      <trkpt lat="45.92042" lon="4.75687">
        <ele>172.699996948</ele>
        <time>2015-11-11T09:33:35.999Z</time>
      </trkpt>
      <trkpt lat="45.92038" lon="4.75693">
        <ele>172.699996948</ele>
        <time>2015-11-11T09:33:36.995Z</time>
      </trkpt>
      <trkpt lat="45.92035" lon="4.757">
        <ele>172.800003052</ele>
        <time>2015-11-11T09:33:38Z</time>
      </trkpt>
      <trkpt lat="45.92031" lon="4.75707">
        <ele>173.100006104</ele>
        <time>2015-11-11T09:33:38.987Z</time>
      </trkpt>
      <trkpt lat="45.92027" lon="4.75713">
        <ele>173</ele>
        <time>2015-11-11T09:33:40.003Z</time>
      </trkpt>
      <trkpt lat="45.92023" lon="4.7572">
        <ele>172.800003052</ele>
        <time>2015-11-11T09:33:40.986Z</time>
      </trkpt>
      <trkpt lat="45.92019" lon="4.75727">
        <ele>172.699996948</ele>
        <time>2015-11-11T09:33:42Z</time>
      </trkpt>
      <trkpt lat="45.92015" lon="4.75734">
        <ele>172.699996948</ele>
        <time>2015-11-11T09:33:42.987Z</time>
      </trkpt>
      <trkpt lat="45.92012" lon="4.75742">
        <ele>172.199996948</ele>
        <time>2015-11-11T09:33:44.022Z</time>
      </trkpt>
      <trkpt lat="45.92008" lon="4.75748">
        <ele>172.300003052</ele>
        <time>2015-11-11T09:33:44.987Z</time>
      </trkpt>
      <trkpt lat="45.92004" lon="4.75755">
        <ele>172.300003052</ele>
        <time>2015-11-11T09:33:45.998Z</time>
      </trkpt>
      <trkpt lat="45.92" lon="4.75762">
        <ele>172.100006104</ele>
        <time>2015-11-11T09:33:46.996Z</time>
      </trkpt>
      <trkpt lat="45.91996" lon="4.7577">
        <ele>171.800003052</ele>
        <time>2015-11-11T09:33:48Z</time>
      </trkpt>
      <trkpt lat="45.91992" lon="4.75776">
        <ele>171.5</ele>
        <time>2015-11-11T09:33:48.984Z</time>
      </trkpt>
      <trkpt lat="45.91988" lon="4.75783">
        <ele>171.399993896</ele>
        <time>2015-11-11T09:33:49.999Z</time>
      </trkpt>
      <trkpt lat="45.91984" lon="4.7579">
        <ele>171.199996948</ele>
        <time>2015-11-11T09:33:50.987Z</time>
      </trkpt>
      <trkpt lat="45.9198" lon="4.75796">
        <ele>171.300003052</ele>
        <time>2015-11-11T09:33:52Z</time>
      </trkpt>
      <trkpt lat="45.91977" lon="4.75802">
        <ele>171.300003052</ele>
        <time>2015-11-11T09:33:52.984Z</time>
      </trkpt>
      <trkpt lat="45.91973" lon="4.75808">
        <ele>171.199996948</ele>
        <time>2015-11-11T09:33:53.999Z</time>
      </trkpt>
      <trkpt lat="45.9197" lon="4.75815">
        <ele>171.100006104</ele>
        <time>2015-11-11T09:33:54.997Z</time>
      </trkpt>
      <trkpt lat="45.91966" lon="4.75822">
        <ele>171</ele>
        <time>2015-11-11T09:33:55.998Z</time>
      </trkpt>
      <trkpt lat="45.91962" lon="4.75828">
        <ele>171.100006104</ele>
        <time>2015-11-11T09:33:56.994Z</time>
      </trkpt>
      <trkpt lat="45.91959" lon="4.75835">
        <ele>171</ele>
        <time>2015-11-11T09:33:57.999Z</time>
      </trkpt>
      <trkpt lat="45.91955" lon="4.75842">
        <ele>170.800003052</ele>
        <time>2015-11-11T09:33:58.983Z</time>
      </trkpt>
      <trkpt lat="45.91952" lon="4.75849">
        <ele>170.699996948</ele>
        <time>2015-11-11T09:33:59.999Z</time>
      </trkpt>
      <trkpt lat="45.91948" lon="4.75855">
        <ele>170.699996948</ele>
        <time>2015-11-11T09:34:00.983Z</time>
      </trkpt>
      <trkpt lat="45.91945" lon="4.75862">
        <ele>170.800003052</ele>
        <time>2015-11-11T09:34:01.999Z</time>
      </trkpt>
      <trkpt lat="45.91941" lon="4.75869">
        <ele>170.800003052</ele>
        <time>2015-11-11T09:34:02.986Z</time>
      </trkpt>
      <trkpt lat="45.91938" lon="4.75876">
        <ele>170.800003052</ele>
        <time>2015-11-11T09:34:04.005Z</time>
      </trkpt>
      <trkpt lat="45.91935" lon="4.75883">
        <ele>170.800003052</ele>
        <time>2015-11-11T09:34:04.985Z</time>
      </trkpt>
      <trkpt lat="45.91932" lon="4.7589">
        <ele>170.699996948</ele>
        <time>2015-11-11T09:34:05.998Z</time>
      </trkpt>
      <trkpt lat="45.91929" lon="4.75897">
        <ele>170.699996948</ele>
        <time>2015-11-11T09:34:06.988Z</time>
      </trkpt>
      <trkpt lat="45.91926" lon="4.75905">
        <ele>170.600006104</ele>
        <time>2015-11-11T09:34:07.997Z</time>
      </trkpt>
      <trkpt lat="45.91924" lon="4.75913">
        <ele>170.600006104</ele>
        <time>2015-11-11T09:34:08.989Z</time>
      </trkpt>
      <trkpt lat="45.91922" lon="4.7592">
        <ele>170.5</ele>
        <time>2015-11-11T09:34:09.999Z</time>
      </trkpt>
      <trkpt lat="45.9192" lon="4.75928">
        <ele>170.399993896</ele>
        <time>2015-11-11T09:34:10.999Z</time>
      </trkpt>
      <trkpt lat="45.91918" lon="4.75936">
        <ele>170.399993896</ele>
        <time>2015-11-11T09:34:11.996Z</time>
      </trkpt>
      <trkpt lat="45.91916" lon="4.75944">
        <ele>170.300003052</ele>
        <time>2015-11-11T09:34:12.984Z</time>
      </trkpt>
      <trkpt lat="45.91914" lon="4.75952">
        <ele>170.300003052</ele>
        <time>2015-11-11T09:34:13.999Z</time>
      </trkpt>
      <trkpt lat="45.91912" lon="4.7596">
        <ele>170.199996948</ele>
        <time>2015-11-11T09:34:14.987Z</time>
      </trkpt>
      <trkpt lat="45.91909" lon="4.75968">
        <ele>170.199996948</ele>
        <time>2015-11-11T09:34:15.998Z</time>
      </trkpt>
      <trkpt lat="45.91907" lon="4.75977">
        <ele>170.199996948</ele>
        <time>2015-11-11T09:34:16.993Z</time>
      </trkpt>
      <trkpt lat="45.91905" lon="4.75985">
        <ele>170.199996948</ele>
        <time>2015-11-11T09:34:17.999Z</time>
      </trkpt>
      <trkpt lat="45.91903" lon="4.75993">
        <ele>170.199996948</ele>
        <time>2015-11-11T09:34:18.984Z</time>
      </trkpt>
      <trkpt lat="45.91901" lon="4.76001">
        <ele>170.199996948</ele>
        <time>2015-11-11T09:34:20.001Z</time>
      </trkpt>
      <trkpt lat="45.91899" lon="4.76009">
        <ele>170.100006104</ele>
        <time>2015-11-11T09:34:20.987Z</time>
      </trkpt>
      <trkpt lat="45.91897" lon="4.76017">
        <ele>170.100006104</ele>
        <time>2015-11-11T09:34:21.999Z</time>
      </trkpt>
      <trkpt lat="45.91895" lon="4.76025">
        <ele>170.100006104</ele>
        <time>2015-11-11T09:34:22.985Z</time>
      </trkpt>
      <trkpt lat="45.91893" lon="4.76033">
        <ele>170</ele>
        <time>2015-11-11T09:34:23.999Z</time>
      </trkpt>
      <trkpt lat="45.91891" lon="4.7604">
        <ele>170</ele>
        <time>2015-11-11T09:34:24.984Z</time>
      </trkpt>
      <trkpt lat="45.91889" lon="4.76047">
        <ele>169.899993896</ele>
        <time>2015-11-11T09:34:26Z</time>
      </trkpt>
      <trkpt lat="45.91887" lon="4.76055">
        <ele>169.800003052</ele>
        <time>2015-11-11T09:34:26.995Z</time>
      </trkpt>
      <trkpt lat="45.91886" lon="4.76062">
        <ele>169.800003052</ele>
        <time>2015-11-11T09:34:27.998Z</time>
      </trkpt>
      <trkpt lat="45.91884" lon="4.76069">
        <ele>169.600006104</ele>
        <time>2015-11-11T09:34:28.983Z</time>
      </trkpt>
      <trkpt lat="45.91882" lon="4.76076">
        <ele>169.5</ele>
        <time>2015-11-11T09:34:29.999Z</time>
      </trkpt>
      <trkpt lat="45.9188" lon="4.76084">
        <ele>169.5</ele>
        <time>2015-11-11T09:34:30.983Z</time>
      </trkpt>
      <trkpt lat="45.91878" lon="4.76092">
        <ele>169.5</ele>
        <time>2015-11-11T09:34:32Z</time>
      </trkpt>
      <trkpt lat="45.91876" lon="4.76099">
        <ele>169.399993896</ele>
        <time>2015-11-11T09:34:32.987Z</time>
      </trkpt>
      <trkpt lat="45.91874" lon="4.76107">
        <ele>169.399993896</ele>
        <time>2015-11-11T09:34:33.999Z</time>
      </trkpt>
      <trkpt lat="45.91872" lon="4.76115">
        <ele>169.399993896</ele>
        <time>2015-11-11T09:34:34.987Z</time>
      </trkpt>
      <trkpt lat="45.9187" lon="4.76122">
        <ele>169.399993896</ele>
        <time>2015-11-11T09:34:35.999Z</time>
      </trkpt>
      <trkpt lat="45.91868" lon="4.7613">
        <ele>169.399993896</ele>
        <time>2015-11-11T09:34:37.013Z</time>
      </trkpt>
      <trkpt lat="45.91866" lon="4.76138">
        <ele>169.300003052</ele>
        <time>2015-11-11T09:34:37.998Z</time>
      </trkpt>
      <trkpt lat="45.91864" lon="4.76146">
        <ele>169.199996948</ele>
        <time>2015-11-11T09:34:38.987Z</time>
      </trkpt>
      <trkpt lat="45.91862" lon="4.76154">
        <ele>169.100006104</ele>
        <time>2015-11-11T09:34:40.001Z</time>
      </trkpt>
      <trkpt lat="45.9186" lon="4.76162">
        <ele>169.100006104</ele>
        <time>2015-11-11T09:34:40.984Z</time>
      </trkpt>
      <trkpt lat="45.91858" lon="4.7617">
        <ele>169.100006104</ele>
        <time>2015-11-11T09:34:41.998Z</time>
      </trkpt>
      <trkpt lat="45.91856" lon="4.76178">
        <ele>169.199996948</ele>
        <time>2015-11-11T09:34:42.983Z</time>
      </trkpt>
      <trkpt lat="45.91854" lon="4.76186">
        <ele>169.100006104</ele>
        <time>2015-11-11T09:34:43.998Z</time>
      </trkpt>
      <trkpt lat="45.91851" lon="4.76194">
        <ele>169.100006104</ele>
        <time>2015-11-11T09:34:44.986Z</time>
      </trkpt>
      <trkpt lat="45.91849" lon="4.76202">
        <ele>169.199996948</ele>
        <time>2015-11-11T09:34:45.998Z</time>
      </trkpt>
      <trkpt lat="45.91847" lon="4.7621">
        <ele>169.100006104</ele>
        <time>2015-11-11T09:34:46.984Z</time>
      </trkpt>
      <trkpt lat="45.91845" lon="4.76218">
        <ele>169.100006104</ele>
        <time>2015-11-11T09:34:48.013Z</time>
      </trkpt>
      <trkpt lat="45.91842" lon="4.76227">
        <ele>169</ele>
        <time>2015-11-11T09:34:49.028Z</time>
      </trkpt>
      <trkpt lat="45.91841" lon="4.76235">
        <ele>169</ele>
        <time>2015-11-11T09:34:49.998Z</time>
      </trkpt>
      <trkpt lat="45.91838" lon="4.76243">
        <ele>169</ele>
        <time>2015-11-11T09:34:50.988Z</time>
      </trkpt>
      <trkpt lat="45.91836" lon="4.76251">
        <ele>168.899993896</ele>
        <time>2015-11-11T09:34:51.998Z</time>
      </trkpt>
      <trkpt lat="45.91834" lon="4.7626">
        <ele>168.899993896</ele>
        <time>2015-11-11T09:34:52.984Z</time>
      </trkpt>
      <trkpt lat="45.91832" lon="4.76268">
        <ele>168.899993896</ele>
        <time>2015-11-11T09:34:53.998Z</time>
      </trkpt>
      <trkpt lat="45.9183" lon="4.76277">
        <ele>168.899993896</ele>
        <time>2015-11-11T09:34:54.983Z</time>
      </trkpt>
      <trkpt lat="45.91828" lon="4.76285">
        <ele>168.899993896</ele>
        <time>2015-11-11T09:34:55.997Z</time>
      </trkpt>
      <trkpt lat="45.91826" lon="4.76293">
        <ele>168.899993896</ele>
        <time>2015-11-11T09:34:56.986Z</time>
      </trkpt>
      <trkpt lat="45.91824" lon="4.76301">
        <ele>168.800003052</ele>
        <time>2015-11-11T09:34:57.997Z</time>
      </trkpt>
      <trkpt lat="45.91822" lon="4.7631">
        <ele>168.800003052</ele>
        <time>2015-11-11T09:34:58.984Z</time>
      </trkpt>
      <trkpt lat="45.9182" lon="4.76317">
        <ele>168.699996948</ele>
        <time>2015-11-11T09:35:00.027Z</time>
      </trkpt>
      <trkpt lat="45.91818" lon="4.76326">
        <ele>168.600006104</ele>
        <time>2015-11-11T09:35:00.985Z</time>
      </trkpt>
      <trkpt lat="45.91817" lon="4.76334">
        <ele>168.600006104</ele>
        <time>2015-11-11T09:35:02Z</time>
      </trkpt>
      <trkpt lat="45.91815" lon="4.76342">
        <ele>168.399993896</ele>
        <time>2015-11-11T09:35:02.986Z</time>
      </trkpt>
      <trkpt lat="45.91815" lon="4.7635">
        <ele>168.399993896</ele>
        <time>2015-11-11T09:35:04.012Z</time>
      </trkpt>
      <trkpt lat="45.91814" lon="4.76358">
        <ele>168.399993896</ele>
        <time>2015-11-11T09:35:04.984Z</time>
      </trkpt>
      <trkpt lat="45.91813" lon="4.76366">
        <ele>168.600006104</ele>
        <time>2015-11-11T09:35:05.999Z</time>
      </trkpt>
      <trkpt lat="45.91812" lon="4.76374">
        <ele>168.600006104</ele>
        <time>2015-11-11T09:35:06.983Z</time>
      </trkpt>
      <trkpt lat="45.91811" lon="4.76383">
        <ele>169</ele>
        <time>2015-11-11T09:35:07.998Z</time>
      </trkpt>
      <trkpt lat="45.9181" lon="4.76391">
        <ele>169.100006104</ele>
        <time>2015-11-11T09:35:08.986Z</time>
      </trkpt>
      <trkpt lat="45.9181" lon="4.76399">
        <ele>169</ele>
        <time>2015-11-11T09:35:10Z</time>
      </trkpt>
      <trkpt lat="45.9181" lon="4.76408">
        <ele>168.899993896</ele>
        <time>2015-11-11T09:35:10.984Z</time>
      </trkpt>
      <trkpt lat="45.91809" lon="4.76416">
        <ele>168.899993896</ele>
        <time>2015-11-11T09:35:11.998Z</time>
      </trkpt>
      <trkpt lat="45.91809" lon="4.76424">
        <ele>168.800003052</ele>
        <time>2015-11-11T09:35:12.983Z</time>
      </trkpt>
      <trkpt lat="45.91809" lon="4.76432">
        <ele>168.899993896</ele>
        <time>2015-11-11T09:35:13.999Z</time>
      </trkpt>
      <trkpt lat="45.91809" lon="4.7644">
        <ele>168.800003052</ele>
        <time>2015-11-11T09:35:14.986Z</time>
      </trkpt>
      <trkpt lat="45.91808" lon="4.76448">
        <ele>168.899993896</ele>
        <time>2015-11-11T09:35:15.999Z</time>
      </trkpt>
      <trkpt lat="45.91807" lon="4.76456">
        <ele>169</ele>
        <time>2015-11-11T09:35:16.984Z</time>
      </trkpt>
      <trkpt lat="45.91807" lon="4.76464">
        <ele>169</ele>
        <time>2015-11-11T09:35:17.999Z</time>
      </trkpt>
      <trkpt lat="45.91806" lon="4.76473">
        <ele>169</ele>
        <time>2015-11-11T09:35:18.983Z</time>
      </trkpt>
      <trkpt lat="45.91806" lon="4.76481">
        <ele>169</ele>
        <time>2015-11-11T09:35:20.012Z</time>
      </trkpt>
      <trkpt lat="45.91805" lon="4.76489">
        <ele>169</ele>
        <time>2015-11-11T09:35:20.986Z</time>
      </trkpt>
      <trkpt lat="45.91804" lon="4.76497">
        <ele>168.899993896</ele>
        <time>2015-11-11T09:35:21.997Z</time>
      </trkpt>
      <trkpt lat="45.91803" lon="4.76506">
        <ele>168.899993896</ele>
        <time>2015-11-11T09:35:22.984Z</time>
      </trkpt>
      <trkpt lat="45.91803" lon="4.76514">
        <ele>168.800003052</ele>
        <time>2015-11-11T09:35:23.997Z</time>
      </trkpt>
      <trkpt lat="45.91802" lon="4.76523">
        <ele>168.699996948</ele>
        <time>2015-11-11T09:35:24.983Z</time>
      </trkpt>
      <trkpt lat="45.91801" lon="4.76532">
        <ele>168.800003052</ele>
        <time>2015-11-11T09:35:25.998Z</time>
      </trkpt>
      <trkpt lat="45.918" lon="4.7654">
        <ele>168.800003052</ele>
        <time>2015-11-11T09:35:26.989Z</time>
      </trkpt>
      <trkpt lat="45.918" lon="4.76548">
        <ele>168.699996948</ele>
        <time>2015-11-11T09:35:27.999Z</time>
      </trkpt>
      <trkpt lat="45.91799" lon="4.76556">
        <ele>168.800003052</ele>
        <time>2015-11-11T09:35:28.983Z</time>
      </trkpt>
      <trkpt lat="45.91798" lon="4.76565">
        <ele>168.800003052</ele>
        <time>2015-11-11T09:35:29.998Z</time>
      </trkpt>
      <trkpt lat="45.91797" lon="4.76573">
        <ele>168.600006104</ele>
        <time>2015-11-11T09:35:30.983Z</time>
      </trkpt>
      <trkpt lat="45.91796" lon="4.76581">
        <ele>168.5</ele>
        <time>2015-11-11T09:35:31.998Z</time>
      </trkpt>
      <trkpt lat="45.91795" lon="4.76589">
        <ele>168.399993896</ele>
        <time>2015-11-11T09:35:32.986Z</time>
      </trkpt>
      <trkpt lat="45.91794" lon="4.76597">
        <ele>168.5</ele>
        <time>2015-11-11T09:35:33.998Z</time>
      </trkpt>
      <trkpt lat="45.91794" lon="4.76606">
        <ele>168.399993896</ele>
        <time>2015-11-11T09:35:34.984Z</time>
      </trkpt>
      <trkpt lat="45.91793" lon="4.76614">
        <ele>168.5</ele>
        <time>2015-11-11T09:35:36.012Z</time>
      </trkpt>
      <trkpt lat="45.91792" lon="4.76623">
        <ele>168.399993896</ele>
        <time>2015-11-11T09:35:36.983Z</time>
      </trkpt>
      <trkpt lat="45.91791" lon="4.76632">
        <ele>168.199996948</ele>
        <time>2015-11-11T09:35:37.999Z</time>
      </trkpt>
      <trkpt lat="45.9179" lon="4.76641">
        <ele>168.100006104</ele>
        <time>2015-11-11T09:35:38.986Z</time>
      </trkpt>
      <trkpt lat="45.91788" lon="4.7665">
        <ele>168</ele>
        <time>2015-11-11T09:35:40.001Z</time>
      </trkpt>
      <trkpt lat="45.91787" lon="4.76658">
        <ele>167.800003052</ele>
        <time>2015-11-11T09:35:40.984Z</time>
      </trkpt>
      <trkpt lat="45.91786" lon="4.76667">
        <ele>167.699996948</ele>
        <time>2015-11-11T09:35:42.158Z</time>
      </trkpt>
      <trkpt lat="45.91785" lon="4.76676">
        <ele>167.5</ele>
        <time>2015-11-11T09:35:42.984Z</time>
      </trkpt>
      <trkpt lat="45.91785" lon="4.76685">
        <ele>167.399993896</ele>
        <time>2015-11-11T09:35:43.997Z</time>
      </trkpt>
      <trkpt lat="45.91784" lon="4.76693">
        <ele>167.300003052</ele>
        <time>2015-11-11T09:35:44.986Z</time>
      </trkpt>
      <trkpt lat="45.91783" lon="4.76702">
        <ele>167.199996948</ele>
        <time>2015-11-11T09:35:45.996Z</time>
      </trkpt>
      <trkpt lat="45.91782" lon="4.7671">
        <ele>167.100006104</ele>
        <time>2015-11-11T09:35:46.985Z</time>
      </trkpt>
      <trkpt lat="45.91781" lon="4.76718">
        <ele>167</ele>
        <time>2015-11-11T09:35:47.999Z</time>
      </trkpt>
      <trkpt lat="45.9178" lon="4.76727">
        <ele>166.800003052</ele>
        <time>2015-11-11T09:35:48.982Z</time>
      </trkpt>
      <trkpt lat="45.91779" lon="4.76736">
        <ele>166.699996948</ele>
        <time>2015-11-11T09:35:49.997Z</time>
      </trkpt>
      <trkpt lat="45.91778" lon="4.76746">
        <ele>166.600006104</ele>
        <time>2015-11-11T09:35:50.986Z</time>
      </trkpt>
      <trkpt lat="45.91778" lon="4.76755">
        <ele>166.5</ele>
        <time>2015-11-11T09:35:52.148Z</time>
      </trkpt>
      <trkpt lat="45.91778" lon="4.76765">
        <ele>166.300003052</ele>
        <time>2015-11-11T09:35:52.985Z</time>
      </trkpt>
      <trkpt lat="45.91777" lon="4.76774">
        <ele>166.199996948</ele>
        <time>2015-11-11T09:35:53.997Z</time>
      </trkpt>
      <trkpt lat="45.91777" lon="4.76784">
        <ele>166</ele>
        <time>2015-11-11T09:35:54.982Z</time>
      </trkpt>
      <trkpt lat="45.91777" lon="4.76793">
        <ele>165.899993896</ele>
        <time>2015-11-11T09:35:55.996Z</time>
      </trkpt>
      <trkpt lat="45.91777" lon="4.76803">
        <ele>165.600006104</ele>
        <time>2015-11-11T09:35:56.986Z</time>
      </trkpt>
      <trkpt lat="45.91777" lon="4.76812">
        <ele>165.399993896</ele>
        <time>2015-11-11T09:35:57.997Z</time>
      </trkpt>
      <trkpt lat="45.91777" lon="4.76821">
        <ele>165.300003052</ele>
        <time>2015-11-11T09:35:58.983Z</time>
      </trkpt>
      <trkpt lat="45.91777" lon="4.7683">
        <ele>165.100006104</ele>
        <time>2015-11-11T09:36:00.019Z</time>
      </trkpt>
      <trkpt lat="45.91777" lon="4.7684">
        <ele>165</ele>
        <time>2015-11-11T09:36:00.982Z</time>
      </trkpt>
      <trkpt lat="45.91777" lon="4.76849">
        <ele>165.100006104</ele>
        <time>2015-11-11T09:36:02.022Z</time>
      </trkpt>
      <trkpt lat="45.91776" lon="4.76859">
        <ele>165</ele>
        <time>2015-11-11T09:36:03Z</time>
      </trkpt>
      <trkpt lat="45.91776" lon="4.76869">
        <ele>165</ele>
        <time>2015-11-11T09:36:03.996Z</time>
      </trkpt>
      <trkpt lat="45.91776" lon="4.76878">
        <ele>164.800003052</ele>
        <time>2015-11-11T09:36:04.984Z</time>
      </trkpt>
      <trkpt lat="45.91775" lon="4.76888">
        <ele>164.899993896</ele>
        <time>2015-11-11T09:36:05.997Z</time>
      </trkpt>
      <trkpt lat="45.91774" lon="4.76898">
        <ele>165</ele>
        <time>2015-11-11T09:36:06.982Z</time>
      </trkpt>
      <trkpt lat="45.91774" lon="4.76907">
        <ele>165.199996948</ele>
        <time>2015-11-11T09:36:07.997Z</time>
      </trkpt>
      <trkpt lat="45.91773" lon="4.76916">
        <ele>165.199996948</ele>
        <time>2015-11-11T09:36:08.986Z</time>
      </trkpt>
      <trkpt lat="45.91773" lon="4.76925">
        <ele>165</ele>
        <time>2015-11-11T09:36:09.997Z</time>
      </trkpt>
      <trkpt lat="45.91772" lon="4.76934">
        <ele>164.600006104</ele>
        <time>2015-11-11T09:36:10.983Z</time>
      </trkpt>
      <trkpt lat="45.91771" lon="4.76942">
        <ele>164.699996948</ele>
        <time>2015-11-11T09:36:11.997Z</time>
      </trkpt>
      <trkpt lat="45.9177" lon="4.76952">
        <ele>164.300003052</ele>
        <time>2015-11-11T09:36:12.982Z</time>
      </trkpt>
      <trkpt lat="45.91769" lon="4.76961">
        <ele>164.199996948</ele>
        <time>2015-11-11T09:36:14.01Z</time>
      </trkpt>
      <trkpt lat="45.91768" lon="4.7697">
        <ele>164.100006104</ele>
        <time>2015-11-11T09:36:14.986Z</time>
      </trkpt>
      <trkpt lat="45.91767" lon="4.76979">
        <ele>164</ele>
        <time>2015-11-11T09:36:15.997Z</time>
      </trkpt>
      <trkpt lat="45.91766" lon="4.76989">
        <ele>164.100006104</ele>
        <time>2015-11-11T09:36:16.983Z</time>
      </trkpt>
      <trkpt lat="45.91765" lon="4.76998">
        <ele>164.100006104</ele>
        <time>2015-11-11T09:36:17.997Z</time>
      </trkpt>
      <trkpt lat="45.91764" lon="4.77007">
        <ele>163.899993896</ele>
        <time>2015-11-11T09:36:18.985Z</time>
      </trkpt>
      <trkpt lat="45.91763" lon="4.77017">
        <ele>163.699996948</ele>
        <time>2015-11-11T09:36:20.008Z</time>
      </trkpt>
      <trkpt lat="45.91761" lon="4.77026">
        <ele>163.699996948</ele>
        <time>2015-11-11T09:36:20.986Z</time>
      </trkpt>
      <trkpt lat="45.9176" lon="4.77035">
        <ele>163.600006104</ele>
        <time>2015-11-11T09:36:21.997Z</time>
      </trkpt>
      <trkpt lat="45.91759" lon="4.77044">
        <ele>163.699996948</ele>
        <time>2015-11-11T09:36:22.984Z</time>
      </trkpt>
      <trkpt lat="45.91758" lon="4.77052">
        <ele>163.600006104</ele>
        <time>2015-11-11T09:36:24.028Z</time>
      </trkpt>
      <trkpt lat="45.91756" lon="4.7706">
        <ele>163.5</ele>
        <time>2015-11-11T09:36:24.982Z</time>
      </trkpt>
      <trkpt lat="45.91756" lon="4.77068">
        <ele>163.5</ele>
        <time>2015-11-11T09:36:25.997Z</time>
      </trkpt>
      <trkpt lat="45.91755" lon="4.77076">
        <ele>163.399993896</ele>
        <time>2015-11-11T09:36:26.985Z</time>
      </trkpt>
      <trkpt lat="45.91753" lon="4.77084">
        <ele>163.199996948</ele>
        <time>2015-11-11T09:36:27.997Z</time>
      </trkpt>
      <trkpt lat="45.91752" lon="4.77093">
        <ele>162.899993896</ele>
        <time>2015-11-11T09:36:28.989Z</time>
      </trkpt>
      <trkpt lat="45.91751" lon="4.77101">
        <ele>162.800003052</ele>
        <time>2015-11-11T09:36:30.011Z</time>
      </trkpt>
      <trkpt lat="45.9175" lon="4.7711">
        <ele>163.300003052</ele>
        <time>2015-11-11T09:36:30.982Z</time>
      </trkpt>
      <trkpt lat="45.91748" lon="4.77118">
        <ele>163.600006104</ele>
        <time>2015-11-11T09:36:31.997Z</time>
      </trkpt>
      <trkpt lat="45.91747" lon="4.77127">
        <ele>163.699996948</ele>
        <time>2015-11-11T09:36:32.986Z</time>
      </trkpt>
      <trkpt lat="45.91746" lon="4.77135">
        <ele>163.600006104</ele>
        <time>2015-11-11T09:36:33.997Z</time>
      </trkpt>
      <trkpt lat="45.91745" lon="4.77144">
        <ele>163.5</ele>
        <time>2015-11-11T09:36:34.983Z</time>
      </trkpt>
      <trkpt lat="45.91743" lon="4.77152">
        <ele>163.5</ele>
        <time>2015-11-11T09:36:35.996Z</time>
      </trkpt>
      <trkpt lat="45.91742" lon="4.77161">
        <ele>163.5</ele>
        <time>2015-11-11T09:36:36.982Z</time>
      </trkpt>
      <trkpt lat="45.91741" lon="4.7717">
        <ele>163.5</ele>
        <time>2015-11-11T09:36:37.997Z</time>
      </trkpt>
      <trkpt lat="45.9174" lon="4.77179">
        <ele>163.5</ele>
        <time>2015-11-11T09:36:38.986Z</time>
      </trkpt>
      <trkpt lat="45.91738" lon="4.77187">
        <ele>163.699996948</ele>
        <time>2015-11-11T09:36:39.999Z</time>
      </trkpt>
      <trkpt lat="45.91737" lon="4.77195">
        <ele>163.800003052</ele>
        <time>2015-11-11T09:36:40.983Z</time>
      </trkpt>
      <trkpt lat="45.91737" lon="4.77203">
        <ele>163.899993896</ele>
        <time>2015-11-11T09:36:41.997Z</time>
      </trkpt>
      <trkpt lat="45.91735" lon="4.77211">
        <ele>164</ele>
        <time>2015-11-11T09:36:42.982Z</time>
      </trkpt>
      <trkpt lat="45.91734" lon="4.77219">
        <ele>164.100006104</ele>
        <time>2015-11-11T09:36:43.996Z</time>
      </trkpt>
      <trkpt lat="45.91732" lon="4.77227">
        <ele>164.300003052</ele>
        <time>2015-11-11T09:36:44.988Z</time>
      </trkpt>
      <trkpt lat="45.91731" lon="4.77236">
        <ele>164.300003052</ele>
        <time>2015-11-11T09:36:46.011Z</time>
      </trkpt>
      <trkpt lat="45.9173" lon="4.77244">
        <ele>164.199996948</ele>
        <time>2015-11-11T09:36:46.983Z</time>
      </trkpt>
      <trkpt lat="45.91729" lon="4.77252">
        <ele>164.399993896</ele>
        <time>2015-11-11T09:36:47.997Z</time>
      </trkpt>
      <trkpt lat="45.91728" lon="4.7726">
        <ele>164.600006104</ele>
        <time>2015-11-11T09:36:48.982Z</time>
      </trkpt>
      <trkpt lat="45.91727" lon="4.77269">
        <ele>164.600006104</ele>
        <time>2015-11-11T09:36:49.998Z</time>
      </trkpt>
      <trkpt lat="45.91725" lon="4.77277">
        <ele>164.600006104</ele>
        <time>2015-11-11T09:36:50.985Z</time>
      </trkpt>
      <trkpt lat="45.91724" lon="4.77285">
        <ele>164.800003052</ele>
        <time>2015-11-11T09:36:51.996Z</time>
      </trkpt>
      <trkpt lat="45.91722" lon="4.77294">
        <ele>164.899993896</ele>
        <time>2015-11-11T09:36:52.983Z</time>
      </trkpt>
      <trkpt lat="45.91721" lon="4.77302">
        <ele>165.100006104</ele>
        <time>2015-11-11T09:36:53.996Z</time>
      </trkpt>
      <trkpt lat="45.9172" lon="4.77311">
        <ele>165</ele>
        <time>2015-11-11T09:36:54.982Z</time>
      </trkpt>
      <trkpt lat="45.91719" lon="4.7732">
        <ele>165</ele>
        <time>2015-11-11T09:36:55.996Z</time>
      </trkpt>
      <trkpt lat="45.91717" lon="4.77329">
        <ele>164.800003052</ele>
        <time>2015-11-11T09:36:56.986Z</time>
      </trkpt>
      <trkpt lat="45.91716" lon="4.77338">
        <ele>164.899993896</ele>
        <time>2015-11-11T09:36:57.997Z</time>
      </trkpt>
      <trkpt lat="45.91715" lon="4.77347">
        <ele>164.899993896</ele>
        <time>2015-11-11T09:36:58.982Z</time>
      </trkpt>
      <trkpt lat="45.91714" lon="4.77354">
        <ele>165</ele>
        <time>2015-11-11T09:36:59.997Z</time>
      </trkpt>
      <trkpt lat="45.91712" lon="4.77362">
        <ele>165</ele>
        <time>2015-11-11T09:37:00.983Z</time>
      </trkpt>
      <trkpt lat="45.9171" lon="4.7737">
        <ele>165.100006104</ele>
        <time>2015-11-11T09:37:02.011Z</time>
      </trkpt>
      <trkpt lat="45.91708" lon="4.77378">
        <ele>165.199996948</ele>
        <time>2015-11-11T09:37:02.986Z</time>
      </trkpt>
      <trkpt lat="45.91707" lon="4.77386">
        <ele>165.100006104</ele>
        <time>2015-11-11T09:37:04.035Z</time>
      </trkpt>
      <trkpt lat="45.91705" lon="4.77393">
        <ele>165.300003052</ele>
        <time>2015-11-11T09:37:04.983Z</time>
      </trkpt>
      <trkpt lat="45.91704" lon="4.77401">
        <ele>165.5</ele>
        <time>2015-11-11T09:37:05.996Z</time>
      </trkpt>
      <trkpt lat="45.91702" lon="4.7741">
        <ele>165.5</ele>
        <time>2015-11-11T09:37:06.982Z</time>
      </trkpt>
      <trkpt lat="45.91701" lon="4.77418">
        <ele>165.399993896</ele>
        <time>2015-11-11T09:37:07.997Z</time>
      </trkpt>
      <trkpt lat="45.917" lon="4.77426">
        <ele>165.600006104</ele>
        <time>2015-11-11T09:37:08.986Z</time>
      </trkpt>
      <trkpt lat="45.91699" lon="4.77434">
        <ele>165.899993896</ele>
        <time>2015-11-11T09:37:09.996Z</time>
      </trkpt>
      <trkpt lat="45.91698" lon="4.77443">
        <ele>165.899993896</ele>
        <time>2015-11-11T09:37:10.985Z</time>
      </trkpt>
      <trkpt lat="45.91698" lon="4.77451">
        <ele>166.100006104</ele>
        <time>2015-11-11T09:37:11.996Z</time>
      </trkpt>
      <trkpt lat="45.91697" lon="4.7746">
        <ele>166.100006104</ele>
        <time>2015-11-11T09:37:12.982Z</time>
      </trkpt>
      <trkpt lat="45.91695" lon="4.77467">
        <ele>166.600006104</ele>
        <time>2015-11-11T09:37:13.996Z</time>
      </trkpt>
      <trkpt lat="45.91692" lon="4.77474">
        <ele>166.899993896</ele>
        <time>2015-11-11T09:37:14.985Z</time>
      </trkpt>
      <trkpt lat="45.9169" lon="4.77482">
        <ele>166.699996948</ele>
        <time>2015-11-11T09:37:15.996Z</time>
      </trkpt>
      <trkpt lat="45.91689" lon="4.77491">
        <ele>166.5</ele>
        <time>2015-11-11T09:37:16.983Z</time>
      </trkpt>
      <trkpt lat="45.91689" lon="4.775">
        <ele>166.5</ele>
        <time>2015-11-11T09:37:18.01Z</time>
      </trkpt>
      <trkpt lat="45.9169" lon="4.77509">
        <ele>166.399993896</ele>
        <time>2015-11-11T09:37:18.982Z</time>
      </trkpt>
      <trkpt lat="45.9169" lon="4.77517">
        <ele>166.5</ele>
        <time>2015-11-11T09:37:20.108Z</time>
      </trkpt>
      <trkpt lat="45.9169" lon="4.77526">
        <ele>166.300003052</ele>
        <time>2015-11-11T09:37:20.985Z</time>
      </trkpt>
      <trkpt lat="45.91689" lon="4.77535">
        <ele>166.100006104</ele>
        <time>2015-11-11T09:37:21.996Z</time>
      </trkpt>
      <trkpt lat="45.91688" lon="4.77543">
        <ele>165.699996948</ele>
        <time>2015-11-11T09:37:22.982Z</time>
      </trkpt>
      <trkpt lat="45.91686" lon="4.77552">
        <ele>165.600006104</ele>
        <time>2015-11-11T09:37:23.996Z</time>
      </trkpt>
      <trkpt lat="45.91684" lon="4.77561">
        <ele>165.5</ele>
        <time>2015-11-11T09:37:24.983Z</time>
      </trkpt>
      <trkpt lat="45.91683" lon="4.7757">
        <ele>165.5</ele>
        <time>2015-11-11T09:37:25.998Z</time>
      </trkpt>
      <trkpt lat="45.91681" lon="4.77578">
        <ele>165.199996948</ele>
        <time>2015-11-11T09:37:26.987Z</time>
      </trkpt>
      <trkpt lat="45.9168" lon="4.77587">
        <ele>165</ele>
        <time>2015-11-11T09:37:27.998Z</time>
      </trkpt>
      <trkpt lat="45.91678" lon="4.77596">
        <ele>164.899993896</ele>
        <time>2015-11-11T09:37:28.985Z</time>
      </trkpt>
      <trkpt lat="45.91676" lon="4.77605">
        <ele>165</ele>
        <time>2015-11-11T09:37:29.996Z</time>
      </trkpt>
      <trkpt lat="45.91674" lon="4.77613">
        <ele>165.100006104</ele>
        <time>2015-11-11T09:37:30.982Z</time>
      </trkpt>
      <trkpt lat="45.91673" lon="4.77622">
        <ele>165</ele>
        <time>2015-11-11T09:37:31.996Z</time>
      </trkpt>
      <trkpt lat="45.91671" lon="4.77631">
        <ele>164.899993896</ele>
        <time>2015-11-11T09:37:32.985Z</time>
      </trkpt>
      <trkpt lat="45.91669" lon="4.7764">
        <ele>165</ele>
        <time>2015-11-11T09:37:34.01Z</time>
      </trkpt>
      <trkpt lat="45.91668" lon="4.77649">
        <ele>165.100006104</ele>
        <time>2015-11-11T09:37:34.983Z</time>
      </trkpt>
      <trkpt lat="45.91666" lon="4.77658">
        <ele>165.100006104</ele>
        <time>2015-11-11T09:37:35.997Z</time>
      </trkpt>
      <trkpt lat="45.91665" lon="4.77667">
        <ele>165</ele>
        <time>2015-11-11T09:37:36.984Z</time>
      </trkpt>
      <trkpt lat="45.91663" lon="4.77676">
        <ele>165.399993896</ele>
        <time>2015-11-11T09:37:37.996Z</time>
      </trkpt>
      <trkpt lat="45.91661" lon="4.77684">
        <ele>165.5</ele>
        <time>2015-11-11T09:37:38.985Z</time>
      </trkpt>
      <trkpt lat="45.91659" lon="4.77692">
        <ele>165.800003052</ele>
        <time>2015-11-11T09:37:39.998Z</time>
      </trkpt>
      <trkpt lat="45.91657" lon="4.77701">
        <ele>165.600006104</ele>
        <time>2015-11-11T09:37:40.983Z</time>
      </trkpt>
      <trkpt lat="45.91655" lon="4.77708">
        <ele>165.800003052</ele>
        <time>2015-11-11T09:37:41.996Z</time>
      </trkpt>
      <trkpt lat="45.91654" lon="4.77716">
        <ele>166.100006104</ele>
        <time>2015-11-11T09:37:42.981Z</time>
      </trkpt>
      <trkpt lat="45.91652" lon="4.77725">
        <ele>166.100006104</ele>
        <time>2015-11-11T09:37:43.996Z</time>
      </trkpt>
      <trkpt lat="45.9165" lon="4.77733">
        <ele>166.199996948</ele>
        <time>2015-11-11T09:37:44.985Z</time>
      </trkpt>
      <trkpt lat="45.91648" lon="4.77741">
        <ele>166.399993896</ele>
        <time>2015-11-11T09:37:45.996Z</time>
      </trkpt>
      <trkpt lat="45.91645" lon="4.77749">
        <ele>166.399993896</ele>
        <time>2015-11-11T09:37:46.983Z</time>
      </trkpt>
      <trkpt lat="45.91643" lon="4.77757">
        <ele>166.5</ele>
        <time>2015-11-11T09:37:47.996Z</time>
      </trkpt>
      <trkpt lat="45.91641" lon="4.77765">
        <ele>166.399993896</ele>
        <time>2015-11-11T09:37:48.982Z</time>
      </trkpt>
      <trkpt lat="45.91638" lon="4.77773">
        <ele>166.600006104</ele>
        <time>2015-11-11T09:37:50.011Z</time>
      </trkpt>
      <trkpt lat="45.91636" lon="4.77781">
        <ele>166.699996948</ele>
        <time>2015-11-11T09:37:50.985Z</time>
      </trkpt>
      <trkpt lat="45.91634" lon="4.77789">
        <ele>166.600006104</ele>
        <time>2015-11-11T09:37:51.995Z</time>
      </trkpt>
      <trkpt lat="45.91631" lon="4.77797">
        <ele>166.800003052</ele>
        <time>2015-11-11T09:37:52.983Z</time>
      </trkpt>
      <trkpt lat="45.91628" lon="4.77804">
        <ele>167.300003052</ele>
        <time>2015-11-11T09:37:53.997Z</time>
      </trkpt>
      <trkpt lat="45.91625" lon="4.77812">
        <ele>167.300003052</ele>
        <time>2015-11-11T09:37:54.981Z</time>
      </trkpt>
      <trkpt lat="45.91622" lon="4.7782">
        <ele>167.199996948</ele>
        <time>2015-11-11T09:37:55.996Z</time>
      </trkpt>
      <trkpt lat="45.91618" lon="4.77827">
        <ele>167.199996948</ele>
        <time>2015-11-11T09:37:56.985Z</time>
      </trkpt>
      <trkpt lat="45.91615" lon="4.77834">
        <ele>167.300003052</ele>
        <time>2015-11-11T09:37:57.996Z</time>
      </trkpt>
      <trkpt lat="45.91611" lon="4.77842">
        <ele>167.399993896</ele>
        <time>2015-11-11T09:37:58.982Z</time>
      </trkpt>
      <trkpt lat="45.91606" lon="4.77849">
        <ele>167.600006104</ele>
        <time>2015-11-11T09:37:59.996Z</time>
      </trkpt>
      <trkpt lat="45.91601" lon="4.77856">
        <ele>167.5</ele>
        <time>2015-11-11T09:38:00.982Z</time>
      </trkpt>
      <trkpt lat="45.91599" lon="4.77864">
        <ele>167.5</ele>
        <time>2015-11-11T09:38:01.996Z</time>
      </trkpt>
      <trkpt lat="45.91596" lon="4.77871">
        <ele>167.5</ele>
        <time>2015-11-11T09:38:02.985Z</time>
      </trkpt>
      <trkpt lat="45.91593" lon="4.77878">
        <ele>167.699996948</ele>
        <time>2015-11-11T09:38:03.996Z</time>
      </trkpt>
      <trkpt lat="45.91589" lon="4.77885">
        <ele>168.100006104</ele>
        <time>2015-11-11T09:38:04.983Z</time>
      </trkpt>
      <trkpt lat="45.91586" lon="4.77892">
        <ele>167.800003052</ele>
        <time>2015-11-11T09:38:06.008Z</time>
      </trkpt>
      <trkpt lat="45.91583" lon="4.77899">
        <ele>167.800003052</ele>
        <time>2015-11-11T09:38:06.981Z</time>
      </trkpt>
      <trkpt lat="45.9158" lon="4.77906">
        <ele>167.699996948</ele>
        <time>2015-11-11T09:38:07.996Z</time>
      </trkpt>
      <trkpt lat="45.91577" lon="4.77914">
        <ele>167.5</ele>
        <time>2015-11-11T09:38:08.985Z</time>
      </trkpt>
      <trkpt lat="45.91574" lon="4.77922">
        <ele>167.300003052</ele>
        <time>2015-11-11T09:38:09.996Z</time>
      </trkpt>
      <trkpt lat="45.9157" lon="4.77929">
        <ele>167.199996948</ele>
        <time>2015-11-11T09:38:10.983Z</time>
      </trkpt>
      <trkpt lat="45.91567" lon="4.77937">
        <ele>167.100006104</ele>
        <time>2015-11-11T09:38:11.996Z</time>
      </trkpt>
      <trkpt lat="45.91564" lon="4.77944">
        <ele>167.199996948</ele>
        <time>2015-11-11T09:38:12.981Z</time>
      </trkpt>
      <trkpt lat="45.91561" lon="4.77951">
        <ele>167.199996948</ele>
        <time>2015-11-11T09:38:13.997Z</time>
      </trkpt>
      <trkpt lat="45.91557" lon="4.77959">
        <ele>167.300003052</ele>
        <time>2015-11-11T09:38:14.985Z</time>
      </trkpt>
      <trkpt lat="45.91554" lon="4.77966">
        <ele>167.399993896</ele>
        <time>2015-11-11T09:38:15.996Z</time>
      </trkpt>
      <trkpt lat="45.91551" lon="4.77974">
        <ele>167.600006104</ele>
        <time>2015-11-11T09:38:16.983Z</time>
      </trkpt>
      <trkpt lat="45.91547" lon="4.77981">
        <ele>167.899993896</ele>
        <time>2015-11-11T09:38:17.995Z</time>
      </trkpt>
      <trkpt lat="45.91543" lon="4.77989">
        <ele>167.800003052</ele>
        <time>2015-11-11T09:38:18.981Z</time>
      </trkpt>
      <trkpt lat="45.9154" lon="4.77996">
        <ele>168.5</ele>
        <time>2015-11-11T09:38:19.996Z</time>
      </trkpt>
      <trkpt lat="45.91537" lon="4.78003">
        <ele>168.300003052</ele>
        <time>2015-11-11T09:38:20.986Z</time>
      </trkpt>
      <trkpt lat="45.91533" lon="4.7801">
        <ele>168.300003052</ele>
        <time>2015-11-11T09:38:22.128Z</time>
      </trkpt>
      <trkpt lat="45.9153" lon="4.78017">
        <ele>168.600006104</ele>
        <time>2015-11-11T09:38:22.983Z</time>
      </trkpt>
      <trkpt lat="45.91527" lon="4.78023">
        <ele>169.300003052</ele>
        <time>2015-11-11T09:38:23.996Z</time>
      </trkpt>
      <trkpt lat="45.91524" lon="4.7803">
        <ele>169.600006104</ele>
        <time>2015-11-11T09:38:24.981Z</time>
      </trkpt>
      <trkpt lat="45.9152" lon="4.78037">
        <ele>169.699996948</ele>
        <time>2015-11-11T09:38:25.996Z</time>
      </trkpt>
      <trkpt lat="45.91517" lon="4.78044">
        <ele>169.899993896</ele>
        <time>2015-11-11T09:38:26.985Z</time>
      </trkpt>
      <trkpt lat="45.91514" lon="4.7805">
        <ele>170.199996948</ele>
        <time>2015-11-11T09:38:27.995Z</time>
      </trkpt>
      <trkpt lat="45.9151" lon="4.78057">
        <ele>170.199996948</ele>
        <time>2015-11-11T09:38:28.982Z</time>
      </trkpt>
      <trkpt lat="45.91507" lon="4.78065">
        <ele>170.199996948</ele>
        <time>2015-11-11T09:38:29.995Z</time>
      </trkpt>
      <trkpt lat="45.91504" lon="4.78072">
        <ele>170.199996948</ele>
        <time>2015-11-11T09:38:30.981Z</time>
      </trkpt>
      <trkpt lat="45.91501" lon="4.78079">
        <ele>170.600006104</ele>
        <time>2015-11-11T09:38:31.995Z</time>
      </trkpt>
      <trkpt lat="45.91498" lon="4.78086">
        <ele>170.699996948</ele>
        <time>2015-11-11T09:38:32.998Z</time>
      </trkpt>
      <trkpt lat="45.91495" lon="4.78093">
        <ele>170.899993896</ele>
        <time>2015-11-11T09:38:33.996Z</time>
      </trkpt>
      <trkpt lat="45.91492" lon="4.78099">
        <ele>170.800003052</ele>
        <time>2015-11-11T09:38:34.983Z</time>
      </trkpt>
      <trkpt lat="45.91489" lon="4.78106">
        <ele>171</ele>
        <time>2015-11-11T09:38:36.003Z</time>
      </trkpt>
      <trkpt lat="45.91486" lon="4.78113">
        <ele>171.300003052</ele>
        <time>2015-11-11T09:38:36.981Z</time>
      </trkpt>
      <trkpt lat="45.91482" lon="4.78119">
        <ele>171.600006104</ele>
        <time>2015-11-11T09:38:37.995Z</time>
      </trkpt>
      <trkpt lat="45.91478" lon="4.78125">
        <ele>171.899993896</ele>
        <time>2015-11-11T09:38:38.985Z</time>
      </trkpt>
      <trkpt lat="45.91475" lon="4.78131">
        <ele>172</ele>
        <time>2015-11-11T09:38:40.04Z</time>
      </trkpt>
      <trkpt lat="45.91471" lon="4.78138">
        <ele>171.899993896</ele>
        <time>2015-11-11T09:38:40.983Z</time>
      </trkpt>
      <trkpt lat="45.91468" lon="4.78145">
        <ele>172</ele>
        <time>2015-11-11T09:38:41.996Z</time>
      </trkpt>
      <trkpt lat="45.91465" lon="4.78153">
        <ele>172.100006104</ele>
        <time>2015-11-11T09:38:42.981Z</time>
      </trkpt>
      <trkpt lat="45.91462" lon="4.78159">
        <ele>172.300003052</ele>
        <time>2015-11-11T09:38:44.009Z</time>
      </trkpt>
      <trkpt lat="45.91459" lon="4.78166">
        <ele>172.399993896</ele>
        <time>2015-11-11T09:38:44.985Z</time>
      </trkpt>
      <trkpt lat="45.91457" lon="4.78173">
        <ele>172.800003052</ele>
        <time>2015-11-11T09:38:45.996Z</time>
      </trkpt>
      <trkpt lat="45.91454" lon="4.78179">
        <ele>173</ele>
        <time>2015-11-11T09:38:46.982Z</time>
      </trkpt>
      <trkpt lat="45.91451" lon="4.78186">
        <ele>173.199996948</ele>
        <time>2015-11-11T09:38:47.996Z</time>
      </trkpt>
      <trkpt lat="45.91448" lon="4.78192">
        <ele>173.600006104</ele>
        <time>2015-11-11T09:38:48.982Z</time>
      </trkpt>
      <trkpt lat="45.91446" lon="4.78198">
        <ele>174</ele>
        <time>2015-11-11T09:38:49.995Z</time>
      </trkpt>
      <trkpt lat="45.91443" lon="4.78205">
        <ele>174.199996948</ele>
        <time>2015-11-11T09:38:50.985Z</time>
      </trkpt>
      <trkpt lat="45.91441" lon="4.78212">
        <ele>174.699996948</ele>
        <time>2015-11-11T09:38:52.033Z</time>
      </trkpt>
      <trkpt lat="45.91438" lon="4.78218">
        <ele>175.100006104</ele>
        <time>2015-11-11T09:38:52.983Z</time>
      </trkpt>
      <trkpt lat="45.91435" lon="4.78225">
        <ele>175.5</ele>
        <time>2015-11-11T09:38:53.997Z</time>
      </trkpt>
      <trkpt lat="45.91432" lon="4.78231">
        <ele>175.899993896</ele>
        <time>2015-11-11T09:38:54.981Z</time>
      </trkpt>
      <trkpt lat="45.91429" lon="4.78237">
        <ele>176.199996948</ele>
        <time>2015-11-11T09:38:55.996Z</time>
      </trkpt>
      <trkpt lat="45.91426" lon="4.78243">
        <ele>176.399993896</ele>
        <time>2015-11-11T09:38:56.985Z</time>
      </trkpt>
      <trkpt lat="45.91424" lon="4.78249">
        <ele>176.5</ele>
        <time>2015-11-11T09:38:57.996Z</time>
      </trkpt>
      <trkpt lat="45.91421" lon="4.78256">
        <ele>176.399993896</ele>
        <time>2015-11-11T09:38:58.982Z</time>
      </trkpt>
      <trkpt lat="45.91418" lon="4.78261">
        <ele>176.699996948</ele>
        <time>2015-11-11T09:38:59.996Z</time>
      </trkpt>
      <trkpt lat="45.91416" lon="4.78268">
        <ele>176.800003052</ele>
        <time>2015-11-11T09:39:00.981Z</time>
      </trkpt>
      <trkpt lat="45.91413" lon="4.78274">
        <ele>176.899993896</ele>
        <time>2015-11-11T09:39:01.996Z</time>
      </trkpt>
      <trkpt lat="45.91409" lon="4.78281">
        <ele>176.699996948</ele>
        <time>2015-11-11T09:39:02.985Z</time>
      </trkpt>
      <trkpt lat="45.91406" lon="4.78287">
        <ele>176.5</ele>
        <time>2015-11-11T09:39:03.995Z</time>
      </trkpt>
      <trkpt lat="45.91403" lon="4.78294">
        <ele>176.199996948</ele>
        <time>2015-11-11T09:39:04.982Z</time>
      </trkpt>
      <trkpt lat="45.914" lon="4.783">
        <ele>176.100006104</ele>
        <time>2015-11-11T09:39:05.997Z</time>
      </trkpt>
      <trkpt lat="45.91396" lon="4.78306">
        <ele>176.100006104</ele>
        <time>2015-11-11T09:39:06.981Z</time>
      </trkpt>
      <trkpt lat="45.91393" lon="4.78313">
        <ele>176</ele>
        <time>2015-11-11T09:39:07.995Z</time>
      </trkpt>
      <trkpt lat="45.9139" lon="4.78319">
        <ele>175.899993896</ele>
        <time>2015-11-11T09:39:08.985Z</time>
      </trkpt>
      <trkpt lat="45.91387" lon="4.78326">
        <ele>175.699996948</ele>
        <time>2015-11-11T09:39:09.996Z</time>
      </trkpt>
      <trkpt lat="45.91384" lon="4.78332">
        <ele>175.699996948</ele>
        <time>2015-11-11T09:39:10.996Z</time>
      </trkpt>
      <trkpt lat="45.9138" lon="4.78338">
        <ele>175.600006104</ele>
        <time>2015-11-11T09:39:11.996Z</time>
      </trkpt>
      <trkpt lat="45.91377" lon="4.78344">
        <ele>175.600006104</ele>
        <time>2015-11-11T09:39:12.981Z</time>
      </trkpt>
      <trkpt lat="45.91374" lon="4.7835">
        <ele>175.899993896</ele>
        <time>2015-11-11T09:39:13.996Z</time>
      </trkpt>
      <trkpt lat="45.91372" lon="4.78356">
        <ele>175.600006104</ele>
        <time>2015-11-11T09:39:14.985Z</time>
      </trkpt>
      <trkpt lat="45.91369" lon="4.78363">
        <ele>175.300003052</ele>
        <time>2015-11-11T09:39:15.996Z</time>
      </trkpt>
      <trkpt lat="45.91366" lon="4.78369">
        <ele>175.199996948</ele>
        <time>2015-11-11T09:39:16.983Z</time>
      </trkpt>
      <trkpt lat="45.91363" lon="4.78375">
        <ele>175</ele>
        <time>2015-11-11T09:39:18.106Z</time>
      </trkpt>
      <trkpt lat="45.9136" lon="4.78381">
        <ele>174.699996948</ele>
        <time>2015-11-11T09:39:18.982Z</time>
      </trkpt>
      <trkpt lat="45.91357" lon="4.78387">
        <ele>174.899993896</ele>
        <time>2015-11-11T09:39:19.995Z</time>
      </trkpt>
      <trkpt lat="45.91354" lon="4.78393">
        <ele>174.800003052</ele>
        <time>2015-11-11T09:39:20.985Z</time>
      </trkpt>
      <trkpt lat="45.91352" lon="4.78399">
        <ele>174.800003052</ele>
        <time>2015-11-11T09:39:22.009Z</time>
      </trkpt>
      <trkpt lat="45.91349" lon="4.78405">
        <ele>174.899993896</ele>
        <time>2015-11-11T09:39:22.982Z</time>
      </trkpt>
      <trkpt lat="45.91346" lon="4.78411">
        <ele>174.699996948</ele>
        <time>2015-11-11T09:39:23.996Z</time>
      </trkpt>
      <trkpt lat="45.91344" lon="4.78417">
        <ele>174.600006104</ele>
        <time>2015-11-11T09:39:24.981Z</time>
      </trkpt>
      <trkpt lat="45.91342" lon="4.78422">
        <ele>174.5</ele>
        <time>2015-11-11T09:39:25.996Z</time>
      </trkpt>
      <trkpt lat="45.91339" lon="4.78428">
        <ele>174.699996948</ele>
        <time>2015-11-11T09:39:26.985Z</time>
      </trkpt>
      <trkpt lat="45.91336" lon="4.78434">
        <ele>174.899993896</ele>
        <time>2015-11-11T09:39:27.996Z</time>
      </trkpt>
      <trkpt lat="45.91333" lon="4.7844">
        <ele>175</ele>
        <time>2015-11-11T09:39:28.982Z</time>
      </trkpt>
      <trkpt lat="45.91331" lon="4.78446">
        <ele>174.699996948</ele>
        <time>2015-11-11T09:39:29.996Z</time>
      </trkpt>
      <trkpt lat="45.91328" lon="4.78452">
        <ele>174.600006104</ele>
        <time>2015-11-11T09:39:30.981Z</time>
      </trkpt>
      <trkpt lat="45.91326" lon="4.78458">
        <ele>174.800003052</ele>
        <time>2015-11-11T09:39:31.996Z</time>
      </trkpt>
      <trkpt lat="45.91323" lon="4.78464">
        <ele>175</ele>
        <time>2015-11-11T09:39:32.985Z</time>
      </trkpt>
      <trkpt lat="45.91319" lon="4.78469">
        <ele>175.100006104</ele>
        <time>2015-11-11T09:39:33.995Z</time>
      </trkpt>
      <trkpt lat="45.91317" lon="4.78475">
        <ele>175.300003052</ele>
        <time>2015-11-11T09:39:34.982Z</time>
      </trkpt>
      <trkpt lat="45.91315" lon="4.78481">
        <ele>175.300003052</ele>
        <time>2015-11-11T09:39:36.012Z</time>
      </trkpt>
      <trkpt lat="45.91312" lon="4.78486">
        <ele>174.899993896</ele>
        <time>2015-11-11T09:39:36.981Z</time>
      </trkpt>
      <trkpt lat="45.91309" lon="4.78492">
        <ele>174.899993896</ele>
        <time>2015-11-11T09:39:38.041Z</time>
      </trkpt>
      <trkpt lat="45.91306" lon="4.78497">
        <ele>175.399993896</ele>
        <time>2015-11-11T09:39:38.985Z</time>
      </trkpt>
      <trkpt lat="45.91303" lon="4.78503">
        <ele>175.399993896</ele>
        <time>2015-11-11T09:39:39.998Z</time>
      </trkpt>
      <trkpt lat="45.91301" lon="4.7851">
        <ele>175</ele>
        <time>2015-11-11T09:39:40.982Z</time>
      </trkpt>
      <trkpt lat="45.91298" lon="4.78516">
        <ele>174.899993896</ele>
        <time>2015-11-11T09:39:41.995Z</time>
      </trkpt>
      <trkpt lat="45.91295" lon="4.78522">
        <ele>174.899993896</ele>
        <time>2015-11-11T09:39:43.009Z</time>
      </trkpt>
      <trkpt lat="45.91292" lon="4.78529">
        <ele>174.800003052</ele>
        <time>2015-11-11T09:39:44.394Z</time>
      </trkpt>
      <trkpt lat="45.91289" lon="4.78535">
        <ele>174.800003052</ele>
        <time>2015-11-11T09:39:44.995Z</time>
      </trkpt>
      <trkpt lat="45.91286" lon="4.78541">
        <ele>174.800003052</ele>
        <time>2015-11-11T09:39:46.018Z</time>
      </trkpt>
      <trkpt lat="45.91283" lon="4.78548">
        <ele>174.699996948</ele>
        <time>2015-11-11T09:39:46.988Z</time>
      </trkpt>
      <trkpt lat="45.91279" lon="4.78554">
        <ele>174.600006104</ele>
        <time>2015-11-11T09:39:48.002Z</time>
      </trkpt>
      <trkpt lat="45.91276" lon="4.78561">
        <ele>174.600006104</ele>
        <time>2015-11-11T09:39:48.989Z</time>
      </trkpt>
      <trkpt lat="45.91273" lon="4.78568">
        <ele>174.5</ele>
        <time>2015-11-11T09:39:50.003Z</time>
      </trkpt>
      <trkpt lat="45.9127" lon="4.78575">
        <ele>174.399993896</ele>
        <time>2015-11-11T09:39:50.988Z</time>
      </trkpt>
      <trkpt lat="45.91267" lon="4.78581">
        <ele>174.300003052</ele>
        <time>2015-11-11T09:39:51.995Z</time>
      </trkpt>
      <trkpt lat="45.91264" lon="4.78588">
        <ele>174.100006104</ele>
        <time>2015-11-11T09:39:52.998Z</time>
      </trkpt>
      <trkpt lat="45.9126" lon="4.78595">
        <ele>173.899993896</ele>
        <time>2015-11-11T09:39:54.012Z</time>
      </trkpt>
      <trkpt lat="45.91257" lon="4.78602">
        <ele>173.699996948</ele>
        <time>2015-11-11T09:39:54.981Z</time>
      </trkpt>
      <trkpt lat="45.91254" lon="4.78609">
        <ele>173.5</ele>
        <time>2015-11-11T09:39:56.002Z</time>
      </trkpt>
      <trkpt lat="45.9125" lon="4.78616">
        <ele>173.300003052</ele>
        <time>2015-11-11T09:39:56.988Z</time>
      </trkpt>
      <trkpt lat="45.91247" lon="4.78623">
        <ele>173.100006104</ele>
        <time>2015-11-11T09:39:57.996Z</time>
      </trkpt>
      <trkpt lat="45.91244" lon="4.7863">
        <ele>172.899993896</ele>
        <time>2015-11-11T09:39:58.984Z</time>
      </trkpt>
      <trkpt lat="45.91241" lon="4.78637">
        <ele>172.899993896</ele>
        <time>2015-11-11T09:40:00.017Z</time>
      </trkpt>
      <trkpt lat="45.91238" lon="4.78644">
        <ele>172.899993896</ele>
        <time>2015-11-11T09:40:00.992Z</time>
      </trkpt>
      <trkpt lat="45.91235" lon="4.78651">
        <ele>172.800003052</ele>
        <time>2015-11-11T09:40:01.996Z</time>
      </trkpt>
      <trkpt lat="45.91232" lon="4.78659">
        <ele>172.5</ele>
        <time>2015-11-11T09:40:02.985Z</time>
      </trkpt>
      <trkpt lat="45.91228" lon="4.78665">
        <ele>172.5</ele>
        <time>2015-11-11T09:40:03.998Z</time>
      </trkpt>
      <trkpt lat="45.91225" lon="4.78672">
        <ele>172.300003052</ele>
        <time>2015-11-11T09:40:04.988Z</time>
      </trkpt>
      <trkpt lat="45.91223" lon="4.78679">
        <ele>172.199996948</ele>
        <time>2015-11-11T09:40:05.996Z</time>
      </trkpt>
      <trkpt lat="45.91219" lon="4.78687">
        <ele>171.899993896</ele>
        <time>2015-11-11T09:40:06.982Z</time>
      </trkpt>
      <trkpt lat="45.91216" lon="4.78693">
        <ele>172</ele>
        <time>2015-11-11T09:40:08.025Z</time>
      </trkpt>
      <trkpt lat="45.91212" lon="4.787">
        <ele>171.899993896</ele>
        <time>2015-11-11T09:40:08.985Z</time>
      </trkpt>
      <trkpt lat="45.91209" lon="4.78708">
        <ele>171.600006104</ele>
        <time>2015-11-11T09:40:09.995Z</time>
      </trkpt>
      <trkpt lat="45.91205" lon="4.78715">
        <ele>171.5</ele>
        <time>2015-11-11T09:40:10.982Z</time>
      </trkpt>
      <trkpt lat="45.91202" lon="4.78722">
        <ele>171.399993896</ele>
        <time>2015-11-11T09:40:11.996Z</time>
      </trkpt>
      <trkpt lat="45.91198" lon="4.78729">
        <ele>171.100006104</ele>
        <time>2015-11-11T09:40:12.981Z</time>
      </trkpt>
      <trkpt lat="45.91194" lon="4.78736">
        <ele>171</ele>
        <time>2015-11-11T09:40:14.104Z</time>
      </trkpt>
      <trkpt lat="45.91191" lon="4.78744">
        <ele>170.800003052</ele>
        <time>2015-11-11T09:40:14.986Z</time>
      </trkpt>
      <trkpt lat="45.91187" lon="4.78751">
        <ele>170.399993896</ele>
        <time>2015-11-11T09:40:15.995Z</time>
      </trkpt>
      <trkpt lat="45.91184" lon="4.78759">
        <ele>170.399993896</ele>
        <time>2015-11-11T09:40:16.982Z</time>
      </trkpt>
      <trkpt lat="45.9118" lon="4.78766">
        <ele>170.300003052</ele>
        <time>2015-11-11T09:40:17.995Z</time>
      </trkpt>
      <trkpt lat="45.91176" lon="4.78773">
        <ele>170.5</ele>
        <time>2015-11-11T09:40:18.981Z</time>
      </trkpt>
      <trkpt lat="45.91172" lon="4.7878">
        <ele>170.699996948</ele>
        <time>2015-11-11T09:40:20.008Z</time>
      </trkpt>
      <trkpt lat="45.91169" lon="4.78787">
        <ele>170.699996948</ele>
        <time>2015-11-11T09:40:20.985Z</time>
      </trkpt>
      <trkpt lat="45.91165" lon="4.78793">
        <ele>170.899993896</ele>
        <time>2015-11-11T09:40:21.995Z</time>
      </trkpt>
      <trkpt lat="45.91162" lon="4.788">
        <ele>171.100006104</ele>
        <time>2015-11-11T09:40:22.982Z</time>
      </trkpt>
      <trkpt lat="45.91158" lon="4.78807">
        <ele>170.100006104</ele>
        <time>2015-11-11T09:40:23.995Z</time>
      </trkpt>
      <trkpt lat="45.91155" lon="4.78813">
        <ele>170.100006104</ele>
        <time>2015-11-11T09:40:24.981Z</time>
      </trkpt>
      <trkpt lat="45.91151" lon="4.7882">
        <ele>170</ele>
        <time>2015-11-11T09:40:25.996Z</time>
      </trkpt>
      <trkpt lat="45.91148" lon="4.78827">
        <ele>169.899993896</ele>
        <time>2015-11-11T09:40:26.985Z</time>
      </trkpt>
      <trkpt lat="45.91144" lon="4.78834">
        <ele>169.600006104</ele>
        <time>2015-11-11T09:40:27.995Z</time>
      </trkpt>
      <trkpt lat="45.9114" lon="4.78841">
        <ele>169.800003052</ele>
        <time>2015-11-11T09:40:28.982Z</time>
      </trkpt>
      <trkpt lat="45.91136" lon="4.78848">
        <ele>169.800003052</ele>
        <time>2015-11-11T09:40:29.995Z</time>
      </trkpt>
      <trkpt lat="45.91132" lon="4.78854">
        <ele>169.800003052</ele>
        <time>2015-11-11T09:40:30.981Z</time>
      </trkpt>
      <trkpt lat="45.91128" lon="4.78861">
        <ele>169.800003052</ele>
        <time>2015-11-11T09:40:31.995Z</time>
      </trkpt>
      <trkpt lat="45.91124" lon="4.78868">
        <ele>169.699996948</ele>
        <time>2015-11-11T09:40:32.985Z</time>
      </trkpt>
      <trkpt lat="45.91121" lon="4.78875">
        <ele>169.600006104</ele>
        <time>2015-11-11T09:40:33.998Z</time>
      </trkpt>
      <trkpt lat="45.91117" lon="4.78881">
        <ele>169.600006104</ele>
        <time>2015-11-11T09:40:34.982Z</time>
      </trkpt>
      <trkpt lat="45.91113" lon="4.78888">
        <ele>169.600006104</ele>
        <time>2015-11-11T09:40:36.047Z</time>
      </trkpt>
      <trkpt lat="45.9111" lon="4.78895">
        <ele>169.5</ele>
        <time>2015-11-11T09:40:36.981Z</time>
      </trkpt>
      <trkpt lat="45.91106" lon="4.78902">
        <ele>169.199996948</ele>
        <time>2015-11-11T09:40:37.995Z</time>
      </trkpt>
      <trkpt lat="45.91103" lon="4.78909">
        <ele>169.100006104</ele>
        <time>2015-11-11T09:40:38.985Z</time>
      </trkpt>
      <trkpt lat="45.91099" lon="4.78915">
        <ele>169.100006104</ele>
        <time>2015-11-11T09:40:39.998Z</time>
      </trkpt>
      <trkpt lat="45.91096" lon="4.78922">
        <ele>169.100006104</ele>
        <time>2015-11-11T09:40:40.983Z</time>
      </trkpt>
      <trkpt lat="45.91093" lon="4.78929">
        <ele>169</ele>
        <time>2015-11-11T09:40:41.995Z</time>
      </trkpt>
      <trkpt lat="45.91089" lon="4.78935">
        <ele>169.100006104</ele>
        <time>2015-11-11T09:40:42.981Z</time>
      </trkpt>
      <trkpt lat="45.91085" lon="4.78942">
        <ele>169.100006104</ele>
        <time>2015-11-11T09:40:43.995Z</time>
      </trkpt>
      <trkpt lat="45.91082" lon="4.78948">
        <ele>169.199996948</ele>
        <time>2015-11-11T09:40:45.095Z</time>
      </trkpt>
      <trkpt lat="45.91078" lon="4.78954">
        <ele>169.199996948</ele>
        <time>2015-11-11T09:40:45.995Z</time>
      </trkpt>
      <trkpt lat="45.91074" lon="4.7896">
        <ele>169.300003052</ele>
        <time>2015-11-11T09:40:46.982Z</time>
      </trkpt>
      <trkpt lat="45.9107" lon="4.78967">
        <ele>169.5</ele>
        <time>2015-11-11T09:40:47.995Z</time>
      </trkpt>
      <trkpt lat="45.91067" lon="4.78973">
        <ele>169.699996948</ele>
        <time>2015-11-11T09:40:48.981Z</time>
      </trkpt>
      <trkpt lat="45.91063" lon="4.78979">
        <ele>169.899993896</ele>
        <time>2015-11-11T09:40:49.995Z</time>
      </trkpt>
      <trkpt lat="45.91059" lon="4.78986">
        <ele>169.899993896</ele>
        <time>2015-11-11T09:40:50.985Z</time>
      </trkpt>
      <trkpt lat="45.91056" lon="4.78992">
        <ele>170.300003052</ele>
        <time>2015-11-11T09:40:52.01Z</time>
      </trkpt>
      <trkpt lat="45.91053" lon="4.78998">
        <ele>170.5</ele>
        <time>2015-11-11T09:40:52.983Z</time>
      </trkpt>
      <trkpt lat="45.91049" lon="4.79004">
        <ele>170.800003052</ele>
        <time>2015-11-11T09:40:53.996Z</time>
      </trkpt>
      <trkpt lat="45.91046" lon="4.7901">
        <ele>171.300003052</ele>
        <time>2015-11-11T09:40:54.981Z</time>
      </trkpt>
      <trkpt lat="45.91043" lon="4.79016">
        <ele>171.600006104</ele>
        <time>2015-11-11T09:40:55.996Z</time>
      </trkpt>
      <trkpt lat="45.91039" lon="4.79022">
        <ele>171.5</ele>
        <time>2015-11-11T09:40:56.985Z</time>
      </trkpt>
      <trkpt lat="45.91036" lon="4.79028">
        <ele>172.100006104</ele>
        <time>2015-11-11T09:40:57.996Z</time>
      </trkpt>
      <trkpt lat="45.91033" lon="4.79034">
        <ele>172.399993896</ele>
        <time>2015-11-11T09:40:58.982Z</time>
      </trkpt>
      <trkpt lat="45.91029" lon="4.7904">
        <ele>172.600006104</ele>
        <time>2015-11-11T09:40:59.998Z</time>
      </trkpt>
      <trkpt lat="45.91026" lon="4.79045">
        <ele>172.800003052</ele>
        <time>2015-11-11T09:41:00.981Z</time>
      </trkpt>
      <trkpt lat="45.91023" lon="4.79051">
        <ele>172.600006104</ele>
        <time>2015-11-11T09:41:01.996Z</time>
      </trkpt>
      <trkpt lat="45.91019" lon="4.79057">
        <ele>172.5</ele>
        <time>2015-11-11T09:41:02.985Z</time>
      </trkpt>
      <trkpt lat="45.91016" lon="4.79064">
        <ele>172.300003052</ele>
        <time>2015-11-11T09:41:03.996Z</time>
      </trkpt>
      <trkpt lat="45.91013" lon="4.7907">
        <ele>172.600006104</ele>
        <time>2015-11-11T09:41:04.982Z</time>
      </trkpt>
      <trkpt lat="45.91009" lon="4.79077">
        <ele>172.899993896</ele>
        <time>2015-11-11T09:41:05.996Z</time>
      </trkpt>
      <trkpt lat="45.91006" lon="4.79083">
        <ele>173.100006104</ele>
        <time>2015-11-11T09:41:06.981Z</time>
      </trkpt>
      <trkpt lat="45.91003" lon="4.7909">
        <ele>173.199996948</ele>
        <time>2015-11-11T09:41:08.01Z</time>
      </trkpt>
      <trkpt lat="45.90999" lon="4.79095">
        <ele>173.199996948</ele>
        <time>2015-11-11T09:41:08.985Z</time>
      </trkpt>
      <trkpt lat="45.90996" lon="4.79101">
        <ele>173.300003052</ele>
        <time>2015-11-11T09:41:09.996Z</time>
      </trkpt>
      <trkpt lat="45.90993" lon="4.79107">
        <ele>173.100006104</ele>
        <time>2015-11-11T09:41:10.982Z</time>
      </trkpt>
      <trkpt lat="45.90989" lon="4.79114">
        <ele>173</ele>
        <time>2015-11-11T09:41:11.995Z</time>
      </trkpt>
      <trkpt lat="45.90986" lon="4.7912">
        <ele>173</ele>
        <time>2015-11-11T09:41:12.981Z</time>
      </trkpt>
      <trkpt lat="45.90982" lon="4.79126">
        <ele>172.800003052</ele>
        <time>2015-11-11T09:41:13.995Z</time>
      </trkpt>
      <trkpt lat="45.90979" lon="4.79133">
        <ele>172.399993896</ele>
        <time>2015-11-11T09:41:14.985Z</time>
      </trkpt>
      <trkpt lat="45.90975" lon="4.79139">
        <ele>172.100006104</ele>
        <time>2015-11-11T09:41:15.995Z</time>
      </trkpt>
      <trkpt lat="45.90972" lon="4.79146">
        <ele>172</ele>
        <time>2015-11-11T09:41:16.983Z</time>
      </trkpt>
      <trkpt lat="45.90969" lon="4.79153">
        <ele>172.100006104</ele>
        <time>2015-11-11T09:41:17.995Z</time>
      </trkpt>
      <trkpt lat="45.90965" lon="4.7916">
        <ele>171.800003052</ele>
        <time>2015-11-11T09:41:18.981Z</time>
      </trkpt>
      <trkpt lat="45.90962" lon="4.79166">
        <ele>171.699996948</ele>
        <time>2015-11-11T09:41:19.995Z</time>
      </trkpt>
      <trkpt lat="45.90959" lon="4.79173">
        <ele>171.600006104</ele>
        <time>2015-11-11T09:41:20.985Z</time>
      </trkpt>
      <trkpt lat="45.90955" lon="4.79179">
        <ele>171.600006104</ele>
        <time>2015-11-11T09:41:21.995Z</time>
      </trkpt>
      <trkpt lat="45.90952" lon="4.79185">
        <ele>171.5</ele>
        <time>2015-11-11T09:41:22.981Z</time>
      </trkpt>
      <trkpt lat="45.90948" lon="4.79191">
        <ele>171.800003052</ele>
        <time>2015-11-11T09:41:24.009Z</time>
      </trkpt>
      <trkpt lat="45.90945" lon="4.79197">
        <ele>172</ele>
        <time>2015-11-11T09:41:24.981Z</time>
      </trkpt>
      <trkpt lat="45.90941" lon="4.79204">
        <ele>171.899993896</ele>
        <time>2015-11-11T09:41:25.999Z</time>
      </trkpt>
      <trkpt lat="45.90938" lon="4.7921">
        <ele>171.899993896</ele>
        <time>2015-11-11T09:41:26.985Z</time>
      </trkpt>
      <trkpt lat="45.90934" lon="4.79217">
        <ele>171.399993896</ele>
        <time>2015-11-11T09:41:27.995Z</time>
      </trkpt>
      <trkpt lat="45.9093" lon="4.79224">
        <ele>171.399993896</ele>
        <time>2015-11-11T09:41:28.982Z</time>
      </trkpt>
      <trkpt lat="45.90927" lon="4.79231">
        <ele>171.100006104</ele>
        <time>2015-11-11T09:41:29.995Z</time>
      </trkpt>
      <trkpt lat="45.90923" lon="4.79237">
        <ele>171.399993896</ele>
        <time>2015-11-11T09:41:30.981Z</time>
      </trkpt>
      <trkpt lat="45.9092" lon="4.79245">
        <ele>170.899993896</ele>
        <time>2015-11-11T09:41:31.996Z</time>
      </trkpt>
      <trkpt lat="45.90916" lon="4.79252">
        <ele>170.699996948</ele>
        <time>2015-11-11T09:41:32.985Z</time>
      </trkpt>
      <trkpt lat="45.90912" lon="4.79258">
        <ele>170.600006104</ele>
        <time>2015-11-11T09:41:33.995Z</time>
      </trkpt>
      <trkpt lat="45.90908" lon="4.79265">
        <ele>170.399993896</ele>
        <time>2015-11-11T09:41:34.983Z</time>
      </trkpt>
      <trkpt lat="45.90904" lon="4.79272">
        <ele>170.399993896</ele>
        <time>2015-11-11T09:41:35.995Z</time>
      </trkpt>
      <trkpt lat="45.909" lon="4.79279">
        <ele>170.300003052</ele>
        <time>2015-11-11T09:41:36.981Z</time>
      </trkpt>
      <trkpt lat="45.90896" lon="4.79287">
        <ele>170.199996948</ele>
        <time>2015-11-11T09:41:37.995Z</time>
      </trkpt>
      <trkpt lat="45.90891" lon="4.79293">
        <ele>170</ele>
        <time>2015-11-11T09:41:38.985Z</time>
      </trkpt>
      <trkpt lat="45.90887" lon="4.793">
        <ele>169.899993896</ele>
        <time>2015-11-11T09:41:40.012Z</time>
      </trkpt>
      <trkpt lat="45.90883" lon="4.79306">
        <ele>170.100006104</ele>
        <time>2015-11-11T09:41:40.982Z</time>
      </trkpt>
      <trkpt lat="45.90878" lon="4.79313">
        <ele>170.399993896</ele>
        <time>2015-11-11T09:41:41.996Z</time>
      </trkpt>
      <trkpt lat="45.90874" lon="4.7932">
        <ele>170.199996948</ele>
        <time>2015-11-11T09:41:42.981Z</time>
      </trkpt>
      <trkpt lat="45.9087" lon="4.79326">
        <ele>170.199996948</ele>
        <time>2015-11-11T09:41:43.995Z</time>
      </trkpt>
      <trkpt lat="45.90866" lon="4.79332">
        <ele>170</ele>
        <time>2015-11-11T09:41:44.985Z</time>
      </trkpt>
      <trkpt lat="45.90861" lon="4.79338">
        <ele>170.300003052</ele>
        <time>2015-11-11T09:41:45.996Z</time>
      </trkpt>
      <trkpt lat="45.90857" lon="4.79345">
        <ele>169.699996948</ele>
        <time>2015-11-11T09:41:46.982Z</time>
      </trkpt>
      <trkpt lat="45.90853" lon="4.79351">
        <ele>169.899993896</ele>
        <time>2015-11-11T09:41:47.995Z</time>
      </trkpt>
      <trkpt lat="45.90849" lon="4.79357">
        <ele>169.899993896</ele>
        <time>2015-11-11T09:41:48.981Z</time>
      </trkpt>
      <trkpt lat="45.90844" lon="4.79363">
        <ele>169.800003052</ele>
        <time>2015-11-11T09:41:49.995Z</time>
      </trkpt>
      <trkpt lat="45.9084" lon="4.79369">
        <ele>169.699996948</ele>
        <time>2015-11-11T09:41:50.985Z</time>
      </trkpt>
      <trkpt lat="45.90834" lon="4.79374">
        <ele>169.300003052</ele>
        <time>2015-11-11T09:41:51.998Z</time>
      </trkpt>
      <trkpt lat="45.90829" lon="4.7938">
        <ele>169.5</ele>
        <time>2015-11-11T09:41:52.982Z</time>
      </trkpt>
      <trkpt lat="45.90824" lon="4.79386">
        <ele>169.600006104</ele>
        <time>2015-11-11T09:41:53.995Z</time>
      </trkpt>
      <trkpt lat="45.90819" lon="4.79391">
        <ele>169.600006104</ele>
        <time>2015-11-11T09:41:54.981Z</time>
      </trkpt>
      <trkpt lat="45.90813" lon="4.79396">
        <ele>169.5</ele>
        <time>2015-11-11T09:41:56.009Z</time>
      </trkpt>
      <trkpt lat="45.90808" lon="4.79402">
        <ele>169.5</ele>
        <time>2015-11-11T09:41:56.985Z</time>
      </trkpt>
      <trkpt lat="45.90803" lon="4.79407">
        <ele>169.5</ele>
        <time>2015-11-11T09:41:58.103Z</time>
      </trkpt>
      <trkpt lat="45.90797" lon="4.79412">
        <ele>169.600006104</ele>
        <time>2015-11-11T09:41:58.982Z</time>
      </trkpt>
      <trkpt lat="45.90792" lon="4.79417">
        <ele>168.899993896</ele>
        <time>2015-11-11T09:41:59.995Z</time>
      </trkpt>
      <trkpt lat="45.90786" lon="4.79421">
        <ele>169</ele>
        <time>2015-11-11T09:42:00.981Z</time>
      </trkpt>
      <trkpt lat="45.9078" lon="4.79426">
        <ele>169</ele>
        <time>2015-11-11T09:42:01.996Z</time>
      </trkpt>
      <trkpt lat="45.90775" lon="4.7943">
        <ele>168.899993896</ele>
        <time>2015-11-11T09:42:03.003Z</time>
      </trkpt>
      <trkpt lat="45.90769" lon="4.79434">
        <ele>168.800003052</ele>
        <time>2015-11-11T09:42:03.995Z</time>
      </trkpt>
      <trkpt lat="45.90763" lon="4.79438">
        <ele>168.899993896</ele>
        <time>2015-11-11T09:42:04.982Z</time>
      </trkpt>
      <trkpt lat="45.90757" lon="4.79442">
        <ele>168.899993896</ele>
        <time>2015-11-11T09:42:05.995Z</time>
      </trkpt>
      <trkpt lat="45.90751" lon="4.79445">
        <ele>168.800003052</ele>
        <time>2015-11-11T09:42:06.982Z</time>
      </trkpt>
      <trkpt lat="45.90745" lon="4.79449">
        <ele>168.899993896</ele>
        <time>2015-11-11T09:42:07.996Z</time>
      </trkpt>
      <trkpt lat="45.90739" lon="4.79452">
        <ele>168.800003052</ele>
        <time>2015-11-11T09:42:08.985Z</time>
      </trkpt>
      <trkpt lat="45.90734" lon="4.79455">
        <ele>168.899993896</ele>
        <time>2015-11-11T09:42:09.996Z</time>
      </trkpt>
      <trkpt lat="45.90728" lon="4.79458">
        <ele>168.899993896</ele>
        <time>2015-11-11T09:42:10.982Z</time>
      </trkpt>
      <trkpt lat="45.90723" lon="4.79462">
        <ele>168.899993896</ele>
        <time>2015-11-11T09:42:12.01Z</time>
      </trkpt>
      <trkpt lat="45.90717" lon="4.79464">
        <ele>168.699996948</ele>
        <time>2015-11-11T09:42:12.981Z</time>
      </trkpt>
      <trkpt lat="45.90712" lon="4.79467">
        <ele>169</ele>
        <time>2015-11-11T09:42:13.995Z</time>
      </trkpt>
      <trkpt lat="45.90706" lon="4.7947">
        <ele>169</ele>
        <time>2015-11-11T09:42:14.985Z</time>
      </trkpt>
      <trkpt lat="45.907" lon="4.79474">
        <ele>169</ele>
        <time>2015-11-11T09:42:15.995Z</time>
      </trkpt>
      <trkpt lat="45.90694" lon="4.79477">
        <ele>169.100006104</ele>
        <time>2015-11-11T09:42:16.982Z</time>
      </trkpt>
      <trkpt lat="45.90688" lon="4.79481">
        <ele>169.199996948</ele>
        <time>2015-11-11T09:42:17.998Z</time>
      </trkpt>
      <trkpt lat="45.90683" lon="4.79484">
        <ele>169.399993896</ele>
        <time>2015-11-11T09:42:18.981Z</time>
      </trkpt>
      <trkpt lat="45.90677" lon="4.79488">
        <ele>169.699996948</ele>
        <time>2015-11-11T09:42:19.995Z</time>
      </trkpt>
      <trkpt lat="45.90671" lon="4.79491">
        <ele>170.300003052</ele>
        <time>2015-11-11T09:42:20.985Z</time>
      </trkpt>
      <trkpt lat="45.90665" lon="4.79494">
        <ele>170.199996948</ele>
        <time>2015-11-11T09:42:22.005Z</time>
      </trkpt>
      <trkpt lat="45.90659" lon="4.79497">
        <ele>170.100006104</ele>
        <time>2015-11-11T09:42:22.983Z</time>
      </trkpt>
      <trkpt lat="45.90653" lon="4.79501">
        <ele>170</ele>
        <time>2015-11-11T09:42:23.995Z</time>
      </trkpt>
      <trkpt lat="45.90647" lon="4.79504">
        <ele>170.199996948</ele>
        <time>2015-11-11T09:42:24.981Z</time>
      </trkpt>
      <trkpt lat="45.90642" lon="4.79507">
        <ele>170.399993896</ele>
        <time>2015-11-11T09:42:25.995Z</time>
      </trkpt>
      <trkpt lat="45.90636" lon="4.7951">
        <ele>170.399993896</ele>
        <time>2015-11-11T09:42:26.985Z</time>
      </trkpt>
      <trkpt lat="45.90631" lon="4.79513">
        <ele>170.300003052</ele>
        <time>2015-11-11T09:42:28.008Z</time>
      </trkpt>
      <trkpt lat="45.90626" lon="4.79516">
        <ele>170.399993896</ele>
        <time>2015-11-11T09:42:28.982Z</time>
      </trkpt>
      <trkpt lat="45.9062" lon="4.79519">
        <ele>170.5</ele>
        <time>2015-11-11T09:42:29.997Z</time>
      </trkpt>
      <trkpt lat="45.90615" lon="4.79523">
        <ele>170.100006104</ele>
        <time>2015-11-11T09:42:30.983Z</time>
      </trkpt>
      <trkpt lat="45.90609" lon="4.79526">
        <ele>169.800003052</ele>
        <time>2015-11-11T09:42:31.997Z</time>
      </trkpt>
      <trkpt lat="45.90603" lon="4.7953">
        <ele>169.899993896</ele>
        <time>2015-11-11T09:42:32.986Z</time>
      </trkpt>
      <trkpt lat="45.90597" lon="4.79533">
        <ele>169.600006104</ele>
        <time>2015-11-11T09:42:33.997Z</time>
      </trkpt>
      <trkpt lat="45.90592" lon="4.79537">
        <ele>169.600006104</ele>
        <time>2015-11-11T09:42:34.982Z</time>
      </trkpt>
      <trkpt lat="45.90586" lon="4.79541">
        <ele>169.5</ele>
        <time>2015-11-11T09:42:35.995Z</time>
      </trkpt>
      <trkpt lat="45.9058" lon="4.79545">
        <ele>169.600006104</ele>
        <time>2015-11-11T09:42:36.981Z</time>
      </trkpt>
      <trkpt lat="45.90575" lon="4.7955">
        <ele>169.699996948</ele>
        <time>2015-11-11T09:42:37.995Z</time>
      </trkpt>
      <trkpt lat="45.90569" lon="4.79553">
        <ele>169.5</ele>
        <time>2015-11-11T09:42:38.985Z</time>
      </trkpt>
      <trkpt lat="45.90563" lon="4.79557">
        <ele>169.800003052</ele>
        <time>2015-11-11T09:42:39.998Z</time>
      </trkpt>
      <trkpt lat="45.90558" lon="4.79561">
        <ele>170</ele>
        <time>2015-11-11T09:42:40.982Z</time>
      </trkpt>
      <trkpt lat="45.90553" lon="4.79565">
        <ele>170</ele>
        <time>2015-11-11T09:42:41.995Z</time>
      </trkpt>
      <trkpt lat="45.90549" lon="4.79569">
        <ele>169.899993896</ele>
        <time>2015-11-11T09:42:42.981Z</time>
      </trkpt>
      <trkpt lat="45.90544" lon="4.79573">
        <ele>169.899993896</ele>
        <time>2015-11-11T09:42:44.01Z</time>
      </trkpt>
      <trkpt lat="45.90539" lon="4.79577">
        <ele>170</ele>
        <time>2015-11-11T09:42:44.985Z</time>
      </trkpt>
      <trkpt lat="45.90534" lon="4.79581">
        <ele>169.899993896</ele>
        <time>2015-11-11T09:42:45.995Z</time>
      </trkpt>
      <trkpt lat="45.90529" lon="4.79585">
        <ele>169.699996948</ele>
        <time>2015-11-11T09:42:46.982Z</time>
      </trkpt>
      <trkpt lat="45.90523" lon="4.79589">
        <ele>169.899993896</ele>
        <time>2015-11-11T09:42:47.995Z</time>
      </trkpt>
      <trkpt lat="45.90518" lon="4.79594">
        <ele>169.800003052</ele>
        <time>2015-11-11T09:42:48.981Z</time>
      </trkpt>
      <trkpt lat="45.90513" lon="4.79598">
        <ele>170</ele>
        <time>2015-11-11T09:42:49.995Z</time>
      </trkpt>
      <trkpt lat="45.90508" lon="4.79603">
        <ele>169.600006104</ele>
        <time>2015-11-11T09:42:50.985Z</time>
      </trkpt>
      <trkpt lat="45.90503" lon="4.79607">
        <ele>169.5</ele>
        <time>2015-11-11T09:42:51.996Z</time>
      </trkpt>
      <trkpt lat="45.90498" lon="4.79612">
        <ele>169.699996948</ele>
        <time>2015-11-11T09:42:52.982Z</time>
      </trkpt>
      <trkpt lat="45.90493" lon="4.79616">
        <ele>169.600006104</ele>
        <time>2015-11-11T09:42:53.995Z</time>
      </trkpt>
      <trkpt lat="45.90489" lon="4.79621">
        <ele>169.5</ele>
        <time>2015-11-11T09:42:54.981Z</time>
      </trkpt>
      <trkpt lat="45.90484" lon="4.79626">
        <ele>169.399993896</ele>
        <time>2015-11-11T09:42:55.995Z</time>
      </trkpt>
      <trkpt lat="45.90479" lon="4.79631">
        <ele>169.300003052</ele>
        <time>2015-11-11T09:42:56.984Z</time>
      </trkpt>
      <trkpt lat="45.90474" lon="4.79636">
        <ele>169.300003052</ele>
        <time>2015-11-11T09:42:57.995Z</time>
      </trkpt>
      <trkpt lat="45.90469" lon="4.79641">
        <ele>169.199996948</ele>
        <time>2015-11-11T09:42:58.982Z</time>
      </trkpt>
      <trkpt lat="45.90464" lon="4.79647">
        <ele>169.199996948</ele>
        <time>2015-11-11T09:43:00.086Z</time>
      </trkpt>
      <trkpt lat="45.90459" lon="4.79652">
        <ele>169.199996948</ele>
        <time>2015-11-11T09:43:00.981Z</time>
      </trkpt>
      <trkpt lat="45.90455" lon="4.79658">
        <ele>169.199996948</ele>
        <time>2015-11-11T09:43:01.995Z</time>
      </trkpt>
      <trkpt lat="45.9045" lon="4.79663">
        <ele>169.300003052</ele>
        <time>2015-11-11T09:43:02.984Z</time>
      </trkpt>
      <trkpt lat="45.90445" lon="4.79669">
        <ele>169.199996948</ele>
        <time>2015-11-11T09:43:03.995Z</time>
      </trkpt>
      <trkpt lat="45.90441" lon="4.79675">
        <ele>169.199996948</ele>
        <time>2015-11-11T09:43:04.982Z</time>
      </trkpt>
      <trkpt lat="45.90436" lon="4.7968">
        <ele>169.199996948</ele>
        <time>2015-11-11T09:43:05.995Z</time>
      </trkpt>
      <trkpt lat="45.90432" lon="4.79686">
        <ele>169.100006104</ele>
        <time>2015-11-11T09:43:06.981Z</time>
      </trkpt>
      <trkpt lat="45.90428" lon="4.79692">
        <ele>169.100006104</ele>
        <time>2015-11-11T09:43:07.995Z</time>
      </trkpt>
      <trkpt lat="45.90423" lon="4.79698">
        <ele>169.100006104</ele>
        <time>2015-11-11T09:43:08.984Z</time>
      </trkpt>
      <trkpt lat="45.90419" lon="4.79703">
        <ele>169.100006104</ele>
        <time>2015-11-11T09:43:10.129Z</time>
      </trkpt>
      <trkpt lat="45.90414" lon="4.79709">
        <ele>169</ele>
        <time>2015-11-11T09:43:10.982Z</time>
      </trkpt>
      <trkpt lat="45.9041" lon="4.79715">
        <ele>168.899993896</ele>
        <time>2015-11-11T09:43:11.995Z</time>
      </trkpt>
      <trkpt lat="45.90405" lon="4.7972">
        <ele>168.899993896</ele>
        <time>2015-11-11T09:43:12.981Z</time>
      </trkpt>
      <trkpt lat="45.90401" lon="4.79726">
        <ele>168.899993896</ele>
        <time>2015-11-11T09:43:13.995Z</time>
      </trkpt>
      <trkpt lat="45.90396" lon="4.79732">
        <ele>168.899993896</ele>
        <time>2015-11-11T09:43:14.984Z</time>
      </trkpt>
      <trkpt lat="45.90391" lon="4.79737">
        <ele>168.899993896</ele>
        <time>2015-11-11T09:43:15.995Z</time>
      </trkpt>
      <trkpt lat="45.90387" lon="4.79743">
        <ele>168.899993896</ele>
        <time>2015-11-11T09:43:16.982Z</time>
      </trkpt>
      <trkpt lat="45.90382" lon="4.79748">
        <ele>168.899993896</ele>
        <time>2015-11-11T09:43:18.032Z</time>
      </trkpt>
      <trkpt lat="45.90378" lon="4.79754">
        <ele>168.899993896</ele>
        <time>2015-11-11T09:43:18.981Z</time>
      </trkpt>
      <trkpt lat="45.90374" lon="4.7976">
        <ele>168.899993896</ele>
        <time>2015-11-11T09:43:19.995Z</time>
      </trkpt>
      <trkpt lat="45.90369" lon="4.79765">
        <ele>168.899993896</ele>
        <time>2015-11-11T09:43:20.997Z</time>
      </trkpt>
      <trkpt lat="45.90365" lon="4.79771">
        <ele>168.899993896</ele>
        <time>2015-11-11T09:43:21.995Z</time>
      </trkpt>
      <trkpt lat="45.9036" lon="4.79777">
        <ele>168.899993896</ele>
        <time>2015-11-11T09:43:22.982Z</time>
      </trkpt>
      <trkpt lat="45.90355" lon="4.79782">
        <ele>168.899993896</ele>
        <time>2015-11-11T09:43:23.995Z</time>
      </trkpt>
      <trkpt lat="45.90351" lon="4.79788">
        <ele>168.899993896</ele>
        <time>2015-11-11T09:43:24.981Z</time>
      </trkpt>
      <trkpt lat="45.90346" lon="4.79794">
        <ele>168.899993896</ele>
        <time>2015-11-11T09:43:25.995Z</time>
      </trkpt>
      <trkpt lat="45.90341" lon="4.798">
        <ele>168.800003052</ele>
        <time>2015-11-11T09:43:26.985Z</time>
      </trkpt>
      <trkpt lat="45.90337" lon="4.79806">
        <ele>168.899993896</ele>
        <time>2015-11-11T09:43:27.995Z</time>
      </trkpt>
      <trkpt lat="45.90332" lon="4.79812">
        <ele>168.899993896</ele>
        <time>2015-11-11T09:43:28.982Z</time>
      </trkpt>
      <trkpt lat="45.90327" lon="4.79818">
        <ele>169</ele>
        <time>2015-11-11T09:43:29.995Z</time>
      </trkpt>
      <trkpt lat="45.90323" lon="4.79824">
        <ele>168.800003052</ele>
        <time>2015-11-11T09:43:30.981Z</time>
      </trkpt>
      <trkpt lat="45.90318" lon="4.79829">
        <ele>168.899993896</ele>
        <time>2015-11-11T09:43:32.008Z</time>
      </trkpt>
      <trkpt lat="45.90314" lon="4.79834">
        <ele>168.800003052</ele>
        <time>2015-11-11T09:43:32.984Z</time>
      </trkpt>
      <trkpt lat="45.90309" lon="4.7984">
        <ele>168.899993896</ele>
        <time>2015-11-11T09:43:33.995Z</time>
      </trkpt>
      <trkpt lat="45.90305" lon="4.79845">
        <ele>168.899993896</ele>
        <time>2015-11-11T09:43:34.982Z</time>
      </trkpt>
      <trkpt lat="45.90301" lon="4.79851">
        <ele>168.899993896</ele>
        <time>2015-11-11T09:43:35.995Z</time>
      </trkpt>
      <trkpt lat="45.90297" lon="4.79856">
        <ele>168.800003052</ele>
        <time>2015-11-11T09:43:36.981Z</time>
      </trkpt>
      <trkpt lat="45.90293" lon="4.79861">
        <ele>168.800003052</ele>
        <time>2015-11-11T09:43:37.995Z</time>
      </trkpt>
      <trkpt lat="45.90288" lon="4.79866">
        <ele>168.699996948</ele>
        <time>2015-11-11T09:43:38.985Z</time>
      </trkpt>
      <trkpt lat="45.90284" lon="4.79871">
        <ele>168.699996948</ele>
        <time>2015-11-11T09:43:39.998Z</time>
      </trkpt>
      <trkpt lat="45.9028" lon="4.79876">
        <ele>168.600006104</ele>
        <time>2015-11-11T09:43:40.982Z</time>
      </trkpt>
      <trkpt lat="45.90275" lon="4.79881">
        <ele>168.600006104</ele>
        <time>2015-11-11T09:43:41.995Z</time>
      </trkpt>
      <trkpt lat="45.9027" lon="4.79886">
        <ele>168.5</ele>
        <time>2015-11-11T09:43:42.981Z</time>
      </trkpt>
      <trkpt lat="45.90265" lon="4.7989">
        <ele>168.5</ele>
        <time>2015-11-11T09:43:43.995Z</time>
      </trkpt>
      <trkpt lat="45.9026" lon="4.79895">
        <ele>168.399993896</ele>
        <time>2015-11-11T09:43:44.984Z</time>
      </trkpt>
      <trkpt lat="45.90255" lon="4.79899">
        <ele>168.300003052</ele>
        <time>2015-11-11T09:43:45.999Z</time>
      </trkpt>
      <trkpt lat="45.9025" lon="4.79904">
        <ele>168.199996948</ele>
        <time>2015-11-11T09:43:46.982Z</time>
      </trkpt>
      <trkpt lat="45.90245" lon="4.79908">
        <ele>168.199996948</ele>
        <time>2015-11-11T09:43:48.009Z</time>
      </trkpt>
      <trkpt lat="45.90239" lon="4.79911">
        <ele>168.199996948</ele>
        <time>2015-11-11T09:43:48.981Z</time>
      </trkpt>
      <trkpt lat="45.90234" lon="4.79914">
        <ele>168.100006104</ele>
        <time>2015-11-11T09:43:49.995Z</time>
      </trkpt>
      <trkpt lat="45.90228" lon="4.79918">
        <ele>168</ele>
        <time>2015-11-11T09:43:50.984Z</time>
      </trkpt>
      <trkpt lat="45.90222" lon="4.79921">
        <ele>168</ele>
        <time>2015-11-11T09:43:52.001Z</time>
      </trkpt>
      <trkpt lat="45.90217" lon="4.79924">
        <ele>168</ele>
        <time>2015-11-11T09:43:52.982Z</time>
      </trkpt>
      <trkpt lat="45.90211" lon="4.79926">
        <ele>168.100006104</ele>
        <time>2015-11-11T09:43:53.995Z</time>
      </trkpt>
      <trkpt lat="45.90205" lon="4.79929">
        <ele>168.100006104</ele>
        <time>2015-11-11T09:43:54.981Z</time>
      </trkpt>
      <trkpt lat="45.902" lon="4.79932">
        <ele>168.100006104</ele>
        <time>2015-11-11T09:43:55.995Z</time>
      </trkpt>
      <trkpt lat="45.90194" lon="4.79934">
        <ele>168.199996948</ele>
        <time>2015-11-11T09:43:56.984Z</time>
      </trkpt>
      <trkpt lat="45.90188" lon="4.79937">
        <ele>168.300003052</ele>
        <time>2015-11-11T09:43:57.995Z</time>
      </trkpt>
      <trkpt lat="45.90182" lon="4.79939">
        <ele>168.199996948</ele>
        <time>2015-11-11T09:43:58.982Z</time>
      </trkpt>
      <trkpt lat="45.90177" lon="4.79941">
        <ele>168.100006104</ele>
        <time>2015-11-11T09:43:59.996Z</time>
      </trkpt>
      <trkpt lat="45.90171" lon="4.79944">
        <ele>168.100006104</ele>
        <time>2015-11-11T09:44:00.981Z</time>
      </trkpt>
      <trkpt lat="45.90166" lon="4.79946">
        <ele>168.100006104</ele>
        <time>2015-11-11T09:44:02.001Z</time>
      </trkpt>
      <trkpt lat="45.90161" lon="4.79948">
        <ele>168.199996948</ele>
        <time>2015-11-11T09:44:02.984Z</time>
      </trkpt>
      <trkpt lat="45.90155" lon="4.79951">
        <ele>168.199996948</ele>
        <time>2015-11-11T09:44:04.009Z</time>
      </trkpt>
      <trkpt lat="45.9015" lon="4.79953">
        <ele>168.199996948</ele>
        <time>2015-11-11T09:44:04.983Z</time>
      </trkpt>
      <trkpt lat="45.90144" lon="4.79955">
        <ele>168.100006104</ele>
        <time>2015-11-11T09:44:05.995Z</time>
      </trkpt>
      <trkpt lat="45.90139" lon="4.79958">
        <ele>167.899993896</ele>
        <time>2015-11-11T09:44:06.981Z</time>
      </trkpt>
      <trkpt lat="45.90134" lon="4.7996">
        <ele>167.800003052</ele>
        <time>2015-11-11T09:44:07.995Z</time>
      </trkpt>
      <trkpt lat="45.90128" lon="4.79962">
        <ele>167.699996948</ele>
        <time>2015-11-11T09:44:08.984Z</time>
      </trkpt>
      <trkpt lat="45.90123" lon="4.79965">
        <ele>167.600006104</ele>
        <time>2015-11-11T09:44:09.994Z</time>
      </trkpt>
      <trkpt lat="45.90118" lon="4.79967">
        <ele>167.699996948</ele>
        <time>2015-11-11T09:44:10.982Z</time>
      </trkpt>
      <trkpt lat="45.90112" lon="4.7997">
        <ele>167.5</ele>
        <time>2015-11-11T09:44:12.085Z</time>
      </trkpt>
      <trkpt lat="45.90107" lon="4.79972">
        <ele>167.399993896</ele>
        <time>2015-11-11T09:44:12.981Z</time>
      </trkpt>
      <trkpt lat="45.90101" lon="4.79975">
        <ele>167.300003052</ele>
        <time>2015-11-11T09:44:13.995Z</time>
      </trkpt>
      <trkpt lat="45.90095" lon="4.79977">
        <ele>167.5</ele>
        <time>2015-11-11T09:44:14.984Z</time>
      </trkpt>
      <trkpt lat="45.9009" lon="4.7998">
        <ele>167.399993896</ele>
        <time>2015-11-11T09:44:15.995Z</time>
      </trkpt>
      <trkpt lat="45.90084" lon="4.79983">
        <ele>167.399993896</ele>
        <time>2015-11-11T09:44:16.982Z</time>
      </trkpt>
      <trkpt lat="45.90078" lon="4.79986">
        <ele>167.300003052</ele>
        <time>2015-11-11T09:44:17.995Z</time>
      </trkpt>
      <trkpt lat="45.90072" lon="4.79988">
        <ele>167.199996948</ele>
        <time>2015-11-11T09:44:18.981Z</time>
      </trkpt>
      <trkpt lat="45.90067" lon="4.7999">
        <ele>167.100006104</ele>
        <time>2015-11-11T09:44:20.009Z</time>
      </trkpt>
      <trkpt lat="45.90061" lon="4.79993">
        <ele>167.199996948</ele>
        <time>2015-11-11T09:44:20.984Z</time>
      </trkpt>
      <trkpt lat="45.90055" lon="4.79995">
        <ele>167.100006104</ele>
        <time>2015-11-11T09:44:21.995Z</time>
      </trkpt>
      <trkpt lat="45.9005" lon="4.79997">
        <ele>167.100006104</ele>
        <time>2015-11-11T09:44:22.982Z</time>
      </trkpt>
      <trkpt lat="45.90044" lon="4.79999">
        <ele>167.300003052</ele>
        <time>2015-11-11T09:44:23.995Z</time>
      </trkpt>
      <trkpt lat="45.90038" lon="4.80002">
        <ele>167.5</ele>
        <time>2015-11-11T09:44:24.98Z</time>
      </trkpt>
      <trkpt lat="45.90032" lon="4.80004">
        <ele>167.800003052</ele>
        <time>2015-11-11T09:44:25.994Z</time>
      </trkpt>
      <trkpt lat="45.90026" lon="4.80006">
        <ele>168.100006104</ele>
        <time>2015-11-11T09:44:26.984Z</time>
      </trkpt>
      <trkpt lat="45.90021" lon="4.80009">
        <ele>168</ele>
        <time>2015-11-11T09:44:27.997Z</time>
      </trkpt>
      <trkpt lat="45.90015" lon="4.80011">
        <ele>167.899993896</ele>
        <time>2015-11-11T09:44:28.982Z</time>
      </trkpt>
      <trkpt lat="45.90009" lon="4.80014">
        <ele>167.899993896</ele>
        <time>2015-11-11T09:44:29.995Z</time>
      </trkpt>
      <trkpt lat="45.90003" lon="4.80016">
        <ele>168</ele>
        <time>2015-11-11T09:44:30.981Z</time>
      </trkpt>
      <trkpt lat="45.89998" lon="4.80019">
        <ele>167.800003052</ele>
        <time>2015-11-11T09:44:31.995Z</time>
      </trkpt>
      <trkpt lat="45.89992" lon="4.80021">
        <ele>168.100006104</ele>
        <time>2015-11-11T09:44:32.984Z</time>
      </trkpt>
      <trkpt lat="45.89987" lon="4.80023">
        <ele>168.300003052</ele>
        <time>2015-11-11T09:44:33.995Z</time>
      </trkpt>
      <trkpt lat="45.89981" lon="4.80025">
        <ele>168.300003052</ele>
        <time>2015-11-11T09:44:34.982Z</time>
      </trkpt>
      <trkpt lat="45.89976" lon="4.80027">
        <ele>168.199996948</ele>
        <time>2015-11-11T09:44:36.007Z</time>
      </trkpt>
      <trkpt lat="45.8997" lon="4.80029">
        <ele>168.5</ele>
        <time>2015-11-11T09:44:36.981Z</time>
      </trkpt>
      <trkpt lat="45.89964" lon="4.80032">
        <ele>168.300003052</ele>
        <time>2015-11-11T09:44:37.995Z</time>
      </trkpt>
      <trkpt lat="45.89959" lon="4.80035">
        <ele>168</ele>
        <time>2015-11-11T09:44:38.984Z</time>
      </trkpt>
      <trkpt lat="45.89953" lon="4.80037">
        <ele>167.899993896</ele>
        <time>2015-11-11T09:44:39.997Z</time>
      </trkpt>
      <trkpt lat="45.89947" lon="4.8004">
        <ele>167.800003052</ele>
        <time>2015-11-11T09:44:40.982Z</time>
      </trkpt>
      <trkpt lat="45.89941" lon="4.80042">
        <ele>167.699996948</ele>
        <time>2015-11-11T09:44:41.995Z</time>
      </trkpt>
      <trkpt lat="45.89935" lon="4.80045">
        <ele>167.699996948</ele>
        <time>2015-11-11T09:44:42.981Z</time>
      </trkpt>
      <trkpt lat="45.89929" lon="4.80047">
        <ele>167.600006104</ele>
        <time>2015-11-11T09:44:43.995Z</time>
      </trkpt>
      <trkpt lat="45.89923" lon="4.8005">
        <ele>167.5</ele>
        <time>2015-11-11T09:44:44.984Z</time>
      </trkpt>
      <trkpt lat="45.89917" lon="4.80052">
        <ele>167.399993896</ele>
        <time>2015-11-11T09:44:45.995Z</time>
      </trkpt>
      <trkpt lat="45.8991" lon="4.80055">
        <ele>167.399993896</ele>
        <time>2015-11-11T09:44:46.982Z</time>
      </trkpt>
      <trkpt lat="45.89904" lon="4.80057">
        <ele>167.300003052</ele>
        <time>2015-11-11T09:44:47.995Z</time>
      </trkpt>
      <trkpt lat="45.89898" lon="4.8006">
        <ele>167.199996948</ele>
        <time>2015-11-11T09:44:48.98Z</time>
      </trkpt>
      <trkpt lat="45.89892" lon="4.80063">
        <ele>167.100006104</ele>
        <time>2015-11-11T09:44:49.995Z</time>
      </trkpt>
      <trkpt lat="45.89886" lon="4.80066">
        <ele>166.899993896</ele>
        <time>2015-11-11T09:44:50.985Z</time>
      </trkpt>
      <trkpt lat="45.89879" lon="4.80069">
        <ele>166.600006104</ele>
        <time>2015-11-11T09:44:52.008Z</time>
      </trkpt>
      <trkpt lat="45.89873" lon="4.80071">
        <ele>166.5</ele>
        <time>2015-11-11T09:44:52.982Z</time>
      </trkpt>
      <trkpt lat="45.89867" lon="4.80074">
        <ele>166.399993896</ele>
        <time>2015-11-11T09:44:53.997Z</time>
      </trkpt>
      <trkpt lat="45.89861" lon="4.80077">
        <ele>166.399993896</ele>
        <time>2015-11-11T09:44:54.98Z</time>
      </trkpt>
      <trkpt lat="45.89855" lon="4.80079">
        <ele>166.300003052</ele>
        <time>2015-11-11T09:44:55.994Z</time>
      </trkpt>
      <trkpt lat="45.8985" lon="4.80082">
        <ele>166.199996948</ele>
        <time>2015-11-11T09:44:56.985Z</time>
      </trkpt>
      <trkpt lat="45.89844" lon="4.80084">
        <ele>166.300003052</ele>
        <time>2015-11-11T09:44:57.995Z</time>
      </trkpt>
      <trkpt lat="45.89839" lon="4.80087">
        <ele>166</ele>
        <time>2015-11-11T09:44:58.982Z</time>
      </trkpt>
      <trkpt lat="45.89833" lon="4.8009">
        <ele>165.899993896</ele>
        <time>2015-11-11T09:44:59.995Z</time>
      </trkpt>
      <trkpt lat="45.89827" lon="4.80092">
        <ele>166</ele>
        <time>2015-11-11T09:45:00.981Z</time>
      </trkpt>
      <trkpt lat="45.89821" lon="4.80094">
        <ele>166</ele>
        <time>2015-11-11T09:45:01.995Z</time>
      </trkpt>
      <trkpt lat="45.89815" lon="4.80097">
        <ele>165.800003052</ele>
        <time>2015-11-11T09:45:02.984Z</time>
      </trkpt>
      <trkpt lat="45.8981" lon="4.801">
        <ele>165.800003052</ele>
        <time>2015-11-11T09:45:03.995Z</time>
      </trkpt>
      <trkpt lat="45.89804" lon="4.80102">
        <ele>165.699996948</ele>
        <time>2015-11-11T09:45:04.982Z</time>
      </trkpt>
      <trkpt lat="45.89798" lon="4.80105">
        <ele>166</ele>
        <time>2015-11-11T09:45:05.995Z</time>
      </trkpt>
      <trkpt lat="45.89792" lon="4.80108">
        <ele>166.399993896</ele>
        <time>2015-11-11T09:45:07.016Z</time>
      </trkpt>
      <trkpt lat="45.89787" lon="4.8011">
        <ele>166.300003052</ele>
        <time>2015-11-11T09:45:08.008Z</time>
      </trkpt>
      <trkpt lat="45.89781" lon="4.80112">
        <ele>166.399993896</ele>
        <time>2015-11-11T09:45:08.984Z</time>
      </trkpt>
      <trkpt lat="45.89776" lon="4.80114">
        <ele>166.800003052</ele>
        <time>2015-11-11T09:45:09.994Z</time>
      </trkpt>
      <trkpt lat="45.8977" lon="4.80117">
        <ele>166.899993896</ele>
        <time>2015-11-11T09:45:10.982Z</time>
      </trkpt>
      <trkpt lat="45.89765" lon="4.80119">
        <ele>166.800003052</ele>
        <time>2015-11-11T09:45:11.994Z</time>
      </trkpt>
      <trkpt lat="45.89759" lon="4.80122">
        <ele>166.699996948</ele>
        <time>2015-11-11T09:45:12.981Z</time>
      </trkpt>
      <trkpt lat="45.89754" lon="4.80124">
        <ele>166.300003052</ele>
        <time>2015-11-11T09:45:13.995Z</time>
      </trkpt>
      <trkpt lat="45.89748" lon="4.80127">
        <ele>166.100006104</ele>
        <time>2015-11-11T09:45:14.984Z</time>
      </trkpt>
      <trkpt lat="45.89742" lon="4.8013">
        <ele>166.100006104</ele>
        <time>2015-11-11T09:45:15.995Z</time>
      </trkpt>
      <trkpt lat="45.89737" lon="4.80132">
        <ele>166.199996948</ele>
        <time>2015-11-11T09:45:16.982Z</time>
      </trkpt>
      <trkpt lat="45.89731" lon="4.80134">
        <ele>166.699996948</ele>
        <time>2015-11-11T09:45:17.995Z</time>
      </trkpt>
      <trkpt lat="45.89725" lon="4.80136">
        <ele>166.699996948</ele>
        <time>2015-11-11T09:45:18.981Z</time>
      </trkpt>
      <trkpt lat="45.8972" lon="4.80139">
        <ele>167</ele>
        <time>2015-11-11T09:45:19.997Z</time>
      </trkpt>
      <trkpt lat="45.89715" lon="4.80141">
        <ele>167.199996948</ele>
        <time>2015-11-11T09:45:20.984Z</time>
      </trkpt>
      <trkpt lat="45.8971" lon="4.80144">
        <ele>167.199996948</ele>
        <time>2015-11-11T09:45:22.004Z</time>
      </trkpt>
      <trkpt lat="45.89705" lon="4.80147">
        <ele>167.199996948</ele>
        <time>2015-11-11T09:45:22.983Z</time>
      </trkpt>
      <trkpt lat="45.89701" lon="4.80149">
        <ele>167.399993896</ele>
        <time>2015-11-11T09:45:24.017Z</time>
      </trkpt>
      <trkpt lat="45.89696" lon="4.80151">
        <ele>167.5</ele>
        <time>2015-11-11T09:45:24.981Z</time>
      </trkpt>
      <trkpt lat="45.89688" lon="4.80155">
        <ele>167.800003052</ele>
        <time>2015-11-11T09:45:26.998Z</time>
      </trkpt>
      <trkpt lat="45.89685" lon="4.80157">
        <ele>168</ele>
        <time>2015-11-11T09:45:27.981Z</time>
      </trkpt>
      <trkpt lat="45.89677" lon="4.80161">
        <ele>168.399993896</ele>
        <time>2015-11-11T09:45:29.995Z</time>
      </trkpt>
      <trkpt lat="45.89673" lon="4.80163">
        <ele>168.600006104</ele>
        <time>2015-11-11T09:45:30.981Z</time>
      </trkpt>
      <trkpt lat="45.89669" lon="4.80165">
        <ele>169</ele>
        <time>2015-11-11T09:45:31.995Z</time>
      </trkpt>
      <trkpt lat="45.89664" lon="4.80167">
        <ele>169.100006104</ele>
        <time>2015-11-11T09:45:32.984Z</time>
      </trkpt>
      <trkpt lat="45.89658" lon="4.80169">
        <ele>168.899993896</ele>
        <time>2015-11-11T09:45:33.998Z</time>
      </trkpt>
      <trkpt lat="45.89653" lon="4.80171">
        <ele>169.199996948</ele>
        <time>2015-11-11T09:45:34.995Z</time>
      </trkpt>
      <trkpt lat="45.89647" lon="4.80173">
        <ele>169</ele>
        <time>2015-11-11T09:45:35.995Z</time>
      </trkpt>
      <trkpt lat="45.89641" lon="4.80175">
        <ele>168.800003052</ele>
        <time>2015-11-11T09:45:36.999Z</time>
      </trkpt>
      <trkpt lat="45.89636" lon="4.80178">
        <ele>169.199996948</ele>
        <time>2015-11-11T09:45:38.007Z</time>
      </trkpt>
      <trkpt lat="45.89631" lon="4.8018">
        <ele>169.600006104</ele>
        <time>2015-11-11T09:45:39.008Z</time>
      </trkpt>
      <trkpt lat="45.89626" lon="4.80182">
        <ele>170.199996948</ele>
        <time>2015-11-11T09:45:40.088Z</time>
      </trkpt>
      <trkpt lat="45.89621" lon="4.80185">
        <ele>170.399993896</ele>
        <time>2015-11-11T09:45:40.985Z</time>
      </trkpt>
      <trkpt lat="45.89615" lon="4.80187">
        <ele>171.199996948</ele>
        <time>2015-11-11T09:45:42.002Z</time>
      </trkpt>
      <trkpt lat="45.89609" lon="4.80188">
        <ele>171.600006104</ele>
        <time>2015-11-11T09:45:42.988Z</time>
      </trkpt>
      <trkpt lat="45.89602" lon="4.80191">
        <ele>171.699996948</ele>
        <time>2015-11-11T09:45:43.994Z</time>
      </trkpt>
      <trkpt lat="45.89594" lon="4.80194">
        <ele>171.199996948</ele>
        <time>2015-11-11T09:45:44.984Z</time>
      </trkpt>
      <trkpt lat="45.89588" lon="4.80195">
        <ele>171.300003052</ele>
        <time>2015-11-11T09:45:45.997Z</time>
      </trkpt>
      <trkpt lat="45.89582" lon="4.80198">
        <ele>171.100006104</ele>
        <time>2015-11-11T09:45:46.982Z</time>
      </trkpt>
      <trkpt lat="45.89576" lon="4.802">
        <ele>171</ele>
        <time>2015-11-11T09:45:47.995Z</time>
      </trkpt>
      <trkpt lat="45.89571" lon="4.80203">
        <ele>170.800003052</ele>
        <time>2015-11-11T09:45:48.98Z</time>
      </trkpt>
      <trkpt lat="45.89565" lon="4.80204">
        <ele>171.199996948</ele>
        <time>2015-11-11T09:45:50.006Z</time>
      </trkpt>
      <trkpt lat="45.89559" lon="4.80207">
        <ele>171.100006104</ele>
        <time>2015-11-11T09:45:50.998Z</time>
      </trkpt>
      <trkpt lat="45.89553" lon="4.80208">
        <ele>170.699996948</ele>
        <time>2015-11-11T09:45:51.994Z</time>
      </trkpt>
      <trkpt lat="45.89547" lon="4.80211">
        <ele>170.600006104</ele>
        <time>2015-11-11T09:45:52.982Z</time>
      </trkpt>
      <trkpt lat="45.89541" lon="4.80214">
        <ele>170.399993896</ele>
        <time>2015-11-11T09:45:53.994Z</time>
      </trkpt>
      <trkpt lat="45.89535" lon="4.80216">
        <ele>170.899993896</ele>
        <time>2015-11-11T09:45:54.981Z</time>
      </trkpt>
      <trkpt lat="45.89529" lon="4.80219">
        <ele>171.100006104</ele>
        <time>2015-11-11T09:45:55.995Z</time>
      </trkpt>
      <trkpt lat="45.89524" lon="4.80222">
        <ele>170.600006104</ele>
        <time>2015-11-11T09:45:56.984Z</time>
      </trkpt>
      <trkpt lat="45.89518" lon="4.80224">
        <ele>170.300003052</ele>
        <time>2015-11-11T09:45:57.995Z</time>
      </trkpt>
      <trkpt lat="45.89513" lon="4.80226">
        <ele>170.100006104</ele>
        <time>2015-11-11T09:45:58.982Z</time>
      </trkpt>
      <trkpt lat="45.89507" lon="4.80229">
        <ele>170.199996948</ele>
        <time>2015-11-11T09:45:59.995Z</time>
      </trkpt>
      <trkpt lat="45.89502" lon="4.80231">
        <ele>170.300003052</ele>
        <time>2015-11-11T09:46:00.981Z</time>
      </trkpt>
      <trkpt lat="45.89496" lon="4.80234">
        <ele>170.399993896</ele>
        <time>2015-11-11T09:46:02.009Z</time>
      </trkpt>
      <trkpt lat="45.89492" lon="4.80236">
        <ele>170.600006104</ele>
        <time>2015-11-11T09:46:02.984Z</time>
      </trkpt>
      <trkpt lat="45.89486" lon="4.80238">
        <ele>170.699996948</ele>
        <time>2015-11-11T09:46:03.995Z</time>
      </trkpt>
      <trkpt lat="45.89481" lon="4.80241">
        <ele>171</ele>
        <time>2015-11-11T09:46:04.982Z</time>
      </trkpt>
      <trkpt lat="45.89475" lon="4.80244">
        <ele>171.199996948</ele>
        <time>2015-11-11T09:46:05.995Z</time>
      </trkpt>
      <trkpt lat="45.8947" lon="4.80246">
        <ele>170.899993896</ele>
        <time>2015-11-11T09:46:06.98Z</time>
      </trkpt>
      <trkpt lat="45.89464" lon="4.80248">
        <ele>171.199996948</ele>
        <time>2015-11-11T09:46:07.995Z</time>
      </trkpt>
      <trkpt lat="45.89459" lon="4.80251">
        <ele>171.5</ele>
        <time>2015-11-11T09:46:08.984Z</time>
      </trkpt>
      <trkpt lat="45.89453" lon="4.80253">
        <ele>171.699996948</ele>
        <time>2015-11-11T09:46:09.995Z</time>
      </trkpt>
      <trkpt lat="45.89447" lon="4.80256">
        <ele>171.699996948</ele>
        <time>2015-11-11T09:46:10.982Z</time>
      </trkpt>
      <trkpt lat="45.89441" lon="4.80258">
        <ele>171.5</ele>
        <time>2015-11-11T09:46:11.997Z</time>
      </trkpt>
      <trkpt lat="45.89436" lon="4.80261">
        <ele>171.699996948</ele>
        <time>2015-11-11T09:46:12.981Z</time>
      </trkpt>
      <trkpt lat="45.8943" lon="4.80263">
        <ele>171.699996948</ele>
        <time>2015-11-11T09:46:13.995Z</time>
      </trkpt>
      <trkpt lat="45.89423" lon="4.80266">
        <ele>171.300003052</ele>
        <time>2015-11-11T09:46:14.984Z</time>
      </trkpt>
      <trkpt lat="45.89417" lon="4.8027">
        <ele>170.600006104</ele>
        <time>2015-11-11T09:46:15.995Z</time>
      </trkpt>
      <trkpt lat="45.8941" lon="4.80273">
        <ele>170.399993896</ele>
        <time>2015-11-11T09:46:16.982Z</time>
      </trkpt>
      <trkpt lat="45.89405" lon="4.80277">
        <ele>170.100006104</ele>
        <time>2015-11-11T09:46:18.009Z</time>
      </trkpt>
      <trkpt lat="45.894" lon="4.80281">
        <ele>169.899993896</ele>
        <time>2015-11-11T09:46:18.98Z</time>
      </trkpt>
      <trkpt lat="45.89394" lon="4.80285">
        <ele>170.399993896</ele>
        <time>2015-11-11T09:46:19.995Z</time>
      </trkpt>
      <trkpt lat="45.89389" lon="4.80289">
        <ele>170.300003052</ele>
        <time>2015-11-11T09:46:20.984Z</time>
      </trkpt>
      <trkpt lat="45.89384" lon="4.80293">
        <ele>170.199996948</ele>
        <time>2015-11-11T09:46:21.995Z</time>
      </trkpt>
      <trkpt lat="45.89378" lon="4.80297">
        <ele>170.199996948</ele>
        <time>2015-11-11T09:46:22.982Z</time>
      </trkpt>
      <trkpt lat="45.89373" lon="4.80301">
        <ele>170.300003052</ele>
        <time>2015-11-11T09:46:23.995Z</time>
      </trkpt>
      <trkpt lat="45.89368" lon="4.80305">
        <ele>170.100006104</ele>
        <time>2015-11-11T09:46:24.98Z</time>
      </trkpt>
      <trkpt lat="45.89362" lon="4.80309">
        <ele>169.800003052</ele>
        <time>2015-11-11T09:46:25.995Z</time>
      </trkpt>
      <trkpt lat="45.89357" lon="4.80313">
        <ele>169.800003052</ele>
        <time>2015-11-11T09:46:26.984Z</time>
      </trkpt>
      <trkpt lat="45.89352" lon="4.80317">
        <ele>169.699996948</ele>
        <time>2015-11-11T09:46:27.995Z</time>
      </trkpt>
      <trkpt lat="45.89347" lon="4.80322">
        <ele>169.699996948</ele>
        <time>2015-11-11T09:46:28.995Z</time>
      </trkpt>
      <trkpt lat="45.89342" lon="4.80327">
        <ele>169.600006104</ele>
        <time>2015-11-11T09:46:29.995Z</time>
      </trkpt>
      <trkpt lat="45.89336" lon="4.80331">
        <ele>169.699996948</ele>
        <time>2015-11-11T09:46:30.98Z</time>
      </trkpt>
      <trkpt lat="45.89331" lon="4.80336">
        <ele>169.899993896</ele>
        <time>2015-11-11T09:46:32.102Z</time>
      </trkpt>
      <trkpt lat="45.89326" lon="4.8034">
        <ele>169.600006104</ele>
        <time>2015-11-11T09:46:32.985Z</time>
      </trkpt>
      <trkpt lat="45.89321" lon="4.80345">
        <ele>169.699996948</ele>
        <time>2015-11-11T09:46:33.994Z</time>
      </trkpt>
      <trkpt lat="45.89317" lon="4.80349">
        <ele>170.199996948</ele>
        <time>2015-11-11T09:46:34.982Z</time>
      </trkpt>
      <trkpt lat="45.89312" lon="4.80354">
        <ele>170.5</ele>
        <time>2015-11-11T09:46:35.995Z</time>
      </trkpt>
      <trkpt lat="45.89307" lon="4.80358">
        <ele>170.699996948</ele>
        <time>2015-11-11T09:46:36.981Z</time>
      </trkpt>
      <trkpt lat="45.89302" lon="4.80363">
        <ele>171</ele>
        <time>2015-11-11T09:46:37.997Z</time>
      </trkpt>
      <trkpt lat="45.89297" lon="4.80368">
        <ele>171</ele>
        <time>2015-11-11T09:46:38.984Z</time>
      </trkpt>
      <trkpt lat="45.89293" lon="4.80373">
        <ele>171</ele>
        <time>2015-11-11T09:46:40.012Z</time>
      </trkpt>
      <trkpt lat="45.89288" lon="4.80377">
        <ele>171</ele>
        <time>2015-11-11T09:46:40.982Z</time>
      </trkpt>
      <trkpt lat="45.89283" lon="4.80382">
        <ele>170.899993896</ele>
        <time>2015-11-11T09:46:41.995Z</time>
      </trkpt>
      <trkpt lat="45.89278" lon="4.80386">
        <ele>170.899993896</ele>
        <time>2015-11-11T09:46:42.98Z</time>
      </trkpt>
      <trkpt lat="45.89273" lon="4.8039">
        <ele>170.800003052</ele>
        <time>2015-11-11T09:46:43.995Z</time>
      </trkpt>
      <trkpt lat="45.89268" lon="4.80394">
        <ele>170.800003052</ele>
        <time>2015-11-11T09:46:44.984Z</time>
      </trkpt>
      <trkpt lat="45.89263" lon="4.80398">
        <ele>170.699996948</ele>
        <time>2015-11-11T09:46:45.995Z</time>
      </trkpt>
      <trkpt lat="45.89259" lon="4.80402">
        <ele>170.699996948</ele>
        <time>2015-11-11T09:46:46.982Z</time>
      </trkpt>
      <trkpt lat="45.89254" lon="4.80406">
        <ele>170.899993896</ele>
        <time>2015-11-11T09:46:47.995Z</time>
      </trkpt>
      <trkpt lat="45.89249" lon="4.80411">
        <ele>170.899993896</ele>
        <time>2015-11-11T09:46:48.98Z</time>
      </trkpt>
      <trkpt lat="45.89245" lon="4.80416">
        <ele>170.899993896</ele>
        <time>2015-11-11T09:46:49.995Z</time>
      </trkpt>
      <trkpt lat="45.8924" lon="4.8042">
        <ele>170.699996948</ele>
        <time>2015-11-11T09:46:50.984Z</time>
      </trkpt>
      <trkpt lat="45.89235" lon="4.80424">
        <ele>170.5</ele>
        <time>2015-11-11T09:46:51.995Z</time>
      </trkpt>
      <trkpt lat="45.89231" lon="4.80428">
        <ele>170.600006104</ele>
        <time>2015-11-11T09:46:52.982Z</time>
      </trkpt>
      <trkpt lat="45.89226" lon="4.80433">
        <ele>170.5</ele>
        <time>2015-11-11T09:46:53.994Z</time>
      </trkpt>
      <trkpt lat="45.89221" lon="4.80438">
        <ele>170.199996948</ele>
        <time>2015-11-11T09:46:54.98Z</time>
      </trkpt>
      <trkpt lat="45.89216" lon="4.80442">
        <ele>170.100006104</ele>
        <time>2015-11-11T09:46:56.016Z</time>
      </trkpt>
      <trkpt lat="45.89211" lon="4.80447">
        <ele>169.699996948</ele>
        <time>2015-11-11T09:46:56.984Z</time>
      </trkpt>
      <trkpt lat="45.89206" lon="4.80451">
        <ele>169.600006104</ele>
        <time>2015-11-11T09:46:57.995Z</time>
      </trkpt>
      <trkpt lat="45.89201" lon="4.80456">
        <ele>169.5</ele>
        <time>2015-11-11T09:46:58.982Z</time>
      </trkpt>
      <trkpt lat="45.89197" lon="4.8046">
        <ele>169.699996948</ele>
        <time>2015-11-11T09:46:59.995Z</time>
      </trkpt>
      <trkpt lat="45.89192" lon="4.80464">
        <ele>169.699996948</ele>
        <time>2015-11-11T09:47:00.981Z</time>
      </trkpt>
      <trkpt lat="45.89188" lon="4.80468">
        <ele>169.800003052</ele>
        <time>2015-11-11T09:47:01.994Z</time>
      </trkpt>
      <trkpt lat="45.89183" lon="4.80472">
        <ele>169.600006104</ele>
        <time>2015-11-11T09:47:02.984Z</time>
      </trkpt>
      <trkpt lat="45.89179" lon="4.80475">
        <ele>169.199996948</ele>
        <time>2015-11-11T09:47:03.997Z</time>
      </trkpt>
      <trkpt lat="45.89175" lon="4.80479">
        <ele>169.100006104</ele>
        <time>2015-11-11T09:47:04.983Z</time>
      </trkpt>
      <trkpt lat="45.8917" lon="4.80482">
        <ele>169.100006104</ele>
        <time>2015-11-11T09:47:05.995Z</time>
      </trkpt>
      <trkpt lat="45.89165" lon="4.80486">
        <ele>169.199996948</ele>
        <time>2015-11-11T09:47:06.993Z</time>
      </trkpt>
      <trkpt lat="45.89161" lon="4.80489">
        <ele>169.100006104</ele>
        <time>2015-11-11T09:47:07.995Z</time>
      </trkpt>
      <trkpt lat="45.89156" lon="4.80492">
        <ele>169.100006104</ele>
        <time>2015-11-11T09:47:08.984Z</time>
      </trkpt>
      <trkpt lat="45.89151" lon="4.80495">
        <ele>168.899993896</ele>
        <time>2015-11-11T09:47:09.995Z</time>
      </trkpt>
      <trkpt lat="45.89145" lon="4.80498">
        <ele>168.600006104</ele>
        <time>2015-11-11T09:47:10.982Z</time>
      </trkpt>
      <trkpt lat="45.8914" lon="4.805">
        <ele>168.5</ele>
        <time>2015-11-11T09:47:11.995Z</time>
      </trkpt>
      <trkpt lat="45.89135" lon="4.80504">
        <ele>168.300003052</ele>
        <time>2015-11-11T09:47:12.98Z</time>
      </trkpt>
      <trkpt lat="45.8913" lon="4.80506">
        <ele>168</ele>
        <time>2015-11-11T09:47:13.995Z</time>
      </trkpt>
      <trkpt lat="45.89125" lon="4.80508">
        <ele>168.100006104</ele>
        <time>2015-11-11T09:47:14.984Z</time>
      </trkpt>
      <trkpt lat="45.89121" lon="4.8051">
        <ele>167.800003052</ele>
        <time>2015-11-11T09:47:15.994Z</time>
      </trkpt>
      <trkpt lat="45.89116" lon="4.80512">
        <ele>167.600006104</ele>
        <time>2015-11-11T09:47:16.982Z</time>
      </trkpt>
      <trkpt lat="45.89111" lon="4.80514">
        <ele>167.600006104</ele>
        <time>2015-11-11T09:47:17.994Z</time>
      </trkpt>
      <trkpt lat="45.89106" lon="4.80516">
        <ele>167.699996948</ele>
        <time>2015-11-11T09:47:18.98Z</time>
      </trkpt>
      <trkpt lat="45.891" lon="4.80518">
        <ele>167.800003052</ele>
        <time>2015-11-11T09:47:19.995Z</time>
      </trkpt>
      <trkpt lat="45.89095" lon="4.80521">
        <ele>167.5</ele>
        <time>2015-11-11T09:47:20.984Z</time>
      </trkpt>
      <trkpt lat="45.89089" lon="4.80523">
        <ele>167.199996948</ele>
        <time>2015-11-11T09:47:21.995Z</time>
      </trkpt>
      <trkpt lat="45.89084" lon="4.80525">
        <ele>167.199996948</ele>
        <time>2015-11-11T09:47:22.995Z</time>
      </trkpt>
      <trkpt lat="45.89078" lon="4.80527">
        <ele>167.300003052</ele>
        <time>2015-11-11T09:47:23.995Z</time>
      </trkpt>
      <trkpt lat="45.89073" lon="4.80529">
        <ele>167.399993896</ele>
        <time>2015-11-11T09:47:24.98Z</time>
      </trkpt>
      <trkpt lat="45.89068" lon="4.80531">
        <ele>167.399993896</ele>
        <time>2015-11-11T09:47:25.994Z</time>
      </trkpt>
      <trkpt lat="45.89063" lon="4.80533">
        <ele>167.600006104</ele>
        <time>2015-11-11T09:47:26.984Z</time>
      </trkpt>
      <trkpt lat="45.89058" lon="4.80535">
        <ele>167.5</ele>
        <time>2015-11-11T09:47:27.995Z</time>
      </trkpt>
      <trkpt lat="45.89053" lon="4.80537">
        <ele>167.5</ele>
        <time>2015-11-11T09:47:28.981Z</time>
      </trkpt>
      <trkpt lat="45.89048" lon="4.80539">
        <ele>167.5</ele>
        <time>2015-11-11T09:47:30.107Z</time>
      </trkpt>
      <trkpt lat="45.89043" lon="4.80541">
        <ele>167.699996948</ele>
        <time>2015-11-11T09:47:30.981Z</time>
      </trkpt>
      <trkpt lat="45.89038" lon="4.80543">
        <ele>167.600006104</ele>
        <time>2015-11-11T09:47:31.995Z</time>
      </trkpt>
      <trkpt lat="45.89033" lon="4.80545">
        <ele>167.699996948</ele>
        <time>2015-11-11T09:47:32.984Z</time>
      </trkpt>
      <trkpt lat="45.89028" lon="4.80548">
        <ele>167.699996948</ele>
        <time>2015-11-11T09:47:34.009Z</time>
      </trkpt>
      <trkpt lat="45.89023" lon="4.8055">
        <ele>167.800003052</ele>
        <time>2015-11-11T09:47:34.983Z</time>
      </trkpt>
      <trkpt lat="45.89018" lon="4.80552">
        <ele>167.899993896</ele>
        <time>2015-11-11T09:47:35.997Z</time>
      </trkpt>
      <trkpt lat="45.89013" lon="4.80554">
        <ele>167.899993896</ele>
        <time>2015-11-11T09:47:36.982Z</time>
      </trkpt>
      <trkpt lat="45.89007" lon="4.80555">
        <ele>167.899993896</ele>
        <time>2015-11-11T09:47:38.006Z</time>
      </trkpt>
      <trkpt lat="45.89002" lon="4.80557">
        <ele>167.899993896</ele>
        <time>2015-11-11T09:47:38.986Z</time>
      </trkpt>
      <trkpt lat="45.88996" lon="4.80558">
        <ele>168</ele>
        <time>2015-11-11T09:47:40.002Z</time>
      </trkpt>
      <trkpt lat="45.88991" lon="4.8056">
        <ele>168.300003052</ele>
        <time>2015-11-11T09:47:40.981Z</time>
      </trkpt>
      <trkpt lat="45.88985" lon="4.80562">
        <ele>168.699996948</ele>
        <time>2015-11-11T09:47:41.994Z</time>
      </trkpt>
      <trkpt lat="45.8898" lon="4.80563">
        <ele>168.899993896</ele>
        <time>2015-11-11T09:47:42.98Z</time>
      </trkpt>
      <trkpt lat="45.88974" lon="4.80564">
        <ele>169</ele>
        <time>2015-11-11T09:47:43.995Z</time>
      </trkpt>
      <trkpt lat="45.8897" lon="4.80565">
        <ele>169.300003052</ele>
        <time>2015-11-11T09:47:44.984Z</time>
      </trkpt>
      <trkpt lat="45.88965" lon="4.80564">
        <ele>169.300003052</ele>
        <time>2015-11-11T09:47:45.994Z</time>
      </trkpt>
      <trkpt lat="45.88961" lon="4.80564">
        <ele>169.199996948</ele>
        <time>2015-11-11T09:47:46.981Z</time>
      </trkpt>
      <trkpt lat="45.88952" lon="4.80564">
        <ele>169.800003052</ele>
        <time>2015-11-11T09:47:48.995Z</time>
      </trkpt>
      <trkpt lat="45.88947" lon="4.80564">
        <ele>169.699996948</ele>
        <time>2015-11-11T09:47:49.98Z</time>
      </trkpt>
      <trkpt lat="45.88943" lon="4.80567">
        <ele>169.800003052</ele>
        <time>2015-11-11T09:47:50.998Z</time>
      </trkpt>
      <trkpt lat="45.88939" lon="4.80571">
        <ele>169.5</ele>
        <time>2015-11-11T09:47:51.981Z</time>
      </trkpt>
      <trkpt lat="45.88935" lon="4.80577">
        <ele>169</ele>
        <time>2015-11-11T09:47:52.995Z</time>
      </trkpt>
      <trkpt lat="45.88931" lon="4.80582">
        <ele>168.800003052</ele>
        <time>2015-11-11T09:47:53.98Z</time>
      </trkpt>
      <trkpt lat="45.88927" lon="4.80587">
        <ele>168.399993896</ele>
        <time>2015-11-11T09:47:55.008Z</time>
      </trkpt>
      <trkpt lat="45.88922" lon="4.80591">
        <ele>168.300003052</ele>
        <time>2015-11-11T09:47:55.983Z</time>
      </trkpt>
      <trkpt lat="45.88917" lon="4.80595">
        <ele>168.100006104</ele>
        <time>2015-11-11T09:47:56.999Z</time>
      </trkpt>
      <trkpt lat="45.88913" lon="4.80599">
        <ele>168.399993896</ele>
        <time>2015-11-11T09:47:57.981Z</time>
      </trkpt>
      <trkpt lat="45.88908" lon="4.80603">
        <ele>168.399993896</ele>
        <time>2015-11-11T09:47:59.108Z</time>
      </trkpt>
      <trkpt lat="45.88903" lon="4.80606">
        <ele>168.5</ele>
        <time>2015-11-11T09:48:00.046Z</time>
      </trkpt>
      <trkpt lat="45.88897" lon="4.80609">
        <ele>168.600006104</ele>
        <time>2015-11-11T09:48:00.995Z</time>
      </trkpt>
      <trkpt lat="45.88892" lon="4.80613">
        <ele>168.600006104</ele>
        <time>2015-11-11T09:48:01.98Z</time>
      </trkpt>
      <trkpt lat="45.88887" lon="4.80616">
        <ele>168.600006104</ele>
        <time>2015-11-11T09:48:02.998Z</time>
      </trkpt>
      <trkpt lat="45.88882" lon="4.80619">
        <ele>168.5</ele>
        <time>2015-11-11T09:48:03.98Z</time>
      </trkpt>
      <trkpt lat="45.88877" lon="4.80622">
        <ele>168.600006104</ele>
        <time>2015-11-11T09:48:04.996Z</time>
      </trkpt>
      <trkpt lat="45.88872" lon="4.80626">
        <ele>168.699996948</ele>
        <time>2015-11-11T09:48:05.98Z</time>
      </trkpt>
      <trkpt lat="45.88867" lon="4.8063">
        <ele>168.300003052</ele>
        <time>2015-11-11T09:48:06.996Z</time>
      </trkpt>
      <trkpt lat="45.88863" lon="4.80633">
        <ele>168.199996948</ele>
        <time>2015-11-11T09:48:07.98Z</time>
      </trkpt>
      <trkpt lat="45.88858" lon="4.80637">
        <ele>168.100006104</ele>
        <time>2015-11-11T09:48:08.999Z</time>
      </trkpt>
      <trkpt lat="45.88853" lon="4.80641">
        <ele>168.300003052</ele>
        <time>2015-11-11T09:48:09.98Z</time>
      </trkpt>
      <trkpt lat="45.88848" lon="4.80645">
        <ele>168.300003052</ele>
        <time>2015-11-11T09:48:11.01Z</time>
      </trkpt>
      <trkpt lat="45.88843" lon="4.80649">
        <ele>168.399993896</ele>
        <time>2015-11-11T09:48:11.98Z</time>
      </trkpt>
      <trkpt lat="45.88839" lon="4.80653">
        <ele>168.5</ele>
        <time>2015-11-11T09:48:12.994Z</time>
      </trkpt>
      <trkpt lat="45.88834" lon="4.80657">
        <ele>168.600006104</ele>
        <time>2015-11-11T09:48:13.98Z</time>
      </trkpt>
      <trkpt lat="45.88829" lon="4.80662">
        <ele>168.399993896</ele>
        <time>2015-11-11T09:48:14.998Z</time>
      </trkpt>
      <trkpt lat="45.88824" lon="4.80667">
        <ele>168.199996948</ele>
        <time>2015-11-11T09:48:15.98Z</time>
      </trkpt>
      <trkpt lat="45.88819" lon="4.80672">
        <ele>168.100006104</ele>
        <time>2015-11-11T09:48:16.995Z</time>
      </trkpt>
      <trkpt lat="45.88814" lon="4.80677">
        <ele>167.899993896</ele>
        <time>2015-11-11T09:48:17.98Z</time>
      </trkpt>
      <trkpt lat="45.88808" lon="4.80682">
        <ele>168.199996948</ele>
        <time>2015-11-11T09:48:18.995Z</time>
      </trkpt>
      <trkpt lat="45.88803" lon="4.80687">
        <ele>168.5</ele>
        <time>2015-11-11T09:48:19.98Z</time>
      </trkpt>
      <trkpt lat="45.88797" lon="4.80692">
        <ele>168.300003052</ele>
        <time>2015-11-11T09:48:20.998Z</time>
      </trkpt>
      <trkpt lat="45.88792" lon="4.80697">
        <ele>168.100006104</ele>
        <time>2015-11-11T09:48:21.98Z</time>
      </trkpt>
      <trkpt lat="45.88788" lon="4.80703">
        <ele>168.100006104</ele>
        <time>2015-11-11T09:48:22.995Z</time>
      </trkpt>
      <trkpt lat="45.88783" lon="4.80709">
        <ele>168.100006104</ele>
        <time>2015-11-11T09:48:23.98Z</time>
      </trkpt>
      <trkpt lat="45.88778" lon="4.80714">
        <ele>168.199996948</ele>
        <time>2015-11-11T09:48:24.994Z</time>
      </trkpt>
      <trkpt lat="45.88774" lon="4.8072">
        <ele>168.100006104</ele>
        <time>2015-11-11T09:48:25.98Z</time>
      </trkpt>
      <trkpt lat="45.88769" lon="4.80725">
        <ele>168.300003052</ele>
        <time>2015-11-11T09:48:27.012Z</time>
      </trkpt>
      <trkpt lat="45.88764" lon="4.8073">
        <ele>168.199996948</ele>
        <time>2015-11-11T09:48:27.98Z</time>
      </trkpt>
      <trkpt lat="45.8876" lon="4.80735">
        <ele>168.100006104</ele>
        <time>2015-11-11T09:48:28.996Z</time>
      </trkpt>
      <trkpt lat="45.88755" lon="4.8074">
        <ele>168</ele>
        <time>2015-11-11T09:48:29.98Z</time>
      </trkpt>
      <trkpt lat="45.8875" lon="4.80745">
        <ele>167.800003052</ele>
        <time>2015-11-11T09:48:30.994Z</time>
      </trkpt>
      <trkpt lat="45.88745" lon="4.8075">
        <ele>167.800003052</ele>
        <time>2015-11-11T09:48:31.98Z</time>
      </trkpt>
      <trkpt lat="45.88741" lon="4.80755">
        <ele>167.5</ele>
        <time>2015-11-11T09:48:33.001Z</time>
      </trkpt>
      <trkpt lat="45.88736" lon="4.8076">
        <ele>167.5</ele>
        <time>2015-11-11T09:48:33.981Z</time>
      </trkpt>
      <trkpt lat="45.88732" lon="4.80765">
        <ele>167.300003052</ele>
        <time>2015-11-11T09:48:34.995Z</time>
      </trkpt>
      <trkpt lat="45.88728" lon="4.8077">
        <ele>167.300003052</ele>
        <time>2015-11-11T09:48:35.98Z</time>
      </trkpt>
      <trkpt lat="45.88723" lon="4.80775">
        <ele>167.399993896</ele>
        <time>2015-11-11T09:48:36.995Z</time>
      </trkpt>
      <trkpt lat="45.88719" lon="4.8078">
        <ele>167.300003052</ele>
        <time>2015-11-11T09:48:37.981Z</time>
      </trkpt>
      <trkpt lat="45.88714" lon="4.80785">
        <ele>167.199996948</ele>
        <time>2015-11-11T09:48:38.998Z</time>
      </trkpt>
      <trkpt lat="45.8871" lon="4.8079">
        <ele>167.100006104</ele>
        <time>2015-11-11T09:48:39.983Z</time>
      </trkpt>
      <trkpt lat="45.88705" lon="4.80795">
        <ele>166.899993896</ele>
        <time>2015-11-11T09:48:40.995Z</time>
      </trkpt>
      <trkpt lat="45.88701" lon="4.808">
        <ele>166.800003052</ele>
        <time>2015-11-11T09:48:41.98Z</time>
      </trkpt>
      <trkpt lat="45.88696" lon="4.80804">
        <ele>166.800003052</ele>
        <time>2015-11-11T09:48:43.013Z</time>
      </trkpt>
      <trkpt lat="45.88691" lon="4.80809">
        <ele>167</ele>
        <time>2015-11-11T09:48:43.98Z</time>
      </trkpt>
      <trkpt lat="45.88687" lon="4.80814">
        <ele>167.199996948</ele>
        <time>2015-11-11T09:48:44.997Z</time>
      </trkpt>
      <trkpt lat="45.88682" lon="4.80818">
        <ele>167.5</ele>
        <time>2015-11-11T09:48:45.98Z</time>
      </trkpt>
      <trkpt lat="45.88678" lon="4.80823">
        <ele>167.600006104</ele>
        <time>2015-11-11T09:48:46.995Z</time>
      </trkpt>
      <trkpt lat="45.88673" lon="4.80828">
        <ele>167.600006104</ele>
        <time>2015-11-11T09:48:47.981Z</time>
      </trkpt>
      <trkpt lat="45.88669" lon="4.80833">
        <ele>167.399993896</ele>
        <time>2015-11-11T09:48:48.994Z</time>
      </trkpt>
      <trkpt lat="45.88664" lon="4.80839">
        <ele>167.399993896</ele>
        <time>2015-11-11T09:48:49.98Z</time>
      </trkpt>
      <trkpt lat="45.88659" lon="4.80844">
        <ele>167.199996948</ele>
        <time>2015-11-11T09:48:50.998Z</time>
      </trkpt>
      <trkpt lat="45.88654" lon="4.8085">
        <ele>167.199996948</ele>
        <time>2015-11-11T09:48:51.98Z</time>
      </trkpt>
      <trkpt lat="45.8865" lon="4.80855">
        <ele>167.199996948</ele>
        <time>2015-11-11T09:48:52.996Z</time>
      </trkpt>
      <trkpt lat="45.88646" lon="4.8086">
        <ele>167.199996948</ele>
        <time>2015-11-11T09:48:53.98Z</time>
      </trkpt>
      <trkpt lat="45.88641" lon="4.80865">
        <ele>167.100006104</ele>
        <time>2015-11-11T09:48:54.994Z</time>
      </trkpt>
      <trkpt lat="45.88637" lon="4.80869">
        <ele>167.100006104</ele>
        <time>2015-11-11T09:48:55.98Z</time>
      </trkpt>
      <trkpt lat="45.88633" lon="4.80874">
        <ele>167</ele>
        <time>2015-11-11T09:48:56.998Z</time>
      </trkpt>
      <trkpt lat="45.88629" lon="4.80879">
        <ele>166.899993896</ele>
        <time>2015-11-11T09:48:57.98Z</time>
      </trkpt>
      <trkpt lat="45.88625" lon="4.80883">
        <ele>166.800003052</ele>
        <time>2015-11-11T09:48:59.012Z</time>
      </trkpt>
      <trkpt lat="45.8862" lon="4.80888">
        <ele>166.600006104</ele>
        <time>2015-11-11T09:48:59.98Z</time>
      </trkpt>
      <trkpt lat="45.88616" lon="4.80892">
        <ele>166.600006104</ele>
        <time>2015-11-11T09:49:00.994Z</time>
      </trkpt>
      <trkpt lat="45.88612" lon="4.80897">
        <ele>166.5</ele>
        <time>2015-11-11T09:49:01.98Z</time>
      </trkpt>
      <trkpt lat="45.88608" lon="4.80901">
        <ele>166.5</ele>
        <time>2015-11-11T09:49:02.998Z</time>
      </trkpt>
      <trkpt lat="45.88604" lon="4.80906">
        <ele>166.5</ele>
        <time>2015-11-11T09:49:03.98Z</time>
      </trkpt>
      <trkpt lat="45.886" lon="4.80911">
        <ele>166.5</ele>
        <time>2015-11-11T09:49:04.995Z</time>
      </trkpt>
      <trkpt lat="45.88595" lon="4.80916">
        <ele>166.600006104</ele>
        <time>2015-11-11T09:49:05.98Z</time>
      </trkpt>
      <trkpt lat="45.88591" lon="4.80921">
        <ele>166.699996948</ele>
        <time>2015-11-11T09:49:06.994Z</time>
      </trkpt>
      <trkpt lat="45.88586" lon="4.80926">
        <ele>166.699996948</ele>
        <time>2015-11-11T09:49:07.98Z</time>
      </trkpt>
      <trkpt lat="45.88582" lon="4.8093">
        <ele>166.600006104</ele>
        <time>2015-11-11T09:49:08.998Z</time>
      </trkpt>
      <trkpt lat="45.88577" lon="4.80936">
        <ele>166.5</ele>
        <time>2015-11-11T09:49:09.98Z</time>
      </trkpt>
      <trkpt lat="45.88573" lon="4.80941">
        <ele>166.399993896</ele>
        <time>2015-11-11T09:49:11.003Z</time>
      </trkpt>
      <trkpt lat="45.88569" lon="4.80945">
        <ele>166.399993896</ele>
        <time>2015-11-11T09:49:11.98Z</time>
      </trkpt>
      <trkpt lat="45.88565" lon="4.8095">
        <ele>166.300003052</ele>
        <time>2015-11-11T09:49:12.994Z</time>
      </trkpt>
      <trkpt lat="45.88561" lon="4.80955">
        <ele>166.300003052</ele>
        <time>2015-11-11T09:49:13.981Z</time>
      </trkpt>
      <trkpt lat="45.88557" lon="4.8096">
        <ele>166.199996948</ele>
        <time>2015-11-11T09:49:15.011Z</time>
      </trkpt>
      <trkpt lat="45.88553" lon="4.80964">
        <ele>166.199996948</ele>
        <time>2015-11-11T09:49:15.98Z</time>
      </trkpt>
      <trkpt lat="45.88549" lon="4.80969">
        <ele>166.100006104</ele>
        <time>2015-11-11T09:49:16.997Z</time>
      </trkpt>
      <trkpt lat="45.88545" lon="4.80974">
        <ele>166</ele>
        <time>2015-11-11T09:49:17.98Z</time>
      </trkpt>
      <trkpt lat="45.88541" lon="4.80979">
        <ele>166</ele>
        <time>2015-11-11T09:49:18.994Z</time>
      </trkpt>
      <trkpt lat="45.88537" lon="4.80984">
        <ele>166</ele>
        <time>2015-11-11T09:49:19.98Z</time>
      </trkpt>
      <trkpt lat="45.88533" lon="4.80989">
        <ele>166</ele>
        <time>2015-11-11T09:49:20.998Z</time>
      </trkpt>
      <trkpt lat="45.88529" lon="4.80994">
        <ele>166.100006104</ele>
        <time>2015-11-11T09:49:21.98Z</time>
      </trkpt>
      <trkpt lat="45.88525" lon="4.80999">
        <ele>166.100006104</ele>
        <time>2015-11-11T09:49:22.996Z</time>
      </trkpt>
      <trkpt lat="45.88521" lon="4.81005">
        <ele>166.199996948</ele>
        <time>2015-11-11T09:49:23.98Z</time>
      </trkpt>
      <trkpt lat="45.88517" lon="4.8101">
        <ele>166.199996948</ele>
        <time>2015-11-11T09:49:24.995Z</time>
      </trkpt>
      <trkpt lat="45.88513" lon="4.81015">
        <ele>166.199996948</ele>
        <time>2015-11-11T09:49:25.98Z</time>
      </trkpt>
      <trkpt lat="45.88509" lon="4.81021">
        <ele>166.199996948</ele>
        <time>2015-11-11T09:49:27.111Z</time>
      </trkpt>
      <trkpt lat="45.88505" lon="4.81026">
        <ele>166.199996948</ele>
        <time>2015-11-11T09:49:27.979Z</time>
      </trkpt>
      <trkpt lat="45.885" lon="4.81032">
        <ele>166.199996948</ele>
        <time>2015-11-11T09:49:28.994Z</time>
      </trkpt>
      <trkpt lat="45.88496" lon="4.81037">
        <ele>166.199996948</ele>
        <time>2015-11-11T09:49:29.979Z</time>
      </trkpt>
      <trkpt lat="45.88492" lon="4.81043">
        <ele>166.199996948</ele>
        <time>2015-11-11T09:49:31.007Z</time>
      </trkpt>
      <trkpt lat="45.88488" lon="4.81049">
        <ele>166.300003052</ele>
        <time>2015-11-11T09:49:31.979Z</time>
      </trkpt>
      <trkpt lat="45.88484" lon="4.81054">
        <ele>166.300003052</ele>
        <time>2015-11-11T09:49:32.997Z</time>
      </trkpt>
      <trkpt lat="45.8848" lon="4.8106">
        <ele>166.300003052</ele>
        <time>2015-11-11T09:49:33.979Z</time>
      </trkpt>
      <trkpt lat="45.88476" lon="4.81066">
        <ele>166.399993896</ele>
        <time>2015-11-11T09:49:34.995Z</time>
      </trkpt>
      <trkpt lat="45.88471" lon="4.81072">
        <ele>166.5</ele>
        <time>2015-11-11T09:49:35.979Z</time>
      </trkpt>
      <trkpt lat="45.88467" lon="4.81078">
        <ele>166.600006104</ele>
        <time>2015-11-11T09:49:36.994Z</time>
      </trkpt>
      <trkpt lat="45.88463" lon="4.81084">
        <ele>166.600006104</ele>
        <time>2015-11-11T09:49:37.979Z</time>
      </trkpt>
      <trkpt lat="45.8846" lon="4.81089">
        <ele>166.600006104</ele>
        <time>2015-11-11T09:49:38.997Z</time>
      </trkpt>
      <trkpt lat="45.88456" lon="4.81095">
        <ele>166.600006104</ele>
        <time>2015-11-11T09:49:39.982Z</time>
      </trkpt>
      <trkpt lat="45.88452" lon="4.811">
        <ele>166.699996948</ele>
        <time>2015-11-11T09:49:40.995Z</time>
      </trkpt>
      <trkpt lat="45.88449" lon="4.81106">
        <ele>166.699996948</ele>
        <time>2015-11-11T09:49:42.089Z</time>
      </trkpt>
      <trkpt lat="45.88445" lon="4.81111">
        <ele>166.800003052</ele>
        <time>2015-11-11T09:49:42.993Z</time>
      </trkpt>
      <trkpt lat="45.88441" lon="4.81117">
        <ele>166.800003052</ele>
        <time>2015-11-11T09:49:43.979Z</time>
      </trkpt>
      <trkpt lat="45.88437" lon="4.81122">
        <ele>166.899993896</ele>
        <time>2015-11-11T09:49:44.997Z</time>
      </trkpt>
      <trkpt lat="45.88433" lon="4.81128">
        <ele>166.899993896</ele>
        <time>2015-11-11T09:49:45.979Z</time>
      </trkpt>
      <trkpt lat="45.8843" lon="4.81134">
        <ele>166.899993896</ele>
        <time>2015-11-11T09:49:46.995Z</time>
      </trkpt>
      <trkpt lat="45.88426" lon="4.8114">
        <ele>166.899993896</ele>
        <time>2015-11-11T09:49:47.979Z</time>
      </trkpt>
      <trkpt lat="45.88422" lon="4.81146">
        <ele>167</ele>
        <time>2015-11-11T09:49:49.027Z</time>
      </trkpt>
      <trkpt lat="45.88418" lon="4.81152">
        <ele>167</ele>
        <time>2015-11-11T09:49:49.979Z</time>
      </trkpt>
      <trkpt lat="45.88414" lon="4.81158">
        <ele>167.100006104</ele>
        <time>2015-11-11T09:49:51.001Z</time>
      </trkpt>
      <trkpt lat="45.88411" lon="4.81165">
        <ele>167.100006104</ele>
        <time>2015-11-11T09:49:51.979Z</time>
      </trkpt>
      <trkpt lat="45.88406" lon="4.81171">
        <ele>167</ele>
        <time>2015-11-11T09:49:53.008Z</time>
      </trkpt>
      <trkpt lat="45.88403" lon="4.81178">
        <ele>167.100006104</ele>
        <time>2015-11-11T09:49:53.979Z</time>
      </trkpt>
      <trkpt lat="45.88399" lon="4.81185">
        <ele>167.100006104</ele>
        <time>2015-11-11T09:49:54.993Z</time>
      </trkpt>
      <trkpt lat="45.88395" lon="4.81192">
        <ele>167</ele>
        <time>2015-11-11T09:49:55.979Z</time>
      </trkpt>
      <trkpt lat="45.88391" lon="4.81198">
        <ele>166.800003052</ele>
        <time>2015-11-11T09:49:56.997Z</time>
      </trkpt>
      <trkpt lat="45.88387" lon="4.81205">
        <ele>166.699996948</ele>
        <time>2015-11-11T09:49:57.979Z</time>
      </trkpt>
      <trkpt lat="45.88384" lon="4.81211">
        <ele>166.699996948</ele>
        <time>2015-11-11T09:49:58.994Z</time>
      </trkpt>
      <trkpt lat="45.8838" lon="4.81218">
        <ele>166.600006104</ele>
        <time>2015-11-11T09:49:59.979Z</time>
      </trkpt>
      <trkpt lat="45.88376" lon="4.81224">
        <ele>166.699996948</ele>
        <time>2015-11-11T09:50:00.994Z</time>
      </trkpt>
      <trkpt lat="45.88373" lon="4.8123">
        <ele>166.800003052</ele>
        <time>2015-11-11T09:50:01.979Z</time>
      </trkpt>
      <trkpt lat="45.88369" lon="4.81237">
        <ele>166.800003052</ele>
        <time>2015-11-11T09:50:03Z</time>
      </trkpt>
      <trkpt lat="45.88365" lon="4.81244">
        <ele>166.800003052</ele>
        <time>2015-11-11T09:50:03.979Z</time>
      </trkpt>
      <trkpt lat="45.88361" lon="4.8125">
        <ele>166.800003052</ele>
        <time>2015-11-11T09:50:04.995Z</time>
      </trkpt>
      <trkpt lat="45.88358" lon="4.81257">
        <ele>166.800003052</ele>
        <time>2015-11-11T09:50:05.979Z</time>
      </trkpt>
      <trkpt lat="45.88354" lon="4.81264">
        <ele>166.699996948</ele>
        <time>2015-11-11T09:50:06.993Z</time>
      </trkpt>
      <trkpt lat="45.8835" lon="4.81271">
        <ele>166.699996948</ele>
        <time>2015-11-11T09:50:07.98Z</time>
      </trkpt>
      <trkpt lat="45.88346" lon="4.81278">
        <ele>166.699996948</ele>
        <time>2015-11-11T09:50:08.997Z</time>
      </trkpt>
      <trkpt lat="45.88343" lon="4.81285">
        <ele>166.699996948</ele>
        <time>2015-11-11T09:50:09.979Z</time>
      </trkpt>
      <trkpt lat="45.88339" lon="4.81292">
        <ele>166.699996948</ele>
        <time>2015-11-11T09:50:11.106Z</time>
      </trkpt>
      <trkpt lat="45.88336" lon="4.81299">
        <ele>166.699996948</ele>
        <time>2015-11-11T09:50:11.979Z</time>
      </trkpt>
      <trkpt lat="45.88332" lon="4.81306">
        <ele>166.699996948</ele>
        <time>2015-11-11T09:50:12.993Z</time>
      </trkpt>
      <trkpt lat="45.88328" lon="4.81313">
        <ele>166.800003052</ele>
        <time>2015-11-11T09:50:13.979Z</time>
      </trkpt>
      <trkpt lat="45.88325" lon="4.8132">
        <ele>166.899993896</ele>
        <time>2015-11-11T09:50:15.011Z</time>
      </trkpt>
      <trkpt lat="45.88322" lon="4.81327">
        <ele>166.800003052</ele>
        <time>2015-11-11T09:50:15.979Z</time>
      </trkpt>
      <trkpt lat="45.88318" lon="4.81334">
        <ele>166.699996948</ele>
        <time>2015-11-11T09:50:16.996Z</time>
      </trkpt>
      <trkpt lat="45.88315" lon="4.81341">
        <ele>166.699996948</ele>
        <time>2015-11-11T09:50:17.979Z</time>
      </trkpt>
      <trkpt lat="45.88312" lon="4.81349">
        <ele>166.699996948</ele>
        <time>2015-11-11T09:50:18.994Z</time>
      </trkpt>
      <trkpt lat="45.88309" lon="4.81356">
        <ele>166.699996948</ele>
        <time>2015-11-11T09:50:19.979Z</time>
      </trkpt>
      <trkpt lat="45.88306" lon="4.81363">
        <ele>166.800003052</ele>
        <time>2015-11-11T09:50:20.997Z</time>
      </trkpt>
      <trkpt lat="45.88303" lon="4.81369">
        <ele>166.600006104</ele>
        <time>2015-11-11T09:50:21.979Z</time>
      </trkpt>
      <trkpt lat="45.883" lon="4.81376">
        <ele>166.699996948</ele>
        <time>2015-11-11T09:50:22.995Z</time>
      </trkpt>
      <trkpt lat="45.88298" lon="4.81382">
        <ele>166.699996948</ele>
        <time>2015-11-11T09:50:23.979Z</time>
      </trkpt>
      <trkpt lat="45.88295" lon="4.81389">
        <ele>166.899993896</ele>
        <time>2015-11-11T09:50:24.994Z</time>
      </trkpt>
      <trkpt lat="45.88292" lon="4.81395">
        <ele>166.899993896</ele>
        <time>2015-11-11T09:50:25.979Z</time>
      </trkpt>
      <trkpt lat="45.88289" lon="4.81401">
        <ele>167.100006104</ele>
        <time>2015-11-11T09:50:26.997Z</time>
      </trkpt>
      <trkpt lat="45.88286" lon="4.81407">
        <ele>166.899993896</ele>
        <time>2015-11-11T09:50:27.979Z</time>
      </trkpt>
      <trkpt lat="45.88284" lon="4.81413">
        <ele>167.199996948</ele>
        <time>2015-11-11T09:50:28.994Z</time>
      </trkpt>
      <trkpt lat="45.88281" lon="4.8142">
        <ele>167.300003052</ele>
        <time>2015-11-11T09:50:29.979Z</time>
      </trkpt>
      <trkpt lat="45.88278" lon="4.81426">
        <ele>167.600006104</ele>
        <time>2015-11-11T09:50:31.008Z</time>
      </trkpt>
      <trkpt lat="45.88274" lon="4.81433">
        <ele>167.800003052</ele>
        <time>2015-11-11T09:50:31.979Z</time>
      </trkpt>
      <trkpt lat="45.88271" lon="4.8144">
        <ele>167.899993896</ele>
        <time>2015-11-11T09:50:32.997Z</time>
      </trkpt>
      <trkpt lat="45.88268" lon="4.81446">
        <ele>168.100006104</ele>
        <time>2015-11-11T09:50:33.979Z</time>
      </trkpt>
      <trkpt lat="45.88264" lon="4.81453">
        <ele>168.600006104</ele>
        <time>2015-11-11T09:50:34.995Z</time>
      </trkpt>
      <trkpt lat="45.88261" lon="4.8146">
        <ele>168.899993896</ele>
        <time>2015-11-11T09:50:35.979Z</time>
      </trkpt>
      <trkpt lat="45.88257" lon="4.81467">
        <ele>169</ele>
        <time>2015-11-11T09:50:36.994Z</time>
      </trkpt>
      <trkpt lat="45.88254" lon="4.81474">
        <ele>169</ele>
        <time>2015-11-11T09:50:37.979Z</time>
      </trkpt>
      <trkpt lat="45.88251" lon="4.81482">
        <ele>169</ele>
        <time>2015-11-11T09:50:39.003Z</time>
      </trkpt>
      <trkpt lat="45.88247" lon="4.81489">
        <ele>169</ele>
        <time>2015-11-11T09:50:39.981Z</time>
      </trkpt>
      <trkpt lat="45.88244" lon="4.81496">
        <ele>169.199996948</ele>
        <time>2015-11-11T09:50:40.994Z</time>
      </trkpt>
      <trkpt lat="45.88242" lon="4.81504">
        <ele>169.100006104</ele>
        <time>2015-11-11T09:50:41.979Z</time>
      </trkpt>
      <trkpt lat="45.88239" lon="4.8151">
        <ele>169.199996948</ele>
        <time>2015-11-11T09:50:42.994Z</time>
      </trkpt>
      <trkpt lat="45.88236" lon="4.81517">
        <ele>169.300003052</ele>
        <time>2015-11-11T09:50:43.979Z</time>
      </trkpt>
      <trkpt lat="45.88233" lon="4.81523">
        <ele>169.5</ele>
        <time>2015-11-11T09:50:44.997Z</time>
      </trkpt>
      <trkpt lat="45.8823" lon="4.81529">
        <ele>169.5</ele>
        <time>2015-11-11T09:50:45.979Z</time>
      </trkpt>
      <trkpt lat="45.88226" lon="4.81535">
        <ele>169.800003052</ele>
        <time>2015-11-11T09:50:47.009Z</time>
      </trkpt>
      <trkpt lat="45.88224" lon="4.81542">
        <ele>170</ele>
        <time>2015-11-11T09:50:47.979Z</time>
      </trkpt>
      <trkpt lat="45.88221" lon="4.81549">
        <ele>170.100006104</ele>
        <time>2015-11-11T09:50:48.994Z</time>
      </trkpt>
      <trkpt lat="45.88218" lon="4.81555">
        <ele>170.199996948</ele>
        <time>2015-11-11T09:50:49.979Z</time>
      </trkpt>
      <trkpt lat="45.88215" lon="4.81562">
        <ele>170.399993896</ele>
        <time>2015-11-11T09:50:50.997Z</time>
      </trkpt>
      <trkpt lat="45.88212" lon="4.81569">
        <ele>170.399993896</ele>
        <time>2015-11-11T09:50:51.979Z</time>
      </trkpt>
      <trkpt lat="45.88209" lon="4.81576">
        <ele>170.600006104</ele>
        <time>2015-11-11T09:50:52.995Z</time>
      </trkpt>
      <trkpt lat="45.88207" lon="4.81583">
        <ele>170.899993896</ele>
        <time>2015-11-11T09:50:53.979Z</time>
      </trkpt>
      <trkpt lat="45.88203" lon="4.8159">
        <ele>171.199996948</ele>
        <time>2015-11-11T09:50:55.028Z</time>
      </trkpt>
      <trkpt lat="45.88201" lon="4.81597">
        <ele>171.199996948</ele>
        <time>2015-11-11T09:50:55.979Z</time>
      </trkpt>
      <trkpt lat="45.88198" lon="4.81604">
        <ele>171.300003052</ele>
        <time>2015-11-11T09:50:56.997Z</time>
      </trkpt>
      <trkpt lat="45.88196" lon="4.81611">
        <ele>171.199996948</ele>
        <time>2015-11-11T09:50:57.979Z</time>
      </trkpt>
      <trkpt lat="45.88192" lon="4.81618">
        <ele>171.199996948</ele>
        <time>2015-11-11T09:50:58.994Z</time>
      </trkpt>
      <trkpt lat="45.88189" lon="4.81625">
        <ele>170.899993896</ele>
        <time>2015-11-11T09:50:59.979Z</time>
      </trkpt>
      <trkpt lat="45.88187" lon="4.81633">
        <ele>170.800003052</ele>
        <time>2015-11-11T09:51:00.993Z</time>
      </trkpt>
      <trkpt lat="45.88184" lon="4.8164">
        <ele>170.899993896</ele>
        <time>2015-11-11T09:51:01.98Z</time>
      </trkpt>
      <trkpt lat="45.88181" lon="4.81646">
        <ele>171.199996948</ele>
        <time>2015-11-11T09:51:03.01Z</time>
      </trkpt>
      <trkpt lat="45.88178" lon="4.81652">
        <ele>171.100006104</ele>
        <time>2015-11-11T09:51:03.98Z</time>
      </trkpt>
      <trkpt lat="45.88175" lon="4.81658">
        <ele>171.100006104</ele>
        <time>2015-11-11T09:51:04.995Z</time>
      </trkpt>
      <trkpt lat="45.88172" lon="4.81664">
        <ele>171.100006104</ele>
        <time>2015-11-11T09:51:05.979Z</time>
      </trkpt>
      <trkpt lat="45.8817" lon="4.8167">
        <ele>171.199996948</ele>
        <time>2015-11-11T09:51:06.994Z</time>
      </trkpt>
      <trkpt lat="45.88168" lon="4.81676">
        <ele>171.399993896</ele>
        <time>2015-11-11T09:51:07.979Z</time>
      </trkpt>
      <trkpt lat="45.88165" lon="4.81682">
        <ele>171.600006104</ele>
        <time>2015-11-11T09:51:09.001Z</time>
      </trkpt>
      <trkpt lat="45.88163" lon="4.81688">
        <ele>171.699996948</ele>
        <time>2015-11-11T09:51:09.979Z</time>
      </trkpt>
      <trkpt lat="45.8816" lon="4.81693">
        <ele>172.199996948</ele>
        <time>2015-11-11T09:51:10.995Z</time>
      </trkpt>
      <trkpt lat="45.88158" lon="4.817">
        <ele>172.399993896</ele>
        <time>2015-11-11T09:51:11.979Z</time>
      </trkpt>
      <trkpt lat="45.88155" lon="4.81706">
        <ele>172.5</ele>
        <time>2015-11-11T09:51:12.993Z</time>
      </trkpt>
      <trkpt lat="45.88152" lon="4.81713">
        <ele>172.699996948</ele>
        <time>2015-11-11T09:51:13.979Z</time>
      </trkpt>
      <trkpt lat="45.88149" lon="4.8172">
        <ele>173</ele>
        <time>2015-11-11T09:51:14.997Z</time>
      </trkpt>
      <trkpt lat="45.88147" lon="4.81727">
        <ele>173.199996948</ele>
        <time>2015-11-11T09:51:15.979Z</time>
      </trkpt>
      <trkpt lat="45.88144" lon="4.81734">
        <ele>173.199996948</ele>
        <time>2015-11-11T09:51:16.995Z</time>
      </trkpt>
      <trkpt lat="45.88141" lon="4.81741">
        <ele>173.5</ele>
        <time>2015-11-11T09:51:17.979Z</time>
      </trkpt>
      <trkpt lat="45.88138" lon="4.81748">
        <ele>173.600006104</ele>
        <time>2015-11-11T09:51:19.007Z</time>
      </trkpt>
      <trkpt lat="45.88136" lon="4.81756">
        <ele>173.899993896</ele>
        <time>2015-11-11T09:51:19.979Z</time>
      </trkpt>
      <trkpt lat="45.88133" lon="4.81763">
        <ele>173.699996948</ele>
        <time>2015-11-11T09:51:20.997Z</time>
      </trkpt>
      <trkpt lat="45.8813" lon="4.81769">
        <ele>173.699996948</ele>
        <time>2015-11-11T09:51:21.979Z</time>
      </trkpt>
      <trkpt lat="45.88128" lon="4.81776">
        <ele>173.899993896</ele>
        <time>2015-11-11T09:51:22.994Z</time>
      </trkpt>
      <trkpt lat="45.88125" lon="4.81783">
        <ele>174</ele>
        <time>2015-11-11T09:51:23.979Z</time>
      </trkpt>
      <trkpt lat="45.88123" lon="4.81789">
        <ele>174</ele>
        <time>2015-11-11T09:51:24.993Z</time>
      </trkpt>
      <trkpt lat="45.88121" lon="4.81796">
        <ele>174.199996948</ele>
        <time>2015-11-11T09:51:25.979Z</time>
      </trkpt>
      <trkpt lat="45.88118" lon="4.81803">
        <ele>174.199996948</ele>
        <time>2015-11-11T09:51:26.997Z</time>
      </trkpt>
      <trkpt lat="45.88116" lon="4.8181">
        <ele>174.399993896</ele>
        <time>2015-11-11T09:51:27.98Z</time>
      </trkpt>
      <trkpt lat="45.88113" lon="4.81818">
        <ele>174.600006104</ele>
        <time>2015-11-11T09:51:28.995Z</time>
      </trkpt>
      <trkpt lat="45.88111" lon="4.81825">
        <ele>174.899993896</ele>
        <time>2015-11-11T09:51:29.98Z</time>
      </trkpt>
      <trkpt lat="45.88108" lon="4.81832">
        <ele>174.600006104</ele>
        <time>2015-11-11T09:51:30.993Z</time>
      </trkpt>
      <trkpt lat="45.88105" lon="4.81839">
        <ele>174</ele>
        <time>2015-11-11T09:51:31.979Z</time>
      </trkpt>
      <trkpt lat="45.88102" lon="4.81846">
        <ele>174</ele>
        <time>2015-11-11T09:51:32.997Z</time>
      </trkpt>
      <trkpt lat="45.88099" lon="4.81854">
        <ele>173.800003052</ele>
        <time>2015-11-11T09:51:33.979Z</time>
      </trkpt>
      <trkpt lat="45.88096" lon="4.81862">
        <ele>173.800003052</ele>
        <time>2015-11-11T09:51:35.011Z</time>
      </trkpt>
      <trkpt lat="45.88094" lon="4.8187">
        <ele>173.5</ele>
        <time>2015-11-11T09:51:35.979Z</time>
      </trkpt>
      <trkpt lat="45.88091" lon="4.81878">
        <ele>173.100006104</ele>
        <time>2015-11-11T09:51:36.994Z</time>
      </trkpt>
      <trkpt lat="45.88088" lon="4.81885">
        <ele>172.899993896</ele>
        <time>2015-11-11T09:51:37.979Z</time>
      </trkpt>
      <trkpt lat="45.88085" lon="4.81892">
        <ele>172.600006104</ele>
        <time>2015-11-11T09:51:38.997Z</time>
      </trkpt>
      <trkpt lat="45.88082" lon="4.81899">
        <ele>172.600006104</ele>
        <time>2015-11-11T09:51:39.982Z</time>
      </trkpt>
      <trkpt lat="45.88079" lon="4.81906">
        <ele>172.5</ele>
        <time>2015-11-11T09:51:40.994Z</time>
      </trkpt>
      <trkpt lat="45.88077" lon="4.81914">
        <ele>172.300003052</ele>
        <time>2015-11-11T09:51:41.979Z</time>
      </trkpt>
      <trkpt lat="45.88074" lon="4.81921">
        <ele>172</ele>
        <time>2015-11-11T09:51:42.993Z</time>
      </trkpt>
      <trkpt lat="45.88071" lon="4.81929">
        <ele>171.699996948</ele>
        <time>2015-11-11T09:51:43.979Z</time>
      </trkpt>
      <trkpt lat="45.88069" lon="4.81936">
        <ele>171.600006104</ele>
        <time>2015-11-11T09:51:44.996Z</time>
      </trkpt>
      <trkpt lat="45.88066" lon="4.81943">
        <ele>171.399993896</ele>
        <time>2015-11-11T09:51:45.979Z</time>
      </trkpt>
      <trkpt lat="45.88064" lon="4.81951">
        <ele>171.399993896</ele>
        <time>2015-11-11T09:51:46.994Z</time>
      </trkpt>
      <trkpt lat="45.8806" lon="4.81959">
        <ele>171.300003052</ele>
        <time>2015-11-11T09:51:47.979Z</time>
      </trkpt>
      <trkpt lat="45.88058" lon="4.81967">
        <ele>170.899993896</ele>
        <time>2015-11-11T09:51:48.993Z</time>
      </trkpt>
      <trkpt lat="45.88055" lon="4.81975">
        <ele>170.699996948</ele>
        <time>2015-11-11T09:51:49.979Z</time>
      </trkpt>
      <trkpt lat="45.88052" lon="4.81982">
        <ele>170.5</ele>
        <time>2015-11-11T09:51:51.01Z</time>
      </trkpt>
      <trkpt lat="45.88049" lon="4.81991">
        <ele>170.100006104</ele>
        <time>2015-11-11T09:51:51.979Z</time>
      </trkpt>
      <trkpt lat="45.88046" lon="4.81999">
        <ele>169.600006104</ele>
        <time>2015-11-11T09:51:52.994Z</time>
      </trkpt>
      <trkpt lat="45.88043" lon="4.82007">
        <ele>169.199996948</ele>
        <time>2015-11-11T09:51:53.979Z</time>
      </trkpt>
      <trkpt lat="45.8804" lon="4.82016">
        <ele>168.899993896</ele>
        <time>2015-11-11T09:51:54.993Z</time>
      </trkpt>
      <trkpt lat="45.88037" lon="4.82024">
        <ele>168.699996948</ele>
        <time>2015-11-11T09:51:55.979Z</time>
      </trkpt>
      <trkpt lat="45.88034" lon="4.82032">
        <ele>168.800003052</ele>
        <time>2015-11-11T09:51:56.997Z</time>
      </trkpt>
      <trkpt lat="45.88031" lon="4.82039">
        <ele>169</ele>
        <time>2015-11-11T09:51:58.019Z</time>
      </trkpt>
      <trkpt lat="45.88028" lon="4.82046">
        <ele>169.100006104</ele>
        <time>2015-11-11T09:51:58.995Z</time>
      </trkpt>
      <trkpt lat="45.88024" lon="4.82052">
        <ele>168.800003052</ele>
        <time>2015-11-11T09:51:59.979Z</time>
      </trkpt>
      <trkpt lat="45.88021" lon="4.82057">
        <ele>168.699996948</ele>
        <time>2015-11-11T09:52:00.995Z</time>
      </trkpt>
      <trkpt lat="45.88017" lon="4.82062">
        <ele>168.5</ele>
        <time>2015-11-11T09:52:01.979Z</time>
      </trkpt>
      <trkpt lat="45.88011" lon="4.82069">
        <ele>168.199996948</ele>
        <time>2015-11-11T09:52:03.993Z</time>
      </trkpt>
      <trkpt lat="45.88006" lon="4.82071">
        <ele>168.100006104</ele>
        <time>2015-11-11T09:52:04.98Z</time>
      </trkpt>
      <trkpt lat="45.87998" lon="4.82073">
        <ele>167.800003052</ele>
        <time>2015-11-11T09:52:07.006Z</time>
      </trkpt>
      <trkpt lat="45.87994" lon="4.82075">
        <ele>168.399993896</ele>
        <time>2015-11-11T09:52:07.979Z</time>
      </trkpt>
      <trkpt lat="45.87991" lon="4.8208">
        <ele>166.699996948</ele>
        <time>2015-11-11T09:52:08.997Z</time>
      </trkpt>
      <trkpt lat="45.87988" lon="4.82086">
        <ele>166.600006104</ele>
        <time>2015-11-11T09:52:09.979Z</time>
      </trkpt>
      <trkpt lat="45.87986" lon="4.82093">
        <ele>166.300003052</ele>
        <time>2015-11-11T09:52:10.995Z</time>
      </trkpt>
      <trkpt lat="45.87983" lon="4.821">
        <ele>166.100006104</ele>
        <time>2015-11-11T09:52:11.979Z</time>
      </trkpt>
      <trkpt lat="45.8798" lon="4.82108">
        <ele>165.899993896</ele>
        <time>2015-11-11T09:52:12.993Z</time>
      </trkpt>
      <trkpt lat="45.87978" lon="4.82115">
        <ele>165.5</ele>
        <time>2015-11-11T09:52:13.979Z</time>
      </trkpt>
      <trkpt lat="45.87975" lon="4.82122">
        <ele>165.199996948</ele>
        <time>2015-11-11T09:52:14.997Z</time>
      </trkpt>
      <trkpt lat="45.87973" lon="4.8213">
        <ele>165.199996948</ele>
        <time>2015-11-11T09:52:15.979Z</time>
      </trkpt>
      <trkpt lat="45.87971" lon="4.82138">
        <ele>165.100006104</ele>
        <time>2015-11-11T09:52:16.994Z</time>
      </trkpt>
      <trkpt lat="45.87969" lon="4.82146">
        <ele>165.100006104</ele>
        <time>2015-11-11T09:52:17.979Z</time>
      </trkpt>
      <trkpt lat="45.87967" lon="4.82154">
        <ele>164.800003052</ele>
        <time>2015-11-11T09:52:18.993Z</time>
      </trkpt>
      <trkpt lat="45.87966" lon="4.82161">
        <ele>164.600006104</ele>
        <time>2015-11-11T09:52:19.979Z</time>
      </trkpt>
      <trkpt lat="45.87965" lon="4.8217">
        <ele>164.600006104</ele>
        <time>2015-11-11T09:52:20.996Z</time>
      </trkpt>
      <trkpt lat="45.87964" lon="4.82178">
        <ele>164.600006104</ele>
        <time>2015-11-11T09:52:21.979Z</time>
      </trkpt>
      <trkpt lat="45.87963" lon="4.82186">
        <ele>164.300003052</ele>
        <time>2015-11-11T09:52:23.009Z</time>
      </trkpt>
      <trkpt lat="45.87962" lon="4.82195">
        <ele>163.800003052</ele>
        <time>2015-11-11T09:52:23.979Z</time>
      </trkpt>
      <trkpt lat="45.87962" lon="4.82204">
        <ele>163.899993896</ele>
        <time>2015-11-11T09:52:24.993Z</time>
      </trkpt>
      <trkpt lat="45.87961" lon="4.82213">
        <ele>163.899993896</ele>
        <time>2015-11-11T09:52:25.979Z</time>
      </trkpt>
      <trkpt lat="45.8796" lon="4.82223">
        <ele>163.800003052</ele>
        <time>2015-11-11T09:52:27.005Z</time>
      </trkpt>
      <trkpt lat="45.87959" lon="4.82232">
        <ele>163.699996948</ele>
        <time>2015-11-11T09:52:27.979Z</time>
      </trkpt>
      <trkpt lat="45.87958" lon="4.8224">
        <ele>164</ele>
        <time>2015-11-11T09:52:28.994Z</time>
      </trkpt>
      <trkpt lat="45.87957" lon="4.82248">
        <ele>164.100006104</ele>
        <time>2015-11-11T09:52:29.979Z</time>
      </trkpt>
      <trkpt lat="45.87956" lon="4.82255">
        <ele>164.199996948</ele>
        <time>2015-11-11T09:52:31.028Z</time>
      </trkpt>
      <trkpt lat="45.87955" lon="4.82263">
        <ele>164.300003052</ele>
        <time>2015-11-11T09:52:31.979Z</time>
      </trkpt>
      <trkpt lat="45.87954" lon="4.82271">
        <ele>164.699996948</ele>
        <time>2015-11-11T09:52:32.997Z</time>
      </trkpt>
      <trkpt lat="45.87953" lon="4.82278">
        <ele>165.300003052</ele>
        <time>2015-11-11T09:52:33.979Z</time>
      </trkpt>
      <trkpt lat="45.87953" lon="4.82286">
        <ele>165.399993896</ele>
        <time>2015-11-11T09:52:34.994Z</time>
      </trkpt>
      <trkpt lat="45.87952" lon="4.82293">
        <ele>165.199996948</ele>
        <time>2015-11-11T09:52:35.979Z</time>
      </trkpt>
      <trkpt lat="45.87951" lon="4.823">
        <ele>165.199996948</ele>
        <time>2015-11-11T09:52:36.993Z</time>
      </trkpt>
      <trkpt lat="45.8795" lon="4.82308">
        <ele>165.199996948</ele>
        <time>2015-11-11T09:52:37.979Z</time>
      </trkpt>
      <trkpt lat="45.87949" lon="4.82316">
        <ele>165.5</ele>
        <time>2015-11-11T09:52:39.009Z</time>
      </trkpt>
      <trkpt lat="45.87948" lon="4.82325">
        <ele>165.600006104</ele>
        <time>2015-11-11T09:52:39.983Z</time>
      </trkpt>
      <trkpt lat="45.87947" lon="4.82333">
        <ele>165.399993896</ele>
        <time>2015-11-11T09:52:40.996Z</time>
      </trkpt>
      <trkpt lat="45.87946" lon="4.82342">
        <ele>165.199996948</ele>
        <time>2015-11-11T09:52:41.981Z</time>
      </trkpt>
      <trkpt lat="45.87946" lon="4.8235">
        <ele>165.399993896</ele>
        <time>2015-11-11T09:52:42.995Z</time>
      </trkpt>
      <trkpt lat="45.87945" lon="4.82359">
        <ele>165.600006104</ele>
        <time>2015-11-11T09:52:43.98Z</time>
      </trkpt>
      <trkpt lat="45.87944" lon="4.82368">
        <ele>165.800003052</ele>
        <time>2015-11-11T09:52:44.996Z</time>
      </trkpt>
      <trkpt lat="45.87943" lon="4.82377">
        <ele>166</ele>
        <time>2015-11-11T09:52:45.979Z</time>
      </trkpt>
      <trkpt lat="45.87942" lon="4.82386">
        <ele>166</ele>
        <time>2015-11-11T09:52:46.994Z</time>
      </trkpt>
      <trkpt lat="45.87941" lon="4.82394">
        <ele>165.800003052</ele>
        <time>2015-11-11T09:52:47.979Z</time>
      </trkpt>
      <trkpt lat="45.8794" lon="4.82402">
        <ele>165.800003052</ele>
        <time>2015-11-11T09:52:48.993Z</time>
      </trkpt>
      <trkpt lat="45.87938" lon="4.8241">
        <ele>165.899993896</ele>
        <time>2015-11-11T09:52:49.979Z</time>
      </trkpt>
      <trkpt lat="45.87937" lon="4.82417">
        <ele>165.899993896</ele>
        <time>2015-11-11T09:52:50.996Z</time>
      </trkpt>
      <trkpt lat="45.87937" lon="4.82425">
        <ele>165.899993896</ele>
        <time>2015-11-11T09:52:51.979Z</time>
      </trkpt>
      <trkpt lat="45.87936" lon="4.82433">
        <ele>165.800003052</ele>
        <time>2015-11-11T09:52:52.995Z</time>
      </trkpt>
      <trkpt lat="45.87934" lon="4.8244">
        <ele>165.899993896</ele>
        <time>2015-11-11T09:52:53.979Z</time>
      </trkpt>
      <trkpt lat="45.87932" lon="4.82448">
        <ele>165.800003052</ele>
        <time>2015-11-11T09:52:55.015Z</time>
      </trkpt>
      <trkpt lat="45.87931" lon="4.82456">
        <ele>165.699996948</ele>
        <time>2015-11-11T09:52:55.979Z</time>
      </trkpt>
      <trkpt lat="45.8793" lon="4.82464">
        <ele>165.5</ele>
        <time>2015-11-11T09:52:56.996Z</time>
      </trkpt>
      <trkpt lat="45.87928" lon="4.82473">
        <ele>165.199996948</ele>
        <time>2015-11-11T09:52:57.979Z</time>
      </trkpt>
      <trkpt lat="45.87926" lon="4.82481">
        <ele>165</ele>
        <time>2015-11-11T09:52:58.994Z</time>
      </trkpt>
      <trkpt lat="45.87924" lon="4.82489">
        <ele>164.800003052</ele>
        <time>2015-11-11T09:52:59.979Z</time>
      </trkpt>
      <trkpt lat="45.87923" lon="4.82497">
        <ele>164.699996948</ele>
        <time>2015-11-11T09:53:00.993Z</time>
      </trkpt>
      <trkpt lat="45.87921" lon="4.82505">
        <ele>164.699996948</ele>
        <time>2015-11-11T09:53:01.979Z</time>
      </trkpt>
      <trkpt lat="45.8792" lon="4.82513">
        <ele>164.300003052</ele>
        <time>2015-11-11T09:53:02.996Z</time>
      </trkpt>
      <trkpt lat="45.87918" lon="4.82521">
        <ele>164.300003052</ele>
        <time>2015-11-11T09:53:03.979Z</time>
      </trkpt>
      <trkpt lat="45.87917" lon="4.82528">
        <ele>164.300003052</ele>
        <time>2015-11-11T09:53:04.994Z</time>
      </trkpt>
      <trkpt lat="45.87915" lon="4.82536">
        <ele>163.899993896</ele>
        <time>2015-11-11T09:53:05.979Z</time>
      </trkpt>
      <trkpt lat="45.87913" lon="4.82543">
        <ele>163.699996948</ele>
        <time>2015-11-11T09:53:06.994Z</time>
      </trkpt>
      <trkpt lat="45.87911" lon="4.8255">
        <ele>163.399993896</ele>
        <time>2015-11-11T09:53:07.979Z</time>
      </trkpt>
      <trkpt lat="45.8791" lon="4.82558">
        <ele>163.600006104</ele>
        <time>2015-11-11T09:53:08.997Z</time>
      </trkpt>
      <trkpt lat="45.87908" lon="4.82566">
        <ele>163.600006104</ele>
        <time>2015-11-11T09:53:09.979Z</time>
      </trkpt>
      <trkpt lat="45.87906" lon="4.82573">
        <ele>163.699996948</ele>
        <time>2015-11-11T09:53:11.007Z</time>
      </trkpt>
      <trkpt lat="45.87905" lon="4.82581">
        <ele>163.5</ele>
        <time>2015-11-11T09:53:11.979Z</time>
      </trkpt>
      <trkpt lat="45.87903" lon="4.82589">
        <ele>163.199996948</ele>
        <time>2015-11-11T09:53:12.993Z</time>
      </trkpt>
      <trkpt lat="45.87901" lon="4.82597">
        <ele>163.100006104</ele>
        <time>2015-11-11T09:53:13.979Z</time>
      </trkpt>
      <trkpt lat="45.87899" lon="4.82604">
        <ele>163.100006104</ele>
        <time>2015-11-11T09:53:14.996Z</time>
      </trkpt>
      <trkpt lat="45.87897" lon="4.82612">
        <ele>162.600006104</ele>
        <time>2015-11-11T09:53:15.98Z</time>
      </trkpt>
      <trkpt lat="45.87895" lon="4.82619">
        <ele>162.899993896</ele>
        <time>2015-11-11T09:53:16.994Z</time>
      </trkpt>
      <trkpt lat="45.87894" lon="4.82626">
        <ele>162.800003052</ele>
        <time>2015-11-11T09:53:17.979Z</time>
      </trkpt>
      <trkpt lat="45.87892" lon="4.82634">
        <ele>162.899993896</ele>
        <time>2015-11-11T09:53:18.994Z</time>
      </trkpt>
      <trkpt lat="45.8789" lon="4.82641">
        <ele>163.199996948</ele>
        <time>2015-11-11T09:53:19.979Z</time>
      </trkpt>
      <trkpt lat="45.87889" lon="4.82648">
        <ele>163.300003052</ele>
        <time>2015-11-11T09:53:20.996Z</time>
      </trkpt>
      <trkpt lat="45.87888" lon="4.82655">
        <ele>163</ele>
        <time>2015-11-11T09:53:21.979Z</time>
      </trkpt>
      <trkpt lat="45.87886" lon="4.82662">
        <ele>163.100006104</ele>
        <time>2015-11-11T09:53:22.994Z</time>
      </trkpt>
      <trkpt lat="45.87885" lon="4.82669">
        <ele>163.100006104</ele>
        <time>2015-11-11T09:53:23.979Z</time>
      </trkpt>
      <trkpt lat="45.87883" lon="4.82677">
        <ele>162.800003052</ele>
        <time>2015-11-11T09:53:24.993Z</time>
      </trkpt>
      <trkpt lat="45.87882" lon="4.82684">
        <ele>162.800003052</ele>
        <time>2015-11-11T09:53:26.014Z</time>
      </trkpt>
      <trkpt lat="45.87881" lon="4.82691">
        <ele>162.800003052</ele>
        <time>2015-11-11T09:53:27.009Z</time>
      </trkpt>
      <trkpt lat="45.8788" lon="4.82699">
        <ele>162.399993896</ele>
        <time>2015-11-11T09:53:27.979Z</time>
      </trkpt>
      <trkpt lat="45.87879" lon="4.82707">
        <ele>162.399993896</ele>
        <time>2015-11-11T09:53:29.018Z</time>
      </trkpt>
      <trkpt lat="45.87879" lon="4.82715">
        <ele>162.800003052</ele>
        <time>2015-11-11T09:53:29.979Z</time>
      </trkpt>
      <trkpt lat="45.87879" lon="4.82723">
        <ele>162.699996948</ele>
        <time>2015-11-11T09:53:30.993Z</time>
      </trkpt>
      <trkpt lat="45.87879" lon="4.82731">
        <ele>162.699996948</ele>
        <time>2015-11-11T09:53:31.979Z</time>
      </trkpt>
      <trkpt lat="45.87878" lon="4.8274">
        <ele>162.899993896</ele>
        <time>2015-11-11T09:53:32.996Z</time>
      </trkpt>
      <trkpt lat="45.87879" lon="4.82748">
        <ele>162.800003052</ele>
        <time>2015-11-11T09:53:33.979Z</time>
      </trkpt>
      <trkpt lat="45.8788" lon="4.82757">
        <ele>162.800003052</ele>
        <time>2015-11-11T09:53:34.994Z</time>
      </trkpt>
      <trkpt lat="45.8788" lon="4.82764">
        <ele>162.699996948</ele>
        <time>2015-11-11T09:53:35.979Z</time>
      </trkpt>
      <trkpt lat="45.87881" lon="4.82772">
        <ele>162.600006104</ele>
        <time>2015-11-11T09:53:36.993Z</time>
      </trkpt>
      <trkpt lat="45.87882" lon="4.82779">
        <ele>162.600006104</ele>
        <time>2015-11-11T09:53:37.979Z</time>
      </trkpt>
      <trkpt lat="45.87882" lon="4.82786">
        <ele>162.600006104</ele>
        <time>2015-11-11T09:53:38.997Z</time>
      </trkpt>
      <trkpt lat="45.87883" lon="4.82793">
        <ele>162.300003052</ele>
        <time>2015-11-11T09:53:39.981Z</time>
      </trkpt>
      <trkpt lat="45.87884" lon="4.82801">
        <ele>162.199996948</ele>
        <time>2015-11-11T09:53:40.994Z</time>
      </trkpt>
      <trkpt lat="45.87884" lon="4.82808">
        <ele>162.199996948</ele>
        <time>2015-11-11T09:53:41.979Z</time>
      </trkpt>
      <trkpt lat="45.87885" lon="4.82815">
        <ele>162.300003052</ele>
        <time>2015-11-11T09:53:43.038Z</time>
      </trkpt>
      <trkpt lat="45.87886" lon="4.82823">
        <ele>162.300003052</ele>
        <time>2015-11-11T09:53:43.979Z</time>
      </trkpt>
      <trkpt lat="45.87887" lon="4.8283">
        <ele>162.5</ele>
        <time>2015-11-11T09:53:44.997Z</time>
      </trkpt>
      <trkpt lat="45.87887" lon="4.82837">
        <ele>162.699996948</ele>
        <time>2015-11-11T09:53:45.979Z</time>
      </trkpt>
      <trkpt lat="45.87888" lon="4.82845">
        <ele>162.699996948</ele>
        <time>2015-11-11T09:53:46.994Z</time>
      </trkpt>
      <trkpt lat="45.87888" lon="4.82853">
        <ele>162.600006104</ele>
        <time>2015-11-11T09:53:47.979Z</time>
      </trkpt>
      <trkpt lat="45.87889" lon="4.82861">
        <ele>162.600006104</ele>
        <time>2015-11-11T09:53:48.993Z</time>
      </trkpt>
      <trkpt lat="45.87889" lon="4.82869">
        <ele>162.899993896</ele>
        <time>2015-11-11T09:53:49.979Z</time>
      </trkpt>
      <trkpt lat="45.87889" lon="4.82877">
        <ele>162.800003052</ele>
        <time>2015-11-11T09:53:50.997Z</time>
      </trkpt>
      <trkpt lat="45.8789" lon="4.82885">
        <ele>163</ele>
        <time>2015-11-11T09:53:51.979Z</time>
      </trkpt>
      <trkpt lat="45.8789" lon="4.82893">
        <ele>163.300003052</ele>
        <time>2015-11-11T09:53:52.994Z</time>
      </trkpt>
      <trkpt lat="45.8789" lon="4.82901">
        <ele>163.300003052</ele>
        <time>2015-11-11T09:53:53.979Z</time>
      </trkpt>
      <trkpt lat="45.8789" lon="4.8291">
        <ele>163.199996948</ele>
        <time>2015-11-11T09:53:54.993Z</time>
      </trkpt>
      <trkpt lat="45.8789" lon="4.82918">
        <ele>163.300003052</ele>
        <time>2015-11-11T09:53:55.979Z</time>
      </trkpt>
      <trkpt lat="45.8789" lon="4.82926">
        <ele>163.199996948</ele>
        <time>2015-11-11T09:53:56.996Z</time>
      </trkpt>
      <trkpt lat="45.8789" lon="4.82934">
        <ele>163.300003052</ele>
        <time>2015-11-11T09:53:57.979Z</time>
      </trkpt>
      <trkpt lat="45.87891" lon="4.82942">
        <ele>163.600006104</ele>
        <time>2015-11-11T09:53:59.009Z</time>
      </trkpt>
      <trkpt lat="45.87891" lon="4.8295">
        <ele>163.800003052</ele>
        <time>2015-11-11T09:53:59.979Z</time>
      </trkpt>
      <trkpt lat="45.8789" lon="4.82958">
        <ele>163.899993896</ele>
        <time>2015-11-11T09:54:00.993Z</time>
      </trkpt>
      <trkpt lat="45.87889" lon="4.82966">
        <ele>164.199996948</ele>
        <time>2015-11-11T09:54:01.979Z</time>
      </trkpt>
      <trkpt lat="45.87888" lon="4.82973">
        <ele>164.300003052</ele>
        <time>2015-11-11T09:54:02.997Z</time>
      </trkpt>
      <trkpt lat="45.87887" lon="4.82981">
        <ele>164.5</ele>
        <time>2015-11-11T09:54:03.979Z</time>
      </trkpt>
      <trkpt lat="45.87886" lon="4.82989">
        <ele>164.5</ele>
        <time>2015-11-11T09:54:04.995Z</time>
      </trkpt>
      <trkpt lat="45.87886" lon="4.82996">
        <ele>164.399993896</ele>
        <time>2015-11-11T09:54:05.979Z</time>
      </trkpt>
      <trkpt lat="45.87885" lon="4.83004">
        <ele>164.199996948</ele>
        <time>2015-11-11T09:54:06.993Z</time>
      </trkpt>
      <trkpt lat="45.87884" lon="4.83012">
        <ele>164.199996948</ele>
        <time>2015-11-11T09:54:07.979Z</time>
      </trkpt>
      <trkpt lat="45.87883" lon="4.8302">
        <ele>164.100006104</ele>
        <time>2015-11-11T09:54:09.005Z</time>
      </trkpt>
      <trkpt lat="45.87883" lon="4.83028">
        <ele>164.199996948</ele>
        <time>2015-11-11T09:54:09.979Z</time>
      </trkpt>
      <trkpt lat="45.87882" lon="4.83036">
        <ele>164.300003052</ele>
        <time>2015-11-11T09:54:10.995Z</time>
      </trkpt>
      <trkpt lat="45.87881" lon="4.83043">
        <ele>164.5</ele>
        <time>2015-11-11T09:54:11.978Z</time>
      </trkpt>
      <trkpt lat="45.8788" lon="4.83052">
        <ele>164.699996948</ele>
        <time>2015-11-11T09:54:12.993Z</time>
      </trkpt>
      <trkpt lat="45.87878" lon="4.8306">
        <ele>164.5</ele>
        <time>2015-11-11T09:54:13.978Z</time>
      </trkpt>
      <trkpt lat="45.87877" lon="4.83068">
        <ele>164.5</ele>
        <time>2015-11-11T09:54:15.01Z</time>
      </trkpt>
      <trkpt lat="45.87876" lon="4.83076">
        <ele>164.399993896</ele>
        <time>2015-11-11T09:54:15.979Z</time>
      </trkpt>
      <trkpt lat="45.87876" lon="4.83084">
        <ele>164.600006104</ele>
        <time>2015-11-11T09:54:16.994Z</time>
      </trkpt>
      <trkpt lat="45.87875" lon="4.83092">
        <ele>164.600006104</ele>
        <time>2015-11-11T09:54:17.979Z</time>
      </trkpt>
      <trkpt lat="45.87874" lon="4.831">
        <ele>164.699996948</ele>
        <time>2015-11-11T09:54:18.993Z</time>
      </trkpt>
      <trkpt lat="45.87873" lon="4.83107">
        <ele>164.699996948</ele>
        <time>2015-11-11T09:54:19.979Z</time>
      </trkpt>
      <trkpt lat="45.87873" lon="4.83114">
        <ele>164.899993896</ele>
        <time>2015-11-11T09:54:21.01Z</time>
      </trkpt>
      <trkpt lat="45.87872" lon="4.83121">
        <ele>164.800003052</ele>
        <time>2015-11-11T09:54:21.979Z</time>
      </trkpt>
      <trkpt lat="45.87871" lon="4.83128">
        <ele>164.899993896</ele>
        <time>2015-11-11T09:54:22.994Z</time>
      </trkpt>
      <trkpt lat="45.8787" lon="4.83135">
        <ele>164.800003052</ele>
        <time>2015-11-11T09:54:23.979Z</time>
      </trkpt>
      <trkpt lat="45.87869" lon="4.83142">
        <ele>165.100006104</ele>
        <time>2015-11-11T09:54:24.993Z</time>
      </trkpt>
      <trkpt lat="45.87868" lon="4.83149">
        <ele>165</ele>
        <time>2015-11-11T09:54:25.979Z</time>
      </trkpt>
      <trkpt lat="45.87867" lon="4.83156">
        <ele>165.199996948</ele>
        <time>2015-11-11T09:54:27.115Z</time>
      </trkpt>
      <trkpt lat="45.87867" lon="4.83163">
        <ele>165.5</ele>
        <time>2015-11-11T09:54:27.979Z</time>
      </trkpt>
      <trkpt lat="45.87866" lon="4.8317">
        <ele>166.199996948</ele>
        <time>2015-11-11T09:54:29.001Z</time>
      </trkpt>
      <trkpt lat="45.87865" lon="4.83177">
        <ele>166</ele>
        <time>2015-11-11T09:54:29.979Z</time>
      </trkpt>
      <trkpt lat="45.87864" lon="4.83184">
        <ele>166.300003052</ele>
        <time>2015-11-11T09:54:31.006Z</time>
      </trkpt>
      <trkpt lat="45.87863" lon="4.83191">
        <ele>166.600006104</ele>
        <time>2015-11-11T09:54:31.979Z</time>
      </trkpt>
      <trkpt lat="45.87861" lon="4.83198">
        <ele>166.699996948</ele>
        <time>2015-11-11T09:54:32.996Z</time>
      </trkpt>
      <trkpt lat="45.87859" lon="4.83206">
        <ele>166.600006104</ele>
        <time>2015-11-11T09:54:33.979Z</time>
      </trkpt>
      <trkpt lat="45.87858" lon="4.83213">
        <ele>166.600006104</ele>
        <time>2015-11-11T09:54:34.995Z</time>
      </trkpt>
      <trkpt lat="45.87856" lon="4.8322">
        <ele>166.600006104</ele>
        <time>2015-11-11T09:54:35.979Z</time>
      </trkpt>
      <trkpt lat="45.87854" lon="4.83227">
        <ele>166.600006104</ele>
        <time>2015-11-11T09:54:36.994Z</time>
      </trkpt>
      <trkpt lat="45.87852" lon="4.83235">
        <ele>166.600006104</ele>
        <time>2015-11-11T09:54:37.979Z</time>
      </trkpt>
      <trkpt lat="45.87851" lon="4.83242">
        <ele>166.600006104</ele>
        <time>2015-11-11T09:54:38.996Z</time>
      </trkpt>
      <trkpt lat="45.87849" lon="4.8325">
        <ele>166.699996948</ele>
        <time>2015-11-11T09:54:39.981Z</time>
      </trkpt>
      <trkpt lat="45.87847" lon="4.83257">
        <ele>166.800003052</ele>
        <time>2015-11-11T09:54:40.994Z</time>
      </trkpt>
      <trkpt lat="45.87845" lon="4.83264">
        <ele>166.899993896</ele>
        <time>2015-11-11T09:54:41.979Z</time>
      </trkpt>
      <trkpt lat="45.87843" lon="4.83271">
        <ele>167.199996948</ele>
        <time>2015-11-11T09:54:42.992Z</time>
      </trkpt>
      <trkpt lat="45.8784" lon="4.83277">
        <ele>167.699996948</ele>
        <time>2015-11-11T09:54:43.979Z</time>
      </trkpt>
      <trkpt lat="45.87838" lon="4.83284">
        <ele>167.800003052</ele>
        <time>2015-11-11T09:54:44.996Z</time>
      </trkpt>
      <trkpt lat="45.87836" lon="4.83291">
        <ele>167.800003052</ele>
        <time>2015-11-11T09:54:45.979Z</time>
      </trkpt>
      <trkpt lat="45.87834" lon="4.83298">
        <ele>167.800003052</ele>
        <time>2015-11-11T09:54:47.006Z</time>
      </trkpt>
      <trkpt lat="45.87832" lon="4.83304">
        <ele>168</ele>
        <time>2015-11-11T09:54:47.979Z</time>
      </trkpt>
      <trkpt lat="45.87829" lon="4.83311">
        <ele>167.899993896</ele>
        <time>2015-11-11T09:54:48.993Z</time>
      </trkpt>
      <trkpt lat="45.87827" lon="4.83317">
        <ele>167.899993896</ele>
        <time>2015-11-11T09:54:49.979Z</time>
      </trkpt>
      <trkpt lat="45.87825" lon="4.83324">
        <ele>167.899993896</ele>
        <time>2015-11-11T09:54:50.996Z</time>
      </trkpt>
      <trkpt lat="45.87822" lon="4.8333">
        <ele>168.100006104</ele>
        <time>2015-11-11T09:54:51.978Z</time>
      </trkpt>
      <trkpt lat="45.8782" lon="4.83337">
        <ele>168.199996948</ele>
        <time>2015-11-11T09:54:52.994Z</time>
      </trkpt>
      <trkpt lat="45.87817" lon="4.83344">
        <ele>168.199996948</ele>
        <time>2015-11-11T09:54:53.978Z</time>
      </trkpt>
      <trkpt lat="45.87815" lon="4.83351">
        <ele>168</ele>
        <time>2015-11-11T09:54:54.993Z</time>
      </trkpt>
      <trkpt lat="45.87812" lon="4.83358">
        <ele>167.899993896</ele>
        <time>2015-11-11T09:54:55.978Z</time>
      </trkpt>
      <trkpt lat="45.87809" lon="4.83365">
        <ele>168</ele>
        <time>2015-11-11T09:54:56.996Z</time>
      </trkpt>
      <trkpt lat="45.87806" lon="4.83372">
        <ele>167.899993896</ele>
        <time>2015-11-11T09:54:58.09Z</time>
      </trkpt>
      <trkpt lat="45.87803" lon="4.83378">
        <ele>168.399993896</ele>
        <time>2015-11-11T09:54:58.994Z</time>
      </trkpt>
      <trkpt lat="45.878" lon="4.83385">
        <ele>168.399993896</ele>
        <time>2015-11-11T09:54:59.979Z</time>
      </trkpt>
      <trkpt lat="45.87797" lon="4.83391">
        <ele>168.399993896</ele>
        <time>2015-11-11T09:55:00.993Z</time>
      </trkpt>
      <trkpt lat="45.87795" lon="4.83398">
        <ele>168.5</ele>
        <time>2015-11-11T09:55:01.979Z</time>
      </trkpt>
      <trkpt lat="45.87792" lon="4.83404">
        <ele>168.5</ele>
        <time>2015-11-11T09:55:02.997Z</time>
      </trkpt>
      <trkpt lat="45.8779" lon="4.8341">
        <ele>168.300003052</ele>
        <time>2015-11-11T09:55:03.979Z</time>
      </trkpt>
      <trkpt lat="45.87787" lon="4.83417">
        <ele>168.300003052</ele>
        <time>2015-11-11T09:55:04.995Z</time>
      </trkpt>
      <trkpt lat="45.87785" lon="4.83423">
        <ele>168.199996948</ele>
        <time>2015-11-11T09:55:05.979Z</time>
      </trkpt>
      <trkpt lat="45.87782" lon="4.83429">
        <ele>168.199996948</ele>
        <time>2015-11-11T09:55:06.993Z</time>
      </trkpt>
      <trkpt lat="45.87779" lon="4.83435">
        <ele>168.199996948</ele>
        <time>2015-11-11T09:55:07.978Z</time>
      </trkpt>
      <trkpt lat="45.87775" lon="4.83441">
        <ele>168.100006104</ele>
        <time>2015-11-11T09:55:09.009Z</time>
      </trkpt>
      <trkpt lat="45.87772" lon="4.83446">
        <ele>168.300003052</ele>
        <time>2015-11-11T09:55:09.978Z</time>
      </trkpt>
      <trkpt lat="45.87768" lon="4.83452">
        <ele>168.399993896</ele>
        <time>2015-11-11T09:55:11.002Z</time>
      </trkpt>
      <trkpt lat="45.87764" lon="4.83457">
        <ele>168.600006104</ele>
        <time>2015-11-11T09:55:11.979Z</time>
      </trkpt>
      <trkpt lat="45.8776" lon="4.83462">
        <ele>168.699996948</ele>
        <time>2015-11-11T09:55:12.993Z</time>
      </trkpt>
      <trkpt lat="45.87757" lon="4.83467">
        <ele>168.899993896</ele>
        <time>2015-11-11T09:55:13.979Z</time>
      </trkpt>
      <trkpt lat="45.87753" lon="4.83473">
        <ele>168.899993896</ele>
        <time>2015-11-11T09:55:15.009Z</time>
      </trkpt>
      <trkpt lat="45.87749" lon="4.83478">
        <ele>168.899993896</ele>
        <time>2015-11-11T09:55:15.979Z</time>
      </trkpt>
      <trkpt lat="45.87745" lon="4.83483">
        <ele>169</ele>
        <time>2015-11-11T09:55:16.994Z</time>
      </trkpt>
      <trkpt lat="45.87742" lon="4.83487">
        <ele>169.100006104</ele>
        <time>2015-11-11T09:55:17.979Z</time>
      </trkpt>
      <trkpt lat="45.87738" lon="4.83492">
        <ele>169.100006104</ele>
        <time>2015-11-11T09:55:18.993Z</time>
      </trkpt>
      <trkpt lat="45.87734" lon="4.83496">
        <ele>169</ele>
        <time>2015-11-11T09:55:19.978Z</time>
      </trkpt>
      <trkpt lat="45.87727" lon="4.83502">
        <ele>168.399993896</ele>
        <time>2015-11-11T09:55:21.993Z</time>
      </trkpt>
      <trkpt lat="45.87724" lon="4.83506">
        <ele>168.399993896</ele>
        <time>2015-11-11T09:55:22.979Z</time>
      </trkpt>
      <trkpt lat="45.87718" lon="4.83513">
        <ele>168.699996948</ele>
        <time>2015-11-11T09:55:24.993Z</time>
      </trkpt>
      <trkpt lat="45.87715" lon="4.83516">
        <ele>168.800003052</ele>
        <time>2015-11-11T09:55:25.978Z</time>
      </trkpt>
      <trkpt lat="45.87709" lon="4.83524">
        <ele>169.199996948</ele>
        <time>2015-11-11T09:55:27.993Z</time>
      </trkpt>
      <trkpt lat="45.87706" lon="4.83527">
        <ele>169.399993896</ele>
        <time>2015-11-11T09:55:28.981Z</time>
      </trkpt>
      <trkpt lat="45.87698" lon="4.83531">
        <ele>169.199996948</ele>
        <time>2015-11-11T09:55:30.993Z</time>
      </trkpt>
      <trkpt lat="45.87694" lon="4.83532">
        <ele>169.100006104</ele>
        <time>2015-11-11T09:55:31.978Z</time>
      </trkpt>
      <trkpt lat="45.87688" lon="4.83532">
        <ele>169.100006104</ele>
        <time>2015-11-11T09:55:33.993Z</time>
      </trkpt>
      <trkpt lat="45.87684" lon="4.83533">
        <ele>169.5</ele>
        <time>2015-11-11T09:55:34.98Z</time>
      </trkpt>
      <trkpt lat="45.87677" lon="4.83536">
        <ele>170.100006104</ele>
        <time>2015-11-11T09:55:36.993Z</time>
      </trkpt>
      <trkpt lat="45.87675" lon="4.8354">
        <ele>170.199996948</ele>
        <time>2015-11-11T09:55:37.979Z</time>
      </trkpt>
      <trkpt lat="45.87675" lon="4.83551">
        <ele>170.199996948</ele>
        <time>2015-11-11T09:55:40.01Z</time>
      </trkpt>
      <trkpt lat="45.87676" lon="4.83556">
        <ele>170.199996948</ele>
        <time>2015-11-11T09:55:40.98Z</time>
      </trkpt>
      <trkpt lat="45.87677" lon="4.83567">
        <ele>169.899993896</ele>
        <time>2015-11-11T09:55:42.993Z</time>
      </trkpt>
      <trkpt lat="45.87678" lon="4.83573">
        <ele>169.800003052</ele>
        <time>2015-11-11T09:55:43.979Z</time>
      </trkpt>
      <trkpt lat="45.87679" lon="4.83585">
        <ele>169.5</ele>
        <time>2015-11-11T09:55:46.006Z</time>
      </trkpt>
      <trkpt lat="45.87679" lon="4.83591">
        <ele>169.699996948</ele>
        <time>2015-11-11T09:55:46.98Z</time>
      </trkpt>
      <trkpt lat="45.8768" lon="4.83602">
        <ele>169.899993896</ele>
        <time>2015-11-11T09:55:48.993Z</time>
      </trkpt>
      <trkpt lat="45.87681" lon="4.83608">
        <ele>169.899993896</ele>
        <time>2015-11-11T09:55:49.979Z</time>
      </trkpt>
      <trkpt lat="45.87682" lon="4.83618">
        <ele>169.899993896</ele>
        <time>2015-11-11T09:55:51.993Z</time>
      </trkpt>
      <trkpt lat="45.87682" lon="4.83624">
        <ele>170</ele>
        <time>2015-11-11T09:55:52.98Z</time>
      </trkpt>
      <trkpt lat="45.87684" lon="4.83636">
        <ele>170.5</ele>
        <time>2015-11-11T09:55:54.994Z</time>
      </trkpt>
      <trkpt lat="45.87684" lon="4.83641">
        <ele>170.399993896</ele>
        <time>2015-11-11T09:55:55.979Z</time>
      </trkpt>
      <trkpt lat="45.87685" lon="4.83653">
        <ele>170.300003052</ele>
        <time>2015-11-11T09:55:57.993Z</time>
      </trkpt>
      <trkpt lat="45.87686" lon="4.83658">
        <ele>170.399993896</ele>
        <time>2015-11-11T09:55:58.98Z</time>
      </trkpt>
      <trkpt lat="45.87686" lon="4.83669">
        <ele>170.100006104</ele>
        <time>2015-11-11T09:56:00.992Z</time>
      </trkpt>
      <trkpt lat="45.87688" lon="4.83675">
        <ele>170</ele>
        <time>2015-11-11T09:56:01.979Z</time>
      </trkpt>
      <trkpt lat="45.87688" lon="4.83687">
        <ele>169.899993896</ele>
        <time>2015-11-11T09:56:03.992Z</time>
      </trkpt>
      <trkpt lat="45.87689" lon="4.83693">
        <ele>169.899993896</ele>
        <time>2015-11-11T09:56:04.98Z</time>
      </trkpt>
      <trkpt lat="45.8769" lon="4.83706">
        <ele>169.5</ele>
        <time>2015-11-11T09:56:07.006Z</time>
      </trkpt>
      <trkpt lat="45.8769" lon="4.83712">
        <ele>169.699996948</ele>
        <time>2015-11-11T09:56:07.978Z</time>
      </trkpt>
      <trkpt lat="45.87691" lon="4.83719">
        <ele>169.699996948</ele>
        <time>2015-11-11T09:56:08.996Z</time>
      </trkpt>
      <trkpt lat="45.87691" lon="4.83725">
        <ele>169.800003052</ele>
        <time>2015-11-11T09:56:10.014Z</time>
      </trkpt>
      <trkpt lat="45.87692" lon="4.83732">
        <ele>170</ele>
        <time>2015-11-11T09:56:10.994Z</time>
      </trkpt>
      <trkpt lat="45.87692" lon="4.83739">
        <ele>169.899993896</ele>
        <time>2015-11-11T09:56:11.978Z</time>
      </trkpt>
      <trkpt lat="45.87693" lon="4.83747">
        <ele>169.800003052</ele>
        <time>2015-11-11T09:56:12.992Z</time>
      </trkpt>
      <trkpt lat="45.87693" lon="4.83755">
        <ele>169.399993896</ele>
        <time>2015-11-11T09:56:13.978Z</time>
      </trkpt>
      <trkpt lat="45.87694" lon="4.83762">
        <ele>169.199996948</ele>
        <time>2015-11-11T09:56:14.996Z</time>
      </trkpt>
      <trkpt lat="45.87694" lon="4.83771">
        <ele>168.899993896</ele>
        <time>2015-11-11T09:56:15.978Z</time>
      </trkpt>
      <trkpt lat="45.87695" lon="4.83778">
        <ele>168.600006104</ele>
        <time>2015-11-11T09:56:16.993Z</time>
      </trkpt>
      <trkpt lat="45.87696" lon="4.83786">
        <ele>168.399993896</ele>
        <time>2015-11-11T09:56:17.978Z</time>
      </trkpt>
      <trkpt lat="45.87697" lon="4.83794">
        <ele>167.800003052</ele>
        <time>2015-11-11T09:56:18.992Z</time>
      </trkpt>
      <trkpt lat="45.87697" lon="4.83802">
        <ele>167.199996948</ele>
        <time>2015-11-11T09:56:19.978Z</time>
      </trkpt>
      <trkpt lat="45.87698" lon="4.8381">
        <ele>166.899993896</ele>
        <time>2015-11-11T09:56:21Z</time>
      </trkpt>
      <trkpt lat="45.87699" lon="4.83817">
        <ele>166.100006104</ele>
        <time>2015-11-11T09:56:21.978Z</time>
      </trkpt>
      <trkpt lat="45.87699" lon="4.83824">
        <ele>165.699996948</ele>
        <time>2015-11-11T09:56:23.006Z</time>
      </trkpt>
      <trkpt lat="45.87699" lon="4.83832">
        <ele>165.5</ele>
        <time>2015-11-11T09:56:23.978Z</time>
      </trkpt>
      <trkpt lat="45.87699" lon="4.8384">
        <ele>165.100006104</ele>
        <time>2015-11-11T09:56:24.992Z</time>
      </trkpt>
      <trkpt lat="45.877" lon="4.83848">
        <ele>164.600006104</ele>
        <time>2015-11-11T09:56:25.978Z</time>
      </trkpt>
      <trkpt lat="45.87702" lon="4.83856">
        <ele>164.199996948</ele>
        <time>2015-11-11T09:56:26.996Z</time>
      </trkpt>
      <trkpt lat="45.87705" lon="4.83863">
        <ele>164</ele>
        <time>2015-11-11T09:56:27.978Z</time>
      </trkpt>
      <trkpt lat="45.87709" lon="4.8387">
        <ele>163.699996948</ele>
        <time>2015-11-11T09:56:28.993Z</time>
      </trkpt>
      <trkpt lat="45.87712" lon="4.83876">
        <ele>163.600006104</ele>
        <time>2015-11-11T09:56:29.978Z</time>
      </trkpt>
      <trkpt lat="45.87715" lon="4.83884">
        <ele>163.300003052</ele>
        <time>2015-11-11T09:56:30.992Z</time>
      </trkpt>
      <trkpt lat="45.87715" lon="4.83892">
        <ele>163.199996948</ele>
        <time>2015-11-11T09:56:31.978Z</time>
      </trkpt>
      <trkpt lat="45.87716" lon="4.83899">
        <ele>163.100006104</ele>
        <time>2015-11-11T09:56:32.996Z</time>
      </trkpt>
      <trkpt lat="45.87717" lon="4.83906">
        <ele>162.899993896</ele>
        <time>2015-11-11T09:56:33.978Z</time>
      </trkpt>
      <trkpt lat="45.87718" lon="4.83913">
        <ele>162.899993896</ele>
        <time>2015-11-11T09:56:34.993Z</time>
      </trkpt>
      <trkpt lat="45.87718" lon="4.8392">
        <ele>162.699996948</ele>
        <time>2015-11-11T09:56:35.978Z</time>
      </trkpt>
      <trkpt lat="45.87721" lon="4.83931">
        <ele>162.5</ele>
        <time>2015-11-11T09:56:37.992Z</time>
      </trkpt>
      <trkpt lat="45.87721" lon="4.83937">
        <ele>162.399993896</ele>
        <time>2015-11-11T09:56:38.996Z</time>
      </trkpt>
      <trkpt lat="45.87722" lon="4.83947">
        <ele>162.199996948</ele>
        <time>2015-11-11T09:56:40.993Z</time>
      </trkpt>
      <trkpt lat="45.87723" lon="4.83951">
        <ele>162.199996948</ele>
        <time>2015-11-11T09:56:41.978Z</time>
      </trkpt>
      <trkpt lat="45.87726" lon="4.83961">
        <ele>161.699996948</ele>
        <time>2015-11-11T09:56:45Z</time>
      </trkpt>
      <trkpt lat="45.87727" lon="4.83964">
        <ele>161.699996948</ele>
        <time>2015-11-11T09:56:45.978Z</time>
      </trkpt>
      <trkpt lat="45.87729" lon="4.83974">
        <ele>161.600006104</ele>
        <time>2015-11-11T09:56:48.992Z</time>
      </trkpt>
      <trkpt lat="45.87729" lon="4.83977">
        <ele>161.300003052</ele>
        <time>2015-11-11T09:56:49.978Z</time>
      </trkpt>
      <trkpt lat="45.87733" lon="4.83988">
        <ele>161.399993896</ele>
        <time>2015-11-11T09:56:53.109Z</time>
      </trkpt>
      <trkpt lat="45.87734" lon="4.83992">
        <ele>162.300003052</ele>
        <time>2015-11-11T09:56:53.978Z</time>
      </trkpt>
      <trkpt lat="45.87735" lon="4.84004">
        <ele>163.699996948</ele>
        <time>2015-11-11T09:56:56.995Z</time>
      </trkpt>
      <trkpt lat="45.87735" lon="4.84009">
        <ele>164</ele>
        <time>2015-11-11T09:56:57.978Z</time>
      </trkpt>
      <trkpt lat="45.87732" lon="4.84016">
        <ele>164.800003052</ele>
        <time>2015-11-11T09:56:59.992Z</time>
      </trkpt>
      <trkpt lat="45.87729" lon="4.8402">
        <ele>165.199996948</ele>
        <time>2015-11-11T09:57:00.991Z</time>
      </trkpt>
      <trkpt lat="45.87727" lon="4.84029">
        <ele>165.399993896</ele>
        <time>2015-11-11T09:57:02.995Z</time>
      </trkpt>
      <trkpt lat="45.87726" lon="4.84034">
        <ele>165.5</ele>
        <time>2015-11-11T09:57:03.978Z</time>
      </trkpt>
      <trkpt lat="45.87722" lon="4.84044">
        <ele>165.699996948</ele>
        <time>2015-11-11T09:57:05.992Z</time>
      </trkpt>
      <trkpt lat="45.87719" lon="4.8405">
        <ele>165.699996948</ele>
        <time>2015-11-11T09:57:06.978Z</time>
      </trkpt>
      <trkpt lat="45.87715" lon="4.84059">
        <ele>166.199996948</ele>
        <time>2015-11-11T09:57:09.111Z</time>
      </trkpt>
      <trkpt lat="45.87712" lon="4.84064">
        <ele>166.199996948</ele>
        <time>2015-11-11T09:57:09.978Z</time>
      </trkpt>
      <trkpt lat="45.87708" lon="4.84073">
        <ele>166.5</ele>
        <time>2015-11-11T09:57:12.005Z</time>
      </trkpt>
      <trkpt lat="45.87706" lon="4.84078">
        <ele>166.5</ele>
        <time>2015-11-11T09:57:12.979Z</time>
      </trkpt>
      <trkpt lat="45.87703" lon="4.84089">
        <ele>167</ele>
        <time>2015-11-11T09:57:14.996Z</time>
      </trkpt>
      <trkpt lat="45.87701" lon="4.84093">
        <ele>167.300003052</ele>
        <time>2015-11-11T09:57:15.978Z</time>
      </trkpt>
      <trkpt lat="45.87697" lon="4.84101">
        <ele>168.399993896</ele>
        <time>2015-11-11T09:57:17.993Z</time>
      </trkpt>
      <trkpt lat="45.87694" lon="4.84105">
        <ele>168.600006104</ele>
        <time>2015-11-11T09:57:18.978Z</time>
      </trkpt>
      <trkpt lat="45.8769" lon="4.84113">
        <ele>169.5</ele>
        <time>2015-11-11T09:57:21.029Z</time>
      </trkpt>
      <trkpt lat="45.87688" lon="4.84117">
        <ele>170.199996948</ele>
        <time>2015-11-11T09:57:21.978Z</time>
      </trkpt>
      <trkpt lat="45.87684" lon="4.84126">
        <ele>171</ele>
        <time>2015-11-11T09:57:23.992Z</time>
      </trkpt>
      <trkpt lat="45.87683" lon="4.8413">
        <ele>171.399993896</ele>
        <time>2015-11-11T09:57:24.978Z</time>
      </trkpt>
      <trkpt lat="45.8768" lon="4.8414">
        <ele>172.100006104</ele>
        <time>2015-11-11T09:57:27.003Z</time>
      </trkpt>
      <trkpt lat="45.87679" lon="4.84144">
        <ele>172.199996948</ele>
        <time>2015-11-11T09:57:27.978Z</time>
      </trkpt>
      <trkpt lat="45.87677" lon="4.84154">
        <ele>173.300003052</ele>
        <time>2015-11-11T09:57:29.992Z</time>
      </trkpt>
      <trkpt lat="45.87676" lon="4.84159">
        <ele>173.699996948</ele>
        <time>2015-11-11T09:57:30.978Z</time>
      </trkpt>
      <trkpt lat="45.87676" lon="4.84167">
        <ele>174.600006104</ele>
        <time>2015-11-11T09:57:33.009Z</time>
      </trkpt>
      <trkpt lat="45.87676" lon="4.84172">
        <ele>174.800003052</ele>
        <time>2015-11-11T09:57:33.978Z</time>
      </trkpt>
      <trkpt lat="45.87674" lon="4.84182">
        <ele>174.600006104</ele>
        <time>2015-11-11T09:57:35.992Z</time>
      </trkpt>
      <trkpt lat="45.87673" lon="4.84188">
        <ele>174.600006104</ele>
        <time>2015-11-11T09:57:36.978Z</time>
      </trkpt>
      <trkpt lat="45.87669" lon="4.84198">
        <ele>174.699996948</ele>
        <time>2015-11-11T09:57:38.996Z</time>
      </trkpt>
      <trkpt lat="45.87668" lon="4.84204">
        <ele>175</ele>
        <time>2015-11-11T09:57:39.98Z</time>
      </trkpt>
      <trkpt lat="45.87667" lon="4.84215">
        <ele>175</ele>
        <time>2015-11-11T09:57:41.992Z</time>
      </trkpt>
      <trkpt lat="45.87666" lon="4.84221">
        <ele>175.199996948</ele>
        <time>2015-11-11T09:57:42.978Z</time>
      </trkpt>
      <trkpt lat="45.87664" lon="4.84233">
        <ele>175.300003052</ele>
        <time>2015-11-11T09:57:44.998Z</time>
      </trkpt>
      <trkpt lat="45.87663" lon="4.84239">
        <ele>175.300003052</ele>
        <time>2015-11-11T09:57:45.98Z</time>
      </trkpt>
      <trkpt lat="45.87661" lon="4.84251">
        <ele>174.800003052</ele>
        <time>2015-11-11T09:57:47.994Z</time>
      </trkpt>
      <trkpt lat="45.8766" lon="4.84257">
        <ele>174.5</ele>
        <time>2015-11-11T09:57:48.98Z</time>
      </trkpt>
      <trkpt lat="45.87659" lon="4.84268">
        <ele>174.5</ele>
        <time>2015-11-11T09:57:50.996Z</time>
      </trkpt>
      <trkpt lat="45.87658" lon="4.84274">
        <ele>174.600006104</ele>
        <time>2015-11-11T09:57:51.978Z</time>
      </trkpt>
      <trkpt lat="45.87657" lon="4.84284">
        <ele>175.300003052</ele>
        <time>2015-11-11T09:57:54.028Z</time>
      </trkpt>
      <trkpt lat="45.87656" lon="4.84287">
        <ele>176</ele>
        <time>2015-11-11T09:57:54.978Z</time>
      </trkpt>
      <trkpt lat="45.87651" lon="4.84295">
        <ele>176.300003052</ele>
        <time>2015-11-11T09:57:57.992Z</time>
      </trkpt>
      <trkpt lat="45.87649" lon="4.84298">
        <ele>176.600006104</ele>
        <time>2015-11-11T09:57:58.979Z</time>
      </trkpt>
      <trkpt lat="45.87646" lon="4.84305">
        <ele>176.600006104</ele>
        <time>2015-11-11T09:58:01.002Z</time>
      </trkpt>
      <trkpt lat="45.87644" lon="4.84309">
        <ele>176.5</ele>
        <time>2015-11-11T09:58:01.978Z</time>
      </trkpt>
      <trkpt lat="45.87646" lon="4.84319">
        <ele>176.399993896</ele>
        <time>2015-11-11T09:58:03.992Z</time>
      </trkpt>
      <trkpt lat="45.87646" lon="4.84323">
        <ele>176.399993896</ele>
        <time>2015-11-11T09:58:04.98Z</time>
      </trkpt>
      <trkpt lat="45.87647" lon="4.84333">
        <ele>176.100006104</ele>
        <time>2015-11-11T09:58:06.992Z</time>
      </trkpt>
      <trkpt lat="45.87648" lon="4.84338">
        <ele>176</ele>
        <time>2015-11-11T09:58:07.978Z</time>
      </trkpt>
      <trkpt lat="45.87649" lon="4.84348">
        <ele>175.399993896</ele>
        <time>2015-11-11T09:58:09.992Z</time>
      </trkpt>
      <trkpt lat="45.8765" lon="4.84353">
        <ele>175.699996948</ele>
        <time>2015-11-11T09:58:10.98Z</time>
      </trkpt>
      <trkpt lat="45.8765" lon="4.84363">
        <ele>176</ele>
        <time>2015-11-11T09:58:12.992Z</time>
      </trkpt>
      <trkpt lat="45.87651" lon="4.84367">
        <ele>176</ele>
        <time>2015-11-11T09:58:13.978Z</time>
      </trkpt>
      <trkpt lat="45.87652" lon="4.84376">
        <ele>176</ele>
        <time>2015-11-11T09:58:16.006Z</time>
      </trkpt>
      <trkpt lat="45.87653" lon="4.8438">
        <ele>176.100006104</ele>
        <time>2015-11-11T09:58:16.979Z</time>
      </trkpt>
      <trkpt lat="45.87654" lon="4.84389">
        <ele>177.5</ele>
        <time>2015-11-11T09:58:18.992Z</time>
      </trkpt>
      <trkpt lat="45.87655" lon="4.84394">
        <ele>177.5</ele>
        <time>2015-11-11T09:58:19.978Z</time>
      </trkpt>
      <trkpt lat="45.87655" lon="4.84404">
        <ele>177.5</ele>
        <time>2015-11-11T09:58:21.992Z</time>
      </trkpt>
      <trkpt lat="45.87655" lon="4.84408">
        <ele>177.800003052</ele>
        <time>2015-11-11T09:58:22.979Z</time>
      </trkpt>
      <trkpt lat="45.87656" lon="4.84418">
        <ele>178.100006104</ele>
        <time>2015-11-11T09:58:24.991Z</time>
      </trkpt>
      <trkpt lat="45.87656" lon="4.84423">
        <ele>178.100006104</ele>
        <time>2015-11-11T09:58:25.978Z</time>
      </trkpt>
      <trkpt lat="45.87657" lon="4.84432">
        <ele>178.399993896</ele>
        <time>2015-11-11T09:58:28.003Z</time>
      </trkpt>
      <trkpt lat="45.87657" lon="4.84436">
        <ele>178.5</ele>
        <time>2015-11-11T09:58:28.979Z</time>
      </trkpt>
      <trkpt lat="45.87657" lon="4.84445">
        <ele>178.600006104</ele>
        <time>2015-11-11T09:58:30.994Z</time>
      </trkpt>
      <trkpt lat="45.87657" lon="4.8445">
        <ele>178.699996948</ele>
        <time>2015-11-11T09:58:31.978Z</time>
      </trkpt>
      <trkpt lat="45.87658" lon="4.84459">
        <ele>179</ele>
        <time>2015-11-11T09:58:33.992Z</time>
      </trkpt>
      <trkpt lat="45.87658" lon="4.84463">
        <ele>179.100006104</ele>
        <time>2015-11-11T09:58:34.979Z</time>
      </trkpt>
      <trkpt lat="45.87658" lon="4.84473">
        <ele>179.300003052</ele>
        <time>2015-11-11T09:58:37.005Z</time>
      </trkpt>
      <trkpt lat="45.87658" lon="4.84478">
        <ele>179.699996948</ele>
        <time>2015-11-11T09:58:37.978Z</time>
      </trkpt>
      <trkpt lat="45.87659" lon="4.84487">
        <ele>179.899993896</ele>
        <time>2015-11-11T09:58:39.995Z</time>
      </trkpt>
      <trkpt lat="45.87659" lon="4.84491">
        <ele>180</ele>
        <time>2015-11-11T09:58:40.979Z</time>
      </trkpt>
      <trkpt lat="45.87662" lon="4.84499">
        <ele>180.300003052</ele>
        <time>2015-11-11T09:58:42.992Z</time>
      </trkpt>
      <trkpt lat="45.87663" lon="4.84503">
        <ele>180.300003052</ele>
        <time>2015-11-11T09:58:43.978Z</time>
      </trkpt>
      <trkpt lat="45.87665" lon="4.84515">
        <ele>180.800003052</ele>
        <time>2015-11-11T09:58:46.993Z</time>
      </trkpt>
      <trkpt lat="45.87665" lon="4.8452">
        <ele>181.100006104</ele>
        <time>2015-11-11T09:58:47.978Z</time>
      </trkpt>
      <trkpt lat="45.87665" lon="4.84533">
        <ele>182.199996948</ele>
        <time>2015-11-11T09:58:50.995Z</time>
      </trkpt>
      <trkpt lat="45.87664" lon="4.84537">
        <ele>182.5</ele>
        <time>2015-11-11T09:58:51.978Z</time>
      </trkpt>
      <trkpt lat="45.87662" lon="4.84549">
        <ele>183.399993896</ele>
        <time>2015-11-11T09:58:55.018Z</time>
      </trkpt>
      <trkpt lat="45.87661" lon="4.84552">
        <ele>183.600006104</ele>
        <time>2015-11-11T09:58:55.978Z</time>
      </trkpt>
      <trkpt lat="45.87658" lon="4.84564">
        <ele>183.699996948</ele>
        <time>2015-11-11T09:58:58.994Z</time>
      </trkpt>
      <trkpt lat="45.87658" lon="4.84569">
        <ele>183.899993896</ele>
        <time>2015-11-11T09:58:59.978Z</time>
      </trkpt>
      <trkpt lat="45.87658" lon="4.84581">
        <ele>185.100006104</ele>
        <time>2015-11-11T09:59:02.996Z</time>
      </trkpt>
      <trkpt lat="45.87657" lon="4.84585">
        <ele>185.300003052</ele>
        <time>2015-11-11T09:59:03.988Z</time>
      </trkpt>
      <trkpt lat="45.87656" lon="4.84597">
        <ele>185.699996948</ele>
        <time>2015-11-11T09:59:06.992Z</time>
      </trkpt>
      <trkpt lat="45.87656" lon="4.84601">
        <ele>186</ele>
        <time>2015-11-11T09:59:07.977Z</time>
      </trkpt>
      <trkpt lat="45.87655" lon="4.8461">
        <ele>186.5</ele>
        <time>2015-11-11T09:59:09.992Z</time>
      </trkpt>
      <trkpt lat="45.87654" lon="4.84615">
        <ele>186.699996948</ele>
        <time>2015-11-11T09:59:10.979Z</time>
      </trkpt>
      <trkpt lat="45.87654" lon="4.84624">
        <ele>187.5</ele>
        <time>2015-11-11T09:59:12.992Z</time>
      </trkpt>
      <trkpt lat="45.87654" lon="4.84628">
        <ele>187.5</ele>
        <time>2015-11-11T09:59:13.978Z</time>
      </trkpt>
      <trkpt lat="45.87652" lon="4.8464">
        <ele>188.5</ele>
        <time>2015-11-11T09:59:16.993Z</time>
      </trkpt>
      <trkpt lat="45.87652" lon="4.84643">
        <ele>189</ele>
        <time>2015-11-11T09:59:17.978Z</time>
      </trkpt>
      <trkpt lat="45.87652" lon="4.84655">
        <ele>190</ele>
        <time>2015-11-11T09:59:20.996Z</time>
      </trkpt>
      <trkpt lat="45.87652" lon="4.84659">
        <ele>190.699996948</ele>
        <time>2015-11-11T09:59:21.977Z</time>
      </trkpt>
      <trkpt lat="45.8765" lon="4.8467">
        <ele>191.5</ele>
        <time>2015-11-11T09:59:24.992Z</time>
      </trkpt>
      <trkpt lat="45.87649" lon="4.84674">
        <ele>191.5</ele>
        <time>2015-11-11T09:59:25.978Z</time>
      </trkpt>
      <trkpt lat="45.87648" lon="4.84685">
        <ele>191.899993896</ele>
        <time>2015-11-11T09:59:28.993Z</time>
      </trkpt>
      <trkpt lat="45.87647" lon="4.84689">
        <ele>191.899993896</ele>
        <time>2015-11-11T09:59:29.978Z</time>
      </trkpt>
      <trkpt lat="45.87646" lon="4.84699">
        <ele>191.899993896</ele>
        <time>2015-11-11T09:59:32.996Z</time>
      </trkpt>
      <trkpt lat="45.87646" lon="4.84703">
        <ele>192.100006104</ele>
        <time>2015-11-11T09:59:33.977Z</time>
      </trkpt>
      <trkpt lat="45.87646" lon="4.84712">
        <ele>192.600006104</ele>
        <time>2015-11-11T09:59:36.992Z</time>
      </trkpt>
      <trkpt lat="45.87645" lon="4.84716">
        <ele>192.699996948</ele>
        <time>2015-11-11T09:59:37.977Z</time>
      </trkpt>
      <trkpt lat="45.87643" lon="4.84727">
        <ele>192.5</ele>
        <time>2015-11-11T09:59:40.991Z</time>
      </trkpt>
      <trkpt lat="45.87642" lon="4.8473">
        <ele>192.600006104</ele>
        <time>2015-11-11T09:59:41.978Z</time>
      </trkpt>
      <trkpt lat="45.8764" lon="4.8474">
        <ele>192.699996948</ele>
        <time>2015-11-11T09:59:44.995Z</time>
      </trkpt>
      <trkpt lat="45.8764" lon="4.84743">
        <ele>192.899993896</ele>
        <time>2015-11-11T09:59:45.978Z</time>
      </trkpt>
      <trkpt lat="45.87639" lon="4.84754">
        <ele>193.199996948</ele>
        <time>2015-11-11T09:59:48.992Z</time>
      </trkpt>
      <trkpt lat="45.87639" lon="4.84757">
        <ele>193.300003052</ele>
        <time>2015-11-11T09:59:49.978Z</time>
      </trkpt>
      <trkpt lat="45.87638" lon="4.84769">
        <ele>194.800003052</ele>
        <time>2015-11-11T09:59:53.992Z</time>
      </trkpt>
      <trkpt lat="45.87638" lon="4.84772">
        <ele>195</ele>
        <time>2015-11-11T09:59:54.978Z</time>
      </trkpt>
      <trkpt lat="45.87637" lon="4.84785">
        <ele>196.199996948</ele>
        <time>2015-11-11T09:59:58.993Z</time>
      </trkpt>
      <trkpt lat="45.87637" lon="4.84788">
        <ele>196.699996948</ele>
        <time>2015-11-11T09:59:59.978Z</time>
      </trkpt>
      <trkpt lat="45.87635" lon="4.848">
        <ele>197.199996948</ele>
        <time>2015-11-11T10:00:03.992Z</time>
      </trkpt>
      <trkpt lat="45.87635" lon="4.84803">
        <ele>197.699996948</ele>
        <time>2015-11-11T10:00:04.978Z</time>
      </trkpt>
      <trkpt lat="45.87634" lon="4.84815">
        <ele>198</ele>
        <time>2015-11-11T10:00:08.996Z</time>
      </trkpt>
      <trkpt lat="45.87634" lon="4.84817">
        <ele>197.899993896</ele>
        <time>2015-11-11T10:00:09.977Z</time>
      </trkpt>
      <trkpt lat="45.87633" lon="4.84828">
        <ele>198.5</ele>
        <time>2015-11-11T10:00:12.991Z</time>
      </trkpt>
      <trkpt lat="45.87632" lon="4.84831">
        <ele>198.699996948</ele>
        <time>2015-11-11T10:00:13.977Z</time>
      </trkpt>
      <trkpt lat="45.8763" lon="4.84842">
        <ele>199.199996948</ele>
        <time>2015-11-11T10:00:17.992Z</time>
      </trkpt>
      <trkpt lat="45.87629" lon="4.84845">
        <ele>198.800003052</ele>
        <time>2015-11-11T10:00:18.977Z</time>
      </trkpt>
      <trkpt lat="45.8763" lon="4.84857">
        <ele>199.600006104</ele>
        <time>2015-11-11T10:00:23.009Z</time>
      </trkpt>
      <trkpt lat="45.87631" lon="4.8486">
        <ele>199</ele>
        <time>2015-11-11T10:00:23.996Z</time>
      </trkpt>
      <trkpt lat="45.87635" lon="4.84869">
        <ele>199.300003052</ele>
        <time>2015-11-11T10:00:26.996Z</time>
      </trkpt>
      <trkpt lat="45.87636" lon="4.84871">
        <ele>199.399993896</ele>
        <time>2015-11-11T10:00:27.991Z</time>
      </trkpt>
      <trkpt lat="45.87641" lon="4.84878">
        <ele>199.399993896</ele>
        <time>2015-11-11T10:00:31.006Z</time>
      </trkpt>
      <trkpt lat="45.87643" lon="4.84881">
        <ele>199.5</ele>
        <time>2015-11-11T10:00:31.977Z</time>
      </trkpt>
      <trkpt lat="45.8765" lon="4.8489">
        <ele>201.800003052</ele>
        <time>2015-11-11T10:00:35.991Z</time>
      </trkpt>
      <trkpt lat="45.87651" lon="4.84892">
        <ele>201.899993896</ele>
        <time>2015-11-11T10:00:36.979Z</time>
      </trkpt>
      <trkpt lat="45.87658" lon="4.849">
        <ele>203.600006104</ele>
        <time>2015-11-11T10:00:40.993Z</time>
      </trkpt>
      <trkpt lat="45.87659" lon="4.84902">
        <ele>204.199996948</ele>
        <time>2015-11-11T10:00:41.977Z</time>
      </trkpt>
      <trkpt lat="45.87664" lon="4.84909">
        <ele>205.100006104</ele>
        <time>2015-11-11T10:00:44.995Z</time>
      </trkpt>
      <trkpt lat="45.87666" lon="4.84912">
        <ele>205.300003052</ele>
        <time>2015-11-11T10:00:45.988Z</time>
      </trkpt>
      <trkpt lat="45.87671" lon="4.84921">
        <ele>205.800003052</ele>
        <time>2015-11-11T10:00:49.993Z</time>
      </trkpt>
      <trkpt lat="45.87673" lon="4.84924">
        <ele>205.899993896</ele>
        <time>2015-11-11T10:00:50.981Z</time>
      </trkpt>
      <trkpt lat="45.87677" lon="4.84932">
        <ele>205.699996948</ele>
        <time>2015-11-11T10:00:53.992Z</time>
      </trkpt>
      <trkpt lat="45.87679" lon="4.84934">
        <ele>205.899993896</ele>
        <time>2015-11-11T10:00:54.978Z</time>
      </trkpt>
      <trkpt lat="45.87684" lon="4.84941">
        <ele>205.699996948</ele>
        <time>2015-11-11T10:00:58.006Z</time>
      </trkpt>
      <trkpt lat="45.87685" lon="4.84943">
        <ele>205.800003052</ele>
        <time>2015-11-11T10:00:58.98Z</time>
      </trkpt>
      <trkpt lat="45.87692" lon="4.84951">
        <ele>206.300003052</ele>
        <time>2015-11-11T10:01:02.996Z</time>
      </trkpt>
      <trkpt lat="45.87694" lon="4.84953">
        <ele>206.100006104</ele>
        <time>2015-11-11T10:01:03.977Z</time>
      </trkpt>
      <trkpt lat="45.877" lon="4.84962">
        <ele>206.5</ele>
        <time>2015-11-11T10:01:08.04Z</time>
      </trkpt>
      <trkpt lat="45.87701" lon="4.84963">
        <ele>206.800003052</ele>
        <time>2015-11-11T10:01:08.981Z</time>
      </trkpt>
      <trkpt lat="45.87707" lon="4.84972">
        <ele>206.899993896</ele>
        <time>2015-11-11T10:01:12.991Z</time>
      </trkpt>
      <trkpt lat="45.87708" lon="4.84974">
        <ele>206.800003052</ele>
        <time>2015-11-11T10:01:13.978Z</time>
      </trkpt>
      <trkpt lat="45.87713" lon="4.84981">
        <ele>206.600006104</ele>
        <time>2015-11-11T10:01:17.027Z</time>
      </trkpt>
      <trkpt lat="45.87715" lon="4.84983">
        <ele>206.899993896</ele>
        <time>2015-11-11T10:01:17.977Z</time>
      </trkpt>
      <trkpt lat="45.87721" lon="4.84991">
        <ele>208.5</ele>
        <time>2015-11-11T10:01:21.991Z</time>
      </trkpt>
      <trkpt lat="45.87722" lon="4.84993">
        <ele>208.899993896</ele>
        <time>2015-11-11T10:01:22.978Z</time>
      </trkpt>
      <trkpt lat="45.87728" lon="4.85002">
        <ele>210.300003052</ele>
        <time>2015-11-11T10:01:26.996Z</time>
      </trkpt>
      <trkpt lat="45.8773" lon="4.85005">
        <ele>210.5</ele>
        <time>2015-11-11T10:01:27.978Z</time>
      </trkpt>
      <trkpt lat="45.87734" lon="4.85011">
        <ele>211.100006104</ele>
        <time>2015-11-11T10:01:30.992Z</time>
      </trkpt>
      <trkpt lat="45.87736" lon="4.85014">
        <ele>211.399993896</ele>
        <time>2015-11-11T10:01:31.977Z</time>
      </trkpt>
      <trkpt lat="45.8774" lon="4.85021">
        <ele>212</ele>
        <time>2015-11-11T10:01:35.005Z</time>
      </trkpt>
      <trkpt lat="45.87742" lon="4.85023">
        <ele>211.699996948</ele>
        <time>2015-11-11T10:01:35.978Z</time>
      </trkpt>
      <trkpt lat="45.87747" lon="4.8503">
        <ele>213.100006104</ele>
        <time>2015-11-11T10:01:39.006Z</time>
      </trkpt>
      <trkpt lat="45.87749" lon="4.85032">
        <ele>213.399993896</ele>
        <time>2015-11-11T10:01:39.98Z</time>
      </trkpt>
      <trkpt lat="45.87753" lon="4.85039">
        <ele>214.100006104</ele>
        <time>2015-11-11T10:01:42.991Z</time>
      </trkpt>
      <trkpt lat="45.87755" lon="4.85041">
        <ele>214</ele>
        <time>2015-11-11T10:01:43.977Z</time>
      </trkpt>
      <trkpt lat="45.87761" lon="4.85048">
        <ele>213.600006104</ele>
        <time>2015-11-11T10:01:46.993Z</time>
      </trkpt>
      <trkpt lat="45.87762" lon="4.85051">
        <ele>213.5</ele>
        <time>2015-11-11T10:01:47.977Z</time>
      </trkpt>
      <trkpt lat="45.87768" lon="4.85059">
        <ele>214</ele>
        <time>2015-11-11T10:01:51.992Z</time>
      </trkpt>
      <trkpt lat="45.8777" lon="4.85061">
        <ele>214.199996948</ele>
        <time>2015-11-11T10:01:52.978Z</time>
      </trkpt>
      <trkpt lat="45.87775" lon="4.85068">
        <ele>214.800003052</ele>
        <time>2015-11-11T10:01:56.038Z</time>
      </trkpt>
      <trkpt lat="45.87777" lon="4.8507">
        <ele>215</ele>
        <time>2015-11-11T10:01:57.001Z</time>
      </trkpt>
      <trkpt lat="45.87782" lon="4.85077">
        <ele>214.800003052</ele>
        <time>2015-11-11T10:01:59.991Z</time>
      </trkpt>
      <trkpt lat="45.87784" lon="4.85079">
        <ele>214.800003052</ele>
        <time>2015-11-11T10:02:00.977Z</time>
      </trkpt>
      <trkpt lat="45.87789" lon="4.85087">
        <ele>214.899993896</ele>
        <time>2015-11-11T10:02:03.991Z</time>
      </trkpt>
      <trkpt lat="45.87791" lon="4.85089">
        <ele>215</ele>
        <time>2015-11-11T10:02:04.978Z</time>
      </trkpt>
      <trkpt lat="45.87796" lon="4.85096">
        <ele>215.699996948</ele>
        <time>2015-11-11T10:02:07.992Z</time>
      </trkpt>
      <trkpt lat="45.87798" lon="4.85098">
        <ele>215.5</ele>
        <time>2015-11-11T10:02:08.981Z</time>
      </trkpt>
      <trkpt lat="45.87803" lon="4.85105">
        <ele>215.199996948</ele>
        <time>2015-11-11T10:02:12.039Z</time>
      </trkpt>
      <trkpt lat="45.87805" lon="4.85108">
        <ele>215.699996948</ele>
        <time>2015-11-11T10:02:12.977Z</time>
      </trkpt>
      <trkpt lat="45.8781" lon="4.85115">
        <ele>216.399993896</ele>
        <time>2015-11-11T10:02:15.992Z</time>
      </trkpt>
      <trkpt lat="45.87811" lon="4.85117">
        <ele>216.5</ele>
        <time>2015-11-11T10:02:16.978Z</time>
      </trkpt>
      <trkpt lat="45.87817" lon="4.85124">
        <ele>216.199996948</ele>
        <time>2015-11-11T10:02:19.992Z</time>
      </trkpt>
      <trkpt lat="45.87819" lon="4.85126">
        <ele>216.199996948</ele>
        <time>2015-11-11T10:02:20.981Z</time>
      </trkpt>
      <trkpt lat="45.87824" lon="4.85136">
        <ele>217</ele>
        <time>2015-11-11T10:02:24.993Z</time>
      </trkpt>
      <trkpt lat="45.87826" lon="4.85138">
        <ele>216.899993896</ele>
        <time>2015-11-11T10:02:25.977Z</time>
      </trkpt>
      <trkpt lat="45.87831" lon="4.85145">
        <ele>217</ele>
        <time>2015-11-11T10:02:28.992Z</time>
      </trkpt>
      <trkpt lat="45.87832" lon="4.85148">
        <ele>217.199996948</ele>
        <time>2015-11-11T10:02:29.977Z</time>
      </trkpt>
      <trkpt lat="45.87837" lon="4.85155">
        <ele>217.5</ele>
        <time>2015-11-11T10:02:32.995Z</time>
      </trkpt>
      <trkpt lat="45.87839" lon="4.85158">
        <ele>217.699996948</ele>
        <time>2015-11-11T10:02:33.977Z</time>
      </trkpt>
      <trkpt lat="45.87844" lon="4.85165">
        <ele>217.899993896</ele>
        <time>2015-11-11T10:02:36.991Z</time>
      </trkpt>
      <trkpt lat="45.87845" lon="4.85168">
        <ele>217.699996948</ele>
        <time>2015-11-11T10:02:37.977Z</time>
      </trkpt>
      <trkpt lat="45.8785" lon="4.85174">
        <ele>217.699996948</ele>
        <time>2015-11-11T10:02:40.992Z</time>
      </trkpt>
      <trkpt lat="45.87852" lon="4.85177">
        <ele>217.699996948</ele>
        <time>2015-11-11T10:02:41.978Z</time>
      </trkpt>
      <trkpt lat="45.87856" lon="4.85183">
        <ele>218.199996948</ele>
        <time>2015-11-11T10:02:44.995Z</time>
      </trkpt>
      <trkpt lat="45.87858" lon="4.85186">
        <ele>218.600006104</ele>
        <time>2015-11-11T10:02:45.978Z</time>
      </trkpt>
      <trkpt lat="45.87863" lon="4.85193">
        <ele>218.699996948</ele>
        <time>2015-11-11T10:02:48.992Z</time>
      </trkpt>
      <trkpt lat="45.87864" lon="4.85195">
        <ele>218.699996948</ele>
        <time>2015-11-11T10:02:49.979Z</time>
      </trkpt>
      <trkpt lat="45.8787" lon="4.85202">
        <ele>218.800003052</ele>
        <time>2015-11-11T10:02:52.994Z</time>
      </trkpt>
      <trkpt lat="45.87871" lon="4.85204">
        <ele>218.5</ele>
        <time>2015-11-11T10:02:53.979Z</time>
      </trkpt>
      <trkpt lat="45.87877" lon="4.85213">
        <ele>218.800003052</ele>
        <time>2015-11-11T10:02:58.098Z</time>
      </trkpt>
      <trkpt lat="45.87879" lon="4.85215">
        <ele>219.100006104</ele>
        <time>2015-11-11T10:02:59.028Z</time>
      </trkpt>
      <trkpt lat="45.87885" lon="4.85222">
        <ele>220.300003052</ele>
        <time>2015-11-11T10:03:02.078Z</time>
      </trkpt>
      <trkpt lat="45.87886" lon="4.85224">
        <ele>220.899993896</ele>
        <time>2015-11-11T10:03:03.098Z</time>
      </trkpt>
      <trkpt lat="45.87892" lon="4.85231">
        <ele>222.199996948</ele>
        <time>2015-11-11T10:03:06.045Z</time>
      </trkpt>
      <trkpt lat="45.87894" lon="4.85234">
        <ele>222.5</ele>
        <time>2015-11-11T10:03:07.018Z</time>
      </trkpt>
      <trkpt lat="45.87899" lon="4.85241">
        <ele>222.899993896</ele>
        <time>2015-11-11T10:03:09.992Z</time>
      </trkpt>
      <trkpt lat="45.879" lon="4.85243">
        <ele>222.699996948</ele>
        <time>2015-11-11T10:03:10.978Z</time>
      </trkpt>
      <trkpt lat="45.87906" lon="4.85249">
        <ele>223.399993896</ele>
        <time>2015-11-11T10:03:13.991Z</time>
      </trkpt>
      <trkpt lat="45.87907" lon="4.85251">
        <ele>223.5</ele>
        <time>2015-11-11T10:03:14.981Z</time>
      </trkpt>
      <trkpt lat="45.87912" lon="4.85258">
        <ele>223.800003052</ele>
        <time>2015-11-11T10:03:17.992Z</time>
      </trkpt>
      <trkpt lat="45.87914" lon="4.85261">
        <ele>223.800003052</ele>
        <time>2015-11-11T10:03:18.978Z</time>
      </trkpt>
      <trkpt lat="45.87919" lon="4.85268">
        <ele>224</ele>
        <time>2015-11-11T10:03:22.004Z</time>
      </trkpt>
      <trkpt lat="45.87921" lon="4.85271">
        <ele>224.100006104</ele>
        <time>2015-11-11T10:03:22.979Z</time>
      </trkpt>
      <trkpt lat="45.87928" lon="4.85279">
        <ele>224.800003052</ele>
        <time>2015-11-11T10:03:26.995Z</time>
      </trkpt>
      <trkpt lat="45.87929" lon="4.85281">
        <ele>225.600006104</ele>
        <time>2015-11-11T10:03:27.978Z</time>
      </trkpt>
      <trkpt lat="45.87933" lon="4.85289">
        <ele>225.899993896</ele>
        <time>2015-11-11T10:03:30.992Z</time>
      </trkpt>
      <trkpt lat="45.87934" lon="4.85292">
        <ele>226.199996948</ele>
        <time>2015-11-11T10:03:31.977Z</time>
      </trkpt>
      <trkpt lat="45.8794" lon="4.85299">
        <ele>226.300003052</ele>
        <time>2015-11-11T10:03:34.992Z</time>
      </trkpt>
      <trkpt lat="45.87942" lon="4.85301">
        <ele>226.199996948</ele>
        <time>2015-11-11T10:03:35.978Z</time>
      </trkpt>
      <trkpt lat="45.87948" lon="4.8531">
        <ele>226.5</ele>
        <time>2015-11-11T10:03:40Z</time>
      </trkpt>
      <trkpt lat="45.87949" lon="4.85313">
        <ele>226.600006104</ele>
        <time>2015-11-11T10:03:41.28Z</time>
      </trkpt>
      <trkpt lat="45.87955" lon="4.85319">
        <ele>226.5</ele>
        <time>2015-11-11T10:03:43.996Z</time>
      </trkpt>
      <trkpt lat="45.87956" lon="4.85321">
        <ele>226.600006104</ele>
        <time>2015-11-11T10:03:44.983Z</time>
      </trkpt>
      <trkpt lat="45.87961" lon="4.85328">
        <ele>227.300003052</ele>
        <time>2015-11-11T10:03:47.997Z</time>
      </trkpt>
      <trkpt lat="45.87962" lon="4.85331">
        <ele>227.399993896</ele>
        <time>2015-11-11T10:03:48.994Z</time>
      </trkpt>
      <trkpt lat="45.87967" lon="4.85341">
        <ele>227.5</ele>
        <time>2015-11-11T10:03:52.996Z</time>
      </trkpt>
      <trkpt lat="45.87968" lon="4.85343">
        <ele>228</ele>
        <time>2015-11-11T10:03:53.98Z</time>
      </trkpt>
      <trkpt lat="45.87975" lon="4.85352">
        <ele>227.5</ele>
        <time>2015-11-11T10:03:57.996Z</time>
      </trkpt>
      <trkpt lat="45.87976" lon="4.85354">
        <ele>227.600006104</ele>
        <time>2015-11-11T10:03:58.981Z</time>
      </trkpt>
      <trkpt lat="45.87981" lon="4.85361">
        <ele>228.399993896</ele>
        <time>2015-11-11T10:04:02.029Z</time>
      </trkpt>
      <trkpt lat="45.87982" lon="4.85363">
        <ele>228.5</ele>
        <time>2015-11-11T10:04:02.983Z</time>
      </trkpt>
      <trkpt lat="45.87987" lon="4.8537">
        <ele>228.800003052</ele>
        <time>2015-11-11T10:04:05.995Z</time>
      </trkpt>
      <trkpt lat="45.87989" lon="4.85373">
        <ele>228.699996948</ele>
        <time>2015-11-11T10:04:06.979Z</time>
      </trkpt>
      <trkpt lat="45.87994" lon="4.85379">
        <ele>229.300003052</ele>
        <time>2015-11-11T10:04:09.994Z</time>
      </trkpt>
      <trkpt lat="45.87996" lon="4.85382">
        <ele>229.5</ele>
        <time>2015-11-11T10:04:10.981Z</time>
      </trkpt>
      <trkpt lat="45.88002" lon="4.8539">
        <ele>230.100006104</ele>
        <time>2015-11-11T10:04:15.006Z</time>
      </trkpt>
      <trkpt lat="45.88004" lon="4.85392">
        <ele>230.300003052</ele>
        <time>2015-11-11T10:04:15.979Z</time>
      </trkpt>
      <trkpt lat="45.8801" lon="4.85397">
        <ele>230.899993896</ele>
        <time>2015-11-11T10:04:18.994Z</time>
      </trkpt>
      <trkpt lat="45.88012" lon="4.854">
        <ele>231.199996948</ele>
        <time>2015-11-11T10:04:19.978Z</time>
      </trkpt>
      <trkpt lat="45.88017" lon="4.85405">
        <ele>231.800003052</ele>
        <time>2015-11-11T10:04:23.112Z</time>
      </trkpt>
      <trkpt lat="45.8802" lon="4.85407">
        <ele>231.699996948</ele>
        <time>2015-11-11T10:04:23.978Z</time>
      </trkpt>
      <trkpt lat="45.88027" lon="4.85412">
        <ele>233.100006104</ele>
        <time>2015-11-11T10:04:27.994Z</time>
      </trkpt>
      <trkpt lat="45.88029" lon="4.85412">
        <ele>233.600006104</ele>
        <time>2015-11-11T10:04:28.981Z</time>
      </trkpt>
      <trkpt lat="45.88035" lon="4.85413">
        <ele>234.100006104</ele>
        <time>2015-11-11T10:04:31.994Z</time>
      </trkpt>
      <trkpt lat="45.88038" lon="4.85413">
        <ele>234.800003052</ele>
        <time>2015-11-11T10:04:32.983Z</time>
      </trkpt>
      <trkpt lat="45.88045" lon="4.85413">
        <ele>236.600006104</ele>
        <time>2015-11-11T10:04:35.995Z</time>
      </trkpt>
      <trkpt lat="45.88047" lon="4.85414">
        <ele>237</ele>
        <time>2015-11-11T10:04:36.978Z</time>
      </trkpt>
      <trkpt lat="45.88055" lon="4.85413">
        <ele>237.600006104</ele>
        <time>2015-11-11T10:04:39.995Z</time>
      </trkpt>
      <trkpt lat="45.88058" lon="4.85413">
        <ele>237.5</ele>
        <time>2015-11-11T10:04:40.979Z</time>
      </trkpt>
      <trkpt lat="45.88065" lon="4.85413">
        <ele>237.899993896</ele>
        <time>2015-11-11T10:04:43.993Z</time>
      </trkpt>
      <trkpt lat="45.88067" lon="4.85413">
        <ele>237.699996948</ele>
        <time>2015-11-11T10:04:44.984Z</time>
      </trkpt>
      <trkpt lat="45.88074" lon="4.85413">
        <ele>237.600006104</ele>
        <time>2015-11-11T10:04:47.993Z</time>
      </trkpt>
      <trkpt lat="45.88077" lon="4.85412">
        <ele>237.699996948</ele>
        <time>2015-11-11T10:04:48.978Z</time>
      </trkpt>
      <trkpt lat="45.88084" lon="4.85412">
        <ele>238.399993896</ele>
        <time>2015-11-11T10:04:51.994Z</time>
      </trkpt>
      <trkpt lat="45.88086" lon="4.85412">
        <ele>238.5</ele>
        <time>2015-11-11T10:04:52.98Z</time>
      </trkpt>
      <trkpt lat="45.88094" lon="4.85411">
        <ele>238.699996948</ele>
        <time>2015-11-11T10:04:55.993Z</time>
      </trkpt>
      <trkpt lat="45.88097" lon="4.8541">
        <ele>239.399993896</ele>
        <time>2015-11-11T10:04:56.995Z</time>
      </trkpt>
      <trkpt lat="45.88105" lon="4.85408">
        <ele>240.699996948</ele>
        <time>2015-11-11T10:05:00.993Z</time>
      </trkpt>
      <trkpt lat="45.88107" lon="4.85408">
        <ele>241.600006104</ele>
        <time>2015-11-11T10:05:01.979Z</time>
      </trkpt>
      <trkpt lat="45.88115" lon="4.85406">
        <ele>242.100006104</ele>
        <time>2015-11-11T10:05:04.995Z</time>
      </trkpt>
      <trkpt lat="45.88117" lon="4.85405">
        <ele>242.300003052</ele>
        <time>2015-11-11T10:05:05.978Z</time>
      </trkpt>
      <trkpt lat="45.88125" lon="4.85402">
        <ele>241.899993896</ele>
        <time>2015-11-11T10:05:08.997Z</time>
      </trkpt>
      <trkpt lat="45.88127" lon="4.85401">
        <ele>242.100006104</ele>
        <time>2015-11-11T10:05:09.98Z</time>
      </trkpt>
      <trkpt lat="45.88134" lon="4.85398">
        <ele>242.399993896</ele>
        <time>2015-11-11T10:05:13.008Z</time>
      </trkpt>
      <trkpt lat="45.88136" lon="4.85397">
        <ele>242.699996948</ele>
        <time>2015-11-11T10:05:13.978Z</time>
      </trkpt>
      <trkpt lat="45.88142" lon="4.85394">
        <ele>243.5</ele>
        <time>2015-11-11T10:05:16.994Z</time>
      </trkpt>
      <trkpt lat="45.88144" lon="4.85393">
        <ele>243.800003052</ele>
        <time>2015-11-11T10:05:17.979Z</time>
      </trkpt>
      <trkpt lat="45.8815" lon="4.85389">
        <ele>245.399993896</ele>
        <time>2015-11-11T10:05:20.997Z</time>
      </trkpt>
      <trkpt lat="45.88152" lon="4.85388">
        <ele>245.699996948</ele>
        <time>2015-11-11T10:05:21.978Z</time>
      </trkpt>
      <trkpt lat="45.8816" lon="4.85385">
        <ele>246.699996948</ele>
        <time>2015-11-11T10:05:25.994Z</time>
      </trkpt>
      <trkpt lat="45.88162" lon="4.85385">
        <ele>247</ele>
        <time>2015-11-11T10:05:26.982Z</time>
      </trkpt>
      <trkpt lat="45.88168" lon="4.85391">
        <ele>247.800003052</ele>
        <time>2015-11-11T10:05:29.993Z</time>
      </trkpt>
      <trkpt lat="45.8817" lon="4.85394">
        <ele>248.100006104</ele>
        <time>2015-11-11T10:05:30.979Z</time>
      </trkpt>
      <trkpt lat="45.88172" lon="4.85404">
        <ele>248.699996948</ele>
        <time>2015-11-11T10:05:33.995Z</time>
      </trkpt>
      <trkpt lat="45.88172" lon="4.85407">
        <ele>248.600006104</ele>
        <time>2015-11-11T10:05:34.979Z</time>
      </trkpt>
      <trkpt lat="45.8817" lon="4.85418">
        <ele>250</ele>
        <time>2015-11-11T10:05:38.996Z</time>
      </trkpt>
      <trkpt lat="45.88169" lon="4.8542">
        <ele>250</ele>
        <time>2015-11-11T10:05:39.981Z</time>
      </trkpt>
      <trkpt lat="45.88161" lon="4.85424">
        <ele>250.5</ele>
        <time>2015-11-11T10:05:43.993Z</time>
      </trkpt>
      <trkpt lat="45.88159" lon="4.85425">
        <ele>250.699996948</ele>
        <time>2015-11-11T10:05:44.982Z</time>
      </trkpt>
      <trkpt lat="45.88151" lon="4.85429">
        <ele>251.199996948</ele>
        <time>2015-11-11T10:05:48.992Z</time>
      </trkpt>
      <trkpt lat="45.88149" lon="4.8543">
        <ele>251</ele>
        <time>2015-11-11T10:05:49.979Z</time>
      </trkpt>
      <trkpt lat="45.88141" lon="4.85432">
        <ele>251.100006104</ele>
        <time>2015-11-11T10:05:52.995Z</time>
      </trkpt>
      <trkpt lat="45.88139" lon="4.85434">
        <ele>250.899993896</ele>
        <time>2015-11-11T10:05:53.979Z</time>
      </trkpt>
      <trkpt lat="45.88131" lon="4.85438">
        <ele>249.5</ele>
        <time>2015-11-11T10:05:58.03Z</time>
      </trkpt>
      <trkpt lat="45.8813" lon="4.85439">
        <ele>249.300003052</ele>
        <time>2015-11-11T10:05:58.98Z</time>
      </trkpt>
      <trkpt lat="45.88122" lon="4.85443">
        <ele>249</ele>
        <time>2015-11-11T10:06:02.999Z</time>
      </trkpt>
      <trkpt lat="45.8812" lon="4.85445">
        <ele>249</ele>
        <time>2015-11-11T10:06:03.978Z</time>
      </trkpt>
      <trkpt lat="45.88112" lon="4.85449">
        <ele>248.800003052</ele>
        <time>2015-11-11T10:06:07.992Z</time>
      </trkpt>
      <trkpt lat="45.8811" lon="4.85451">
        <ele>248.5</ele>
        <time>2015-11-11T10:06:08.981Z</time>
      </trkpt>
      <trkpt lat="45.88103" lon="4.85455">
        <ele>248.399993896</ele>
        <time>2015-11-11T10:06:11.993Z</time>
      </trkpt>
      <trkpt lat="45.88101" lon="4.85456">
        <ele>248</ele>
        <time>2015-11-11T10:06:12.977Z</time>
      </trkpt>
      <trkpt lat="45.88095" lon="4.85461">
        <ele>247</ele>
        <time>2015-11-11T10:06:15.992Z</time>
      </trkpt>
      <trkpt lat="45.88093" lon="4.85463">
        <ele>246.899993896</ele>
        <time>2015-11-11T10:06:16.979Z</time>
      </trkpt>
      <trkpt lat="45.88088" lon="4.85469">
        <ele>246</ele>
        <time>2015-11-11T10:06:19.991Z</time>
      </trkpt>
      <trkpt lat="45.88086" lon="4.85471">
        <ele>246</ele>
        <time>2015-11-11T10:06:20.981Z</time>
      </trkpt>
      <trkpt lat="45.88079" lon="4.85475">
        <ele>247.100006104</ele>
        <time>2015-11-11T10:06:23.992Z</time>
      </trkpt>
      <trkpt lat="45.88077" lon="4.85477">
        <ele>247.5</ele>
        <time>2015-11-11T10:06:24.977Z</time>
      </trkpt>
      <trkpt lat="45.88071" lon="4.85486">
        <ele>248.199996948</ele>
        <time>2015-11-11T10:06:28.996Z</time>
      </trkpt>
      <trkpt lat="45.88069" lon="4.85488">
        <ele>248.5</ele>
        <time>2015-11-11T10:06:29.977Z</time>
      </trkpt>
      <trkpt lat="45.88062" lon="4.85496">
        <ele>248.899993896</ele>
        <time>2015-11-11T10:06:33.993Z</time>
      </trkpt>
      <trkpt lat="45.8806" lon="4.85497">
        <ele>248.899993896</ele>
        <time>2015-11-11T10:06:34.978Z</time>
      </trkpt>
      <trkpt lat="45.88054" lon="4.85505">
        <ele>249.199996948</ele>
        <time>2015-11-11T10:06:38.996Z</time>
      </trkpt>
      <trkpt lat="45.88052" lon="4.85507">
        <ele>249.800003052</ele>
        <time>2015-11-11T10:06:39.981Z</time>
      </trkpt>
      <trkpt lat="45.88046" lon="4.85512">
        <ele>250.600006104</ele>
        <time>2015-11-11T10:06:42.992Z</time>
      </trkpt>
      <trkpt lat="45.88044" lon="4.85514">
        <ele>250.600006104</ele>
        <time>2015-11-11T10:06:43.977Z</time>
      </trkpt>
      <trkpt lat="45.88037" lon="4.85519">
        <ele>251.5</ele>
        <time>2015-11-11T10:06:47.993Z</time>
      </trkpt>
      <trkpt lat="45.88035" lon="4.85521">
        <ele>251.899993896</ele>
        <time>2015-11-11T10:06:48.978Z</time>
      </trkpt>
      <trkpt lat="45.88028" lon="4.85528">
        <ele>252.699996948</ele>
        <time>2015-11-11T10:06:53.102Z</time>
      </trkpt>
      <trkpt lat="45.88026" lon="4.85529">
        <ele>252.899993896</ele>
        <time>2015-11-11T10:06:53.979Z</time>
      </trkpt>
      <trkpt lat="45.88018" lon="4.85535">
        <ele>253.899993896</ele>
        <time>2015-11-11T10:06:58.006Z</time>
      </trkpt>
      <trkpt lat="45.88016" lon="4.85537">
        <ele>254</ele>
        <time>2015-11-11T10:06:58.98Z</time>
      </trkpt>
      <trkpt lat="45.88009" lon="4.85544">
        <ele>255.100006104</ele>
        <time>2015-11-11T10:07:02.996Z</time>
      </trkpt>
      <trkpt lat="45.88008" lon="4.85546">
        <ele>255.199996948</ele>
        <time>2015-11-11T10:07:03.978Z</time>
      </trkpt>
      <trkpt lat="45.88001" lon="4.85553">
        <ele>256</ele>
        <time>2015-11-11T10:07:07.992Z</time>
      </trkpt>
      <trkpt lat="45.87999" lon="4.85555">
        <ele>256.200012207</ele>
        <time>2015-11-11T10:07:08.981Z</time>
      </trkpt>
      <trkpt lat="45.87993" lon="4.85562">
        <ele>256.600006104</ele>
        <time>2015-11-11T10:07:12.992Z</time>
      </trkpt>
      <trkpt lat="45.87991" lon="4.85563">
        <ele>256.399993896</ele>
        <time>2015-11-11T10:07:13.977Z</time>
      </trkpt>
      <trkpt lat="45.87984" lon="4.85572">
        <ele>257.100006104</ele>
        <time>2015-11-11T10:07:17.992Z</time>
      </trkpt>
      <trkpt lat="45.87983" lon="4.85574">
        <ele>257.399993896</ele>
        <time>2015-11-11T10:07:18.978Z</time>
      </trkpt>
      <trkpt lat="45.87977" lon="4.85582">
        <ele>258.700012207</ele>
        <time>2015-11-11T10:07:22.993Z</time>
      </trkpt>
      <trkpt lat="45.87976" lon="4.85585">
        <ele>259.200012207</ele>
        <time>2015-11-11T10:07:23.978Z</time>
      </trkpt>
      <trkpt lat="45.87971" lon="4.85595">
        <ele>260.5</ele>
        <time>2015-11-11T10:07:27.993Z</time>
      </trkpt>
      <trkpt lat="45.8797" lon="4.85598">
        <ele>260.600006104</ele>
        <time>2015-11-11T10:07:28.979Z</time>
      </trkpt>
      <trkpt lat="45.87967" lon="4.8561">
        <ele>262.200012207</ele>
        <time>2015-11-11T10:07:32.996Z</time>
      </trkpt>
      <trkpt lat="45.87966" lon="4.85613">
        <ele>262.399993896</ele>
        <time>2015-11-11T10:07:33.978Z</time>
      </trkpt>
      <trkpt lat="45.87966" lon="4.85625">
        <ele>262.600006104</ele>
        <time>2015-11-11T10:07:37.993Z</time>
      </trkpt>
      <trkpt lat="45.87966" lon="4.85629">
        <ele>262.899993896</ele>
        <time>2015-11-11T10:07:38.982Z</time>
      </trkpt>
      <trkpt lat="45.87968" lon="4.85641">
        <ele>264.299987793</ele>
        <time>2015-11-11T10:07:42.992Z</time>
      </trkpt>
      <trkpt lat="45.87968" lon="4.85643">
        <ele>264.5</ele>
        <time>2015-11-11T10:07:43.978Z</time>
      </trkpt>
      <trkpt lat="45.87971" lon="4.85655">
        <ele>265.899993896</ele>
        <time>2015-11-11T10:07:47.993Z</time>
      </trkpt>
      <trkpt lat="45.87972" lon="4.85658">
        <ele>266.100006104</ele>
        <time>2015-11-11T10:07:48.978Z</time>
      </trkpt>
      <trkpt lat="45.87975" lon="4.8567">
        <ele>266.100006104</ele>
        <time>2015-11-11T10:07:53.044Z</time>
      </trkpt>
      <trkpt lat="45.87976" lon="4.85673">
        <ele>265.899993896</ele>
        <time>2015-11-11T10:07:53.977Z</time>
      </trkpt>
      <trkpt lat="45.87979" lon="4.85685">
        <ele>266.700012207</ele>
        <time>2015-11-11T10:07:57.994Z</time>
      </trkpt>
      <trkpt lat="45.8798" lon="4.85688">
        <ele>266.700012207</ele>
        <time>2015-11-11T10:07:58.98Z</time>
      </trkpt>
      <trkpt lat="45.87983" lon="4.85699">
        <ele>267.700012207</ele>
        <time>2015-11-11T10:08:02.996Z</time>
      </trkpt>
      <trkpt lat="45.87983" lon="4.85702">
        <ele>267.700012207</ele>
        <time>2015-11-11T10:08:03.991Z</time>
      </trkpt>
      <trkpt lat="45.87986" lon="4.85714">
        <ele>268.299987793</ele>
        <time>2015-11-11T10:08:08.001Z</time>
      </trkpt>
      <trkpt lat="45.87986" lon="4.85717">
        <ele>268.600006104</ele>
        <time>2015-11-11T10:08:08.982Z</time>
      </trkpt>
      <trkpt lat="45.87986" lon="4.85727">
        <ele>269.399993896</ele>
        <time>2015-11-11T10:08:11.993Z</time>
      </trkpt>
      <trkpt lat="45.87986" lon="4.8573">
        <ele>269.600006104</ele>
        <time>2015-11-11T10:08:12.977Z</time>
      </trkpt>
      <trkpt lat="45.87982" lon="4.85739">
        <ele>270.200012207</ele>
        <time>2015-11-11T10:08:15.993Z</time>
      </trkpt>
      <trkpt lat="45.87981" lon="4.85742">
        <ele>270.399993896</ele>
        <time>2015-11-11T10:08:16.99Z</time>
      </trkpt>
      <trkpt lat="45.87977" lon="4.85749">
        <ele>270.600006104</ele>
        <time>2015-11-11T10:08:19.992Z</time>
      </trkpt>
      <trkpt lat="45.87975" lon="4.85752">
        <ele>271</ele>
        <time>2015-11-11T10:08:20.981Z</time>
      </trkpt>
      <trkpt lat="45.8797" lon="4.8576">
        <ele>272.5</ele>
        <time>2015-11-11T10:08:24.993Z</time>
      </trkpt>
      <trkpt lat="45.87968" lon="4.85762">
        <ele>272.899993896</ele>
        <time>2015-11-11T10:08:25.978Z</time>
      </trkpt>
      <trkpt lat="45.87963" lon="4.85769">
        <ele>273.299987793</ele>
        <time>2015-11-11T10:08:28.993Z</time>
      </trkpt>
      <trkpt lat="45.87961" lon="4.85771">
        <ele>273.299987793</ele>
        <time>2015-11-11T10:08:29.978Z</time>
      </trkpt>
      <trkpt lat="45.87955" lon="4.85779">
        <ele>273.5</ele>
        <time>2015-11-11T10:08:33.993Z</time>
      </trkpt>
      <trkpt lat="45.87953" lon="4.85782">
        <ele>273.200012207</ele>
        <time>2015-11-11T10:08:34.978Z</time>
      </trkpt>
      <trkpt lat="45.87947" lon="4.8579">
        <ele>273.899993896</ele>
        <time>2015-11-11T10:08:38.998Z</time>
      </trkpt>
      <trkpt lat="45.87945" lon="4.85792">
        <ele>274</ele>
        <time>2015-11-11T10:08:39.979Z</time>
      </trkpt>
      <trkpt lat="45.8794" lon="4.85797">
        <ele>273.299987793</ele>
        <time>2015-11-11T10:08:42.991Z</time>
      </trkpt>
      <trkpt lat="45.87938" lon="4.858">
        <ele>273.200012207</ele>
        <time>2015-11-11T10:08:43.977Z</time>
      </trkpt>
      <trkpt lat="45.87931" lon="4.85807">
        <ele>273.399993896</ele>
        <time>2015-11-11T10:08:47.997Z</time>
      </trkpt>
      <trkpt lat="45.87929" lon="4.85809">
        <ele>273.600006104</ele>
        <time>2015-11-11T10:08:48.977Z</time>
      </trkpt>
      <trkpt lat="45.87924" lon="4.85814">
        <ele>273.799987793</ele>
        <time>2015-11-11T10:08:52.005Z</time>
      </trkpt>
      <trkpt lat="45.87922" lon="4.85816">
        <ele>273.799987793</ele>
        <time>2015-11-11T10:08:52.978Z</time>
      </trkpt>
      <trkpt lat="45.87914" lon="4.85822">
        <ele>274.299987793</ele>
        <time>2015-11-11T10:08:57.007Z</time>
      </trkpt>
      <trkpt lat="45.87913" lon="4.85824">
        <ele>274.700012207</ele>
        <time>2015-11-11T10:08:57.992Z</time>
      </trkpt>
      <trkpt lat="45.87905" lon="4.85831">
        <ele>275.399993896</ele>
        <time>2015-11-11T10:09:01.993Z</time>
      </trkpt>
      <trkpt lat="45.87904" lon="4.85833">
        <ele>275.600006104</ele>
        <time>2015-11-11T10:09:02.98Z</time>
      </trkpt>
      <trkpt lat="45.87896" lon="4.8584">
        <ele>277.299987793</ele>
        <time>2015-11-11T10:09:07.011Z</time>
      </trkpt>
      <trkpt lat="45.87895" lon="4.85842">
        <ele>277.600006104</ele>
        <time>2015-11-11T10:09:07.977Z</time>
      </trkpt>
      <trkpt lat="45.87888" lon="4.85847">
        <ele>278.299987793</ele>
        <time>2015-11-11T10:09:12.028Z</time>
      </trkpt>
      <trkpt lat="45.87886" lon="4.85848">
        <ele>278.200012207</ele>
        <time>2015-11-11T10:09:12.978Z</time>
      </trkpt>
      <trkpt lat="45.87879" lon="4.85855">
        <ele>279.100006104</ele>
        <time>2015-11-11T10:09:17.006Z</time>
      </trkpt>
      <trkpt lat="45.87877" lon="4.85856">
        <ele>279.600006104</ele>
        <time>2015-11-11T10:09:17.977Z</time>
      </trkpt>
      <trkpt lat="45.8787" lon="4.85862">
        <ele>279.399993896</ele>
        <time>2015-11-11T10:09:20.995Z</time>
      </trkpt>
      <trkpt lat="45.87868" lon="4.85864">
        <ele>279.100006104</ele>
        <time>2015-11-11T10:09:21.977Z</time>
      </trkpt>
      <trkpt lat="45.87862" lon="4.85872">
        <ele>279.5</ele>
        <time>2015-11-11T10:09:25.991Z</time>
      </trkpt>
      <trkpt lat="45.8786" lon="4.85873">
        <ele>279.700012207</ele>
        <time>2015-11-11T10:09:26.991Z</time>
      </trkpt>
      <trkpt lat="45.87854" lon="4.85881">
        <ele>280.799987793</ele>
        <time>2015-11-11T10:09:30.994Z</time>
      </trkpt>
      <trkpt lat="45.87853" lon="4.85883">
        <ele>281</ele>
        <time>2015-11-11T10:09:31.977Z</time>
      </trkpt>
      <trkpt lat="45.87847" lon="4.85893">
        <ele>281.5</ele>
        <time>2015-11-11T10:09:35.991Z</time>
      </trkpt>
      <trkpt lat="45.87846" lon="4.85895">
        <ele>280.899993896</ele>
        <time>2015-11-11T10:09:36.977Z</time>
      </trkpt>
      <trkpt lat="45.8784" lon="4.85905">
        <ele>280.600006104</ele>
        <time>2015-11-11T10:09:41.011Z</time>
      </trkpt>
      <trkpt lat="45.87839" lon="4.85909">
        <ele>280.700012207</ele>
        <time>2015-11-11T10:09:41.977Z</time>
      </trkpt>
      <trkpt lat="45.87837" lon="4.85921">
        <ele>281.899993896</ele>
        <time>2015-11-11T10:09:46.025Z</time>
      </trkpt>
      <trkpt lat="45.87837" lon="4.85924">
        <ele>282.200012207</ele>
        <time>2015-11-11T10:09:46.979Z</time>
      </trkpt>
      <trkpt lat="45.87835" lon="4.85936">
        <ele>283</ele>
        <time>2015-11-11T10:09:50.995Z</time>
      </trkpt>
      <trkpt lat="45.87836" lon="4.85939">
        <ele>283.5</ele>
        <time>2015-11-11T10:09:51.977Z</time>
      </trkpt>
      <trkpt lat="45.87838" lon="4.85949">
        <ele>284.899993896</ele>
        <time>2015-11-11T10:09:54.991Z</time>
      </trkpt>
      <trkpt lat="45.87839" lon="4.85952">
        <ele>285.200012207</ele>
        <time>2015-11-11T10:09:55.977Z</time>
      </trkpt>
      <trkpt lat="45.87841" lon="4.85961">
        <ele>286</ele>
        <time>2015-11-11T10:09:58.992Z</time>
      </trkpt>
      <trkpt lat="45.87842" lon="4.85965">
        <ele>286.100006104</ele>
        <time>2015-11-11T10:09:59.977Z</time>
      </trkpt>
      <trkpt lat="45.87845" lon="4.85973">
        <ele>286.299987793</ele>
        <time>2015-11-11T10:10:02.998Z</time>
      </trkpt>
      <trkpt lat="45.87847" lon="4.85976">
        <ele>286.200012207</ele>
        <time>2015-11-11T10:10:03.977Z</time>
      </trkpt>
      <trkpt lat="45.87852" lon="4.85985">
        <ele>285.600006104</ele>
        <time>2015-11-11T10:10:08.004Z</time>
      </trkpt>
      <trkpt lat="45.87854" lon="4.85988">
        <ele>285.299987793</ele>
        <time>2015-11-11T10:10:08.98Z</time>
      </trkpt>
      <trkpt lat="45.8786" lon="4.85993">
        <ele>284.799987793</ele>
        <time>2015-11-11T10:10:11.991Z</time>
      </trkpt>
      <trkpt lat="45.87862" lon="4.85994">
        <ele>285.100006104</ele>
        <time>2015-11-11T10:10:12.977Z</time>
      </trkpt>
      <trkpt lat="45.87869" lon="4.85997">
        <ele>285.600006104</ele>
        <time>2015-11-11T10:10:16.159Z</time>
      </trkpt>
      <trkpt lat="45.87871" lon="4.85998">
        <ele>285.700012207</ele>
        <time>2015-11-11T10:10:16.981Z</time>
      </trkpt>
      <trkpt lat="45.87879" lon="4.85999">
        <ele>286</ele>
        <time>2015-11-11T10:10:19.991Z</time>
      </trkpt>
      <trkpt lat="45.87882" lon="4.85999">
        <ele>285.799987793</ele>
        <time>2015-11-11T10:10:20.98Z</time>
      </trkpt>
      <trkpt lat="45.8789" lon="4.85998">
        <ele>285.299987793</ele>
        <time>2015-11-11T10:10:24.991Z</time>
      </trkpt>
      <trkpt lat="45.87892" lon="4.85997">
        <ele>285.299987793</ele>
        <time>2015-11-11T10:10:25.977Z</time>
      </trkpt>
      <trkpt lat="45.879" lon="4.85994">
        <ele>285.600006104</ele>
        <time>2015-11-11T10:10:29.992Z</time>
      </trkpt>
      <trkpt lat="45.87902" lon="4.85993">
        <ele>285.899993896</ele>
        <time>2015-11-11T10:10:30.976Z</time>
      </trkpt>
      <trkpt lat="45.8791" lon="4.85992">
        <ele>287</ele>
        <time>2015-11-11T10:10:33.991Z</time>
      </trkpt>
      <trkpt lat="45.87912" lon="4.85991">
        <ele>287.200012207</ele>
        <time>2015-11-11T10:10:34.978Z</time>
      </trkpt>
      <trkpt lat="45.87921" lon="4.85988">
        <ele>287.399993896</ele>
        <time>2015-11-11T10:10:38.995Z</time>
      </trkpt>
      <trkpt lat="45.87923" lon="4.85986">
        <ele>287.399993896</ele>
        <time>2015-11-11T10:10:39.992Z</time>
      </trkpt>
      <trkpt lat="45.87931" lon="4.85983">
        <ele>288.299987793</ele>
        <time>2015-11-11T10:10:43.992Z</time>
      </trkpt>
      <trkpt lat="45.87933" lon="4.85983">
        <ele>288.399993896</ele>
        <time>2015-11-11T10:10:44.98Z</time>
      </trkpt>
      <trkpt lat="45.87941" lon="4.85986">
        <ele>288.299987793</ele>
        <time>2015-11-11T10:10:48.994Z</time>
      </trkpt>
      <trkpt lat="45.87943" lon="4.85988">
        <ele>288.5</ele>
        <time>2015-11-11T10:10:49.976Z</time>
      </trkpt>
      <trkpt lat="45.87948" lon="4.85996">
        <ele>289.5</ele>
        <time>2015-11-11T10:10:52.992Z</time>
      </trkpt>
      <trkpt lat="45.87949" lon="4.85999">
        <ele>289.5</ele>
        <time>2015-11-11T10:10:53.977Z</time>
      </trkpt>
      <trkpt lat="45.87952" lon="4.86009">
        <ele>289.5</ele>
        <time>2015-11-11T10:10:56.995Z</time>
      </trkpt>
      <trkpt lat="45.87953" lon="4.86012">
        <ele>289.700012207</ele>
        <time>2015-11-11T10:10:57.977Z</time>
      </trkpt>
      <trkpt lat="45.87958" lon="4.86018">
        <ele>290.5</ele>
        <time>2015-11-11T10:11:00.992Z</time>
      </trkpt>
      <trkpt lat="45.8796" lon="4.86019">
        <ele>291</ele>
        <time>2015-11-11T10:11:01.976Z</time>
      </trkpt>
      <trkpt lat="45.87967" lon="4.86021">
        <ele>291.600006104</ele>
        <time>2015-11-11T10:11:03.998Z</time>
      </trkpt>
      <trkpt lat="45.8797" lon="4.86021">
        <ele>291.700012207</ele>
        <time>2015-11-11T10:11:04.978Z</time>
      </trkpt>
      <trkpt lat="45.87978" lon="4.8602">
        <ele>292.200012207</ele>
        <time>2015-11-11T10:11:07.99Z</time>
      </trkpt>
      <trkpt lat="45.87981" lon="4.86019">
        <ele>292.200012207</ele>
        <time>2015-11-11T10:11:08.98Z</time>
      </trkpt>
      <trkpt lat="45.87987" lon="4.86017">
        <ele>292.200012207</ele>
        <time>2015-11-11T10:11:11.991Z</time>
      </trkpt>
      <trkpt lat="45.8799" lon="4.86017">
        <ele>292.100006104</ele>
        <time>2015-11-11T10:11:12.978Z</time>
      </trkpt>
      <trkpt lat="45.87998" lon="4.86015">
        <ele>292.799987793</ele>
        <time>2015-11-11T10:11:15.992Z</time>
      </trkpt>
      <trkpt lat="45.88" lon="4.86014">
        <ele>293.100006104</ele>
        <time>2015-11-11T10:11:16.979Z</time>
      </trkpt>
      <trkpt lat="45.88007" lon="4.86013">
        <ele>293.799987793</ele>
        <time>2015-11-11T10:11:20.058Z</time>
      </trkpt>
      <trkpt lat="45.8801" lon="4.86013">
        <ele>294.600006104</ele>
        <time>2015-11-11T10:11:20.98Z</time>
      </trkpt>
      <trkpt lat="45.88017" lon="4.86016">
        <ele>296.200012207</ele>
        <time>2015-11-11T10:11:23.991Z</time>
      </trkpt>
      <trkpt lat="45.88019" lon="4.86018">
        <ele>296.100006104</ele>
        <time>2015-11-11T10:11:24.976Z</time>
      </trkpt>
      <trkpt lat="45.88023" lon="4.86026">
        <ele>296.100006104</ele>
        <time>2015-11-11T10:11:27.991Z</time>
      </trkpt>
      <trkpt lat="45.88024" lon="4.86029">
        <ele>296.899993896</ele>
        <time>2015-11-11T10:11:28.978Z</time>
      </trkpt>
      <trkpt lat="45.88027" lon="4.8604">
        <ele>297.399993896</ele>
        <time>2015-11-11T10:11:32.027Z</time>
      </trkpt>
      <trkpt lat="45.88028" lon="4.86043">
        <ele>297.600006104</ele>
        <time>2015-11-11T10:11:33.188Z</time>
      </trkpt>
      <trkpt lat="45.88031" lon="4.86053">
        <ele>298</ele>
        <time>2015-11-11T10:11:35.997Z</time>
      </trkpt>
      <trkpt lat="45.88032" lon="4.86056">
        <ele>297.799987793</ele>
        <time>2015-11-11T10:11:36.979Z</time>
      </trkpt>
      <trkpt lat="45.88034" lon="4.86068">
        <ele>297.299987793</ele>
        <time>2015-11-11T10:11:39.992Z</time>
      </trkpt>
      <trkpt lat="45.88034" lon="4.86071">
        <ele>297.200012207</ele>
        <time>2015-11-11T10:11:40.98Z</time>
      </trkpt>
      <trkpt lat="45.88036" lon="4.86084">
        <ele>297.100006104</ele>
        <time>2015-11-11T10:11:43.991Z</time>
      </trkpt>
      <trkpt lat="45.88037" lon="4.86087">
        <ele>297</ele>
        <time>2015-11-11T10:11:44.98Z</time>
      </trkpt>
      <trkpt lat="45.8804" lon="4.86098">
        <ele>297.5</ele>
        <time>2015-11-11T10:11:47.99Z</time>
      </trkpt>
      <trkpt lat="45.88041" lon="4.86102">
        <ele>297.799987793</ele>
        <time>2015-11-11T10:11:48.976Z</time>
      </trkpt>
      <trkpt lat="45.88043" lon="4.86113">
        <ele>297.799987793</ele>
        <time>2015-11-11T10:11:51.99Z</time>
      </trkpt>
      <trkpt lat="45.88043" lon="4.86118">
        <ele>297.899993896</ele>
        <time>2015-11-11T10:11:52.978Z</time>
      </trkpt>
      <trkpt lat="45.88045" lon="4.86126">
        <ele>297.5</ele>
        <time>2015-11-11T10:11:54.99Z</time>
      </trkpt>
      <trkpt lat="45.88046" lon="4.8613">
        <ele>297.299987793</ele>
        <time>2015-11-11T10:11:55.976Z</time>
      </trkpt>
      <trkpt lat="45.88048" lon="4.86139">
        <ele>297</ele>
        <time>2015-11-11T10:11:57.992Z</time>
      </trkpt>
      <trkpt lat="45.88049" lon="4.86143">
        <ele>296.600006104</ele>
        <time>2015-11-11T10:11:58.978Z</time>
      </trkpt>
      <trkpt lat="45.88051" lon="4.86153">
        <ele>296.700012207</ele>
        <time>2015-11-11T10:12:01.058Z</time>
      </trkpt>
      <trkpt lat="45.88052" lon="4.86158">
        <ele>296.700012207</ele>
        <time>2015-11-11T10:12:01.976Z</time>
      </trkpt>
      <trkpt lat="45.88054" lon="4.86166">
        <ele>297.100006104</ele>
        <time>2015-11-11T10:12:03.995Z</time>
      </trkpt>
      <trkpt lat="45.88056" lon="4.86171">
        <ele>297.100006104</ele>
        <time>2015-11-11T10:12:04.978Z</time>
      </trkpt>
      <trkpt lat="45.88059" lon="4.86181">
        <ele>297.200012207</ele>
        <time>2015-11-11T10:12:06.995Z</time>
      </trkpt>
      <trkpt lat="45.88059" lon="4.86187">
        <ele>297.399993896</ele>
        <time>2015-11-11T10:12:07.976Z</time>
      </trkpt>
      <trkpt lat="45.88063" lon="4.86196">
        <ele>298.299987793</ele>
        <time>2015-11-11T10:12:09.991Z</time>
      </trkpt>
      <trkpt lat="45.88065" lon="4.862">
        <ele>298.5</ele>
        <time>2015-11-11T10:12:10.988Z</time>
      </trkpt>
      <trkpt lat="45.88069" lon="4.86209">
        <ele>298.799987793</ele>
        <time>2015-11-11T10:12:12.991Z</time>
      </trkpt>
      <trkpt lat="45.88071" lon="4.86214">
        <ele>299.100006104</ele>
        <time>2015-11-11T10:12:13.976Z</time>
      </trkpt>
      <trkpt lat="45.88074" lon="4.86224">
        <ele>299.200012207</ele>
        <time>2015-11-11T10:12:15.991Z</time>
      </trkpt>
      <trkpt lat="45.88076" lon="4.86228">
        <ele>299.100006104</ele>
        <time>2015-11-11T10:12:16.977Z</time>
      </trkpt>
      <trkpt lat="45.88079" lon="4.86237">
        <ele>298.799987793</ele>
        <time>2015-11-11T10:12:18.991Z</time>
      </trkpt>
      <trkpt lat="45.8808" lon="4.86241">
        <ele>298.899993896</ele>
        <time>2015-11-11T10:12:19.976Z</time>
      </trkpt>
      <trkpt lat="45.88084" lon="4.86252">
        <ele>299.399993896</ele>
        <time>2015-11-11T10:12:22.992Z</time>
      </trkpt>
      <trkpt lat="45.88086" lon="4.86257">
        <ele>299.5</ele>
        <time>2015-11-11T10:12:24.278Z</time>
      </trkpt>
      <trkpt lat="45.8809" lon="4.86267">
        <ele>299.5</ele>
        <time>2015-11-11T10:12:25.99Z</time>
      </trkpt>
      <trkpt lat="45.88091" lon="4.86272">
        <ele>299.799987793</ele>
        <time>2015-11-11T10:12:27.036Z</time>
      </trkpt>
      <trkpt lat="45.88094" lon="4.86283">
        <ele>299.700012207</ele>
        <time>2015-11-11T10:12:28.992Z</time>
      </trkpt>
      <trkpt lat="45.88095" lon="4.86289">
        <ele>299.600006104</ele>
        <time>2015-11-11T10:12:29.976Z</time>
      </trkpt>
      <trkpt lat="45.88098" lon="4.863">
        <ele>299</ele>
        <time>2015-11-11T10:12:31.991Z</time>
      </trkpt>
      <trkpt lat="45.881" lon="4.86305">
        <ele>298.5</ele>
        <time>2015-11-11T10:12:32.983Z</time>
      </trkpt>
      <trkpt lat="45.88102" lon="4.86314">
        <ele>298</ele>
        <time>2015-11-11T10:12:34.992Z</time>
      </trkpt>
      <trkpt lat="45.88102" lon="4.86318">
        <ele>297.799987793</ele>
        <time>2015-11-11T10:12:35.976Z</time>
      </trkpt>
      <trkpt lat="45.88105" lon="4.86328">
        <ele>296.799987793</ele>
        <time>2015-11-11T10:12:38.994Z</time>
      </trkpt>
      <trkpt lat="45.88106" lon="4.86332">
        <ele>297.100006104</ele>
        <time>2015-11-11T10:12:39.979Z</time>
      </trkpt>
      <trkpt lat="45.88108" lon="4.86343">
        <ele>297.600006104</ele>
        <time>2015-11-11T10:12:42.991Z</time>
      </trkpt>
      <trkpt lat="45.88109" lon="4.86348">
        <ele>297.799987793</ele>
        <time>2015-11-11T10:12:43.976Z</time>
      </trkpt>
      <trkpt lat="45.88111" lon="4.86359">
        <ele>296.899993896</ele>
        <time>2015-11-11T10:12:45.991Z</time>
      </trkpt>
      <trkpt lat="45.88111" lon="4.86365">
        <ele>296.799987793</ele>
        <time>2015-11-11T10:12:46.979Z</time>
      </trkpt>
      <trkpt lat="45.88113" lon="4.86375">
        <ele>296.299987793</ele>
        <time>2015-11-11T10:12:49.005Z</time>
      </trkpt>
      <trkpt lat="45.88114" lon="4.8638">
        <ele>295.899993896</ele>
        <time>2015-11-11T10:12:49.976Z</time>
      </trkpt>
      <trkpt lat="45.88115" lon="4.86392">
        <ele>295.5</ele>
        <time>2015-11-11T10:12:52.992Z</time>
      </trkpt>
      <trkpt lat="45.88115" lon="4.86395">
        <ele>295.399993896</ele>
        <time>2015-11-11T10:12:53.976Z</time>
      </trkpt>
      <trkpt lat="45.88116" lon="4.86397">
        <ele>295.399993896</ele>
        <time>2015-11-11T10:12:54.991Z</time>
      </trkpt>
      <trkpt lat="45.88116" lon="4.86398">
        <ele>295</ele>
        <time>2015-11-11T10:12:55.977Z</time>
      </trkpt>
      <trkpt lat="45.88116" lon="4.86399">
        <ele>295</ele>
        <time>2015-11-11T10:13:22.992Z</time>
      </trkpt>
      <trkpt lat="45.88116" lon="4.86402">
        <ele>294.899993896</ele>
        <time>2015-11-11T10:13:23.977Z</time>
      </trkpt>
      <trkpt lat="45.88116" lon="4.86403">
        <ele>294.899993896</ele>
        <time>2015-11-11T10:17:28.993Z</time>
      </trkpt>
      <trkpt lat="45.88114" lon="4.86416">
        <ele>298.200012207</ele>
        <time>2015-11-11T10:17:29.975Z</time>
      </trkpt>
      <trkpt lat="45.88114" lon="4.86418">
        <ele>299.5</ele>
        <time>2015-11-11T10:17:45.989Z</time>
      </trkpt>
      <trkpt lat="45.88118" lon="4.86431">
        <ele>303</ele>
        <time>2015-11-11T10:17:46.981Z</time>
      </trkpt>
      <trkpt lat="45.88123" lon="4.86441">
        <ele>303.799987793</ele>
        <time>2015-11-11T10:19:03.995Z</time>
      </trkpt>
      <trkpt lat="45.88125" lon="4.86443">
        <ele>303.700012207</ele>
        <time>2015-11-11T10:19:04.977Z</time>
      </trkpt>
      <trkpt lat="45.88127" lon="4.86455">
        <ele>303.600006104</ele>
        <time>2015-11-11T10:19:07.99Z</time>
      </trkpt>
      <trkpt lat="45.88127" lon="4.86459">
        <ele>303.600006104</ele>
        <time>2015-11-11T10:19:08.978Z</time>
      </trkpt>
      <trkpt lat="45.88128" lon="4.86471">
        <ele>303.299987793</ele>
        <time>2015-11-11T10:19:11.99Z</time>
      </trkpt>
      <trkpt lat="45.8813" lon="4.86475">
        <ele>303.200012207</ele>
        <time>2015-11-11T10:19:12.978Z</time>
      </trkpt>
      <trkpt lat="45.88132" lon="4.86485">
        <ele>302.899993896</ele>
        <time>2015-11-11T10:19:14.992Z</time>
      </trkpt>
      <trkpt lat="45.88133" lon="4.86489">
        <ele>302.799987793</ele>
        <time>2015-11-11T10:19:15.975Z</time>
      </trkpt>
      <trkpt lat="45.88134" lon="4.865">
        <ele>302.399993896</ele>
        <time>2015-11-11T10:19:18.002Z</time>
      </trkpt>
      <trkpt lat="45.88135" lon="4.86504">
        <ele>302.100006104</ele>
        <time>2015-11-11T10:19:18.975Z</time>
      </trkpt>
      <trkpt lat="45.88136" lon="4.86514">
        <ele>301.799987793</ele>
        <time>2015-11-11T10:19:20.993Z</time>
      </trkpt>
      <trkpt lat="45.88136" lon="4.86518">
        <ele>301.799987793</ele>
        <time>2015-11-11T10:19:21.975Z</time>
      </trkpt>
      <trkpt lat="45.88138" lon="4.8653">
        <ele>301.5</ele>
        <time>2015-11-11T10:19:24.989Z</time>
      </trkpt>
      <trkpt lat="45.88138" lon="4.86535">
        <ele>301.200012207</ele>
        <time>2015-11-11T10:19:25.975Z</time>
      </trkpt>
      <trkpt lat="45.88139" lon="4.86544">
        <ele>300.600006104</ele>
        <time>2015-11-11T10:19:27.99Z</time>
      </trkpt>
      <trkpt lat="45.88139" lon="4.86548">
        <ele>300.200012207</ele>
        <time>2015-11-11T10:19:28.991Z</time>
      </trkpt>
      <trkpt lat="45.88139" lon="4.8656">
        <ele>299</ele>
        <time>2015-11-11T10:19:32.993Z</time>
      </trkpt>
      <trkpt lat="45.88139" lon="4.86562">
        <ele>298.799987793</ele>
        <time>2015-11-11T10:19:33.975Z</time>
      </trkpt>
      <trkpt lat="45.88139" lon="4.86574">
        <ele>298.100006104</ele>
        <time>2015-11-11T10:19:37.004Z</time>
      </trkpt>
      <trkpt lat="45.8814" lon="4.86579">
        <ele>298.100006104</ele>
        <time>2015-11-11T10:19:37.975Z</time>
      </trkpt>
      <trkpt lat="45.88143" lon="4.86591">
        <ele>297.5</ele>
        <time>2015-11-11T10:19:40.006Z</time>
      </trkpt>
      <trkpt lat="45.88143" lon="4.86597">
        <ele>297.600006104</ele>
        <time>2015-11-11T10:19:40.976Z</time>
      </trkpt>
      <trkpt lat="45.88147" lon="4.86609">
        <ele>296.700012207</ele>
        <time>2015-11-11T10:19:42.989Z</time>
      </trkpt>
      <trkpt lat="45.88149" lon="4.86615">
        <ele>296.200012207</ele>
        <time>2015-11-11T10:19:43.975Z</time>
      </trkpt>
      <trkpt lat="45.8815" lon="4.86621">
        <ele>296</ele>
        <time>2015-11-11T10:19:45.007Z</time>
      </trkpt>
      <trkpt lat="45.88151" lon="4.86628">
        <ele>295.600006104</ele>
        <time>2015-11-11T10:19:45.975Z</time>
      </trkpt>
      <trkpt lat="45.88153" lon="4.86635">
        <ele>295.5</ele>
        <time>2015-11-11T10:19:47.003Z</time>
      </trkpt>
      <trkpt lat="45.88155" lon="4.86641">
        <ele>295.299987793</ele>
        <time>2015-11-11T10:19:47.975Z</time>
      </trkpt>
      <trkpt lat="45.88156" lon="4.86648">
        <ele>294.899993896</ele>
        <time>2015-11-11T10:19:48.989Z</time>
      </trkpt>
      <trkpt lat="45.88158" lon="4.86655">
        <ele>294.5</ele>
        <time>2015-11-11T10:19:49.976Z</time>
      </trkpt>
      <trkpt lat="45.88159" lon="4.86662">
        <ele>294.299987793</ele>
        <time>2015-11-11T10:19:50.993Z</time>
      </trkpt>
      <trkpt lat="45.8816" lon="4.86669">
        <ele>294.200012207</ele>
        <time>2015-11-11T10:19:51.975Z</time>
      </trkpt>
      <trkpt lat="45.88162" lon="4.86675">
        <ele>294</ele>
        <time>2015-11-11T10:19:52.99Z</time>
      </trkpt>
      <trkpt lat="45.88164" lon="4.86682">
        <ele>293.899993896</ele>
        <time>2015-11-11T10:19:53.975Z</time>
      </trkpt>
      <trkpt lat="45.88165" lon="4.86689">
        <ele>293.600006104</ele>
        <time>2015-11-11T10:19:54.989Z</time>
      </trkpt>
      <trkpt lat="45.88166" lon="4.86696">
        <ele>293.299987793</ele>
        <time>2015-11-11T10:19:55.976Z</time>
      </trkpt>
      <trkpt lat="45.88167" lon="4.86703">
        <ele>293.399993896</ele>
        <time>2015-11-11T10:19:57.006Z</time>
      </trkpt>
      <trkpt lat="45.88168" lon="4.8671">
        <ele>293</ele>
        <time>2015-11-11T10:19:57.975Z</time>
      </trkpt>
      <trkpt lat="45.88169" lon="4.86717">
        <ele>292.700012207</ele>
        <time>2015-11-11T10:19:58.99Z</time>
      </trkpt>
      <trkpt lat="45.8817" lon="4.86723">
        <ele>292.899993896</ele>
        <time>2015-11-11T10:19:59.975Z</time>
      </trkpt>
      <trkpt lat="45.88171" lon="4.8673">
        <ele>292.700012207</ele>
        <time>2015-11-11T10:20:00.989Z</time>
      </trkpt>
      <trkpt lat="45.88172" lon="4.86736">
        <ele>292.700012207</ele>
        <time>2015-11-11T10:20:01.975Z</time>
      </trkpt>
      <trkpt lat="45.88174" lon="4.86743">
        <ele>292.299987793</ele>
        <time>2015-11-11T10:20:02.993Z</time>
      </trkpt>
      <trkpt lat="45.88175" lon="4.86749">
        <ele>292.100006104</ele>
        <time>2015-11-11T10:20:04.086Z</time>
      </trkpt>
      <trkpt lat="45.88176" lon="4.86755">
        <ele>291.899993896</ele>
        <time>2015-11-11T10:20:04.99Z</time>
      </trkpt>
      <trkpt lat="45.88177" lon="4.86762">
        <ele>291.600006104</ele>
        <time>2015-11-11T10:20:05.975Z</time>
      </trkpt>
      <trkpt lat="45.88178" lon="4.86768">
        <ele>291.5</ele>
        <time>2015-11-11T10:20:07.034Z</time>
      </trkpt>
      <trkpt lat="45.88179" lon="4.86775">
        <ele>291.399993896</ele>
        <time>2015-11-11T10:20:07.975Z</time>
      </trkpt>
      <trkpt lat="45.8818" lon="4.86781">
        <ele>291.5</ele>
        <time>2015-11-11T10:20:08.995Z</time>
      </trkpt>
      <trkpt lat="45.88182" lon="4.86788">
        <ele>291.600006104</ele>
        <time>2015-11-11T10:20:09.975Z</time>
      </trkpt>
      <trkpt lat="45.88183" lon="4.86795">
        <ele>291.700012207</ele>
        <time>2015-11-11T10:20:10.994Z</time>
      </trkpt>
      <trkpt lat="45.88185" lon="4.86802">
        <ele>292.299987793</ele>
        <time>2015-11-11T10:20:11.975Z</time>
      </trkpt>
      <trkpt lat="45.88186" lon="4.86809">
        <ele>293.100006104</ele>
        <time>2015-11-11T10:20:13.018Z</time>
      </trkpt>
      <trkpt lat="45.88188" lon="4.86816">
        <ele>293.299987793</ele>
        <time>2015-11-11T10:20:13.975Z</time>
      </trkpt>
      <trkpt lat="45.88189" lon="4.86823">
        <ele>293.5</ele>
        <time>2015-11-11T10:20:14.992Z</time>
      </trkpt>
      <trkpt lat="45.8819" lon="4.8683">
        <ele>293.600006104</ele>
        <time>2015-11-11T10:20:15.975Z</time>
      </trkpt>
      <trkpt lat="45.8819" lon="4.86837">
        <ele>294.200012207</ele>
        <time>2015-11-11T10:20:16.996Z</time>
      </trkpt>
      <trkpt lat="45.88191" lon="4.86843">
        <ele>294.100006104</ele>
        <time>2015-11-11T10:20:17.991Z</time>
      </trkpt>
      <trkpt lat="45.88192" lon="4.8685">
        <ele>294</ele>
        <time>2015-11-11T10:20:18.99Z</time>
      </trkpt>
      <trkpt lat="45.88193" lon="4.86857">
        <ele>293.899993896</ele>
        <time>2015-11-11T10:20:19.975Z</time>
      </trkpt>
      <trkpt lat="45.88194" lon="4.86864">
        <ele>294.100006104</ele>
        <time>2015-11-11T10:20:20.993Z</time>
      </trkpt>
      <trkpt lat="45.88194" lon="4.8687">
        <ele>294.200012207</ele>
        <time>2015-11-11T10:20:21.975Z</time>
      </trkpt>
      <trkpt lat="45.88194" lon="4.86877">
        <ele>294.299987793</ele>
        <time>2015-11-11T10:20:22.991Z</time>
      </trkpt>
      <trkpt lat="45.88195" lon="4.86884">
        <ele>294.299987793</ele>
        <time>2015-11-11T10:20:23.975Z</time>
      </trkpt>
      <trkpt lat="45.88195" lon="4.86892">
        <ele>294.399993896</ele>
        <time>2015-11-11T10:20:24.989Z</time>
      </trkpt>
      <trkpt lat="45.88195" lon="4.86899">
        <ele>294.299987793</ele>
        <time>2015-11-11T10:20:25.975Z</time>
      </trkpt>
      <trkpt lat="45.88195" lon="4.86907">
        <ele>293.899993896</ele>
        <time>2015-11-11T10:20:27Z</time>
      </trkpt>
      <trkpt lat="45.88194" lon="4.86915">
        <ele>294</ele>
        <time>2015-11-11T10:20:27.975Z</time>
      </trkpt>
      <trkpt lat="45.88195" lon="4.86923">
        <ele>293.799987793</ele>
        <time>2015-11-11T10:20:29.003Z</time>
      </trkpt>
      <trkpt lat="45.88195" lon="4.86931">
        <ele>293.799987793</ele>
        <time>2015-11-11T10:20:29.975Z</time>
      </trkpt>
      <trkpt lat="45.88195" lon="4.86939">
        <ele>294</ele>
        <time>2015-11-11T10:20:30.989Z</time>
      </trkpt>
      <trkpt lat="45.88194" lon="4.86947">
        <ele>293.700012207</ele>
        <time>2015-11-11T10:20:31.975Z</time>
      </trkpt>
      <trkpt lat="45.88194" lon="4.86955">
        <ele>293.399993896</ele>
        <time>2015-11-11T10:20:32.993Z</time>
      </trkpt>
      <trkpt lat="45.88194" lon="4.86964">
        <ele>293.5</ele>
        <time>2015-11-11T10:20:33.975Z</time>
      </trkpt>
      <trkpt lat="45.88195" lon="4.86973">
        <ele>293.399993896</ele>
        <time>2015-11-11T10:20:34.99Z</time>
      </trkpt>
      <trkpt lat="45.88195" lon="4.86981">
        <ele>293.399993896</ele>
        <time>2015-11-11T10:20:35.974Z</time>
      </trkpt>
      <trkpt lat="45.88195" lon="4.8699">
        <ele>293.299987793</ele>
        <time>2015-11-11T10:20:36.995Z</time>
      </trkpt>
      <trkpt lat="45.88195" lon="4.86999">
        <ele>293.200012207</ele>
        <time>2015-11-11T10:20:37.975Z</time>
      </trkpt>
      <trkpt lat="45.88196" lon="4.87007">
        <ele>293.200012207</ele>
        <time>2015-11-11T10:20:38.993Z</time>
      </trkpt>
      <trkpt lat="45.88196" lon="4.87015">
        <ele>293.200012207</ele>
        <time>2015-11-11T10:20:40.013Z</time>
      </trkpt>
      <trkpt lat="45.88196" lon="4.87022">
        <ele>292.899993896</ele>
        <time>2015-11-11T10:20:40.99Z</time>
      </trkpt>
      <trkpt lat="45.88197" lon="4.87029">
        <ele>292.799987793</ele>
        <time>2015-11-11T10:20:41.975Z</time>
      </trkpt>
      <trkpt lat="45.88198" lon="4.87036">
        <ele>292.700012207</ele>
        <time>2015-11-11T10:20:42.989Z</time>
      </trkpt>
      <trkpt lat="45.88198" lon="4.87043">
        <ele>292.700012207</ele>
        <time>2015-11-11T10:20:44.086Z</time>
      </trkpt>
      <trkpt lat="45.88199" lon="4.87051">
        <ele>292.700012207</ele>
        <time>2015-11-11T10:20:44.993Z</time>
      </trkpt>
      <trkpt lat="45.882" lon="4.87058">
        <ele>292.600006104</ele>
        <time>2015-11-11T10:20:45.975Z</time>
      </trkpt>
      <trkpt lat="45.882" lon="4.87066">
        <ele>292.799987793</ele>
        <time>2015-11-11T10:20:46.99Z</time>
      </trkpt>
      <trkpt lat="45.88201" lon="4.87074">
        <ele>292.700012207</ele>
        <time>2015-11-11T10:20:47.975Z</time>
      </trkpt>
      <trkpt lat="45.88201" lon="4.87081">
        <ele>292.700012207</ele>
        <time>2015-11-11T10:20:48.989Z</time>
      </trkpt>
      <trkpt lat="45.88201" lon="4.87089">
        <ele>293</ele>
        <time>2015-11-11T10:20:49.975Z</time>
      </trkpt>
      <trkpt lat="45.88202" lon="4.87097">
        <ele>292.600006104</ele>
        <time>2015-11-11T10:20:50.993Z</time>
      </trkpt>
      <trkpt lat="45.88202" lon="4.87104">
        <ele>292.399993896</ele>
        <time>2015-11-11T10:20:51.975Z</time>
      </trkpt>
      <trkpt lat="45.88203" lon="4.87112">
        <ele>292.299987793</ele>
        <time>2015-11-11T10:20:52.99Z</time>
      </trkpt>
      <trkpt lat="45.88203" lon="4.87121">
        <ele>292.100006104</ele>
        <time>2015-11-11T10:20:53.975Z</time>
      </trkpt>
      <trkpt lat="45.88203" lon="4.87129">
        <ele>292.399993896</ele>
        <time>2015-11-11T10:20:54.989Z</time>
      </trkpt>
      <trkpt lat="45.88203" lon="4.87137">
        <ele>292.899993896</ele>
        <time>2015-11-11T10:20:55.975Z</time>
      </trkpt>
      <trkpt lat="45.88203" lon="4.87145">
        <ele>293</ele>
        <time>2015-11-11T10:20:56.993Z</time>
      </trkpt>
      <trkpt lat="45.88204" lon="4.87154">
        <ele>292.700012207</ele>
        <time>2015-11-11T10:20:57.975Z</time>
      </trkpt>
      <trkpt lat="45.88204" lon="4.87162">
        <ele>292.5</ele>
        <time>2015-11-11T10:20:58.99Z</time>
      </trkpt>
      <trkpt lat="45.88205" lon="4.87171">
        <ele>292.299987793</ele>
        <time>2015-11-11T10:20:59.975Z</time>
      </trkpt>
      <trkpt lat="45.88205" lon="4.8718">
        <ele>292</ele>
        <time>2015-11-11T10:21:01.002Z</time>
      </trkpt>
      <trkpt lat="45.88205" lon="4.87189">
        <ele>292</ele>
        <time>2015-11-11T10:21:01.974Z</time>
      </trkpt>
      <trkpt lat="45.88206" lon="4.87198">
        <ele>291.700012207</ele>
        <time>2015-11-11T10:21:02.996Z</time>
      </trkpt>
      <trkpt lat="45.88207" lon="4.87207">
        <ele>291.799987793</ele>
        <time>2015-11-11T10:21:03.975Z</time>
      </trkpt>
      <trkpt lat="45.88207" lon="4.87216">
        <ele>291.5</ele>
        <time>2015-11-11T10:21:04.99Z</time>
      </trkpt>
      <trkpt lat="45.88208" lon="4.87225">
        <ele>291.5</ele>
        <time>2015-11-11T10:21:05.975Z</time>
      </trkpt>
      <trkpt lat="45.88208" lon="4.87233">
        <ele>291.399993896</ele>
        <time>2015-11-11T10:21:06.989Z</time>
      </trkpt>
      <trkpt lat="45.88208" lon="4.87242">
        <ele>291.100006104</ele>
        <time>2015-11-11T10:21:07.975Z</time>
      </trkpt>
      <trkpt lat="45.88208" lon="4.8725">
        <ele>291.200012207</ele>
        <time>2015-11-11T10:21:08.993Z</time>
      </trkpt>
      <trkpt lat="45.88209" lon="4.87257">
        <ele>291.399993896</ele>
        <time>2015-11-11T10:21:09.975Z</time>
      </trkpt>
      <trkpt lat="45.88209" lon="4.87265">
        <ele>291.200012207</ele>
        <time>2015-11-11T10:21:10.99Z</time>
      </trkpt>
      <trkpt lat="45.8821" lon="4.87273">
        <ele>291.299987793</ele>
        <time>2015-11-11T10:21:11.975Z</time>
      </trkpt>
      <trkpt lat="45.8821" lon="4.87281">
        <ele>291.600006104</ele>
        <time>2015-11-11T10:21:12.989Z</time>
      </trkpt>
      <trkpt lat="45.88211" lon="4.87289">
        <ele>291.399993896</ele>
        <time>2015-11-11T10:21:13.975Z</time>
      </trkpt>
      <trkpt lat="45.88211" lon="4.87298">
        <ele>291.899993896</ele>
        <time>2015-11-11T10:21:14.993Z</time>
      </trkpt>
      <trkpt lat="45.88212" lon="4.87306">
        <ele>291.799987793</ele>
        <time>2015-11-11T10:21:15.975Z</time>
      </trkpt>
      <trkpt lat="45.88212" lon="4.87315">
        <ele>291.600006104</ele>
        <time>2015-11-11T10:21:17.011Z</time>
      </trkpt>
      <trkpt lat="45.88212" lon="4.87323">
        <ele>291.5</ele>
        <time>2015-11-11T10:21:17.975Z</time>
      </trkpt>
      <trkpt lat="45.88212" lon="4.87331">
        <ele>291.600006104</ele>
        <time>2015-11-11T10:21:18.989Z</time>
      </trkpt>
      <trkpt lat="45.88211" lon="4.8734">
        <ele>291.799987793</ele>
        <time>2015-11-11T10:21:19.975Z</time>
      </trkpt>
      <trkpt lat="45.8821" lon="4.87348">
        <ele>292.100006104</ele>
        <time>2015-11-11T10:21:20.993Z</time>
      </trkpt>
      <trkpt lat="45.88209" lon="4.87356">
        <ele>292</ele>
        <time>2015-11-11T10:21:21.975Z</time>
      </trkpt>
      <trkpt lat="45.8821" lon="4.87364">
        <ele>291.799987793</ele>
        <time>2015-11-11T10:21:22.991Z</time>
      </trkpt>
      <trkpt lat="45.88212" lon="4.87372">
        <ele>291.600006104</ele>
        <time>2015-11-11T10:21:23.975Z</time>
      </trkpt>
      <trkpt lat="45.88213" lon="4.8738">
        <ele>291.299987793</ele>
        <time>2015-11-11T10:21:24.989Z</time>
      </trkpt>
      <trkpt lat="45.88214" lon="4.87389">
        <ele>291.299987793</ele>
        <time>2015-11-11T10:21:25.975Z</time>
      </trkpt>
      <trkpt lat="45.88215" lon="4.87397">
        <ele>291.299987793</ele>
        <time>2015-11-11T10:21:26.992Z</time>
      </trkpt>
      <trkpt lat="45.88216" lon="4.87406">
        <ele>291.100006104</ele>
        <time>2015-11-11T10:21:27.975Z</time>
      </trkpt>
      <trkpt lat="45.88216" lon="4.87414">
        <ele>290.700012207</ele>
        <time>2015-11-11T10:21:29.032Z</time>
      </trkpt>
      <trkpt lat="45.88217" lon="4.87423">
        <ele>290.600006104</ele>
        <time>2015-11-11T10:21:29.975Z</time>
      </trkpt>
      <trkpt lat="45.88217" lon="4.87431">
        <ele>290.399993896</ele>
        <time>2015-11-11T10:21:30.989Z</time>
      </trkpt>
      <trkpt lat="45.88218" lon="4.8744">
        <ele>290</ele>
        <time>2015-11-11T10:21:31.975Z</time>
      </trkpt>
      <trkpt lat="45.88219" lon="4.87449">
        <ele>290.100006104</ele>
        <time>2015-11-11T10:21:33.006Z</time>
      </trkpt>
      <trkpt lat="45.88219" lon="4.87457">
        <ele>290.200012207</ele>
        <time>2015-11-11T10:21:33.975Z</time>
      </trkpt>
      <trkpt lat="45.8822" lon="4.87467">
        <ele>290.600006104</ele>
        <time>2015-11-11T10:21:34.997Z</time>
      </trkpt>
      <trkpt lat="45.8822" lon="4.87476">
        <ele>290.700012207</ele>
        <time>2015-11-11T10:21:35.975Z</time>
      </trkpt>
      <trkpt lat="45.88221" lon="4.87485">
        <ele>290.700012207</ele>
        <time>2015-11-11T10:21:36.989Z</time>
      </trkpt>
      <trkpt lat="45.88221" lon="4.87494">
        <ele>291.100006104</ele>
        <time>2015-11-11T10:21:37.975Z</time>
      </trkpt>
      <trkpt lat="45.88222" lon="4.87503">
        <ele>291.299987793</ele>
        <time>2015-11-11T10:21:38.993Z</time>
      </trkpt>
      <trkpt lat="45.88222" lon="4.87512">
        <ele>291.399993896</ele>
        <time>2015-11-11T10:21:39.977Z</time>
      </trkpt>
      <trkpt lat="45.88222" lon="4.87521">
        <ele>291.600006104</ele>
        <time>2015-11-11T10:21:40.99Z</time>
      </trkpt>
      <trkpt lat="45.88223" lon="4.87531">
        <ele>291.700012207</ele>
        <time>2015-11-11T10:21:41.975Z</time>
      </trkpt>
      <trkpt lat="45.88223" lon="4.8754">
        <ele>291.799987793</ele>
        <time>2015-11-11T10:21:42.989Z</time>
      </trkpt>
      <trkpt lat="45.88223" lon="4.87549">
        <ele>292.100006104</ele>
        <time>2015-11-11T10:21:43.975Z</time>
      </trkpt>
      <trkpt lat="45.88224" lon="4.87557">
        <ele>291.799987793</ele>
        <time>2015-11-11T10:21:44.993Z</time>
      </trkpt>
      <trkpt lat="45.88225" lon="4.87567">
        <ele>291.700012207</ele>
        <time>2015-11-11T10:21:45.975Z</time>
      </trkpt>
      <trkpt lat="45.88225" lon="4.87576">
        <ele>291.899993896</ele>
        <time>2015-11-11T10:21:46.99Z</time>
      </trkpt>
      <trkpt lat="45.88226" lon="4.87585">
        <ele>291.799987793</ele>
        <time>2015-11-11T10:21:47.975Z</time>
      </trkpt>
      <trkpt lat="45.88227" lon="4.87594">
        <ele>291.700012207</ele>
        <time>2015-11-11T10:21:49.004Z</time>
      </trkpt>
      <trkpt lat="45.88227" lon="4.87603">
        <ele>291.600006104</ele>
        <time>2015-11-11T10:21:49.975Z</time>
      </trkpt>
      <trkpt lat="45.88227" lon="4.87613">
        <ele>292.200012207</ele>
        <time>2015-11-11T10:21:50.993Z</time>
      </trkpt>
      <trkpt lat="45.88228" lon="4.87623">
        <ele>292.700012207</ele>
        <time>2015-11-11T10:21:51.975Z</time>
      </trkpt>
      <trkpt lat="45.88229" lon="4.87632">
        <ele>292.600006104</ele>
        <time>2015-11-11T10:21:52.99Z</time>
      </trkpt>
      <trkpt lat="45.8823" lon="4.8764">
        <ele>292.700012207</ele>
        <time>2015-11-11T10:21:53.975Z</time>
      </trkpt>
      <trkpt lat="45.88231" lon="4.87649">
        <ele>292.399993896</ele>
        <time>2015-11-11T10:21:55.102Z</time>
      </trkpt>
      <trkpt lat="45.88232" lon="4.87657">
        <ele>292.700012207</ele>
        <time>2015-11-11T10:21:55.974Z</time>
      </trkpt>
      <trkpt lat="45.88233" lon="4.87665">
        <ele>292.399993896</ele>
        <time>2015-11-11T10:21:56.992Z</time>
      </trkpt>
      <trkpt lat="45.88234" lon="4.87672">
        <ele>292.399993896</ele>
        <time>2015-11-11T10:21:57.974Z</time>
      </trkpt>
      <trkpt lat="45.88236" lon="4.8768">
        <ele>292.100006104</ele>
        <time>2015-11-11T10:21:58.989Z</time>
      </trkpt>
      <trkpt lat="45.88237" lon="4.87688">
        <ele>292</ele>
        <time>2015-11-11T10:21:59.974Z</time>
      </trkpt>
      <trkpt lat="45.88238" lon="4.87695">
        <ele>291.600006104</ele>
        <time>2015-11-11T10:22:00.989Z</time>
      </trkpt>
      <trkpt lat="45.88239" lon="4.87703">
        <ele>291.299987793</ele>
        <time>2015-11-11T10:22:01.974Z</time>
      </trkpt>
      <trkpt lat="45.88239" lon="4.87711">
        <ele>291.100006104</ele>
        <time>2015-11-11T10:22:02.992Z</time>
      </trkpt>
      <trkpt lat="45.88241" lon="4.87719">
        <ele>290.899993896</ele>
        <time>2015-11-11T10:22:03.974Z</time>
      </trkpt>
      <trkpt lat="45.88241" lon="4.87726">
        <ele>291</ele>
        <time>2015-11-11T10:22:05.004Z</time>
      </trkpt>
      <trkpt lat="45.88243" lon="4.87734">
        <ele>290.799987793</ele>
        <time>2015-11-11T10:22:05.974Z</time>
      </trkpt>
      <trkpt lat="45.88244" lon="4.87742">
        <ele>290.5</ele>
        <time>2015-11-11T10:22:06.989Z</time>
      </trkpt>
      <trkpt lat="45.88245" lon="4.8775">
        <ele>290.5</ele>
        <time>2015-11-11T10:22:07.974Z</time>
      </trkpt>
      <trkpt lat="45.88246" lon="4.87759">
        <ele>290.700012207</ele>
        <time>2015-11-11T10:22:08.992Z</time>
      </trkpt>
      <trkpt lat="45.88247" lon="4.87767">
        <ele>290.299987793</ele>
        <time>2015-11-11T10:22:09.974Z</time>
      </trkpt>
      <trkpt lat="45.88248" lon="4.87775">
        <ele>290.299987793</ele>
        <time>2015-11-11T10:22:10.99Z</time>
      </trkpt>
      <trkpt lat="45.88249" lon="4.87784">
        <ele>290.399993896</ele>
        <time>2015-11-11T10:22:11.974Z</time>
      </trkpt>
      <trkpt lat="45.8825" lon="4.87792">
        <ele>290.299987793</ele>
        <time>2015-11-11T10:22:12.988Z</time>
      </trkpt>
      <trkpt lat="45.88251" lon="4.87801">
        <ele>290.100006104</ele>
        <time>2015-11-11T10:22:13.974Z</time>
      </trkpt>
      <trkpt lat="45.88252" lon="4.87809">
        <ele>289.700012207</ele>
        <time>2015-11-11T10:22:14.992Z</time>
      </trkpt>
      <trkpt lat="45.88253" lon="4.87818">
        <ele>289.700012207</ele>
        <time>2015-11-11T10:22:16.008Z</time>
      </trkpt>
      <trkpt lat="45.88255" lon="4.87826">
        <ele>289.799987793</ele>
        <time>2015-11-11T10:22:16.998Z</time>
      </trkpt>
      <trkpt lat="45.88256" lon="4.87835">
        <ele>290.200012207</ele>
        <time>2015-11-11T10:22:17.975Z</time>
      </trkpt>
      <trkpt lat="45.88257" lon="4.87843">
        <ele>290.399993896</ele>
        <time>2015-11-11T10:22:18.988Z</time>
      </trkpt>
      <trkpt lat="45.88258" lon="4.87851">
        <ele>290.799987793</ele>
        <time>2015-11-11T10:22:19.974Z</time>
      </trkpt>
      <trkpt lat="45.88259" lon="4.87859">
        <ele>290.799987793</ele>
        <time>2015-11-11T10:22:21.008Z</time>
      </trkpt>
      <trkpt lat="45.8826" lon="4.87867">
        <ele>290.700012207</ele>
        <time>2015-11-11T10:22:21.974Z</time>
      </trkpt>
      <trkpt lat="45.88261" lon="4.87875">
        <ele>291.100006104</ele>
        <time>2015-11-11T10:22:22.99Z</time>
      </trkpt>
      <trkpt lat="45.88262" lon="4.87882">
        <ele>291.100006104</ele>
        <time>2015-11-11T10:22:23.974Z</time>
      </trkpt>
      <trkpt lat="45.88262" lon="4.8789">
        <ele>291.299987793</ele>
        <time>2015-11-11T10:22:25.018Z</time>
      </trkpt>
      <trkpt lat="45.88263" lon="4.87897">
        <ele>291</ele>
        <time>2015-11-11T10:22:25.975Z</time>
      </trkpt>
      <trkpt lat="45.88264" lon="4.87903">
        <ele>291.200012207</ele>
        <time>2015-11-11T10:22:26.992Z</time>
      </trkpt>
      <trkpt lat="45.88264" lon="4.8791">
        <ele>291.799987793</ele>
        <time>2015-11-11T10:22:27.974Z</time>
      </trkpt>
      <trkpt lat="45.88265" lon="4.87922">
        <ele>292.299987793</ele>
        <time>2015-11-11T10:22:29.989Z</time>
      </trkpt>
      <trkpt lat="45.88266" lon="4.87928">
        <ele>292.600006104</ele>
        <time>2015-11-11T10:22:30.974Z</time>
      </trkpt>
      <trkpt lat="45.88266" lon="4.8794">
        <ele>292.799987793</ele>
        <time>2015-11-11T10:22:32.993Z</time>
      </trkpt>
      <trkpt lat="45.88267" lon="4.87946">
        <ele>293</ele>
        <time>2015-11-11T10:22:33.974Z</time>
      </trkpt>
      <trkpt lat="45.88267" lon="4.87959">
        <ele>293.700012207</ele>
        <time>2015-11-11T10:22:35.989Z</time>
      </trkpt>
      <trkpt lat="45.88267" lon="4.87965">
        <ele>293.5</ele>
        <time>2015-11-11T10:22:36.974Z</time>
      </trkpt>
      <trkpt lat="45.88268" lon="4.87978">
        <ele>294.299987793</ele>
        <time>2015-11-11T10:22:38.993Z</time>
      </trkpt>
      <trkpt lat="45.88268" lon="4.87984">
        <ele>294.5</ele>
        <time>2015-11-11T10:22:39.977Z</time>
      </trkpt>
      <trkpt lat="45.88269" lon="4.87997">
        <ele>294.799987793</ele>
        <time>2015-11-11T10:22:41.988Z</time>
      </trkpt>
      <trkpt lat="45.88269" lon="4.88003">
        <ele>294.899993896</ele>
        <time>2015-11-11T10:22:42.974Z</time>
      </trkpt>
      <trkpt lat="45.88269" lon="4.8801">
        <ele>294.799987793</ele>
        <time>2015-11-11T10:22:43.988Z</time>
      </trkpt>
      <trkpt lat="45.88269" lon="4.88016">
        <ele>295.100006104</ele>
        <time>2015-11-11T10:22:44.978Z</time>
      </trkpt>
      <trkpt lat="45.8827" lon="4.88029">
        <ele>295.299987793</ele>
        <time>2015-11-11T10:22:46.993Z</time>
      </trkpt>
      <trkpt lat="45.8827" lon="4.88035">
        <ele>295.299987793</ele>
        <time>2015-11-11T10:22:47.987Z</time>
      </trkpt>
      <trkpt lat="45.8827" lon="4.88042">
        <ele>295.5</ele>
        <time>2015-11-11T10:22:48.989Z</time>
      </trkpt>
      <trkpt lat="45.8827" lon="4.88048">
        <ele>295.600006104</ele>
        <time>2015-11-11T10:22:49.974Z</time>
      </trkpt>
      <trkpt lat="45.88271" lon="4.88055">
        <ele>295.299987793</ele>
        <time>2015-11-11T10:22:50.992Z</time>
      </trkpt>
      <trkpt lat="45.88271" lon="4.88062">
        <ele>295.200012207</ele>
        <time>2015-11-11T10:22:51.974Z</time>
      </trkpt>
      <trkpt lat="45.88271" lon="4.88069">
        <ele>295.600006104</ele>
        <time>2015-11-11T10:22:52.989Z</time>
      </trkpt>
      <trkpt lat="45.88272" lon="4.88076">
        <ele>295.700012207</ele>
        <time>2015-11-11T10:22:53.975Z</time>
      </trkpt>
      <trkpt lat="45.88272" lon="4.88088">
        <ele>295.600006104</ele>
        <time>2015-11-11T10:22:55.989Z</time>
      </trkpt>
      <trkpt lat="45.88272" lon="4.88094">
        <ele>296</ele>
        <time>2015-11-11T10:22:56.978Z</time>
      </trkpt>
      <trkpt lat="45.88273" lon="4.88106">
        <ele>296.399993896</ele>
        <time>2015-11-11T10:22:58.989Z</time>
      </trkpt>
      <trkpt lat="45.88273" lon="4.88112">
        <ele>296.600006104</ele>
        <time>2015-11-11T10:22:59.974Z</time>
      </trkpt>
      <trkpt lat="45.88274" lon="4.88118">
        <ele>296.799987793</ele>
        <time>2015-11-11T10:23:00.989Z</time>
      </trkpt>
      <trkpt lat="45.88274" lon="4.88125">
        <ele>297</ele>
        <time>2015-11-11T10:23:01.974Z</time>
      </trkpt>
      <trkpt lat="45.88274" lon="4.88131">
        <ele>297.399993896</ele>
        <time>2015-11-11T10:23:02.992Z</time>
      </trkpt>
      <trkpt lat="45.88275" lon="4.88138">
        <ele>297.899993896</ele>
        <time>2015-11-11T10:23:03.974Z</time>
      </trkpt>
      <trkpt lat="45.88275" lon="4.88145">
        <ele>298.200012207</ele>
        <time>2015-11-11T10:23:04.989Z</time>
      </trkpt>
      <trkpt lat="45.88275" lon="4.88152">
        <ele>298.200012207</ele>
        <time>2015-11-11T10:23:05.974Z</time>
      </trkpt>
      <trkpt lat="45.88275" lon="4.88159">
        <ele>298.200012207</ele>
        <time>2015-11-11T10:23:06.989Z</time>
      </trkpt>
      <trkpt lat="45.88275" lon="4.88166">
        <ele>297.899993896</ele>
        <time>2015-11-11T10:23:07.974Z</time>
      </trkpt>
      <trkpt lat="45.88276" lon="4.88172">
        <ele>298.200012207</ele>
        <time>2015-11-11T10:23:09.018Z</time>
      </trkpt>
      <trkpt lat="45.88276" lon="4.88179">
        <ele>298.299987793</ele>
        <time>2015-11-11T10:23:09.976Z</time>
      </trkpt>
      <trkpt lat="45.88276" lon="4.88185">
        <ele>298.299987793</ele>
        <time>2015-11-11T10:23:10.991Z</time>
      </trkpt>
      <trkpt lat="45.88277" lon="4.88192">
        <ele>298.5</ele>
        <time>2015-11-11T10:23:11.976Z</time>
      </trkpt>
      <trkpt lat="45.88277" lon="4.882">
        <ele>298.700012207</ele>
        <time>2015-11-11T10:23:12.994Z</time>
      </trkpt>
      <trkpt lat="45.88278" lon="4.88207">
        <ele>298.5</ele>
        <time>2015-11-11T10:23:13.976Z</time>
      </trkpt>
      <trkpt lat="45.88277" lon="4.88214">
        <ele>298.5</ele>
        <time>2015-11-11T10:23:15.005Z</time>
      </trkpt>
      <trkpt lat="45.88277" lon="4.88222">
        <ele>298.700012207</ele>
        <time>2015-11-11T10:23:15.974Z</time>
      </trkpt>
      <trkpt lat="45.88277" lon="4.8823">
        <ele>299</ele>
        <time>2015-11-11T10:23:17.027Z</time>
      </trkpt>
      <trkpt lat="45.88277" lon="4.88238">
        <ele>299.200012207</ele>
        <time>2015-11-11T10:23:17.974Z</time>
      </trkpt>
      <trkpt lat="45.88277" lon="4.88246">
        <ele>299.200012207</ele>
        <time>2015-11-11T10:23:18.989Z</time>
      </trkpt>
      <trkpt lat="45.88276" lon="4.88255">
        <ele>299.299987793</ele>
        <time>2015-11-11T10:23:19.974Z</time>
      </trkpt>
      <trkpt lat="45.88275" lon="4.88263">
        <ele>299.700012207</ele>
        <time>2015-11-11T10:23:20.992Z</time>
      </trkpt>
      <trkpt lat="45.88275" lon="4.88271">
        <ele>299.700012207</ele>
        <time>2015-11-11T10:23:21.974Z</time>
      </trkpt>
      <trkpt lat="45.88275" lon="4.8828">
        <ele>299.5</ele>
        <time>2015-11-11T10:23:22.99Z</time>
      </trkpt>
      <trkpt lat="45.88274" lon="4.88288">
        <ele>299.299987793</ele>
        <time>2015-11-11T10:23:23.974Z</time>
      </trkpt>
      <trkpt lat="45.88274" lon="4.88296">
        <ele>298.899993896</ele>
        <time>2015-11-11T10:23:24.988Z</time>
      </trkpt>
      <trkpt lat="45.88272" lon="4.88305">
        <ele>298.799987793</ele>
        <time>2015-11-11T10:23:25.975Z</time>
      </trkpt>
      <trkpt lat="45.88269" lon="4.88312">
        <ele>298.600006104</ele>
        <time>2015-11-11T10:23:26.992Z</time>
      </trkpt>
      <trkpt lat="45.88265" lon="4.88318">
        <ele>298.299987793</ele>
        <time>2015-11-11T10:23:27.975Z</time>
      </trkpt>
      <trkpt lat="45.8826" lon="4.88324">
        <ele>298.399993896</ele>
        <time>2015-11-11T10:23:28.99Z</time>
      </trkpt>
      <trkpt lat="45.88256" lon="4.8833">
        <ele>298</ele>
        <time>2015-11-11T10:23:29.974Z</time>
      </trkpt>
      <trkpt lat="45.88253" lon="4.88338">
        <ele>297.600006104</ele>
        <time>2015-11-11T10:23:31.003Z</time>
      </trkpt>
      <trkpt lat="45.88251" lon="4.88346">
        <ele>297.299987793</ele>
        <time>2015-11-11T10:23:31.974Z</time>
      </trkpt>
      <trkpt lat="45.88252" lon="4.88355">
        <ele>297.200012207</ele>
        <time>2015-11-11T10:23:32.992Z</time>
      </trkpt>
      <trkpt lat="45.88253" lon="4.88363">
        <ele>296.799987793</ele>
        <time>2015-11-11T10:23:33.974Z</time>
      </trkpt>
      <trkpt lat="45.88257" lon="4.8837">
        <ele>296.5</ele>
        <time>2015-11-11T10:23:34.99Z</time>
      </trkpt>
      <trkpt lat="45.88261" lon="4.88377">
        <ele>296.200012207</ele>
        <time>2015-11-11T10:23:35.974Z</time>
      </trkpt>
      <trkpt lat="45.88264" lon="4.88384">
        <ele>296.399993896</ele>
        <time>2015-11-11T10:23:36.989Z</time>
      </trkpt>
      <trkpt lat="45.88268" lon="4.8839">
        <ele>296.100006104</ele>
        <time>2015-11-11T10:23:37.974Z</time>
      </trkpt>
      <trkpt lat="45.8827" lon="4.88398">
        <ele>295.899993896</ele>
        <time>2015-11-11T10:23:38.996Z</time>
      </trkpt>
      <trkpt lat="45.88271" lon="4.88406">
        <ele>295.899993896</ele>
        <time>2015-11-11T10:23:39.976Z</time>
      </trkpt>
      <trkpt lat="45.88271" lon="4.88414">
        <ele>296</ele>
        <time>2015-11-11T10:23:40.989Z</time>
      </trkpt>
      <trkpt lat="45.88271" lon="4.88422">
        <ele>295.799987793</ele>
        <time>2015-11-11T10:23:41.975Z</time>
      </trkpt>
      <trkpt lat="45.8827" lon="4.8843">
        <ele>295.200012207</ele>
        <time>2015-11-11T10:23:42.993Z</time>
      </trkpt>
      <trkpt lat="45.8827" lon="4.88439">
        <ele>295.200012207</ele>
        <time>2015-11-11T10:23:43.975Z</time>
      </trkpt>
      <trkpt lat="45.88269" lon="4.88448">
        <ele>294.899993896</ele>
        <time>2015-11-11T10:23:44.992Z</time>
      </trkpt>
      <trkpt lat="45.88268" lon="4.88458">
        <ele>294.700012207</ele>
        <time>2015-11-11T10:23:45.974Z</time>
      </trkpt>
      <trkpt lat="45.88268" lon="4.88467">
        <ele>294.100006104</ele>
        <time>2015-11-11T10:23:47.04Z</time>
      </trkpt>
      <trkpt lat="45.88267" lon="4.88476">
        <ele>293.5</ele>
        <time>2015-11-11T10:23:47.974Z</time>
      </trkpt>
      <trkpt lat="45.88267" lon="4.88486">
        <ele>292.899993896</ele>
        <time>2015-11-11T10:23:48.988Z</time>
      </trkpt>
      <trkpt lat="45.88266" lon="4.88495">
        <ele>292.600006104</ele>
        <time>2015-11-11T10:23:49.974Z</time>
      </trkpt>
      <trkpt lat="45.88265" lon="4.88505">
        <ele>292.399993896</ele>
        <time>2015-11-11T10:23:50.992Z</time>
      </trkpt>
      <trkpt lat="45.88265" lon="4.88515">
        <ele>292.100006104</ele>
        <time>2015-11-11T10:23:51.974Z</time>
      </trkpt>
      <trkpt lat="45.88264" lon="4.88525">
        <ele>291.700012207</ele>
        <time>2015-11-11T10:23:52.99Z</time>
      </trkpt>
      <trkpt lat="45.88263" lon="4.88535">
        <ele>292</ele>
        <time>2015-11-11T10:23:53.974Z</time>
      </trkpt>
      <trkpt lat="45.88263" lon="4.88545">
        <ele>292</ele>
        <time>2015-11-11T10:23:54.988Z</time>
      </trkpt>
      <trkpt lat="45.88262" lon="4.88555">
        <ele>291.399993896</ele>
        <time>2015-11-11T10:23:55.975Z</time>
      </trkpt>
      <trkpt lat="45.88262" lon="4.88565">
        <ele>290.799987793</ele>
        <time>2015-11-11T10:23:56.992Z</time>
      </trkpt>
      <trkpt lat="45.88261" lon="4.88575">
        <ele>290.399993896</ele>
        <time>2015-11-11T10:23:57.975Z</time>
      </trkpt>
      <trkpt lat="45.8826" lon="4.88584">
        <ele>290.5</ele>
        <time>2015-11-11T10:23:58.99Z</time>
      </trkpt>
      <trkpt lat="45.8826" lon="4.88594">
        <ele>290.600006104</ele>
        <time>2015-11-11T10:23:59.975Z</time>
      </trkpt>
      <trkpt lat="45.88259" lon="4.88603">
        <ele>290.600006104</ele>
        <time>2015-11-11T10:24:00.989Z</time>
      </trkpt>
      <trkpt lat="45.88258" lon="4.88612">
        <ele>290.100006104</ele>
        <time>2015-11-11T10:24:01.975Z</time>
      </trkpt>
      <trkpt lat="45.88257" lon="4.8862">
        <ele>289.899993896</ele>
        <time>2015-11-11T10:24:03.01Z</time>
      </trkpt>
      <trkpt lat="45.88257" lon="4.88629">
        <ele>290</ele>
        <time>2015-11-11T10:24:03.974Z</time>
      </trkpt>
      <trkpt lat="45.88256" lon="4.88637">
        <ele>290.100006104</ele>
        <time>2015-11-11T10:24:04.993Z</time>
      </trkpt>
      <trkpt lat="45.88256" lon="4.88646">
        <ele>290</ele>
        <time>2015-11-11T10:24:05.975Z</time>
      </trkpt>
      <trkpt lat="45.88255" lon="4.88655">
        <ele>289.799987793</ele>
        <time>2015-11-11T10:24:06.989Z</time>
      </trkpt>
      <trkpt lat="45.88255" lon="4.88663">
        <ele>289.399993896</ele>
        <time>2015-11-11T10:24:07.975Z</time>
      </trkpt>
      <trkpt lat="45.88254" lon="4.88672">
        <ele>289.299987793</ele>
        <time>2015-11-11T10:24:08.991Z</time>
      </trkpt>
      <trkpt lat="45.88254" lon="4.88681">
        <ele>289.799987793</ele>
        <time>2015-11-11T10:24:09.975Z</time>
      </trkpt>
      <trkpt lat="45.88253" lon="4.8869">
        <ele>289.700012207</ele>
        <time>2015-11-11T10:24:10.99Z</time>
      </trkpt>
      <trkpt lat="45.88253" lon="4.887">
        <ele>289.399993896</ele>
        <time>2015-11-11T10:24:12.01Z</time>
      </trkpt>
      <trkpt lat="45.88252" lon="4.8871">
        <ele>289.200012207</ele>
        <time>2015-11-11T10:24:12.989Z</time>
      </trkpt>
      <trkpt lat="45.88252" lon="4.88719">
        <ele>289.100006104</ele>
        <time>2015-11-11T10:24:13.975Z</time>
      </trkpt>
      <trkpt lat="45.88251" lon="4.88729">
        <ele>289.100006104</ele>
        <time>2015-11-11T10:24:14.992Z</time>
      </trkpt>
      <trkpt lat="45.8825" lon="4.88738">
        <ele>289.200012207</ele>
        <time>2015-11-11T10:24:15.975Z</time>
      </trkpt>
      <trkpt lat="45.88249" lon="4.88747">
        <ele>289</ele>
        <time>2015-11-11T10:24:16.99Z</time>
      </trkpt>
      <trkpt lat="45.88249" lon="4.88755">
        <ele>288.799987793</ele>
        <time>2015-11-11T10:24:17.975Z</time>
      </trkpt>
      <trkpt lat="45.88248" lon="4.88764">
        <ele>288.600006104</ele>
        <time>2015-11-11T10:24:19.004Z</time>
      </trkpt>
      <trkpt lat="45.88248" lon="4.88773">
        <ele>288.600006104</ele>
        <time>2015-11-11T10:24:19.975Z</time>
      </trkpt>
      <trkpt lat="45.88247" lon="4.88782">
        <ele>288.5</ele>
        <time>2015-11-11T10:24:20.992Z</time>
      </trkpt>
      <trkpt lat="45.88246" lon="4.88791">
        <ele>288.299987793</ele>
        <time>2015-11-11T10:24:21.975Z</time>
      </trkpt>
      <trkpt lat="45.88246" lon="4.888">
        <ele>288.100006104</ele>
        <time>2015-11-11T10:24:22.99Z</time>
      </trkpt>
      <trkpt lat="45.88245" lon="4.88809">
        <ele>287.799987793</ele>
        <time>2015-11-11T10:24:24.104Z</time>
      </trkpt>
      <trkpt lat="45.88244" lon="4.88818">
        <ele>287.600006104</ele>
        <time>2015-11-11T10:24:24.988Z</time>
      </trkpt>
      <trkpt lat="45.88243" lon="4.88827">
        <ele>287.600006104</ele>
        <time>2015-11-11T10:24:25.975Z</time>
      </trkpt>
      <trkpt lat="45.88243" lon="4.88837">
        <ele>287.5</ele>
        <time>2015-11-11T10:24:27.018Z</time>
      </trkpt>
      <trkpt lat="45.88242" lon="4.88847">
        <ele>287.5</ele>
        <time>2015-11-11T10:24:27.975Z</time>
      </trkpt>
      <trkpt lat="45.88241" lon="4.88856">
        <ele>287.5</ele>
        <time>2015-11-11T10:24:28.99Z</time>
      </trkpt>
      <trkpt lat="45.8824" lon="4.88865">
        <ele>287.5</ele>
        <time>2015-11-11T10:24:29.974Z</time>
      </trkpt>
      <trkpt lat="45.88239" lon="4.88873">
        <ele>287.200012207</ele>
        <time>2015-11-11T10:24:30.993Z</time>
      </trkpt>
      <trkpt lat="45.88239" lon="4.88882">
        <ele>287.299987793</ele>
        <time>2015-11-11T10:24:31.975Z</time>
      </trkpt>
      <trkpt lat="45.88238" lon="4.88891">
        <ele>287.200012207</ele>
        <time>2015-11-11T10:24:32.992Z</time>
      </trkpt>
      <trkpt lat="45.88238" lon="4.88899">
        <ele>287.299987793</ele>
        <time>2015-11-11T10:24:33.974Z</time>
      </trkpt>
      <trkpt lat="45.88237" lon="4.88907">
        <ele>287.200012207</ele>
        <time>2015-11-11T10:24:35.003Z</time>
      </trkpt>
      <trkpt lat="45.88236" lon="4.88915">
        <ele>287.100006104</ele>
        <time>2015-11-11T10:24:35.975Z</time>
      </trkpt>
      <trkpt lat="45.88236" lon="4.88924">
        <ele>287.100006104</ele>
        <time>2015-11-11T10:24:36.989Z</time>
      </trkpt>
      <trkpt lat="45.88235" lon="4.88932">
        <ele>287.299987793</ele>
        <time>2015-11-11T10:24:37.975Z</time>
      </trkpt>
      <trkpt lat="45.88234" lon="4.88941">
        <ele>288</ele>
        <time>2015-11-11T10:24:38.999Z</time>
      </trkpt>
      <trkpt lat="45.88234" lon="4.8895">
        <ele>287.600006104</ele>
        <time>2015-11-11T10:24:39.977Z</time>
      </trkpt>
      <trkpt lat="45.88233" lon="4.88958">
        <ele>287.5</ele>
        <time>2015-11-11T10:24:40.99Z</time>
      </trkpt>
      <trkpt lat="45.88232" lon="4.88967">
        <ele>287.5</ele>
        <time>2015-11-11T10:24:41.975Z</time>
      </trkpt>
      <trkpt lat="45.88232" lon="4.88977">
        <ele>287.100006104</ele>
        <time>2015-11-11T10:24:42.989Z</time>
      </trkpt>
      <trkpt lat="45.8823" lon="4.88986">
        <ele>287.600006104</ele>
        <time>2015-11-11T10:24:43.974Z</time>
      </trkpt>
      <trkpt lat="45.8823" lon="4.88995">
        <ele>287.799987793</ele>
        <time>2015-11-11T10:24:44.992Z</time>
      </trkpt>
      <trkpt lat="45.88229" lon="4.89004">
        <ele>287.700012207</ele>
        <time>2015-11-11T10:24:45.974Z</time>
      </trkpt>
      <trkpt lat="45.88229" lon="4.89013">
        <ele>287.600006104</ele>
        <time>2015-11-11T10:24:46.99Z</time>
      </trkpt>
      <trkpt lat="45.88228" lon="4.89022">
        <ele>287.399993896</ele>
        <time>2015-11-11T10:24:47.975Z</time>
      </trkpt>
      <trkpt lat="45.88228" lon="4.89031">
        <ele>287.299987793</ele>
        <time>2015-11-11T10:24:48.989Z</time>
      </trkpt>
      <trkpt lat="45.88227" lon="4.89039">
        <ele>287.5</ele>
        <time>2015-11-11T10:24:49.975Z</time>
      </trkpt>
      <trkpt lat="45.88225" lon="4.89047">
        <ele>287.899993896</ele>
        <time>2015-11-11T10:24:51.023Z</time>
      </trkpt>
      <trkpt lat="45.88225" lon="4.89055">
        <ele>287.899993896</ele>
        <time>2015-11-11T10:24:51.975Z</time>
      </trkpt>
      <trkpt lat="45.88224" lon="4.89063">
        <ele>287.799987793</ele>
        <time>2015-11-11T10:24:52.99Z</time>
      </trkpt>
      <trkpt lat="45.88223" lon="4.89071">
        <ele>287.700012207</ele>
        <time>2015-11-11T10:24:53.978Z</time>
      </trkpt>
      <trkpt lat="45.88223" lon="4.89079">
        <ele>287.600006104</ele>
        <time>2015-11-11T10:24:55.007Z</time>
      </trkpt>
      <trkpt lat="45.88222" lon="4.89087">
        <ele>287.600006104</ele>
        <time>2015-11-11T10:24:55.975Z</time>
      </trkpt>
      <trkpt lat="45.88221" lon="4.89095">
        <ele>287.399993896</ele>
        <time>2015-11-11T10:24:57.117Z</time>
      </trkpt>
      <trkpt lat="45.88221" lon="4.89103">
        <ele>287.700012207</ele>
        <time>2015-11-11T10:24:57.975Z</time>
      </trkpt>
      <trkpt lat="45.8822" lon="4.89111">
        <ele>287.700012207</ele>
        <time>2015-11-11T10:24:58.99Z</time>
      </trkpt>
      <trkpt lat="45.8822" lon="4.89119">
        <ele>287.799987793</ele>
        <time>2015-11-11T10:24:59.974Z</time>
      </trkpt>
      <trkpt lat="45.88219" lon="4.89127">
        <ele>287.799987793</ele>
        <time>2015-11-11T10:25:00.989Z</time>
      </trkpt>
      <trkpt lat="45.88219" lon="4.89135">
        <ele>287.399993896</ele>
        <time>2015-11-11T10:25:01.975Z</time>
      </trkpt>
      <trkpt lat="45.88218" lon="4.89143">
        <ele>287.100006104</ele>
        <time>2015-11-11T10:25:02.992Z</time>
      </trkpt>
      <trkpt lat="45.88218" lon="4.89151">
        <ele>287</ele>
        <time>2015-11-11T10:25:03.974Z</time>
      </trkpt>
      <trkpt lat="45.88217" lon="4.89159">
        <ele>286.600006104</ele>
        <time>2015-11-11T10:25:04.99Z</time>
      </trkpt>
      <trkpt lat="45.88216" lon="4.89166">
        <ele>286.600006104</ele>
        <time>2015-11-11T10:25:05.974Z</time>
      </trkpt>
      <trkpt lat="45.88216" lon="4.89174">
        <ele>286.700012207</ele>
        <time>2015-11-11T10:25:07.039Z</time>
      </trkpt>
      <trkpt lat="45.88215" lon="4.89181">
        <ele>286.600006104</ele>
        <time>2015-11-11T10:25:07.975Z</time>
      </trkpt>
      <trkpt lat="45.88215" lon="4.89188">
        <ele>287.200012207</ele>
        <time>2015-11-11T10:25:08.992Z</time>
      </trkpt>
      <trkpt lat="45.88214" lon="4.89195">
        <ele>287.899993896</ele>
        <time>2015-11-11T10:25:09.974Z</time>
      </trkpt>
      <trkpt lat="45.88214" lon="4.89202">
        <ele>288.5</ele>
        <time>2015-11-11T10:25:10.99Z</time>
      </trkpt>
      <trkpt lat="45.88214" lon="4.89209">
        <ele>289.200012207</ele>
        <time>2015-11-11T10:25:11.974Z</time>
      </trkpt>
      <trkpt lat="45.88213" lon="4.89216">
        <ele>289.299987793</ele>
        <time>2015-11-11T10:25:12.989Z</time>
      </trkpt>
      <trkpt lat="45.88212" lon="4.89223">
        <ele>289.5</ele>
        <time>2015-11-11T10:25:13.974Z</time>
      </trkpt>
      <trkpt lat="45.88211" lon="4.8923">
        <ele>289.700012207</ele>
        <time>2015-11-11T10:25:14.992Z</time>
      </trkpt>
      <trkpt lat="45.88211" lon="4.89238">
        <ele>289.600006104</ele>
        <time>2015-11-11T10:25:15.974Z</time>
      </trkpt>
      <trkpt lat="45.8821" lon="4.89245">
        <ele>289.399993896</ele>
        <time>2015-11-11T10:25:16.989Z</time>
      </trkpt>
      <trkpt lat="45.88209" lon="4.89252">
        <ele>288.899993896</ele>
        <time>2015-11-11T10:25:17.974Z</time>
      </trkpt>
      <trkpt lat="45.88209" lon="4.89259">
        <ele>288.5</ele>
        <time>2015-11-11T10:25:18.988Z</time>
      </trkpt>
      <trkpt lat="45.88209" lon="4.89266">
        <ele>288.299987793</ele>
        <time>2015-11-11T10:25:19.974Z</time>
      </trkpt>
      <trkpt lat="45.88208" lon="4.89273">
        <ele>287.899993896</ele>
        <time>2015-11-11T10:25:21.002Z</time>
      </trkpt>
      <trkpt lat="45.88208" lon="4.89281">
        <ele>287.899993896</ele>
        <time>2015-11-11T10:25:21.974Z</time>
      </trkpt>
      <trkpt lat="45.88207" lon="4.89288">
        <ele>287.600006104</ele>
        <time>2015-11-11T10:25:23.015Z</time>
      </trkpt>
      <trkpt lat="45.88207" lon="4.89296">
        <ele>287.600006104</ele>
        <time>2015-11-11T10:25:23.974Z</time>
      </trkpt>
      <trkpt lat="45.88206" lon="4.89303">
        <ele>288</ele>
        <time>2015-11-11T10:25:24.988Z</time>
      </trkpt>
      <trkpt lat="45.88206" lon="4.8931">
        <ele>288.399993896</ele>
        <time>2015-11-11T10:25:25.974Z</time>
      </trkpt>
      <trkpt lat="45.88205" lon="4.89317">
        <ele>288.799987793</ele>
        <time>2015-11-11T10:25:26.992Z</time>
      </trkpt>
      <trkpt lat="45.88205" lon="4.89324">
        <ele>289.600006104</ele>
        <time>2015-11-11T10:25:27.974Z</time>
      </trkpt>
      <trkpt lat="45.88204" lon="4.89332">
        <ele>289.899993896</ele>
        <time>2015-11-11T10:25:28.989Z</time>
      </trkpt>
      <trkpt lat="45.88204" lon="4.89339">
        <ele>290.399993896</ele>
        <time>2015-11-11T10:25:29.974Z</time>
      </trkpt>
      <trkpt lat="45.88203" lon="4.89346">
        <ele>290.5</ele>
        <time>2015-11-11T10:25:30.988Z</time>
      </trkpt>
      <trkpt lat="45.88203" lon="4.89353">
        <ele>290.399993896</ele>
        <time>2015-11-11T10:25:31.974Z</time>
      </trkpt>
      <trkpt lat="45.88202" lon="4.89361">
        <ele>290.399993896</ele>
        <time>2015-11-11T10:25:32.992Z</time>
      </trkpt>
      <trkpt lat="45.88202" lon="4.89369">
        <ele>290.5</ele>
        <time>2015-11-11T10:25:33.974Z</time>
      </trkpt>
      <trkpt lat="45.88202" lon="4.89376">
        <ele>290.299987793</ele>
        <time>2015-11-11T10:25:34.989Z</time>
      </trkpt>
      <trkpt lat="45.88201" lon="4.89384">
        <ele>290</ele>
        <time>2015-11-11T10:25:35.974Z</time>
      </trkpt>
      <trkpt lat="45.88201" lon="4.89392">
        <ele>289.299987793</ele>
        <time>2015-11-11T10:25:36.988Z</time>
      </trkpt>
      <trkpt lat="45.88201" lon="4.894">
        <ele>289.399993896</ele>
        <time>2015-11-11T10:25:37.974Z</time>
      </trkpt>
      <trkpt lat="45.882" lon="4.89408">
        <ele>289.200012207</ele>
        <time>2015-11-11T10:25:39.005Z</time>
      </trkpt>
      <trkpt lat="45.882" lon="4.89416">
        <ele>289.399993896</ele>
        <time>2015-11-11T10:25:39.976Z</time>
      </trkpt>
      <trkpt lat="45.882" lon="4.89423">
        <ele>289.799987793</ele>
        <time>2015-11-11T10:25:40.989Z</time>
      </trkpt>
      <trkpt lat="45.882" lon="4.89431">
        <ele>290</ele>
        <time>2015-11-11T10:25:41.974Z</time>
      </trkpt>
      <trkpt lat="45.882" lon="4.89438">
        <ele>290.600006104</ele>
        <time>2015-11-11T10:25:42.988Z</time>
      </trkpt>
      <trkpt lat="45.88199" lon="4.89445">
        <ele>291.200012207</ele>
        <time>2015-11-11T10:25:43.974Z</time>
      </trkpt>
      <trkpt lat="45.88199" lon="4.89452">
        <ele>291.600006104</ele>
        <time>2015-11-11T10:25:44.992Z</time>
      </trkpt>
      <trkpt lat="45.88199" lon="4.8946">
        <ele>292</ele>
        <time>2015-11-11T10:25:45.974Z</time>
      </trkpt>
      <trkpt lat="45.88199" lon="4.89467">
        <ele>292.100006104</ele>
        <time>2015-11-11T10:25:46.989Z</time>
      </trkpt>
      <trkpt lat="45.88199" lon="4.89474">
        <ele>291.899993896</ele>
        <time>2015-11-11T10:25:47.974Z</time>
      </trkpt>
      <trkpt lat="45.88198" lon="4.89481">
        <ele>291.799987793</ele>
        <time>2015-11-11T10:25:48.992Z</time>
      </trkpt>
      <trkpt lat="45.88198" lon="4.89489">
        <ele>291.899993896</ele>
        <time>2015-11-11T10:25:49.974Z</time>
      </trkpt>
      <trkpt lat="45.88198" lon="4.89495">
        <ele>292.200012207</ele>
        <time>2015-11-11T10:25:51.018Z</time>
      </trkpt>
      <trkpt lat="45.88197" lon="4.89502">
        <ele>292.100006104</ele>
        <time>2015-11-11T10:25:51.974Z</time>
      </trkpt>
      <trkpt lat="45.88197" lon="4.89509">
        <ele>292.299987793</ele>
        <time>2015-11-11T10:25:52.988Z</time>
      </trkpt>
      <trkpt lat="45.88197" lon="4.89516">
        <ele>292.399993896</ele>
        <time>2015-11-11T10:25:53.974Z</time>
      </trkpt>
      <trkpt lat="45.88196" lon="4.89528">
        <ele>293.399993896</ele>
        <time>2015-11-11T10:25:55.988Z</time>
      </trkpt>
      <trkpt lat="45.88197" lon="4.89534">
        <ele>293.899993896</ele>
        <time>2015-11-11T10:25:56.977Z</time>
      </trkpt>
      <trkpt lat="45.88197" lon="4.89546">
        <ele>295.100006104</ele>
        <time>2015-11-11T10:25:58.989Z</time>
      </trkpt>
      <trkpt lat="45.88197" lon="4.89552">
        <ele>296</ele>
        <time>2015-11-11T10:25:59.974Z</time>
      </trkpt>
      <trkpt lat="45.88197" lon="4.89563">
        <ele>297.299987793</ele>
        <time>2015-11-11T10:26:02.025Z</time>
      </trkpt>
      <trkpt lat="45.88197" lon="4.89569">
        <ele>297.799987793</ele>
        <time>2015-11-11T10:26:02.977Z</time>
      </trkpt>
      <trkpt lat="45.88197" lon="4.8958">
        <ele>298.399993896</ele>
        <time>2015-11-11T10:26:04.989Z</time>
      </trkpt>
      <trkpt lat="45.88196" lon="4.89586">
        <ele>298.799987793</ele>
        <time>2015-11-11T10:26:05.973Z</time>
      </trkpt>
      <trkpt lat="45.88196" lon="4.89598">
        <ele>298.5</ele>
        <time>2015-11-11T10:26:07.988Z</time>
      </trkpt>
      <trkpt lat="45.88196" lon="4.89603">
        <ele>298.399993896</ele>
        <time>2015-11-11T10:26:08.977Z</time>
      </trkpt>
      <trkpt lat="45.88196" lon="4.89616">
        <ele>297.700012207</ele>
        <time>2015-11-11T10:26:10.989Z</time>
      </trkpt>
      <trkpt lat="45.88196" lon="4.89622">
        <ele>297.5</ele>
        <time>2015-11-11T10:26:11.974Z</time>
      </trkpt>
      <trkpt lat="45.88196" lon="4.89634">
        <ele>296.799987793</ele>
        <time>2015-11-11T10:26:13.988Z</time>
      </trkpt>
      <trkpt lat="45.88195" lon="4.8964">
        <ele>296.299987793</ele>
        <time>2015-11-11T10:26:14.978Z</time>
      </trkpt>
      <trkpt lat="45.88194" lon="4.89652">
        <ele>296.299987793</ele>
        <time>2015-11-11T10:26:17.003Z</time>
      </trkpt>
      <trkpt lat="45.88194" lon="4.89658">
        <ele>296.600006104</ele>
        <time>2015-11-11T10:26:17.974Z</time>
      </trkpt>
      <trkpt lat="45.88194" lon="4.8967">
        <ele>297.200012207</ele>
        <time>2015-11-11T10:26:19.988Z</time>
      </trkpt>
      <trkpt lat="45.88194" lon="4.89676">
        <ele>297.5</ele>
        <time>2015-11-11T10:26:20.977Z</time>
      </trkpt>
      <trkpt lat="45.88194" lon="4.89689">
        <ele>298.299987793</ele>
        <time>2015-11-11T10:26:22.989Z</time>
      </trkpt>
      <trkpt lat="45.88194" lon="4.89695">
        <ele>298.600006104</ele>
        <time>2015-11-11T10:26:23.974Z</time>
      </trkpt>
      <trkpt lat="45.88194" lon="4.89707">
        <ele>300.399993896</ele>
        <time>2015-11-11T10:26:25.987Z</time>
      </trkpt>
      <trkpt lat="45.88194" lon="4.89713">
        <ele>300.899993896</ele>
        <time>2015-11-11T10:26:26.977Z</time>
      </trkpt>
      <trkpt lat="45.88194" lon="4.8972">
        <ele>300.700012207</ele>
        <time>2015-11-11T10:26:27.988Z</time>
      </trkpt>
      <trkpt lat="45.88194" lon="4.89726">
        <ele>300.899993896</ele>
        <time>2015-11-11T10:26:28.975Z</time>
      </trkpt>
      <trkpt lat="45.88194" lon="4.89732">
        <ele>301.100006104</ele>
        <time>2015-11-11T10:26:30.008Z</time>
      </trkpt>
      <trkpt lat="45.88194" lon="4.89739">
        <ele>301.399993896</ele>
        <time>2015-11-11T10:26:30.973Z</time>
      </trkpt>
      <trkpt lat="45.88194" lon="4.89746">
        <ele>301.399993896</ele>
        <time>2015-11-11T10:26:31.988Z</time>
      </trkpt>
      <trkpt lat="45.88194" lon="4.89753">
        <ele>301.5</ele>
        <time>2015-11-11T10:26:32.977Z</time>
      </trkpt>
      <trkpt lat="45.88193" lon="4.8976">
        <ele>301</ele>
        <time>2015-11-11T10:26:33.989Z</time>
      </trkpt>
      <trkpt lat="45.88193" lon="4.89767">
        <ele>300.899993896</ele>
        <time>2015-11-11T10:26:34.998Z</time>
      </trkpt>
      <trkpt lat="45.88193" lon="4.89773">
        <ele>300.600006104</ele>
        <time>2015-11-11T10:26:35.988Z</time>
      </trkpt>
      <trkpt lat="45.88193" lon="4.8978">
        <ele>300.200012207</ele>
        <time>2015-11-11T10:26:36.973Z</time>
      </trkpt>
      <trkpt lat="45.88193" lon="4.89786">
        <ele>299.600006104</ele>
        <time>2015-11-11T10:26:38.005Z</time>
      </trkpt>
      <trkpt lat="45.88193" lon="4.89793">
        <ele>299.299987793</ele>
        <time>2015-11-11T10:26:38.977Z</time>
      </trkpt>
      <trkpt lat="45.88193" lon="4.898">
        <ele>298.600006104</ele>
        <time>2015-11-11T10:26:39.991Z</time>
      </trkpt>
      <trkpt lat="45.88193" lon="4.89808">
        <ele>298.200012207</ele>
        <time>2015-11-11T10:26:40.975Z</time>
      </trkpt>
      <trkpt lat="45.88193" lon="4.89816">
        <ele>297.600006104</ele>
        <time>2015-11-11T10:26:41.988Z</time>
      </trkpt>
      <trkpt lat="45.88193" lon="4.89825">
        <ele>297</ele>
        <time>2015-11-11T10:26:42.973Z</time>
      </trkpt>
      <trkpt lat="45.88193" lon="4.89833">
        <ele>296.399993896</ele>
        <time>2015-11-11T10:26:43.988Z</time>
      </trkpt>
      <trkpt lat="45.88193" lon="4.89842">
        <ele>296</ele>
        <time>2015-11-11T10:26:44.977Z</time>
      </trkpt>
      <trkpt lat="45.88192" lon="4.89851">
        <ele>295.700012207</ele>
        <time>2015-11-11T10:26:45.987Z</time>
      </trkpt>
      <trkpt lat="45.88192" lon="4.89859">
        <ele>295.299987793</ele>
        <time>2015-11-11T10:26:46.975Z</time>
      </trkpt>
      <trkpt lat="45.88192" lon="4.89868">
        <ele>295.299987793</ele>
        <time>2015-11-11T10:26:47.987Z</time>
      </trkpt>
      <trkpt lat="45.88192" lon="4.89877">
        <ele>295.299987793</ele>
        <time>2015-11-11T10:26:48.973Z</time>
      </trkpt>
      <trkpt lat="45.88192" lon="4.89885">
        <ele>294.799987793</ele>
        <time>2015-11-11T10:26:49.988Z</time>
      </trkpt>
      <trkpt lat="45.88192" lon="4.89894">
        <ele>294.600006104</ele>
        <time>2015-11-11T10:26:50.977Z</time>
      </trkpt>
      <trkpt lat="45.88192" lon="4.89902">
        <ele>294.5</ele>
        <time>2015-11-11T10:26:51.988Z</time>
      </trkpt>
      <trkpt lat="45.88192" lon="4.8991">
        <ele>294.399993896</ele>
        <time>2015-11-11T10:26:52.975Z</time>
      </trkpt>
      <trkpt lat="45.88192" lon="4.89918">
        <ele>294.200012207</ele>
        <time>2015-11-11T10:26:54.015Z</time>
      </trkpt>
      <trkpt lat="45.88191" lon="4.89925">
        <ele>294.399993896</ele>
        <time>2015-11-11T10:26:54.973Z</time>
      </trkpt>
      <trkpt lat="45.88191" lon="4.89933">
        <ele>295.200012207</ele>
        <time>2015-11-11T10:26:55.988Z</time>
      </trkpt>
      <trkpt lat="45.88192" lon="4.89941">
        <ele>295.299987793</ele>
        <time>2015-11-11T10:26:56.977Z</time>
      </trkpt>
      <trkpt lat="45.88192" lon="4.89949">
        <ele>295.5</ele>
        <time>2015-11-11T10:26:57.988Z</time>
      </trkpt>
      <trkpt lat="45.88192" lon="4.89957">
        <ele>295.799987793</ele>
        <time>2015-11-11T10:26:58.975Z</time>
      </trkpt>
      <trkpt lat="45.88192" lon="4.89965">
        <ele>296.100006104</ele>
        <time>2015-11-11T10:26:59.987Z</time>
      </trkpt>
      <trkpt lat="45.88193" lon="4.89973">
        <ele>296.700012207</ele>
        <time>2015-11-11T10:27:00.974Z</time>
      </trkpt>
      <trkpt lat="45.88193" lon="4.89981">
        <ele>297.100006104</ele>
        <time>2015-11-11T10:27:01.988Z</time>
      </trkpt>
      <trkpt lat="45.88194" lon="4.89989">
        <ele>297.700012207</ele>
        <time>2015-11-11T10:27:02.977Z</time>
      </trkpt>
      <trkpt lat="45.88194" lon="4.89996">
        <ele>298.200012207</ele>
        <time>2015-11-11T10:27:03.988Z</time>
      </trkpt>
      <trkpt lat="45.88195" lon="4.90004">
        <ele>298.5</ele>
        <time>2015-11-11T10:27:04.975Z</time>
      </trkpt>
      <trkpt lat="45.88194" lon="4.90012">
        <ele>299</ele>
        <time>2015-11-11T10:27:05.988Z</time>
      </trkpt>
      <trkpt lat="45.88193" lon="4.90019">
        <ele>300.100006104</ele>
        <time>2015-11-11T10:27:06.974Z</time>
      </trkpt>
      <trkpt lat="45.88191" lon="4.90026">
        <ele>300.700012207</ele>
        <time>2015-11-11T10:27:07.988Z</time>
      </trkpt>
      <trkpt lat="45.88189" lon="4.90033">
        <ele>301.299987793</ele>
        <time>2015-11-11T10:27:08.977Z</time>
      </trkpt>
      <trkpt lat="45.88188" lon="4.9004">
        <ele>301.799987793</ele>
        <time>2015-11-11T10:27:10.028Z</time>
      </trkpt>
      <trkpt lat="45.88188" lon="4.90047">
        <ele>302.399993896</ele>
        <time>2015-11-11T10:27:10.975Z</time>
      </trkpt>
      <trkpt lat="45.88189" lon="4.90054">
        <ele>303.100006104</ele>
        <time>2015-11-11T10:27:11.988Z</time>
      </trkpt>
      <trkpt lat="45.88191" lon="4.9006">
        <ele>303.700012207</ele>
        <time>2015-11-11T10:27:12.973Z</time>
      </trkpt>
      <trkpt lat="45.88194" lon="4.90067">
        <ele>303.700012207</ele>
        <time>2015-11-11T10:27:13.988Z</time>
      </trkpt>
      <trkpt lat="45.88197" lon="4.90072">
        <ele>304</ele>
        <time>2015-11-11T10:27:14.977Z</time>
      </trkpt>
      <trkpt lat="45.88201" lon="4.90076">
        <ele>303.899993896</ele>
        <time>2015-11-11T10:27:15.988Z</time>
      </trkpt>
      <trkpt lat="45.88206" lon="4.90079">
        <ele>303.5</ele>
        <time>2015-11-11T10:27:16.974Z</time>
      </trkpt>
      <trkpt lat="45.88212" lon="4.90081">
        <ele>303.5</ele>
        <time>2015-11-11T10:27:17.988Z</time>
      </trkpt>
      <trkpt lat="45.88217" lon="4.90081">
        <ele>303.100006104</ele>
        <time>2015-11-11T10:27:18.973Z</time>
      </trkpt>
      <trkpt lat="45.88222" lon="4.90079">
        <ele>302.899993896</ele>
        <time>2015-11-11T10:27:19.993Z</time>
      </trkpt>
      <trkpt lat="45.88227" lon="4.90076">
        <ele>302.399993896</ele>
        <time>2015-11-11T10:27:21.112Z</time>
      </trkpt>
      <trkpt lat="45.88233" lon="4.90071">
        <ele>302</ele>
        <time>2015-11-11T10:27:21.988Z</time>
      </trkpt>
      <trkpt lat="45.88237" lon="4.90066">
        <ele>301.799987793</ele>
        <time>2015-11-11T10:27:23.008Z</time>
      </trkpt>
      <trkpt lat="45.88242" lon="4.9006">
        <ele>301.700012207</ele>
        <time>2015-11-11T10:27:24.003Z</time>
      </trkpt>
      <trkpt lat="45.88247" lon="4.90056">
        <ele>301.799987793</ele>
        <time>2015-11-11T10:27:24.974Z</time>
      </trkpt>
      <trkpt lat="45.88252" lon="4.90053">
        <ele>301.899993896</ele>
        <time>2015-11-11T10:27:25.988Z</time>
      </trkpt>
      <trkpt lat="45.88257" lon="4.90051">
        <ele>302.299987793</ele>
        <time>2015-11-11T10:27:26.977Z</time>
      </trkpt>
      <trkpt lat="45.88262" lon="4.90051">
        <ele>302.899993896</ele>
        <time>2015-11-11T10:27:27.988Z</time>
      </trkpt>
      <trkpt lat="45.88267" lon="4.90051">
        <ele>303.399993896</ele>
        <time>2015-11-11T10:27:28.974Z</time>
      </trkpt>
      <trkpt lat="45.88271" lon="4.90049">
        <ele>303.600006104</ele>
        <time>2015-11-11T10:27:29.989Z</time>
      </trkpt>
      <trkpt lat="45.88276" lon="4.90048">
        <ele>303.700012207</ele>
        <time>2015-11-11T10:27:30.973Z</time>
      </trkpt>
      <trkpt lat="45.88284" lon="4.90043">
        <ele>304</ele>
        <time>2015-11-11T10:27:32.995Z</time>
      </trkpt>
      <trkpt lat="45.88288" lon="4.90039">
        <ele>304.100006104</ele>
        <time>2015-11-11T10:27:33.973Z</time>
      </trkpt>
      <trkpt lat="45.88295" lon="4.90032">
        <ele>304.200012207</ele>
        <time>2015-11-11T10:27:35.987Z</time>
      </trkpt>
      <trkpt lat="45.88298" lon="4.90028">
        <ele>304.700012207</ele>
        <time>2015-11-11T10:27:36.973Z</time>
      </trkpt>
      <trkpt lat="45.88306" lon="4.90021">
        <ele>305.100006104</ele>
        <time>2015-11-11T10:27:38.991Z</time>
      </trkpt>
      <trkpt lat="45.88309" lon="4.90019">
        <ele>305.700012207</ele>
        <time>2015-11-11T10:27:39.976Z</time>
      </trkpt>
      <trkpt lat="45.88317" lon="4.90017">
        <ele>306.5</ele>
        <time>2015-11-11T10:27:41.988Z</time>
      </trkpt>
      <trkpt lat="45.88322" lon="4.90015">
        <ele>306.700012207</ele>
        <time>2015-11-11T10:27:42.986Z</time>
      </trkpt>
      <trkpt lat="45.88329" lon="4.90012">
        <ele>307.100006104</ele>
        <time>2015-11-11T10:27:44.991Z</time>
      </trkpt>
      <trkpt lat="45.88333" lon="4.9001">
        <ele>307.5</ele>
        <time>2015-11-11T10:27:45.974Z</time>
      </trkpt>
      <trkpt lat="45.88341" lon="4.90005">
        <ele>308.5</ele>
        <time>2015-11-11T10:27:47.988Z</time>
      </trkpt>
      <trkpt lat="45.88345" lon="4.90003">
        <ele>308.700012207</ele>
        <time>2015-11-11T10:27:48.974Z</time>
      </trkpt>
      <trkpt lat="45.88353" lon="4.9">
        <ele>308.899993896</ele>
        <time>2015-11-11T10:27:50.991Z</time>
      </trkpt>
      <trkpt lat="45.88358" lon="4.89998">
        <ele>309</ele>
        <time>2015-11-11T10:27:51.973Z</time>
      </trkpt>
      <trkpt lat="45.88362" lon="4.89996">
        <ele>308.899993896</ele>
        <time>2015-11-11T10:27:52.99Z</time>
      </trkpt>
      <trkpt lat="45.88367" lon="4.89994">
        <ele>308.799987793</ele>
        <time>2015-11-11T10:27:53.987Z</time>
      </trkpt>
      <trkpt lat="45.88371" lon="4.89991">
        <ele>308.799987793</ele>
        <time>2015-11-11T10:27:54.988Z</time>
      </trkpt>
      <trkpt lat="45.88376" lon="4.89989">
        <ele>308.600006104</ele>
        <time>2015-11-11T10:27:55.973Z</time>
      </trkpt>
      <trkpt lat="45.88382" lon="4.89987">
        <ele>308.200012207</ele>
        <time>2015-11-11T10:27:56.991Z</time>
      </trkpt>
      <trkpt lat="45.88388" lon="4.89984">
        <ele>308</ele>
        <time>2015-11-11T10:27:57.973Z</time>
      </trkpt>
      <trkpt lat="45.88394" lon="4.89981">
        <ele>308.100006104</ele>
        <time>2015-11-11T10:27:58.992Z</time>
      </trkpt>
      <trkpt lat="45.884" lon="4.89979">
        <ele>308.200012207</ele>
        <time>2015-11-11T10:27:59.973Z</time>
      </trkpt>
      <trkpt lat="45.88406" lon="4.89976">
        <ele>308.200012207</ele>
        <time>2015-11-11T10:28:00.988Z</time>
      </trkpt>
      <trkpt lat="45.88411" lon="4.89973">
        <ele>307.5</ele>
        <time>2015-11-11T10:28:01.973Z</time>
      </trkpt>
      <trkpt lat="45.88418" lon="4.89969">
        <ele>306.5</ele>
        <time>2015-11-11T10:28:02.991Z</time>
      </trkpt>
      <trkpt lat="45.88423" lon="4.89966">
        <ele>305.799987793</ele>
        <time>2015-11-11T10:28:03.973Z</time>
      </trkpt>
      <trkpt lat="45.88429" lon="4.89963">
        <ele>305.299987793</ele>
        <time>2015-11-11T10:28:04.988Z</time>
      </trkpt>
      <trkpt lat="45.88435" lon="4.89961">
        <ele>305.299987793</ele>
        <time>2015-11-11T10:28:05.973Z</time>
      </trkpt>
      <trkpt lat="45.8844" lon="4.89959">
        <ele>305</ele>
        <time>2015-11-11T10:28:06.988Z</time>
      </trkpt>
      <trkpt lat="45.88446" lon="4.89956">
        <ele>304.799987793</ele>
        <time>2015-11-11T10:28:07.973Z</time>
      </trkpt>
      <trkpt lat="45.88451" lon="4.89954">
        <ele>304.700012207</ele>
        <time>2015-11-11T10:28:08.992Z</time>
      </trkpt>
      <trkpt lat="45.88456" lon="4.89951">
        <ele>304.399993896</ele>
        <time>2015-11-11T10:28:09.974Z</time>
      </trkpt>
      <trkpt lat="45.88462" lon="4.89949">
        <ele>304.5</ele>
        <time>2015-11-11T10:28:10.99Z</time>
      </trkpt>
      <trkpt lat="45.88467" lon="4.89947">
        <ele>304.399993896</ele>
        <time>2015-11-11T10:28:11.973Z</time>
      </trkpt>
      <trkpt lat="45.88472" lon="4.89945">
        <ele>304.200012207</ele>
        <time>2015-11-11T10:28:12.987Z</time>
      </trkpt>
      <trkpt lat="45.88477" lon="4.89942">
        <ele>303.799987793</ele>
        <time>2015-11-11T10:28:13.973Z</time>
      </trkpt>
      <trkpt lat="45.88482" lon="4.8994">
        <ele>303.299987793</ele>
        <time>2015-11-11T10:28:14.993Z</time>
      </trkpt>
      <trkpt lat="45.88487" lon="4.89938">
        <ele>303</ele>
        <time>2015-11-11T10:28:15.975Z</time>
      </trkpt>
      <trkpt lat="45.88493" lon="4.89937">
        <ele>302.700012207</ele>
        <time>2015-11-11T10:28:16.99Z</time>
      </trkpt>
      <trkpt lat="45.88499" lon="4.89935">
        <ele>302.700012207</ele>
        <time>2015-11-11T10:28:17.975Z</time>
      </trkpt>
      <trkpt lat="45.88506" lon="4.89934">
        <ele>302.600006104</ele>
        <time>2015-11-11T10:28:18.989Z</time>
      </trkpt>
      <trkpt lat="45.88513" lon="4.89933">
        <ele>302.200012207</ele>
        <time>2015-11-11T10:28:19.973Z</time>
      </trkpt>
      <trkpt lat="45.8852" lon="4.89931">
        <ele>301.799987793</ele>
        <time>2015-11-11T10:28:21.005Z</time>
      </trkpt>
      <trkpt lat="45.88527" lon="4.89929">
        <ele>301.700012207</ele>
        <time>2015-11-11T10:28:21.973Z</time>
      </trkpt>
      <trkpt lat="45.88535" lon="4.89928">
        <ele>301.399993896</ele>
        <time>2015-11-11T10:28:22.989Z</time>
      </trkpt>
      <trkpt lat="45.88543" lon="4.89926">
        <ele>301</ele>
        <time>2015-11-11T10:28:23.973Z</time>
      </trkpt>
      <trkpt lat="45.8855" lon="4.89924">
        <ele>300.600006104</ele>
        <time>2015-11-11T10:28:24.991Z</time>
      </trkpt>
      <trkpt lat="45.88559" lon="4.89922">
        <ele>299.799987793</ele>
        <time>2015-11-11T10:28:25.973Z</time>
      </trkpt>
      <trkpt lat="45.88567" lon="4.89919">
        <ele>299.5</ele>
        <time>2015-11-11T10:28:26.991Z</time>
      </trkpt>
      <trkpt lat="45.88576" lon="4.89917">
        <ele>299.600006104</ele>
        <time>2015-11-11T10:28:27.973Z</time>
      </trkpt>
      <trkpt lat="45.88584" lon="4.89915">
        <ele>299.700012207</ele>
        <time>2015-11-11T10:28:28.988Z</time>
      </trkpt>
      <trkpt lat="45.88593" lon="4.89913">
        <ele>299.5</ele>
        <time>2015-11-11T10:28:29.973Z</time>
      </trkpt>
      <trkpt lat="45.88601" lon="4.89912">
        <ele>299.100006104</ele>
        <time>2015-11-11T10:28:30.987Z</time>
      </trkpt>
      <trkpt lat="45.88609" lon="4.89911">
        <ele>298.5</ele>
        <time>2015-11-11T10:28:31.973Z</time>
      </trkpt>
      <trkpt lat="45.88616" lon="4.89911">
        <ele>297.899993896</ele>
        <time>2015-11-11T10:28:32.991Z</time>
      </trkpt>
      <trkpt lat="45.88622" lon="4.89915">
        <ele>297.399993896</ele>
        <time>2015-11-11T10:28:33.973Z</time>
      </trkpt>
      <trkpt lat="45.88627" lon="4.89922">
        <ele>296.700012207</ele>
        <time>2015-11-11T10:28:34.989Z</time>
      </trkpt>
      <trkpt lat="45.8863" lon="4.89931">
        <ele>296.100006104</ele>
        <time>2015-11-11T10:28:35.973Z</time>
      </trkpt>
      <trkpt lat="45.8863" lon="4.8994">
        <ele>295.700012207</ele>
        <time>2015-11-11T10:28:37.001Z</time>
      </trkpt>
      <trkpt lat="45.88631" lon="4.89949">
        <ele>295.5</ele>
        <time>2015-11-11T10:28:37.973Z</time>
      </trkpt>
      <trkpt lat="45.88633" lon="4.89957">
        <ele>295.200012207</ele>
        <time>2015-11-11T10:28:38.992Z</time>
      </trkpt>
      <trkpt lat="45.88634" lon="4.89967">
        <ele>295</ele>
        <time>2015-11-11T10:28:39.976Z</time>
      </trkpt>
      <trkpt lat="45.88635" lon="4.89976">
        <ele>294.799987793</ele>
        <time>2015-11-11T10:28:40.988Z</time>
      </trkpt>
      <trkpt lat="45.88636" lon="4.89985">
        <ele>294.399993896</ele>
        <time>2015-11-11T10:28:41.973Z</time>
      </trkpt>
      <trkpt lat="45.88638" lon="4.89994">
        <ele>294.5</ele>
        <time>2015-11-11T10:28:42.987Z</time>
      </trkpt>
      <trkpt lat="45.88639" lon="4.90003">
        <ele>294.200012207</ele>
        <time>2015-11-11T10:28:43.974Z</time>
      </trkpt>
      <trkpt lat="45.88641" lon="4.90012">
        <ele>294.100006104</ele>
        <time>2015-11-11T10:28:44.992Z</time>
      </trkpt>
      <trkpt lat="45.88643" lon="4.90021">
        <ele>294</ele>
        <time>2015-11-11T10:28:45.973Z</time>
      </trkpt>
      <trkpt lat="45.88644" lon="4.90031">
        <ele>294</ele>
        <time>2015-11-11T10:28:46.989Z</time>
      </trkpt>
      <trkpt lat="45.88645" lon="4.90041">
        <ele>293.899993896</ele>
        <time>2015-11-11T10:28:47.973Z</time>
      </trkpt>
      <trkpt lat="45.88647" lon="4.90051">
        <ele>293.899993896</ele>
        <time>2015-11-11T10:28:48.987Z</time>
      </trkpt>
      <trkpt lat="45.88648" lon="4.90061">
        <ele>293.799987793</ele>
        <time>2015-11-11T10:28:49.973Z</time>
      </trkpt>
      <trkpt lat="45.8865" lon="4.9007">
        <ele>293.600006104</ele>
        <time>2015-11-11T10:28:50.995Z</time>
      </trkpt>
      <trkpt lat="45.88652" lon="4.9008">
        <ele>293.299987793</ele>
        <time>2015-11-11T10:28:51.973Z</time>
      </trkpt>
      <trkpt lat="45.88653" lon="4.90089">
        <ele>293.5</ele>
        <time>2015-11-11T10:28:53.002Z</time>
      </trkpt>
      <trkpt lat="45.88654" lon="4.90098">
        <ele>293.200012207</ele>
        <time>2015-11-11T10:28:53.973Z</time>
      </trkpt>
      <trkpt lat="45.88656" lon="4.90108">
        <ele>293.200012207</ele>
        <time>2015-11-11T10:28:54.987Z</time>
      </trkpt>
      <trkpt lat="45.88657" lon="4.90117">
        <ele>293</ele>
        <time>2015-11-11T10:28:55.973Z</time>
      </trkpt>
      <trkpt lat="45.88658" lon="4.90127">
        <ele>292.899993896</ele>
        <time>2015-11-11T10:28:56.991Z</time>
      </trkpt>
      <trkpt lat="45.8866" lon="4.90136">
        <ele>293</ele>
        <time>2015-11-11T10:28:57.973Z</time>
      </trkpt>
      <trkpt lat="45.8866" lon="4.90146">
        <ele>292.700012207</ele>
        <time>2015-11-11T10:28:59.018Z</time>
      </trkpt>
      <trkpt lat="45.88662" lon="4.90156">
        <ele>292.399993896</ele>
        <time>2015-11-11T10:28:59.973Z</time>
      </trkpt>
      <trkpt lat="45.88662" lon="4.90165">
        <ele>292.600006104</ele>
        <time>2015-11-11T10:29:00.99Z</time>
      </trkpt>
      <trkpt lat="45.88663" lon="4.90175">
        <ele>292.600006104</ele>
        <time>2015-11-11T10:29:01.975Z</time>
      </trkpt>
      <trkpt lat="45.88664" lon="4.90185">
        <ele>292.299987793</ele>
        <time>2015-11-11T10:29:02.994Z</time>
      </trkpt>
      <trkpt lat="45.88664" lon="4.90196">
        <ele>292.299987793</ele>
        <time>2015-11-11T10:29:03.975Z</time>
      </trkpt>
      <trkpt lat="45.88664" lon="4.90206">
        <ele>292.299987793</ele>
        <time>2015-11-11T10:29:04.992Z</time>
      </trkpt>
      <trkpt lat="45.88664" lon="4.90216">
        <ele>292.299987793</ele>
        <time>2015-11-11T10:29:05.974Z</time>
      </trkpt>
      <trkpt lat="45.88664" lon="4.90225">
        <ele>292</ele>
        <time>2015-11-11T10:29:07Z</time>
      </trkpt>
      <trkpt lat="45.88664" lon="4.90235">
        <ele>292.100006104</ele>
        <time>2015-11-11T10:29:07.974Z</time>
      </trkpt>
      <trkpt lat="45.88663" lon="4.90244">
        <ele>292.100006104</ele>
        <time>2015-11-11T10:29:09.008Z</time>
      </trkpt>
      <trkpt lat="45.88663" lon="4.90254">
        <ele>291.600006104</ele>
        <time>2015-11-11T10:29:09.984Z</time>
      </trkpt>
      <trkpt lat="45.88663" lon="4.90263">
        <ele>291.5</ele>
        <time>2015-11-11T10:29:10.996Z</time>
      </trkpt>
      <trkpt lat="45.88663" lon="4.90273">
        <ele>291.600006104</ele>
        <time>2015-11-11T10:29:11.977Z</time>
      </trkpt>
      <trkpt lat="45.88663" lon="4.90283">
        <ele>291.200012207</ele>
        <time>2015-11-11T10:29:12.993Z</time>
      </trkpt>
      <trkpt lat="45.88662" lon="4.90293">
        <ele>290.799987793</ele>
        <time>2015-11-11T10:29:13.976Z</time>
      </trkpt>
      <trkpt lat="45.88662" lon="4.90302">
        <ele>290.799987793</ele>
        <time>2015-11-11T10:29:14.996Z</time>
      </trkpt>
      <trkpt lat="45.88662" lon="4.90312">
        <ele>291.100006104</ele>
        <time>2015-11-11T10:29:15.976Z</time>
      </trkpt>
      <trkpt lat="45.88662" lon="4.90322">
        <ele>290.899993896</ele>
        <time>2015-11-11T10:29:16.997Z</time>
      </trkpt>
      <trkpt lat="45.88662" lon="4.90332">
        <ele>290.600006104</ele>
        <time>2015-11-11T10:29:17.975Z</time>
      </trkpt>
      <trkpt lat="45.88662" lon="4.90342">
        <ele>290.5</ele>
        <time>2015-11-11T10:29:18.99Z</time>
      </trkpt>
      <trkpt lat="45.88662" lon="4.90353">
        <ele>290.100006104</ele>
        <time>2015-11-11T10:29:19.976Z</time>
      </trkpt>
      <trkpt lat="45.88662" lon="4.90363">
        <ele>289.700012207</ele>
        <time>2015-11-11T10:29:20.996Z</time>
      </trkpt>
      <trkpt lat="45.88663" lon="4.90372">
        <ele>289.799987793</ele>
        <time>2015-11-11T10:29:21.976Z</time>
      </trkpt>
      <trkpt lat="45.88663" lon="4.90382">
        <ele>289.799987793</ele>
        <time>2015-11-11T10:29:22.992Z</time>
      </trkpt>
      <trkpt lat="45.88663" lon="4.90392">
        <ele>289.5</ele>
        <time>2015-11-11T10:29:23.98Z</time>
      </trkpt>
      <trkpt lat="45.88663" lon="4.90401">
        <ele>289.399993896</ele>
        <time>2015-11-11T10:29:25.005Z</time>
      </trkpt>
      <trkpt lat="45.88663" lon="4.9041">
        <ele>289.899993896</ele>
        <time>2015-11-11T10:29:25.976Z</time>
      </trkpt>
      <trkpt lat="45.88663" lon="4.90419">
        <ele>289.899993896</ele>
        <time>2015-11-11T10:29:26.995Z</time>
      </trkpt>
      <trkpt lat="45.88664" lon="4.90427">
        <ele>290</ele>
        <time>2015-11-11T10:29:27.975Z</time>
      </trkpt>
      <trkpt lat="45.88665" lon="4.90436">
        <ele>289.700012207</ele>
        <time>2015-11-11T10:29:28.992Z</time>
      </trkpt>
      <trkpt lat="45.88666" lon="4.90444">
        <ele>290.100006104</ele>
        <time>2015-11-11T10:29:29.975Z</time>
      </trkpt>
      <trkpt lat="45.88667" lon="4.90452">
        <ele>290.399993896</ele>
        <time>2015-11-11T10:29:30.991Z</time>
      </trkpt>
      <trkpt lat="45.88668" lon="4.9046">
        <ele>290.399993896</ele>
        <time>2015-11-11T10:29:31.975Z</time>
      </trkpt>
      <trkpt lat="45.88669" lon="4.90469">
        <ele>290.5</ele>
        <time>2015-11-11T10:29:32.994Z</time>
      </trkpt>
      <trkpt lat="45.88671" lon="4.90478">
        <ele>290.299987793</ele>
        <time>2015-11-11T10:29:33.975Z</time>
      </trkpt>
      <trkpt lat="45.88672" lon="4.90487">
        <ele>290.299987793</ele>
        <time>2015-11-11T10:29:34.993Z</time>
      </trkpt>
      <trkpt lat="45.88674" lon="4.90495">
        <ele>290.200012207</ele>
        <time>2015-11-11T10:29:35.975Z</time>
      </trkpt>
      <trkpt lat="45.88675" lon="4.90503">
        <ele>290</ele>
        <time>2015-11-11T10:29:36.991Z</time>
      </trkpt>
      <trkpt lat="45.88677" lon="4.90511">
        <ele>290.100006104</ele>
        <time>2015-11-11T10:29:37.975Z</time>
      </trkpt>
      <trkpt lat="45.88678" lon="4.90519">
        <ele>290.299987793</ele>
        <time>2015-11-11T10:29:38.993Z</time>
      </trkpt>
      <trkpt lat="45.8868" lon="4.90526">
        <ele>290</ele>
        <time>2015-11-11T10:29:39.977Z</time>
      </trkpt>
      <trkpt lat="45.88681" lon="4.90534">
        <ele>290</ele>
        <time>2015-11-11T10:29:41.004Z</time>
      </trkpt>
      <trkpt lat="45.88683" lon="4.90541">
        <ele>289.899993896</ele>
        <time>2015-11-11T10:29:41.974Z</time>
      </trkpt>
      <trkpt lat="45.88684" lon="4.90548">
        <ele>289.600006104</ele>
        <time>2015-11-11T10:29:42.993Z</time>
      </trkpt>
      <trkpt lat="45.88685" lon="4.90555">
        <ele>289.5</ele>
        <time>2015-11-11T10:29:43.975Z</time>
      </trkpt>
      <trkpt lat="45.88686" lon="4.90562">
        <ele>289.5</ele>
        <time>2015-11-11T10:29:44.994Z</time>
      </trkpt>
      <trkpt lat="45.88687" lon="4.90569">
        <ele>289.399993896</ele>
        <time>2015-11-11T10:29:45.975Z</time>
      </trkpt>
      <trkpt lat="45.88689" lon="4.90575">
        <ele>289.399993896</ele>
        <time>2015-11-11T10:29:46.991Z</time>
      </trkpt>
      <trkpt lat="45.8869" lon="4.90582">
        <ele>289.399993896</ele>
        <time>2015-11-11T10:29:47.975Z</time>
      </trkpt>
      <trkpt lat="45.88691" lon="4.90588">
        <ele>289.299987793</ele>
        <time>2015-11-11T10:29:48.989Z</time>
      </trkpt>
      <trkpt lat="45.88693" lon="4.90595">
        <ele>289.100006104</ele>
        <time>2015-11-11T10:29:49.975Z</time>
      </trkpt>
      <trkpt lat="45.88694" lon="4.90602">
        <ele>288.5</ele>
        <time>2015-11-11T10:29:50.993Z</time>
      </trkpt>
      <trkpt lat="45.88696" lon="4.9061">
        <ele>287.899993896</ele>
        <time>2015-11-11T10:29:51.974Z</time>
      </trkpt>
      <trkpt lat="45.88697" lon="4.90617">
        <ele>287.299987793</ele>
        <time>2015-11-11T10:29:53.028Z</time>
      </trkpt>
      <trkpt lat="45.88699" lon="4.90625">
        <ele>287.100006104</ele>
        <time>2015-11-11T10:29:54.096Z</time>
      </trkpt>
      <trkpt lat="45.887" lon="4.90632">
        <ele>286.600006104</ele>
        <time>2015-11-11T10:29:54.989Z</time>
      </trkpt>
      <trkpt lat="45.88702" lon="4.9064">
        <ele>286.700012207</ele>
        <time>2015-11-11T10:29:55.974Z</time>
      </trkpt>
      <trkpt lat="45.88704" lon="4.90648">
        <ele>286.799987793</ele>
        <time>2015-11-11T10:29:57.006Z</time>
      </trkpt>
      <trkpt lat="45.88705" lon="4.90656">
        <ele>286.100006104</ele>
        <time>2015-11-11T10:29:57.974Z</time>
      </trkpt>
      <trkpt lat="45.88707" lon="4.90664">
        <ele>285.899993896</ele>
        <time>2015-11-11T10:29:58.99Z</time>
      </trkpt>
      <trkpt lat="45.88708" lon="4.90673">
        <ele>285.899993896</ele>
        <time>2015-11-11T10:29:59.974Z</time>
      </trkpt>
      <trkpt lat="45.88709" lon="4.90681">
        <ele>285.799987793</ele>
        <time>2015-11-11T10:30:00.989Z</time>
      </trkpt>
      <trkpt lat="45.8871" lon="4.90689">
        <ele>286.100006104</ele>
        <time>2015-11-11T10:30:01.974Z</time>
      </trkpt>
      <trkpt lat="45.88712" lon="4.90698">
        <ele>285.899993896</ele>
        <time>2015-11-11T10:30:02.996Z</time>
      </trkpt>
      <trkpt lat="45.88714" lon="4.90706">
        <ele>285.799987793</ele>
        <time>2015-11-11T10:30:03.975Z</time>
      </trkpt>
      <trkpt lat="45.88716" lon="4.90714">
        <ele>285.700012207</ele>
        <time>2015-11-11T10:30:04.99Z</time>
      </trkpt>
      <trkpt lat="45.88717" lon="4.90723">
        <ele>285.600006104</ele>
        <time>2015-11-11T10:30:05.974Z</time>
      </trkpt>
      <trkpt lat="45.88719" lon="4.90732">
        <ele>285.700012207</ele>
        <time>2015-11-11T10:30:06.99Z</time>
      </trkpt>
      <trkpt lat="45.8872" lon="4.90741">
        <ele>285.600006104</ele>
        <time>2015-11-11T10:30:07.974Z</time>
      </trkpt>
      <trkpt lat="45.88722" lon="4.9075">
        <ele>285.600006104</ele>
        <time>2015-11-11T10:30:09.121Z</time>
      </trkpt>
      <trkpt lat="45.88724" lon="4.90759">
        <ele>285.700012207</ele>
        <time>2015-11-11T10:30:09.974Z</time>
      </trkpt>
      <trkpt lat="45.88726" lon="4.90768">
        <ele>285.5</ele>
        <time>2015-11-11T10:30:10.99Z</time>
      </trkpt>
      <trkpt lat="45.88728" lon="4.90777">
        <ele>285.200012207</ele>
        <time>2015-11-11T10:30:11.974Z</time>
      </trkpt>
      <trkpt lat="45.8873" lon="4.90786">
        <ele>285.200012207</ele>
        <time>2015-11-11T10:30:13.004Z</time>
      </trkpt>
      <trkpt lat="45.88732" lon="4.90795">
        <ele>285.200012207</ele>
        <time>2015-11-11T10:30:13.973Z</time>
      </trkpt>
      <trkpt lat="45.88734" lon="4.90805">
        <ele>285</ele>
        <time>2015-11-11T10:30:14.993Z</time>
      </trkpt>
      <trkpt lat="45.88736" lon="4.90814">
        <ele>284.799987793</ele>
        <time>2015-11-11T10:30:15.974Z</time>
      </trkpt>
      <trkpt lat="45.88738" lon="4.90823">
        <ele>284.899993896</ele>
        <time>2015-11-11T10:30:16.989Z</time>
      </trkpt>
      <trkpt lat="45.8874" lon="4.90832">
        <ele>284.700012207</ele>
        <time>2015-11-11T10:30:17.974Z</time>
      </trkpt>
      <trkpt lat="45.88742" lon="4.90841">
        <ele>284.799987793</ele>
        <time>2015-11-11T10:30:18.989Z</time>
      </trkpt>
      <trkpt lat="45.88744" lon="4.9085">
        <ele>284.5</ele>
        <time>2015-11-11T10:30:19.974Z</time>
      </trkpt>
      <trkpt lat="45.88746" lon="4.90858">
        <ele>284.399993896</ele>
        <time>2015-11-11T10:30:20.991Z</time>
      </trkpt>
      <trkpt lat="45.88748" lon="4.90867">
        <ele>284.299987793</ele>
        <time>2015-11-11T10:30:21.974Z</time>
      </trkpt>
      <trkpt lat="45.8875" lon="4.90875">
        <ele>284.100006104</ele>
        <time>2015-11-11T10:30:22.989Z</time>
      </trkpt>
      <trkpt lat="45.88752" lon="4.90883">
        <ele>284.100006104</ele>
        <time>2015-11-11T10:30:23.974Z</time>
      </trkpt>
      <trkpt lat="45.88753" lon="4.90891">
        <ele>284.100006104</ele>
        <time>2015-11-11T10:30:24.989Z</time>
      </trkpt>
      <trkpt lat="45.88755" lon="4.909">
        <ele>283.899993896</ele>
        <time>2015-11-11T10:30:25.993Z</time>
      </trkpt>
      <trkpt lat="45.88757" lon="4.90908">
        <ele>283.700012207</ele>
        <time>2015-11-11T10:30:26.992Z</time>
      </trkpt>
      <trkpt lat="45.88759" lon="4.90916">
        <ele>283.5</ele>
        <time>2015-11-11T10:30:27.974Z</time>
      </trkpt>
      <trkpt lat="45.88761" lon="4.90925">
        <ele>283.399993896</ele>
        <time>2015-11-11T10:30:29.005Z</time>
      </trkpt>
      <trkpt lat="45.88762" lon="4.90933">
        <ele>283.399993896</ele>
        <time>2015-11-11T10:30:29.973Z</time>
      </trkpt>
      <trkpt lat="45.88764" lon="4.90943">
        <ele>283.5</ele>
        <time>2015-11-11T10:30:30.989Z</time>
      </trkpt>
      <trkpt lat="45.88766" lon="4.90952">
        <ele>283.299987793</ele>
        <time>2015-11-11T10:30:31.974Z</time>
      </trkpt>
      <trkpt lat="45.88768" lon="4.90961">
        <ele>283.5</ele>
        <time>2015-11-11T10:30:32.991Z</time>
      </trkpt>
      <trkpt lat="45.8877" lon="4.90969">
        <ele>283.299987793</ele>
        <time>2015-11-11T10:30:33.973Z</time>
      </trkpt>
      <trkpt lat="45.88772" lon="4.90978">
        <ele>283.100006104</ele>
        <time>2015-11-11T10:30:34.994Z</time>
      </trkpt>
      <trkpt lat="45.88774" lon="4.90986">
        <ele>282.899993896</ele>
        <time>2015-11-11T10:30:35.974Z</time>
      </trkpt>
      <trkpt lat="45.88775" lon="4.90994">
        <ele>282.5</ele>
        <time>2015-11-11T10:30:36.988Z</time>
      </trkpt>
      <trkpt lat="45.88777" lon="4.91001">
        <ele>282.700012207</ele>
        <time>2015-11-11T10:30:38.095Z</time>
      </trkpt>
      <trkpt lat="45.88779" lon="4.91009">
        <ele>282.399993896</ele>
        <time>2015-11-11T10:30:38.992Z</time>
      </trkpt>
      <trkpt lat="45.8878" lon="4.91017">
        <ele>282</ele>
        <time>2015-11-11T10:30:39.975Z</time>
      </trkpt>
      <trkpt lat="45.88782" lon="4.91025">
        <ele>282.700012207</ele>
        <time>2015-11-11T10:30:40.998Z</time>
      </trkpt>
      <trkpt lat="45.88783" lon="4.91033">
        <ele>283</ele>
        <time>2015-11-11T10:30:41.973Z</time>
      </trkpt>
      <trkpt lat="45.88786" lon="4.91039">
        <ele>283</ele>
        <time>2015-11-11T10:30:42.988Z</time>
      </trkpt>
      <trkpt lat="45.88789" lon="4.91046">
        <ele>282.899993896</ele>
        <time>2015-11-11T10:30:43.974Z</time>
      </trkpt>
      <trkpt lat="45.88792" lon="4.91054">
        <ele>282.600006104</ele>
        <time>2015-11-11T10:30:44.993Z</time>
      </trkpt>
      <trkpt lat="45.88795" lon="4.91061">
        <ele>282.600006104</ele>
        <time>2015-11-11T10:30:45.974Z</time>
      </trkpt>
      <trkpt lat="45.88799" lon="4.91069">
        <ele>282.200012207</ele>
        <time>2015-11-11T10:30:46.989Z</time>
      </trkpt>
      <trkpt lat="45.88804" lon="4.91076">
        <ele>282.100006104</ele>
        <time>2015-11-11T10:30:48.011Z</time>
      </trkpt>
      <trkpt lat="45.88807" lon="4.91085">
        <ele>281.899993896</ele>
        <time>2015-11-11T10:30:48.989Z</time>
      </trkpt>
      <trkpt lat="45.88809" lon="4.91094">
        <ele>281.799987793</ele>
        <time>2015-11-11T10:30:49.973Z</time>
      </trkpt>
      <trkpt lat="45.88808" lon="4.91104">
        <ele>281.600006104</ele>
        <time>2015-11-11T10:30:50.993Z</time>
      </trkpt>
      <trkpt lat="45.88805" lon="4.91113">
        <ele>281.100006104</ele>
        <time>2015-11-11T10:30:51.974Z</time>
      </trkpt>
      <trkpt lat="45.88802" lon="4.91121">
        <ele>280.799987793</ele>
        <time>2015-11-11T10:30:53.109Z</time>
      </trkpt>
      <trkpt lat="45.88799" lon="4.91129">
        <ele>281.200012207</ele>
        <time>2015-11-11T10:30:53.973Z</time>
      </trkpt>
      <trkpt lat="45.88797" lon="4.91136">
        <ele>281.600006104</ele>
        <time>2015-11-11T10:30:54.988Z</time>
      </trkpt>
      <trkpt lat="45.88795" lon="4.91144">
        <ele>282.200012207</ele>
        <time>2015-11-11T10:30:55.974Z</time>
      </trkpt>
      <trkpt lat="45.88793" lon="4.91151">
        <ele>282.299987793</ele>
        <time>2015-11-11T10:30:56.992Z</time>
      </trkpt>
      <trkpt lat="45.88793" lon="4.91158">
        <ele>282.399993896</ele>
        <time>2015-11-11T10:30:57.974Z</time>
      </trkpt>
      <trkpt lat="45.88792" lon="4.91165">
        <ele>282.899993896</ele>
        <time>2015-11-11T10:30:58.989Z</time>
      </trkpt>
      <trkpt lat="45.88792" lon="4.91172">
        <ele>283</ele>
        <time>2015-11-11T10:30:59.973Z</time>
      </trkpt>
      <trkpt lat="45.88792" lon="4.91179">
        <ele>283.600006104</ele>
        <time>2015-11-11T10:31:01.007Z</time>
      </trkpt>
      <trkpt lat="45.88792" lon="4.91185">
        <ele>284</ele>
        <time>2015-11-11T10:31:01.973Z</time>
      </trkpt>
      <trkpt lat="45.88792" lon="4.91192">
        <ele>284.399993896</ele>
        <time>2015-11-11T10:31:02.991Z</time>
      </trkpt>
      <trkpt lat="45.88792" lon="4.91198">
        <ele>285.100006104</ele>
        <time>2015-11-11T10:31:03.973Z</time>
      </trkpt>
      <trkpt lat="45.88791" lon="4.91205">
        <ele>285</ele>
        <time>2015-11-11T10:31:04.99Z</time>
      </trkpt>
      <trkpt lat="45.88791" lon="4.91212">
        <ele>285</ele>
        <time>2015-11-11T10:31:05.974Z</time>
      </trkpt>
      <trkpt lat="45.88792" lon="4.91219">
        <ele>284.799987793</ele>
        <time>2015-11-11T10:31:06.988Z</time>
      </trkpt>
      <trkpt lat="45.88792" lon="4.91226">
        <ele>284.899993896</ele>
        <time>2015-11-11T10:31:07.973Z</time>
      </trkpt>
      <trkpt lat="45.88792" lon="4.91234">
        <ele>284.899993896</ele>
        <time>2015-11-11T10:31:08.993Z</time>
      </trkpt>
      <trkpt lat="45.88792" lon="4.91241">
        <ele>285.200012207</ele>
        <time>2015-11-11T10:31:09.973Z</time>
      </trkpt>
      <trkpt lat="45.88792" lon="4.91249">
        <ele>285.600006104</ele>
        <time>2015-11-11T10:31:10.99Z</time>
      </trkpt>
      <trkpt lat="45.88792" lon="4.91256">
        <ele>285.700012207</ele>
        <time>2015-11-11T10:31:11.974Z</time>
      </trkpt>
      <trkpt lat="45.88793" lon="4.91264">
        <ele>285.700012207</ele>
        <time>2015-11-11T10:31:12.989Z</time>
      </trkpt>
      <trkpt lat="45.88793" lon="4.91273">
        <ele>285.700012207</ele>
        <time>2015-11-11T10:31:13.973Z</time>
      </trkpt>
      <trkpt lat="45.88793" lon="4.91281">
        <ele>285.799987793</ele>
        <time>2015-11-11T10:31:14.993Z</time>
      </trkpt>
      <trkpt lat="45.88793" lon="4.91289">
        <ele>285.700012207</ele>
        <time>2015-11-11T10:31:15.974Z</time>
      </trkpt>
      <trkpt lat="45.88793" lon="4.91297">
        <ele>285.700012207</ele>
        <time>2015-11-11T10:31:17.004Z</time>
      </trkpt>
      <trkpt lat="45.88794" lon="4.91306">
        <ele>285.600006104</ele>
        <time>2015-11-11T10:31:17.974Z</time>
      </trkpt>
      <trkpt lat="45.88794" lon="4.91314">
        <ele>285.5</ele>
        <time>2015-11-11T10:31:18.988Z</time>
      </trkpt>
      <trkpt lat="45.88795" lon="4.91323">
        <ele>285.399993896</ele>
        <time>2015-11-11T10:31:19.973Z</time>
      </trkpt>
      <trkpt lat="45.88795" lon="4.91331">
        <ele>285.700012207</ele>
        <time>2015-11-11T10:31:20.993Z</time>
      </trkpt>
      <trkpt lat="45.88796" lon="4.91339">
        <ele>285.899993896</ele>
        <time>2015-11-11T10:31:21.973Z</time>
      </trkpt>
      <trkpt lat="45.88796" lon="4.91347">
        <ele>285.899993896</ele>
        <time>2015-11-11T10:31:22.991Z</time>
      </trkpt>
      <trkpt lat="45.88797" lon="4.91355">
        <ele>286</ele>
        <time>2015-11-11T10:31:23.974Z</time>
      </trkpt>
      <trkpt lat="45.88798" lon="4.91362">
        <ele>286.200012207</ele>
        <time>2015-11-11T10:31:24.989Z</time>
      </trkpt>
      <trkpt lat="45.888" lon="4.9137">
        <ele>286.600006104</ele>
        <time>2015-11-11T10:31:25.974Z</time>
      </trkpt>
      <trkpt lat="45.88801" lon="4.91377">
        <ele>286.5</ele>
        <time>2015-11-11T10:31:26.997Z</time>
      </trkpt>
      <trkpt lat="45.88803" lon="4.91385">
        <ele>286.600006104</ele>
        <time>2015-11-11T10:31:27.974Z</time>
      </trkpt>
      <trkpt lat="45.88804" lon="4.91393">
        <ele>286.5</ele>
        <time>2015-11-11T10:31:28.99Z</time>
      </trkpt>
      <trkpt lat="45.88805" lon="4.91402">
        <ele>286.600006104</ele>
        <time>2015-11-11T10:31:29.974Z</time>
      </trkpt>
      <trkpt lat="45.88806" lon="4.9141">
        <ele>286.600006104</ele>
        <time>2015-11-11T10:31:30.989Z</time>
      </trkpt>
      <trkpt lat="45.88808" lon="4.91418">
        <ele>286.399993896</ele>
        <time>2015-11-11T10:31:31.974Z</time>
      </trkpt>
      <trkpt lat="45.88809" lon="4.91426">
        <ele>286.399993896</ele>
        <time>2015-11-11T10:31:33.007Z</time>
      </trkpt>
      <trkpt lat="45.8881" lon="4.91434">
        <ele>286.299987793</ele>
        <time>2015-11-11T10:31:33.974Z</time>
      </trkpt>
      <trkpt lat="45.88812" lon="4.91442">
        <ele>285.899993896</ele>
        <time>2015-11-11T10:31:34.989Z</time>
      </trkpt>
      <trkpt lat="45.88813" lon="4.9145">
        <ele>285.799987793</ele>
        <time>2015-11-11T10:31:35.973Z</time>
      </trkpt>
      <trkpt lat="45.88815" lon="4.91458">
        <ele>285.899993896</ele>
        <time>2015-11-11T10:31:36.987Z</time>
      </trkpt>
      <trkpt lat="45.88816" lon="4.91466">
        <ele>285.899993896</ele>
        <time>2015-11-11T10:31:37.974Z</time>
      </trkpt>
      <trkpt lat="45.88817" lon="4.91473">
        <ele>286</ele>
        <time>2015-11-11T10:31:38.992Z</time>
      </trkpt>
      <trkpt lat="45.88819" lon="4.91479">
        <ele>286.200012207</ele>
        <time>2015-11-11T10:31:39.976Z</time>
      </trkpt>
      <trkpt lat="45.8882" lon="4.91486">
        <ele>286.299987793</ele>
        <time>2015-11-11T10:31:40.989Z</time>
      </trkpt>
      <trkpt lat="45.88822" lon="4.91493">
        <ele>286.399993896</ele>
        <time>2015-11-11T10:31:41.973Z</time>
      </trkpt>
      <trkpt lat="45.88823" lon="4.91499">
        <ele>286.299987793</ele>
        <time>2015-11-11T10:31:43.026Z</time>
      </trkpt>
      <trkpt lat="45.88825" lon="4.91506">
        <ele>286.5</ele>
        <time>2015-11-11T10:31:43.974Z</time>
      </trkpt>
      <trkpt lat="45.88826" lon="4.91512">
        <ele>286.299987793</ele>
        <time>2015-11-11T10:31:44.993Z</time>
      </trkpt>
      <trkpt lat="45.88827" lon="4.9152">
        <ele>286.299987793</ele>
        <time>2015-11-11T10:31:45.973Z</time>
      </trkpt>
      <trkpt lat="45.88828" lon="4.91527">
        <ele>286.200012207</ele>
        <time>2015-11-11T10:31:46.989Z</time>
      </trkpt>
      <trkpt lat="45.8883" lon="4.91534">
        <ele>286.299987793</ele>
        <time>2015-11-11T10:31:47.973Z</time>
      </trkpt>
      <trkpt lat="45.88831" lon="4.91541">
        <ele>286.5</ele>
        <time>2015-11-11T10:31:49.001Z</time>
      </trkpt>
      <trkpt lat="45.88833" lon="4.91548">
        <ele>286.799987793</ele>
        <time>2015-11-11T10:31:49.973Z</time>
      </trkpt>
      <trkpt lat="45.88835" lon="4.91554">
        <ele>287.200012207</ele>
        <time>2015-11-11T10:31:50.992Z</time>
      </trkpt>
      <trkpt lat="45.88836" lon="4.91561">
        <ele>287.399993896</ele>
        <time>2015-11-11T10:31:51.973Z</time>
      </trkpt>
      <trkpt lat="45.88838" lon="4.91568">
        <ele>287.5</ele>
        <time>2015-11-11T10:31:53.029Z</time>
      </trkpt>
      <trkpt lat="45.88839" lon="4.91576">
        <ele>287.5</ele>
        <time>2015-11-11T10:31:53.973Z</time>
      </trkpt>
      <trkpt lat="45.88841" lon="4.91583">
        <ele>287.600006104</ele>
        <time>2015-11-11T10:31:54.988Z</time>
      </trkpt>
      <trkpt lat="45.88843" lon="4.91591">
        <ele>287.299987793</ele>
        <time>2015-11-11T10:31:55.973Z</time>
      </trkpt>
      <trkpt lat="45.88846" lon="4.91598">
        <ele>287.200012207</ele>
        <time>2015-11-11T10:31:56.992Z</time>
      </trkpt>
      <trkpt lat="45.88849" lon="4.91606">
        <ele>286.700012207</ele>
        <time>2015-11-11T10:31:57.973Z</time>
      </trkpt>
      <trkpt lat="45.88851" lon="4.91613">
        <ele>286.399993896</ele>
        <time>2015-11-11T10:31:58.989Z</time>
      </trkpt>
      <trkpt lat="45.88854" lon="4.91621">
        <ele>286.100006104</ele>
        <time>2015-11-11T10:31:59.973Z</time>
      </trkpt>
      <trkpt lat="45.88856" lon="4.91628">
        <ele>285.899993896</ele>
        <time>2015-11-11T10:32:00.989Z</time>
      </trkpt>
      <trkpt lat="45.88858" lon="4.91635">
        <ele>285.600006104</ele>
        <time>2015-11-11T10:32:01.973Z</time>
      </trkpt>
      <trkpt lat="45.8886" lon="4.91643">
        <ele>285.600006104</ele>
        <time>2015-11-11T10:32:02.996Z</time>
      </trkpt>
      <trkpt lat="45.88861" lon="4.91651">
        <ele>285.5</ele>
        <time>2015-11-11T10:32:03.974Z</time>
      </trkpt>
      <trkpt lat="45.88863" lon="4.91658">
        <ele>285.5</ele>
        <time>2015-11-11T10:32:05.003Z</time>
      </trkpt>
      <trkpt lat="45.88866" lon="4.91666">
        <ele>285.200012207</ele>
        <time>2015-11-11T10:32:05.973Z</time>
      </trkpt>
      <trkpt lat="45.88868" lon="4.91674">
        <ele>285.399993896</ele>
        <time>2015-11-11T10:32:07.103Z</time>
      </trkpt>
      <trkpt lat="45.8887" lon="4.91682">
        <ele>285.299987793</ele>
        <time>2015-11-11T10:32:07.973Z</time>
      </trkpt>
      <trkpt lat="45.88872" lon="4.9169">
        <ele>285.100006104</ele>
        <time>2015-11-11T10:32:08.992Z</time>
      </trkpt>
      <trkpt lat="45.88874" lon="4.91698">
        <ele>285</ele>
        <time>2015-11-11T10:32:09.973Z</time>
      </trkpt>
      <trkpt lat="45.88876" lon="4.91707">
        <ele>284.899993896</ele>
        <time>2015-11-11T10:32:10.99Z</time>
      </trkpt>
      <trkpt lat="45.88878" lon="4.91716">
        <ele>284.899993896</ele>
        <time>2015-11-11T10:32:11.973Z</time>
      </trkpt>
      <trkpt lat="45.88879" lon="4.91725">
        <ele>285.200012207</ele>
        <time>2015-11-11T10:32:12.988Z</time>
      </trkpt>
      <trkpt lat="45.88881" lon="4.91734">
        <ele>285.200012207</ele>
        <time>2015-11-11T10:32:13.973Z</time>
      </trkpt>
      <trkpt lat="45.88883" lon="4.91742">
        <ele>284.899993896</ele>
        <time>2015-11-11T10:32:14.992Z</time>
      </trkpt>
      <trkpt lat="45.88885" lon="4.91751">
        <ele>284.700012207</ele>
        <time>2015-11-11T10:32:15.973Z</time>
      </trkpt>
      <trkpt lat="45.88886" lon="4.91759">
        <ele>284.700012207</ele>
        <time>2015-11-11T10:32:16.99Z</time>
      </trkpt>
      <trkpt lat="45.88887" lon="4.91767">
        <ele>284.700012207</ele>
        <time>2015-11-11T10:32:17.974Z</time>
      </trkpt>
      <trkpt lat="45.88888" lon="4.91775">
        <ele>284.600006104</ele>
        <time>2015-11-11T10:32:18.991Z</time>
      </trkpt>
      <trkpt lat="45.8889" lon="4.91784">
        <ele>284.399993896</ele>
        <time>2015-11-11T10:32:19.973Z</time>
      </trkpt>
      <trkpt lat="45.88891" lon="4.91792">
        <ele>284.399993896</ele>
        <time>2015-11-11T10:32:20.991Z</time>
      </trkpt>
      <trkpt lat="45.88893" lon="4.918">
        <ele>284.200012207</ele>
        <time>2015-11-11T10:32:21.973Z</time>
      </trkpt>
      <trkpt lat="45.88894" lon="4.91809">
        <ele>284.299987793</ele>
        <time>2015-11-11T10:32:22.989Z</time>
      </trkpt>
      <trkpt lat="45.88896" lon="4.91817">
        <ele>284.299987793</ele>
        <time>2015-11-11T10:32:23.973Z</time>
      </trkpt>
      <trkpt lat="45.88898" lon="4.91825">
        <ele>284.399993896</ele>
        <time>2015-11-11T10:32:24.987Z</time>
      </trkpt>
      <trkpt lat="45.88899" lon="4.91833">
        <ele>284.100006104</ele>
        <time>2015-11-11T10:32:25.973Z</time>
      </trkpt>
      <trkpt lat="45.88901" lon="4.91841">
        <ele>284.5</ele>
        <time>2015-11-11T10:32:27.006Z</time>
      </trkpt>
      <trkpt lat="45.88902" lon="4.91849">
        <ele>284.399993896</ele>
        <time>2015-11-11T10:32:27.973Z</time>
      </trkpt>
      <trkpt lat="45.88904" lon="4.91857">
        <ele>284.200012207</ele>
        <time>2015-11-11T10:32:28.989Z</time>
      </trkpt>
      <trkpt lat="45.88905" lon="4.91864">
        <ele>283.700012207</ele>
        <time>2015-11-11T10:32:29.973Z</time>
      </trkpt>
      <trkpt lat="45.88908" lon="4.91871">
        <ele>283.5</ele>
        <time>2015-11-11T10:32:30.988Z</time>
      </trkpt>
      <trkpt lat="45.88911" lon="4.91879">
        <ele>283.299987793</ele>
        <time>2015-11-11T10:32:31.973Z</time>
      </trkpt>
      <trkpt lat="45.88914" lon="4.91886">
        <ele>283.200012207</ele>
        <time>2015-11-11T10:32:33.018Z</time>
      </trkpt>
      <trkpt lat="45.88917" lon="4.91892">
        <ele>283</ele>
        <time>2015-11-11T10:32:33.973Z</time>
      </trkpt>
      <trkpt lat="45.88921" lon="4.91899">
        <ele>283.100006104</ele>
        <time>2015-11-11T10:32:34.99Z</time>
      </trkpt>
      <trkpt lat="45.88924" lon="4.91905">
        <ele>283.600006104</ele>
        <time>2015-11-11T10:32:35.974Z</time>
      </trkpt>
      <trkpt lat="45.88928" lon="4.91911">
        <ele>283.700012207</ele>
        <time>2015-11-11T10:32:36.989Z</time>
      </trkpt>
      <trkpt lat="45.88931" lon="4.91918">
        <ele>283.600006104</ele>
        <time>2015-11-11T10:32:37.973Z</time>
      </trkpt>
      <trkpt lat="45.88935" lon="4.91924">
        <ele>283.5</ele>
        <time>2015-11-11T10:32:38.991Z</time>
      </trkpt>
      <trkpt lat="45.88938" lon="4.9193">
        <ele>283.600006104</ele>
        <time>2015-11-11T10:32:39.975Z</time>
      </trkpt>
      <trkpt lat="45.88942" lon="4.91937">
        <ele>283.600006104</ele>
        <time>2015-11-11T10:32:40.99Z</time>
      </trkpt>
      <trkpt lat="45.88946" lon="4.91942">
        <ele>283.600006104</ele>
        <time>2015-11-11T10:32:41.973Z</time>
      </trkpt>
      <trkpt lat="45.8895" lon="4.91948">
        <ele>283.399993896</ele>
        <time>2015-11-11T10:32:43.002Z</time>
      </trkpt>
      <trkpt lat="45.88954" lon="4.91954">
        <ele>283.399993896</ele>
        <time>2015-11-11T10:32:43.973Z</time>
      </trkpt>
      <trkpt lat="45.88958" lon="4.9196">
        <ele>283</ele>
        <time>2015-11-11T10:32:44.995Z</time>
      </trkpt>
      <trkpt lat="45.88962" lon="4.91966">
        <ele>283.100006104</ele>
        <time>2015-11-11T10:32:45.973Z</time>
      </trkpt>
      <trkpt lat="45.88965" lon="4.91971">
        <ele>283</ele>
        <time>2015-11-11T10:32:46.991Z</time>
      </trkpt>
      <trkpt lat="45.88969" lon="4.91977">
        <ele>283.200012207</ele>
        <time>2015-11-11T10:32:47.973Z</time>
      </trkpt>
      <trkpt lat="45.88973" lon="4.91981">
        <ele>283.100006104</ele>
        <time>2015-11-11T10:32:48.987Z</time>
      </trkpt>
      <trkpt lat="45.88976" lon="4.91986">
        <ele>283</ele>
        <time>2015-11-11T10:32:49.973Z</time>
      </trkpt>
      <trkpt lat="45.8898" lon="4.91991">
        <ele>283.100006104</ele>
        <time>2015-11-11T10:32:50.992Z</time>
      </trkpt>
      <trkpt lat="45.88983" lon="4.91996">
        <ele>283</ele>
        <time>2015-11-11T10:32:51.973Z</time>
      </trkpt>
      <trkpt lat="45.88987" lon="4.92001">
        <ele>283.100006104</ele>
        <time>2015-11-11T10:32:52.996Z</time>
      </trkpt>
      <trkpt lat="45.88991" lon="4.92006">
        <ele>283.299987793</ele>
        <time>2015-11-11T10:32:53.973Z</time>
      </trkpt>
      <trkpt lat="45.88995" lon="4.92011">
        <ele>283.299987793</ele>
        <time>2015-11-11T10:32:54.997Z</time>
      </trkpt>
      <trkpt lat="45.88998" lon="4.92016">
        <ele>283.399993896</ele>
        <time>2015-11-11T10:32:55.973Z</time>
      </trkpt>
      <trkpt lat="45.89002" lon="4.92021">
        <ele>283.299987793</ele>
        <time>2015-11-11T10:32:56.991Z</time>
      </trkpt>
      <trkpt lat="45.89006" lon="4.92026">
        <ele>283.299987793</ele>
        <time>2015-11-11T10:32:57.973Z</time>
      </trkpt>
      <trkpt lat="45.8901" lon="4.92031">
        <ele>283.399993896</ele>
        <time>2015-11-11T10:32:59.002Z</time>
      </trkpt>
      <trkpt lat="45.89014" lon="4.92036">
        <ele>283.399993896</ele>
        <time>2015-11-11T10:32:59.974Z</time>
      </trkpt>
      <trkpt lat="45.89019" lon="4.92041">
        <ele>283.5</ele>
        <time>2015-11-11T10:33:00.988Z</time>
      </trkpt>
      <trkpt lat="45.89022" lon="4.92046">
        <ele>283.399993896</ele>
        <time>2015-11-11T10:33:01.973Z</time>
      </trkpt>
      <trkpt lat="45.89027" lon="4.92051">
        <ele>283.600006104</ele>
        <time>2015-11-11T10:33:02.992Z</time>
      </trkpt>
      <trkpt lat="45.89032" lon="4.92056">
        <ele>283.700012207</ele>
        <time>2015-11-11T10:33:03.973Z</time>
      </trkpt>
      <trkpt lat="45.89036" lon="4.9206">
        <ele>283.799987793</ele>
        <time>2015-11-11T10:33:04.989Z</time>
      </trkpt>
      <trkpt lat="45.8904" lon="4.92064">
        <ele>283.899993896</ele>
        <time>2015-11-11T10:33:05.973Z</time>
      </trkpt>
      <trkpt lat="45.89045" lon="4.92069">
        <ele>283.899993896</ele>
        <time>2015-11-11T10:33:06.988Z</time>
      </trkpt>
      <trkpt lat="45.8905" lon="4.92073">
        <ele>284.100006104</ele>
        <time>2015-11-11T10:33:07.973Z</time>
      </trkpt>
      <trkpt lat="45.89054" lon="4.92076">
        <ele>284.100006104</ele>
        <time>2015-11-11T10:33:08.991Z</time>
      </trkpt>
      <trkpt lat="45.89058" lon="4.9208">
        <ele>284.100006104</ele>
        <time>2015-11-11T10:33:09.973Z</time>
      </trkpt>
      <trkpt lat="45.89063" lon="4.92084">
        <ele>284.200012207</ele>
        <time>2015-11-11T10:33:10.993Z</time>
      </trkpt>
      <trkpt lat="45.89067" lon="4.92088">
        <ele>284.399993896</ele>
        <time>2015-11-11T10:33:11.973Z</time>
      </trkpt>
      <trkpt lat="45.89072" lon="4.92091">
        <ele>284.399993896</ele>
        <time>2015-11-11T10:33:12.987Z</time>
      </trkpt>
      <trkpt lat="45.89076" lon="4.92095">
        <ele>284.700012207</ele>
        <time>2015-11-11T10:33:13.973Z</time>
      </trkpt>
      <trkpt lat="45.89081" lon="4.92099">
        <ele>284.899993896</ele>
        <time>2015-11-11T10:33:15.005Z</time>
      </trkpt>
      <trkpt lat="45.89085" lon="4.92103">
        <ele>284.899993896</ele>
        <time>2015-11-11T10:33:15.973Z</time>
      </trkpt>
      <trkpt lat="45.89089" lon="4.92107">
        <ele>284.700012207</ele>
        <time>2015-11-11T10:33:16.99Z</time>
      </trkpt>
      <trkpt lat="45.89094" lon="4.92111">
        <ele>284.600006104</ele>
        <time>2015-11-11T10:33:17.972Z</time>
      </trkpt>
      <trkpt lat="45.89098" lon="4.92115">
        <ele>284.600006104</ele>
        <time>2015-11-11T10:33:19.098Z</time>
      </trkpt>
      <trkpt lat="45.89103" lon="4.92118">
        <ele>284.5</ele>
        <time>2015-11-11T10:33:19.974Z</time>
      </trkpt>
      <trkpt lat="45.89107" lon="4.92122">
        <ele>284.5</ele>
        <time>2015-11-11T10:33:20.992Z</time>
      </trkpt>
      <trkpt lat="45.89112" lon="4.92126">
        <ele>284.799987793</ele>
        <time>2015-11-11T10:33:21.975Z</time>
      </trkpt>
      <trkpt lat="45.89116" lon="4.9213">
        <ele>284.600006104</ele>
        <time>2015-11-11T10:33:22.991Z</time>
      </trkpt>
      <trkpt lat="45.8912" lon="4.92134">
        <ele>284.799987793</ele>
        <time>2015-11-11T10:33:23.975Z</time>
      </trkpt>
      <trkpt lat="45.89125" lon="4.92137">
        <ele>284.700012207</ele>
        <time>2015-11-11T10:33:24.987Z</time>
      </trkpt>
      <trkpt lat="45.8913" lon="4.92141">
        <ele>284.799987793</ele>
        <time>2015-11-11T10:33:25.973Z</time>
      </trkpt>
      <trkpt lat="45.89134" lon="4.92144">
        <ele>284.700012207</ele>
        <time>2015-11-11T10:33:26.991Z</time>
      </trkpt>
      <trkpt lat="45.89138" lon="4.92148">
        <ele>284.700012207</ele>
        <time>2015-11-11T10:33:27.973Z</time>
      </trkpt>
      <trkpt lat="45.89142" lon="4.92152">
        <ele>284.700012207</ele>
        <time>2015-11-11T10:33:28.988Z</time>
      </trkpt>
      <trkpt lat="45.89146" lon="4.92156">
        <ele>284.799987793</ele>
        <time>2015-11-11T10:33:29.973Z</time>
      </trkpt>
      <trkpt lat="45.8915" lon="4.9216">
        <ele>284.799987793</ele>
        <time>2015-11-11T10:33:31.001Z</time>
      </trkpt>
      <trkpt lat="45.89155" lon="4.92163">
        <ele>285</ele>
        <time>2015-11-11T10:33:31.973Z</time>
      </trkpt>
      <trkpt lat="45.89159" lon="4.92167">
        <ele>285</ele>
        <time>2015-11-11T10:33:33.027Z</time>
      </trkpt>
      <trkpt lat="45.89163" lon="4.92171">
        <ele>285</ele>
        <time>2015-11-11T10:33:33.973Z</time>
      </trkpt>
      <trkpt lat="45.89168" lon="4.92175">
        <ele>285</ele>
        <time>2015-11-11T10:33:34.989Z</time>
      </trkpt>
      <trkpt lat="45.89172" lon="4.9218">
        <ele>285.299987793</ele>
        <time>2015-11-11T10:33:35.973Z</time>
      </trkpt>
      <trkpt lat="45.89176" lon="4.92184">
        <ele>285.600006104</ele>
        <time>2015-11-11T10:33:36.991Z</time>
      </trkpt>
      <trkpt lat="45.8918" lon="4.92189">
        <ele>285.700012207</ele>
        <time>2015-11-11T10:33:37.973Z</time>
      </trkpt>
      <trkpt lat="45.89183" lon="4.92195">
        <ele>285.799987793</ele>
        <time>2015-11-11T10:33:38.991Z</time>
      </trkpt>
      <trkpt lat="45.89187" lon="4.922">
        <ele>286</ele>
        <time>2015-11-11T10:33:39.974Z</time>
      </trkpt>
      <trkpt lat="45.8919" lon="4.92206">
        <ele>286.100006104</ele>
        <time>2015-11-11T10:33:40.989Z</time>
      </trkpt>
      <trkpt lat="45.89194" lon="4.92211">
        <ele>286.100006104</ele>
        <time>2015-11-11T10:33:41.973Z</time>
      </trkpt>
      <trkpt lat="45.89198" lon="4.92217">
        <ele>286.200012207</ele>
        <time>2015-11-11T10:33:42.988Z</time>
      </trkpt>
      <trkpt lat="45.89201" lon="4.92222">
        <ele>286.200012207</ele>
        <time>2015-11-11T10:33:43.973Z</time>
      </trkpt>
      <trkpt lat="45.89205" lon="4.92228">
        <ele>286.200012207</ele>
        <time>2015-11-11T10:33:44.991Z</time>
      </trkpt>
      <trkpt lat="45.89208" lon="4.92234">
        <ele>286.299987793</ele>
        <time>2015-11-11T10:33:45.972Z</time>
      </trkpt>
      <trkpt lat="45.8921" lon="4.9224">
        <ele>286.399993896</ele>
        <time>2015-11-11T10:33:47.002Z</time>
      </trkpt>
      <trkpt lat="45.89213" lon="4.92246">
        <ele>286.5</ele>
        <time>2015-11-11T10:33:47.974Z</time>
      </trkpt>
      <trkpt lat="45.89215" lon="4.92252">
        <ele>286.600006104</ele>
        <time>2015-11-11T10:33:48.997Z</time>
      </trkpt>
      <trkpt lat="45.89217" lon="4.92258">
        <ele>286.799987793</ele>
        <time>2015-11-11T10:33:49.973Z</time>
      </trkpt>
      <trkpt lat="45.89219" lon="4.92264">
        <ele>286.899993896</ele>
        <time>2015-11-11T10:33:50.991Z</time>
      </trkpt>
      <trkpt lat="45.89222" lon="4.9227">
        <ele>287.100006104</ele>
        <time>2015-11-11T10:33:51.972Z</time>
      </trkpt>
      <trkpt lat="45.89224" lon="4.92276">
        <ele>287.200012207</ele>
        <time>2015-11-11T10:33:52.989Z</time>
      </trkpt>
      <trkpt lat="45.89226" lon="4.92282">
        <ele>287.399993896</ele>
        <time>2015-11-11T10:33:53.973Z</time>
      </trkpt>
      <trkpt lat="45.89229" lon="4.92288">
        <ele>287.399993896</ele>
        <time>2015-11-11T10:33:54.988Z</time>
      </trkpt>
      <trkpt lat="45.89232" lon="4.92294">
        <ele>287.5</ele>
        <time>2015-11-11T10:33:55.973Z</time>
      </trkpt>
      <trkpt lat="45.89234" lon="4.923">
        <ele>287.700012207</ele>
        <time>2015-11-11T10:33:56.991Z</time>
      </trkpt>
      <trkpt lat="45.89236" lon="4.92306">
        <ele>287.600006104</ele>
        <time>2015-11-11T10:33:57.974Z</time>
      </trkpt>
      <trkpt lat="45.89238" lon="4.92312">
        <ele>287.5</ele>
        <time>2015-11-11T10:33:58.989Z</time>
      </trkpt>
      <trkpt lat="45.8924" lon="4.92318">
        <ele>287.600006104</ele>
        <time>2015-11-11T10:33:59.973Z</time>
      </trkpt>
      <trkpt lat="45.89242" lon="4.92329">
        <ele>287.899993896</ele>
        <time>2015-11-11T10:34:01.99Z</time>
      </trkpt>
      <trkpt lat="45.89242" lon="4.92335">
        <ele>288.100006104</ele>
        <time>2015-11-11T10:34:02.993Z</time>
      </trkpt>
      <trkpt lat="45.89243" lon="4.92346">
        <ele>288.200012207</ele>
        <time>2015-11-11T10:34:04.988Z</time>
      </trkpt>
      <trkpt lat="45.89244" lon="4.92351">
        <ele>288.200012207</ele>
        <time>2015-11-11T10:34:05.972Z</time>
      </trkpt>
      <trkpt lat="45.89247" lon="4.92361">
        <ele>288.899993896</ele>
        <time>2015-11-11T10:34:07.988Z</time>
      </trkpt>
      <trkpt lat="45.89249" lon="4.92366">
        <ele>288.799987793</ele>
        <time>2015-11-11T10:34:08.976Z</time>
      </trkpt>
      <trkpt lat="45.89252" lon="4.92375">
        <ele>289.100006104</ele>
        <time>2015-11-11T10:34:10.989Z</time>
      </trkpt>
      <trkpt lat="45.89253" lon="4.9238">
        <ele>289.200012207</ele>
        <time>2015-11-11T10:34:11.973Z</time>
      </trkpt>
      <trkpt lat="45.89256" lon="4.92389">
        <ele>289.700012207</ele>
        <time>2015-11-11T10:34:13.987Z</time>
      </trkpt>
      <trkpt lat="45.89258" lon="4.92395">
        <ele>289.799987793</ele>
        <time>2015-11-11T10:34:14.976Z</time>
      </trkpt>
      <trkpt lat="45.89261" lon="4.92405">
        <ele>289.899993896</ele>
        <time>2015-11-11T10:34:16.988Z</time>
      </trkpt>
      <trkpt lat="45.89263" lon="4.92411">
        <ele>289.5</ele>
        <time>2015-11-11T10:34:17.972Z</time>
      </trkpt>
      <trkpt lat="45.89267" lon="4.92422">
        <ele>289.100006104</ele>
        <time>2015-11-11T10:34:19.987Z</time>
      </trkpt>
      <trkpt lat="45.89269" lon="4.92428">
        <ele>289.100006104</ele>
        <time>2015-11-11T10:34:20.976Z</time>
      </trkpt>
      <trkpt lat="45.89271" lon="4.92434">
        <ele>289.299987793</ele>
        <time>2015-11-11T10:34:21.987Z</time>
      </trkpt>
      <trkpt lat="45.89274" lon="4.9244">
        <ele>289.399993896</ele>
        <time>2015-11-11T10:34:22.974Z</time>
      </trkpt>
      <trkpt lat="45.89276" lon="4.92446">
        <ele>289.299987793</ele>
        <time>2015-11-11T10:34:23.996Z</time>
      </trkpt>
      <trkpt lat="45.89278" lon="4.92451">
        <ele>289.399993896</ele>
        <time>2015-11-11T10:34:24.972Z</time>
      </trkpt>
      <trkpt lat="45.89282" lon="4.92463">
        <ele>289.399993896</ele>
        <time>2015-11-11T10:34:26.991Z</time>
      </trkpt>
      <trkpt lat="45.89284" lon="4.92469">
        <ele>289.399993896</ele>
        <time>2015-11-11T10:34:27.972Z</time>
      </trkpt>
      <trkpt lat="45.89286" lon="4.92475">
        <ele>289.5</ele>
        <time>2015-11-11T10:34:28.992Z</time>
      </trkpt>
      <trkpt lat="45.89288" lon="4.9248">
        <ele>289.700012207</ele>
        <time>2015-11-11T10:34:29.972Z</time>
      </trkpt>
      <trkpt lat="45.8929" lon="4.92487">
        <ele>289.399993896</ele>
        <time>2015-11-11T10:34:30.988Z</time>
      </trkpt>
      <trkpt lat="45.89293" lon="4.92493">
        <ele>289.200012207</ele>
        <time>2015-11-11T10:34:31.973Z</time>
      </trkpt>
      <trkpt lat="45.89295" lon="4.925">
        <ele>289.399993896</ele>
        <time>2015-11-11T10:34:33.104Z</time>
      </trkpt>
      <trkpt lat="45.89297" lon="4.92507">
        <ele>289.399993896</ele>
        <time>2015-11-11T10:34:33.972Z</time>
      </trkpt>
      <trkpt lat="45.89299" lon="4.92514">
        <ele>289.399993896</ele>
        <time>2015-11-11T10:34:35.002Z</time>
      </trkpt>
      <trkpt lat="45.89301" lon="4.92521">
        <ele>289</ele>
        <time>2015-11-11T10:34:35.973Z</time>
      </trkpt>
      <trkpt lat="45.89303" lon="4.92528">
        <ele>288.799987793</ele>
        <time>2015-11-11T10:34:36.988Z</time>
      </trkpt>
      <trkpt lat="45.89306" lon="4.92534">
        <ele>289</ele>
        <time>2015-11-11T10:34:37.973Z</time>
      </trkpt>
      <trkpt lat="45.89308" lon="4.92541">
        <ele>289.299987793</ele>
        <time>2015-11-11T10:34:38.992Z</time>
      </trkpt>
      <trkpt lat="45.89311" lon="4.92547">
        <ele>289.200012207</ele>
        <time>2015-11-11T10:34:39.975Z</time>
      </trkpt>
      <trkpt lat="45.89313" lon="4.92554">
        <ele>289.100006104</ele>
        <time>2015-11-11T10:34:40.989Z</time>
      </trkpt>
      <trkpt lat="45.89315" lon="4.92561">
        <ele>288.799987793</ele>
        <time>2015-11-11T10:34:41.972Z</time>
      </trkpt>
      <trkpt lat="45.89317" lon="4.92568">
        <ele>288.700012207</ele>
        <time>2015-11-11T10:34:42.987Z</time>
      </trkpt>
      <trkpt lat="45.89319" lon="4.92575">
        <ele>288.700012207</ele>
        <time>2015-11-11T10:34:43.972Z</time>
      </trkpt>
      <trkpt lat="45.89321" lon="4.92583">
        <ele>288.600006104</ele>
        <time>2015-11-11T10:34:44.991Z</time>
      </trkpt>
      <trkpt lat="45.89323" lon="4.9259">
        <ele>288.299987793</ele>
        <time>2015-11-11T10:34:45.973Z</time>
      </trkpt>
      <trkpt lat="45.89325" lon="4.92598">
        <ele>288.200012207</ele>
        <time>2015-11-11T10:34:46.989Z</time>
      </trkpt>
      <trkpt lat="45.89328" lon="4.92606">
        <ele>288.399993896</ele>
        <time>2015-11-11T10:34:47.972Z</time>
      </trkpt>
      <trkpt lat="45.8933" lon="4.92614">
        <ele>288</ele>
        <time>2015-11-11T10:34:48.987Z</time>
      </trkpt>
      <trkpt lat="45.89332" lon="4.92622">
        <ele>287.799987793</ele>
        <time>2015-11-11T10:34:49.972Z</time>
      </trkpt>
      <trkpt lat="45.89334" lon="4.9263">
        <ele>287.700012207</ele>
        <time>2015-11-11T10:34:51.005Z</time>
      </trkpt>
      <trkpt lat="45.89336" lon="4.92637">
        <ele>287.5</ele>
        <time>2015-11-11T10:34:51.972Z</time>
      </trkpt>
      <trkpt lat="45.89338" lon="4.92645">
        <ele>287.100006104</ele>
        <time>2015-11-11T10:34:52.988Z</time>
      </trkpt>
      <trkpt lat="45.89339" lon="4.92652">
        <ele>287</ele>
        <time>2015-11-11T10:34:53.972Z</time>
      </trkpt>
      <trkpt lat="45.89342" lon="4.92659">
        <ele>287.200012207</ele>
        <time>2015-11-11T10:34:54.991Z</time>
      </trkpt>
      <trkpt lat="45.89343" lon="4.92666">
        <ele>287.200012207</ele>
        <time>2015-11-11T10:34:55.972Z</time>
      </trkpt>
      <trkpt lat="45.89345" lon="4.92674">
        <ele>286.700012207</ele>
        <time>2015-11-11T10:34:56.99Z</time>
      </trkpt>
      <trkpt lat="45.89347" lon="4.92682">
        <ele>286.700012207</ele>
        <time>2015-11-11T10:34:57.972Z</time>
      </trkpt>
      <trkpt lat="45.89348" lon="4.9269">
        <ele>286.700012207</ele>
        <time>2015-11-11T10:34:58.988Z</time>
      </trkpt>
      <trkpt lat="45.8935" lon="4.92698">
        <ele>286.600006104</ele>
        <time>2015-11-11T10:34:59.972Z</time>
      </trkpt>
      <trkpt lat="45.89352" lon="4.92706">
        <ele>286.5</ele>
        <time>2015-11-11T10:35:00.987Z</time>
      </trkpt>
      <trkpt lat="45.89354" lon="4.92714">
        <ele>286.399993896</ele>
        <time>2015-11-11T10:35:01.972Z</time>
      </trkpt>
      <trkpt lat="45.89356" lon="4.92722">
        <ele>286.200012207</ele>
        <time>2015-11-11T10:35:02.991Z</time>
      </trkpt>
      <trkpt lat="45.89358" lon="4.92731">
        <ele>286.5</ele>
        <time>2015-11-11T10:35:03.972Z</time>
      </trkpt>
      <trkpt lat="45.89359" lon="4.92739">
        <ele>286.600006104</ele>
        <time>2015-11-11T10:35:04.988Z</time>
      </trkpt>
      <trkpt lat="45.89361" lon="4.92747">
        <ele>286.299987793</ele>
        <time>2015-11-11T10:35:05.972Z</time>
      </trkpt>
      <trkpt lat="45.89363" lon="4.92754">
        <ele>286.299987793</ele>
        <time>2015-11-11T10:35:07Z</time>
      </trkpt>
      <trkpt lat="45.89364" lon="4.92762">
        <ele>286.299987793</ele>
        <time>2015-11-11T10:35:07.973Z</time>
      </trkpt>
      <trkpt lat="45.89365" lon="4.92769">
        <ele>286.299987793</ele>
        <time>2015-11-11T10:35:09Z</time>
      </trkpt>
      <trkpt lat="45.89365" lon="4.92777">
        <ele>286.700012207</ele>
        <time>2015-11-11T10:35:09.972Z</time>
      </trkpt>
      <trkpt lat="45.89366" lon="4.92783">
        <ele>286.600006104</ele>
        <time>2015-11-11T10:35:10.988Z</time>
      </trkpt>
      <trkpt lat="45.89367" lon="4.9279">
        <ele>286.600006104</ele>
        <time>2015-11-11T10:35:11.972Z</time>
      </trkpt>
      <trkpt lat="45.89368" lon="4.92797">
        <ele>286.600006104</ele>
        <time>2015-11-11T10:35:12.987Z</time>
      </trkpt>
      <trkpt lat="45.89369" lon="4.92803">
        <ele>286.600006104</ele>
        <time>2015-11-11T10:35:13.972Z</time>
      </trkpt>
      <trkpt lat="45.89371" lon="4.9281">
        <ele>286.5</ele>
        <time>2015-11-11T10:35:14.991Z</time>
      </trkpt>
      <trkpt lat="45.89372" lon="4.92817">
        <ele>286.5</ele>
        <time>2015-11-11T10:35:15.972Z</time>
      </trkpt>
      <trkpt lat="45.89373" lon="4.92823">
        <ele>286.5</ele>
        <time>2015-11-11T10:35:17.111Z</time>
      </trkpt>
      <trkpt lat="45.89374" lon="4.9283">
        <ele>286.200012207</ele>
        <time>2015-11-11T10:35:17.973Z</time>
      </trkpt>
      <trkpt lat="45.89375" lon="4.92837">
        <ele>286.100006104</ele>
        <time>2015-11-11T10:35:18.987Z</time>
      </trkpt>
      <trkpt lat="45.89377" lon="4.92844">
        <ele>286</ele>
        <time>2015-11-11T10:35:19.972Z</time>
      </trkpt>
      <trkpt lat="45.89378" lon="4.92852">
        <ele>285.600006104</ele>
        <time>2015-11-11T10:35:21.027Z</time>
      </trkpt>
      <trkpt lat="45.89381" lon="4.92861">
        <ele>285.5</ele>
        <time>2015-11-11T10:35:21.972Z</time>
      </trkpt>
      <trkpt lat="45.89384" lon="4.92869">
        <ele>285.299987793</ele>
        <time>2015-11-11T10:35:22.988Z</time>
      </trkpt>
      <trkpt lat="45.89387" lon="4.92877">
        <ele>285</ele>
        <time>2015-11-11T10:35:23.972Z</time>
      </trkpt>
      <trkpt lat="45.89391" lon="4.92886">
        <ele>284.700012207</ele>
        <time>2015-11-11T10:35:24.986Z</time>
      </trkpt>
      <trkpt lat="45.89395" lon="4.92895">
        <ele>284.399993896</ele>
        <time>2015-11-11T10:35:25.972Z</time>
      </trkpt>
      <trkpt lat="45.89399" lon="4.92904">
        <ele>283.899993896</ele>
        <time>2015-11-11T10:35:26.991Z</time>
      </trkpt>
      <trkpt lat="45.89402" lon="4.92913">
        <ele>283.600006104</ele>
        <time>2015-11-11T10:35:27.986Z</time>
      </trkpt>
      <trkpt lat="45.89406" lon="4.92922">
        <ele>283.200012207</ele>
        <time>2015-11-11T10:35:28.988Z</time>
      </trkpt>
      <trkpt lat="45.8941" lon="4.92931">
        <ele>283</ele>
        <time>2015-11-11T10:35:29.972Z</time>
      </trkpt>
      <trkpt lat="45.89413" lon="4.9294">
        <ele>282.200012207</ele>
        <time>2015-11-11T10:35:30.986Z</time>
      </trkpt>
      <trkpt lat="45.89416" lon="4.92949">
        <ele>281.899993896</ele>
        <time>2015-11-11T10:35:31.972Z</time>
      </trkpt>
      <trkpt lat="45.89419" lon="4.92959">
        <ele>281.200012207</ele>
        <time>2015-11-11T10:35:32.99Z</time>
      </trkpt>
      <trkpt lat="45.89422" lon="4.92968">
        <ele>281</ele>
        <time>2015-11-11T10:35:33.972Z</time>
      </trkpt>
      <trkpt lat="45.89424" lon="4.92977">
        <ele>281.299987793</ele>
        <time>2015-11-11T10:35:34.988Z</time>
      </trkpt>
      <trkpt lat="45.89427" lon="4.92985">
        <ele>281</ele>
        <time>2015-11-11T10:35:35.972Z</time>
      </trkpt>
      <trkpt lat="45.89431" lon="4.92994">
        <ele>280.700012207</ele>
        <time>2015-11-11T10:35:36.987Z</time>
      </trkpt>
      <trkpt lat="45.89435" lon="4.93003">
        <ele>280.200012207</ele>
        <time>2015-11-11T10:35:37.973Z</time>
      </trkpt>
      <trkpt lat="45.89438" lon="4.93011">
        <ele>279.5</ele>
        <time>2015-11-11T10:35:38.99Z</time>
      </trkpt>
      <trkpt lat="45.89441" lon="4.93019">
        <ele>279</ele>
        <time>2015-11-11T10:35:39.974Z</time>
      </trkpt>
      <trkpt lat="45.89444" lon="4.93028">
        <ele>278.799987793</ele>
        <time>2015-11-11T10:35:40.989Z</time>
      </trkpt>
      <trkpt lat="45.89447" lon="4.93036">
        <ele>278.399993896</ele>
        <time>2015-11-11T10:35:41.972Z</time>
      </trkpt>
      <trkpt lat="45.8945" lon="4.93043">
        <ele>278</ele>
        <time>2015-11-11T10:35:42.986Z</time>
      </trkpt>
      <trkpt lat="45.89453" lon="4.9305">
        <ele>277.899993896</ele>
        <time>2015-11-11T10:35:43.972Z</time>
      </trkpt>
      <trkpt lat="45.89455" lon="4.93056">
        <ele>277.700012207</ele>
        <time>2015-11-11T10:35:45.1Z</time>
      </trkpt>
      <trkpt lat="45.89458" lon="4.93062">
        <ele>277.399993896</ele>
        <time>2015-11-11T10:35:45.972Z</time>
      </trkpt>
      <trkpt lat="45.89459" lon="4.93069">
        <ele>276.899993896</ele>
        <time>2015-11-11T10:35:46.991Z</time>
      </trkpt>
      <trkpt lat="45.89462" lon="4.93075">
        <ele>276.600006104</ele>
        <time>2015-11-11T10:35:47.972Z</time>
      </trkpt>
      <trkpt lat="45.89466" lon="4.93087">
        <ele>276.399993896</ele>
        <time>2015-11-11T10:35:49.986Z</time>
      </trkpt>
      <trkpt lat="45.89467" lon="4.93091">
        <ele>276.100006104</ele>
        <time>2015-11-11T10:35:50.976Z</time>
      </trkpt>
      <trkpt lat="45.89467" lon="4.93099">
        <ele>275.600006104</ele>
        <time>2015-11-11T10:35:53.986Z</time>
      </trkpt>
      <trkpt lat="45.89467" lon="4.93101">
        <ele>275.299987793</ele>
        <time>2015-11-11T10:35:54.972Z</time>
      </trkpt>
      <trkpt lat="45.89468" lon="4.93106">
        <ele>274.899993896</ele>
        <time>2015-11-11T10:35:59.987Z</time>
      </trkpt>
      <trkpt lat="45.89468" lon="4.93108">
        <ele>274.799987793</ele>
        <time>2015-11-11T10:36:00.972Z</time>
      </trkpt>
      <trkpt lat="45.89474" lon="4.93114">
        <ele>274.899993896</ele>
        <time>2015-11-11T10:36:04.049Z</time>
      </trkpt>
      <trkpt lat="45.89477" lon="4.93116">
        <ele>274.899993896</ele>
        <time>2015-11-11T10:36:04.973Z</time>
      </trkpt>
      <trkpt lat="45.89484" lon="4.93119">
        <ele>274.799987793</ele>
        <time>2015-11-11T10:36:07Z</time>
      </trkpt>
      <trkpt lat="45.89487" lon="4.93119">
        <ele>274.700012207</ele>
        <time>2015-11-11T10:36:07.972Z</time>
      </trkpt>
      <trkpt lat="45.89494" lon="4.9312">
        <ele>274.5</ele>
        <time>2015-11-11T10:36:10.013Z</time>
      </trkpt>
      <trkpt lat="45.89497" lon="4.93122">
        <ele>274.100006104</ele>
        <time>2015-11-11T10:36:10.973Z</time>
      </trkpt>
      <trkpt lat="45.89501" lon="4.93131">
        <ele>273.799987793</ele>
        <time>2015-11-11T10:36:12.987Z</time>
      </trkpt>
      <trkpt lat="45.89503" lon="4.93137">
        <ele>273.5</ele>
        <time>2015-11-11T10:36:13.972Z</time>
      </trkpt>
      <trkpt lat="45.89505" lon="4.93142">
        <ele>273.299987793</ele>
        <time>2015-11-11T10:36:14.99Z</time>
      </trkpt>
      <trkpt lat="45.89508" lon="4.93148">
        <ele>273.200012207</ele>
        <time>2015-11-11T10:36:15.982Z</time>
      </trkpt>
      <trkpt lat="45.89509" lon="4.93154">
        <ele>273.100006104</ele>
        <time>2015-11-11T10:36:16.987Z</time>
      </trkpt>
      <trkpt lat="45.89511" lon="4.9316">
        <ele>272.799987793</ele>
        <time>2015-11-11T10:36:17.972Z</time>
      </trkpt>
      <trkpt lat="45.89515" lon="4.9317">
        <ele>272.799987793</ele>
        <time>2015-11-11T10:36:19.987Z</time>
      </trkpt>
      <trkpt lat="45.89516" lon="4.93175">
        <ele>272.799987793</ele>
        <time>2015-11-11T10:36:20.975Z</time>
      </trkpt>
      <trkpt lat="45.8952" lon="4.93184">
        <ele>272.799987793</ele>
        <time>2015-11-11T10:36:22.987Z</time>
      </trkpt>
      <trkpt lat="45.8952" lon="4.93191">
        <ele>273.100006104</ele>
        <time>2015-11-11T10:36:23.972Z</time>
      </trkpt>
      <trkpt lat="45.89522" lon="4.93201">
        <ele>273.299987793</ele>
        <time>2015-11-11T10:36:25.986Z</time>
      </trkpt>
      <trkpt lat="45.89524" lon="4.93206">
        <ele>273.399993896</ele>
        <time>2015-11-11T10:36:26.976Z</time>
      </trkpt>
      <trkpt lat="45.89527" lon="4.93216">
        <ele>273.799987793</ele>
        <time>2015-11-11T10:36:28.987Z</time>
      </trkpt>
      <trkpt lat="45.89528" lon="4.93221">
        <ele>274</ele>
        <time>2015-11-11T10:36:29.972Z</time>
      </trkpt>
      <trkpt lat="45.89529" lon="4.93231">
        <ele>274.5</ele>
        <time>2015-11-11T10:36:31.986Z</time>
      </trkpt>
      <trkpt lat="45.89529" lon="4.93237">
        <ele>275</ele>
        <time>2015-11-11T10:36:32.975Z</time>
      </trkpt>
      <trkpt lat="45.8953" lon="4.93246">
        <ele>276.600006104</ele>
        <time>2015-11-11T10:36:34.988Z</time>
      </trkpt>
      <trkpt lat="45.89531" lon="4.93251">
        <ele>277.100006104</ele>
        <time>2015-11-11T10:36:35.972Z</time>
      </trkpt>
      <trkpt lat="45.89531" lon="4.93261">
        <ele>278.299987793</ele>
        <time>2015-11-11T10:36:37.989Z</time>
      </trkpt>
      <trkpt lat="45.8953" lon="4.93265">
        <ele>278.799987793</ele>
        <time>2015-11-11T10:36:38.977Z</time>
      </trkpt>
      <trkpt lat="45.89529" lon="4.93275">
        <ele>280</ele>
        <time>2015-11-11T10:36:41.112Z</time>
      </trkpt>
      <trkpt lat="45.89528" lon="4.93279">
        <ele>280.399993896</ele>
        <time>2015-11-11T10:36:41.986Z</time>
      </trkpt>
      <trkpt lat="45.89526" lon="4.93289">
        <ele>280.700012207</ele>
        <time>2015-11-11T10:36:43.986Z</time>
      </trkpt>
      <trkpt lat="45.89526" lon="4.93294">
        <ele>280.899993896</ele>
        <time>2015-11-11T10:36:44.976Z</time>
      </trkpt>
      <trkpt lat="45.89525" lon="4.93307">
        <ele>281.399993896</ele>
        <time>2015-11-11T10:36:46.988Z</time>
      </trkpt>
      <trkpt lat="45.89525" lon="4.93314">
        <ele>281.600006104</ele>
        <time>2015-11-11T10:36:47.973Z</time>
      </trkpt>
      <trkpt lat="45.89525" lon="4.93322">
        <ele>281.799987793</ele>
        <time>2015-11-11T10:36:48.987Z</time>
      </trkpt>
      <trkpt lat="45.89526" lon="4.9333">
        <ele>281.600006104</ele>
        <time>2015-11-11T10:36:49.972Z</time>
      </trkpt>
      <trkpt lat="45.89527" lon="4.93338">
        <ele>281.5</ele>
        <time>2015-11-11T10:36:50.99Z</time>
      </trkpt>
      <trkpt lat="45.89528" lon="4.93346">
        <ele>281.299987793</ele>
        <time>2015-11-11T10:36:51.972Z</time>
      </trkpt>
      <trkpt lat="45.8953" lon="4.93354">
        <ele>280.700012207</ele>
        <time>2015-11-11T10:36:53.003Z</time>
      </trkpt>
      <trkpt lat="45.89533" lon="4.93362">
        <ele>280.200012207</ele>
        <time>2015-11-11T10:36:53.972Z</time>
      </trkpt>
      <trkpt lat="45.89534" lon="4.93371">
        <ele>279.899993896</ele>
        <time>2015-11-11T10:36:54.987Z</time>
      </trkpt>
      <trkpt lat="45.89537" lon="4.9338">
        <ele>279.600006104</ele>
        <time>2015-11-11T10:36:55.972Z</time>
      </trkpt>
      <trkpt lat="45.8954" lon="4.93388">
        <ele>279.299987793</ele>
        <time>2015-11-11T10:36:57.1Z</time>
      </trkpt>
      <trkpt lat="45.89542" lon="4.93397">
        <ele>279.100006104</ele>
        <time>2015-11-11T10:36:57.973Z</time>
      </trkpt>
      <trkpt lat="45.89545" lon="4.93406">
        <ele>278.899993896</ele>
        <time>2015-11-11T10:36:59Z</time>
      </trkpt>
      <trkpt lat="45.89547" lon="4.93414">
        <ele>278.600006104</ele>
        <time>2015-11-11T10:36:59.972Z</time>
      </trkpt>
      <trkpt lat="45.8955" lon="4.93423">
        <ele>278.299987793</ele>
        <time>2015-11-11T10:37:00.987Z</time>
      </trkpt>
      <trkpt lat="45.89552" lon="4.93432">
        <ele>278</ele>
        <time>2015-11-11T10:37:01.973Z</time>
      </trkpt>
      <trkpt lat="45.89554" lon="4.93441">
        <ele>277.5</ele>
        <time>2015-11-11T10:37:02.99Z</time>
      </trkpt>
      <trkpt lat="45.89555" lon="4.93451">
        <ele>277</ele>
        <time>2015-11-11T10:37:03.972Z</time>
      </trkpt>
      <trkpt lat="45.89555" lon="4.93461">
        <ele>276.5</ele>
        <time>2015-11-11T10:37:04.991Z</time>
      </trkpt>
      <trkpt lat="45.89555" lon="4.9347">
        <ele>276</ele>
        <time>2015-11-11T10:37:05.972Z</time>
      </trkpt>
      <trkpt lat="45.89555" lon="4.93481">
        <ele>275.399993896</ele>
        <time>2015-11-11T10:37:06.987Z</time>
      </trkpt>
      <trkpt lat="45.89554" lon="4.93491">
        <ele>275</ele>
        <time>2015-11-11T10:37:07.972Z</time>
      </trkpt>
      <trkpt lat="45.89553" lon="4.93501">
        <ele>274.600006104</ele>
        <time>2015-11-11T10:37:09.002Z</time>
      </trkpt>
      <trkpt lat="45.89551" lon="4.93511">
        <ele>274.399993896</ele>
        <time>2015-11-11T10:37:09.972Z</time>
      </trkpt>
      <trkpt lat="45.8955" lon="4.93521">
        <ele>274.299987793</ele>
        <time>2015-11-11T10:37:11.021Z</time>
      </trkpt>
      <trkpt lat="45.89548" lon="4.93532">
        <ele>274.399993896</ele>
        <time>2015-11-11T10:37:11.972Z</time>
      </trkpt>
      <trkpt lat="45.89546" lon="4.93542">
        <ele>274.299987793</ele>
        <time>2015-11-11T10:37:12.986Z</time>
      </trkpt>
      <trkpt lat="45.89545" lon="4.93552">
        <ele>274.5</ele>
        <time>2015-11-11T10:37:13.972Z</time>
      </trkpt>
      <trkpt lat="45.89544" lon="4.93561">
        <ele>274.299987793</ele>
        <time>2015-11-11T10:37:14.99Z</time>
      </trkpt>
      <trkpt lat="45.89543" lon="4.93571">
        <ele>274.299987793</ele>
        <time>2015-11-11T10:37:15.972Z</time>
      </trkpt>
      <trkpt lat="45.89543" lon="4.93581">
        <ele>273.799987793</ele>
        <time>2015-11-11T10:37:16.988Z</time>
      </trkpt>
      <trkpt lat="45.89543" lon="4.9359">
        <ele>273.600006104</ele>
        <time>2015-11-11T10:37:17.972Z</time>
      </trkpt>
      <trkpt lat="45.89542" lon="4.93599">
        <ele>273.600006104</ele>
        <time>2015-11-11T10:37:18.986Z</time>
      </trkpt>
      <trkpt lat="45.89542" lon="4.93608">
        <ele>273.100006104</ele>
        <time>2015-11-11T10:37:19.972Z</time>
      </trkpt>
      <trkpt lat="45.89542" lon="4.93617">
        <ele>273.100006104</ele>
        <time>2015-11-11T10:37:20.991Z</time>
      </trkpt>
      <trkpt lat="45.89541" lon="4.93627">
        <ele>273</ele>
        <time>2015-11-11T10:37:21.972Z</time>
      </trkpt>
      <trkpt lat="45.89541" lon="4.93636">
        <ele>272.899993896</ele>
        <time>2015-11-11T10:37:22.988Z</time>
      </trkpt>
      <trkpt lat="45.8954" lon="4.93646">
        <ele>273</ele>
        <time>2015-11-11T10:37:23.972Z</time>
      </trkpt>
      <trkpt lat="45.89539" lon="4.93656">
        <ele>272.899993896</ele>
        <time>2015-11-11T10:37:25.008Z</time>
      </trkpt>
      <trkpt lat="45.89539" lon="4.93666">
        <ele>272.700012207</ele>
        <time>2015-11-11T10:37:25.972Z</time>
      </trkpt>
      <trkpt lat="45.89538" lon="4.93675">
        <ele>272.399993896</ele>
        <time>2015-11-11T10:37:26.989Z</time>
      </trkpt>
      <trkpt lat="45.89538" lon="4.93684">
        <ele>272.399993896</ele>
        <time>2015-11-11T10:37:27.972Z</time>
      </trkpt>
      <trkpt lat="45.89537" lon="4.93693">
        <ele>272.399993896</ele>
        <time>2015-11-11T10:37:28.988Z</time>
      </trkpt>
      <trkpt lat="45.89537" lon="4.93702">
        <ele>272.200012207</ele>
        <time>2015-11-11T10:37:29.972Z</time>
      </trkpt>
      <trkpt lat="45.89536" lon="4.9371">
        <ele>272</ele>
        <time>2015-11-11T10:37:30.987Z</time>
      </trkpt>
      <trkpt lat="45.89536" lon="4.93719">
        <ele>271.899993896</ele>
        <time>2015-11-11T10:37:31.972Z</time>
      </trkpt>
      <trkpt lat="45.89536" lon="4.93728">
        <ele>271.600006104</ele>
        <time>2015-11-11T10:37:32.99Z</time>
      </trkpt>
      <trkpt lat="45.89536" lon="4.93737">
        <ele>271.299987793</ele>
        <time>2015-11-11T10:37:33.972Z</time>
      </trkpt>
      <trkpt lat="45.89536" lon="4.93746">
        <ele>271</ele>
        <time>2015-11-11T10:37:34.988Z</time>
      </trkpt>
      <trkpt lat="45.89536" lon="4.93755">
        <ele>270.799987793</ele>
        <time>2015-11-11T10:37:35.972Z</time>
      </trkpt>
      <trkpt lat="45.89536" lon="4.93763">
        <ele>270.899993896</ele>
        <time>2015-11-11T10:37:36.986Z</time>
      </trkpt>
      <trkpt lat="45.89536" lon="4.93771">
        <ele>271.100006104</ele>
        <time>2015-11-11T10:37:37.972Z</time>
      </trkpt>
      <trkpt lat="45.89535" lon="4.93779">
        <ele>270.899993896</ele>
        <time>2015-11-11T10:37:38.99Z</time>
      </trkpt>
      <trkpt lat="45.89534" lon="4.93787">
        <ele>270.700012207</ele>
        <time>2015-11-11T10:37:39.974Z</time>
      </trkpt>
      <trkpt lat="45.89533" lon="4.93795">
        <ele>270.5</ele>
        <time>2015-11-11T10:37:41Z</time>
      </trkpt>
      <trkpt lat="45.89532" lon="4.93804">
        <ele>270.399993896</ele>
        <time>2015-11-11T10:37:41.972Z</time>
      </trkpt>
      <trkpt lat="45.89531" lon="4.93813">
        <ele>270.200012207</ele>
        <time>2015-11-11T10:37:42.986Z</time>
      </trkpt>
      <trkpt lat="45.8953" lon="4.93821">
        <ele>270.100006104</ele>
        <time>2015-11-11T10:37:43.972Z</time>
      </trkpt>
      <trkpt lat="45.89529" lon="4.9383">
        <ele>270.100006104</ele>
        <time>2015-11-11T10:37:44.99Z</time>
      </trkpt>
      <trkpt lat="45.89528" lon="4.93838">
        <ele>270</ele>
        <time>2015-11-11T10:37:45.972Z</time>
      </trkpt>
      <trkpt lat="45.89526" lon="4.93847">
        <ele>270.399993896</ele>
        <time>2015-11-11T10:37:46.987Z</time>
      </trkpt>
      <trkpt lat="45.89525" lon="4.93855">
        <ele>270.399993896</ele>
        <time>2015-11-11T10:37:47.973Z</time>
      </trkpt>
      <trkpt lat="45.89524" lon="4.93864">
        <ele>270.5</ele>
        <time>2015-11-11T10:37:48.986Z</time>
      </trkpt>
      <trkpt lat="45.89524" lon="4.93871">
        <ele>270.299987793</ele>
        <time>2015-11-11T10:37:49.972Z</time>
      </trkpt>
      <trkpt lat="45.89524" lon="4.93879">
        <ele>270.600006104</ele>
        <time>2015-11-11T10:37:50.99Z</time>
      </trkpt>
      <trkpt lat="45.89523" lon="4.93887">
        <ele>270.399993896</ele>
        <time>2015-11-11T10:37:51.972Z</time>
      </trkpt>
      <trkpt lat="45.89523" lon="4.93895">
        <ele>270.100006104</ele>
        <time>2015-11-11T10:37:52.987Z</time>
      </trkpt>
      <trkpt lat="45.89522" lon="4.93903">
        <ele>269.799987793</ele>
        <time>2015-11-11T10:37:53.972Z</time>
      </trkpt>
      <trkpt lat="45.89521" lon="4.93911">
        <ele>269.700012207</ele>
        <time>2015-11-11T10:37:54.986Z</time>
      </trkpt>
      <trkpt lat="45.89521" lon="4.9392">
        <ele>269.799987793</ele>
        <time>2015-11-11T10:37:55.972Z</time>
      </trkpt>
      <trkpt lat="45.8952" lon="4.93928">
        <ele>269.600006104</ele>
        <time>2015-11-11T10:37:57.007Z</time>
      </trkpt>
      <trkpt lat="45.8952" lon="4.93937">
        <ele>269.799987793</ele>
        <time>2015-11-11T10:37:57.973Z</time>
      </trkpt>
      <trkpt lat="45.89519" lon="4.93946">
        <ele>269.600006104</ele>
        <time>2015-11-11T10:37:58.987Z</time>
      </trkpt>
      <trkpt lat="45.89519" lon="4.93955">
        <ele>269.700012207</ele>
        <time>2015-11-11T10:37:59.972Z</time>
      </trkpt>
      <trkpt lat="45.89519" lon="4.93964">
        <ele>269.899993896</ele>
        <time>2015-11-11T10:38:00.995Z</time>
      </trkpt>
      <trkpt lat="45.89519" lon="4.93973">
        <ele>269.799987793</ele>
        <time>2015-11-11T10:38:01.972Z</time>
      </trkpt>
      <trkpt lat="45.89519" lon="4.93981">
        <ele>269.899993896</ele>
        <time>2015-11-11T10:38:02.99Z</time>
      </trkpt>
      <trkpt lat="45.89519" lon="4.93989">
        <ele>269.799987793</ele>
        <time>2015-11-11T10:38:03.972Z</time>
      </trkpt>
      <trkpt lat="45.89518" lon="4.93997">
        <ele>269.700012207</ele>
        <time>2015-11-11T10:38:04.987Z</time>
      </trkpt>
      <trkpt lat="45.89518" lon="4.94005">
        <ele>269.600006104</ele>
        <time>2015-11-11T10:38:05.972Z</time>
      </trkpt>
      <trkpt lat="45.89518" lon="4.94013">
        <ele>269.5</ele>
        <time>2015-11-11T10:38:06.986Z</time>
      </trkpt>
      <trkpt lat="45.89517" lon="4.94021">
        <ele>269.5</ele>
        <time>2015-11-11T10:38:07.973Z</time>
      </trkpt>
      <trkpt lat="45.89517" lon="4.94029">
        <ele>269.5</ele>
        <time>2015-11-11T10:38:08.99Z</time>
      </trkpt>
      <trkpt lat="45.89517" lon="4.94037">
        <ele>269.600006104</ele>
        <time>2015-11-11T10:38:09.971Z</time>
      </trkpt>
      <trkpt lat="45.89516" lon="4.94046">
        <ele>269.700012207</ele>
        <time>2015-11-11T10:38:10.987Z</time>
      </trkpt>
      <trkpt lat="45.89515" lon="4.94054">
        <ele>269.5</ele>
        <time>2015-11-11T10:38:11.972Z</time>
      </trkpt>
      <trkpt lat="45.89513" lon="4.94064">
        <ele>269.799987793</ele>
        <time>2015-11-11T10:38:13Z</time>
      </trkpt>
      <trkpt lat="45.89512" lon="4.94072">
        <ele>269.799987793</ele>
        <time>2015-11-11T10:38:13.972Z</time>
      </trkpt>
      <trkpt lat="45.89511" lon="4.94081">
        <ele>269.700012207</ele>
        <time>2015-11-11T10:38:14.99Z</time>
      </trkpt>
      <trkpt lat="45.8951" lon="4.9409">
        <ele>270.100006104</ele>
        <time>2015-11-11T10:38:15.972Z</time>
      </trkpt>
      <trkpt lat="45.8951" lon="4.94099">
        <ele>270</ele>
        <time>2015-11-11T10:38:16.987Z</time>
      </trkpt>
      <trkpt lat="45.89509" lon="4.94107">
        <ele>269.899993896</ele>
        <time>2015-11-11T10:38:17.973Z</time>
      </trkpt>
      <trkpt lat="45.89508" lon="4.94116">
        <ele>270.100006104</ele>
        <time>2015-11-11T10:38:18.987Z</time>
      </trkpt>
      <trkpt lat="45.89508" lon="4.94124">
        <ele>270.5</ele>
        <time>2015-11-11T10:38:19.971Z</time>
      </trkpt>
      <trkpt lat="45.89507" lon="4.94132">
        <ele>270.600006104</ele>
        <time>2015-11-11T10:38:20.99Z</time>
      </trkpt>
      <trkpt lat="45.89506" lon="4.9414">
        <ele>270.700012207</ele>
        <time>2015-11-11T10:38:21.972Z</time>
      </trkpt>
      <trkpt lat="45.89506" lon="4.94148">
        <ele>270.799987793</ele>
        <time>2015-11-11T10:38:22.99Z</time>
      </trkpt>
      <trkpt lat="45.89505" lon="4.94156">
        <ele>270.799987793</ele>
        <time>2015-11-11T10:38:23.971Z</time>
      </trkpt>
      <trkpt lat="45.89504" lon="4.94164">
        <ele>271</ele>
        <time>2015-11-11T10:38:24.987Z</time>
      </trkpt>
      <trkpt lat="45.89503" lon="4.94172">
        <ele>270.899993896</ele>
        <time>2015-11-11T10:38:25.973Z</time>
      </trkpt>
      <trkpt lat="45.89503" lon="4.9418">
        <ele>271</ele>
        <time>2015-11-11T10:38:26.991Z</time>
      </trkpt>
      <trkpt lat="45.89502" lon="4.94188">
        <ele>271.100006104</ele>
        <time>2015-11-11T10:38:27.974Z</time>
      </trkpt>
      <trkpt lat="45.89501" lon="4.94196">
        <ele>271</ele>
        <time>2015-11-11T10:38:29.003Z</time>
      </trkpt>
      <trkpt lat="45.895" lon="4.94205">
        <ele>271.200012207</ele>
        <time>2015-11-11T10:38:29.971Z</time>
      </trkpt>
      <trkpt lat="45.89499" lon="4.94213">
        <ele>271.5</ele>
        <time>2015-11-11T10:38:30.986Z</time>
      </trkpt>
      <trkpt lat="45.89499" lon="4.94221">
        <ele>271.600006104</ele>
        <time>2015-11-11T10:38:31.971Z</time>
      </trkpt>
      <trkpt lat="45.89498" lon="4.94229">
        <ele>271.799987793</ele>
        <time>2015-11-11T10:38:32.99Z</time>
      </trkpt>
      <trkpt lat="45.89497" lon="4.94238">
        <ele>271.799987793</ele>
        <time>2015-11-11T10:38:33.972Z</time>
      </trkpt>
      <trkpt lat="45.89497" lon="4.94246">
        <ele>271.700012207</ele>
        <time>2015-11-11T10:38:34.987Z</time>
      </trkpt>
      <trkpt lat="45.89496" lon="4.94254">
        <ele>271.899993896</ele>
        <time>2015-11-11T10:38:35.971Z</time>
      </trkpt>
      <trkpt lat="45.89496" lon="4.94263">
        <ele>271.100006104</ele>
        <time>2015-11-11T10:38:36.986Z</time>
      </trkpt>
      <trkpt lat="45.89495" lon="4.94271">
        <ele>271.100006104</ele>
        <time>2015-11-11T10:38:37.973Z</time>
      </trkpt>
      <trkpt lat="45.89494" lon="4.94279">
        <ele>271.100006104</ele>
        <time>2015-11-11T10:38:38.989Z</time>
      </trkpt>
      <trkpt lat="45.89493" lon="4.94286">
        <ele>271.399993896</ele>
        <time>2015-11-11T10:38:39.974Z</time>
      </trkpt>
      <trkpt lat="45.89493" lon="4.94294">
        <ele>271.299987793</ele>
        <time>2015-11-11T10:38:41.008Z</time>
      </trkpt>
      <trkpt lat="45.89492" lon="4.94301">
        <ele>271.299987793</ele>
        <time>2015-11-11T10:38:41.971Z</time>
      </trkpt>
      <trkpt lat="45.89492" lon="4.94309">
        <ele>271.100006104</ele>
        <time>2015-11-11T10:38:42.986Z</time>
      </trkpt>
      <trkpt lat="45.89491" lon="4.94317">
        <ele>270.799987793</ele>
        <time>2015-11-11T10:38:43.971Z</time>
      </trkpt>
      <trkpt lat="45.89491" lon="4.94325">
        <ele>270.600006104</ele>
        <time>2015-11-11T10:38:45.004Z</time>
      </trkpt>
      <trkpt lat="45.8949" lon="4.94333">
        <ele>270.899993896</ele>
        <time>2015-11-11T10:38:45.972Z</time>
      </trkpt>
      <trkpt lat="45.8949" lon="4.94341">
        <ele>271.100006104</ele>
        <time>2015-11-11T10:38:46.987Z</time>
      </trkpt>
      <trkpt lat="45.89489" lon="4.94348">
        <ele>271.100006104</ele>
        <time>2015-11-11T10:38:47.974Z</time>
      </trkpt>
      <trkpt lat="45.89489" lon="4.94356">
        <ele>271</ele>
        <time>2015-11-11T10:38:48.987Z</time>
      </trkpt>
      <trkpt lat="45.89488" lon="4.94365">
        <ele>270.600006104</ele>
        <time>2015-11-11T10:38:49.971Z</time>
      </trkpt>
      <trkpt lat="45.89487" lon="4.94373">
        <ele>270.5</ele>
        <time>2015-11-11T10:38:50.989Z</time>
      </trkpt>
      <trkpt lat="45.89486" lon="4.9438">
        <ele>270.5</ele>
        <time>2015-11-11T10:38:51.971Z</time>
      </trkpt>
      <trkpt lat="45.89486" lon="4.94388">
        <ele>270.5</ele>
        <time>2015-11-11T10:38:52.987Z</time>
      </trkpt>
      <trkpt lat="45.89485" lon="4.94396">
        <ele>270.200012207</ele>
        <time>2015-11-11T10:38:53.971Z</time>
      </trkpt>
      <trkpt lat="45.89485" lon="4.94404">
        <ele>269.899993896</ele>
        <time>2015-11-11T10:38:54.986Z</time>
      </trkpt>
      <trkpt lat="45.89484" lon="4.94412">
        <ele>270.200012207</ele>
        <time>2015-11-11T10:38:55.972Z</time>
      </trkpt>
      <trkpt lat="45.89483" lon="4.9442">
        <ele>270.399993896</ele>
        <time>2015-11-11T10:38:56.99Z</time>
      </trkpt>
      <trkpt lat="45.89482" lon="4.94427">
        <ele>270.5</ele>
        <time>2015-11-11T10:38:57.973Z</time>
      </trkpt>
      <trkpt lat="45.89481" lon="4.94435">
        <ele>270.399993896</ele>
        <time>2015-11-11T10:38:58.992Z</time>
      </trkpt>
      <trkpt lat="45.8948" lon="4.94443">
        <ele>270.5</ele>
        <time>2015-11-11T10:38:59.971Z</time>
      </trkpt>
      <trkpt lat="45.89479" lon="4.94451">
        <ele>270.299987793</ele>
        <time>2015-11-11T10:39:01Z</time>
      </trkpt>
      <trkpt lat="45.89478" lon="4.94459">
        <ele>270.200012207</ele>
        <time>2015-11-11T10:39:01.972Z</time>
      </trkpt>
      <trkpt lat="45.89477" lon="4.94467">
        <ele>270.299987793</ele>
        <time>2015-11-11T10:39:02.989Z</time>
      </trkpt>
      <trkpt lat="45.89476" lon="4.94475">
        <ele>270</ele>
        <time>2015-11-11T10:39:03.971Z</time>
      </trkpt>
      <trkpt lat="45.89475" lon="4.94483">
        <ele>269.899993896</ele>
        <time>2015-11-11T10:39:04.987Z</time>
      </trkpt>
      <trkpt lat="45.89474" lon="4.9449">
        <ele>269.899993896</ele>
        <time>2015-11-11T10:39:05.971Z</time>
      </trkpt>
      <trkpt lat="45.89473" lon="4.94498">
        <ele>270.100006104</ele>
        <time>2015-11-11T10:39:06.985Z</time>
      </trkpt>
      <trkpt lat="45.89472" lon="4.94505">
        <ele>270.200012207</ele>
        <time>2015-11-11T10:39:07.974Z</time>
      </trkpt>
      <trkpt lat="45.89471" lon="4.94513">
        <ele>270.200012207</ele>
        <time>2015-11-11T10:39:08.99Z</time>
      </trkpt>
      <trkpt lat="45.8947" lon="4.9452">
        <ele>270.299987793</ele>
        <time>2015-11-11T10:39:09.971Z</time>
      </trkpt>
      <trkpt lat="45.89469" lon="4.94528">
        <ele>270.299987793</ele>
        <time>2015-11-11T10:39:10.987Z</time>
      </trkpt>
      <trkpt lat="45.89468" lon="4.94535">
        <ele>270.299987793</ele>
        <time>2015-11-11T10:39:11.972Z</time>
      </trkpt>
      <trkpt lat="45.89467" lon="4.94543">
        <ele>270.299987793</ele>
        <time>2015-11-11T10:39:12.986Z</time>
      </trkpt>
      <trkpt lat="45.89467" lon="4.94551">
        <ele>270.399993896</ele>
        <time>2015-11-11T10:39:13.972Z</time>
      </trkpt>
      <trkpt lat="45.89466" lon="4.94558">
        <ele>270.5</ele>
        <time>2015-11-11T10:39:14.994Z</time>
      </trkpt>
      <trkpt lat="45.89465" lon="4.94566">
        <ele>270.700012207</ele>
        <time>2015-11-11T10:39:15.971Z</time>
      </trkpt>
      <trkpt lat="45.89464" lon="4.94574">
        <ele>270.799987793</ele>
        <time>2015-11-11T10:39:17.001Z</time>
      </trkpt>
      <trkpt lat="45.89463" lon="4.94582">
        <ele>270.799987793</ele>
        <time>2015-11-11T10:39:17.974Z</time>
      </trkpt>
      <trkpt lat="45.89463" lon="4.9459">
        <ele>270.399993896</ele>
        <time>2015-11-11T10:39:18.985Z</time>
      </trkpt>
      <trkpt lat="45.89461" lon="4.94598">
        <ele>270.399993896</ele>
        <time>2015-11-11T10:39:19.971Z</time>
      </trkpt>
      <trkpt lat="45.8946" lon="4.94606">
        <ele>270.100006104</ele>
        <time>2015-11-11T10:39:21.018Z</time>
      </trkpt>
      <trkpt lat="45.89459" lon="4.94614">
        <ele>269.600006104</ele>
        <time>2015-11-11T10:39:21.971Z</time>
      </trkpt>
      <trkpt lat="45.89458" lon="4.94622">
        <ele>269.799987793</ele>
        <time>2015-11-11T10:39:22.987Z</time>
      </trkpt>
      <trkpt lat="45.89456" lon="4.94631">
        <ele>269.5</ele>
        <time>2015-11-11T10:39:23.972Z</time>
      </trkpt>
      <trkpt lat="45.89454" lon="4.94638">
        <ele>269.700012207</ele>
        <time>2015-11-11T10:39:24.986Z</time>
      </trkpt>
      <trkpt lat="45.89453" lon="4.94646">
        <ele>269.200012207</ele>
        <time>2015-11-11T10:39:25.973Z</time>
      </trkpt>
      <trkpt lat="45.89451" lon="4.94654">
        <ele>268.600006104</ele>
        <time>2015-11-11T10:39:26.99Z</time>
      </trkpt>
      <trkpt lat="45.89449" lon="4.94661">
        <ele>268.399993896</ele>
        <time>2015-11-11T10:39:27.974Z</time>
      </trkpt>
      <trkpt lat="45.89447" lon="4.94667">
        <ele>268.5</ele>
        <time>2015-11-11T10:39:28.987Z</time>
      </trkpt>
      <trkpt lat="45.89445" lon="4.94674">
        <ele>268.5</ele>
        <time>2015-11-11T10:39:29.972Z</time>
      </trkpt>
      <trkpt lat="45.89443" lon="4.94681">
        <ele>268.600006104</ele>
        <time>2015-11-11T10:39:30.987Z</time>
      </trkpt>
      <trkpt lat="45.89441" lon="4.94688">
        <ele>268.5</ele>
        <time>2015-11-11T10:39:31.971Z</time>
      </trkpt>
      <trkpt lat="45.89438" lon="4.94695">
        <ele>268.600006104</ele>
        <time>2015-11-11T10:39:33.115Z</time>
      </trkpt>
      <trkpt lat="45.89437" lon="4.94702">
        <ele>268.799987793</ele>
        <time>2015-11-11T10:39:33.972Z</time>
      </trkpt>
      <trkpt lat="45.89435" lon="4.9471">
        <ele>268.799987793</ele>
        <time>2015-11-11T10:39:34.987Z</time>
      </trkpt>
      <trkpt lat="45.89432" lon="4.94717">
        <ele>268.399993896</ele>
        <time>2015-11-11T10:39:35.971Z</time>
      </trkpt>
      <trkpt lat="45.8943" lon="4.94725">
        <ele>268.600006104</ele>
        <time>2015-11-11T10:39:36.986Z</time>
      </trkpt>
      <trkpt lat="45.89428" lon="4.94732">
        <ele>268.700012207</ele>
        <time>2015-11-11T10:39:37.974Z</time>
      </trkpt>
      <trkpt lat="45.89426" lon="4.9474">
        <ele>268.600006104</ele>
        <time>2015-11-11T10:39:38.99Z</time>
      </trkpt>
      <trkpt lat="45.89424" lon="4.94748">
        <ele>268.700012207</ele>
        <time>2015-11-11T10:39:39.974Z</time>
      </trkpt>
      <trkpt lat="45.89422" lon="4.94755">
        <ele>268.799987793</ele>
        <time>2015-11-11T10:39:41.002Z</time>
      </trkpt>
      <trkpt lat="45.89419" lon="4.94763">
        <ele>268.700012207</ele>
        <time>2015-11-11T10:39:41.971Z</time>
      </trkpt>
      <trkpt lat="45.89417" lon="4.94771">
        <ele>268.700012207</ele>
        <time>2015-11-11T10:39:42.986Z</time>
      </trkpt>
      <trkpt lat="45.89415" lon="4.94779">
        <ele>268.700012207</ele>
        <time>2015-11-11T10:39:43.971Z</time>
      </trkpt>
      <trkpt lat="45.89413" lon="4.94787">
        <ele>268.799987793</ele>
        <time>2015-11-11T10:39:44.999Z</time>
      </trkpt>
      <trkpt lat="45.89411" lon="4.94794">
        <ele>268.799987793</ele>
        <time>2015-11-11T10:39:45.971Z</time>
      </trkpt>
      <trkpt lat="45.89408" lon="4.94802">
        <ele>268.799987793</ele>
        <time>2015-11-11T10:39:47.097Z</time>
      </trkpt>
      <trkpt lat="45.89407" lon="4.94809">
        <ele>268.700012207</ele>
        <time>2015-11-11T10:39:47.973Z</time>
      </trkpt>
      <trkpt lat="45.89405" lon="4.94817">
        <ele>268.700012207</ele>
        <time>2015-11-11T10:39:48.985Z</time>
      </trkpt>
      <trkpt lat="45.89402" lon="4.94824">
        <ele>268.799987793</ele>
        <time>2015-11-11T10:39:49.971Z</time>
      </trkpt>
      <trkpt lat="45.894" lon="4.94832">
        <ele>268.899993896</ele>
        <time>2015-11-11T10:39:50.99Z</time>
      </trkpt>
      <trkpt lat="45.89398" lon="4.94839">
        <ele>268.799987793</ele>
        <time>2015-11-11T10:39:51.971Z</time>
      </trkpt>
      <trkpt lat="45.89395" lon="4.94847">
        <ele>268.799987793</ele>
        <time>2015-11-11T10:39:52.987Z</time>
      </trkpt>
      <trkpt lat="45.89393" lon="4.94854">
        <ele>268.799987793</ele>
        <time>2015-11-11T10:39:53.971Z</time>
      </trkpt>
      <trkpt lat="45.89391" lon="4.94862">
        <ele>268.899993896</ele>
        <time>2015-11-11T10:39:54.985Z</time>
      </trkpt>
      <trkpt lat="45.89388" lon="4.94871">
        <ele>268.899993896</ele>
        <time>2015-11-11T10:39:55.971Z</time>
      </trkpt>
      <trkpt lat="45.89386" lon="4.94878">
        <ele>268.899993896</ele>
        <time>2015-11-11T10:39:56.989Z</time>
      </trkpt>
      <trkpt lat="45.89384" lon="4.94886">
        <ele>269</ele>
        <time>2015-11-11T10:39:57.973Z</time>
      </trkpt>
      <trkpt lat="45.89381" lon="4.94894">
        <ele>268.899993896</ele>
        <time>2015-11-11T10:39:58.987Z</time>
      </trkpt>
      <trkpt lat="45.89379" lon="4.94902">
        <ele>268.700012207</ele>
        <time>2015-11-11T10:39:59.984Z</time>
      </trkpt>
      <trkpt lat="45.89377" lon="4.9491">
        <ele>268.899993896</ele>
        <time>2015-11-11T10:40:00.985Z</time>
      </trkpt>
      <trkpt lat="45.89375" lon="4.94917">
        <ele>268.899993896</ele>
        <time>2015-11-11T10:40:01.971Z</time>
      </trkpt>
      <trkpt lat="45.89372" lon="4.94925">
        <ele>269</ele>
        <time>2015-11-11T10:40:02.989Z</time>
      </trkpt>
      <trkpt lat="45.8937" lon="4.94933">
        <ele>269.100006104</ele>
        <time>2015-11-11T10:40:03.971Z</time>
      </trkpt>
      <trkpt lat="45.89368" lon="4.94941">
        <ele>269.100006104</ele>
        <time>2015-11-11T10:40:05.01Z</time>
      </trkpt>
      <trkpt lat="45.89365" lon="4.94949">
        <ele>269.200012207</ele>
        <time>2015-11-11T10:40:05.971Z</time>
      </trkpt>
      <trkpt lat="45.89363" lon="4.94957">
        <ele>269.399993896</ele>
        <time>2015-11-11T10:40:06.987Z</time>
      </trkpt>
      <trkpt lat="45.89361" lon="4.94965">
        <ele>269.399993896</ele>
        <time>2015-11-11T10:40:07.976Z</time>
      </trkpt>
      <trkpt lat="45.89359" lon="4.94973">
        <ele>269.5</ele>
        <time>2015-11-11T10:40:08.99Z</time>
      </trkpt>
      <trkpt lat="45.89356" lon="4.94981">
        <ele>269.5</ele>
        <time>2015-11-11T10:40:09.971Z</time>
      </trkpt>
      <trkpt lat="45.89354" lon="4.94989">
        <ele>269.799987793</ele>
        <time>2015-11-11T10:40:10.988Z</time>
      </trkpt>
      <trkpt lat="45.89351" lon="4.94997">
        <ele>269.799987793</ele>
        <time>2015-11-11T10:40:11.971Z</time>
      </trkpt>
      <trkpt lat="45.89349" lon="4.95004">
        <ele>269.899993896</ele>
        <time>2015-11-11T10:40:12.986Z</time>
      </trkpt>
      <trkpt lat="45.89347" lon="4.95011">
        <ele>270</ele>
        <time>2015-11-11T10:40:13.972Z</time>
      </trkpt>
      <trkpt lat="45.89345" lon="4.95018">
        <ele>270</ele>
        <time>2015-11-11T10:40:14.99Z</time>
      </trkpt>
      <trkpt lat="45.89343" lon="4.95025">
        <ele>270.100006104</ele>
        <time>2015-11-11T10:40:15.985Z</time>
      </trkpt>
      <trkpt lat="45.89341" lon="4.95032">
        <ele>270</ele>
        <time>2015-11-11T10:40:16.987Z</time>
      </trkpt>
      <trkpt lat="45.89338" lon="4.95039">
        <ele>270</ele>
        <time>2015-11-11T10:40:17.976Z</time>
      </trkpt>
      <trkpt lat="45.89336" lon="4.95046">
        <ele>269.899993896</ele>
        <time>2015-11-11T10:40:18.986Z</time>
      </trkpt>
      <trkpt lat="45.89334" lon="4.95053">
        <ele>269.899993896</ele>
        <time>2015-11-11T10:40:19.971Z</time>
      </trkpt>
      <trkpt lat="45.89333" lon="4.95061">
        <ele>269.799987793</ele>
        <time>2015-11-11T10:40:20.99Z</time>
      </trkpt>
      <trkpt lat="45.8933" lon="4.95068">
        <ele>269.799987793</ele>
        <time>2015-11-11T10:40:21.971Z</time>
      </trkpt>
      <trkpt lat="45.89328" lon="4.95075">
        <ele>269.799987793</ele>
        <time>2015-11-11T10:40:22.987Z</time>
      </trkpt>
      <trkpt lat="45.89326" lon="4.95083">
        <ele>269.799987793</ele>
        <time>2015-11-11T10:40:23.971Z</time>
      </trkpt>
      <trkpt lat="45.89324" lon="4.9509">
        <ele>269.799987793</ele>
        <time>2015-11-11T10:40:24.986Z</time>
      </trkpt>
      <trkpt lat="45.89322" lon="4.95098">
        <ele>269.700012207</ele>
        <time>2015-11-11T10:40:25.971Z</time>
      </trkpt>
      <trkpt lat="45.89319" lon="4.95105">
        <ele>269.700012207</ele>
        <time>2015-11-11T10:40:26.99Z</time>
      </trkpt>
      <trkpt lat="45.89317" lon="4.95113">
        <ele>269.799987793</ele>
        <time>2015-11-11T10:40:27.973Z</time>
      </trkpt>
      <trkpt lat="45.89315" lon="4.9512">
        <ele>269.899993896</ele>
        <time>2015-11-11T10:40:28.987Z</time>
      </trkpt>
      <trkpt lat="45.89314" lon="4.95127">
        <ele>270</ele>
        <time>2015-11-11T10:40:29.971Z</time>
      </trkpt>
      <trkpt lat="45.89312" lon="4.95134">
        <ele>270.200012207</ele>
        <time>2015-11-11T10:40:30.985Z</time>
      </trkpt>
      <trkpt lat="45.89311" lon="4.95142">
        <ele>270.299987793</ele>
        <time>2015-11-11T10:40:31.971Z</time>
      </trkpt>
      <trkpt lat="45.8931" lon="4.95149">
        <ele>270.399993896</ele>
        <time>2015-11-11T10:40:32.993Z</time>
      </trkpt>
      <trkpt lat="45.8931" lon="4.95156">
        <ele>270.600006104</ele>
        <time>2015-11-11T10:40:33.971Z</time>
      </trkpt>
      <trkpt lat="45.8931" lon="4.95164">
        <ele>270.799987793</ele>
        <time>2015-11-11T10:40:34.987Z</time>
      </trkpt>
      <trkpt lat="45.89311" lon="4.95171">
        <ele>271.100006104</ele>
        <time>2015-11-11T10:40:35.972Z</time>
      </trkpt>
      <trkpt lat="45.89312" lon="4.95178">
        <ele>271.200012207</ele>
        <time>2015-11-11T10:40:37Z</time>
      </trkpt>
      <trkpt lat="45.89314" lon="4.95185">
        <ele>271.399993896</ele>
        <time>2015-11-11T10:40:37.973Z</time>
      </trkpt>
      <trkpt lat="45.89316" lon="4.95192">
        <ele>271.399993896</ele>
        <time>2015-11-11T10:40:38.99Z</time>
      </trkpt>
      <trkpt lat="45.89318" lon="4.95199">
        <ele>271.600006104</ele>
        <time>2015-11-11T10:40:39.974Z</time>
      </trkpt>
      <trkpt lat="45.8932" lon="4.95206">
        <ele>271.899993896</ele>
        <time>2015-11-11T10:40:40.987Z</time>
      </trkpt>
      <trkpt lat="45.89322" lon="4.95213">
        <ele>271.700012207</ele>
        <time>2015-11-11T10:40:41.971Z</time>
      </trkpt>
      <trkpt lat="45.89324" lon="4.95221">
        <ele>271.799987793</ele>
        <time>2015-11-11T10:40:42.986Z</time>
      </trkpt>
      <trkpt lat="45.89325" lon="4.95228">
        <ele>271.899993896</ele>
        <time>2015-11-11T10:40:43.971Z</time>
      </trkpt>
      <trkpt lat="45.89327" lon="4.95236">
        <ele>271.899993896</ele>
        <time>2015-11-11T10:40:44.99Z</time>
      </trkpt>
      <trkpt lat="45.89329" lon="4.95243">
        <ele>271.899993896</ele>
        <time>2015-11-11T10:40:45.971Z</time>
      </trkpt>
      <trkpt lat="45.89331" lon="4.9525">
        <ele>271.899993896</ele>
        <time>2015-11-11T10:40:46.987Z</time>
      </trkpt>
      <trkpt lat="45.89332" lon="4.95258">
        <ele>271.899993896</ele>
        <time>2015-11-11T10:40:47.998Z</time>
      </trkpt>
      <trkpt lat="45.89334" lon="4.95265">
        <ele>271.899993896</ele>
        <time>2015-11-11T10:40:48.985Z</time>
      </trkpt>
      <trkpt lat="45.89335" lon="4.95273">
        <ele>272</ele>
        <time>2015-11-11T10:40:49.971Z</time>
      </trkpt>
      <trkpt lat="45.89338" lon="4.9528">
        <ele>272.100006104</ele>
        <time>2015-11-11T10:40:50.989Z</time>
      </trkpt>
      <trkpt lat="45.89339" lon="4.95286">
        <ele>272.5</ele>
        <time>2015-11-11T10:40:51.971Z</time>
      </trkpt>
      <trkpt lat="45.89341" lon="4.95293">
        <ele>272.799987793</ele>
        <time>2015-11-11T10:40:53.002Z</time>
      </trkpt>
      <trkpt lat="45.89342" lon="4.953">
        <ele>273.100006104</ele>
        <time>2015-11-11T10:40:53.971Z</time>
      </trkpt>
      <trkpt lat="45.89344" lon="4.95308">
        <ele>273.700012207</ele>
        <time>2015-11-11T10:40:54.986Z</time>
      </trkpt>
      <trkpt lat="45.89345" lon="4.95315">
        <ele>273.399993896</ele>
        <time>2015-11-11T10:40:55.971Z</time>
      </trkpt>
      <trkpt lat="45.89347" lon="4.95322">
        <ele>273.600006104</ele>
        <time>2015-11-11T10:40:56.989Z</time>
      </trkpt>
      <trkpt lat="45.89349" lon="4.95329">
        <ele>273.799987793</ele>
        <time>2015-11-11T10:40:57.979Z</time>
      </trkpt>
      <trkpt lat="45.8935" lon="4.95336">
        <ele>273.899993896</ele>
        <time>2015-11-11T10:40:58.99Z</time>
      </trkpt>
      <trkpt lat="45.89352" lon="4.95342">
        <ele>273.799987793</ele>
        <time>2015-11-11T10:41:00.016Z</time>
      </trkpt>
      <trkpt lat="45.89354" lon="4.95349">
        <ele>274</ele>
        <time>2015-11-11T10:41:00.985Z</time>
      </trkpt>
      <trkpt lat="45.89355" lon="4.95356">
        <ele>273.899993896</ele>
        <time>2015-11-11T10:41:01.971Z</time>
      </trkpt>
      <trkpt lat="45.89357" lon="4.95364">
        <ele>273.899993896</ele>
        <time>2015-11-11T10:41:02.989Z</time>
      </trkpt>
      <trkpt lat="45.89358" lon="4.95371">
        <ele>273.899993896</ele>
        <time>2015-11-11T10:41:03.972Z</time>
      </trkpt>
      <trkpt lat="45.8936" lon="4.95378">
        <ele>274.100006104</ele>
        <time>2015-11-11T10:41:04.987Z</time>
      </trkpt>
      <trkpt lat="45.89362" lon="4.95385">
        <ele>274</ele>
        <time>2015-11-11T10:41:05.971Z</time>
      </trkpt>
      <trkpt lat="45.89364" lon="4.95391">
        <ele>273.899993896</ele>
        <time>2015-11-11T10:41:06.986Z</time>
      </trkpt>
      <trkpt lat="45.89366" lon="4.95398">
        <ele>274.100006104</ele>
        <time>2015-11-11T10:41:07.974Z</time>
      </trkpt>
      <trkpt lat="45.89367" lon="4.95405">
        <ele>273.899993896</ele>
        <time>2015-11-11T10:41:09.006Z</time>
      </trkpt>
      <trkpt lat="45.89369" lon="4.95413">
        <ele>273.5</ele>
        <time>2015-11-11T10:41:09.972Z</time>
      </trkpt>
      <trkpt lat="45.89371" lon="4.9542">
        <ele>273.5</ele>
        <time>2015-11-11T10:41:10.987Z</time>
      </trkpt>
      <trkpt lat="45.89372" lon="4.95427">
        <ele>273.100006104</ele>
        <time>2015-11-11T10:41:11.971Z</time>
      </trkpt>
      <trkpt lat="45.89374" lon="4.95434">
        <ele>273.200012207</ele>
        <time>2015-11-11T10:41:12.986Z</time>
      </trkpt>
      <trkpt lat="45.89375" lon="4.95441">
        <ele>273.100006104</ele>
        <time>2015-11-11T10:41:13.971Z</time>
      </trkpt>
      <trkpt lat="45.89377" lon="4.95448">
        <ele>273.100006104</ele>
        <time>2015-11-11T10:41:14.989Z</time>
      </trkpt>
      <trkpt lat="45.89378" lon="4.95455">
        <ele>273.5</ele>
        <time>2015-11-11T10:41:15.972Z</time>
      </trkpt>
      <trkpt lat="45.8938" lon="4.95461">
        <ele>273.600006104</ele>
        <time>2015-11-11T10:41:16.986Z</time>
      </trkpt>
      <trkpt lat="45.89382" lon="4.95468">
        <ele>273.700012207</ele>
        <time>2015-11-11T10:41:17.979Z</time>
      </trkpt>
      <trkpt lat="45.89383" lon="4.95474">
        <ele>273.700012207</ele>
        <time>2015-11-11T10:41:18.985Z</time>
      </trkpt>
      <trkpt lat="45.89385" lon="4.95481">
        <ele>273.700012207</ele>
        <time>2015-11-11T10:41:19.971Z</time>
      </trkpt>
      <trkpt lat="45.89386" lon="4.95487">
        <ele>273.799987793</ele>
        <time>2015-11-11T10:41:20.989Z</time>
      </trkpt>
      <trkpt lat="45.89387" lon="4.95494">
        <ele>273.799987793</ele>
        <time>2015-11-11T10:41:21.971Z</time>
      </trkpt>
      <trkpt lat="45.89388" lon="4.955">
        <ele>273.399993896</ele>
        <time>2015-11-11T10:41:22.987Z</time>
      </trkpt>
      <trkpt lat="45.8939" lon="4.95507">
        <ele>273.200012207</ele>
        <time>2015-11-11T10:41:23.971Z</time>
      </trkpt>
      <trkpt lat="45.89391" lon="4.95513">
        <ele>272.700012207</ele>
        <time>2015-11-11T10:41:24.999Z</time>
      </trkpt>
      <trkpt lat="45.89393" lon="4.9552">
        <ele>272.600006104</ele>
        <time>2015-11-11T10:41:25.971Z</time>
      </trkpt>
      <trkpt lat="45.89394" lon="4.95526">
        <ele>272.299987793</ele>
        <time>2015-11-11T10:41:26.989Z</time>
      </trkpt>
      <trkpt lat="45.89395" lon="4.95532">
        <ele>272.200012207</ele>
        <time>2015-11-11T10:41:27.976Z</time>
      </trkpt>
      <trkpt lat="45.89397" lon="4.95539">
        <ele>272.399993896</ele>
        <time>2015-11-11T10:41:29.102Z</time>
      </trkpt>
      <trkpt lat="45.89398" lon="4.95545">
        <ele>272.5</ele>
        <time>2015-11-11T10:41:29.972Z</time>
      </trkpt>
      <trkpt lat="45.894" lon="4.95551">
        <ele>272.799987793</ele>
        <time>2015-11-11T10:41:30.985Z</time>
      </trkpt>
      <trkpt lat="45.89401" lon="4.95557">
        <ele>272.799987793</ele>
        <time>2015-11-11T10:41:31.971Z</time>
      </trkpt>
      <trkpt lat="45.89404" lon="4.95569">
        <ele>273.200012207</ele>
        <time>2015-11-11T10:41:33.986Z</time>
      </trkpt>
      <trkpt lat="45.89405" lon="4.95575">
        <ele>273.299987793</ele>
        <time>2015-11-11T10:41:34.975Z</time>
      </trkpt>
      <trkpt lat="45.89407" lon="4.95581">
        <ele>273.299987793</ele>
        <time>2015-11-11T10:41:35.986Z</time>
      </trkpt>
      <trkpt lat="45.89408" lon="4.95588">
        <ele>273.200012207</ele>
        <time>2015-11-11T10:41:36.971Z</time>
      </trkpt>
      <trkpt lat="45.89409" lon="4.95594">
        <ele>273.399993896</ele>
        <time>2015-11-11T10:41:38.003Z</time>
      </trkpt>
      <trkpt lat="45.89411" lon="4.956">
        <ele>273.5</ele>
        <time>2015-11-11T10:41:38.975Z</time>
      </trkpt>
      <trkpt lat="45.89412" lon="4.95606">
        <ele>273.100006104</ele>
        <time>2015-11-11T10:41:39.988Z</time>
      </trkpt>
      <trkpt lat="45.89414" lon="4.95613">
        <ele>273.200012207</ele>
        <time>2015-11-11T10:41:40.985Z</time>
      </trkpt>
      <trkpt lat="45.89415" lon="4.95619">
        <ele>273.200012207</ele>
        <time>2015-11-11T10:41:41.986Z</time>
      </trkpt>
      <trkpt lat="45.89417" lon="4.95626">
        <ele>273.399993896</ele>
        <time>2015-11-11T10:41:42.971Z</time>
      </trkpt>
      <trkpt lat="45.89419" lon="4.95633">
        <ele>273.799987793</ele>
        <time>2015-11-11T10:41:43.985Z</time>
      </trkpt>
      <trkpt lat="45.8942" lon="4.9564">
        <ele>273.799987793</ele>
        <time>2015-11-11T10:41:44.975Z</time>
      </trkpt>
      <trkpt lat="45.89422" lon="4.95646">
        <ele>273.799987793</ele>
        <time>2015-11-11T10:41:45.985Z</time>
      </trkpt>
      <trkpt lat="45.89423" lon="4.95653">
        <ele>273.899993896</ele>
        <time>2015-11-11T10:41:46.972Z</time>
      </trkpt>
      <trkpt lat="45.89424" lon="4.9566">
        <ele>274.100006104</ele>
        <time>2015-11-11T10:41:48.003Z</time>
      </trkpt>
      <trkpt lat="45.89426" lon="4.95666">
        <ele>274.299987793</ele>
        <time>2015-11-11T10:41:48.971Z</time>
      </trkpt>
      <trkpt lat="45.89427" lon="4.95672">
        <ele>274.5</ele>
        <time>2015-11-11T10:41:49.985Z</time>
      </trkpt>
      <trkpt lat="45.89428" lon="4.95678">
        <ele>274.5</ele>
        <time>2015-11-11T10:41:50.975Z</time>
      </trkpt>
      <trkpt lat="45.89431" lon="4.9569">
        <ele>274.100006104</ele>
        <time>2015-11-11T10:41:52.986Z</time>
      </trkpt>
      <trkpt lat="45.89432" lon="4.95697">
        <ele>274</ele>
        <time>2015-11-11T10:41:53.971Z</time>
      </trkpt>
      <trkpt lat="45.89434" lon="4.95703">
        <ele>274.100006104</ele>
        <time>2015-11-11T10:41:54.985Z</time>
      </trkpt>
      <trkpt lat="45.89435" lon="4.95709">
        <ele>274.200012207</ele>
        <time>2015-11-11T10:41:55.971Z</time>
      </trkpt>
      <trkpt lat="45.89436" lon="4.95716">
        <ele>274</ele>
        <time>2015-11-11T10:41:56.996Z</time>
      </trkpt>
      <trkpt lat="45.89437" lon="4.95722">
        <ele>273.799987793</ele>
        <time>2015-11-11T10:41:57.973Z</time>
      </trkpt>
      <trkpt lat="45.89439" lon="4.95728">
        <ele>273.700012207</ele>
        <time>2015-11-11T10:41:58.987Z</time>
      </trkpt>
      <trkpt lat="45.8944" lon="4.95735">
        <ele>273.700012207</ele>
        <time>2015-11-11T10:41:59.971Z</time>
      </trkpt>
      <trkpt lat="45.89441" lon="4.95741">
        <ele>273.5</ele>
        <time>2015-11-11T10:42:00.988Z</time>
      </trkpt>
      <trkpt lat="45.89443" lon="4.95748">
        <ele>273</ele>
        <time>2015-11-11T10:42:01.971Z</time>
      </trkpt>
      <trkpt lat="45.89444" lon="4.95754">
        <ele>272.899993896</ele>
        <time>2015-11-11T10:42:02.99Z</time>
      </trkpt>
      <trkpt lat="45.89446" lon="4.95761">
        <ele>272.799987793</ele>
        <time>2015-11-11T10:42:03.971Z</time>
      </trkpt>
      <trkpt lat="45.89447" lon="4.95767">
        <ele>272.799987793</ele>
        <time>2015-11-11T10:42:04.987Z</time>
      </trkpt>
      <trkpt lat="45.89449" lon="4.95773">
        <ele>272.799987793</ele>
        <time>2015-11-11T10:42:05.971Z</time>
      </trkpt>
      <trkpt lat="45.8945" lon="4.9578">
        <ele>272.899993896</ele>
        <time>2015-11-11T10:42:06.985Z</time>
      </trkpt>
      <trkpt lat="45.89451" lon="4.95786">
        <ele>272.899993896</ele>
        <time>2015-11-11T10:42:07.973Z</time>
      </trkpt>
      <trkpt lat="45.89453" lon="4.95793">
        <ele>272.5</ele>
        <time>2015-11-11T10:42:08.989Z</time>
      </trkpt>
      <trkpt lat="45.89454" lon="4.95799">
        <ele>272.700012207</ele>
        <time>2015-11-11T10:42:09.971Z</time>
      </trkpt>
      <trkpt lat="45.89456" lon="4.95805">
        <ele>273.200012207</ele>
        <time>2015-11-11T10:42:10.986Z</time>
      </trkpt>
      <trkpt lat="45.89457" lon="4.95812">
        <ele>273.600006104</ele>
        <time>2015-11-11T10:42:11.971Z</time>
      </trkpt>
      <trkpt lat="45.89458" lon="4.95819">
        <ele>273.799987793</ele>
        <time>2015-11-11T10:42:13.11Z</time>
      </trkpt>
      <trkpt lat="45.8946" lon="4.95826">
        <ele>273.700012207</ele>
        <time>2015-11-11T10:42:13.971Z</time>
      </trkpt>
      <trkpt lat="45.89461" lon="4.95832">
        <ele>274.100006104</ele>
        <time>2015-11-11T10:42:14.989Z</time>
      </trkpt>
      <trkpt lat="45.89463" lon="4.95839">
        <ele>274.299987793</ele>
        <time>2015-11-11T10:42:15.971Z</time>
      </trkpt>
      <trkpt lat="45.89464" lon="4.95846">
        <ele>274.5</ele>
        <time>2015-11-11T10:42:16.986Z</time>
      </trkpt>
      <trkpt lat="45.89465" lon="4.95853">
        <ele>274.700012207</ele>
        <time>2015-11-11T10:42:17.973Z</time>
      </trkpt>
      <trkpt lat="45.89467" lon="4.9586">
        <ele>274.700012207</ele>
        <time>2015-11-11T10:42:18.986Z</time>
      </trkpt>
      <trkpt lat="45.89468" lon="4.95866">
        <ele>274.899993896</ele>
        <time>2015-11-11T10:42:19.971Z</time>
      </trkpt>
      <trkpt lat="45.89469" lon="4.95873">
        <ele>274.5</ele>
        <time>2015-11-11T10:42:20.989Z</time>
      </trkpt>
      <trkpt lat="45.8947" lon="4.95879">
        <ele>274.600006104</ele>
        <time>2015-11-11T10:42:21.971Z</time>
      </trkpt>
      <trkpt lat="45.89472" lon="4.95886">
        <ele>274.600006104</ele>
        <time>2015-11-11T10:42:22.987Z</time>
      </trkpt>
      <trkpt lat="45.89473" lon="4.95892">
        <ele>274.899993896</ele>
        <time>2015-11-11T10:42:23.984Z</time>
      </trkpt>
      <trkpt lat="45.89474" lon="4.95898">
        <ele>275</ele>
        <time>2015-11-11T10:42:24.985Z</time>
      </trkpt>
      <trkpt lat="45.89475" lon="4.95905">
        <ele>275.299987793</ele>
        <time>2015-11-11T10:42:25.971Z</time>
      </trkpt>
      <trkpt lat="45.89477" lon="4.95917">
        <ele>275.399993896</ele>
        <time>2015-11-11T10:42:28.002Z</time>
      </trkpt>
      <trkpt lat="45.89477" lon="4.95923">
        <ele>275.299987793</ele>
        <time>2015-11-11T10:42:28.972Z</time>
      </trkpt>
      <trkpt lat="45.89478" lon="4.9593">
        <ele>275.100006104</ele>
        <time>2015-11-11T10:42:29.985Z</time>
      </trkpt>
      <trkpt lat="45.89479" lon="4.95937">
        <ele>275.200012207</ele>
        <time>2015-11-11T10:42:30.971Z</time>
      </trkpt>
      <trkpt lat="45.8948" lon="4.95943">
        <ele>275.399993896</ele>
        <time>2015-11-11T10:42:31.985Z</time>
      </trkpt>
      <trkpt lat="45.8948" lon="4.9595">
        <ele>275.399993896</ele>
        <time>2015-11-11T10:42:32.975Z</time>
      </trkpt>
      <trkpt lat="45.89481" lon="4.95957">
        <ele>275.399993896</ele>
        <time>2015-11-11T10:42:33.985Z</time>
      </trkpt>
      <trkpt lat="45.89482" lon="4.95964">
        <ele>275.600006104</ele>
        <time>2015-11-11T10:42:34.972Z</time>
      </trkpt>
      <trkpt lat="45.89482" lon="4.95971">
        <ele>275.799987793</ele>
        <time>2015-11-11T10:42:35.989Z</time>
      </trkpt>
      <trkpt lat="45.89483" lon="4.95978">
        <ele>275.799987793</ele>
        <time>2015-11-11T10:42:36.971Z</time>
      </trkpt>
      <trkpt lat="45.89484" lon="4.95984">
        <ele>275.799987793</ele>
        <time>2015-11-11T10:42:37.992Z</time>
      </trkpt>
      <trkpt lat="45.89485" lon="4.95991">
        <ele>275.799987793</ele>
        <time>2015-11-11T10:42:38.974Z</time>
      </trkpt>
      <trkpt lat="45.89485" lon="4.95997">
        <ele>276.100006104</ele>
        <time>2015-11-11T10:42:40.002Z</time>
      </trkpt>
      <trkpt lat="45.89485" lon="4.96004">
        <ele>276.200012207</ele>
        <time>2015-11-11T10:42:40.972Z</time>
      </trkpt>
      <trkpt lat="45.89486" lon="4.96011">
        <ele>276.100006104</ele>
        <time>2015-11-11T10:42:41.985Z</time>
      </trkpt>
      <trkpt lat="45.89486" lon="4.96018">
        <ele>276.100006104</ele>
        <time>2015-11-11T10:42:42.971Z</time>
      </trkpt>
      <trkpt lat="45.89486" lon="4.96025">
        <ele>276.299987793</ele>
        <time>2015-11-11T10:42:43.985Z</time>
      </trkpt>
      <trkpt lat="45.89486" lon="4.96032">
        <ele>276.600006104</ele>
        <time>2015-11-11T10:42:44.974Z</time>
      </trkpt>
      <trkpt lat="45.89486" lon="4.96039">
        <ele>276.5</ele>
        <time>2015-11-11T10:42:45.985Z</time>
      </trkpt>
      <trkpt lat="45.89486" lon="4.96046">
        <ele>276.600006104</ele>
        <time>2015-11-11T10:42:46.973Z</time>
      </trkpt>
      <trkpt lat="45.89486" lon="4.96053">
        <ele>276.700012207</ele>
        <time>2015-11-11T10:42:47.991Z</time>
      </trkpt>
      <trkpt lat="45.89485" lon="4.96061">
        <ele>276.799987793</ele>
        <time>2015-11-11T10:42:48.971Z</time>
      </trkpt>
      <trkpt lat="45.89485" lon="4.96068">
        <ele>277.100006104</ele>
        <time>2015-11-11T10:42:49.985Z</time>
      </trkpt>
      <trkpt lat="45.89485" lon="4.96076">
        <ele>277</ele>
        <time>2015-11-11T10:42:50.974Z</time>
      </trkpt>
      <trkpt lat="45.89485" lon="4.96083">
        <ele>277</ele>
        <time>2015-11-11T10:42:51.985Z</time>
      </trkpt>
      <trkpt lat="45.89485" lon="4.9609">
        <ele>277</ele>
        <time>2015-11-11T10:42:52.975Z</time>
      </trkpt>
      <trkpt lat="45.89485" lon="4.96098">
        <ele>277.299987793</ele>
        <time>2015-11-11T10:42:53.986Z</time>
      </trkpt>
      <trkpt lat="45.89485" lon="4.96105">
        <ele>277.5</ele>
        <time>2015-11-11T10:42:54.971Z</time>
      </trkpt>
      <trkpt lat="45.89485" lon="4.96112">
        <ele>277.5</ele>
        <time>2015-11-11T10:42:56.001Z</time>
      </trkpt>
      <trkpt lat="45.89485" lon="4.96119">
        <ele>277.799987793</ele>
        <time>2015-11-11T10:42:56.974Z</time>
      </trkpt>
      <trkpt lat="45.89486" lon="4.96126">
        <ele>277.600006104</ele>
        <time>2015-11-11T10:42:57.991Z</time>
      </trkpt>
      <trkpt lat="45.89486" lon="4.96132">
        <ele>277.899993896</ele>
        <time>2015-11-11T10:42:58.972Z</time>
      </trkpt>
      <trkpt lat="45.89487" lon="4.96139">
        <ele>278</ele>
        <time>2015-11-11T10:42:59.985Z</time>
      </trkpt>
      <trkpt lat="45.89488" lon="4.96145">
        <ele>278</ele>
        <time>2015-11-11T10:43:00.971Z</time>
      </trkpt>
      <trkpt lat="45.8949" lon="4.96158">
        <ele>278.100006104</ele>
        <time>2015-11-11T10:43:02.988Z</time>
      </trkpt>
      <trkpt lat="45.89491" lon="4.96164">
        <ele>278.200012207</ele>
        <time>2015-11-11T10:43:03.971Z</time>
      </trkpt>
      <trkpt lat="45.89492" lon="4.9617">
        <ele>278.299987793</ele>
        <time>2015-11-11T10:43:05.032Z</time>
      </trkpt>
      <trkpt lat="45.89493" lon="4.96177">
        <ele>278.399993896</ele>
        <time>2015-11-11T10:43:05.971Z</time>
      </trkpt>
      <trkpt lat="45.89494" lon="4.96184">
        <ele>278.5</ele>
        <time>2015-11-11T10:43:06.985Z</time>
      </trkpt>
      <trkpt lat="45.89495" lon="4.9619">
        <ele>278.5</ele>
        <time>2015-11-11T10:43:07.971Z</time>
      </trkpt>
      <trkpt lat="45.89497" lon="4.96196">
        <ele>279</ele>
        <time>2015-11-11T10:43:08.988Z</time>
      </trkpt>
      <trkpt lat="45.89498" lon="4.96202">
        <ele>278.799987793</ele>
        <time>2015-11-11T10:43:09.976Z</time>
      </trkpt>
      <trkpt lat="45.89501" lon="4.96214">
        <ele>279.100006104</ele>
        <time>2015-11-11T10:43:11.985Z</time>
      </trkpt>
      <trkpt lat="45.89503" lon="4.96219">
        <ele>279.399993896</ele>
        <time>2015-11-11T10:43:12.971Z</time>
      </trkpt>
      <trkpt lat="45.89506" lon="4.9623">
        <ele>280</ele>
        <time>2015-11-11T10:43:14.989Z</time>
      </trkpt>
      <trkpt lat="45.89508" lon="4.96236">
        <ele>280.200012207</ele>
        <time>2015-11-11T10:43:15.971Z</time>
      </trkpt>
      <trkpt lat="45.89512" lon="4.96246">
        <ele>280.100006104</ele>
        <time>2015-11-11T10:43:17.986Z</time>
      </trkpt>
      <trkpt lat="45.89514" lon="4.96252">
        <ele>280.399993896</ele>
        <time>2015-11-11T10:43:18.974Z</time>
      </trkpt>
      <trkpt lat="45.89518" lon="4.96262">
        <ele>281</ele>
        <time>2015-11-11T10:43:20.988Z</time>
      </trkpt>
      <trkpt lat="45.89519" lon="4.96267">
        <ele>281.299987793</ele>
        <time>2015-11-11T10:43:21.971Z</time>
      </trkpt>
      <trkpt lat="45.89523" lon="4.96277">
        <ele>281.600006104</ele>
        <time>2015-11-11T10:43:24.008Z</time>
      </trkpt>
      <trkpt lat="45.89525" lon="4.96282">
        <ele>281.299987793</ele>
        <time>2015-11-11T10:43:24.971Z</time>
      </trkpt>
      <trkpt lat="45.89527" lon="4.96288">
        <ele>280.899993896</ele>
        <time>2015-11-11T10:43:25.986Z</time>
      </trkpt>
      <trkpt lat="45.8953" lon="4.96294">
        <ele>280.899993896</ele>
        <time>2015-11-11T10:43:26.974Z</time>
      </trkpt>
      <trkpt lat="45.89532" lon="4.963">
        <ele>280.899993896</ele>
        <time>2015-11-11T10:43:27.985Z</time>
      </trkpt>
      <trkpt lat="45.89534" lon="4.96307">
        <ele>281.100006104</ele>
        <time>2015-11-11T10:43:28.972Z</time>
      </trkpt>
      <trkpt lat="45.89536" lon="4.96313">
        <ele>281.200012207</ele>
        <time>2015-11-11T10:43:29.992Z</time>
      </trkpt>
      <trkpt lat="45.89539" lon="4.96319">
        <ele>280.799987793</ele>
        <time>2015-11-11T10:43:30.973Z</time>
      </trkpt>
      <trkpt lat="45.89541" lon="4.96325">
        <ele>280.5</ele>
        <time>2015-11-11T10:43:31.987Z</time>
      </trkpt>
      <trkpt lat="45.89544" lon="4.96331">
        <ele>280.200012207</ele>
        <time>2015-11-11T10:43:32.976Z</time>
      </trkpt>
      <trkpt lat="45.89546" lon="4.96337">
        <ele>280.100006104</ele>
        <time>2015-11-11T10:43:33.987Z</time>
      </trkpt>
      <trkpt lat="45.89548" lon="4.96343">
        <ele>279.5</ele>
        <time>2015-11-11T10:43:34.973Z</time>
      </trkpt>
      <trkpt lat="45.89551" lon="4.96349">
        <ele>279.600006104</ele>
        <time>2015-11-11T10:43:35.985Z</time>
      </trkpt>
      <trkpt lat="45.89553" lon="4.96355">
        <ele>279.700012207</ele>
        <time>2015-11-11T10:43:36.972Z</time>
      </trkpt>
      <trkpt lat="45.89555" lon="4.96361">
        <ele>279.600006104</ele>
        <time>2015-11-11T10:43:38.009Z</time>
      </trkpt>
      <trkpt lat="45.89557" lon="4.96367">
        <ele>279.600006104</ele>
        <time>2015-11-11T10:43:38.974Z</time>
      </trkpt>
      <trkpt lat="45.8956" lon="4.96374">
        <ele>279.700012207</ele>
        <time>2015-11-11T10:43:39.988Z</time>
      </trkpt>
      <trkpt lat="45.89561" lon="4.9638">
        <ele>279.700012207</ele>
        <time>2015-11-11T10:43:41.009Z</time>
      </trkpt>
      <trkpt lat="45.89563" lon="4.96386">
        <ele>279.299987793</ele>
        <time>2015-11-11T10:43:41.986Z</time>
      </trkpt>
      <trkpt lat="45.89565" lon="4.96392">
        <ele>279.100006104</ele>
        <time>2015-11-11T10:43:42.972Z</time>
      </trkpt>
      <trkpt lat="45.89568" lon="4.96403">
        <ele>279.100006104</ele>
        <time>2015-11-11T10:43:44.991Z</time>
      </trkpt>
      <trkpt lat="45.8957" lon="4.96409">
        <ele>279.399993896</ele>
        <time>2015-11-11T10:43:45.971Z</time>
      </trkpt>
      <trkpt lat="45.89572" lon="4.96415">
        <ele>279.5</ele>
        <time>2015-11-11T10:43:46.986Z</time>
      </trkpt>
      <trkpt lat="45.89574" lon="4.9642">
        <ele>279.399993896</ele>
        <time>2015-11-11T10:43:47.971Z</time>
      </trkpt>
      <trkpt lat="45.89578" lon="4.96432">
        <ele>279.399993896</ele>
        <time>2015-11-11T10:43:49.985Z</time>
      </trkpt>
      <trkpt lat="45.8958" lon="4.96437">
        <ele>279.5</ele>
        <time>2015-11-11T10:43:50.974Z</time>
      </trkpt>
      <trkpt lat="45.89582" lon="4.96444">
        <ele>279.600006104</ele>
        <time>2015-11-11T10:43:51.985Z</time>
      </trkpt>
      <trkpt lat="45.89584" lon="4.9645">
        <ele>279.899993896</ele>
        <time>2015-11-11T10:43:52.972Z</time>
      </trkpt>
      <trkpt lat="45.89587" lon="4.96462">
        <ele>280.5</ele>
        <time>2015-11-11T10:43:54.985Z</time>
      </trkpt>
      <trkpt lat="45.89588" lon="4.96467">
        <ele>280.700012207</ele>
        <time>2015-11-11T10:43:55.971Z</time>
      </trkpt>
      <trkpt lat="45.89592" lon="4.96479">
        <ele>280.700012207</ele>
        <time>2015-11-11T10:43:57.985Z</time>
      </trkpt>
      <trkpt lat="45.89594" lon="4.96484">
        <ele>280.799987793</ele>
        <time>2015-11-11T10:43:58.973Z</time>
      </trkpt>
      <trkpt lat="45.89598" lon="4.96495">
        <ele>280.899993896</ele>
        <time>2015-11-11T10:44:00.987Z</time>
      </trkpt>
      <trkpt lat="45.89599" lon="4.96501">
        <ele>281.100006104</ele>
        <time>2015-11-11T10:44:01.971Z</time>
      </trkpt>
      <trkpt lat="45.89601" lon="4.96507">
        <ele>281.299987793</ele>
        <time>2015-11-11T10:44:03.018Z</time>
      </trkpt>
      <trkpt lat="45.89602" lon="4.96513">
        <ele>281.399993896</ele>
        <time>2015-11-11T10:44:03.971Z</time>
      </trkpt>
      <trkpt lat="45.89604" lon="4.9652">
        <ele>281.600006104</ele>
        <time>2015-11-11T10:44:04.986Z</time>
      </trkpt>
      <trkpt lat="45.89605" lon="4.96526">
        <ele>281.899993896</ele>
        <time>2015-11-11T10:44:05.971Z</time>
      </trkpt>
      <trkpt lat="45.89607" lon="4.96532">
        <ele>282</ele>
        <time>2015-11-11T10:44:06.985Z</time>
      </trkpt>
      <trkpt lat="45.89609" lon="4.96538">
        <ele>281.899993896</ele>
        <time>2015-11-11T10:44:07.971Z</time>
      </trkpt>
      <trkpt lat="45.89613" lon="4.9655">
        <ele>281.799987793</ele>
        <time>2015-11-11T10:44:09.999Z</time>
      </trkpt>
      <trkpt lat="45.89615" lon="4.96555">
        <ele>281.700012207</ele>
        <time>2015-11-11T10:44:10.975Z</time>
      </trkpt>
      <trkpt lat="45.89618" lon="4.96567">
        <ele>281.799987793</ele>
        <time>2015-11-11T10:44:12.995Z</time>
      </trkpt>
      <trkpt lat="45.89619" lon="4.96573">
        <ele>281.899993896</ele>
        <time>2015-11-11T10:44:13.971Z</time>
      </trkpt>
      <trkpt lat="45.89622" lon="4.96585">
        <ele>282</ele>
        <time>2015-11-11T10:44:15.986Z</time>
      </trkpt>
      <trkpt lat="45.89623" lon="4.96591">
        <ele>282</ele>
        <time>2015-11-11T10:44:16.973Z</time>
      </trkpt>
      <trkpt lat="45.89626" lon="4.96603">
        <ele>282</ele>
        <time>2015-11-11T10:44:18.985Z</time>
      </trkpt>
      <trkpt lat="45.89626" lon="4.96609">
        <ele>281.899993896</ele>
        <time>2015-11-11T10:44:19.971Z</time>
      </trkpt>
      <trkpt lat="45.89628" lon="4.96616">
        <ele>282.200012207</ele>
        <time>2015-11-11T10:44:20.988Z</time>
      </trkpt>
      <trkpt lat="45.89629" lon="4.96622">
        <ele>282.399993896</ele>
        <time>2015-11-11T10:44:21.971Z</time>
      </trkpt>
      <trkpt lat="45.89632" lon="4.96634">
        <ele>282.700012207</ele>
        <time>2015-11-11T10:44:23.985Z</time>
      </trkpt>
      <trkpt lat="45.89633" lon="4.9664">
        <ele>283.100006104</ele>
        <time>2015-11-11T10:44:24.971Z</time>
      </trkpt>
      <trkpt lat="45.89634" lon="4.96652">
        <ele>283.399993896</ele>
        <time>2015-11-11T10:44:26.988Z</time>
      </trkpt>
      <trkpt lat="45.89635" lon="4.96658">
        <ele>283.5</ele>
        <time>2015-11-11T10:44:27.971Z</time>
      </trkpt>
      <trkpt lat="45.89636" lon="4.9667">
        <ele>283.700012207</ele>
        <time>2015-11-11T10:44:29.986Z</time>
      </trkpt>
      <trkpt lat="45.89636" lon="4.96676">
        <ele>283.799987793</ele>
        <time>2015-11-11T10:44:30.971Z</time>
      </trkpt>
      <trkpt lat="45.89635" lon="4.96689">
        <ele>283.899993896</ele>
        <time>2015-11-11T10:44:32.988Z</time>
      </trkpt>
      <trkpt lat="45.89634" lon="4.96694">
        <ele>284.200012207</ele>
        <time>2015-11-11T10:44:33.993Z</time>
      </trkpt>
      <trkpt lat="45.89632" lon="4.967">
        <ele>284.5</ele>
        <time>2015-11-11T10:44:34.986Z</time>
      </trkpt>
      <trkpt lat="45.89631" lon="4.96706">
        <ele>284.5</ele>
        <time>2015-11-11T10:44:35.971Z</time>
      </trkpt>
      <trkpt lat="45.8963" lon="4.96713">
        <ele>284.600006104</ele>
        <time>2015-11-11T10:44:36.987Z</time>
      </trkpt>
      <trkpt lat="45.89629" lon="4.96719">
        <ele>284.5</ele>
        <time>2015-11-11T10:44:37.971Z</time>
      </trkpt>
      <trkpt lat="45.89626" lon="4.96731">
        <ele>284.299987793</ele>
        <time>2015-11-11T10:44:39.987Z</time>
      </trkpt>
      <trkpt lat="45.89624" lon="4.96735">
        <ele>284.399993896</ele>
        <time>2015-11-11T10:44:40.972Z</time>
      </trkpt>
      <trkpt lat="45.89622" lon="4.96746">
        <ele>284.600006104</ele>
        <time>2015-11-11T10:44:42.985Z</time>
      </trkpt>
      <trkpt lat="45.89621" lon="4.96751">
        <ele>284.899993896</ele>
        <time>2015-11-11T10:44:43.971Z</time>
      </trkpt>
      <trkpt lat="45.89618" lon="4.96761">
        <ele>285.299987793</ele>
        <time>2015-11-11T10:44:45.985Z</time>
      </trkpt>
      <trkpt lat="45.89616" lon="4.96767">
        <ele>285.5</ele>
        <time>2015-11-11T10:44:46.972Z</time>
      </trkpt>
      <trkpt lat="45.89614" lon="4.96779">
        <ele>285.5</ele>
        <time>2015-11-11T10:44:48.985Z</time>
      </trkpt>
      <trkpt lat="45.89612" lon="4.96785">
        <ele>286</ele>
        <time>2015-11-11T10:44:49.971Z</time>
      </trkpt>
      <trkpt lat="45.89611" lon="4.96791">
        <ele>286.100006104</ele>
        <time>2015-11-11T10:44:50.988Z</time>
      </trkpt>
      <trkpt lat="45.89609" lon="4.96797">
        <ele>286.399993896</ele>
        <time>2015-11-11T10:44:51.971Z</time>
      </trkpt>
      <trkpt lat="45.89607" lon="4.96808">
        <ele>287.100006104</ele>
        <time>2015-11-11T10:44:53.985Z</time>
      </trkpt>
      <trkpt lat="45.89605" lon="4.96814">
        <ele>287.299987793</ele>
        <time>2015-11-11T10:44:54.971Z</time>
      </trkpt>
      <trkpt lat="45.89604" lon="4.9682">
        <ele>287.600006104</ele>
        <time>2015-11-11T10:44:55.985Z</time>
      </trkpt>
      <trkpt lat="45.89602" lon="4.96826">
        <ele>287.700012207</ele>
        <time>2015-11-11T10:44:56.974Z</time>
      </trkpt>
      <trkpt lat="45.896" lon="4.96833">
        <ele>287.899993896</ele>
        <time>2015-11-11T10:44:58.008Z</time>
      </trkpt>
      <trkpt lat="45.89599" lon="4.96839">
        <ele>288.100006104</ele>
        <time>2015-11-11T10:44:58.972Z</time>
      </trkpt>
      <trkpt lat="45.89598" lon="4.96846">
        <ele>288.5</ele>
        <time>2015-11-11T10:44:59.985Z</time>
      </trkpt>
      <trkpt lat="45.89598" lon="4.96853">
        <ele>288.799987793</ele>
        <time>2015-11-11T10:45:00.971Z</time>
      </trkpt>
      <trkpt lat="45.89598" lon="4.96861">
        <ele>289.100006104</ele>
        <time>2015-11-11T10:45:01.985Z</time>
      </trkpt>
      <trkpt lat="45.89599" lon="4.96868">
        <ele>289.200012207</ele>
        <time>2015-11-11T10:45:02.976Z</time>
      </trkpt>
      <trkpt lat="45.89601" lon="4.96874">
        <ele>289.5</ele>
        <time>2015-11-11T10:45:03.985Z</time>
      </trkpt>
      <trkpt lat="45.89604" lon="4.96881">
        <ele>289.399993896</ele>
        <time>2015-11-11T10:45:04.972Z</time>
      </trkpt>
      <trkpt lat="45.89606" lon="4.96886">
        <ele>289.399993896</ele>
        <time>2015-11-11T10:45:05.985Z</time>
      </trkpt>
      <trkpt lat="45.89609" lon="4.96892">
        <ele>289.399993896</ele>
        <time>2015-11-11T10:45:06.971Z</time>
      </trkpt>
      <trkpt lat="45.89612" lon="4.96897">
        <ele>289.399993896</ele>
        <time>2015-11-11T10:45:07.985Z</time>
      </trkpt>
      <trkpt lat="45.89615" lon="4.96903">
        <ele>289.200012207</ele>
        <time>2015-11-11T10:45:08.974Z</time>
      </trkpt>
      <trkpt lat="45.8962" lon="4.96911">
        <ele>288.600006104</ele>
        <time>2015-11-11T10:45:10.986Z</time>
      </trkpt>
      <trkpt lat="45.89622" lon="4.96915">
        <ele>288.399993896</ele>
        <time>2015-11-11T10:45:11.97Z</time>
      </trkpt>
      <trkpt lat="45.89624" lon="4.96922">
        <ele>287.700012207</ele>
        <time>2015-11-11T10:45:14.988Z</time>
      </trkpt>
      <trkpt lat="45.89624" lon="4.96923">
        <ele>287.600006104</ele>
        <time>2015-11-11T10:45:15.971Z</time>
      </trkpt>
      <trkpt lat="45.89628" lon="4.96932">
        <ele>287.799987793</ele>
        <time>2015-11-11T10:45:24.998Z</time>
      </trkpt>
      <trkpt lat="45.89629" lon="4.96932">
        <ele>287.899993896</ele>
        <time>2015-11-11T10:45:25.971Z</time>
      </trkpt>
      <trkpt lat="45.8963" lon="4.96941">
        <ele>288.299987793</ele>
        <time>2015-11-11T10:45:56.026Z</time>
      </trkpt>
      <trkpt lat="45.8963" lon="4.96945">
        <ele>288</ele>
        <time>2015-11-11T10:45:57.009Z</time>
      </trkpt>
      <trkpt lat="45.89638" lon="4.96943">
        <ele>285.200012207</ele>
        <time>2015-11-11T10:47:01.984Z</time>
      </trkpt>
      <trkpt lat="45.8964" lon="4.96946">
        <ele>285.200012207</ele>
        <time>2015-11-11T10:47:02.974Z</time>
      </trkpt>
      <trkpt lat="45.89642" lon="4.96955">
        <ele>285.299987793</ele>
        <time>2015-11-11T10:47:05.986Z</time>
      </trkpt>
      <trkpt lat="45.89645" lon="4.9696">
        <ele>285.299987793</ele>
        <time>2015-11-11T10:47:06.97Z</time>
      </trkpt>
      <trkpt lat="45.8965" lon="4.96967">
        <ele>285.5</ele>
        <time>2015-11-11T10:47:08.988Z</time>
      </trkpt>
      <trkpt lat="45.89652" lon="4.96971">
        <ele>285.600006104</ele>
        <time>2015-11-11T10:47:09.97Z</time>
      </trkpt>
      <trkpt lat="45.89657" lon="4.96978">
        <ele>285.5</ele>
        <time>2015-11-11T10:47:11.985Z</time>
      </trkpt>
      <trkpt lat="45.89659" lon="4.96982">
        <ele>285.5</ele>
        <time>2015-11-11T10:47:12.973Z</time>
      </trkpt>
      <trkpt lat="45.89663" lon="4.96989">
        <ele>285.700012207</ele>
        <time>2015-11-11T10:47:14.988Z</time>
      </trkpt>
      <trkpt lat="45.89666" lon="4.96994">
        <ele>285.799987793</ele>
        <time>2015-11-11T10:47:15.971Z</time>
      </trkpt>
      <trkpt lat="45.89671" lon="4.97001">
        <ele>285.5</ele>
        <time>2015-11-11T10:47:17.985Z</time>
      </trkpt>
      <trkpt lat="45.89674" lon="4.97006">
        <ele>285.399993896</ele>
        <time>2015-11-11T10:47:18.97Z</time>
      </trkpt>
      <trkpt lat="45.89677" lon="4.9701">
        <ele>285.600006104</ele>
        <time>2015-11-11T10:47:19.985Z</time>
      </trkpt>
      <trkpt lat="45.8968" lon="4.97015">
        <ele>285.700012207</ele>
        <time>2015-11-11T10:47:20.973Z</time>
      </trkpt>
      <trkpt lat="45.89684" lon="4.9702">
        <ele>285.700012207</ele>
        <time>2015-11-11T10:47:21.985Z</time>
      </trkpt>
      <trkpt lat="45.89687" lon="4.97024">
        <ele>285.899993896</ele>
        <time>2015-11-11T10:47:22.971Z</time>
      </trkpt>
      <trkpt lat="45.89692" lon="4.97034">
        <ele>286.100006104</ele>
        <time>2015-11-11T10:47:24.984Z</time>
      </trkpt>
      <trkpt lat="45.89695" lon="4.97038">
        <ele>286.299987793</ele>
        <time>2015-11-11T10:47:25.97Z</time>
      </trkpt>
      <trkpt lat="45.89699" lon="4.97043">
        <ele>286.600006104</ele>
        <time>2015-11-11T10:47:27.001Z</time>
      </trkpt>
      <trkpt lat="45.89703" lon="4.97049">
        <ele>286.600006104</ele>
        <time>2015-11-11T10:47:27.97Z</time>
      </trkpt>
      <trkpt lat="45.89707" lon="4.97055">
        <ele>286.700012207</ele>
        <time>2015-11-11T10:47:28.986Z</time>
      </trkpt>
      <trkpt lat="45.8971" lon="4.97061">
        <ele>286.700012207</ele>
        <time>2015-11-11T10:47:29.97Z</time>
      </trkpt>
      <trkpt lat="45.89713" lon="4.97067">
        <ele>286.700012207</ele>
        <time>2015-11-11T10:47:31.094Z</time>
      </trkpt>
      <trkpt lat="45.89717" lon="4.97075">
        <ele>286.600006104</ele>
        <time>2015-11-11T10:47:31.97Z</time>
      </trkpt>
      <trkpt lat="45.8972" lon="4.9708">
        <ele>286.600006104</ele>
        <time>2015-11-11T10:47:32.987Z</time>
      </trkpt>
      <trkpt lat="45.89723" lon="4.97087">
        <ele>286.600006104</ele>
        <time>2015-11-11T10:47:33.97Z</time>
      </trkpt>
      <trkpt lat="45.89727" lon="4.97092">
        <ele>286.600006104</ele>
        <time>2015-11-11T10:47:34.986Z</time>
      </trkpt>
      <trkpt lat="45.8973" lon="4.97098">
        <ele>286.399993896</ele>
        <time>2015-11-11T10:47:35.97Z</time>
      </trkpt>
      <trkpt lat="45.89733" lon="4.97104">
        <ele>286.299987793</ele>
        <time>2015-11-11T10:47:36.984Z</time>
      </trkpt>
      <trkpt lat="45.89736" lon="4.97109">
        <ele>286.200012207</ele>
        <time>2015-11-11T10:47:37.97Z</time>
      </trkpt>
      <trkpt lat="45.89739" lon="4.97114">
        <ele>285.700012207</ele>
        <time>2015-11-11T10:47:39.028Z</time>
      </trkpt>
      <trkpt lat="45.89742" lon="4.97119">
        <ele>285.700012207</ele>
        <time>2015-11-11T10:47:39.973Z</time>
      </trkpt>
      <trkpt lat="45.89745" lon="4.97124">
        <ele>286.299987793</ele>
        <time>2015-11-11T10:47:40.986Z</time>
      </trkpt>
      <trkpt lat="45.89749" lon="4.9713">
        <ele>285.399993896</ele>
        <time>2015-11-11T10:47:41.97Z</time>
      </trkpt>
      <trkpt lat="45.89752" lon="4.97136">
        <ele>285.399993896</ele>
        <time>2015-11-11T10:47:42.998Z</time>
      </trkpt>
      <trkpt lat="45.89755" lon="4.97142">
        <ele>285.600006104</ele>
        <time>2015-11-11T10:47:43.97Z</time>
      </trkpt>
      <trkpt lat="45.89759" lon="4.97148">
        <ele>285.299987793</ele>
        <time>2015-11-11T10:47:44.988Z</time>
      </trkpt>
      <trkpt lat="45.89762" lon="4.97153">
        <ele>285.299987793</ele>
        <time>2015-11-11T10:47:45.97Z</time>
      </trkpt>
      <trkpt lat="45.89765" lon="4.9716">
        <ele>285.200012207</ele>
        <time>2015-11-11T10:47:46.985Z</time>
      </trkpt>
      <trkpt lat="45.89769" lon="4.97165">
        <ele>285.299987793</ele>
        <time>2015-11-11T10:47:47.97Z</time>
      </trkpt>
      <trkpt lat="45.89772" lon="4.97171">
        <ele>284.899993896</ele>
        <time>2015-11-11T10:47:48.984Z</time>
      </trkpt>
      <trkpt lat="45.89775" lon="4.97177">
        <ele>284.899993896</ele>
        <time>2015-11-11T10:47:49.97Z</time>
      </trkpt>
      <trkpt lat="45.89779" lon="4.97183">
        <ele>284.799987793</ele>
        <time>2015-11-11T10:47:51.051Z</time>
      </trkpt>
      <trkpt lat="45.89781" lon="4.97188">
        <ele>284.399993896</ele>
        <time>2015-11-11T10:47:51.97Z</time>
      </trkpt>
      <trkpt lat="45.89787" lon="4.97198">
        <ele>284.100006104</ele>
        <time>2015-11-11T10:47:53.984Z</time>
      </trkpt>
      <trkpt lat="45.8979" lon="4.97203">
        <ele>284</ele>
        <time>2015-11-11T10:47:54.97Z</time>
      </trkpt>
      <trkpt lat="45.89793" lon="4.97209">
        <ele>283.799987793</ele>
        <time>2015-11-11T10:47:55.984Z</time>
      </trkpt>
      <trkpt lat="45.89795" lon="4.97214">
        <ele>284.100006104</ele>
        <time>2015-11-11T10:47:56.973Z</time>
      </trkpt>
      <trkpt lat="45.89799" lon="4.97225">
        <ele>283.899993896</ele>
        <time>2015-11-11T10:47:59.008Z</time>
      </trkpt>
      <trkpt lat="45.898" lon="4.97231">
        <ele>283.399993896</ele>
        <time>2015-11-11T10:47:59.97Z</time>
      </trkpt>
      <trkpt lat="45.898" lon="4.97243">
        <ele>284.399993896</ele>
        <time>2015-11-11T10:48:01.984Z</time>
      </trkpt>
      <trkpt lat="45.89799" lon="4.97249">
        <ele>284.5</ele>
        <time>2015-11-11T10:48:02.973Z</time>
      </trkpt>
      <trkpt lat="45.89795" lon="4.97259">
        <ele>284.700012207</ele>
        <time>2015-11-11T10:48:04.988Z</time>
      </trkpt>
      <trkpt lat="45.89793" lon="4.97264">
        <ele>284.799987793</ele>
        <time>2015-11-11T10:48:05.97Z</time>
      </trkpt>
      <trkpt lat="45.89788" lon="4.97275">
        <ele>285.100006104</ele>
        <time>2015-11-11T10:48:08.2Z</time>
      </trkpt>
      <trkpt lat="45.89785" lon="4.9728">
        <ele>285</ele>
        <time>2015-11-11T10:48:08.974Z</time>
      </trkpt>
      <trkpt lat="45.8978" lon="4.97288">
        <ele>285.299987793</ele>
        <time>2015-11-11T10:48:10.985Z</time>
      </trkpt>
      <trkpt lat="45.89778" lon="4.97293">
        <ele>285.299987793</ele>
        <time>2015-11-11T10:48:11.97Z</time>
      </trkpt>
      <trkpt lat="45.89774" lon="4.97303">
        <ele>285.399993896</ele>
        <time>2015-11-11T10:48:13.984Z</time>
      </trkpt>
      <trkpt lat="45.89771" lon="4.97307">
        <ele>285.399993896</ele>
        <time>2015-11-11T10:48:14.988Z</time>
      </trkpt>
      <trkpt lat="45.89767" lon="4.97316">
        <ele>285.5</ele>
        <time>2015-11-11T10:48:16.985Z</time>
      </trkpt>
      <trkpt lat="45.89764" lon="4.97321">
        <ele>285.799987793</ele>
        <time>2015-11-11T10:48:17.97Z</time>
      </trkpt>
      <trkpt lat="45.89759" lon="4.9733">
        <ele>286.100006104</ele>
        <time>2015-11-11T10:48:19.984Z</time>
      </trkpt>
      <trkpt lat="45.89757" lon="4.97335">
        <ele>286.700012207</ele>
        <time>2015-11-11T10:48:20.973Z</time>
      </trkpt>
      <trkpt lat="45.89752" lon="4.97344">
        <ele>287.399993896</ele>
        <time>2015-11-11T10:48:22.985Z</time>
      </trkpt>
      <trkpt lat="45.8975" lon="4.9735">
        <ele>287.399993896</ele>
        <time>2015-11-11T10:48:23.97Z</time>
      </trkpt>
      <trkpt lat="45.89745" lon="4.97361">
        <ele>286.399993896</ele>
        <time>2015-11-11T10:48:25.999Z</time>
      </trkpt>
      <trkpt lat="45.89743" lon="4.97366">
        <ele>286.299987793</ele>
        <time>2015-11-11T10:48:26.973Z</time>
      </trkpt>
      <trkpt lat="45.8974" lon="4.97372">
        <ele>286.399993896</ele>
        <time>2015-11-11T10:48:27.984Z</time>
      </trkpt>
      <trkpt lat="45.89737" lon="4.97377">
        <ele>286.200012207</ele>
        <time>2015-11-11T10:48:28.972Z</time>
      </trkpt>
      <trkpt lat="45.89734" lon="4.97383">
        <ele>286.100006104</ele>
        <time>2015-11-11T10:48:29.984Z</time>
      </trkpt>
      <trkpt lat="45.89732" lon="4.9739">
        <ele>286</ele>
        <time>2015-11-11T10:48:30.973Z</time>
      </trkpt>
      <trkpt lat="45.89729" lon="4.97396">
        <ele>285.899993896</ele>
        <time>2015-11-11T10:48:31.984Z</time>
      </trkpt>
      <trkpt lat="45.89726" lon="4.97403">
        <ele>285.899993896</ele>
        <time>2015-11-11T10:48:32.973Z</time>
      </trkpt>
      <trkpt lat="45.89724" lon="4.97409">
        <ele>285.799987793</ele>
        <time>2015-11-11T10:48:34.008Z</time>
      </trkpt>
      <trkpt lat="45.89721" lon="4.97415">
        <ele>286.100006104</ele>
        <time>2015-11-11T10:48:34.973Z</time>
      </trkpt>
      <trkpt lat="45.89719" lon="4.97422">
        <ele>286</ele>
        <time>2015-11-11T10:48:35.986Z</time>
      </trkpt>
      <trkpt lat="45.89717" lon="4.97428">
        <ele>286.100006104</ele>
        <time>2015-11-11T10:48:36.972Z</time>
      </trkpt>
      <trkpt lat="45.89716" lon="4.97434">
        <ele>285.799987793</ele>
        <time>2015-11-11T10:48:37.986Z</time>
      </trkpt>
      <trkpt lat="45.89715" lon="4.9744">
        <ele>285.899993896</ele>
        <time>2015-11-11T10:48:38.975Z</time>
      </trkpt>
      <trkpt lat="45.89713" lon="4.97451">
        <ele>285.899993896</ele>
        <time>2015-11-11T10:48:41.18Z</time>
      </trkpt>
      <trkpt lat="45.89712" lon="4.97457">
        <ele>285.600006104</ele>
        <time>2015-11-11T10:48:41.97Z</time>
      </trkpt>
      <trkpt lat="45.8971" lon="4.97469">
        <ele>285.399993896</ele>
        <time>2015-11-11T10:48:43.985Z</time>
      </trkpt>
      <trkpt lat="45.89709" lon="4.97476">
        <ele>285.600006104</ele>
        <time>2015-11-11T10:48:44.973Z</time>
      </trkpt>
      <trkpt lat="45.89707" lon="4.97484">
        <ele>285.700012207</ele>
        <time>2015-11-11T10:48:45.985Z</time>
      </trkpt>
      <trkpt lat="45.89706" lon="4.97491">
        <ele>285.700012207</ele>
        <time>2015-11-11T10:48:46.971Z</time>
      </trkpt>
      <trkpt lat="45.89705" lon="4.97499">
        <ele>285.600006104</ele>
        <time>2015-11-11T10:48:47.984Z</time>
      </trkpt>
      <trkpt lat="45.89704" lon="4.97507">
        <ele>285.299987793</ele>
        <time>2015-11-11T10:48:48.97Z</time>
      </trkpt>
      <trkpt lat="45.89703" lon="4.97515">
        <ele>285.100006104</ele>
        <time>2015-11-11T10:48:49.984Z</time>
      </trkpt>
      <trkpt lat="45.89702" lon="4.97524">
        <ele>285</ele>
        <time>2015-11-11T10:48:50.973Z</time>
      </trkpt>
      <trkpt lat="45.897" lon="4.97533">
        <ele>284.899993896</ele>
        <time>2015-11-11T10:48:51.984Z</time>
      </trkpt>
      <trkpt lat="45.89698" lon="4.97542">
        <ele>284.700012207</ele>
        <time>2015-11-11T10:48:52.985Z</time>
      </trkpt>
      <trkpt lat="45.89697" lon="4.97551">
        <ele>284.5</ele>
        <time>2015-11-11T10:48:53.984Z</time>
      </trkpt>
      <trkpt lat="45.89695" lon="4.9756">
        <ele>284.200012207</ele>
        <time>2015-11-11T10:48:54.97Z</time>
      </trkpt>
      <trkpt lat="45.89693" lon="4.9757">
        <ele>283.899993896</ele>
        <time>2015-11-11T10:48:55.984Z</time>
      </trkpt>
      <trkpt lat="45.8969" lon="4.97581">
        <ele>283.299987793</ele>
        <time>2015-11-11T10:48:57.096Z</time>
      </trkpt>
      <trkpt lat="45.89689" lon="4.97592">
        <ele>282.799987793</ele>
        <time>2015-11-11T10:48:57.984Z</time>
      </trkpt>
      <trkpt lat="45.89687" lon="4.97602">
        <ele>282.299987793</ele>
        <time>2015-11-11T10:48:58.971Z</time>
      </trkpt>
      <trkpt lat="45.89685" lon="4.97614">
        <ele>282</ele>
        <time>2015-11-11T10:48:59.984Z</time>
      </trkpt>
      <trkpt lat="45.89684" lon="4.97625">
        <ele>281.299987793</ele>
        <time>2015-11-11T10:49:00.97Z</time>
      </trkpt>
      <trkpt lat="45.89682" lon="4.97636">
        <ele>280.700012207</ele>
        <time>2015-11-11T10:49:01.984Z</time>
      </trkpt>
      <trkpt lat="45.8968" lon="4.97646">
        <ele>280.299987793</ele>
        <time>2015-11-11T10:49:02.973Z</time>
      </trkpt>
      <trkpt lat="45.89679" lon="4.97657">
        <ele>279.700012207</ele>
        <time>2015-11-11T10:49:03.999Z</time>
      </trkpt>
      <trkpt lat="45.89677" lon="4.97668">
        <ele>279.5</ele>
        <time>2015-11-11T10:49:05.077Z</time>
      </trkpt>
      <trkpt lat="45.89675" lon="4.97678">
        <ele>279.299987793</ele>
        <time>2015-11-11T10:49:06.105Z</time>
      </trkpt>
      <trkpt lat="45.89673" lon="4.97689">
        <ele>278.799987793</ele>
        <time>2015-11-11T10:49:06.97Z</time>
      </trkpt>
      <trkpt lat="45.89671" lon="4.977">
        <ele>278.600006104</ele>
        <time>2015-11-11T10:49:07.984Z</time>
      </trkpt>
      <trkpt lat="45.89669" lon="4.9771">
        <ele>278.200012207</ele>
        <time>2015-11-11T10:49:08.973Z</time>
      </trkpt>
      <trkpt lat="45.89668" lon="4.9772">
        <ele>278.200012207</ele>
        <time>2015-11-11T10:49:09.987Z</time>
      </trkpt>
      <trkpt lat="45.89667" lon="4.9773">
        <ele>277.799987793</ele>
        <time>2015-11-11T10:49:10.971Z</time>
      </trkpt>
      <trkpt lat="45.89667" lon="4.97739">
        <ele>277.799987793</ele>
        <time>2015-11-11T10:49:11.985Z</time>
      </trkpt>
      <trkpt lat="45.89669" lon="4.97749">
        <ele>277.700012207</ele>
        <time>2015-11-11T10:49:12.97Z</time>
      </trkpt>
      <trkpt lat="45.89671" lon="4.97758">
        <ele>277.600006104</ele>
        <time>2015-11-11T10:49:14.066Z</time>
      </trkpt>
      <trkpt lat="45.89675" lon="4.97765">
        <ele>277.299987793</ele>
        <time>2015-11-11T10:49:14.973Z</time>
      </trkpt>
      <trkpt lat="45.8968" lon="4.97772">
        <ele>277.100006104</ele>
        <time>2015-11-11T10:49:15.985Z</time>
      </trkpt>
      <trkpt lat="45.89687" lon="4.97777">
        <ele>276.799987793</ele>
        <time>2015-11-11T10:49:16.971Z</time>
      </trkpt>
      <trkpt lat="45.89693" lon="4.97782">
        <ele>276.600006104</ele>
        <time>2015-11-11T10:49:17.984Z</time>
      </trkpt>
      <trkpt lat="45.89699" lon="4.97786">
        <ele>276.600006104</ele>
        <time>2015-11-11T10:49:18.97Z</time>
      </trkpt>
      <trkpt lat="45.89705" lon="4.97791">
        <ele>276.600006104</ele>
        <time>2015-11-11T10:49:19.984Z</time>
      </trkpt>
      <trkpt lat="45.89711" lon="4.97795">
        <ele>276.799987793</ele>
        <time>2015-11-11T10:49:20.973Z</time>
      </trkpt>
      <trkpt lat="45.89717" lon="4.978">
        <ele>276.899993896</ele>
        <time>2015-11-11T10:49:21.984Z</time>
      </trkpt>
      <trkpt lat="45.89723" lon="4.97804">
        <ele>276.600006104</ele>
        <time>2015-11-11T10:49:22.974Z</time>
      </trkpt>
      <trkpt lat="45.89729" lon="4.97809">
        <ele>276.5</ele>
        <time>2015-11-11T10:49:23.984Z</time>
      </trkpt>
      <trkpt lat="45.89735" lon="4.97813">
        <ele>276.799987793</ele>
        <time>2015-11-11T10:49:24.97Z</time>
      </trkpt>
      <trkpt lat="45.89741" lon="4.97818">
        <ele>276.600006104</ele>
        <time>2015-11-11T10:49:25.984Z</time>
      </trkpt>
      <trkpt lat="45.89747" lon="4.97822">
        <ele>276.700012207</ele>
        <time>2015-11-11T10:49:26.973Z</time>
      </trkpt>
      <trkpt lat="45.89753" lon="4.97827">
        <ele>276.399993896</ele>
        <time>2015-11-11T10:49:27.984Z</time>
      </trkpt>
      <trkpt lat="45.89759" lon="4.97831">
        <ele>276.5</ele>
        <time>2015-11-11T10:49:28.971Z</time>
      </trkpt>
      <trkpt lat="45.89765" lon="4.97836">
        <ele>276.200012207</ele>
        <time>2015-11-11T10:49:30.006Z</time>
      </trkpt>
      <trkpt lat="45.8977" lon="4.9784">
        <ele>275.899993896</ele>
        <time>2015-11-11T10:49:30.971Z</time>
      </trkpt>
      <trkpt lat="45.89776" lon="4.97843">
        <ele>275.399993896</ele>
        <time>2015-11-11T10:49:31.984Z</time>
      </trkpt>
      <trkpt lat="45.89782" lon="4.97847">
        <ele>275.5</ele>
        <time>2015-11-11T10:49:32.973Z</time>
      </trkpt>
      <trkpt lat="45.89787" lon="4.9785">
        <ele>275.299987793</ele>
        <time>2015-11-11T10:49:33.984Z</time>
      </trkpt>
      <trkpt lat="45.89792" lon="4.97854">
        <ele>275.299987793</ele>
        <time>2015-11-11T10:49:34.971Z</time>
      </trkpt>
      <trkpt lat="45.89797" lon="4.97858">
        <ele>275.200012207</ele>
        <time>2015-11-11T10:49:36.004Z</time>
      </trkpt>
      <trkpt lat="45.89801" lon="4.97862">
        <ele>275.200012207</ele>
        <time>2015-11-11T10:49:36.97Z</time>
      </trkpt>
      <trkpt lat="45.89806" lon="4.97866">
        <ele>275.5</ele>
        <time>2015-11-11T10:49:37.984Z</time>
      </trkpt>
      <trkpt lat="45.89811" lon="4.97869">
        <ele>275.399993896</ele>
        <time>2015-11-11T10:49:39.014Z</time>
      </trkpt>
      <trkpt lat="45.89816" lon="4.97873">
        <ele>275.399993896</ele>
        <time>2015-11-11T10:49:39.987Z</time>
      </trkpt>
      <trkpt lat="45.89821" lon="4.97876">
        <ele>275.399993896</ele>
        <time>2015-11-11T10:49:40.984Z</time>
      </trkpt>
      <trkpt lat="45.89826" lon="4.9788">
        <ele>275.399993896</ele>
        <time>2015-11-11T10:49:41.985Z</time>
      </trkpt>
      <trkpt lat="45.89831" lon="4.97883">
        <ele>275.299987793</ele>
        <time>2015-11-11T10:49:42.971Z</time>
      </trkpt>
      <trkpt lat="45.89836" lon="4.97887">
        <ele>275.399993896</ele>
        <time>2015-11-11T10:49:43.984Z</time>
      </trkpt>
      <trkpt lat="45.89841" lon="4.9789">
        <ele>275.5</ele>
        <time>2015-11-11T10:49:44.974Z</time>
      </trkpt>
      <trkpt lat="45.89847" lon="4.97894">
        <ele>275.5</ele>
        <time>2015-11-11T10:49:45.984Z</time>
      </trkpt>
      <trkpt lat="45.89853" lon="4.97898">
        <ele>275.399993896</ele>
        <time>2015-11-11T10:49:46.971Z</time>
      </trkpt>
      <trkpt lat="45.89858" lon="4.97902">
        <ele>275.399993896</ele>
        <time>2015-11-11T10:49:47.984Z</time>
      </trkpt>
      <trkpt lat="45.89864" lon="4.97905">
        <ele>275.299987793</ele>
        <time>2015-11-11T10:49:48.973Z</time>
      </trkpt>
      <trkpt lat="45.8987" lon="4.97908">
        <ele>275.200012207</ele>
        <time>2015-11-11T10:49:49.984Z</time>
      </trkpt>
      <trkpt lat="45.89876" lon="4.97912">
        <ele>275.200012207</ele>
        <time>2015-11-11T10:49:50.973Z</time>
      </trkpt>
      <trkpt lat="45.89882" lon="4.97914">
        <ele>275.100006104</ele>
        <time>2015-11-11T10:49:51.998Z</time>
      </trkpt>
      <trkpt lat="45.89888" lon="4.97917">
        <ele>274.899993896</ele>
        <time>2015-11-11T10:49:52.971Z</time>
      </trkpt>
      <trkpt lat="45.89894" lon="4.97919">
        <ele>274.700012207</ele>
        <time>2015-11-11T10:49:53.984Z</time>
      </trkpt>
      <trkpt lat="45.89899" lon="4.97922">
        <ele>274.5</ele>
        <time>2015-11-11T10:49:54.97Z</time>
      </trkpt>
      <trkpt lat="45.89904" lon="4.97924">
        <ele>274.600006104</ele>
        <time>2015-11-11T10:49:55.984Z</time>
      </trkpt>
      <trkpt lat="45.8991" lon="4.97926">
        <ele>274.200012207</ele>
        <time>2015-11-11T10:49:56.973Z</time>
      </trkpt>
      <trkpt lat="45.89915" lon="4.97928">
        <ele>273.899993896</ele>
        <time>2015-11-11T10:49:57.984Z</time>
      </trkpt>
      <trkpt lat="45.89921" lon="4.9793">
        <ele>274</ele>
        <time>2015-11-11T10:49:58.972Z</time>
      </trkpt>
      <trkpt lat="45.89926" lon="4.97931">
        <ele>274.299987793</ele>
        <time>2015-11-11T10:49:59.985Z</time>
      </trkpt>
      <trkpt lat="45.89931" lon="4.97933">
        <ele>274.200012207</ele>
        <time>2015-11-11T10:50:00.97Z</time>
      </trkpt>
      <trkpt lat="45.89937" lon="4.97934">
        <ele>274</ele>
        <time>2015-11-11T10:50:01.985Z</time>
      </trkpt>
      <trkpt lat="45.89942" lon="4.97935">
        <ele>274</ele>
        <time>2015-11-11T10:50:02.973Z</time>
      </trkpt>
      <trkpt lat="45.89947" lon="4.97935">
        <ele>274.600006104</ele>
        <time>2015-11-11T10:50:03.984Z</time>
      </trkpt>
      <trkpt lat="45.89952" lon="4.97936">
        <ele>274.600006104</ele>
        <time>2015-11-11T10:50:04.971Z</time>
      </trkpt>
      <trkpt lat="45.89958" lon="4.97935">
        <ele>274.899993896</ele>
        <time>2015-11-11T10:50:05.984Z</time>
      </trkpt>
      <trkpt lat="45.89963" lon="4.97934">
        <ele>275.100006104</ele>
        <time>2015-11-11T10:50:06.97Z</time>
      </trkpt>
      <trkpt lat="45.89968" lon="4.97933">
        <ele>274.899993896</ele>
        <time>2015-11-11T10:50:07.998Z</time>
      </trkpt>
      <trkpt lat="45.89973" lon="4.97932">
        <ele>274.899993896</ele>
        <time>2015-11-11T10:50:08.973Z</time>
      </trkpt>
      <trkpt lat="45.8998" lon="4.9793">
        <ele>274.899993896</ele>
        <time>2015-11-11T10:50:09.984Z</time>
      </trkpt>
      <trkpt lat="45.89985" lon="4.97928">
        <ele>275</ele>
        <time>2015-11-11T10:50:10.971Z</time>
      </trkpt>
      <trkpt lat="45.89991" lon="4.97925">
        <ele>275.399993896</ele>
        <time>2015-11-11T10:50:11.985Z</time>
      </trkpt>
      <trkpt lat="45.89997" lon="4.97924">
        <ele>275.799987793</ele>
        <time>2015-11-11T10:50:12.97Z</time>
      </trkpt>
      <trkpt lat="45.90002" lon="4.97921">
        <ele>276</ele>
        <time>2015-11-11T10:50:13.984Z</time>
      </trkpt>
      <trkpt lat="45.90007" lon="4.97919">
        <ele>276.100006104</ele>
        <time>2015-11-11T10:50:14.976Z</time>
      </trkpt>
      <trkpt lat="45.90012" lon="4.97918">
        <ele>276.200012207</ele>
        <time>2015-11-11T10:50:15.985Z</time>
      </trkpt>
      <trkpt lat="45.90016" lon="4.97915">
        <ele>276.399993896</ele>
        <time>2015-11-11T10:50:16.971Z</time>
      </trkpt>
      <trkpt lat="45.90021" lon="4.97913">
        <ele>276.799987793</ele>
        <time>2015-11-11T10:50:17.984Z</time>
      </trkpt>
      <trkpt lat="45.90025" lon="4.97912">
        <ele>277.100006104</ele>
        <time>2015-11-11T10:50:18.97Z</time>
      </trkpt>
      <trkpt lat="45.90034" lon="4.97914">
        <ele>276.5</ele>
        <time>2015-11-11T10:50:20.987Z</time>
      </trkpt>
      <trkpt lat="45.90038" lon="4.97918">
        <ele>276.700012207</ele>
        <time>2015-11-11T10:50:21.97Z</time>
      </trkpt>
      <trkpt lat="45.9004" lon="4.97924">
        <ele>276.799987793</ele>
        <time>2015-11-11T10:50:22.985Z</time>
      </trkpt>
      <trkpt lat="45.90042" lon="4.9793">
        <ele>276.700012207</ele>
        <time>2015-11-11T10:50:23.984Z</time>
      </trkpt>
      <trkpt lat="45.90042" lon="4.97937">
        <ele>276.700012207</ele>
        <time>2015-11-11T10:50:24.984Z</time>
      </trkpt>
      <trkpt lat="45.90042" lon="4.97944">
        <ele>276.700012207</ele>
        <time>2015-11-11T10:50:25.97Z</time>
      </trkpt>
      <trkpt lat="45.90042" lon="4.97951">
        <ele>277.100006104</ele>
        <time>2015-11-11T10:50:26.987Z</time>
      </trkpt>
      <trkpt lat="45.90042" lon="4.97958">
        <ele>276.700012207</ele>
        <time>2015-11-11T10:50:27.97Z</time>
      </trkpt>
      <trkpt lat="45.90042" lon="4.97965">
        <ele>277.200012207</ele>
        <time>2015-11-11T10:50:28.985Z</time>
      </trkpt>
      <trkpt lat="45.90042" lon="4.97973">
        <ele>277.5</ele>
        <time>2015-11-11T10:50:29.97Z</time>
      </trkpt>
      <trkpt lat="45.90043" lon="4.97979">
        <ele>277.5</ele>
        <time>2015-11-11T10:50:30.984Z</time>
      </trkpt>
      <trkpt lat="45.90043" lon="4.97986">
        <ele>277.299987793</ele>
        <time>2015-11-11T10:50:31.97Z</time>
      </trkpt>
      <trkpt lat="45.90044" lon="4.97993">
        <ele>277.200012207</ele>
        <time>2015-11-11T10:50:32.987Z</time>
      </trkpt>
      <trkpt lat="45.90044" lon="4.98">
        <ele>277.100006104</ele>
        <time>2015-11-11T10:50:34.009Z</time>
      </trkpt>
      <trkpt lat="45.90044" lon="4.98007">
        <ele>277.700012207</ele>
        <time>2015-11-11T10:50:34.986Z</time>
      </trkpt>
      <trkpt lat="45.90045" lon="4.98013">
        <ele>277.700012207</ele>
        <time>2015-11-11T10:50:35.97Z</time>
      </trkpt>
      <trkpt lat="45.90045" lon="4.9802">
        <ele>277.899993896</ele>
        <time>2015-11-11T10:50:36.985Z</time>
      </trkpt>
      <trkpt lat="45.90047" lon="4.98026">
        <ele>277.799987793</ele>
        <time>2015-11-11T10:50:37.97Z</time>
      </trkpt>
      <trkpt lat="45.90048" lon="4.98033">
        <ele>277.799987793</ele>
        <time>2015-11-11T10:50:38.988Z</time>
      </trkpt>
      <trkpt lat="45.90048" lon="4.98039">
        <ele>278.100006104</ele>
        <time>2015-11-11T10:50:39.973Z</time>
      </trkpt>
      <trkpt lat="45.90048" lon="4.98046">
        <ele>278.200012207</ele>
        <time>2015-11-11T10:50:40.988Z</time>
      </trkpt>
      <trkpt lat="45.90048" lon="4.98052">
        <ele>278.100006104</ele>
        <time>2015-11-11T10:50:41.97Z</time>
      </trkpt>
      <trkpt lat="45.90049" lon="4.98059">
        <ele>277.899993896</ele>
        <time>2015-11-11T10:50:43.099Z</time>
      </trkpt>
      <trkpt lat="45.90049" lon="4.98066">
        <ele>278.100006104</ele>
        <time>2015-11-11T10:50:43.97Z</time>
      </trkpt>
      <trkpt lat="45.9005" lon="4.98073">
        <ele>278.399993896</ele>
        <time>2015-11-11T10:50:44.988Z</time>
      </trkpt>
      <trkpt lat="45.9005" lon="4.9808">
        <ele>278.299987793</ele>
        <time>2015-11-11T10:50:45.97Z</time>
      </trkpt>
      <trkpt lat="45.9005" lon="4.98088">
        <ele>278.600006104</ele>
        <time>2015-11-11T10:50:46.985Z</time>
      </trkpt>
      <trkpt lat="45.9005" lon="4.98095">
        <ele>278.399993896</ele>
        <time>2015-11-11T10:50:47.97Z</time>
      </trkpt>
      <trkpt lat="45.9005" lon="4.98102">
        <ele>278.600006104</ele>
        <time>2015-11-11T10:50:48.984Z</time>
      </trkpt>
      <trkpt lat="45.90051" lon="4.98109">
        <ele>278.600006104</ele>
        <time>2015-11-11T10:50:49.97Z</time>
      </trkpt>
      <trkpt lat="45.90052" lon="4.98116">
        <ele>278.600006104</ele>
        <time>2015-11-11T10:50:50.987Z</time>
      </trkpt>
      <trkpt lat="45.90053" lon="4.98123">
        <ele>278.399993896</ele>
        <time>2015-11-11T10:50:51.97Z</time>
      </trkpt>
      <trkpt lat="45.90054" lon="4.9813">
        <ele>278.5</ele>
        <time>2015-11-11T10:50:52.985Z</time>
      </trkpt>
      <trkpt lat="45.90054" lon="4.98137">
        <ele>278.399993896</ele>
        <time>2015-11-11T10:50:53.97Z</time>
      </trkpt>
      <trkpt lat="45.90055" lon="4.98144">
        <ele>278.5</ele>
        <time>2015-11-11T10:50:54.984Z</time>
      </trkpt>
      <trkpt lat="45.90055" lon="4.98151">
        <ele>278.5</ele>
        <time>2015-11-11T10:50:55.97Z</time>
      </trkpt>
      <trkpt lat="45.90056" lon="4.98158">
        <ele>278.299987793</ele>
        <time>2015-11-11T10:50:56.987Z</time>
      </trkpt>
      <trkpt lat="45.90057" lon="4.98165">
        <ele>278.5</ele>
        <time>2015-11-11T10:50:57.97Z</time>
      </trkpt>
      <trkpt lat="45.90057" lon="4.98172">
        <ele>278.700012207</ele>
        <time>2015-11-11T10:50:58.985Z</time>
      </trkpt>
      <trkpt lat="45.90058" lon="4.98179">
        <ele>278.700012207</ele>
        <time>2015-11-11T10:50:59.97Z</time>
      </trkpt>
      <trkpt lat="45.90058" lon="4.98186">
        <ele>278.399993896</ele>
        <time>2015-11-11T10:51:01.002Z</time>
      </trkpt>
      <trkpt lat="45.90059" lon="4.98193">
        <ele>278.700012207</ele>
        <time>2015-11-11T10:51:01.97Z</time>
      </trkpt>
      <trkpt lat="45.90059" lon="4.98199">
        <ele>279.100006104</ele>
        <time>2015-11-11T10:51:02.987Z</time>
      </trkpt>
      <trkpt lat="45.90059" lon="4.98206">
        <ele>279</ele>
        <time>2015-11-11T10:51:03.97Z</time>
      </trkpt>
      <trkpt lat="45.90059" lon="4.98213">
        <ele>279.100006104</ele>
        <time>2015-11-11T10:51:04.985Z</time>
      </trkpt>
      <trkpt lat="45.90059" lon="4.9822">
        <ele>279</ele>
        <time>2015-11-11T10:51:05.97Z</time>
      </trkpt>
      <trkpt lat="45.9006" lon="4.98227">
        <ele>278.899993896</ele>
        <time>2015-11-11T10:51:06.987Z</time>
      </trkpt>
      <trkpt lat="45.9006" lon="4.98233">
        <ele>279</ele>
        <time>2015-11-11T10:51:07.97Z</time>
      </trkpt>
      <trkpt lat="45.90061" lon="4.9824">
        <ele>279.100006104</ele>
        <time>2015-11-11T10:51:08.987Z</time>
      </trkpt>
      <trkpt lat="45.90061" lon="4.98247">
        <ele>279.299987793</ele>
        <time>2015-11-11T10:51:09.97Z</time>
      </trkpt>
      <trkpt lat="45.90062" lon="4.98253">
        <ele>279.600006104</ele>
        <time>2015-11-11T10:51:10.985Z</time>
      </trkpt>
      <trkpt lat="45.90062" lon="4.9826">
        <ele>279.700012207</ele>
        <time>2015-11-11T10:51:12.047Z</time>
      </trkpt>
      <trkpt lat="45.90062" lon="4.98267">
        <ele>279.799987793</ele>
        <time>2015-11-11T10:51:12.984Z</time>
      </trkpt>
      <trkpt lat="45.90062" lon="4.98274">
        <ele>279.799987793</ele>
        <time>2015-11-11T10:51:13.97Z</time>
      </trkpt>
      <trkpt lat="45.90063" lon="4.98281">
        <ele>279.899993896</ele>
        <time>2015-11-11T10:51:15.047Z</time>
      </trkpt>
      <trkpt lat="45.90063" lon="4.98288">
        <ele>280.100006104</ele>
        <time>2015-11-11T10:51:15.97Z</time>
      </trkpt>
      <trkpt lat="45.90064" lon="4.98294">
        <ele>280</ele>
        <time>2015-11-11T10:51:16.985Z</time>
      </trkpt>
      <trkpt lat="45.90065" lon="4.98301">
        <ele>280.399993896</ele>
        <time>2015-11-11T10:51:17.97Z</time>
      </trkpt>
      <trkpt lat="45.90066" lon="4.98313">
        <ele>280.5</ele>
        <time>2015-11-11T10:51:19.984Z</time>
      </trkpt>
      <trkpt lat="45.90066" lon="4.9832">
        <ele>280.299987793</ele>
        <time>2015-11-11T10:51:20.973Z</time>
      </trkpt>
      <trkpt lat="45.90067" lon="4.98333">
        <ele>280.200012207</ele>
        <time>2015-11-11T10:51:22.985Z</time>
      </trkpt>
      <trkpt lat="45.90067" lon="4.98339">
        <ele>280.700012207</ele>
        <time>2015-11-11T10:51:23.97Z</time>
      </trkpt>
      <trkpt lat="45.90068" lon="4.98351">
        <ele>281</ele>
        <time>2015-11-11T10:51:25.984Z</time>
      </trkpt>
      <trkpt lat="45.90069" lon="4.98358">
        <ele>280.899993896</ele>
        <time>2015-11-11T10:51:26.973Z</time>
      </trkpt>
      <trkpt lat="45.90069" lon="4.98364">
        <ele>280.899993896</ele>
        <time>2015-11-11T10:51:27.984Z</time>
      </trkpt>
      <trkpt lat="45.9007" lon="4.9837">
        <ele>280.5</ele>
        <time>2015-11-11T10:51:29.008Z</time>
      </trkpt>
      <trkpt lat="45.90071" lon="4.98383">
        <ele>281</ele>
        <time>2015-11-11T10:51:30.984Z</time>
      </trkpt>
      <trkpt lat="45.90072" lon="4.9839">
        <ele>280.899993896</ele>
        <time>2015-11-11T10:51:31.97Z</time>
      </trkpt>
      <trkpt lat="45.90075" lon="4.98402">
        <ele>281.5</ele>
        <time>2015-11-11T10:51:33.995Z</time>
      </trkpt>
      <trkpt lat="45.90077" lon="4.98408">
        <ele>281.299987793</ele>
        <time>2015-11-11T10:51:34.971Z</time>
      </trkpt>
      <trkpt lat="45.90079" lon="4.98414">
        <ele>281.100006104</ele>
        <time>2015-11-11T10:51:35.984Z</time>
      </trkpt>
      <trkpt lat="45.90081" lon="4.9842">
        <ele>281.200012207</ele>
        <time>2015-11-11T10:51:36.97Z</time>
      </trkpt>
      <trkpt lat="45.90082" lon="4.98426">
        <ele>281.399993896</ele>
        <time>2015-11-11T10:51:37.985Z</time>
      </trkpt>
      <trkpt lat="45.90084" lon="4.98432">
        <ele>281.399993896</ele>
        <time>2015-11-11T10:51:38.973Z</time>
      </trkpt>
      <trkpt lat="45.90086" lon="4.98438">
        <ele>281.299987793</ele>
        <time>2015-11-11T10:51:39.987Z</time>
      </trkpt>
      <trkpt lat="45.90088" lon="4.98444">
        <ele>281.100006104</ele>
        <time>2015-11-11T10:51:40.971Z</time>
      </trkpt>
      <trkpt lat="45.9009" lon="4.9845">
        <ele>281.100006104</ele>
        <time>2015-11-11T10:51:42.018Z</time>
      </trkpt>
      <trkpt lat="45.90092" lon="4.98456">
        <ele>281.100006104</ele>
        <time>2015-11-11T10:51:42.983Z</time>
      </trkpt>
      <trkpt lat="45.90094" lon="4.98462">
        <ele>281.100006104</ele>
        <time>2015-11-11T10:51:43.984Z</time>
      </trkpt>
      <trkpt lat="45.90096" lon="4.98467">
        <ele>281</ele>
        <time>2015-11-11T10:51:44.973Z</time>
      </trkpt>
      <trkpt lat="45.90098" lon="4.98473">
        <ele>280.799987793</ele>
        <time>2015-11-11T10:51:45.984Z</time>
      </trkpt>
      <trkpt lat="45.901" lon="4.98479">
        <ele>281</ele>
        <time>2015-11-11T10:51:46.971Z</time>
      </trkpt>
      <trkpt lat="45.90102" lon="4.98485">
        <ele>281</ele>
        <time>2015-11-11T10:51:47.984Z</time>
      </trkpt>
      <trkpt lat="45.90104" lon="4.98492">
        <ele>281.100006104</ele>
        <time>2015-11-11T10:51:48.97Z</time>
      </trkpt>
      <trkpt lat="45.90107" lon="4.98498">
        <ele>280.899993896</ele>
        <time>2015-11-11T10:51:49.984Z</time>
      </trkpt>
      <trkpt lat="45.90109" lon="4.98504">
        <ele>280.5</ele>
        <time>2015-11-11T10:51:50.973Z</time>
      </trkpt>
      <trkpt lat="45.90111" lon="4.98511">
        <ele>280.399993896</ele>
        <time>2015-11-11T10:51:51.991Z</time>
      </trkpt>
      <trkpt lat="45.90113" lon="4.98517">
        <ele>280.200012207</ele>
        <time>2015-11-11T10:51:52.971Z</time>
      </trkpt>
      <trkpt lat="45.90116" lon="4.98523">
        <ele>280.299987793</ele>
        <time>2015-11-11T10:51:53.984Z</time>
      </trkpt>
      <trkpt lat="45.90118" lon="4.9853">
        <ele>280.100006104</ele>
        <time>2015-11-11T10:51:54.97Z</time>
      </trkpt>
      <trkpt lat="45.90121" lon="4.98537">
        <ele>279.600006104</ele>
        <time>2015-11-11T10:51:56.047Z</time>
      </trkpt>
      <trkpt lat="45.90123" lon="4.98544">
        <ele>279.600006104</ele>
        <time>2015-11-11T10:51:56.973Z</time>
      </trkpt>
      <trkpt lat="45.90126" lon="4.98551">
        <ele>279.600006104</ele>
        <time>2015-11-11T10:51:57.984Z</time>
      </trkpt>
      <trkpt lat="45.90128" lon="4.98557">
        <ele>279.600006104</ele>
        <time>2015-11-11T10:51:58.974Z</time>
      </trkpt>
      <trkpt lat="45.90131" lon="4.98564">
        <ele>279.899993896</ele>
        <time>2015-11-11T10:51:59.984Z</time>
      </trkpt>
      <trkpt lat="45.90133" lon="4.98571">
        <ele>279.700012207</ele>
        <time>2015-11-11T10:52:00.97Z</time>
      </trkpt>
      <trkpt lat="45.90135" lon="4.98578">
        <ele>279.600006104</ele>
        <time>2015-11-11T10:52:01.984Z</time>
      </trkpt>
      <trkpt lat="45.90137" lon="4.98584">
        <ele>279.899993896</ele>
        <time>2015-11-11T10:52:02.973Z</time>
      </trkpt>
      <trkpt lat="45.9014" lon="4.98591">
        <ele>279.799987793</ele>
        <time>2015-11-11T10:52:03.997Z</time>
      </trkpt>
      <trkpt lat="45.90142" lon="4.98597">
        <ele>279.600006104</ele>
        <time>2015-11-11T10:52:04.971Z</time>
      </trkpt>
      <trkpt lat="45.90144" lon="4.98604">
        <ele>279.299987793</ele>
        <time>2015-11-11T10:52:05.984Z</time>
      </trkpt>
      <trkpt lat="45.90147" lon="4.9861">
        <ele>279.299987793</ele>
        <time>2015-11-11T10:52:06.97Z</time>
      </trkpt>
      <trkpt lat="45.90149" lon="4.98617">
        <ele>279.5</ele>
        <time>2015-11-11T10:52:07.984Z</time>
      </trkpt>
      <trkpt lat="45.90151" lon="4.98623">
        <ele>279.600006104</ele>
        <time>2015-11-11T10:52:08.973Z</time>
      </trkpt>
      <trkpt lat="45.90154" lon="4.9863">
        <ele>279.899993896</ele>
        <time>2015-11-11T10:52:09.984Z</time>
      </trkpt>
      <trkpt lat="45.90156" lon="4.98637">
        <ele>279.899993896</ele>
        <time>2015-11-11T10:52:10.971Z</time>
      </trkpt>
      <trkpt lat="45.90159" lon="4.98644">
        <ele>279.799987793</ele>
        <time>2015-11-11T10:52:11.984Z</time>
      </trkpt>
      <trkpt lat="45.90161" lon="4.9865">
        <ele>279.600006104</ele>
        <time>2015-11-11T10:52:12.97Z</time>
      </trkpt>
      <trkpt lat="45.90164" lon="4.98657">
        <ele>279.600006104</ele>
        <time>2015-11-11T10:52:13.984Z</time>
      </trkpt>
      <trkpt lat="45.90166" lon="4.98664">
        <ele>279.5</ele>
        <time>2015-11-11T10:52:14.973Z</time>
      </trkpt>
      <trkpt lat="45.90169" lon="4.9867">
        <ele>279.5</ele>
        <time>2015-11-11T10:52:15.984Z</time>
      </trkpt>
      <trkpt lat="45.90171" lon="4.98678">
        <ele>279.299987793</ele>
        <time>2015-11-11T10:52:16.971Z</time>
      </trkpt>
      <trkpt lat="45.90174" lon="4.98685">
        <ele>279.299987793</ele>
        <time>2015-11-11T10:52:17.984Z</time>
      </trkpt>
      <trkpt lat="45.90176" lon="4.98692">
        <ele>279.299987793</ele>
        <time>2015-11-11T10:52:18.97Z</time>
      </trkpt>
      <trkpt lat="45.90179" lon="4.98699">
        <ele>279.600006104</ele>
        <time>2015-11-11T10:52:19.997Z</time>
      </trkpt>
      <trkpt lat="45.90181" lon="4.98707">
        <ele>279.5</ele>
        <time>2015-11-11T10:52:20.973Z</time>
      </trkpt>
      <trkpt lat="45.90184" lon="4.98714">
        <ele>279.600006104</ele>
        <time>2015-11-11T10:52:21.984Z</time>
      </trkpt>
      <trkpt lat="45.90186" lon="4.98721">
        <ele>279.5</ele>
        <time>2015-11-11T10:52:22.971Z</time>
      </trkpt>
      <trkpt lat="45.90188" lon="4.98729">
        <ele>279.299987793</ele>
        <time>2015-11-11T10:52:24.021Z</time>
      </trkpt>
      <trkpt lat="45.9019" lon="4.98737">
        <ele>279.5</ele>
        <time>2015-11-11T10:52:24.972Z</time>
      </trkpt>
      <trkpt lat="45.90193" lon="4.98745">
        <ele>279.399993896</ele>
        <time>2015-11-11T10:52:26.097Z</time>
      </trkpt>
      <trkpt lat="45.90196" lon="4.98753">
        <ele>279.299987793</ele>
        <time>2015-11-11T10:52:26.973Z</time>
      </trkpt>
      <trkpt lat="45.90198" lon="4.98761">
        <ele>279.299987793</ele>
        <time>2015-11-11T10:52:27.984Z</time>
      </trkpt>
      <trkpt lat="45.90201" lon="4.98769">
        <ele>279.200012207</ele>
        <time>2015-11-11T10:52:28.971Z</time>
      </trkpt>
      <trkpt lat="45.90203" lon="4.98777">
        <ele>278.5</ele>
        <time>2015-11-11T10:52:29.984Z</time>
      </trkpt>
      <trkpt lat="45.90205" lon="4.98785">
        <ele>278.399993896</ele>
        <time>2015-11-11T10:52:30.97Z</time>
      </trkpt>
      <trkpt lat="45.90207" lon="4.98792">
        <ele>277.799987793</ele>
        <time>2015-11-11T10:52:31.984Z</time>
      </trkpt>
      <trkpt lat="45.90209" lon="4.988">
        <ele>277.5</ele>
        <time>2015-11-11T10:52:32.973Z</time>
      </trkpt>
      <trkpt lat="45.90212" lon="4.98807">
        <ele>277.899993896</ele>
        <time>2015-11-11T10:52:33.984Z</time>
      </trkpt>
      <trkpt lat="45.90214" lon="4.98814">
        <ele>277.600006104</ele>
        <time>2015-11-11T10:52:34.971Z</time>
      </trkpt>
      <trkpt lat="45.90216" lon="4.98821">
        <ele>277.5</ele>
        <time>2015-11-11T10:52:36Z</time>
      </trkpt>
      <trkpt lat="45.90218" lon="4.98829">
        <ele>277.799987793</ele>
        <time>2015-11-11T10:52:36.97Z</time>
      </trkpt>
      <trkpt lat="45.90219" lon="4.98837">
        <ele>277.600006104</ele>
        <time>2015-11-11T10:52:37.984Z</time>
      </trkpt>
      <trkpt lat="45.90221" lon="4.98845">
        <ele>277.600006104</ele>
        <time>2015-11-11T10:52:38.973Z</time>
      </trkpt>
      <trkpt lat="45.90222" lon="4.98853">
        <ele>277.5</ele>
        <time>2015-11-11T10:52:40.096Z</time>
      </trkpt>
      <trkpt lat="45.90223" lon="4.98861">
        <ele>278</ele>
        <time>2015-11-11T10:52:40.971Z</time>
      </trkpt>
      <trkpt lat="45.90224" lon="4.9887">
        <ele>277.899993896</ele>
        <time>2015-11-11T10:52:41.984Z</time>
      </trkpt>
      <trkpt lat="45.90224" lon="4.98878">
        <ele>278.100006104</ele>
        <time>2015-11-11T10:52:42.97Z</time>
      </trkpt>
      <trkpt lat="45.90224" lon="4.98887">
        <ele>278.100006104</ele>
        <time>2015-11-11T10:52:43.984Z</time>
      </trkpt>
      <trkpt lat="45.90225" lon="4.98896">
        <ele>277.799987793</ele>
        <time>2015-11-11T10:52:44.973Z</time>
      </trkpt>
      <trkpt lat="45.90225" lon="4.98905">
        <ele>277.700012207</ele>
        <time>2015-11-11T10:52:46.003Z</time>
      </trkpt>
      <trkpt lat="45.90225" lon="4.98913">
        <ele>277.399993896</ele>
        <time>2015-11-11T10:52:46.971Z</time>
      </trkpt>
      <trkpt lat="45.90226" lon="4.98922">
        <ele>277.600006104</ele>
        <time>2015-11-11T10:52:47.984Z</time>
      </trkpt>
      <trkpt lat="45.90226" lon="4.9893">
        <ele>277.299987793</ele>
        <time>2015-11-11T10:52:48.97Z</time>
      </trkpt>
      <trkpt lat="45.90227" lon="4.98938">
        <ele>277.299987793</ele>
        <time>2015-11-11T10:52:49.984Z</time>
      </trkpt>
      <trkpt lat="45.90227" lon="4.98945">
        <ele>277.299987793</ele>
        <time>2015-11-11T10:52:50.975Z</time>
      </trkpt>
      <trkpt lat="45.90227" lon="4.98954">
        <ele>277</ele>
        <time>2015-11-11T10:52:51.999Z</time>
      </trkpt>
      <trkpt lat="45.90227" lon="4.98961">
        <ele>276.899993896</ele>
        <time>2015-11-11T10:52:52.971Z</time>
      </trkpt>
      <trkpt lat="45.90227" lon="4.98969">
        <ele>277.299987793</ele>
        <time>2015-11-11T10:52:53.984Z</time>
      </trkpt>
      <trkpt lat="45.90228" lon="4.98977">
        <ele>277.299987793</ele>
        <time>2015-11-11T10:52:54.97Z</time>
      </trkpt>
      <trkpt lat="45.90228" lon="4.98985">
        <ele>277.5</ele>
        <time>2015-11-11T10:52:55.984Z</time>
      </trkpt>
      <trkpt lat="45.90228" lon="4.98993">
        <ele>277.399993896</ele>
        <time>2015-11-11T10:52:56.973Z</time>
      </trkpt>
      <trkpt lat="45.90229" lon="4.99001">
        <ele>277.299987793</ele>
        <time>2015-11-11T10:52:57.984Z</time>
      </trkpt>
      <trkpt lat="45.90229" lon="4.99009">
        <ele>277.100006104</ele>
        <time>2015-11-11T10:52:58.971Z</time>
      </trkpt>
      <trkpt lat="45.9023" lon="4.99017">
        <ele>277.299987793</ele>
        <time>2015-11-11T10:52:59.984Z</time>
      </trkpt>
      <trkpt lat="45.9023" lon="4.99025">
        <ele>277.399993896</ele>
        <time>2015-11-11T10:53:00.97Z</time>
      </trkpt>
      <trkpt lat="45.9023" lon="4.99033">
        <ele>277.5</ele>
        <time>2015-11-11T10:53:01.987Z</time>
      </trkpt>
      <trkpt lat="45.9023" lon="4.99041">
        <ele>277.299987793</ele>
        <time>2015-11-11T10:53:02.973Z</time>
      </trkpt>
      <trkpt lat="45.9023" lon="4.99049">
        <ele>277.299987793</ele>
        <time>2015-11-11T10:53:03.984Z</time>
      </trkpt>
      <trkpt lat="45.9023" lon="4.99057">
        <ele>277.399993896</ele>
        <time>2015-11-11T10:53:04.971Z</time>
      </trkpt>
      <trkpt lat="45.9023" lon="4.99065">
        <ele>277.100006104</ele>
        <time>2015-11-11T10:53:05.984Z</time>
      </trkpt>
      <trkpt lat="45.90231" lon="4.99074">
        <ele>276.899993896</ele>
        <time>2015-11-11T10:53:06.97Z</time>
      </trkpt>
      <trkpt lat="45.90231" lon="4.99082">
        <ele>277</ele>
        <time>2015-11-11T10:53:07.984Z</time>
      </trkpt>
      <trkpt lat="45.90231" lon="4.99091">
        <ele>277</ele>
        <time>2015-11-11T10:53:08.973Z</time>
      </trkpt>
      <trkpt lat="45.90232" lon="4.99098">
        <ele>277.299987793</ele>
        <time>2015-11-11T10:53:09.983Z</time>
      </trkpt>
      <trkpt lat="45.90232" lon="4.99106">
        <ele>277.600006104</ele>
        <time>2015-11-11T10:53:10.971Z</time>
      </trkpt>
      <trkpt lat="45.90232" lon="4.99115">
        <ele>277.799987793</ele>
        <time>2015-11-11T10:53:11.984Z</time>
      </trkpt>
      <trkpt lat="45.90233" lon="4.99123">
        <ele>277.600006104</ele>
        <time>2015-11-11T10:53:12.97Z</time>
      </trkpt>
      <trkpt lat="45.90233" lon="4.99131">
        <ele>277.600006104</ele>
        <time>2015-11-11T10:53:13.984Z</time>
      </trkpt>
      <trkpt lat="45.90234" lon="4.99138">
        <ele>277.5</ele>
        <time>2015-11-11T10:53:14.973Z</time>
      </trkpt>
      <trkpt lat="45.90234" lon="4.99146">
        <ele>277.600006104</ele>
        <time>2015-11-11T10:53:15.991Z</time>
      </trkpt>
      <trkpt lat="45.90234" lon="4.99153">
        <ele>277.399993896</ele>
        <time>2015-11-11T10:53:16.973Z</time>
      </trkpt>
      <trkpt lat="45.90235" lon="4.9916">
        <ele>277.299987793</ele>
        <time>2015-11-11T10:53:17.984Z</time>
      </trkpt>
      <trkpt lat="45.90236" lon="4.99167">
        <ele>277.200012207</ele>
        <time>2015-11-11T10:53:18.97Z</time>
      </trkpt>
      <trkpt lat="45.90236" lon="4.99174">
        <ele>277.200012207</ele>
        <time>2015-11-11T10:53:19.984Z</time>
      </trkpt>
      <trkpt lat="45.90236" lon="4.99182">
        <ele>277.200012207</ele>
        <time>2015-11-11T10:53:20.973Z</time>
      </trkpt>
      <trkpt lat="45.90237" lon="4.99189">
        <ele>277.200012207</ele>
        <time>2015-11-11T10:53:21.984Z</time>
      </trkpt>
      <trkpt lat="45.90237" lon="4.99196">
        <ele>277.299987793</ele>
        <time>2015-11-11T10:53:22.985Z</time>
      </trkpt>
      <trkpt lat="45.90237" lon="4.99203">
        <ele>277.399993896</ele>
        <time>2015-11-11T10:53:23.984Z</time>
      </trkpt>
      <trkpt lat="45.90238" lon="4.9921">
        <ele>277.299987793</ele>
        <time>2015-11-11T10:53:24.97Z</time>
      </trkpt>
      <trkpt lat="45.90238" lon="4.99218">
        <ele>277.200012207</ele>
        <time>2015-11-11T10:53:25.984Z</time>
      </trkpt>
      <trkpt lat="45.90238" lon="4.99225">
        <ele>276.799987793</ele>
        <time>2015-11-11T10:53:26.973Z</time>
      </trkpt>
      <trkpt lat="45.90239" lon="4.99232">
        <ele>276.899993896</ele>
        <time>2015-11-11T10:53:27.984Z</time>
      </trkpt>
      <trkpt lat="45.90239" lon="4.9924">
        <ele>276.899993896</ele>
        <time>2015-11-11T10:53:28.971Z</time>
      </trkpt>
      <trkpt lat="45.90239" lon="4.99248">
        <ele>276.799987793</ele>
        <time>2015-11-11T10:53:29.984Z</time>
      </trkpt>
      <trkpt lat="45.90239" lon="4.99255">
        <ele>276.899993896</ele>
        <time>2015-11-11T10:53:30.97Z</time>
      </trkpt>
      <trkpt lat="45.90239" lon="4.99263">
        <ele>276.899993896</ele>
        <time>2015-11-11T10:53:31.984Z</time>
      </trkpt>
      <trkpt lat="45.9024" lon="4.9927">
        <ele>276.899993896</ele>
        <time>2015-11-11T10:53:32.973Z</time>
      </trkpt>
      <trkpt lat="45.9024" lon="4.99278">
        <ele>277.100006104</ele>
        <time>2015-11-11T10:53:33.998Z</time>
      </trkpt>
      <trkpt lat="45.9024" lon="4.99285">
        <ele>277.100006104</ele>
        <time>2015-11-11T10:53:34.971Z</time>
      </trkpt>
      <trkpt lat="45.90239" lon="4.99293">
        <ele>277.200012207</ele>
        <time>2015-11-11T10:53:35.984Z</time>
      </trkpt>
      <trkpt lat="45.90239" lon="4.99301">
        <ele>277.100006104</ele>
        <time>2015-11-11T10:53:36.969Z</time>
      </trkpt>
      <trkpt lat="45.90239" lon="4.99308">
        <ele>277.299987793</ele>
        <time>2015-11-11T10:53:37.984Z</time>
      </trkpt>
      <trkpt lat="45.90239" lon="4.99315">
        <ele>277.299987793</ele>
        <time>2015-11-11T10:53:38.973Z</time>
      </trkpt>
      <trkpt lat="45.90239" lon="4.99322">
        <ele>277.299987793</ele>
        <time>2015-11-11T10:53:39.988Z</time>
      </trkpt>
      <trkpt lat="45.90239" lon="4.99329">
        <ele>277.399993896</ele>
        <time>2015-11-11T10:53:40.973Z</time>
      </trkpt>
      <trkpt lat="45.90238" lon="4.99336">
        <ele>277.600006104</ele>
        <time>2015-11-11T10:53:41.985Z</time>
      </trkpt>
      <trkpt lat="45.90238" lon="4.99342">
        <ele>277.399993896</ele>
        <time>2015-11-11T10:53:42.974Z</time>
      </trkpt>
      <trkpt lat="45.90238" lon="4.99349">
        <ele>277.700012207</ele>
        <time>2015-11-11T10:53:43.985Z</time>
      </trkpt>
      <trkpt lat="45.90237" lon="4.99356">
        <ele>277.899993896</ele>
        <time>2015-11-11T10:53:44.973Z</time>
      </trkpt>
      <trkpt lat="45.90237" lon="4.99363">
        <ele>278.100006104</ele>
        <time>2015-11-11T10:53:45.984Z</time>
      </trkpt>
      <trkpt lat="45.90236" lon="4.9937">
        <ele>278.399993896</ele>
        <time>2015-11-11T10:53:46.971Z</time>
      </trkpt>
      <trkpt lat="45.90236" lon="4.99383">
        <ele>278.700012207</ele>
        <time>2015-11-11T10:53:48.984Z</time>
      </trkpt>
      <trkpt lat="45.90235" lon="4.9939">
        <ele>278.899993896</ele>
        <time>2015-11-11T10:53:49.97Z</time>
      </trkpt>
      <trkpt lat="45.90235" lon="4.99396">
        <ele>279.399993896</ele>
        <time>2015-11-11T10:53:50.987Z</time>
      </trkpt>
      <trkpt lat="45.90234" lon="4.99403">
        <ele>279.700012207</ele>
        <time>2015-11-11T10:53:51.97Z</time>
      </trkpt>
      <trkpt lat="45.90233" lon="4.99409">
        <ele>279.899993896</ele>
        <time>2015-11-11T10:53:52.985Z</time>
      </trkpt>
      <trkpt lat="45.90232" lon="4.99416">
        <ele>279.899993896</ele>
        <time>2015-11-11T10:53:54.079Z</time>
      </trkpt>
      <trkpt lat="45.90231" lon="4.99428">
        <ele>280.399993896</ele>
        <time>2015-11-11T10:53:55.984Z</time>
      </trkpt>
      <trkpt lat="45.90231" lon="4.99435">
        <ele>280.5</ele>
        <time>2015-11-11T10:53:56.973Z</time>
      </trkpt>
      <trkpt lat="45.9023" lon="4.99441">
        <ele>280.799987793</ele>
        <time>2015-11-11T10:53:57.984Z</time>
      </trkpt>
      <trkpt lat="45.9023" lon="4.99448">
        <ele>281.100006104</ele>
        <time>2015-11-11T10:53:58.971Z</time>
      </trkpt>
      <trkpt lat="45.90229" lon="4.9946">
        <ele>281.5</ele>
        <time>2015-11-11T10:54:00.991Z</time>
      </trkpt>
      <trkpt lat="45.90228" lon="4.99465">
        <ele>281.700012207</ele>
        <time>2015-11-11T10:54:01.97Z</time>
      </trkpt>
      <trkpt lat="45.90226" lon="4.99477">
        <ele>282</ele>
        <time>2015-11-11T10:54:03.984Z</time>
      </trkpt>
      <trkpt lat="45.90225" lon="4.99482">
        <ele>282.200012207</ele>
        <time>2015-11-11T10:54:04.971Z</time>
      </trkpt>
      <trkpt lat="45.90223" lon="4.99493">
        <ele>282.700012207</ele>
        <time>2015-11-11T10:54:06.984Z</time>
      </trkpt>
      <trkpt lat="45.90222" lon="4.99498">
        <ele>282.799987793</ele>
        <time>2015-11-11T10:54:07.97Z</time>
      </trkpt>
      <trkpt lat="45.9022" lon="4.99508">
        <ele>283.700012207</ele>
        <time>2015-11-11T10:54:09.983Z</time>
      </trkpt>
      <trkpt lat="45.90219" lon="4.99513">
        <ele>283.700012207</ele>
        <time>2015-11-11T10:54:10.984Z</time>
      </trkpt>
      <trkpt lat="45.90216" lon="4.99525">
        <ele>284</ele>
        <time>2015-11-11T10:54:12.984Z</time>
      </trkpt>
      <trkpt lat="45.90215" lon="4.9953">
        <ele>284.299987793</ele>
        <time>2015-11-11T10:54:13.97Z</time>
      </trkpt>
      <trkpt lat="45.90214" lon="4.99541">
        <ele>284.299987793</ele>
        <time>2015-11-11T10:54:15.984Z</time>
      </trkpt>
      <trkpt lat="45.90213" lon="4.99547">
        <ele>284.600006104</ele>
        <time>2015-11-11T10:54:16.971Z</time>
      </trkpt>
      <trkpt lat="45.90211" lon="4.9956">
        <ele>285.399993896</ele>
        <time>2015-11-11T10:54:18.984Z</time>
      </trkpt>
      <trkpt lat="45.90211" lon="4.99566">
        <ele>285.5</ele>
        <time>2015-11-11T10:54:19.969Z</time>
      </trkpt>
      <trkpt lat="45.9021" lon="4.99578">
        <ele>285.899993896</ele>
        <time>2015-11-11T10:54:21.997Z</time>
      </trkpt>
      <trkpt lat="45.9021" lon="4.99583">
        <ele>285.899993896</ele>
        <time>2015-11-11T10:54:22.971Z</time>
      </trkpt>
      <trkpt lat="45.90209" lon="4.99595">
        <ele>286.100006104</ele>
        <time>2015-11-11T10:54:24.984Z</time>
      </trkpt>
      <trkpt lat="45.90209" lon="4.99601">
        <ele>286.100006104</ele>
        <time>2015-11-11T10:54:25.97Z</time>
      </trkpt>
      <trkpt lat="45.90209" lon="4.99612">
        <ele>286.299987793</ele>
        <time>2015-11-11T10:54:27.984Z</time>
      </trkpt>
      <trkpt lat="45.9021" lon="4.99618">
        <ele>286.200012207</ele>
        <time>2015-11-11T10:54:28.971Z</time>
      </trkpt>
      <trkpt lat="45.90211" lon="4.99629">
        <ele>286.600006104</ele>
        <time>2015-11-11T10:54:30.984Z</time>
      </trkpt>
      <trkpt lat="45.90212" lon="4.99635">
        <ele>286.5</ele>
        <time>2015-11-11T10:54:31.97Z</time>
      </trkpt>
      <trkpt lat="45.90215" lon="4.99646">
        <ele>286.600006104</ele>
        <time>2015-11-11T10:54:33.984Z</time>
      </trkpt>
      <trkpt lat="45.90216" lon="4.99652">
        <ele>286.5</ele>
        <time>2015-11-11T10:54:34.973Z</time>
      </trkpt>
      <trkpt lat="45.90219" lon="4.99663">
        <ele>286.799987793</ele>
        <time>2015-11-11T10:54:36.984Z</time>
      </trkpt>
      <trkpt lat="45.90221" lon="4.99668">
        <ele>286.399993896</ele>
        <time>2015-11-11T10:54:37.97Z</time>
      </trkpt>
      <trkpt lat="45.90224" lon="4.9968">
        <ele>286.100006104</ele>
        <time>2015-11-11T10:54:40.05Z</time>
      </trkpt>
      <trkpt lat="45.90225" lon="4.99687">
        <ele>286</ele>
        <time>2015-11-11T10:54:40.971Z</time>
      </trkpt>
      <trkpt lat="45.90227" lon="4.99694">
        <ele>285.5</ele>
        <time>2015-11-11T10:54:41.984Z</time>
      </trkpt>
      <trkpt lat="45.90227" lon="4.99701">
        <ele>285.200012207</ele>
        <time>2015-11-11T10:54:42.984Z</time>
      </trkpt>
      <trkpt lat="45.90228" lon="4.99708">
        <ele>285.100006104</ele>
        <time>2015-11-11T10:54:43.984Z</time>
      </trkpt>
      <trkpt lat="45.90228" lon="4.99715">
        <ele>284.600006104</ele>
        <time>2015-11-11T10:54:44.973Z</time>
      </trkpt>
      <trkpt lat="45.90229" lon="4.99721">
        <ele>284.600006104</ele>
        <time>2015-11-11T10:54:45.991Z</time>
      </trkpt>
      <trkpt lat="45.9023" lon="4.99728">
        <ele>284.799987793</ele>
        <time>2015-11-11T10:54:46.97Z</time>
      </trkpt>
      <trkpt lat="45.90231" lon="4.99735">
        <ele>284.799987793</ele>
        <time>2015-11-11T10:54:48.018Z</time>
      </trkpt>
      <trkpt lat="45.90232" lon="4.99741">
        <ele>284.600006104</ele>
        <time>2015-11-11T10:54:48.969Z</time>
      </trkpt>
      <trkpt lat="45.90233" lon="4.99748">
        <ele>284.700012207</ele>
        <time>2015-11-11T10:54:49.984Z</time>
      </trkpt>
      <trkpt lat="45.90233" lon="4.99755">
        <ele>284.299987793</ele>
        <time>2015-11-11T10:54:50.972Z</time>
      </trkpt>
      <trkpt lat="45.90234" lon="4.99762">
        <ele>283.799987793</ele>
        <time>2015-11-11T10:54:51.984Z</time>
      </trkpt>
      <trkpt lat="45.90235" lon="4.99769">
        <ele>283.399993896</ele>
        <time>2015-11-11T10:54:52.971Z</time>
      </trkpt>
      <trkpt lat="45.90236" lon="4.99776">
        <ele>283.100006104</ele>
        <time>2015-11-11T10:54:54.094Z</time>
      </trkpt>
      <trkpt lat="45.90237" lon="4.99783">
        <ele>282.899993896</ele>
        <time>2015-11-11T10:54:54.97Z</time>
      </trkpt>
      <trkpt lat="45.90238" lon="4.99791">
        <ele>283</ele>
        <time>2015-11-11T10:54:55.983Z</time>
      </trkpt>
      <trkpt lat="45.90238" lon="4.99798">
        <ele>283.100006104</ele>
        <time>2015-11-11T10:54:56.972Z</time>
      </trkpt>
      <trkpt lat="45.90239" lon="4.99805">
        <ele>282.700012207</ele>
        <time>2015-11-11T10:54:57.983Z</time>
      </trkpt>
      <trkpt lat="45.90239" lon="4.99813">
        <ele>282.600006104</ele>
        <time>2015-11-11T10:54:58.971Z</time>
      </trkpt>
      <trkpt lat="45.90239" lon="4.9982">
        <ele>282.399993896</ele>
        <time>2015-11-11T10:54:59.983Z</time>
      </trkpt>
      <trkpt lat="45.9024" lon="4.99828">
        <ele>282.399993896</ele>
        <time>2015-11-11T10:55:00.972Z</time>
      </trkpt>
      <trkpt lat="45.9024" lon="4.99836">
        <ele>282.299987793</ele>
        <time>2015-11-11T10:55:01.984Z</time>
      </trkpt>
      <trkpt lat="45.90241" lon="4.99843">
        <ele>281.899993896</ele>
        <time>2015-11-11T10:55:02.972Z</time>
      </trkpt>
      <trkpt lat="45.90242" lon="4.99851">
        <ele>281.600006104</ele>
        <time>2015-11-11T10:55:03.984Z</time>
      </trkpt>
      <trkpt lat="45.90245" lon="4.99858">
        <ele>281</ele>
        <time>2015-11-11T10:55:04.97Z</time>
      </trkpt>
      <trkpt lat="45.90248" lon="4.99864">
        <ele>280.700012207</ele>
        <time>2015-11-11T10:55:05.984Z</time>
      </trkpt>
      <trkpt lat="45.90252" lon="4.9987">
        <ele>280.399993896</ele>
        <time>2015-11-11T10:55:06.969Z</time>
      </trkpt>
      <trkpt lat="45.90256" lon="4.99877">
        <ele>279.899993896</ele>
        <time>2015-11-11T10:55:08.088Z</time>
      </trkpt>
      <trkpt lat="45.90259" lon="4.99885">
        <ele>279.799987793</ele>
        <time>2015-11-11T10:55:08.973Z</time>
      </trkpt>
      <trkpt lat="45.90261" lon="4.99894">
        <ele>279.600006104</ele>
        <time>2015-11-11T10:55:09.998Z</time>
      </trkpt>
      <trkpt lat="45.90262" lon="4.99903">
        <ele>280.100006104</ele>
        <time>2015-11-11T10:55:10.971Z</time>
      </trkpt>
      <trkpt lat="45.90262" lon="4.99913">
        <ele>279.399993896</ele>
        <time>2015-11-11T10:55:11.984Z</time>
      </trkpt>
      <trkpt lat="45.90261" lon="4.99922">
        <ele>279</ele>
        <time>2015-11-11T10:55:12.97Z</time>
      </trkpt>
      <trkpt lat="45.9026" lon="4.99931">
        <ele>279</ele>
        <time>2015-11-11T10:55:13.983Z</time>
      </trkpt>
      <trkpt lat="45.90259" lon="4.9994">
        <ele>278.899993896</ele>
        <time>2015-11-11T10:55:14.972Z</time>
      </trkpt>
      <trkpt lat="45.90258" lon="4.9995">
        <ele>278.899993896</ele>
        <time>2015-11-11T10:55:15.983Z</time>
      </trkpt>
      <trkpt lat="45.90257" lon="4.9996">
        <ele>278.799987793</ele>
        <time>2015-11-11T10:55:16.97Z</time>
      </trkpt>
      <trkpt lat="45.90256" lon="4.99969">
        <ele>278.799987793</ele>
        <time>2015-11-11T10:55:17.984Z</time>
      </trkpt>
      <trkpt lat="45.90255" lon="4.99979">
        <ele>278.600006104</ele>
        <time>2015-11-11T10:55:18.97Z</time>
      </trkpt>
      <trkpt lat="45.90254" lon="4.99988">
        <ele>278.5</ele>
        <time>2015-11-11T10:55:19.983Z</time>
      </trkpt>
      <trkpt lat="45.90253" lon="4.99998">
        <ele>278.399993896</ele>
        <time>2015-11-11T10:55:20.972Z</time>
      </trkpt>
      <trkpt lat="45.90252" lon="5.00008">
        <ele>278.299987793</ele>
        <time>2015-11-11T10:55:21.984Z</time>
      </trkpt>
      <trkpt lat="45.90251" lon="5.00018">
        <ele>277.899993896</ele>
        <time>2015-11-11T10:55:22.97Z</time>
      </trkpt>
      <trkpt lat="45.9025" lon="5.00028">
        <ele>277.5</ele>
        <time>2015-11-11T10:55:23.984Z</time>
      </trkpt>
      <trkpt lat="45.90249" lon="5.00039">
        <ele>277.399993896</ele>
        <time>2015-11-11T10:55:24.97Z</time>
      </trkpt>
      <trkpt lat="45.90248" lon="5.00049">
        <ele>277.100006104</ele>
        <time>2015-11-11T10:55:25.984Z</time>
      </trkpt>
      <trkpt lat="45.90247" lon="5.00059">
        <ele>276.799987793</ele>
        <time>2015-11-11T10:55:26.975Z</time>
      </trkpt>
      <trkpt lat="45.90246" lon="5.0007">
        <ele>277.700012207</ele>
        <time>2015-11-11T10:55:27.984Z</time>
      </trkpt>
      <trkpt lat="45.90245" lon="5.00081">
        <ele>277.899993896</ele>
        <time>2015-11-11T10:55:28.971Z</time>
      </trkpt>
      <trkpt lat="45.90245" lon="5.00092">
        <ele>277.700012207</ele>
        <time>2015-11-11T10:55:29.983Z</time>
      </trkpt>
      <trkpt lat="45.90245" lon="5.00102">
        <ele>278</ele>
        <time>2015-11-11T10:55:30.984Z</time>
      </trkpt>
      <trkpt lat="45.90243" lon="5.00112">
        <ele>277.899993896</ele>
        <time>2015-11-11T10:55:31.984Z</time>
      </trkpt>
      <trkpt lat="45.90242" lon="5.00123">
        <ele>277.5</ele>
        <time>2015-11-11T10:55:32.972Z</time>
      </trkpt>
      <trkpt lat="45.90241" lon="5.00133">
        <ele>277.100006104</ele>
        <time>2015-11-11T10:55:33.984Z</time>
      </trkpt>
      <trkpt lat="45.9024" lon="5.00143">
        <ele>276.899993896</ele>
        <time>2015-11-11T10:55:34.97Z</time>
      </trkpt>
      <trkpt lat="45.9024" lon="5.00154">
        <ele>276.399993896</ele>
        <time>2015-11-11T10:55:35.984Z</time>
      </trkpt>
      <trkpt lat="45.90239" lon="5.00165">
        <ele>276</ele>
        <time>2015-11-11T10:55:36.969Z</time>
      </trkpt>
      <trkpt lat="45.90238" lon="5.00175">
        <ele>275.5</ele>
        <time>2015-11-11T10:55:37.984Z</time>
      </trkpt>
      <trkpt lat="45.90237" lon="5.00186">
        <ele>274.700012207</ele>
        <time>2015-11-11T10:55:38.972Z</time>
      </trkpt>
      <trkpt lat="45.90236" lon="5.00197">
        <ele>274.600006104</ele>
        <time>2015-11-11T10:55:39.986Z</time>
      </trkpt>
      <trkpt lat="45.90235" lon="5.00207">
        <ele>274.700012207</ele>
        <time>2015-11-11T10:55:40.97Z</time>
      </trkpt>
      <trkpt lat="45.90234" lon="5.00218">
        <ele>274.200012207</ele>
        <time>2015-11-11T10:55:41.984Z</time>
      </trkpt>
      <trkpt lat="45.90232" lon="5.00228">
        <ele>274.399993896</ele>
        <time>2015-11-11T10:55:42.969Z</time>
      </trkpt>
      <trkpt lat="45.90232" lon="5.00238">
        <ele>274.100006104</ele>
        <time>2015-11-11T10:55:43.983Z</time>
      </trkpt>
      <trkpt lat="45.90231" lon="5.00248">
        <ele>273.899993896</ele>
        <time>2015-11-11T10:55:44.973Z</time>
      </trkpt>
      <trkpt lat="45.9023" lon="5.00258">
        <ele>273.399993896</ele>
        <time>2015-11-11T10:55:45.984Z</time>
      </trkpt>
      <trkpt lat="45.90229" lon="5.00268">
        <ele>272.799987793</ele>
        <time>2015-11-11T10:55:46.983Z</time>
      </trkpt>
      <trkpt lat="45.90229" lon="5.00278">
        <ele>272.899993896</ele>
        <time>2015-11-11T10:55:47.984Z</time>
      </trkpt>
      <trkpt lat="45.90228" lon="5.00288">
        <ele>272.600006104</ele>
        <time>2015-11-11T10:55:48.969Z</time>
      </trkpt>
      <trkpt lat="45.90228" lon="5.00297">
        <ele>272.799987793</ele>
        <time>2015-11-11T10:55:49.984Z</time>
      </trkpt>
      <trkpt lat="45.90227" lon="5.00305">
        <ele>273</ele>
        <time>2015-11-11T10:55:50.972Z</time>
      </trkpt>
      <trkpt lat="45.90227" lon="5.00314">
        <ele>273.200012207</ele>
        <time>2015-11-11T10:55:52.106Z</time>
      </trkpt>
      <trkpt lat="45.90227" lon="5.00322">
        <ele>273.200012207</ele>
        <time>2015-11-11T10:55:52.973Z</time>
      </trkpt>
      <trkpt lat="45.90229" lon="5.00329">
        <ele>273.100006104</ele>
        <time>2015-11-11T10:55:53.983Z</time>
      </trkpt>
      <trkpt lat="45.9023" lon="5.00337">
        <ele>272.799987793</ele>
        <time>2015-11-11T10:55:54.969Z</time>
      </trkpt>
      <trkpt lat="45.90232" lon="5.00343">
        <ele>272.799987793</ele>
        <time>2015-11-11T10:55:55.983Z</time>
      </trkpt>
      <trkpt lat="45.90234" lon="5.00349">
        <ele>272.799987793</ele>
        <time>2015-11-11T10:55:56.972Z</time>
      </trkpt>
      <trkpt lat="45.90237" lon="5.00355">
        <ele>272.799987793</ele>
        <time>2015-11-11T10:55:57.983Z</time>
      </trkpt>
      <trkpt lat="45.9024" lon="5.0036">
        <ele>272.899993896</ele>
        <time>2015-11-11T10:55:58.97Z</time>
      </trkpt>
      <trkpt lat="45.90244" lon="5.00366">
        <ele>273.299987793</ele>
        <time>2015-11-11T10:55:59.983Z</time>
      </trkpt>
      <trkpt lat="45.90247" lon="5.0037">
        <ele>273.200012207</ele>
        <time>2015-11-11T10:56:00.971Z</time>
      </trkpt>
      <trkpt lat="45.90251" lon="5.00375">
        <ele>273.399993896</ele>
        <time>2015-11-11T10:56:01.985Z</time>
      </trkpt>
      <trkpt lat="45.90254" lon="5.00379">
        <ele>273.399993896</ele>
        <time>2015-11-11T10:56:02.974Z</time>
      </trkpt>
      <trkpt lat="45.90258" lon="5.00384">
        <ele>273.299987793</ele>
        <time>2015-11-11T10:56:03.986Z</time>
      </trkpt>
      <trkpt lat="45.90261" lon="5.00388">
        <ele>273.700012207</ele>
        <time>2015-11-11T10:56:04.971Z</time>
      </trkpt>
      <trkpt lat="45.90268" lon="5.00397">
        <ele>274</ele>
        <time>2015-11-11T10:56:07.002Z</time>
      </trkpt>
      <trkpt lat="45.90271" lon="5.004">
        <ele>273.899993896</ele>
        <time>2015-11-11T10:56:07.992Z</time>
      </trkpt>
      <trkpt lat="45.90278" lon="5.00408">
        <ele>273.899993896</ele>
        <time>2015-11-11T10:56:09.99Z</time>
      </trkpt>
      <trkpt lat="45.90281" lon="5.00412">
        <ele>274</ele>
        <time>2015-11-11T10:56:10.974Z</time>
      </trkpt>
      <trkpt lat="45.90286" lon="5.00419">
        <ele>274</ele>
        <time>2015-11-11T10:56:12.987Z</time>
      </trkpt>
      <trkpt lat="45.90289" lon="5.00423">
        <ele>273.899993896</ele>
        <time>2015-11-11T10:56:13.971Z</time>
      </trkpt>
      <trkpt lat="45.90294" lon="5.0043">
        <ele>273.899993896</ele>
        <time>2015-11-11T10:56:15.988Z</time>
      </trkpt>
      <trkpt lat="45.90296" lon="5.00434">
        <ele>273.899993896</ele>
        <time>2015-11-11T10:56:16.973Z</time>
      </trkpt>
      <trkpt lat="45.90302" lon="5.00442">
        <ele>274.200012207</ele>
        <time>2015-11-11T10:56:19.004Z</time>
      </trkpt>
      <trkpt lat="45.90305" lon="5.00445">
        <ele>274.600006104</ele>
        <time>2015-11-11T10:56:19.971Z</time>
      </trkpt>
      <trkpt lat="45.90312" lon="5.00453">
        <ele>274.799987793</ele>
        <time>2015-11-11T10:56:21.988Z</time>
      </trkpt>
      <trkpt lat="45.90314" lon="5.00457">
        <ele>275</ele>
        <time>2015-11-11T10:56:22.972Z</time>
      </trkpt>
      <trkpt lat="45.9032" lon="5.00466">
        <ele>275.299987793</ele>
        <time>2015-11-11T10:56:24.986Z</time>
      </trkpt>
      <trkpt lat="45.90323" lon="5.00469">
        <ele>275.600006104</ele>
        <time>2015-11-11T10:56:25.971Z</time>
      </trkpt>
      <trkpt lat="45.90329" lon="5.00477">
        <ele>276.299987793</ele>
        <time>2015-11-11T10:56:27.987Z</time>
      </trkpt>
      <trkpt lat="45.90332" lon="5.00482">
        <ele>276.5</ele>
        <time>2015-11-11T10:56:28.973Z</time>
      </trkpt>
      <trkpt lat="45.90338" lon="5.00489">
        <ele>276.799987793</ele>
        <time>2015-11-11T10:56:30.986Z</time>
      </trkpt>
      <trkpt lat="45.90341" lon="5.00493">
        <ele>276.600006104</ele>
        <time>2015-11-11T10:56:31.971Z</time>
      </trkpt>
      <trkpt lat="45.90347" lon="5.005">
        <ele>277</ele>
        <time>2015-11-11T10:56:33.987Z</time>
      </trkpt>
      <trkpt lat="45.9035" lon="5.00503">
        <ele>277.200012207</ele>
        <time>2015-11-11T10:56:34.972Z</time>
      </trkpt>
      <trkpt lat="45.90355" lon="5.0051">
        <ele>277.299987793</ele>
        <time>2015-11-11T10:56:36.986Z</time>
      </trkpt>
      <trkpt lat="45.90357" lon="5.00514">
        <ele>277.200012207</ele>
        <time>2015-11-11T10:56:37.971Z</time>
      </trkpt>
      <trkpt lat="45.90363" lon="5.00521">
        <ele>276.600006104</ele>
        <time>2015-11-11T10:56:40.004Z</time>
      </trkpt>
      <trkpt lat="45.90365" lon="5.00525">
        <ele>276.600006104</ele>
        <time>2015-11-11T10:56:40.971Z</time>
      </trkpt>
      <trkpt lat="45.90371" lon="5.00533">
        <ele>276.899993896</ele>
        <time>2015-11-11T10:56:42.985Z</time>
      </trkpt>
      <trkpt lat="45.90374" lon="5.00537">
        <ele>276.799987793</ele>
        <time>2015-11-11T10:56:43.971Z</time>
      </trkpt>
      <trkpt lat="45.9038" lon="5.00545">
        <ele>277.299987793</ele>
        <time>2015-11-11T10:56:45.986Z</time>
      </trkpt>
      <trkpt lat="45.90383" lon="5.0055">
        <ele>277.5</ele>
        <time>2015-11-11T10:56:46.971Z</time>
      </trkpt>
      <trkpt lat="45.90387" lon="5.00559">
        <ele>277.399993896</ele>
        <time>2015-11-11T10:56:48.986Z</time>
      </trkpt>
      <trkpt lat="45.90388" lon="5.00565">
        <ele>277.600006104</ele>
        <time>2015-11-11T10:56:49.97Z</time>
      </trkpt>
      <trkpt lat="45.90389" lon="5.00577">
        <ele>277.799987793</ele>
        <time>2015-11-11T10:56:51.985Z</time>
      </trkpt>
      <trkpt lat="45.90389" lon="5.00584">
        <ele>277.600006104</ele>
        <time>2015-11-11T10:56:52.971Z</time>
      </trkpt>
      <trkpt lat="45.9039" lon="5.00596">
        <ele>277.600006104</ele>
        <time>2015-11-11T10:56:54.985Z</time>
      </trkpt>
      <trkpt lat="45.9039" lon="5.00602">
        <ele>277.799987793</ele>
        <time>2015-11-11T10:56:55.97Z</time>
      </trkpt>
      <trkpt lat="45.90391" lon="5.00609">
        <ele>277.899993896</ele>
        <time>2015-11-11T10:56:56.988Z</time>
      </trkpt>
      <trkpt lat="45.90391" lon="5.00616">
        <ele>278</ele>
        <time>2015-11-11T10:56:57.97Z</time>
      </trkpt>
      <trkpt lat="45.90392" lon="5.00622">
        <ele>278.299987793</ele>
        <time>2015-11-11T10:56:58.986Z</time>
      </trkpt>
      <trkpt lat="45.90392" lon="5.00629">
        <ele>278.5</ele>
        <time>2015-11-11T10:56:59.97Z</time>
      </trkpt>
      <trkpt lat="45.90393" lon="5.00635">
        <ele>278.200012207</ele>
        <time>2015-11-11T10:57:00.999Z</time>
      </trkpt>
      <trkpt lat="45.90393" lon="5.00642">
        <ele>278.399993896</ele>
        <time>2015-11-11T10:57:01.969Z</time>
      </trkpt>
      <trkpt lat="45.90394" lon="5.00648">
        <ele>278</ele>
        <time>2015-11-11T10:57:02.987Z</time>
      </trkpt>
      <trkpt lat="45.90395" lon="5.00655">
        <ele>278</ele>
        <time>2015-11-11T10:57:03.97Z</time>
      </trkpt>
      <trkpt lat="45.90395" lon="5.00661">
        <ele>278</ele>
        <time>2015-11-11T10:57:04.986Z</time>
      </trkpt>
      <trkpt lat="45.90396" lon="5.00668">
        <ele>278.299987793</ele>
        <time>2015-11-11T10:57:05.969Z</time>
      </trkpt>
      <trkpt lat="45.90397" lon="5.00674">
        <ele>278.100006104</ele>
        <time>2015-11-11T10:57:06.984Z</time>
      </trkpt>
      <trkpt lat="45.90398" lon="5.00681">
        <ele>277.899993896</ele>
        <time>2015-11-11T10:57:07.97Z</time>
      </trkpt>
      <trkpt lat="45.90398" lon="5.00687">
        <ele>277.899993896</ele>
        <time>2015-11-11T10:57:08.989Z</time>
      </trkpt>
      <trkpt lat="45.90399" lon="5.00694">
        <ele>277.700012207</ele>
        <time>2015-11-11T10:57:09.969Z</time>
      </trkpt>
      <trkpt lat="45.904" lon="5.00701">
        <ele>277.700012207</ele>
        <time>2015-11-11T10:57:10.989Z</time>
      </trkpt>
      <trkpt lat="45.90401" lon="5.00708">
        <ele>277.299987793</ele>
        <time>2015-11-11T10:57:11.97Z</time>
      </trkpt>
      <trkpt lat="45.90401" lon="5.00715">
        <ele>277.5</ele>
        <time>2015-11-11T10:57:12.984Z</time>
      </trkpt>
      <trkpt lat="45.90402" lon="5.00722">
        <ele>277.399993896</ele>
        <time>2015-11-11T10:57:13.969Z</time>
      </trkpt>
      <trkpt lat="45.90402" lon="5.00728">
        <ele>277.299987793</ele>
        <time>2015-11-11T10:57:14.988Z</time>
      </trkpt>
      <trkpt lat="45.90403" lon="5.00735">
        <ele>277.299987793</ele>
        <time>2015-11-11T10:57:15.97Z</time>
      </trkpt>
      <trkpt lat="45.90403" lon="5.00746">
        <ele>277.700012207</ele>
        <time>2015-11-11T10:57:17.987Z</time>
      </trkpt>
      <trkpt lat="45.90404" lon="5.00752">
        <ele>277.700012207</ele>
        <time>2015-11-11T10:57:18.969Z</time>
      </trkpt>
      <trkpt lat="45.90404" lon="5.00763">
        <ele>277.5</ele>
        <time>2015-11-11T10:57:20.987Z</time>
      </trkpt>
      <trkpt lat="45.90405" lon="5.00768">
        <ele>277.200012207</ele>
        <time>2015-11-11T10:57:21.97Z</time>
      </trkpt>
      <trkpt lat="45.90406" lon="5.0078">
        <ele>276.899993896</ele>
        <time>2015-11-11T10:57:23.984Z</time>
      </trkpt>
      <trkpt lat="45.90407" lon="5.00786">
        <ele>277.200012207</ele>
        <time>2015-11-11T10:57:24.97Z</time>
      </trkpt>
      <trkpt lat="45.90407" lon="5.00798">
        <ele>277.799987793</ele>
        <time>2015-11-11T10:57:26.987Z</time>
      </trkpt>
      <trkpt lat="45.90408" lon="5.00805">
        <ele>277.899993896</ele>
        <time>2015-11-11T10:57:27.969Z</time>
      </trkpt>
      <trkpt lat="45.90409" lon="5.00812">
        <ele>278</ele>
        <time>2015-11-11T10:57:28.985Z</time>
      </trkpt>
      <trkpt lat="45.9041" lon="5.00819">
        <ele>277.799987793</ele>
        <time>2015-11-11T10:57:29.97Z</time>
      </trkpt>
      <trkpt lat="45.9041" lon="5.00825">
        <ele>277.399993896</ele>
        <time>2015-11-11T10:57:30.985Z</time>
      </trkpt>
      <trkpt lat="45.90412" lon="5.00832">
        <ele>277</ele>
        <time>2015-11-11T10:57:31.969Z</time>
      </trkpt>
      <trkpt lat="45.90413" lon="5.00844">
        <ele>277.100006104</ele>
        <time>2015-11-11T10:57:33.984Z</time>
      </trkpt>
      <trkpt lat="45.90413" lon="5.00851">
        <ele>277.100006104</ele>
        <time>2015-11-11T10:57:34.97Z</time>
      </trkpt>
      <trkpt lat="45.90413" lon="5.00857">
        <ele>277.200012207</ele>
        <time>2015-11-11T10:57:35.985Z</time>
      </trkpt>
      <trkpt lat="45.90414" lon="5.00864">
        <ele>277.200012207</ele>
        <time>2015-11-11T10:57:36.972Z</time>
      </trkpt>
      <trkpt lat="45.90414" lon="5.00871">
        <ele>277</ele>
        <time>2015-11-11T10:57:38.108Z</time>
      </trkpt>
      <trkpt lat="45.90415" lon="5.00878">
        <ele>277.399993896</ele>
        <time>2015-11-11T10:57:38.973Z</time>
      </trkpt>
      <trkpt lat="45.90415" lon="5.00885">
        <ele>277.5</ele>
        <time>2015-11-11T10:57:39.988Z</time>
      </trkpt>
      <trkpt lat="45.90416" lon="5.00892">
        <ele>277.299987793</ele>
        <time>2015-11-11T10:57:40.971Z</time>
      </trkpt>
      <trkpt lat="45.90417" lon="5.00899">
        <ele>277</ele>
        <time>2015-11-11T10:57:41.984Z</time>
      </trkpt>
      <trkpt lat="45.90417" lon="5.00907">
        <ele>277.100006104</ele>
        <time>2015-11-11T10:57:42.969Z</time>
      </trkpt>
      <trkpt lat="45.90418" lon="5.00915">
        <ele>277.200012207</ele>
        <time>2015-11-11T10:57:43.983Z</time>
      </trkpt>
      <trkpt lat="45.90418" lon="5.00922">
        <ele>277.299987793</ele>
        <time>2015-11-11T10:57:44.972Z</time>
      </trkpt>
      <trkpt lat="45.90419" lon="5.00929">
        <ele>277.299987793</ele>
        <time>2015-11-11T10:57:45.983Z</time>
      </trkpt>
      <trkpt lat="45.9042" lon="5.00936">
        <ele>277.600006104</ele>
        <time>2015-11-11T10:57:46.97Z</time>
      </trkpt>
      <trkpt lat="45.90421" lon="5.00943">
        <ele>277.399993896</ele>
        <time>2015-11-11T10:57:48.021Z</time>
      </trkpt>
      <trkpt lat="45.90421" lon="5.0095">
        <ele>277.399993896</ele>
        <time>2015-11-11T10:57:48.982Z</time>
      </trkpt>
      <trkpt lat="45.90422" lon="5.00957">
        <ele>277.100006104</ele>
        <time>2015-11-11T10:57:50.005Z</time>
      </trkpt>
      <trkpt lat="45.90422" lon="5.00965">
        <ele>277</ele>
        <time>2015-11-11T10:57:50.972Z</time>
      </trkpt>
      <trkpt lat="45.90423" lon="5.00972">
        <ele>276.899993896</ele>
        <time>2015-11-11T10:57:51.983Z</time>
      </trkpt>
      <trkpt lat="45.90424" lon="5.0098">
        <ele>276.700012207</ele>
        <time>2015-11-11T10:57:52.971Z</time>
      </trkpt>
      <trkpt lat="45.90425" lon="5.00987">
        <ele>276.700012207</ele>
        <time>2015-11-11T10:57:53.983Z</time>
      </trkpt>
      <trkpt lat="45.90425" lon="5.00995">
        <ele>276.5</ele>
        <time>2015-11-11T10:57:54.969Z</time>
      </trkpt>
      <trkpt lat="45.90425" lon="5.01003">
        <ele>276.799987793</ele>
        <time>2015-11-11T10:57:55.984Z</time>
      </trkpt>
      <trkpt lat="45.90426" lon="5.01011">
        <ele>276.899993896</ele>
        <time>2015-11-11T10:57:56.973Z</time>
      </trkpt>
      <trkpt lat="45.90426" lon="5.01018">
        <ele>276.700012207</ele>
        <time>2015-11-11T10:57:57.984Z</time>
      </trkpt>
      <trkpt lat="45.90427" lon="5.01026">
        <ele>276.799987793</ele>
        <time>2015-11-11T10:57:58.971Z</time>
      </trkpt>
      <trkpt lat="45.90427" lon="5.01033">
        <ele>276.600006104</ele>
        <time>2015-11-11T10:57:59.997Z</time>
      </trkpt>
      <trkpt lat="45.90428" lon="5.0104">
        <ele>276.399993896</ele>
        <time>2015-11-11T10:58:00.97Z</time>
      </trkpt>
      <trkpt lat="45.90429" lon="5.01047">
        <ele>276.399993896</ele>
        <time>2015-11-11T10:58:01.983Z</time>
      </trkpt>
      <trkpt lat="45.9043" lon="5.01054">
        <ele>276.200012207</ele>
        <time>2015-11-11T10:58:02.972Z</time>
      </trkpt>
      <trkpt lat="45.9043" lon="5.01061">
        <ele>276.200012207</ele>
        <time>2015-11-11T10:58:03.984Z</time>
      </trkpt>
      <trkpt lat="45.9043" lon="5.01068">
        <ele>276.100006104</ele>
        <time>2015-11-11T10:58:04.97Z</time>
      </trkpt>
      <trkpt lat="45.90431" lon="5.01075">
        <ele>276</ele>
        <time>2015-11-11T10:58:05.985Z</time>
      </trkpt>
      <trkpt lat="45.90431" lon="5.01082">
        <ele>276.100006104</ele>
        <time>2015-11-11T10:58:06.969Z</time>
      </trkpt>
      <trkpt lat="45.90431" lon="5.0109">
        <ele>276.200012207</ele>
        <time>2015-11-11T10:58:07.985Z</time>
      </trkpt>
      <trkpt lat="45.90432" lon="5.01097">
        <ele>276.399993896</ele>
        <time>2015-11-11T10:58:08.973Z</time>
      </trkpt>
      <trkpt lat="45.90433" lon="5.01104">
        <ele>276.5</ele>
        <time>2015-11-11T10:58:09.984Z</time>
      </trkpt>
      <trkpt lat="45.90434" lon="5.01111">
        <ele>276.700012207</ele>
        <time>2015-11-11T10:58:10.97Z</time>
      </trkpt>
      <trkpt lat="45.90435" lon="5.01119">
        <ele>277</ele>
        <time>2015-11-11T10:58:11.984Z</time>
      </trkpt>
      <trkpt lat="45.90436" lon="5.01126">
        <ele>277.100006104</ele>
        <time>2015-11-11T10:58:12.968Z</time>
      </trkpt>
      <trkpt lat="45.90436" lon="5.01133">
        <ele>277.299987793</ele>
        <time>2015-11-11T10:58:13.986Z</time>
      </trkpt>
      <trkpt lat="45.90437" lon="5.0114">
        <ele>277.299987793</ele>
        <time>2015-11-11T10:58:14.972Z</time>
      </trkpt>
      <trkpt lat="45.90437" lon="5.01147">
        <ele>277.5</ele>
        <time>2015-11-11T10:58:15.997Z</time>
      </trkpt>
      <trkpt lat="45.90438" lon="5.01154">
        <ele>277.399993896</ele>
        <time>2015-11-11T10:58:16.97Z</time>
      </trkpt>
      <trkpt lat="45.90438" lon="5.01161">
        <ele>277.299987793</ele>
        <time>2015-11-11T10:58:17.984Z</time>
      </trkpt>
      <trkpt lat="45.90439" lon="5.01168">
        <ele>277</ele>
        <time>2015-11-11T10:58:18.969Z</time>
      </trkpt>
      <trkpt lat="45.90439" lon="5.01176">
        <ele>277</ele>
        <time>2015-11-11T10:58:19.985Z</time>
      </trkpt>
      <trkpt lat="45.9044" lon="5.01183">
        <ele>276.799987793</ele>
        <time>2015-11-11T10:58:20.972Z</time>
      </trkpt>
      <trkpt lat="45.90441" lon="5.0119">
        <ele>276.600006104</ele>
        <time>2015-11-11T10:58:22.095Z</time>
      </trkpt>
      <trkpt lat="45.90441" lon="5.01197">
        <ele>277</ele>
        <time>2015-11-11T10:58:22.971Z</time>
      </trkpt>
      <trkpt lat="45.90442" lon="5.01205">
        <ele>276.899993896</ele>
        <time>2015-11-11T10:58:23.984Z</time>
      </trkpt>
      <trkpt lat="45.90443" lon="5.01212">
        <ele>276.899993896</ele>
        <time>2015-11-11T10:58:24.97Z</time>
      </trkpt>
      <trkpt lat="45.90444" lon="5.0122">
        <ele>276.799987793</ele>
        <time>2015-11-11T10:58:25.984Z</time>
      </trkpt>
      <trkpt lat="45.90444" lon="5.01227">
        <ele>276.799987793</ele>
        <time>2015-11-11T10:58:26.973Z</time>
      </trkpt>
      <trkpt lat="45.90444" lon="5.01234">
        <ele>276.899993896</ele>
        <time>2015-11-11T10:58:27.984Z</time>
      </trkpt>
      <trkpt lat="45.90445" lon="5.01242">
        <ele>277</ele>
        <time>2015-11-11T10:58:28.97Z</time>
      </trkpt>
      <trkpt lat="45.90446" lon="5.01249">
        <ele>277.200012207</ele>
        <time>2015-11-11T10:58:29.984Z</time>
      </trkpt>
      <trkpt lat="45.90446" lon="5.01256">
        <ele>277.5</ele>
        <time>2015-11-11T10:58:30.969Z</time>
      </trkpt>
      <trkpt lat="45.90447" lon="5.01264">
        <ele>277.700012207</ele>
        <time>2015-11-11T10:58:32.007Z</time>
      </trkpt>
      <trkpt lat="45.90448" lon="5.01271">
        <ele>277.799987793</ele>
        <time>2015-11-11T10:58:32.973Z</time>
      </trkpt>
      <trkpt lat="45.90449" lon="5.01279">
        <ele>278</ele>
        <time>2015-11-11T10:58:33.984Z</time>
      </trkpt>
      <trkpt lat="45.90449" lon="5.01286">
        <ele>278</ele>
        <time>2015-11-11T10:58:34.971Z</time>
      </trkpt>
      <trkpt lat="45.9045" lon="5.01293">
        <ele>277.899993896</ele>
        <time>2015-11-11T10:58:36.088Z</time>
      </trkpt>
      <trkpt lat="45.90451" lon="5.013">
        <ele>277.899993896</ele>
        <time>2015-11-11T10:58:36.97Z</time>
      </trkpt>
      <trkpt lat="45.90451" lon="5.01307">
        <ele>278.399993896</ele>
        <time>2015-11-11T10:58:37.984Z</time>
      </trkpt>
      <trkpt lat="45.90451" lon="5.01314">
        <ele>278.200012207</ele>
        <time>2015-11-11T10:58:38.973Z</time>
      </trkpt>
      <trkpt lat="45.90452" lon="5.01322">
        <ele>277.700012207</ele>
        <time>2015-11-11T10:58:39.99Z</time>
      </trkpt>
      <trkpt lat="45.90453" lon="5.01329">
        <ele>277.100006104</ele>
        <time>2015-11-11T10:58:40.971Z</time>
      </trkpt>
      <trkpt lat="45.90453" lon="5.01336">
        <ele>277</ele>
        <time>2015-11-11T10:58:41.984Z</time>
      </trkpt>
      <trkpt lat="45.90454" lon="5.01343">
        <ele>277</ele>
        <time>2015-11-11T10:58:43.007Z</time>
      </trkpt>
      <trkpt lat="45.90454" lon="5.0135">
        <ele>276.799987793</ele>
        <time>2015-11-11T10:58:43.984Z</time>
      </trkpt>
      <trkpt lat="45.90455" lon="5.01357">
        <ele>277</ele>
        <time>2015-11-11T10:58:44.975Z</time>
      </trkpt>
      <trkpt lat="45.90456" lon="5.01364">
        <ele>276.600006104</ele>
        <time>2015-11-11T10:58:45.985Z</time>
      </trkpt>
      <trkpt lat="45.90456" lon="5.01371">
        <ele>276.799987793</ele>
        <time>2015-11-11T10:58:46.972Z</time>
      </trkpt>
      <trkpt lat="45.90457" lon="5.01378">
        <ele>276.700012207</ele>
        <time>2015-11-11T10:58:47.985Z</time>
      </trkpt>
      <trkpt lat="45.90458" lon="5.01386">
        <ele>276.899993896</ele>
        <time>2015-11-11T10:58:48.97Z</time>
      </trkpt>
      <trkpt lat="45.90459" lon="5.01393">
        <ele>276.799987793</ele>
        <time>2015-11-11T10:58:49.985Z</time>
      </trkpt>
      <trkpt lat="45.9046" lon="5.01399">
        <ele>276.799987793</ele>
        <time>2015-11-11T10:58:50.972Z</time>
      </trkpt>
      <trkpt lat="45.9046" lon="5.01407">
        <ele>276.799987793</ele>
        <time>2015-11-11T10:58:51.985Z</time>
      </trkpt>
      <trkpt lat="45.9046" lon="5.01413">
        <ele>276.899993896</ele>
        <time>2015-11-11T10:58:52.97Z</time>
      </trkpt>
      <trkpt lat="45.90461" lon="5.0142">
        <ele>276.899993896</ele>
        <time>2015-11-11T10:58:53.984Z</time>
      </trkpt>
      <trkpt lat="45.90462" lon="5.01427">
        <ele>276.799987793</ele>
        <time>2015-11-11T10:58:54.969Z</time>
      </trkpt>
      <trkpt lat="45.90462" lon="5.01434">
        <ele>277.100006104</ele>
        <time>2015-11-11T10:58:55.985Z</time>
      </trkpt>
      <trkpt lat="45.90463" lon="5.0144">
        <ele>277.299987793</ele>
        <time>2015-11-11T10:58:56.973Z</time>
      </trkpt>
      <trkpt lat="45.90463" lon="5.01447">
        <ele>277.5</ele>
        <time>2015-11-11T10:58:57.984Z</time>
      </trkpt>
      <trkpt lat="45.90464" lon="5.01453">
        <ele>277.600006104</ele>
        <time>2015-11-11T10:58:58.984Z</time>
      </trkpt>
      <trkpt lat="45.90464" lon="5.0146">
        <ele>277.600006104</ele>
        <time>2015-11-11T10:58:59.983Z</time>
      </trkpt>
      <trkpt lat="45.90466" lon="5.01467">
        <ele>277.899993896</ele>
        <time>2015-11-11T10:59:00.968Z</time>
      </trkpt>
      <trkpt lat="45.90466" lon="5.01474">
        <ele>278.600006104</ele>
        <time>2015-11-11T10:59:01.983Z</time>
      </trkpt>
      <trkpt lat="45.90466" lon="5.01481">
        <ele>278.899993896</ele>
        <time>2015-11-11T10:59:02.972Z</time>
      </trkpt>
      <trkpt lat="45.90466" lon="5.01488">
        <ele>278.899993896</ele>
        <time>2015-11-11T10:59:03.983Z</time>
      </trkpt>
      <trkpt lat="45.90467" lon="5.01495">
        <ele>278.600006104</ele>
        <time>2015-11-11T10:59:04.97Z</time>
      </trkpt>
      <trkpt lat="45.90467" lon="5.01502">
        <ele>278.5</ele>
        <time>2015-11-11T10:59:05.985Z</time>
      </trkpt>
      <trkpt lat="45.90468" lon="5.01509">
        <ele>278.600006104</ele>
        <time>2015-11-11T10:59:06.969Z</time>
      </trkpt>
      <trkpt lat="45.90469" lon="5.01515">
        <ele>278.700012207</ele>
        <time>2015-11-11T10:59:07.984Z</time>
      </trkpt>
      <trkpt lat="45.90469" lon="5.01522">
        <ele>278.600006104</ele>
        <time>2015-11-11T10:59:08.972Z</time>
      </trkpt>
      <trkpt lat="45.9047" lon="5.01529">
        <ele>278.700012207</ele>
        <time>2015-11-11T10:59:09.998Z</time>
      </trkpt>
      <trkpt lat="45.90471" lon="5.01535">
        <ele>278.899993896</ele>
        <time>2015-11-11T10:59:10.97Z</time>
      </trkpt>
      <trkpt lat="45.90471" lon="5.01542">
        <ele>278.700012207</ele>
        <time>2015-11-11T10:59:11.983Z</time>
      </trkpt>
      <trkpt lat="45.90472" lon="5.01549">
        <ele>278.899993896</ele>
        <time>2015-11-11T10:59:12.969Z</time>
      </trkpt>
      <trkpt lat="45.90473" lon="5.01561">
        <ele>279.100006104</ele>
        <time>2015-11-11T10:59:14.986Z</time>
      </trkpt>
      <trkpt lat="45.90473" lon="5.01568">
        <ele>279.200012207</ele>
        <time>2015-11-11T10:59:15.969Z</time>
      </trkpt>
      <trkpt lat="45.90475" lon="5.0158">
        <ele>279.600006104</ele>
        <time>2015-11-11T10:59:17.984Z</time>
      </trkpt>
      <trkpt lat="45.90476" lon="5.01585">
        <ele>280.100006104</ele>
        <time>2015-11-11T10:59:18.968Z</time>
      </trkpt>
      <trkpt lat="45.90482" lon="5.01591">
        <ele>280.299987793</ele>
        <time>2015-11-11T10:59:20.986Z</time>
      </trkpt>
      <trkpt lat="45.90486" lon="5.0159">
        <ele>280.600006104</ele>
        <time>2015-11-11T10:59:21.969Z</time>
      </trkpt>
      <trkpt lat="45.90495" lon="5.01587">
        <ele>280.899993896</ele>
        <time>2015-11-11T10:59:23.982Z</time>
      </trkpt>
      <trkpt lat="45.90499" lon="5.01586">
        <ele>281.100006104</ele>
        <time>2015-11-11T10:59:24.969Z</time>
      </trkpt>
      <trkpt lat="45.90504" lon="5.01586">
        <ele>281.399993896</ele>
        <time>2015-11-11T10:59:25.983Z</time>
      </trkpt>
      <trkpt lat="45.90509" lon="5.01585">
        <ele>281.600006104</ele>
        <time>2015-11-11T10:59:26.972Z</time>
      </trkpt>
      <trkpt lat="45.90514" lon="5.01585">
        <ele>281.299987793</ele>
        <time>2015-11-11T10:59:27.984Z</time>
      </trkpt>
      <trkpt lat="45.90518" lon="5.01585">
        <ele>281.200012207</ele>
        <time>2015-11-11T10:59:28.97Z</time>
      </trkpt>
      <trkpt lat="45.90527" lon="5.01584">
        <ele>280.799987793</ele>
        <time>2015-11-11T10:59:30.998Z</time>
      </trkpt>
      <trkpt lat="45.90532" lon="5.01584">
        <ele>281.100006104</ele>
        <time>2015-11-11T10:59:31.97Z</time>
      </trkpt>
      <trkpt lat="45.90536" lon="5.01584">
        <ele>281.399993896</ele>
        <time>2015-11-11T10:59:32.987Z</time>
      </trkpt>
      <trkpt lat="45.90541" lon="5.01585">
        <ele>281.700012207</ele>
        <time>2015-11-11T10:59:33.969Z</time>
      </trkpt>
      <trkpt lat="45.90546" lon="5.01586">
        <ele>282</ele>
        <time>2015-11-11T10:59:34.985Z</time>
      </trkpt>
      <trkpt lat="45.90551" lon="5.01587">
        <ele>281.700012207</ele>
        <time>2015-11-11T10:59:35.969Z</time>
      </trkpt>
      <trkpt lat="45.90556" lon="5.01588">
        <ele>281.799987793</ele>
        <time>2015-11-11T10:59:36.984Z</time>
      </trkpt>
      <trkpt lat="45.90561" lon="5.01589">
        <ele>281.600006104</ele>
        <time>2015-11-11T10:59:37.969Z</time>
      </trkpt>
      <trkpt lat="45.90565" lon="5.0159">
        <ele>281.700012207</ele>
        <time>2015-11-11T10:59:38.987Z</time>
      </trkpt>
      <trkpt lat="45.9057" lon="5.01592">
        <ele>281.700012207</ele>
        <time>2015-11-11T10:59:39.971Z</time>
      </trkpt>
      <trkpt lat="45.90575" lon="5.01594">
        <ele>282.299987793</ele>
        <time>2015-11-11T10:59:40.985Z</time>
      </trkpt>
      <trkpt lat="45.9058" lon="5.01596">
        <ele>282.700012207</ele>
        <time>2015-11-11T10:59:41.969Z</time>
      </trkpt>
      <trkpt lat="45.90584" lon="5.01598">
        <ele>283.200012207</ele>
        <time>2015-11-11T10:59:42.984Z</time>
      </trkpt>
      <trkpt lat="45.90589" lon="5.016">
        <ele>283</ele>
        <time>2015-11-11T10:59:43.969Z</time>
      </trkpt>
      <trkpt lat="45.90594" lon="5.01601">
        <ele>283</ele>
        <time>2015-11-11T10:59:44.989Z</time>
      </trkpt>
      <trkpt lat="45.90599" lon="5.01603">
        <ele>282.600006104</ele>
        <time>2015-11-11T10:59:45.969Z</time>
      </trkpt>
      <trkpt lat="45.90604" lon="5.01605">
        <ele>282.299987793</ele>
        <time>2015-11-11T10:59:46.999Z</time>
      </trkpt>
      <trkpt lat="45.9061" lon="5.01607">
        <ele>282.100006104</ele>
        <time>2015-11-11T10:59:47.969Z</time>
      </trkpt>
      <trkpt lat="45.90615" lon="5.01609">
        <ele>281.299987793</ele>
        <time>2015-11-11T10:59:48.983Z</time>
      </trkpt>
      <trkpt lat="45.9062" lon="5.01611">
        <ele>281.100006104</ele>
        <time>2015-11-11T10:59:49.968Z</time>
      </trkpt>
      <trkpt lat="45.90626" lon="5.01613">
        <ele>281.100006104</ele>
        <time>2015-11-11T10:59:50.988Z</time>
      </trkpt>
      <trkpt lat="45.90631" lon="5.01615">
        <ele>280.899993896</ele>
        <time>2015-11-11T10:59:51.968Z</time>
      </trkpt>
      <trkpt lat="45.90637" lon="5.01617">
        <ele>280.399993896</ele>
        <time>2015-11-11T10:59:52.983Z</time>
      </trkpt>
      <trkpt lat="45.90642" lon="5.01619">
        <ele>280.100006104</ele>
        <time>2015-11-11T10:59:53.969Z</time>
      </trkpt>
      <trkpt lat="45.90647" lon="5.01621">
        <ele>280</ele>
        <time>2015-11-11T10:59:54.983Z</time>
      </trkpt>
      <trkpt lat="45.90653" lon="5.01623">
        <ele>279.799987793</ele>
        <time>2015-11-11T10:59:55.969Z</time>
      </trkpt>
      <trkpt lat="45.90658" lon="5.01624">
        <ele>279.700012207</ele>
        <time>2015-11-11T10:59:56.987Z</time>
      </trkpt>
      <trkpt lat="45.90664" lon="5.01626">
        <ele>279.5</ele>
        <time>2015-11-11T10:59:57.97Z</time>
      </trkpt>
      <trkpt lat="45.9067" lon="5.01628">
        <ele>279.200012207</ele>
        <time>2015-11-11T10:59:58.986Z</time>
      </trkpt>
      <trkpt lat="45.90676" lon="5.0163">
        <ele>279.100006104</ele>
        <time>2015-11-11T10:59:59.969Z</time>
      </trkpt>
      <trkpt lat="45.90683" lon="5.01632">
        <ele>278.799987793</ele>
        <time>2015-11-11T11:00:00.991Z</time>
      </trkpt>
      <trkpt lat="45.90688" lon="5.01633">
        <ele>278.5</ele>
        <time>2015-11-11T11:00:01.969Z</time>
      </trkpt>
      <trkpt lat="45.90694" lon="5.01635">
        <ele>278.799987793</ele>
        <time>2015-11-11T11:00:03.001Z</time>
      </trkpt>
      <trkpt lat="45.907" lon="5.01638">
        <ele>279.200012207</ele>
        <time>2015-11-11T11:00:03.969Z</time>
      </trkpt>
      <trkpt lat="45.90706" lon="5.0164">
        <ele>279.200012207</ele>
        <time>2015-11-11T11:00:04.984Z</time>
      </trkpt>
      <trkpt lat="45.90711" lon="5.01641">
        <ele>279</ele>
        <time>2015-11-11T11:00:05.969Z</time>
      </trkpt>
      <trkpt lat="45.90717" lon="5.01644">
        <ele>278.700012207</ele>
        <time>2015-11-11T11:00:07.066Z</time>
      </trkpt>
      <trkpt lat="45.90723" lon="5.01646">
        <ele>278.899993896</ele>
        <time>2015-11-11T11:00:07.969Z</time>
      </trkpt>
      <trkpt lat="45.90729" lon="5.01648">
        <ele>278.399993896</ele>
        <time>2015-11-11T11:00:08.987Z</time>
      </trkpt>
      <trkpt lat="45.90734" lon="5.01649">
        <ele>278.799987793</ele>
        <time>2015-11-11T11:00:09.969Z</time>
      </trkpt>
      <trkpt lat="45.9074" lon="5.01651">
        <ele>279.100006104</ele>
        <time>2015-11-11T11:00:10.985Z</time>
      </trkpt>
      <trkpt lat="45.90746" lon="5.01653">
        <ele>278.700012207</ele>
        <time>2015-11-11T11:00:11.969Z</time>
      </trkpt>
      <trkpt lat="45.90752" lon="5.01655">
        <ele>278</ele>
        <time>2015-11-11T11:00:12.984Z</time>
      </trkpt>
      <trkpt lat="45.90758" lon="5.01657">
        <ele>277.899993896</ele>
        <time>2015-11-11T11:00:13.969Z</time>
      </trkpt>
      <trkpt lat="45.90764" lon="5.0166">
        <ele>277.899993896</ele>
        <time>2015-11-11T11:00:14.987Z</time>
      </trkpt>
      <trkpt lat="45.90769" lon="5.01662">
        <ele>277.700012207</ele>
        <time>2015-11-11T11:00:15.969Z</time>
      </trkpt>
      <trkpt lat="45.90775" lon="5.01664">
        <ele>277.200012207</ele>
        <time>2015-11-11T11:00:16.985Z</time>
      </trkpt>
      <trkpt lat="45.90781" lon="5.01666">
        <ele>277.600006104</ele>
        <time>2015-11-11T11:00:17.968Z</time>
      </trkpt>
      <trkpt lat="45.90786" lon="5.01668">
        <ele>277.899993896</ele>
        <time>2015-11-11T11:00:18.997Z</time>
      </trkpt>
      <trkpt lat="45.90791" lon="5.0167">
        <ele>278</ele>
        <time>2015-11-11T11:00:19.968Z</time>
      </trkpt>
      <trkpt lat="45.90796" lon="5.01672">
        <ele>277.899993896</ele>
        <time>2015-11-11T11:00:20.987Z</time>
      </trkpt>
      <trkpt lat="45.90801" lon="5.01674">
        <ele>278</ele>
        <time>2015-11-11T11:00:21.968Z</time>
      </trkpt>
      <trkpt lat="45.90805" lon="5.01676">
        <ele>277.399993896</ele>
        <time>2015-11-11T11:00:22.984Z</time>
      </trkpt>
      <trkpt lat="45.9081" lon="5.01677">
        <ele>277.799987793</ele>
        <time>2015-11-11T11:00:23.969Z</time>
      </trkpt>
      <trkpt lat="45.90815" lon="5.01679">
        <ele>277.899993896</ele>
        <time>2015-11-11T11:00:24.983Z</time>
      </trkpt>
      <trkpt lat="45.9082" lon="5.0168">
        <ele>278.5</ele>
        <time>2015-11-11T11:00:25.968Z</time>
      </trkpt>
      <trkpt lat="45.90825" lon="5.01682">
        <ele>278.600006104</ele>
        <time>2015-11-11T11:00:26.987Z</time>
      </trkpt>
      <trkpt lat="45.90829" lon="5.01683">
        <ele>278.600006104</ele>
        <time>2015-11-11T11:00:27.969Z</time>
      </trkpt>
      <trkpt lat="45.90834" lon="5.01685">
        <ele>278.5</ele>
        <time>2015-11-11T11:00:28.984Z</time>
      </trkpt>
      <trkpt lat="45.90839" lon="5.01686">
        <ele>278.399993896</ele>
        <time>2015-11-11T11:00:29.969Z</time>
      </trkpt>
      <trkpt lat="45.90844" lon="5.01688">
        <ele>279.200012207</ele>
        <time>2015-11-11T11:00:30.983Z</time>
      </trkpt>
      <trkpt lat="45.90849" lon="5.0169">
        <ele>279.600006104</ele>
        <time>2015-11-11T11:00:31.969Z</time>
      </trkpt>
      <trkpt lat="45.90854" lon="5.01692">
        <ele>279.399993896</ele>
        <time>2015-11-11T11:00:32.986Z</time>
      </trkpt>
      <trkpt lat="45.90859" lon="5.01694">
        <ele>279</ele>
        <time>2015-11-11T11:00:33.968Z</time>
      </trkpt>
      <trkpt lat="45.90864" lon="5.01696">
        <ele>279.299987793</ele>
        <time>2015-11-11T11:00:34.999Z</time>
      </trkpt>
      <trkpt lat="45.9087" lon="5.01698">
        <ele>279.200012207</ele>
        <time>2015-11-11T11:00:35.969Z</time>
      </trkpt>
      <trkpt lat="45.90875" lon="5.017">
        <ele>279.100006104</ele>
        <time>2015-11-11T11:00:36.983Z</time>
      </trkpt>
      <trkpt lat="45.9088" lon="5.01702">
        <ele>279</ele>
        <time>2015-11-11T11:00:37.969Z</time>
      </trkpt>
      <trkpt lat="45.90886" lon="5.01703">
        <ele>278.899993896</ele>
        <time>2015-11-11T11:00:38.987Z</time>
      </trkpt>
      <trkpt lat="45.90891" lon="5.01704">
        <ele>278.799987793</ele>
        <time>2015-11-11T11:00:39.971Z</time>
      </trkpt>
      <trkpt lat="45.90897" lon="5.01706">
        <ele>279</ele>
        <time>2015-11-11T11:00:40.984Z</time>
      </trkpt>
      <trkpt lat="45.90902" lon="5.01707">
        <ele>278.700012207</ele>
        <time>2015-11-11T11:00:41.969Z</time>
      </trkpt>
      <trkpt lat="45.90906" lon="5.01708">
        <ele>278.799987793</ele>
        <time>2015-11-11T11:00:42.983Z</time>
      </trkpt>
      <trkpt lat="45.90911" lon="5.01709">
        <ele>278.5</ele>
        <time>2015-11-11T11:00:43.968Z</time>
      </trkpt>
      <trkpt lat="45.90916" lon="5.0171">
        <ele>278.399993896</ele>
        <time>2015-11-11T11:00:44.986Z</time>
      </trkpt>
      <trkpt lat="45.90921" lon="5.0171">
        <ele>278.100006104</ele>
        <time>2015-11-11T11:00:45.968Z</time>
      </trkpt>
      <trkpt lat="45.90926" lon="5.0171">
        <ele>277.899993896</ele>
        <time>2015-11-11T11:00:46.985Z</time>
      </trkpt>
      <trkpt lat="45.90931" lon="5.01709">
        <ele>277.600006104</ele>
        <time>2015-11-11T11:00:47.969Z</time>
      </trkpt>
      <trkpt lat="45.90936" lon="5.01708">
        <ele>277.5</ele>
        <time>2015-11-11T11:00:48.993Z</time>
      </trkpt>
      <trkpt lat="45.90942" lon="5.01706">
        <ele>277.299987793</ele>
        <time>2015-11-11T11:00:49.97Z</time>
      </trkpt>
      <trkpt lat="45.90947" lon="5.01704">
        <ele>277.100006104</ele>
        <time>2015-11-11T11:00:51.001Z</time>
      </trkpt>
      <trkpt lat="45.90952" lon="5.01702">
        <ele>276.899993896</ele>
        <time>2015-11-11T11:00:51.969Z</time>
      </trkpt>
      <trkpt lat="45.90958" lon="5.017">
        <ele>276.799987793</ele>
        <time>2015-11-11T11:00:52.985Z</time>
      </trkpt>
      <trkpt lat="45.90963" lon="5.01698">
        <ele>276.700012207</ele>
        <time>2015-11-11T11:00:53.968Z</time>
      </trkpt>
      <trkpt lat="45.90969" lon="5.01696">
        <ele>276.299987793</ele>
        <time>2015-11-11T11:00:54.984Z</time>
      </trkpt>
      <trkpt lat="45.90975" lon="5.01694">
        <ele>276</ele>
        <time>2015-11-11T11:00:55.969Z</time>
      </trkpt>
      <trkpt lat="45.90981" lon="5.01692">
        <ele>276</ele>
        <time>2015-11-11T11:00:57.024Z</time>
      </trkpt>
      <trkpt lat="45.90987" lon="5.01689">
        <ele>275.799987793</ele>
        <time>2015-11-11T11:00:57.968Z</time>
      </trkpt>
      <trkpt lat="45.90993" lon="5.01687">
        <ele>275.700012207</ele>
        <time>2015-11-11T11:00:58.985Z</time>
      </trkpt>
      <trkpt lat="45.90999" lon="5.01685">
        <ele>275.600006104</ele>
        <time>2015-11-11T11:00:59.969Z</time>
      </trkpt>
      <trkpt lat="45.91005" lon="5.01683">
        <ele>275.399993896</ele>
        <time>2015-11-11T11:01:00.983Z</time>
      </trkpt>
      <trkpt lat="45.91011" lon="5.0168">
        <ele>275.399993896</ele>
        <time>2015-11-11T11:01:01.968Z</time>
      </trkpt>
      <trkpt lat="45.91018" lon="5.01678">
        <ele>275.200012207</ele>
        <time>2015-11-11T11:01:02.987Z</time>
      </trkpt>
      <trkpt lat="45.91024" lon="5.01675">
        <ele>275</ele>
        <time>2015-11-11T11:01:03.969Z</time>
      </trkpt>
      <trkpt lat="45.91031" lon="5.01672">
        <ele>274.799987793</ele>
        <time>2015-11-11T11:01:04.984Z</time>
      </trkpt>
      <trkpt lat="45.91038" lon="5.01669">
        <ele>274.600006104</ele>
        <time>2015-11-11T11:01:05.969Z</time>
      </trkpt>
      <trkpt lat="45.91046" lon="5.01667">
        <ele>274.5</ele>
        <time>2015-11-11T11:01:06.983Z</time>
      </trkpt>
      <trkpt lat="45.91053" lon="5.01663">
        <ele>274.299987793</ele>
        <time>2015-11-11T11:01:07.969Z</time>
      </trkpt>
      <trkpt lat="45.91061" lon="5.0166">
        <ele>274</ele>
        <time>2015-11-11T11:01:08.987Z</time>
      </trkpt>
      <trkpt lat="45.91068" lon="5.01658">
        <ele>273.799987793</ele>
        <time>2015-11-11T11:01:09.969Z</time>
      </trkpt>
      <trkpt lat="45.91076" lon="5.01655">
        <ele>273.799987793</ele>
        <time>2015-11-11T11:01:10.984Z</time>
      </trkpt>
      <trkpt lat="45.91083" lon="5.01653">
        <ele>273.700012207</ele>
        <time>2015-11-11T11:01:11.968Z</time>
      </trkpt>
      <trkpt lat="45.9109" lon="5.0165">
        <ele>273.399993896</ele>
        <time>2015-11-11T11:01:13.105Z</time>
      </trkpt>
      <trkpt lat="45.91097" lon="5.01647">
        <ele>273.200012207</ele>
        <time>2015-11-11T11:01:13.969Z</time>
      </trkpt>
      <trkpt lat="45.91105" lon="5.01645">
        <ele>273</ele>
        <time>2015-11-11T11:01:14.986Z</time>
      </trkpt>
      <trkpt lat="45.91112" lon="5.01642">
        <ele>272.899993896</ele>
        <time>2015-11-11T11:01:15.97Z</time>
      </trkpt>
      <trkpt lat="45.91119" lon="5.0164">
        <ele>272.700012207</ele>
        <time>2015-11-11T11:01:16.985Z</time>
      </trkpt>
      <trkpt lat="45.91126" lon="5.01637">
        <ele>272.799987793</ele>
        <time>2015-11-11T11:01:17.969Z</time>
      </trkpt>
      <trkpt lat="45.91133" lon="5.01635">
        <ele>272.799987793</ele>
        <time>2015-11-11T11:01:18.983Z</time>
      </trkpt>
      <trkpt lat="45.9114" lon="5.01632">
        <ele>272.799987793</ele>
        <time>2015-11-11T11:01:19.968Z</time>
      </trkpt>
      <trkpt lat="45.91147" lon="5.0163">
        <ele>272.799987793</ele>
        <time>2015-11-11T11:01:20.986Z</time>
      </trkpt>
      <trkpt lat="45.91154" lon="5.01627">
        <ele>272.5</ele>
        <time>2015-11-11T11:01:21.969Z</time>
      </trkpt>
      <trkpt lat="45.91161" lon="5.01624">
        <ele>272.399993896</ele>
        <time>2015-11-11T11:01:22.984Z</time>
      </trkpt>
      <trkpt lat="45.91168" lon="5.01622">
        <ele>272.299987793</ele>
        <time>2015-11-11T11:01:23.969Z</time>
      </trkpt>
      <trkpt lat="45.91174" lon="5.01619">
        <ele>272</ele>
        <time>2015-11-11T11:01:24.984Z</time>
      </trkpt>
      <trkpt lat="45.91181" lon="5.01617">
        <ele>271.899993896</ele>
        <time>2015-11-11T11:01:25.969Z</time>
      </trkpt>
      <trkpt lat="45.91187" lon="5.01615">
        <ele>271.899993896</ele>
        <time>2015-11-11T11:01:26.987Z</time>
      </trkpt>
      <trkpt lat="45.91193" lon="5.01613">
        <ele>271.899993896</ele>
        <time>2015-11-11T11:01:27.969Z</time>
      </trkpt>
      <trkpt lat="45.91199" lon="5.01612">
        <ele>271.600006104</ele>
        <time>2015-11-11T11:01:28.999Z</time>
      </trkpt>
      <trkpt lat="45.91205" lon="5.0161">
        <ele>271.399993896</ele>
        <time>2015-11-11T11:01:29.968Z</time>
      </trkpt>
      <trkpt lat="45.91211" lon="5.01608">
        <ele>271.100006104</ele>
        <time>2015-11-11T11:01:30.987Z</time>
      </trkpt>
      <trkpt lat="45.91217" lon="5.01605">
        <ele>270.600006104</ele>
        <time>2015-11-11T11:01:31.969Z</time>
      </trkpt>
      <trkpt lat="45.91222" lon="5.01601">
        <ele>270.399993896</ele>
        <time>2015-11-11T11:01:33.108Z</time>
      </trkpt>
      <trkpt lat="45.91228" lon="5.01599">
        <ele>270.200012207</ele>
        <time>2015-11-11T11:01:33.969Z</time>
      </trkpt>
      <trkpt lat="45.91233" lon="5.01597">
        <ele>270.200012207</ele>
        <time>2015-11-11T11:01:34.984Z</time>
      </trkpt>
      <trkpt lat="45.91239" lon="5.01595">
        <ele>270.200012207</ele>
        <time>2015-11-11T11:01:35.969Z</time>
      </trkpt>
      <trkpt lat="45.91245" lon="5.01593">
        <ele>269.899993896</ele>
        <time>2015-11-11T11:01:36.983Z</time>
      </trkpt>
      <trkpt lat="45.91251" lon="5.01591">
        <ele>269.899993896</ele>
        <time>2015-11-11T11:01:37.969Z</time>
      </trkpt>
      <trkpt lat="45.91256" lon="5.01589">
        <ele>270</ele>
        <time>2015-11-11T11:01:38.986Z</time>
      </trkpt>
      <trkpt lat="45.91262" lon="5.01588">
        <ele>270</ele>
        <time>2015-11-11T11:01:39.971Z</time>
      </trkpt>
      <trkpt lat="45.91267" lon="5.01587">
        <ele>269.799987793</ele>
        <time>2015-11-11T11:01:40.985Z</time>
      </trkpt>
      <trkpt lat="45.91272" lon="5.01587">
        <ele>270</ele>
        <time>2015-11-11T11:01:41.969Z</time>
      </trkpt>
      <trkpt lat="45.91277" lon="5.01587">
        <ele>270.100006104</ele>
        <time>2015-11-11T11:01:42.983Z</time>
      </trkpt>
      <trkpt lat="45.91282" lon="5.01587">
        <ele>269.899993896</ele>
        <time>2015-11-11T11:01:43.968Z</time>
      </trkpt>
      <trkpt lat="45.91287" lon="5.01586">
        <ele>269.899993896</ele>
        <time>2015-11-11T11:01:44.987Z</time>
      </trkpt>
      <trkpt lat="45.91292" lon="5.01586">
        <ele>269.700012207</ele>
        <time>2015-11-11T11:01:45.968Z</time>
      </trkpt>
      <trkpt lat="45.91296" lon="5.01586">
        <ele>269.799987793</ele>
        <time>2015-11-11T11:01:46.997Z</time>
      </trkpt>
      <trkpt lat="45.91301" lon="5.01586">
        <ele>269.399993896</ele>
        <time>2015-11-11T11:01:47.968Z</time>
      </trkpt>
      <trkpt lat="45.91306" lon="5.01587">
        <ele>269.399993896</ele>
        <time>2015-11-11T11:01:48.983Z</time>
      </trkpt>
      <trkpt lat="45.9131" lon="5.01587">
        <ele>270</ele>
        <time>2015-11-11T11:01:49.968Z</time>
      </trkpt>
      <trkpt lat="45.91315" lon="5.01587">
        <ele>270</ele>
        <time>2015-11-11T11:01:50.987Z</time>
      </trkpt>
      <trkpt lat="45.91319" lon="5.01587">
        <ele>270.299987793</ele>
        <time>2015-11-11T11:01:51.969Z</time>
      </trkpt>
      <trkpt lat="45.91324" lon="5.01587">
        <ele>270.600006104</ele>
        <time>2015-11-11T11:01:52.985Z</time>
      </trkpt>
      <trkpt lat="45.91328" lon="5.01589">
        <ele>270.899993896</ele>
        <time>2015-11-11T11:01:53.969Z</time>
      </trkpt>
      <trkpt lat="45.91337" lon="5.01591">
        <ele>271.5</ele>
        <time>2015-11-11T11:01:55.983Z</time>
      </trkpt>
      <trkpt lat="45.91341" lon="5.01592">
        <ele>271.5</ele>
        <time>2015-11-11T11:01:56.972Z</time>
      </trkpt>
      <trkpt lat="45.91349" lon="5.01593">
        <ele>271.600006104</ele>
        <time>2015-11-11T11:01:58.984Z</time>
      </trkpt>
      <trkpt lat="45.91353" lon="5.01595">
        <ele>271.799987793</ele>
        <time>2015-11-11T11:01:59.97Z</time>
      </trkpt>
      <trkpt lat="45.91362" lon="5.01598">
        <ele>272</ele>
        <time>2015-11-11T11:02:01.984Z</time>
      </trkpt>
      <trkpt lat="45.91366" lon="5.01599">
        <ele>272.299987793</ele>
        <time>2015-11-11T11:02:03.008Z</time>
      </trkpt>
      <trkpt lat="45.91375" lon="5.01602">
        <ele>272.399993896</ele>
        <time>2015-11-11T11:02:04.985Z</time>
      </trkpt>
      <trkpt lat="45.91379" lon="5.01603">
        <ele>272.700012207</ele>
        <time>2015-11-11T11:02:05.968Z</time>
      </trkpt>
      <trkpt lat="45.91387" lon="5.01607">
        <ele>272.799987793</ele>
        <time>2015-11-11T11:02:07.984Z</time>
      </trkpt>
      <trkpt lat="45.91391" lon="5.01609">
        <ele>272.899993896</ele>
        <time>2015-11-11T11:02:08.972Z</time>
      </trkpt>
      <trkpt lat="45.91399" lon="5.01612">
        <ele>273.299987793</ele>
        <time>2015-11-11T11:02:10.983Z</time>
      </trkpt>
      <trkpt lat="45.91403" lon="5.01613">
        <ele>273.200012207</ele>
        <time>2015-11-11T11:02:11.981Z</time>
      </trkpt>
      <trkpt lat="45.91411" lon="5.01616">
        <ele>273.5</ele>
        <time>2015-11-11T11:02:13.983Z</time>
      </trkpt>
      <trkpt lat="45.91414" lon="5.01618">
        <ele>273.600006104</ele>
        <time>2015-11-11T11:02:14.972Z</time>
      </trkpt>
      <trkpt lat="45.91422" lon="5.0162">
        <ele>273.399993896</ele>
        <time>2015-11-11T11:02:16.984Z</time>
      </trkpt>
      <trkpt lat="45.91426" lon="5.01621">
        <ele>273.299987793</ele>
        <time>2015-11-11T11:02:17.968Z</time>
      </trkpt>
      <trkpt lat="45.91434" lon="5.01623">
        <ele>273.5</ele>
        <time>2015-11-11T11:02:19.982Z</time>
      </trkpt>
      <trkpt lat="45.91438" lon="5.01623">
        <ele>273.799987793</ele>
        <time>2015-11-11T11:02:20.972Z</time>
      </trkpt>
      <trkpt lat="45.91446" lon="5.01621">
        <ele>273.899993896</ele>
        <time>2015-11-11T11:02:22.984Z</time>
      </trkpt>
      <trkpt lat="45.9145" lon="5.0162">
        <ele>274</ele>
        <time>2015-11-11T11:02:23.968Z</time>
      </trkpt>
      <trkpt lat="45.91457" lon="5.01615">
        <ele>273.5</ele>
        <time>2015-11-11T11:02:25.982Z</time>
      </trkpt>
      <trkpt lat="45.9146" lon="5.01612">
        <ele>273.600006104</ele>
        <time>2015-11-11T11:02:26.972Z</time>
      </trkpt>
      <trkpt lat="45.91466" lon="5.01605">
        <ele>273.799987793</ele>
        <time>2015-11-11T11:02:28.984Z</time>
      </trkpt>
      <trkpt lat="45.91469" lon="5.01601">
        <ele>274.200012207</ele>
        <time>2015-11-11T11:02:29.968Z</time>
      </trkpt>
      <trkpt lat="45.91475" lon="5.01594">
        <ele>274.799987793</ele>
        <time>2015-11-11T11:02:31.982Z</time>
      </trkpt>
      <trkpt lat="45.91478" lon="5.0159">
        <ele>275.299987793</ele>
        <time>2015-11-11T11:02:32.972Z</time>
      </trkpt>
      <trkpt lat="45.91483" lon="5.01582">
        <ele>275.600006104</ele>
        <time>2015-11-11T11:02:35.098Z</time>
      </trkpt>
      <trkpt lat="45.91485" lon="5.01578">
        <ele>275.799987793</ele>
        <time>2015-11-11T11:02:35.968Z</time>
      </trkpt>
      <trkpt lat="45.91491" lon="5.0157">
        <ele>276.200012207</ele>
        <time>2015-11-11T11:02:37.982Z</time>
      </trkpt>
      <trkpt lat="45.91494" lon="5.01565">
        <ele>276.299987793</ele>
        <time>2015-11-11T11:02:38.972Z</time>
      </trkpt>
      <trkpt lat="45.915" lon="5.01556">
        <ele>276.899993896</ele>
        <time>2015-11-11T11:02:40.983Z</time>
      </trkpt>
      <trkpt lat="45.91503" lon="5.01552">
        <ele>277</ele>
        <time>2015-11-11T11:02:41.968Z</time>
      </trkpt>
      <trkpt lat="45.91509" lon="5.01542">
        <ele>275.899993896</ele>
        <time>2015-11-11T11:02:43.996Z</time>
      </trkpt>
      <trkpt lat="45.91512" lon="5.01538">
        <ele>275.799987793</ele>
        <time>2015-11-11T11:02:44.972Z</time>
      </trkpt>
      <trkpt lat="45.91516" lon="5.01534">
        <ele>275.899993896</ele>
        <time>2015-11-11T11:02:45.983Z</time>
      </trkpt>
      <trkpt lat="45.91519" lon="5.0153">
        <ele>275.299987793</ele>
        <time>2015-11-11T11:02:46.97Z</time>
      </trkpt>
      <trkpt lat="45.91523" lon="5.01525">
        <ele>274.299987793</ele>
        <time>2015-11-11T11:02:48.053Z</time>
      </trkpt>
      <trkpt lat="45.91527" lon="5.0152">
        <ele>273.600006104</ele>
        <time>2015-11-11T11:02:48.968Z</time>
      </trkpt>
      <trkpt lat="45.91531" lon="5.01516">
        <ele>273.299987793</ele>
        <time>2015-11-11T11:02:49.983Z</time>
      </trkpt>
      <trkpt lat="45.91536" lon="5.01511">
        <ele>272.899993896</ele>
        <time>2015-11-11T11:02:50.972Z</time>
      </trkpt>
      <trkpt lat="45.9154" lon="5.01506">
        <ele>272.600006104</ele>
        <time>2015-11-11T11:02:51.983Z</time>
      </trkpt>
      <trkpt lat="45.91544" lon="5.01502">
        <ele>272.399993896</ele>
        <time>2015-11-11T11:02:52.969Z</time>
      </trkpt>
      <trkpt lat="45.91548" lon="5.01497">
        <ele>273.200012207</ele>
        <time>2015-11-11T11:02:53.982Z</time>
      </trkpt>
      <trkpt lat="45.91552" lon="5.01493">
        <ele>273.100006104</ele>
        <time>2015-11-11T11:02:54.968Z</time>
      </trkpt>
      <trkpt lat="45.91556" lon="5.01489">
        <ele>273.200012207</ele>
        <time>2015-11-11T11:02:55.982Z</time>
      </trkpt>
      <trkpt lat="45.91559" lon="5.01484">
        <ele>273.299987793</ele>
        <time>2015-11-11T11:02:56.972Z</time>
      </trkpt>
      <trkpt lat="45.91563" lon="5.01481">
        <ele>273.200012207</ele>
        <time>2015-11-11T11:02:57.982Z</time>
      </trkpt>
      <trkpt lat="45.91567" lon="5.01476">
        <ele>273.299987793</ele>
        <time>2015-11-11T11:02:58.969Z</time>
      </trkpt>
      <trkpt lat="45.91571" lon="5.01472">
        <ele>273.399993896</ele>
        <time>2015-11-11T11:03:00.016Z</time>
      </trkpt>
      <trkpt lat="45.91574" lon="5.01468">
        <ele>273.399993896</ele>
        <time>2015-11-11T11:03:00.969Z</time>
      </trkpt>
      <trkpt lat="45.91578" lon="5.01465">
        <ele>273.899993896</ele>
        <time>2015-11-11T11:03:01.984Z</time>
      </trkpt>
      <trkpt lat="45.91582" lon="5.01461">
        <ele>274.200012207</ele>
        <time>2015-11-11T11:03:02.972Z</time>
      </trkpt>
      <trkpt lat="45.91585" lon="5.01457">
        <ele>274.5</ele>
        <time>2015-11-11T11:03:03.982Z</time>
      </trkpt>
      <trkpt lat="45.91589" lon="5.01452">
        <ele>274.700012207</ele>
        <time>2015-11-11T11:03:04.97Z</time>
      </trkpt>
      <trkpt lat="45.91596" lon="5.01444">
        <ele>274.799987793</ele>
        <time>2015-11-11T11:03:06.982Z</time>
      </trkpt>
      <trkpt lat="45.916" lon="5.0144">
        <ele>275</ele>
        <time>2015-11-11T11:03:07.968Z</time>
      </trkpt>
      <trkpt lat="45.91606" lon="5.01432">
        <ele>275.299987793</ele>
        <time>2015-11-11T11:03:09.982Z</time>
      </trkpt>
      <trkpt lat="45.9161" lon="5.01429">
        <ele>275.5</ele>
        <time>2015-11-11T11:03:10.969Z</time>
      </trkpt>
      <trkpt lat="45.91616" lon="5.01422">
        <ele>275.700012207</ele>
        <time>2015-11-11T11:03:12.982Z</time>
      </trkpt>
      <trkpt lat="45.9162" lon="5.01418">
        <ele>276.100006104</ele>
        <time>2015-11-11T11:03:13.968Z</time>
      </trkpt>
      <trkpt lat="45.91626" lon="5.01411">
        <ele>276.5</ele>
        <time>2015-11-11T11:03:15.997Z</time>
      </trkpt>
      <trkpt lat="45.9163" lon="5.01408">
        <ele>277</ele>
        <time>2015-11-11T11:03:16.97Z</time>
      </trkpt>
      <trkpt lat="45.91638" lon="5.01403">
        <ele>277.5</ele>
        <time>2015-11-11T11:03:18.982Z</time>
      </trkpt>
      <trkpt lat="45.91642" lon="5.014">
        <ele>277.600006104</ele>
        <time>2015-11-11T11:03:19.968Z</time>
      </trkpt>
      <trkpt lat="45.9165" lon="5.01396">
        <ele>277.700012207</ele>
        <time>2015-11-11T11:03:22.019Z</time>
      </trkpt>
      <trkpt lat="45.91654" lon="5.01394">
        <ele>278.299987793</ele>
        <time>2015-11-11T11:03:22.969Z</time>
      </trkpt>
      <trkpt lat="45.91658" lon="5.01392">
        <ele>278.600006104</ele>
        <time>2015-11-11T11:03:23.983Z</time>
      </trkpt>
      <trkpt lat="45.91663" lon="5.01389">
        <ele>279</ele>
        <time>2015-11-11T11:03:24.969Z</time>
      </trkpt>
      <trkpt lat="45.91667" lon="5.01387">
        <ele>279.399993896</ele>
        <time>2015-11-11T11:03:25.983Z</time>
      </trkpt>
      <trkpt lat="45.91672" lon="5.01385">
        <ele>279.299987793</ele>
        <time>2015-11-11T11:03:26.972Z</time>
      </trkpt>
      <trkpt lat="45.91677" lon="5.01383">
        <ele>279.700012207</ele>
        <time>2015-11-11T11:03:27.982Z</time>
      </trkpt>
      <trkpt lat="45.91681" lon="5.01381">
        <ele>279.799987793</ele>
        <time>2015-11-11T11:03:28.969Z</time>
      </trkpt>
      <trkpt lat="45.91689" lon="5.01377">
        <ele>280.200012207</ele>
        <time>2015-11-11T11:03:30.983Z</time>
      </trkpt>
      <trkpt lat="45.91693" lon="5.01375">
        <ele>280.5</ele>
        <time>2015-11-11T11:03:31.968Z</time>
      </trkpt>
      <trkpt lat="45.917" lon="5.01371">
        <ele>280.200012207</ele>
        <time>2015-11-11T11:03:33.983Z</time>
      </trkpt>
      <trkpt lat="45.91704" lon="5.01368">
        <ele>280.299987793</ele>
        <time>2015-11-11T11:03:34.97Z</time>
      </trkpt>
      <trkpt lat="45.91712" lon="5.01364">
        <ele>280.5</ele>
        <time>2015-11-11T11:03:36.983Z</time>
      </trkpt>
      <trkpt lat="45.91716" lon="5.01361">
        <ele>280.100006104</ele>
        <time>2015-11-11T11:03:37.969Z</time>
      </trkpt>
      <trkpt lat="45.91723" lon="5.01357">
        <ele>280.899993896</ele>
        <time>2015-11-11T11:03:39.985Z</time>
      </trkpt>
      <trkpt lat="45.91727" lon="5.01355">
        <ele>280.899993896</ele>
        <time>2015-11-11T11:03:40.97Z</time>
      </trkpt>
      <trkpt lat="45.91735" lon="5.01351">
        <ele>281.100006104</ele>
        <time>2015-11-11T11:03:43.009Z</time>
      </trkpt>
      <trkpt lat="45.91739" lon="5.01349">
        <ele>281.299987793</ele>
        <time>2015-11-11T11:03:43.968Z</time>
      </trkpt>
      <trkpt lat="45.91747" lon="5.01345">
        <ele>281.399993896</ele>
        <time>2015-11-11T11:03:45.982Z</time>
      </trkpt>
      <trkpt lat="45.91752" lon="5.01342">
        <ele>281.100006104</ele>
        <time>2015-11-11T11:03:46.97Z</time>
      </trkpt>
      <trkpt lat="45.91756" lon="5.0134">
        <ele>281.399993896</ele>
        <time>2015-11-11T11:03:47.983Z</time>
      </trkpt>
      <trkpt lat="45.91761" lon="5.01338">
        <ele>281.399993896</ele>
        <time>2015-11-11T11:03:48.968Z</time>
      </trkpt>
      <trkpt lat="45.91765" lon="5.01336">
        <ele>281.600006104</ele>
        <time>2015-11-11T11:03:49.992Z</time>
      </trkpt>
      <trkpt lat="45.9177" lon="5.01335">
        <ele>282</ele>
        <time>2015-11-11T11:03:50.973Z</time>
      </trkpt>
      <trkpt lat="45.91774" lon="5.01332">
        <ele>281.899993896</ele>
        <time>2015-11-11T11:03:51.985Z</time>
      </trkpt>
      <trkpt lat="45.91779" lon="5.0133">
        <ele>281.700012207</ele>
        <time>2015-11-11T11:03:52.971Z</time>
      </trkpt>
      <trkpt lat="45.91784" lon="5.01329">
        <ele>281.600006104</ele>
        <time>2015-11-11T11:03:53.984Z</time>
      </trkpt>
      <trkpt lat="45.91788" lon="5.01327">
        <ele>281.5</ele>
        <time>2015-11-11T11:03:54.968Z</time>
      </trkpt>
      <trkpt lat="45.91793" lon="5.01325">
        <ele>281.299987793</ele>
        <time>2015-11-11T11:03:55.982Z</time>
      </trkpt>
      <trkpt lat="45.91797" lon="5.01324">
        <ele>281.5</ele>
        <time>2015-11-11T11:03:56.971Z</time>
      </trkpt>
      <trkpt lat="45.91802" lon="5.01323">
        <ele>281.600006104</ele>
        <time>2015-11-11T11:03:57.982Z</time>
      </trkpt>
      <trkpt lat="45.91807" lon="5.01322">
        <ele>281.399993896</ele>
        <time>2015-11-11T11:03:58.969Z</time>
      </trkpt>
      <trkpt lat="45.91811" lon="5.01321">
        <ele>281.100006104</ele>
        <time>2015-11-11T11:03:59.982Z</time>
      </trkpt>
      <trkpt lat="45.91816" lon="5.0132">
        <ele>281.399993896</ele>
        <time>2015-11-11T11:04:00.969Z</time>
      </trkpt>
      <trkpt lat="45.91824" lon="5.01318">
        <ele>281.700012207</ele>
        <time>2015-11-11T11:04:02.986Z</time>
      </trkpt>
      <trkpt lat="45.91829" lon="5.01318">
        <ele>281.899993896</ele>
        <time>2015-11-11T11:04:03.982Z</time>
      </trkpt>
      <trkpt lat="45.91838" lon="5.01316">
        <ele>282.399993896</ele>
        <time>2015-11-11T11:04:05.982Z</time>
      </trkpt>
      <trkpt lat="45.91842" lon="5.01316">
        <ele>282.799987793</ele>
        <time>2015-11-11T11:04:06.968Z</time>
      </trkpt>
      <trkpt lat="45.91847" lon="5.01315">
        <ele>283.5</ele>
        <time>2015-11-11T11:04:08.092Z</time>
      </trkpt>
      <trkpt lat="45.91851" lon="5.01314">
        <ele>283.100006104</ele>
        <time>2015-11-11T11:04:08.972Z</time>
      </trkpt>
      <trkpt lat="45.9186" lon="5.01313">
        <ele>283.200012207</ele>
        <time>2015-11-11T11:04:10.983Z</time>
      </trkpt>
      <trkpt lat="45.91863" lon="5.01313">
        <ele>283.600006104</ele>
        <time>2015-11-11T11:04:11.968Z</time>
      </trkpt>
      <trkpt lat="45.91871" lon="5.01311">
        <ele>284.200012207</ele>
        <time>2015-11-11T11:04:13.982Z</time>
      </trkpt>
      <trkpt lat="45.91875" lon="5.0131">
        <ele>284.700012207</ele>
        <time>2015-11-11T11:04:14.971Z</time>
      </trkpt>
      <trkpt lat="45.91883" lon="5.01309">
        <ele>284.700012207</ele>
        <time>2015-11-11T11:04:16.985Z</time>
      </trkpt>
      <trkpt lat="45.91887" lon="5.01308">
        <ele>285</ele>
        <time>2015-11-11T11:04:17.969Z</time>
      </trkpt>
      <trkpt lat="45.91895" lon="5.01306">
        <ele>285.600006104</ele>
        <time>2015-11-11T11:04:19.996Z</time>
      </trkpt>
      <trkpt lat="45.91899" lon="5.01305">
        <ele>285.299987793</ele>
        <time>2015-11-11T11:04:20.971Z</time>
      </trkpt>
      <trkpt lat="45.91907" lon="5.01304">
        <ele>285</ele>
        <time>2015-11-11T11:04:22.984Z</time>
      </trkpt>
      <trkpt lat="45.91911" lon="5.01304">
        <ele>285.100006104</ele>
        <time>2015-11-11T11:04:23.968Z</time>
      </trkpt>
      <trkpt lat="45.91918" lon="5.01303">
        <ele>285.700012207</ele>
        <time>2015-11-11T11:04:25.983Z</time>
      </trkpt>
      <trkpt lat="45.91922" lon="5.01303">
        <ele>286.200012207</ele>
        <time>2015-11-11T11:04:26.971Z</time>
      </trkpt>
      <trkpt lat="45.91931" lon="5.01302">
        <ele>287.399993896</ele>
        <time>2015-11-11T11:04:28.984Z</time>
      </trkpt>
      <trkpt lat="45.91935" lon="5.01301">
        <ele>287.799987793</ele>
        <time>2015-11-11T11:04:29.968Z</time>
      </trkpt>
      <trkpt lat="45.91941" lon="5.013">
        <ele>288.200012207</ele>
        <time>2015-11-11T11:04:30.995Z</time>
      </trkpt>
      <trkpt lat="45.91946" lon="5.013">
        <ele>289</ele>
        <time>2015-11-11T11:04:31.968Z</time>
      </trkpt>
      <trkpt lat="45.9195" lon="5.01299">
        <ele>289.299987793</ele>
        <time>2015-11-11T11:04:32.986Z</time>
      </trkpt>
      <trkpt lat="45.91956" lon="5.01298">
        <ele>289.100006104</ele>
        <time>2015-11-11T11:04:33.969Z</time>
      </trkpt>
      <trkpt lat="45.91961" lon="5.01298">
        <ele>289</ele>
        <time>2015-11-11T11:04:34.984Z</time>
      </trkpt>
      <trkpt lat="45.91966" lon="5.01297">
        <ele>288.700012207</ele>
        <time>2015-11-11T11:04:35.968Z</time>
      </trkpt>
      <trkpt lat="45.91971" lon="5.01296">
        <ele>288.899993896</ele>
        <time>2015-11-11T11:04:36.982Z</time>
      </trkpt>
      <trkpt lat="45.91977" lon="5.01297">
        <ele>289.399993896</ele>
        <time>2015-11-11T11:04:37.968Z</time>
      </trkpt>
      <trkpt lat="45.91982" lon="5.01296">
        <ele>289.399993896</ele>
        <time>2015-11-11T11:04:38.986Z</time>
      </trkpt>
      <trkpt lat="45.91987" lon="5.01295">
        <ele>288.700012207</ele>
        <time>2015-11-11T11:04:39.97Z</time>
      </trkpt>
      <trkpt lat="45.91993" lon="5.01294">
        <ele>289.200012207</ele>
        <time>2015-11-11T11:04:40.983Z</time>
      </trkpt>
      <trkpt lat="45.91998" lon="5.01293">
        <ele>289.399993896</ele>
        <time>2015-11-11T11:04:41.968Z</time>
      </trkpt>
      <trkpt lat="45.92004" lon="5.01291">
        <ele>288.200012207</ele>
        <time>2015-11-11T11:04:42.982Z</time>
      </trkpt>
      <trkpt lat="45.92009" lon="5.0129">
        <ele>288.399993896</ele>
        <time>2015-11-11T11:04:43.969Z</time>
      </trkpt>
      <trkpt lat="45.92015" lon="5.01289">
        <ele>287.700012207</ele>
        <time>2015-11-11T11:04:44.985Z</time>
      </trkpt>
      <trkpt lat="45.9202" lon="5.01287">
        <ele>287.299987793</ele>
        <time>2015-11-11T11:04:45.968Z</time>
      </trkpt>
      <trkpt lat="45.92025" lon="5.01284">
        <ele>286.799987793</ele>
        <time>2015-11-11T11:04:46.998Z</time>
      </trkpt>
      <trkpt lat="45.9203" lon="5.01282">
        <ele>287.399993896</ele>
        <time>2015-11-11T11:04:47.968Z</time>
      </trkpt>
      <trkpt lat="45.92036" lon="5.01276">
        <ele>286.200012207</ele>
        <time>2015-11-11T11:04:49.982Z</time>
      </trkpt>
      <trkpt lat="45.92039" lon="5.01273">
        <ele>286.100006104</ele>
        <time>2015-11-11T11:04:50.971Z</time>
      </trkpt>
      <trkpt lat="45.92044" lon="5.01265">
        <ele>283</ele>
        <time>2015-11-11T11:04:59.982Z</time>
      </trkpt>
      <trkpt lat="45.92044" lon="5.01264">
        <ele>282.799987793</ele>
        <time>2015-11-11T11:05:00.968Z</time>
      </trkpt>
      <trkpt lat="45.92044" lon="5.01262">
        <ele>282.799987793</ele>
        <time>2015-11-11T11:05:03.982Z</time>
      </trkpt>
      <trkpt lat="45.92045" lon="5.01262">
        <ele>282.799987793</ele>
        <time>2015-11-11T11:05:04.969Z</time>
      </trkpt>
      <trkpt lat="45.92047" lon="5.01249">
        <ele>282.700012207</ele>
        <time>2015-11-11T11:05:16.984Z</time>
      </trkpt>
      <trkpt lat="45.92047" lon="5.01248">
        <ele>282.700012207</ele>
        <time>2015-11-11T11:05:17.968Z</time>
      </trkpt>
      <trkpt lat="45.92053" lon="5.01239">
        <ele>282.600006104</ele>
        <time>2015-11-11T11:09:43.982Z</time>
      </trkpt>
      <trkpt lat="45.92053" lon="5.01238">
        <ele>282.600006104</ele>
        <time>2015-11-11T11:09:44.971Z</time>
      </trkpt>
      <trkpt lat="45.92059" lon="5.01245">
        <ele>281.700012207</ele>
        <time>2015-11-11T11:09:56.985Z</time>
      </trkpt>
      <trkpt lat="45.9206" lon="5.01246">
        <ele>281.700012207</ele>
        <time>2015-11-11T11:09:57.967Z</time>
      </trkpt>
      <trkpt lat="45.92069" lon="5.01247">
        <ele>281.700012207</ele>
        <time>2015-11-11T11:10:08.991Z</time>
      </trkpt>
      <trkpt lat="45.9207" lon="5.01246">
        <ele>281.700012207</ele>
        <time>2015-11-11T11:10:09.966Z</time>
      </trkpt>
      <trkpt lat="45.92079" lon="5.01243">
        <ele>281.700012207</ele>
        <time>2015-11-11T11:10:12.981Z</time>
      </trkpt>
      <trkpt lat="45.92082" lon="5.01241">
        <ele>281.799987793</ele>
        <time>2015-11-11T11:10:13.966Z</time>
      </trkpt>
      <trkpt lat="45.92088" lon="5.01238">
        <ele>281.899993896</ele>
        <time>2015-11-11T11:10:16.018Z</time>
      </trkpt>
      <trkpt lat="45.92091" lon="5.01236">
        <ele>282</ele>
        <time>2015-11-11T11:10:16.967Z</time>
      </trkpt>
      <trkpt lat="45.92098" lon="5.01231">
        <ele>282.200012207</ele>
        <time>2015-11-11T11:10:18.982Z</time>
      </trkpt>
      <trkpt lat="45.92102" lon="5.01229">
        <ele>282.299987793</ele>
        <time>2015-11-11T11:10:19.966Z</time>
      </trkpt>
      <trkpt lat="45.92109" lon="5.01223">
        <ele>282.5</ele>
        <time>2015-11-11T11:10:21.981Z</time>
      </trkpt>
      <trkpt lat="45.92113" lon="5.0122">
        <ele>282.600006104</ele>
        <time>2015-11-11T11:10:22.967Z</time>
      </trkpt>
      <trkpt lat="45.92118" lon="5.01217">
        <ele>283.100006104</ele>
        <time>2015-11-11T11:10:23.98Z</time>
      </trkpt>
      <trkpt lat="45.92122" lon="5.01215">
        <ele>283.399993896</ele>
        <time>2015-11-11T11:10:24.967Z</time>
      </trkpt>
      <trkpt lat="45.92126" lon="5.01212">
        <ele>283.700012207</ele>
        <time>2015-11-11T11:10:26.053Z</time>
      </trkpt>
      <trkpt lat="45.9213" lon="5.01209">
        <ele>283.700012207</ele>
        <time>2015-11-11T11:10:26.97Z</time>
      </trkpt>
      <trkpt lat="45.92138" lon="5.01203">
        <ele>283.799987793</ele>
        <time>2015-11-11T11:10:28.982Z</time>
      </trkpt>
      <trkpt lat="45.92142" lon="5.01201">
        <ele>283.899993896</ele>
        <time>2015-11-11T11:10:29.966Z</time>
      </trkpt>
      <trkpt lat="45.9215" lon="5.01196">
        <ele>284.100006104</ele>
        <time>2015-11-11T11:10:31.98Z</time>
      </trkpt>
      <trkpt lat="45.92153" lon="5.01193">
        <ele>284.200012207</ele>
        <time>2015-11-11T11:10:32.97Z</time>
      </trkpt>
      <trkpt lat="45.92158" lon="5.0119">
        <ele>284.200012207</ele>
        <time>2015-11-11T11:10:33.981Z</time>
      </trkpt>
      <trkpt lat="45.92162" lon="5.01188">
        <ele>284.600006104</ele>
        <time>2015-11-11T11:10:34.967Z</time>
      </trkpt>
      <trkpt lat="45.92166" lon="5.01185">
        <ele>284.700012207</ele>
        <time>2015-11-11T11:10:35.991Z</time>
      </trkpt>
      <trkpt lat="45.92171" lon="5.01182">
        <ele>284.799987793</ele>
        <time>2015-11-11T11:10:36.983Z</time>
      </trkpt>
      <trkpt lat="45.92176" lon="5.0118">
        <ele>285.100006104</ele>
        <time>2015-11-11T11:10:37.982Z</time>
      </trkpt>
      <trkpt lat="45.92181" lon="5.01178">
        <ele>285.200012207</ele>
        <time>2015-11-11T11:10:38.97Z</time>
      </trkpt>
      <trkpt lat="45.92186" lon="5.01176">
        <ele>285.100006104</ele>
        <time>2015-11-11T11:10:39.984Z</time>
      </trkpt>
      <trkpt lat="45.92191" lon="5.01175">
        <ele>285</ele>
        <time>2015-11-11T11:10:40.967Z</time>
      </trkpt>
      <trkpt lat="45.92196" lon="5.01174">
        <ele>285.200012207</ele>
        <time>2015-11-11T11:10:41.981Z</time>
      </trkpt>
      <trkpt lat="45.922" lon="5.01173">
        <ele>285.200012207</ele>
        <time>2015-11-11T11:10:42.966Z</time>
      </trkpt>
      <trkpt lat="45.92205" lon="5.01173">
        <ele>285.399993896</ele>
        <time>2015-11-11T11:10:43.981Z</time>
      </trkpt>
      <trkpt lat="45.9221" lon="5.01172">
        <ele>285.600006104</ele>
        <time>2015-11-11T11:10:44.97Z</time>
      </trkpt>
      <trkpt lat="45.92214" lon="5.01172">
        <ele>285.700012207</ele>
        <time>2015-11-11T11:10:45.991Z</time>
      </trkpt>
      <trkpt lat="45.92219" lon="5.01172">
        <ele>285.899993896</ele>
        <time>2015-11-11T11:10:47.078Z</time>
      </trkpt>
      <trkpt lat="45.92223" lon="5.01171">
        <ele>286.100006104</ele>
        <time>2015-11-11T11:10:47.993Z</time>
      </trkpt>
      <trkpt lat="45.92228" lon="5.01171">
        <ele>286.200012207</ele>
        <time>2015-11-11T11:10:48.966Z</time>
      </trkpt>
      <trkpt lat="45.92233" lon="5.01171">
        <ele>286.700012207</ele>
        <time>2015-11-11T11:10:49.98Z</time>
      </trkpt>
      <trkpt lat="45.92237" lon="5.0117">
        <ele>286.600006104</ele>
        <time>2015-11-11T11:10:50.97Z</time>
      </trkpt>
      <trkpt lat="45.92242" lon="5.01169">
        <ele>286.399993896</ele>
        <time>2015-11-11T11:10:51.98Z</time>
      </trkpt>
      <trkpt lat="45.92247" lon="5.01168">
        <ele>286.399993896</ele>
        <time>2015-11-11T11:10:52.967Z</time>
      </trkpt>
      <trkpt lat="45.92251" lon="5.01167">
        <ele>286.700012207</ele>
        <time>2015-11-11T11:10:53.98Z</time>
      </trkpt>
      <trkpt lat="45.92256" lon="5.01166">
        <ele>286.5</ele>
        <time>2015-11-11T11:10:54.966Z</time>
      </trkpt>
      <trkpt lat="45.92261" lon="5.01165">
        <ele>286.700012207</ele>
        <time>2015-11-11T11:10:55.981Z</time>
      </trkpt>
      <trkpt lat="45.92265" lon="5.01164">
        <ele>286.600006104</ele>
        <time>2015-11-11T11:10:56.97Z</time>
      </trkpt>
      <trkpt lat="45.9227" lon="5.01162">
        <ele>286.600006104</ele>
        <time>2015-11-11T11:10:57.981Z</time>
      </trkpt>
      <trkpt lat="45.92274" lon="5.0116">
        <ele>286.299987793</ele>
        <time>2015-11-11T11:10:58.968Z</time>
      </trkpt>
      <trkpt lat="45.92283" lon="5.01157">
        <ele>286.700012207</ele>
        <time>2015-11-11T11:11:00.981Z</time>
      </trkpt>
      <trkpt lat="45.92287" lon="5.01155">
        <ele>287.100006104</ele>
        <time>2015-11-11T11:11:02.077Z</time>
      </trkpt>
      <trkpt lat="45.92295" lon="5.01151">
        <ele>287.399993896</ele>
        <time>2015-11-11T11:11:03.981Z</time>
      </trkpt>
      <trkpt lat="45.923" lon="5.01149">
        <ele>287.700012207</ele>
        <time>2015-11-11T11:11:04.967Z</time>
      </trkpt>
      <trkpt lat="45.92308" lon="5.01146">
        <ele>288.600006104</ele>
        <time>2015-11-11T11:11:06.98Z</time>
      </trkpt>
      <trkpt lat="45.92312" lon="5.01145">
        <ele>289.200012207</ele>
        <time>2015-11-11T11:11:07.967Z</time>
      </trkpt>
      <trkpt lat="45.9232" lon="5.01144">
        <ele>289.200012207</ele>
        <time>2015-11-11T11:11:09.981Z</time>
      </trkpt>
      <trkpt lat="45.92324" lon="5.01143">
        <ele>289.399993896</ele>
        <time>2015-11-11T11:11:10.967Z</time>
      </trkpt>
      <trkpt lat="45.92331" lon="5.0114">
        <ele>289.5</ele>
        <time>2015-11-11T11:11:12.981Z</time>
      </trkpt>
      <trkpt lat="45.92335" lon="5.01138">
        <ele>289.200012207</ele>
        <time>2015-11-11T11:11:13.966Z</time>
      </trkpt>
      <trkpt lat="45.92342" lon="5.01135">
        <ele>289</ele>
        <time>2015-11-11T11:11:15.981Z</time>
      </trkpt>
      <trkpt lat="45.92346" lon="5.01133">
        <ele>288.5</ele>
        <time>2015-11-11T11:11:16.968Z</time>
      </trkpt>
      <trkpt lat="45.92352" lon="5.01129">
        <ele>288.200012207</ele>
        <time>2015-11-11T11:11:18.98Z</time>
      </trkpt>
      <trkpt lat="45.92355" lon="5.01127">
        <ele>288.100006104</ele>
        <time>2015-11-11T11:11:19.966Z</time>
      </trkpt>
      <trkpt lat="45.92362" lon="5.01124">
        <ele>288.899993896</ele>
        <time>2015-11-11T11:11:21.981Z</time>
      </trkpt>
      <trkpt lat="45.92365" lon="5.01123">
        <ele>288.899993896</ele>
        <time>2015-11-11T11:11:22.967Z</time>
      </trkpt>
      <trkpt lat="45.92373" lon="5.0112">
        <ele>289.299987793</ele>
        <time>2015-11-11T11:11:24.994Z</time>
      </trkpt>
      <trkpt lat="45.92376" lon="5.01118">
        <ele>289.299987793</ele>
        <time>2015-11-11T11:11:25.966Z</time>
      </trkpt>
      <trkpt lat="45.92381" lon="5.01113">
        <ele>289.200012207</ele>
        <time>2015-11-11T11:11:27.981Z</time>
      </trkpt>
      <trkpt lat="45.92384" lon="5.0111">
        <ele>289.100006104</ele>
        <time>2015-11-11T11:11:28.968Z</time>
      </trkpt>
      <trkpt lat="45.92388" lon="5.011">
        <ele>288.700012207</ele>
        <time>2015-11-11T11:11:30.981Z</time>
      </trkpt>
      <trkpt lat="45.92391" lon="5.01096">
        <ele>289.100006104</ele>
        <time>2015-11-11T11:11:32.003Z</time>
      </trkpt>
      <trkpt lat="45.92395" lon="5.0109">
        <ele>288.899993896</ele>
        <time>2015-11-11T11:11:32.984Z</time>
      </trkpt>
      <trkpt lat="45.92398" lon="5.01086">
        <ele>288.399993896</ele>
        <time>2015-11-11T11:11:33.966Z</time>
      </trkpt>
      <trkpt lat="45.92403" lon="5.01083">
        <ele>287.899993896</ele>
        <time>2015-11-11T11:11:34.981Z</time>
      </trkpt>
      <trkpt lat="45.92407" lon="5.0108">
        <ele>287.799987793</ele>
        <time>2015-11-11T11:11:35.983Z</time>
      </trkpt>
      <trkpt lat="45.92411" lon="5.01077">
        <ele>287.399993896</ele>
        <time>2015-11-11T11:11:36.98Z</time>
      </trkpt>
      <trkpt lat="45.92416" lon="5.01074">
        <ele>287.299987793</ele>
        <time>2015-11-11T11:11:37.966Z</time>
      </trkpt>
      <trkpt lat="45.9242" lon="5.01073">
        <ele>287.299987793</ele>
        <time>2015-11-11T11:11:38.984Z</time>
      </trkpt>
      <trkpt lat="45.92425" lon="5.01072">
        <ele>287.200012207</ele>
        <time>2015-11-11T11:11:39.969Z</time>
      </trkpt>
      <trkpt lat="45.92431" lon="5.01072">
        <ele>287.200012207</ele>
        <time>2015-11-11T11:11:40.982Z</time>
      </trkpt>
      <trkpt lat="45.92436" lon="5.01071">
        <ele>287.100006104</ele>
        <time>2015-11-11T11:11:41.967Z</time>
      </trkpt>
      <trkpt lat="45.92441" lon="5.0107">
        <ele>287</ele>
        <time>2015-11-11T11:11:42.98Z</time>
      </trkpt>
      <trkpt lat="45.92446" lon="5.0107">
        <ele>286.899993896</ele>
        <time>2015-11-11T11:11:43.966Z</time>
      </trkpt>
      <trkpt lat="45.92452" lon="5.01069">
        <ele>286.899993896</ele>
        <time>2015-11-11T11:11:44.984Z</time>
      </trkpt>
      <trkpt lat="45.92457" lon="5.01068">
        <ele>286.899993896</ele>
        <time>2015-11-11T11:11:45.966Z</time>
      </trkpt>
      <trkpt lat="45.92462" lon="5.01068">
        <ele>286.899993896</ele>
        <time>2015-11-11T11:11:46.982Z</time>
      </trkpt>
      <trkpt lat="45.92468" lon="5.01067">
        <ele>286.799987793</ele>
        <time>2015-11-11T11:11:47.966Z</time>
      </trkpt>
      <trkpt lat="45.92473" lon="5.01067">
        <ele>286.700012207</ele>
        <time>2015-11-11T11:11:48.98Z</time>
      </trkpt>
      <trkpt lat="45.92479" lon="5.01066">
        <ele>286.5</ele>
        <time>2015-11-11T11:11:49.966Z</time>
      </trkpt>
      <trkpt lat="45.92485" lon="5.01066">
        <ele>286.100006104</ele>
        <time>2015-11-11T11:11:50.984Z</time>
      </trkpt>
      <trkpt lat="45.92491" lon="5.01066">
        <ele>285.799987793</ele>
        <time>2015-11-11T11:11:51.966Z</time>
      </trkpt>
      <trkpt lat="45.92496" lon="5.01066">
        <ele>285.700012207</ele>
        <time>2015-11-11T11:11:52.981Z</time>
      </trkpt>
      <trkpt lat="45.92502" lon="5.01066">
        <ele>285.600006104</ele>
        <time>2015-11-11T11:11:53.966Z</time>
      </trkpt>
      <trkpt lat="45.92508" lon="5.01065">
        <ele>285.299987793</ele>
        <time>2015-11-11T11:11:54.981Z</time>
      </trkpt>
      <trkpt lat="45.92513" lon="5.01064">
        <ele>285.200012207</ele>
        <time>2015-11-11T11:11:55.966Z</time>
      </trkpt>
      <trkpt lat="45.92518" lon="5.01064">
        <ele>285.200012207</ele>
        <time>2015-11-11T11:11:56.985Z</time>
      </trkpt>
      <trkpt lat="45.92523" lon="5.01063">
        <ele>285</ele>
        <time>2015-11-11T11:11:57.966Z</time>
      </trkpt>
      <trkpt lat="45.92528" lon="5.01063">
        <ele>284.899993896</ele>
        <time>2015-11-11T11:11:58.983Z</time>
      </trkpt>
      <trkpt lat="45.92533" lon="5.01062">
        <ele>284.799987793</ele>
        <time>2015-11-11T11:11:59.966Z</time>
      </trkpt>
      <trkpt lat="45.92539" lon="5.01062">
        <ele>284.600006104</ele>
        <time>2015-11-11T11:12:00.981Z</time>
      </trkpt>
      <trkpt lat="45.92544" lon="5.01061">
        <ele>284.5</ele>
        <time>2015-11-11T11:12:01.966Z</time>
      </trkpt>
      <trkpt lat="45.9255" lon="5.01059">
        <ele>284.299987793</ele>
        <time>2015-11-11T11:12:02.998Z</time>
      </trkpt>
      <trkpt lat="45.92555" lon="5.01057">
        <ele>284.200012207</ele>
        <time>2015-11-11T11:12:03.967Z</time>
      </trkpt>
      <trkpt lat="45.92561" lon="5.01054">
        <ele>284.100006104</ele>
        <time>2015-11-11T11:12:04.981Z</time>
      </trkpt>
      <trkpt lat="45.92567" lon="5.01052">
        <ele>284</ele>
        <time>2015-11-11T11:12:05.966Z</time>
      </trkpt>
      <trkpt lat="45.92573" lon="5.0105">
        <ele>284</ele>
        <time>2015-11-11T11:12:06.98Z</time>
      </trkpt>
      <trkpt lat="45.92579" lon="5.01049">
        <ele>283.899993896</ele>
        <time>2015-11-11T11:12:07.966Z</time>
      </trkpt>
      <trkpt lat="45.92585" lon="5.01046">
        <ele>284</ele>
        <time>2015-11-11T11:12:08.984Z</time>
      </trkpt>
      <trkpt lat="45.92591" lon="5.01044">
        <ele>283.899993896</ele>
        <time>2015-11-11T11:12:09.967Z</time>
      </trkpt>
      <trkpt lat="45.92597" lon="5.01043">
        <ele>283.799987793</ele>
        <time>2015-11-11T11:12:10.982Z</time>
      </trkpt>
      <trkpt lat="45.92604" lon="5.01041">
        <ele>283.899993896</ele>
        <time>2015-11-11T11:12:11.966Z</time>
      </trkpt>
      <trkpt lat="45.9261" lon="5.01038">
        <ele>283.799987793</ele>
        <time>2015-11-11T11:12:12.981Z</time>
      </trkpt>
      <trkpt lat="45.92616" lon="5.01036">
        <ele>283.700012207</ele>
        <time>2015-11-11T11:12:13.967Z</time>
      </trkpt>
      <trkpt lat="45.92622" lon="5.01034">
        <ele>283.600006104</ele>
        <time>2015-11-11T11:12:15.018Z</time>
      </trkpt>
      <trkpt lat="45.92627" lon="5.01032">
        <ele>283.899993896</ele>
        <time>2015-11-11T11:12:15.967Z</time>
      </trkpt>
      <trkpt lat="45.92632" lon="5.0103">
        <ele>283.799987793</ele>
        <time>2015-11-11T11:12:16.981Z</time>
      </trkpt>
      <trkpt lat="45.92638" lon="5.01028">
        <ele>283.700012207</ele>
        <time>2015-11-11T11:12:17.966Z</time>
      </trkpt>
      <trkpt lat="45.92644" lon="5.01026">
        <ele>283.799987793</ele>
        <time>2015-11-11T11:12:18.995Z</time>
      </trkpt>
      <trkpt lat="45.9265" lon="5.01024">
        <ele>283.700012207</ele>
        <time>2015-11-11T11:12:19.967Z</time>
      </trkpt>
      <trkpt lat="45.92655" lon="5.01021">
        <ele>283.700012207</ele>
        <time>2015-11-11T11:12:20.984Z</time>
      </trkpt>
      <trkpt lat="45.9266" lon="5.01019">
        <ele>283.600006104</ele>
        <time>2015-11-11T11:12:21.966Z</time>
      </trkpt>
      <trkpt lat="45.92666" lon="5.01017">
        <ele>284.299987793</ele>
        <time>2015-11-11T11:12:22.982Z</time>
      </trkpt>
      <trkpt lat="45.92671" lon="5.01014">
        <ele>284.899993896</ele>
        <time>2015-11-11T11:12:23.966Z</time>
      </trkpt>
      <trkpt lat="45.92676" lon="5.01012">
        <ele>285</ele>
        <time>2015-11-11T11:12:24.981Z</time>
      </trkpt>
      <trkpt lat="45.92682" lon="5.0101">
        <ele>285.200012207</ele>
        <time>2015-11-11T11:12:25.967Z</time>
      </trkpt>
      <trkpt lat="45.92687" lon="5.01005">
        <ele>285.399993896</ele>
        <time>2015-11-11T11:12:27.019Z</time>
      </trkpt>
      <trkpt lat="45.92692" lon="5.01001">
        <ele>285.399993896</ele>
        <time>2015-11-11T11:12:27.967Z</time>
      </trkpt>
      <trkpt lat="45.92696" lon="5.00997">
        <ele>285.700012207</ele>
        <time>2015-11-11T11:12:28.982Z</time>
      </trkpt>
      <trkpt lat="45.92701" lon="5.00992">
        <ele>285.700012207</ele>
        <time>2015-11-11T11:12:29.966Z</time>
      </trkpt>
      <trkpt lat="45.92706" lon="5.00987">
        <ele>285.600006104</ele>
        <time>2015-11-11T11:12:30.98Z</time>
      </trkpt>
      <trkpt lat="45.92711" lon="5.00981">
        <ele>285.600006104</ele>
        <time>2015-11-11T11:12:31.966Z</time>
      </trkpt>
      <trkpt lat="45.92716" lon="5.00976">
        <ele>286</ele>
        <time>2015-11-11T11:12:32.984Z</time>
      </trkpt>
      <trkpt lat="45.9272" lon="5.0097">
        <ele>286.200012207</ele>
        <time>2015-11-11T11:12:33.966Z</time>
      </trkpt>
      <trkpt lat="45.92726" lon="5.00963">
        <ele>286.700012207</ele>
        <time>2015-11-11T11:12:34.996Z</time>
      </trkpt>
      <trkpt lat="45.92731" lon="5.00957">
        <ele>286.899993896</ele>
        <time>2015-11-11T11:12:35.966Z</time>
      </trkpt>
      <trkpt lat="45.92736" lon="5.00952">
        <ele>287.100006104</ele>
        <time>2015-11-11T11:12:36.98Z</time>
      </trkpt>
      <trkpt lat="45.9274" lon="5.00947">
        <ele>287.200012207</ele>
        <time>2015-11-11T11:12:37.966Z</time>
      </trkpt>
      <trkpt lat="45.92744" lon="5.00942">
        <ele>287.200012207</ele>
        <time>2015-11-11T11:12:38.984Z</time>
      </trkpt>
      <trkpt lat="45.92748" lon="5.00937">
        <ele>287.200012207</ele>
        <time>2015-11-11T11:12:39.969Z</time>
      </trkpt>
      <trkpt lat="45.92752" lon="5.00933">
        <ele>287.299987793</ele>
        <time>2015-11-11T11:12:40.982Z</time>
      </trkpt>
      <trkpt lat="45.92756" lon="5.00928">
        <ele>287.5</ele>
        <time>2015-11-11T11:12:41.966Z</time>
      </trkpt>
      <trkpt lat="45.9276" lon="5.00922">
        <ele>287.799987793</ele>
        <time>2015-11-11T11:12:42.98Z</time>
      </trkpt>
      <trkpt lat="45.92763" lon="5.00917">
        <ele>288.299987793</ele>
        <time>2015-11-11T11:12:43.966Z</time>
      </trkpt>
      <trkpt lat="45.92768" lon="5.00913">
        <ele>288</ele>
        <time>2015-11-11T11:12:45.008Z</time>
      </trkpt>
      <trkpt lat="45.92772" lon="5.00909">
        <ele>288.399993896</ele>
        <time>2015-11-11T11:12:45.967Z</time>
      </trkpt>
      <trkpt lat="45.92776" lon="5.00904">
        <ele>288.5</ele>
        <time>2015-11-11T11:12:46.981Z</time>
      </trkpt>
      <trkpt lat="45.9278" lon="5.00899">
        <ele>288.600006104</ele>
        <time>2015-11-11T11:12:47.966Z</time>
      </trkpt>
      <trkpt lat="45.92784" lon="5.00895">
        <ele>288.399993896</ele>
        <time>2015-11-11T11:12:48.981Z</time>
      </trkpt>
      <trkpt lat="45.92789" lon="5.0089">
        <ele>288.700012207</ele>
        <time>2015-11-11T11:12:49.966Z</time>
      </trkpt>
      <trkpt lat="45.92793" lon="5.00886">
        <ele>289</ele>
        <time>2015-11-11T11:12:50.997Z</time>
      </trkpt>
      <trkpt lat="45.92797" lon="5.00881">
        <ele>289.299987793</ele>
        <time>2015-11-11T11:12:51.966Z</time>
      </trkpt>
      <trkpt lat="45.92801" lon="5.00875">
        <ele>289.299987793</ele>
        <time>2015-11-11T11:12:52.981Z</time>
      </trkpt>
      <trkpt lat="45.92805" lon="5.0087">
        <ele>289.5</ele>
        <time>2015-11-11T11:12:53.966Z</time>
      </trkpt>
      <trkpt lat="45.92808" lon="5.00865">
        <ele>289.600006104</ele>
        <time>2015-11-11T11:12:54.98Z</time>
      </trkpt>
      <trkpt lat="45.92812" lon="5.00859">
        <ele>289.700012207</ele>
        <time>2015-11-11T11:12:55.995Z</time>
      </trkpt>
      <trkpt lat="45.92815" lon="5.00853">
        <ele>289.899993896</ele>
        <time>2015-11-11T11:12:56.984Z</time>
      </trkpt>
      <trkpt lat="45.92818" lon="5.00847">
        <ele>290</ele>
        <time>2015-11-11T11:12:57.966Z</time>
      </trkpt>
      <trkpt lat="45.92821" lon="5.00841">
        <ele>290.399993896</ele>
        <time>2015-11-11T11:12:58.982Z</time>
      </trkpt>
      <trkpt lat="45.92824" lon="5.00836">
        <ele>290.799987793</ele>
        <time>2015-11-11T11:12:59.966Z</time>
      </trkpt>
      <trkpt lat="45.92827" lon="5.0083">
        <ele>291</ele>
        <time>2015-11-11T11:13:01.005Z</time>
      </trkpt>
      <trkpt lat="45.9283" lon="5.00824">
        <ele>291.200012207</ele>
        <time>2015-11-11T11:13:01.966Z</time>
      </trkpt>
      <trkpt lat="45.92832" lon="5.00818">
        <ele>291.399993896</ele>
        <time>2015-11-11T11:13:02.985Z</time>
      </trkpt>
      <trkpt lat="45.92835" lon="5.00812">
        <ele>291.399993896</ele>
        <time>2015-11-11T11:13:04.018Z</time>
      </trkpt>
      <trkpt lat="45.92837" lon="5.00807">
        <ele>291.299987793</ele>
        <time>2015-11-11T11:13:04.981Z</time>
      </trkpt>
      <trkpt lat="45.9284" lon="5.008">
        <ele>291.600006104</ele>
        <time>2015-11-11T11:13:05.966Z</time>
      </trkpt>
      <trkpt lat="45.92843" lon="5.00794">
        <ele>291.700012207</ele>
        <time>2015-11-11T11:13:06.98Z</time>
      </trkpt>
      <trkpt lat="45.92846" lon="5.00788">
        <ele>291.700012207</ele>
        <time>2015-11-11T11:13:07.966Z</time>
      </trkpt>
      <trkpt lat="45.92849" lon="5.00782">
        <ele>291.899993896</ele>
        <time>2015-11-11T11:13:08.984Z</time>
      </trkpt>
      <trkpt lat="45.92852" lon="5.00777">
        <ele>292.200012207</ele>
        <time>2015-11-11T11:13:09.966Z</time>
      </trkpt>
      <trkpt lat="45.92855" lon="5.00772">
        <ele>292.399993896</ele>
        <time>2015-11-11T11:13:10.982Z</time>
      </trkpt>
      <trkpt lat="45.92858" lon="5.00768">
        <ele>292.700012207</ele>
        <time>2015-11-11T11:13:11.979Z</time>
      </trkpt>
      <trkpt lat="45.92862" lon="5.00763">
        <ele>292.799987793</ele>
        <time>2015-11-11T11:13:12.98Z</time>
      </trkpt>
      <trkpt lat="45.92865" lon="5.00759">
        <ele>293.100006104</ele>
        <time>2015-11-11T11:13:13.966Z</time>
      </trkpt>
      <trkpt lat="45.92869" lon="5.00756">
        <ele>293.100006104</ele>
        <time>2015-11-11T11:13:14.984Z</time>
      </trkpt>
      <trkpt lat="45.92873" lon="5.00752">
        <ele>293.200012207</ele>
        <time>2015-11-11T11:13:15.967Z</time>
      </trkpt>
      <trkpt lat="45.92878" lon="5.00748">
        <ele>293.299987793</ele>
        <time>2015-11-11T11:13:16.982Z</time>
      </trkpt>
      <trkpt lat="45.92883" lon="5.00744">
        <ele>293.299987793</ele>
        <time>2015-11-11T11:13:17.966Z</time>
      </trkpt>
      <trkpt lat="45.92887" lon="5.0074">
        <ele>293.399993896</ele>
        <time>2015-11-11T11:13:18.98Z</time>
      </trkpt>
      <trkpt lat="45.92892" lon="5.00736">
        <ele>293.600006104</ele>
        <time>2015-11-11T11:13:19.966Z</time>
      </trkpt>
      <trkpt lat="45.92897" lon="5.00733">
        <ele>293.700012207</ele>
        <time>2015-11-11T11:13:20.984Z</time>
      </trkpt>
      <trkpt lat="45.92902" lon="5.0073">
        <ele>294</ele>
        <time>2015-11-11T11:13:21.966Z</time>
      </trkpt>
      <trkpt lat="45.92906" lon="5.00727">
        <ele>294</ele>
        <time>2015-11-11T11:13:23.005Z</time>
      </trkpt>
      <trkpt lat="45.92911" lon="5.00724">
        <ele>294.200012207</ele>
        <time>2015-11-11T11:13:23.966Z</time>
      </trkpt>
      <trkpt lat="45.92916" lon="5.00721">
        <ele>294.799987793</ele>
        <time>2015-11-11T11:13:24.981Z</time>
      </trkpt>
      <trkpt lat="45.92921" lon="5.00718">
        <ele>294.700012207</ele>
        <time>2015-11-11T11:13:25.967Z</time>
      </trkpt>
      <trkpt lat="45.92926" lon="5.00714">
        <ele>295</ele>
        <time>2015-11-11T11:13:26.984Z</time>
      </trkpt>
      <trkpt lat="45.92931" lon="5.00711">
        <ele>294.899993896</ele>
        <time>2015-11-11T11:13:27.967Z</time>
      </trkpt>
      <trkpt lat="45.92936" lon="5.00707">
        <ele>295</ele>
        <time>2015-11-11T11:13:28.982Z</time>
      </trkpt>
      <trkpt lat="45.92941" lon="5.00704">
        <ele>295.200012207</ele>
        <time>2015-11-11T11:13:29.966Z</time>
      </trkpt>
      <trkpt lat="45.92946" lon="5.00701">
        <ele>295.5</ele>
        <time>2015-11-11T11:13:30.981Z</time>
      </trkpt>
      <trkpt lat="45.92951" lon="5.00698">
        <ele>295.399993896</ele>
        <time>2015-11-11T11:13:31.966Z</time>
      </trkpt>
      <trkpt lat="45.92956" lon="5.00695">
        <ele>295.5</ele>
        <time>2015-11-11T11:13:33.01Z</time>
      </trkpt>
      <trkpt lat="45.92961" lon="5.00692">
        <ele>295.600006104</ele>
        <time>2015-11-11T11:13:33.966Z</time>
      </trkpt>
      <trkpt lat="45.92966" lon="5.00689">
        <ele>295.700012207</ele>
        <time>2015-11-11T11:13:34.982Z</time>
      </trkpt>
      <trkpt lat="45.92971" lon="5.00687">
        <ele>295.899993896</ele>
        <time>2015-11-11T11:13:35.966Z</time>
      </trkpt>
      <trkpt lat="45.92976" lon="5.00684">
        <ele>296.299987793</ele>
        <time>2015-11-11T11:13:36.989Z</time>
      </trkpt>
      <trkpt lat="45.92981" lon="5.00681">
        <ele>296.600006104</ele>
        <time>2015-11-11T11:13:37.967Z</time>
      </trkpt>
      <trkpt lat="45.92986" lon="5.00678">
        <ele>296.799987793</ele>
        <time>2015-11-11T11:13:38.984Z</time>
      </trkpt>
      <trkpt lat="45.92992" lon="5.00674">
        <ele>296.899993896</ele>
        <time>2015-11-11T11:13:39.97Z</time>
      </trkpt>
      <trkpt lat="45.92997" lon="5.0067">
        <ele>297.200012207</ele>
        <time>2015-11-11T11:13:40.994Z</time>
      </trkpt>
      <trkpt lat="45.93002" lon="5.00667">
        <ele>297.5</ele>
        <time>2015-11-11T11:13:41.966Z</time>
      </trkpt>
      <trkpt lat="45.93008" lon="5.00665">
        <ele>297.399993896</ele>
        <time>2015-11-11T11:13:42.981Z</time>
      </trkpt>
      <trkpt lat="45.93014" lon="5.00663">
        <ele>297.299987793</ele>
        <time>2015-11-11T11:13:43.966Z</time>
      </trkpt>
      <trkpt lat="45.93019" lon="5.00662">
        <ele>297.100006104</ele>
        <time>2015-11-11T11:13:44.984Z</time>
      </trkpt>
      <trkpt lat="45.93025" lon="5.00661">
        <ele>297.200012207</ele>
        <time>2015-11-11T11:13:45.966Z</time>
      </trkpt>
      <trkpt lat="45.9303" lon="5.0066">
        <ele>297.200012207</ele>
        <time>2015-11-11T11:13:47.078Z</time>
      </trkpt>
      <trkpt lat="45.93035" lon="5.00659">
        <ele>297.700012207</ele>
        <time>2015-11-11T11:13:47.986Z</time>
      </trkpt>
      <trkpt lat="45.93041" lon="5.00659">
        <ele>297.899993896</ele>
        <time>2015-11-11T11:13:48.981Z</time>
      </trkpt>
      <trkpt lat="45.93046" lon="5.00658">
        <ele>297.899993896</ele>
        <time>2015-11-11T11:13:49.966Z</time>
      </trkpt>
      <trkpt lat="45.93051" lon="5.00658">
        <ele>297.399993896</ele>
        <time>2015-11-11T11:13:50.986Z</time>
      </trkpt>
      <trkpt lat="45.93056" lon="5.00657">
        <ele>296.899993896</ele>
        <time>2015-11-11T11:13:52.006Z</time>
      </trkpt>
      <trkpt lat="45.93061" lon="5.00656">
        <ele>296.799987793</ele>
        <time>2015-11-11T11:13:53.051Z</time>
      </trkpt>
      <trkpt lat="45.93065" lon="5.00656">
        <ele>296.799987793</ele>
        <time>2015-11-11T11:13:53.966Z</time>
      </trkpt>
      <trkpt lat="45.9307" lon="5.00655">
        <ele>296.200012207</ele>
        <time>2015-11-11T11:13:54.996Z</time>
      </trkpt>
      <trkpt lat="45.93075" lon="5.00655">
        <ele>296</ele>
        <time>2015-11-11T11:13:55.967Z</time>
      </trkpt>
      <trkpt lat="45.93079" lon="5.00654">
        <ele>296</ele>
        <time>2015-11-11T11:13:56.984Z</time>
      </trkpt>
      <trkpt lat="45.93084" lon="5.00653">
        <ele>295.700012207</ele>
        <time>2015-11-11T11:13:57.973Z</time>
      </trkpt>
      <trkpt lat="45.93089" lon="5.00653">
        <ele>295.700012207</ele>
        <time>2015-11-11T11:13:58.981Z</time>
      </trkpt>
      <trkpt lat="45.93093" lon="5.00652">
        <ele>295.700012207</ele>
        <time>2015-11-11T11:13:59.968Z</time>
      </trkpt>
      <trkpt lat="45.93101" lon="5.0065">
        <ele>294.600006104</ele>
        <time>2015-11-11T11:14:01.982Z</time>
      </trkpt>
      <trkpt lat="45.93105" lon="5.0065">
        <ele>295.100006104</ele>
        <time>2015-11-11T11:14:02.971Z</time>
      </trkpt>
      <trkpt lat="45.93112" lon="5.00648">
        <ele>295.899993896</ele>
        <time>2015-11-11T11:14:04.981Z</time>
      </trkpt>
      <trkpt lat="45.93115" lon="5.00647">
        <ele>295.700012207</ele>
        <time>2015-11-11T11:14:05.966Z</time>
      </trkpt>
      <trkpt lat="45.93117" lon="5.00647">
        <ele>295.399993896</ele>
        <time>2015-11-11T11:14:07.027Z</time>
      </trkpt>
      <trkpt lat="45.93118" lon="5.00645">
        <ele>295.5</ele>
        <time>2015-11-11T11:14:07.97Z</time>
      </trkpt>
      <trkpt lat="45.93122" lon="5.00641">
        <ele>294.799987793</ele>
        <time>2015-11-11T11:14:18.98Z</time>
      </trkpt>
      <trkpt lat="45.93122" lon="5.0064">
        <ele>295.200012207</ele>
        <time>2015-11-11T11:14:19.966Z</time>
      </trkpt>
      <trkpt lat="45.93121" lon="5.00639">
        <ele>295.200012207</ele>
        <time>2015-11-11T11:15:10.983Z</time>
      </trkpt>
      <trkpt lat="45.93123" lon="5.00641">
        <ele>295</ele>
        <time>2015-11-11T11:15:11.967Z</time>
      </trkpt>
      <trkpt lat="45.93127" lon="5.00639">
        <ele>295</ele>
        <time>2015-11-11T11:15:12.983Z</time>
      </trkpt>
      <trkpt lat="45.9313" lon="5.0064">
        <ele>295.100006104</ele>
        <time>2015-11-11T11:15:13.967Z</time>
      </trkpt>
      <trkpt lat="45.93136" lon="5.00642">
        <ele>294.799987793</ele>
        <time>2015-11-11T11:15:15.983Z</time>
      </trkpt>
      <trkpt lat="45.9314" lon="5.00642">
        <ele>294.700012207</ele>
        <time>2015-11-11T11:15:16.969Z</time>
      </trkpt>
      <trkpt lat="45.93148" lon="5.00642">
        <ele>294.799987793</ele>
        <time>2015-11-11T11:15:18.984Z</time>
      </trkpt>
      <trkpt lat="45.93151" lon="5.00641">
        <ele>294.799987793</ele>
        <time>2015-11-11T11:15:19.969Z</time>
      </trkpt>
      <trkpt lat="45.93155" lon="5.00641">
        <ele>295</ele>
        <time>2015-11-11T11:15:20.988Z</time>
      </trkpt>
      <trkpt lat="45.9316" lon="5.00641">
        <ele>294.899993896</ele>
        <time>2015-11-11T11:15:21.968Z</time>
      </trkpt>
      <trkpt lat="45.93169" lon="5.0064">
        <ele>295.100006104</ele>
        <time>2015-11-11T11:15:24.023Z</time>
      </trkpt>
      <trkpt lat="45.93173" lon="5.00639">
        <ele>295.100006104</ele>
        <time>2015-11-11T11:15:24.967Z</time>
      </trkpt>
      <trkpt lat="45.93178" lon="5.00638">
        <ele>295.200012207</ele>
        <time>2015-11-11T11:15:25.983Z</time>
      </trkpt>
      <trkpt lat="45.93183" lon="5.00637">
        <ele>295.200012207</ele>
        <time>2015-11-11T11:15:26.971Z</time>
      </trkpt>
      <trkpt lat="45.93187" lon="5.00635">
        <ele>295</ele>
        <time>2015-11-11T11:15:27.988Z</time>
      </trkpt>
      <trkpt lat="45.93192" lon="5.00634">
        <ele>295.299987793</ele>
        <time>2015-11-11T11:15:28.969Z</time>
      </trkpt>
      <trkpt lat="45.93196" lon="5.00632">
        <ele>295.799987793</ele>
        <time>2015-11-11T11:15:29.982Z</time>
      </trkpt>
      <trkpt lat="45.932" lon="5.0063">
        <ele>296.100006104</ele>
        <time>2015-11-11T11:15:30.981Z</time>
      </trkpt>
      <trkpt lat="45.93205" lon="5.00628">
        <ele>296.200012207</ele>
        <time>2015-11-11T11:15:31.983Z</time>
      </trkpt>
      <trkpt lat="45.93209" lon="5.00626">
        <ele>295.899993896</ele>
        <time>2015-11-11T11:15:32.971Z</time>
      </trkpt>
      <trkpt lat="45.93217" lon="5.00621">
        <ele>296.100006104</ele>
        <time>2015-11-11T11:15:34.984Z</time>
      </trkpt>
      <trkpt lat="45.93222" lon="5.00618">
        <ele>296.299987793</ele>
        <time>2015-11-11T11:15:35.967Z</time>
      </trkpt>
      <trkpt lat="45.93227" lon="5.00616">
        <ele>295.799987793</ele>
        <time>2015-11-11T11:15:36.983Z</time>
      </trkpt>
      <trkpt lat="45.93231" lon="5.00613">
        <ele>295.600006104</ele>
        <time>2015-11-11T11:15:37.971Z</time>
      </trkpt>
      <trkpt lat="45.93236" lon="5.00609">
        <ele>295.100006104</ele>
        <time>2015-11-11T11:15:39.101Z</time>
      </trkpt>
      <trkpt lat="45.9324" lon="5.00605">
        <ele>294.600006104</ele>
        <time>2015-11-11T11:15:39.97Z</time>
      </trkpt>
      <trkpt lat="45.93245" lon="5.00601">
        <ele>295.100006104</ele>
        <time>2015-11-11T11:15:40.984Z</time>
      </trkpt>
      <trkpt lat="45.93249" lon="5.00597">
        <ele>294.899993896</ele>
        <time>2015-11-11T11:15:41.968Z</time>
      </trkpt>
      <trkpt lat="45.93253" lon="5.00592">
        <ele>294.799987793</ele>
        <time>2015-11-11T11:15:42.983Z</time>
      </trkpt>
      <trkpt lat="45.93258" lon="5.00587">
        <ele>294.700012207</ele>
        <time>2015-11-11T11:15:43.968Z</time>
      </trkpt>
      <trkpt lat="45.93262" lon="5.00583">
        <ele>294.600006104</ele>
        <time>2015-11-11T11:15:44.99Z</time>
      </trkpt>
      <trkpt lat="45.93265" lon="5.00579">
        <ele>294.899993896</ele>
        <time>2015-11-11T11:15:45.967Z</time>
      </trkpt>
      <trkpt lat="45.93269" lon="5.00574">
        <ele>294.799987793</ele>
        <time>2015-11-11T11:15:47.002Z</time>
      </trkpt>
      <trkpt lat="45.93274" lon="5.00569">
        <ele>294.700012207</ele>
        <time>2015-11-11T11:15:47.97Z</time>
      </trkpt>
      <trkpt lat="45.93278" lon="5.00564">
        <ele>294.5</ele>
        <time>2015-11-11T11:15:48.984Z</time>
      </trkpt>
      <trkpt lat="45.93283" lon="5.00559">
        <ele>294</ele>
        <time>2015-11-11T11:15:49.968Z</time>
      </trkpt>
      <trkpt lat="45.93287" lon="5.00554">
        <ele>294</ele>
        <time>2015-11-11T11:15:50.987Z</time>
      </trkpt>
      <trkpt lat="45.93291" lon="5.00549">
        <ele>294.100006104</ele>
        <time>2015-11-11T11:15:51.968Z</time>
      </trkpt>
      <trkpt lat="45.93295" lon="5.00544">
        <ele>294.200012207</ele>
        <time>2015-11-11T11:15:52.984Z</time>
      </trkpt>
      <trkpt lat="45.93298" lon="5.00538">
        <ele>294.299987793</ele>
        <time>2015-11-11T11:15:53.967Z</time>
      </trkpt>
      <trkpt lat="45.93301" lon="5.00533">
        <ele>294.5</ele>
        <time>2015-11-11T11:15:54.983Z</time>
      </trkpt>
      <trkpt lat="45.93304" lon="5.00527">
        <ele>294.600006104</ele>
        <time>2015-11-11T11:15:55.967Z</time>
      </trkpt>
      <trkpt lat="45.93307" lon="5.00521">
        <ele>294.700012207</ele>
        <time>2015-11-11T11:15:56.986Z</time>
      </trkpt>
      <trkpt lat="45.9331" lon="5.00514">
        <ele>294.799987793</ele>
        <time>2015-11-11T11:15:57.97Z</time>
      </trkpt>
      <trkpt lat="45.93313" lon="5.00508">
        <ele>295</ele>
        <time>2015-11-11T11:15:59.015Z</time>
      </trkpt>
      <trkpt lat="45.93316" lon="5.00501">
        <ele>295.200012207</ele>
        <time>2015-11-11T11:15:59.968Z</time>
      </trkpt>
      <trkpt lat="45.93319" lon="5.00496">
        <ele>295.399993896</ele>
        <time>2015-11-11T11:16:00.984Z</time>
      </trkpt>
      <trkpt lat="45.93322" lon="5.0049">
        <ele>295.899993896</ele>
        <time>2015-11-11T11:16:02.004Z</time>
      </trkpt>
      <trkpt lat="45.93326" lon="5.00484">
        <ele>296.100006104</ele>
        <time>2015-11-11T11:16:03.002Z</time>
      </trkpt>
      <trkpt lat="45.93329" lon="5.00479">
        <ele>296.200012207</ele>
        <time>2015-11-11T11:16:03.967Z</time>
      </trkpt>
      <trkpt lat="45.93333" lon="5.00474">
        <ele>296.5</ele>
        <time>2015-11-11T11:16:04.984Z</time>
      </trkpt>
      <trkpt lat="45.93336" lon="5.00469">
        <ele>296.600006104</ele>
        <time>2015-11-11T11:16:05.969Z</time>
      </trkpt>
      <trkpt lat="45.93339" lon="5.00465">
        <ele>296.299987793</ele>
        <time>2015-11-11T11:16:07.025Z</time>
      </trkpt>
      <trkpt lat="45.93343" lon="5.0046">
        <ele>296</ele>
        <time>2015-11-11T11:16:07.979Z</time>
      </trkpt>
      <trkpt lat="45.93346" lon="5.00454">
        <ele>296</ele>
        <time>2015-11-11T11:16:08.987Z</time>
      </trkpt>
      <trkpt lat="45.9335" lon="5.0045">
        <ele>296</ele>
        <time>2015-11-11T11:16:09.968Z</time>
      </trkpt>
      <trkpt lat="45.93354" lon="5.00445">
        <ele>296.399993896</ele>
        <time>2015-11-11T11:16:10.985Z</time>
      </trkpt>
      <trkpt lat="45.93358" lon="5.00441">
        <ele>296.700012207</ele>
        <time>2015-11-11T11:16:11.969Z</time>
      </trkpt>
      <trkpt lat="45.93361" lon="5.00436">
        <ele>297.200012207</ele>
        <time>2015-11-11T11:16:12.984Z</time>
      </trkpt>
      <trkpt lat="45.93366" lon="5.00432">
        <ele>297.100006104</ele>
        <time>2015-11-11T11:16:13.968Z</time>
      </trkpt>
      <trkpt lat="45.9337" lon="5.00429">
        <ele>297.399993896</ele>
        <time>2015-11-11T11:16:14.987Z</time>
      </trkpt>
      <trkpt lat="45.93374" lon="5.00425">
        <ele>297.5</ele>
        <time>2015-11-11T11:16:15.968Z</time>
      </trkpt>
      <trkpt lat="45.93378" lon="5.00421">
        <ele>297.600006104</ele>
        <time>2015-11-11T11:16:16.986Z</time>
      </trkpt>
      <trkpt lat="45.93382" lon="5.00417">
        <ele>297.5</ele>
        <time>2015-11-11T11:16:17.979Z</time>
      </trkpt>
      <trkpt lat="45.93387" lon="5.00413">
        <ele>297.399993896</ele>
        <time>2015-11-11T11:16:18.997Z</time>
      </trkpt>
      <trkpt lat="45.93391" lon="5.00409">
        <ele>297.299987793</ele>
        <time>2015-11-11T11:16:19.967Z</time>
      </trkpt>
      <trkpt lat="45.93395" lon="5.00405">
        <ele>297.399993896</ele>
        <time>2015-11-11T11:16:20.987Z</time>
      </trkpt>
      <trkpt lat="45.934" lon="5.00401">
        <ele>297.299987793</ele>
        <time>2015-11-11T11:16:21.967Z</time>
      </trkpt>
      <trkpt lat="45.93405" lon="5.00397">
        <ele>297.200012207</ele>
        <time>2015-11-11T11:16:22.984Z</time>
      </trkpt>
      <trkpt lat="45.93409" lon="5.00394">
        <ele>297.299987793</ele>
        <time>2015-11-11T11:16:23.967Z</time>
      </trkpt>
      <trkpt lat="45.93414" lon="5.0039">
        <ele>297.100006104</ele>
        <time>2015-11-11T11:16:24.982Z</time>
      </trkpt>
      <trkpt lat="45.93419" lon="5.00387">
        <ele>297</ele>
        <time>2015-11-11T11:16:25.968Z</time>
      </trkpt>
      <trkpt lat="45.93425" lon="5.00383">
        <ele>296.700012207</ele>
        <time>2015-11-11T11:16:26.987Z</time>
      </trkpt>
      <trkpt lat="45.9343" lon="5.0038">
        <ele>297</ele>
        <time>2015-11-11T11:16:27.971Z</time>
      </trkpt>
      <trkpt lat="45.93435" lon="5.00377">
        <ele>297.399993896</ele>
        <time>2015-11-11T11:16:28.984Z</time>
      </trkpt>
      <trkpt lat="45.9344" lon="5.00373">
        <ele>297.5</ele>
        <time>2015-11-11T11:16:29.967Z</time>
      </trkpt>
      <trkpt lat="45.93445" lon="5.0037">
        <ele>297.799987793</ele>
        <time>2015-11-11T11:16:30.983Z</time>
      </trkpt>
      <trkpt lat="45.9345" lon="5.00366">
        <ele>298.299987793</ele>
        <time>2015-11-11T11:16:31.968Z</time>
      </trkpt>
      <trkpt lat="45.93455" lon="5.00362">
        <ele>298.600006104</ele>
        <time>2015-11-11T11:16:32.987Z</time>
      </trkpt>
      <trkpt lat="45.9346" lon="5.00359">
        <ele>298.799987793</ele>
        <time>2015-11-11T11:16:33.967Z</time>
      </trkpt>
      <trkpt lat="45.93465" lon="5.00355">
        <ele>298.799987793</ele>
        <time>2015-11-11T11:16:35.003Z</time>
      </trkpt>
      <trkpt lat="45.93469" lon="5.00352">
        <ele>298.700012207</ele>
        <time>2015-11-11T11:16:35.967Z</time>
      </trkpt>
      <trkpt lat="45.93474" lon="5.00349">
        <ele>298.799987793</ele>
        <time>2015-11-11T11:16:36.995Z</time>
      </trkpt>
      <trkpt lat="45.93479" lon="5.00346">
        <ele>298.899993896</ele>
        <time>2015-11-11T11:16:37.978Z</time>
      </trkpt>
      <trkpt lat="45.93484" lon="5.00342">
        <ele>298.799987793</ele>
        <time>2015-11-11T11:16:39.018Z</time>
      </trkpt>
      <trkpt lat="45.9349" lon="5.00339">
        <ele>298.700012207</ele>
        <time>2015-11-11T11:16:39.969Z</time>
      </trkpt>
      <trkpt lat="45.93495" lon="5.00335">
        <ele>298.799987793</ele>
        <time>2015-11-11T11:16:40.984Z</time>
      </trkpt>
      <trkpt lat="45.93501" lon="5.00333">
        <ele>298.399993896</ele>
        <time>2015-11-11T11:16:41.967Z</time>
      </trkpt>
      <trkpt lat="45.93506" lon="5.00329">
        <ele>298.299987793</ele>
        <time>2015-11-11T11:16:42.982Z</time>
      </trkpt>
      <trkpt lat="45.93512" lon="5.00327">
        <ele>298.5</ele>
        <time>2015-11-11T11:16:43.967Z</time>
      </trkpt>
      <trkpt lat="45.93519" lon="5.00324">
        <ele>298.299987793</ele>
        <time>2015-11-11T11:16:44.986Z</time>
      </trkpt>
      <trkpt lat="45.93525" lon="5.00321">
        <ele>297.700012207</ele>
        <time>2015-11-11T11:16:45.968Z</time>
      </trkpt>
      <trkpt lat="45.93531" lon="5.00319">
        <ele>297.100006104</ele>
        <time>2015-11-11T11:16:46.983Z</time>
      </trkpt>
      <trkpt lat="45.93537" lon="5.00317">
        <ele>296.399993896</ele>
        <time>2015-11-11T11:16:47.968Z</time>
      </trkpt>
      <trkpt lat="45.93543" lon="5.00315">
        <ele>295.899993896</ele>
        <time>2015-11-11T11:16:48.982Z</time>
      </trkpt>
      <trkpt lat="45.93549" lon="5.00314">
        <ele>295.399993896</ele>
        <time>2015-11-11T11:16:49.968Z</time>
      </trkpt>
      <trkpt lat="45.93555" lon="5.00313">
        <ele>295.200012207</ele>
        <time>2015-11-11T11:16:51.001Z</time>
      </trkpt>
      <trkpt lat="45.93561" lon="5.00311">
        <ele>295</ele>
        <time>2015-11-11T11:16:51.967Z</time>
      </trkpt>
      <trkpt lat="45.93566" lon="5.0031">
        <ele>294.799987793</ele>
        <time>2015-11-11T11:16:52.983Z</time>
      </trkpt>
      <trkpt lat="45.93571" lon="5.00309">
        <ele>294.399993896</ele>
        <time>2015-11-11T11:16:53.967Z</time>
      </trkpt>
      <trkpt lat="45.93576" lon="5.00307">
        <ele>293.899993896</ele>
        <time>2015-11-11T11:16:54.982Z</time>
      </trkpt>
      <trkpt lat="45.93582" lon="5.00306">
        <ele>293.5</ele>
        <time>2015-11-11T11:16:55.967Z</time>
      </trkpt>
      <trkpt lat="45.93586" lon="5.00305">
        <ele>293.299987793</ele>
        <time>2015-11-11T11:16:57.023Z</time>
      </trkpt>
      <trkpt lat="45.93591" lon="5.00303">
        <ele>293.399993896</ele>
        <time>2015-11-11T11:16:57.967Z</time>
      </trkpt>
      <trkpt lat="45.93597" lon="5.00302">
        <ele>293.299987793</ele>
        <time>2015-11-11T11:16:58.983Z</time>
      </trkpt>
      <trkpt lat="45.93602" lon="5.003">
        <ele>293.299987793</ele>
        <time>2015-11-11T11:16:59.967Z</time>
      </trkpt>
      <trkpt lat="45.93607" lon="5.00298">
        <ele>293.600006104</ele>
        <time>2015-11-11T11:17:00.982Z</time>
      </trkpt>
      <trkpt lat="45.93613" lon="5.00296">
        <ele>293.5</ele>
        <time>2015-11-11T11:17:01.967Z</time>
      </trkpt>
      <trkpt lat="45.93619" lon="5.00294">
        <ele>292.899993896</ele>
        <time>2015-11-11T11:17:02.99Z</time>
      </trkpt>
      <trkpt lat="45.93624" lon="5.00292">
        <ele>292.700012207</ele>
        <time>2015-11-11T11:17:03.967Z</time>
      </trkpt>
      <trkpt lat="45.9363" lon="5.0029">
        <ele>293.100006104</ele>
        <time>2015-11-11T11:17:04.984Z</time>
      </trkpt>
      <trkpt lat="45.93635" lon="5.00289">
        <ele>292.799987793</ele>
        <time>2015-11-11T11:17:05.967Z</time>
      </trkpt>
      <trkpt lat="45.93641" lon="5.00288">
        <ele>292.899993896</ele>
        <time>2015-11-11T11:17:06.997Z</time>
      </trkpt>
      <trkpt lat="45.93646" lon="5.00287">
        <ele>292.100006104</ele>
        <time>2015-11-11T11:17:07.98Z</time>
      </trkpt>
      <trkpt lat="45.93651" lon="5.00287">
        <ele>292.600006104</ele>
        <time>2015-11-11T11:17:08.987Z</time>
      </trkpt>
      <trkpt lat="45.93656" lon="5.00287">
        <ele>292.799987793</ele>
        <time>2015-11-11T11:17:09.967Z</time>
      </trkpt>
      <trkpt lat="45.93661" lon="5.00287">
        <ele>292.600006104</ele>
        <time>2015-11-11T11:17:10.983Z</time>
      </trkpt>
      <trkpt lat="45.93666" lon="5.00286">
        <ele>293.100006104</ele>
        <time>2015-11-11T11:17:11.968Z</time>
      </trkpt>
      <trkpt lat="45.93672" lon="5.00287">
        <ele>293.299987793</ele>
        <time>2015-11-11T11:17:12.984Z</time>
      </trkpt>
      <trkpt lat="45.93678" lon="5.00287">
        <ele>292.600006104</ele>
        <time>2015-11-11T11:17:13.968Z</time>
      </trkpt>
      <trkpt lat="45.93684" lon="5.00287">
        <ele>293.100006104</ele>
        <time>2015-11-11T11:17:14.986Z</time>
      </trkpt>
      <trkpt lat="45.9369" lon="5.00287">
        <ele>293.100006104</ele>
        <time>2015-11-11T11:17:15.968Z</time>
      </trkpt>
      <trkpt lat="45.93696" lon="5.00287">
        <ele>293.5</ele>
        <time>2015-11-11T11:17:16.985Z</time>
      </trkpt>
      <trkpt lat="45.93701" lon="5.00287">
        <ele>293.899993896</ele>
        <time>2015-11-11T11:17:17.98Z</time>
      </trkpt>
      <trkpt lat="45.93705" lon="5.00288">
        <ele>293.899993896</ele>
        <time>2015-11-11T11:17:18.983Z</time>
      </trkpt>
      <trkpt lat="45.93711" lon="5.00288">
        <ele>292.899993896</ele>
        <time>2015-11-11T11:17:19.968Z</time>
      </trkpt>
      <trkpt lat="45.93717" lon="5.00289">
        <ele>292.399993896</ele>
        <time>2015-11-11T11:17:21.096Z</time>
      </trkpt>
      <trkpt lat="45.93722" lon="5.00289">
        <ele>292.600006104</ele>
        <time>2015-11-11T11:17:21.968Z</time>
      </trkpt>
      <trkpt lat="45.93727" lon="5.00289">
        <ele>293.200012207</ele>
        <time>2015-11-11T11:17:22.998Z</time>
      </trkpt>
      <trkpt lat="45.93732" lon="5.0029">
        <ele>293</ele>
        <time>2015-11-11T11:17:23.968Z</time>
      </trkpt>
      <trkpt lat="45.93736" lon="5.00292">
        <ele>293.200012207</ele>
        <time>2015-11-11T11:17:24.983Z</time>
      </trkpt>
      <trkpt lat="45.93741" lon="5.00293">
        <ele>292.799987793</ele>
        <time>2015-11-11T11:17:25.968Z</time>
      </trkpt>
      <trkpt lat="45.93746" lon="5.00294">
        <ele>293.200012207</ele>
        <time>2015-11-11T11:17:26.987Z</time>
      </trkpt>
      <trkpt lat="45.93752" lon="5.00293">
        <ele>292</ele>
        <time>2015-11-11T11:17:27.969Z</time>
      </trkpt>
      <trkpt lat="45.93757" lon="5.00293">
        <ele>291.200012207</ele>
        <time>2015-11-11T11:17:28.985Z</time>
      </trkpt>
      <trkpt lat="45.93762" lon="5.00293">
        <ele>290.700012207</ele>
        <time>2015-11-11T11:17:29.967Z</time>
      </trkpt>
      <trkpt lat="45.93767" lon="5.00294">
        <ele>290.700012207</ele>
        <time>2015-11-11T11:17:30.982Z</time>
      </trkpt>
      <trkpt lat="45.93771" lon="5.00294">
        <ele>290.399993896</ele>
        <time>2015-11-11T11:17:31.967Z</time>
      </trkpt>
      <trkpt lat="45.93776" lon="5.00295">
        <ele>290.600006104</ele>
        <time>2015-11-11T11:17:32.985Z</time>
      </trkpt>
      <trkpt lat="45.93781" lon="5.00295">
        <ele>290.799987793</ele>
        <time>2015-11-11T11:17:33.968Z</time>
      </trkpt>
      <trkpt lat="45.93785" lon="5.00296">
        <ele>291</ele>
        <time>2015-11-11T11:17:35.008Z</time>
      </trkpt>
      <trkpt lat="45.9379" lon="5.00297">
        <ele>291.899993896</ele>
        <time>2015-11-11T11:17:35.968Z</time>
      </trkpt>
      <trkpt lat="45.93795" lon="5.00297">
        <ele>291.899993896</ele>
        <time>2015-11-11T11:17:36.982Z</time>
      </trkpt>
      <trkpt lat="45.93799" lon="5.00298">
        <ele>292.299987793</ele>
        <time>2015-11-11T11:17:37.968Z</time>
      </trkpt>
      <trkpt lat="45.93808" lon="5.00299">
        <ele>292.600006104</ele>
        <time>2015-11-11T11:17:39.994Z</time>
      </trkpt>
      <trkpt lat="45.93812" lon="5.003">
        <ele>292.399993896</ele>
        <time>2015-11-11T11:17:40.968Z</time>
      </trkpt>
      <trkpt lat="45.93817" lon="5.003">
        <ele>292</ele>
        <time>2015-11-11T11:17:41.983Z</time>
      </trkpt>
      <trkpt lat="45.93822" lon="5.00302">
        <ele>293</ele>
        <time>2015-11-11T11:17:42.967Z</time>
      </trkpt>
      <trkpt lat="45.93827" lon="5.00303">
        <ele>293</ele>
        <time>2015-11-11T11:17:43.982Z</time>
      </trkpt>
      <trkpt lat="45.93831" lon="5.00304">
        <ele>292.899993896</ele>
        <time>2015-11-11T11:17:44.97Z</time>
      </trkpt>
      <trkpt lat="45.93836" lon="5.00306">
        <ele>293.100006104</ele>
        <time>2015-11-11T11:17:45.983Z</time>
      </trkpt>
      <trkpt lat="45.93841" lon="5.00307">
        <ele>293.200012207</ele>
        <time>2015-11-11T11:17:46.969Z</time>
      </trkpt>
      <trkpt lat="45.93847" lon="5.00309">
        <ele>292.899993896</ele>
        <time>2015-11-11T11:17:47.994Z</time>
      </trkpt>
      <trkpt lat="45.93853" lon="5.0031">
        <ele>292.700012207</ele>
        <time>2015-11-11T11:17:48.967Z</time>
      </trkpt>
      <trkpt lat="45.93858" lon="5.00311">
        <ele>292.299987793</ele>
        <time>2015-11-11T11:17:49.996Z</time>
      </trkpt>
      <trkpt lat="45.93864" lon="5.00312">
        <ele>291.700012207</ele>
        <time>2015-11-11T11:17:50.971Z</time>
      </trkpt>
      <trkpt lat="45.9387" lon="5.00314">
        <ele>291.100006104</ele>
        <time>2015-11-11T11:17:52.02Z</time>
      </trkpt>
      <trkpt lat="45.93876" lon="5.00316">
        <ele>290.299987793</ele>
        <time>2015-11-11T11:17:52.969Z</time>
      </trkpt>
      <trkpt lat="45.93882" lon="5.00318">
        <ele>289.799987793</ele>
        <time>2015-11-11T11:17:53.982Z</time>
      </trkpt>
      <trkpt lat="45.93888" lon="5.0032">
        <ele>289.299987793</ele>
        <time>2015-11-11T11:17:54.967Z</time>
      </trkpt>
      <trkpt lat="45.93894" lon="5.00322">
        <ele>289.100006104</ele>
        <time>2015-11-11T11:17:55.983Z</time>
      </trkpt>
      <trkpt lat="45.939" lon="5.00324">
        <ele>288.799987793</ele>
        <time>2015-11-11T11:17:56.971Z</time>
      </trkpt>
      <trkpt lat="45.93907" lon="5.00327">
        <ele>288.299987793</ele>
        <time>2015-11-11T11:17:57.993Z</time>
      </trkpt>
      <trkpt lat="45.93913" lon="5.00329">
        <ele>287.600006104</ele>
        <time>2015-11-11T11:17:58.968Z</time>
      </trkpt>
      <trkpt lat="45.9392" lon="5.00331">
        <ele>287.200012207</ele>
        <time>2015-11-11T11:17:59.982Z</time>
      </trkpt>
      <trkpt lat="45.93926" lon="5.00333">
        <ele>286.899993896</ele>
        <time>2015-11-11T11:18:00.985Z</time>
      </trkpt>
      <trkpt lat="45.93933" lon="5.00335">
        <ele>286.299987793</ele>
        <time>2015-11-11T11:18:01.982Z</time>
      </trkpt>
      <trkpt lat="45.9394" lon="5.00338">
        <ele>285.700012207</ele>
        <time>2015-11-11T11:18:02.971Z</time>
      </trkpt>
      <trkpt lat="45.93946" lon="5.0034">
        <ele>284.899993896</ele>
        <time>2015-11-11T11:18:03.987Z</time>
      </trkpt>
      <trkpt lat="45.93953" lon="5.00342">
        <ele>284</ele>
        <time>2015-11-11T11:18:04.968Z</time>
      </trkpt>
      <trkpt lat="45.93959" lon="5.00344">
        <ele>283.200012207</ele>
        <time>2015-11-11T11:18:05.982Z</time>
      </trkpt>
      <trkpt lat="45.93966" lon="5.00346">
        <ele>282.899993896</ele>
        <time>2015-11-11T11:18:06.967Z</time>
      </trkpt>
      <trkpt lat="45.93973" lon="5.00348">
        <ele>282.600006104</ele>
        <time>2015-11-11T11:18:07.983Z</time>
      </trkpt>
      <trkpt lat="45.93979" lon="5.0035">
        <ele>282.5</ele>
        <time>2015-11-11T11:18:08.97Z</time>
      </trkpt>
      <trkpt lat="45.93986" lon="5.00351">
        <ele>281.799987793</ele>
        <time>2015-11-11T11:18:09.983Z</time>
      </trkpt>
      <trkpt lat="45.93992" lon="5.00353">
        <ele>281.700012207</ele>
        <time>2015-11-11T11:18:10.969Z</time>
      </trkpt>
      <trkpt lat="45.93998" lon="5.00355">
        <ele>281.899993896</ele>
        <time>2015-11-11T11:18:11.997Z</time>
      </trkpt>
      <trkpt lat="45.94004" lon="5.00356">
        <ele>281.700012207</ele>
        <time>2015-11-11T11:18:12.967Z</time>
      </trkpt>
      <trkpt lat="45.9401" lon="5.00358">
        <ele>281.600006104</ele>
        <time>2015-11-11T11:18:13.982Z</time>
      </trkpt>
      <trkpt lat="45.94016" lon="5.00359">
        <ele>282.100006104</ele>
        <time>2015-11-11T11:18:14.97Z</time>
      </trkpt>
      <trkpt lat="45.94022" lon="5.0036">
        <ele>282.899993896</ele>
        <time>2015-11-11T11:18:15.982Z</time>
      </trkpt>
      <trkpt lat="45.94028" lon="5.00361">
        <ele>283.600006104</ele>
        <time>2015-11-11T11:18:16.969Z</time>
      </trkpt>
      <trkpt lat="45.94034" lon="5.00361">
        <ele>284.100006104</ele>
        <time>2015-11-11T11:18:17.983Z</time>
      </trkpt>
      <trkpt lat="45.94039" lon="5.00363">
        <ele>284.399993896</ele>
        <time>2015-11-11T11:18:18.967Z</time>
      </trkpt>
      <trkpt lat="45.94045" lon="5.00364">
        <ele>284</ele>
        <time>2015-11-11T11:18:19.982Z</time>
      </trkpt>
      <trkpt lat="45.94051" lon="5.00365">
        <ele>283.799987793</ele>
        <time>2015-11-11T11:18:20.97Z</time>
      </trkpt>
      <trkpt lat="45.94057" lon="5.00366">
        <ele>284.100006104</ele>
        <time>2015-11-11T11:18:21.982Z</time>
      </trkpt>
      <trkpt lat="45.94063" lon="5.00368">
        <ele>284.200012207</ele>
        <time>2015-11-11T11:18:22.969Z</time>
      </trkpt>
      <trkpt lat="45.94068" lon="5.00368">
        <ele>284.700012207</ele>
        <time>2015-11-11T11:18:23.984Z</time>
      </trkpt>
      <trkpt lat="45.94073" lon="5.00367">
        <ele>285.200012207</ele>
        <time>2015-11-11T11:18:24.967Z</time>
      </trkpt>
      <trkpt lat="45.94079" lon="5.00366">
        <ele>285.899993896</ele>
        <time>2015-11-11T11:18:25.982Z</time>
      </trkpt>
      <trkpt lat="45.94085" lon="5.00364">
        <ele>285.799987793</ele>
        <time>2015-11-11T11:18:26.97Z</time>
      </trkpt>
      <trkpt lat="45.9409" lon="5.00361">
        <ele>285.899993896</ele>
        <time>2015-11-11T11:18:28.01Z</time>
      </trkpt>
      <trkpt lat="45.94095" lon="5.00358">
        <ele>285.899993896</ele>
        <time>2015-11-11T11:18:28.968Z</time>
      </trkpt>
      <trkpt lat="45.94099" lon="5.00354">
        <ele>286.200012207</ele>
        <time>2015-11-11T11:18:29.982Z</time>
      </trkpt>
      <trkpt lat="45.94104" lon="5.0035">
        <ele>286.399993896</ele>
        <time>2015-11-11T11:18:30.967Z</time>
      </trkpt>
      <trkpt lat="45.94108" lon="5.00345">
        <ele>286.5</ele>
        <time>2015-11-11T11:18:31.982Z</time>
      </trkpt>
      <trkpt lat="45.94112" lon="5.0034">
        <ele>286.600006104</ele>
        <time>2015-11-11T11:18:32.97Z</time>
      </trkpt>
      <trkpt lat="45.94116" lon="5.00334">
        <ele>286.399993896</ele>
        <time>2015-11-11T11:18:33.982Z</time>
      </trkpt>
      <trkpt lat="45.9412" lon="5.00329">
        <ele>286.5</ele>
        <time>2015-11-11T11:18:34.968Z</time>
      </trkpt>
      <trkpt lat="45.94124" lon="5.00323">
        <ele>286.399993896</ele>
        <time>2015-11-11T11:18:35.981Z</time>
      </trkpt>
      <trkpt lat="45.94127" lon="5.00317">
        <ele>286.100006104</ele>
        <time>2015-11-11T11:18:36.967Z</time>
      </trkpt>
      <trkpt lat="45.94131" lon="5.00311">
        <ele>285.899993896</ele>
        <time>2015-11-11T11:18:37.983Z</time>
      </trkpt>
      <trkpt lat="45.94135" lon="5.00305">
        <ele>285.399993896</ele>
        <time>2015-11-11T11:18:38.971Z</time>
      </trkpt>
      <trkpt lat="45.94138" lon="5.00299">
        <ele>284.5</ele>
        <time>2015-11-11T11:18:40.018Z</time>
      </trkpt>
      <trkpt lat="45.94142" lon="5.00293">
        <ele>284.100006104</ele>
        <time>2015-11-11T11:18:40.969Z</time>
      </trkpt>
      <trkpt lat="45.94146" lon="5.00288">
        <ele>283.799987793</ele>
        <time>2015-11-11T11:18:41.982Z</time>
      </trkpt>
      <trkpt lat="45.9415" lon="5.00282">
        <ele>283.700012207</ele>
        <time>2015-11-11T11:18:42.967Z</time>
      </trkpt>
      <trkpt lat="45.94154" lon="5.00277">
        <ele>283.5</ele>
        <time>2015-11-11T11:18:43.999Z</time>
      </trkpt>
      <trkpt lat="45.94157" lon="5.00272">
        <ele>283.399993896</ele>
        <time>2015-11-11T11:18:44.971Z</time>
      </trkpt>
      <trkpt lat="45.94161" lon="5.00266">
        <ele>283.399993896</ele>
        <time>2015-11-11T11:18:45.982Z</time>
      </trkpt>
      <trkpt lat="45.94165" lon="5.00261">
        <ele>283.600006104</ele>
        <time>2015-11-11T11:18:47.006Z</time>
      </trkpt>
      <trkpt lat="45.94169" lon="5.00256">
        <ele>283.299987793</ele>
        <time>2015-11-11T11:18:47.984Z</time>
      </trkpt>
      <trkpt lat="45.94173" lon="5.0025">
        <ele>283.299987793</ele>
        <time>2015-11-11T11:18:48.967Z</time>
      </trkpt>
      <trkpt lat="45.94176" lon="5.00245">
        <ele>283.200012207</ele>
        <time>2015-11-11T11:18:49.982Z</time>
      </trkpt>
      <trkpt lat="45.9418" lon="5.00239">
        <ele>283</ele>
        <time>2015-11-11T11:18:50.97Z</time>
      </trkpt>
      <trkpt lat="45.94184" lon="5.00232">
        <ele>282.600006104</ele>
        <time>2015-11-11T11:18:51.982Z</time>
      </trkpt>
      <trkpt lat="45.94187" lon="5.00226">
        <ele>282.299987793</ele>
        <time>2015-11-11T11:18:52.968Z</time>
      </trkpt>
      <trkpt lat="45.94191" lon="5.0022">
        <ele>282</ele>
        <time>2015-11-11T11:18:53.992Z</time>
      </trkpt>
      <trkpt lat="45.94195" lon="5.00214">
        <ele>282.200012207</ele>
        <time>2015-11-11T11:18:54.967Z</time>
      </trkpt>
      <trkpt lat="45.94198" lon="5.00209">
        <ele>282</ele>
        <time>2015-11-11T11:18:55.982Z</time>
      </trkpt>
      <trkpt lat="45.94202" lon="5.00204">
        <ele>282.100006104</ele>
        <time>2015-11-11T11:18:56.974Z</time>
      </trkpt>
      <trkpt lat="45.94205" lon="5.00199">
        <ele>282.399993896</ele>
        <time>2015-11-11T11:18:57.984Z</time>
      </trkpt>
      <trkpt lat="45.94209" lon="5.00193">
        <ele>282.799987793</ele>
        <time>2015-11-11T11:18:58.969Z</time>
      </trkpt>
      <trkpt lat="45.94213" lon="5.00187">
        <ele>283.299987793</ele>
        <time>2015-11-11T11:18:59.983Z</time>
      </trkpt>
      <trkpt lat="45.94217" lon="5.00182">
        <ele>283.5</ele>
        <time>2015-11-11T11:19:00.967Z</time>
      </trkpt>
      <trkpt lat="45.94221" lon="5.00176">
        <ele>283.899993896</ele>
        <time>2015-11-11T11:19:01.981Z</time>
      </trkpt>
      <trkpt lat="45.94225" lon="5.00172">
        <ele>284.200012207</ele>
        <time>2015-11-11T11:19:02.971Z</time>
      </trkpt>
      <trkpt lat="45.94228" lon="5.00167">
        <ele>284.5</ele>
        <time>2015-11-11T11:19:03.982Z</time>
      </trkpt>
      <trkpt lat="45.94232" lon="5.00162">
        <ele>284.700012207</ele>
        <time>2015-11-11T11:19:04.97Z</time>
      </trkpt>
      <trkpt lat="45.94236" lon="5.00157">
        <ele>284.399993896</ele>
        <time>2015-11-11T11:19:05.984Z</time>
      </trkpt>
      <trkpt lat="45.94239" lon="5.00151">
        <ele>284.5</ele>
        <time>2015-11-11T11:19:06.969Z</time>
      </trkpt>
      <trkpt lat="45.94243" lon="5.00146">
        <ele>284.700012207</ele>
        <time>2015-11-11T11:19:07.985Z</time>
      </trkpt>
      <trkpt lat="45.94246" lon="5.00141">
        <ele>285</ele>
        <time>2015-11-11T11:19:08.972Z</time>
      </trkpt>
      <trkpt lat="45.9425" lon="5.00136">
        <ele>285.200012207</ele>
        <time>2015-11-11T11:19:09.982Z</time>
      </trkpt>
      <trkpt lat="45.94254" lon="5.0013">
        <ele>285.299987793</ele>
        <time>2015-11-11T11:19:10.981Z</time>
      </trkpt>
      <trkpt lat="45.94257" lon="5.00125">
        <ele>285.600006104</ele>
        <time>2015-11-11T11:19:11.981Z</time>
      </trkpt>
      <trkpt lat="45.9426" lon="5.0012">
        <ele>285.899993896</ele>
        <time>2015-11-11T11:19:12.967Z</time>
      </trkpt>
      <trkpt lat="45.94264" lon="5.00115">
        <ele>285.899993896</ele>
        <time>2015-11-11T11:19:13.982Z</time>
      </trkpt>
      <trkpt lat="45.94267" lon="5.0011">
        <ele>286</ele>
        <time>2015-11-11T11:19:14.971Z</time>
      </trkpt>
      <trkpt lat="45.94271" lon="5.00105">
        <ele>286.299987793</ele>
        <time>2015-11-11T11:19:15.982Z</time>
      </trkpt>
      <trkpt lat="45.94275" lon="5.00099">
        <ele>286.200012207</ele>
        <time>2015-11-11T11:19:16.968Z</time>
      </trkpt>
      <trkpt lat="45.94278" lon="5.00094">
        <ele>286.100006104</ele>
        <time>2015-11-11T11:19:17.984Z</time>
      </trkpt>
      <trkpt lat="45.94282" lon="5.00089">
        <ele>286.100006104</ele>
        <time>2015-11-11T11:19:18.967Z</time>
      </trkpt>
      <trkpt lat="45.94285" lon="5.00084">
        <ele>286.100006104</ele>
        <time>2015-11-11T11:19:20.008Z</time>
      </trkpt>
      <trkpt lat="45.94288" lon="5.00078">
        <ele>286.399993896</ele>
        <time>2015-11-11T11:19:20.97Z</time>
      </trkpt>
      <trkpt lat="45.94291" lon="5.00071">
        <ele>286.5</ele>
        <time>2015-11-11T11:19:21.995Z</time>
      </trkpt>
      <trkpt lat="45.94295" lon="5.00066">
        <ele>286.799987793</ele>
        <time>2015-11-11T11:19:22.971Z</time>
      </trkpt>
      <trkpt lat="45.94298" lon="5.0006">
        <ele>287</ele>
        <time>2015-11-11T11:19:23.982Z</time>
      </trkpt>
      <trkpt lat="45.94302" lon="5.00055">
        <ele>287.399993896</ele>
        <time>2015-11-11T11:19:24.967Z</time>
      </trkpt>
      <trkpt lat="45.94306" lon="5.00049">
        <ele>287.700012207</ele>
        <time>2015-11-11T11:19:25.981Z</time>
      </trkpt>
      <trkpt lat="45.94309" lon="5.00043">
        <ele>287.899993896</ele>
        <time>2015-11-11T11:19:26.97Z</time>
      </trkpt>
      <trkpt lat="45.94313" lon="5.00036">
        <ele>288.100006104</ele>
        <time>2015-11-11T11:19:27.983Z</time>
      </trkpt>
      <trkpt lat="45.94317" lon="5.00029">
        <ele>288.100006104</ele>
        <time>2015-11-11T11:19:28.968Z</time>
      </trkpt>
      <trkpt lat="45.9432" lon="5.00022">
        <ele>288.100006104</ele>
        <time>2015-11-11T11:19:29.981Z</time>
      </trkpt>
      <trkpt lat="45.94324" lon="5.00016">
        <ele>288.200012207</ele>
        <time>2015-11-11T11:19:30.967Z</time>
      </trkpt>
      <trkpt lat="45.94327" lon="5.00009">
        <ele>288.200012207</ele>
        <time>2015-11-11T11:19:31.982Z</time>
      </trkpt>
      <trkpt lat="45.9433" lon="5.00002">
        <ele>288.299987793</ele>
        <time>2015-11-11T11:19:32.971Z</time>
      </trkpt>
      <trkpt lat="45.94333" lon="4.99995">
        <ele>288.299987793</ele>
        <time>2015-11-11T11:19:33.981Z</time>
      </trkpt>
      <trkpt lat="45.94335" lon="4.99989">
        <ele>288.399993896</ele>
        <time>2015-11-11T11:19:34.969Z</time>
      </trkpt>
      <trkpt lat="45.94338" lon="4.99982">
        <ele>288.5</ele>
        <time>2015-11-11T11:19:35.981Z</time>
      </trkpt>
      <trkpt lat="45.9434" lon="4.99976">
        <ele>288.5</ele>
        <time>2015-11-11T11:19:36.967Z</time>
      </trkpt>
      <trkpt lat="45.94343" lon="4.99969">
        <ele>288.5</ele>
        <time>2015-11-11T11:19:38.007Z</time>
      </trkpt>
      <trkpt lat="45.94346" lon="4.99962">
        <ele>288.700012207</ele>
        <time>2015-11-11T11:19:38.97Z</time>
      </trkpt>
      <trkpt lat="45.94349" lon="4.99956">
        <ele>288.899993896</ele>
        <time>2015-11-11T11:19:40.003Z</time>
      </trkpt>
      <trkpt lat="45.94352" lon="4.99949">
        <ele>289.200012207</ele>
        <time>2015-11-11T11:19:40.968Z</time>
      </trkpt>
      <trkpt lat="45.94355" lon="4.99942">
        <ele>289.399993896</ele>
        <time>2015-11-11T11:19:41.982Z</time>
      </trkpt>
      <trkpt lat="45.94359" lon="4.99936">
        <ele>289.700012207</ele>
        <time>2015-11-11T11:19:42.967Z</time>
      </trkpt>
      <trkpt lat="45.94361" lon="4.9993">
        <ele>290</ele>
        <time>2015-11-11T11:19:43.981Z</time>
      </trkpt>
      <trkpt lat="45.94364" lon="4.99923">
        <ele>290.200012207</ele>
        <time>2015-11-11T11:19:44.97Z</time>
      </trkpt>
      <trkpt lat="45.94367" lon="4.99916">
        <ele>290.5</ele>
        <time>2015-11-11T11:19:45.982Z</time>
      </trkpt>
      <trkpt lat="45.9437" lon="4.9991">
        <ele>290.899993896</ele>
        <time>2015-11-11T11:19:46.968Z</time>
      </trkpt>
      <trkpt lat="45.94373" lon="4.99903">
        <ele>291.100006104</ele>
        <time>2015-11-11T11:19:47.983Z</time>
      </trkpt>
      <trkpt lat="45.94376" lon="4.99895">
        <ele>291.299987793</ele>
        <time>2015-11-11T11:19:48.967Z</time>
      </trkpt>
      <trkpt lat="45.94379" lon="4.99888">
        <ele>291.600006104</ele>
        <time>2015-11-11T11:19:49.982Z</time>
      </trkpt>
      <trkpt lat="45.94382" lon="4.99881">
        <ele>291.899993896</ele>
        <time>2015-11-11T11:19:50.97Z</time>
      </trkpt>
      <trkpt lat="45.94387" lon="4.99874">
        <ele>292</ele>
        <time>2015-11-11T11:19:51.981Z</time>
      </trkpt>
      <trkpt lat="45.9439" lon="4.99867">
        <ele>292</ele>
        <time>2015-11-11T11:19:52.968Z</time>
      </trkpt>
      <trkpt lat="45.94393" lon="4.9986">
        <ele>292</ele>
        <time>2015-11-11T11:19:53.996Z</time>
      </trkpt>
      <trkpt lat="45.94396" lon="4.99854">
        <ele>292.200012207</ele>
        <time>2015-11-11T11:19:54.967Z</time>
      </trkpt>
      <trkpt lat="45.94399" lon="4.99847">
        <ele>292.600006104</ele>
        <time>2015-11-11T11:19:55.981Z</time>
      </trkpt>
      <trkpt lat="45.94402" lon="4.9984">
        <ele>293</ele>
        <time>2015-11-11T11:19:56.97Z</time>
      </trkpt>
      <trkpt lat="45.94405" lon="4.99833">
        <ele>293.200012207</ele>
        <time>2015-11-11T11:19:57.982Z</time>
      </trkpt>
      <trkpt lat="45.94408" lon="4.99826">
        <ele>293.399993896</ele>
        <time>2015-11-11T11:19:58.968Z</time>
      </trkpt>
      <trkpt lat="45.94411" lon="4.99818">
        <ele>293.600006104</ele>
        <time>2015-11-11T11:19:59.981Z</time>
      </trkpt>
      <trkpt lat="45.94414" lon="4.99811">
        <ele>293.799987793</ele>
        <time>2015-11-11T11:20:00.967Z</time>
      </trkpt>
      <trkpt lat="45.94417" lon="4.99804">
        <ele>294.299987793</ele>
        <time>2015-11-11T11:20:01.982Z</time>
      </trkpt>
      <trkpt lat="45.9442" lon="4.99797">
        <ele>294.399993896</ele>
        <time>2015-11-11T11:20:02.97Z</time>
      </trkpt>
      <trkpt lat="45.94423" lon="4.9979">
        <ele>294.399993896</ele>
        <time>2015-11-11T11:20:03.982Z</time>
      </trkpt>
      <trkpt lat="45.94426" lon="4.99782">
        <ele>294.600006104</ele>
        <time>2015-11-11T11:20:04.969Z</time>
      </trkpt>
      <trkpt lat="45.94429" lon="4.99775">
        <ele>294.799987793</ele>
        <time>2015-11-11T11:20:05.982Z</time>
      </trkpt>
      <trkpt lat="45.94432" lon="4.99769">
        <ele>295.200012207</ele>
        <time>2015-11-11T11:20:06.967Z</time>
      </trkpt>
      <trkpt lat="45.94435" lon="4.99763">
        <ele>295.200012207</ele>
        <time>2015-11-11T11:20:07.983Z</time>
      </trkpt>
      <trkpt lat="45.94437" lon="4.99756">
        <ele>295.200012207</ele>
        <time>2015-11-11T11:20:08.97Z</time>
      </trkpt>
      <trkpt lat="45.9444" lon="4.99749">
        <ele>295.100006104</ele>
        <time>2015-11-11T11:20:09.996Z</time>
      </trkpt>
      <trkpt lat="45.94443" lon="4.99743">
        <ele>295.200012207</ele>
        <time>2015-11-11T11:20:10.968Z</time>
      </trkpt>
      <trkpt lat="45.94445" lon="4.99736">
        <ele>295.100006104</ele>
        <time>2015-11-11T11:20:11.982Z</time>
      </trkpt>
      <trkpt lat="45.94448" lon="4.9973">
        <ele>295.200012207</ele>
        <time>2015-11-11T11:20:12.967Z</time>
      </trkpt>
      <trkpt lat="45.9445" lon="4.99723">
        <ele>295.100006104</ele>
        <time>2015-11-11T11:20:13.982Z</time>
      </trkpt>
      <trkpt lat="45.94453" lon="4.99716">
        <ele>295</ele>
        <time>2015-11-11T11:20:14.973Z</time>
      </trkpt>
      <trkpt lat="45.94456" lon="4.99709">
        <ele>294.700012207</ele>
        <time>2015-11-11T11:20:15.981Z</time>
      </trkpt>
      <trkpt lat="45.94458" lon="4.99702">
        <ele>294.299987793</ele>
        <time>2015-11-11T11:20:16.968Z</time>
      </trkpt>
      <trkpt lat="45.94461" lon="4.99694">
        <ele>293.899993896</ele>
        <time>2015-11-11T11:20:17.983Z</time>
      </trkpt>
      <trkpt lat="45.94463" lon="4.99687">
        <ele>293.899993896</ele>
        <time>2015-11-11T11:20:18.967Z</time>
      </trkpt>
      <trkpt lat="45.94465" lon="4.99679">
        <ele>293.600006104</ele>
        <time>2015-11-11T11:20:19.981Z</time>
      </trkpt>
      <trkpt lat="45.94466" lon="4.99672">
        <ele>293.100006104</ele>
        <time>2015-11-11T11:20:20.97Z</time>
      </trkpt>
      <trkpt lat="45.94468" lon="4.99664">
        <ele>293.100006104</ele>
        <time>2015-11-11T11:20:21.981Z</time>
      </trkpt>
      <trkpt lat="45.9447" lon="4.99656">
        <ele>292.799987793</ele>
        <time>2015-11-11T11:20:22.968Z</time>
      </trkpt>
      <trkpt lat="45.94473" lon="4.99648">
        <ele>292.600006104</ele>
        <time>2015-11-11T11:20:23.986Z</time>
      </trkpt>
      <trkpt lat="45.94475" lon="4.9964">
        <ele>292.600006104</ele>
        <time>2015-11-11T11:20:24.967Z</time>
      </trkpt>
      <trkpt lat="45.94478" lon="4.99633">
        <ele>292.200012207</ele>
        <time>2015-11-11T11:20:25.996Z</time>
      </trkpt>
      <trkpt lat="45.9448" lon="4.99626">
        <ele>291.5</ele>
        <time>2015-11-11T11:20:26.97Z</time>
      </trkpt>
      <trkpt lat="45.94481" lon="4.99619">
        <ele>291.100006104</ele>
        <time>2015-11-11T11:20:27.984Z</time>
      </trkpt>
      <trkpt lat="45.94482" lon="4.99611">
        <ele>290.299987793</ele>
        <time>2015-11-11T11:20:28.968Z</time>
      </trkpt>
      <trkpt lat="45.94484" lon="4.99604">
        <ele>290</ele>
        <time>2015-11-11T11:20:29.982Z</time>
      </trkpt>
      <trkpt lat="45.94487" lon="4.99597">
        <ele>289.799987793</ele>
        <time>2015-11-11T11:20:30.967Z</time>
      </trkpt>
      <trkpt lat="45.94489" lon="4.9959">
        <ele>289.600006104</ele>
        <time>2015-11-11T11:20:31.982Z</time>
      </trkpt>
      <trkpt lat="45.94491" lon="4.99582">
        <ele>289.299987793</ele>
        <time>2015-11-11T11:20:32.97Z</time>
      </trkpt>
      <trkpt lat="45.94493" lon="4.99575">
        <ele>289</ele>
        <time>2015-11-11T11:20:33.981Z</time>
      </trkpt>
      <trkpt lat="45.94495" lon="4.99568">
        <ele>288.700012207</ele>
        <time>2015-11-11T11:20:34.968Z</time>
      </trkpt>
      <trkpt lat="45.94497" lon="4.9956">
        <ele>288.700012207</ele>
        <time>2015-11-11T11:20:36.023Z</time>
      </trkpt>
      <trkpt lat="45.94499" lon="4.99553">
        <ele>288.700012207</ele>
        <time>2015-11-11T11:20:36.967Z</time>
      </trkpt>
      <trkpt lat="45.94502" lon="4.99545">
        <ele>288.700012207</ele>
        <time>2015-11-11T11:20:37.983Z</time>
      </trkpt>
      <trkpt lat="45.94504" lon="4.99538">
        <ele>288.600006104</ele>
        <time>2015-11-11T11:20:38.97Z</time>
      </trkpt>
      <trkpt lat="45.94506" lon="4.99531">
        <ele>288.5</ele>
        <time>2015-11-11T11:20:39.984Z</time>
      </trkpt>
      <trkpt lat="45.94507" lon="4.99523">
        <ele>288</ele>
        <time>2015-11-11T11:20:40.97Z</time>
      </trkpt>
      <trkpt lat="45.9451" lon="4.99517">
        <ele>288</ele>
        <time>2015-11-11T11:20:41.997Z</time>
      </trkpt>
      <trkpt lat="45.94512" lon="4.9951">
        <ele>287.799987793</ele>
        <time>2015-11-11T11:20:42.967Z</time>
      </trkpt>
      <trkpt lat="45.94514" lon="4.99504">
        <ele>287.5</ele>
        <time>2015-11-11T11:20:43.981Z</time>
      </trkpt>
      <trkpt lat="45.94515" lon="4.99497">
        <ele>287.399993896</ele>
        <time>2015-11-11T11:20:44.97Z</time>
      </trkpt>
      <trkpt lat="45.94517" lon="4.9949">
        <ele>287.200012207</ele>
        <time>2015-11-11T11:20:46.092Z</time>
      </trkpt>
      <trkpt lat="45.94519" lon="4.99483">
        <ele>287.200012207</ele>
        <time>2015-11-11T11:20:46.968Z</time>
      </trkpt>
      <trkpt lat="45.94521" lon="4.99476">
        <ele>287</ele>
        <time>2015-11-11T11:20:47.983Z</time>
      </trkpt>
      <trkpt lat="45.94523" lon="4.99469">
        <ele>286.700012207</ele>
        <time>2015-11-11T11:20:48.967Z</time>
      </trkpt>
      <trkpt lat="45.94525" lon="4.99461">
        <ele>286.700012207</ele>
        <time>2015-11-11T11:20:49.981Z</time>
      </trkpt>
      <trkpt lat="45.94527" lon="4.99455">
        <ele>286.5</ele>
        <time>2015-11-11T11:20:50.97Z</time>
      </trkpt>
      <trkpt lat="45.94529" lon="4.99447">
        <ele>286.399993896</ele>
        <time>2015-11-11T11:20:51.982Z</time>
      </trkpt>
      <trkpt lat="45.94531" lon="4.9944">
        <ele>286.299987793</ele>
        <time>2015-11-11T11:20:52.968Z</time>
      </trkpt>
      <trkpt lat="45.94533" lon="4.99433">
        <ele>286.299987793</ele>
        <time>2015-11-11T11:20:53.981Z</time>
      </trkpt>
      <trkpt lat="45.94535" lon="4.99425">
        <ele>286.299987793</ele>
        <time>2015-11-11T11:20:54.967Z</time>
      </trkpt>
      <trkpt lat="45.94537" lon="4.99418">
        <ele>286.299987793</ele>
        <time>2015-11-11T11:20:55.981Z</time>
      </trkpt>
      <trkpt lat="45.94539" lon="4.99411">
        <ele>286.100006104</ele>
        <time>2015-11-11T11:20:56.97Z</time>
      </trkpt>
      <trkpt lat="45.9454" lon="4.99404">
        <ele>286</ele>
        <time>2015-11-11T11:20:57.997Z</time>
      </trkpt>
      <trkpt lat="45.94542" lon="4.99397">
        <ele>285.899993896</ele>
        <time>2015-11-11T11:20:58.968Z</time>
      </trkpt>
      <trkpt lat="45.94544" lon="4.99389">
        <ele>285.600006104</ele>
        <time>2015-11-11T11:20:59.982Z</time>
      </trkpt>
      <trkpt lat="45.94546" lon="4.99383">
        <ele>285.5</ele>
        <time>2015-11-11T11:21:00.967Z</time>
      </trkpt>
      <trkpt lat="45.94548" lon="4.99377">
        <ele>285.399993896</ele>
        <time>2015-11-11T11:21:01.981Z</time>
      </trkpt>
      <trkpt lat="45.94551" lon="4.9937">
        <ele>285.299987793</ele>
        <time>2015-11-11T11:21:02.97Z</time>
      </trkpt>
      <trkpt lat="45.94553" lon="4.99364">
        <ele>285.299987793</ele>
        <time>2015-11-11T11:21:03.981Z</time>
      </trkpt>
      <trkpt lat="45.94556" lon="4.99358">
        <ele>285.200012207</ele>
        <time>2015-11-11T11:21:04.968Z</time>
      </trkpt>
      <trkpt lat="45.94559" lon="4.99352">
        <ele>285.100006104</ele>
        <time>2015-11-11T11:21:05.982Z</time>
      </trkpt>
      <trkpt lat="45.94563" lon="4.99346">
        <ele>285.100006104</ele>
        <time>2015-11-11T11:21:06.967Z</time>
      </trkpt>
      <trkpt lat="45.94566" lon="4.99341">
        <ele>285.200012207</ele>
        <time>2015-11-11T11:21:07.982Z</time>
      </trkpt>
      <trkpt lat="45.9457" lon="4.99335">
        <ele>285.200012207</ele>
        <time>2015-11-11T11:21:08.97Z</time>
      </trkpt>
      <trkpt lat="45.94573" lon="4.9933">
        <ele>285.200012207</ele>
        <time>2015-11-11T11:21:10.008Z</time>
      </trkpt>
      <trkpt lat="45.94577" lon="4.99325">
        <ele>285.399993896</ele>
        <time>2015-11-11T11:21:10.968Z</time>
      </trkpt>
      <trkpt lat="45.94581" lon="4.99319">
        <ele>285.5</ele>
        <time>2015-11-11T11:21:11.981Z</time>
      </trkpt>
      <trkpt lat="45.94584" lon="4.99314">
        <ele>285.700012207</ele>
        <time>2015-11-11T11:21:12.967Z</time>
      </trkpt>
      <trkpt lat="45.94588" lon="4.99309">
        <ele>285.899993896</ele>
        <time>2015-11-11T11:21:13.994Z</time>
      </trkpt>
      <trkpt lat="45.94592" lon="4.99304">
        <ele>286.100006104</ele>
        <time>2015-11-11T11:21:14.969Z</time>
      </trkpt>
      <trkpt lat="45.94596" lon="4.99299">
        <ele>286.299987793</ele>
        <time>2015-11-11T11:21:15.981Z</time>
      </trkpt>
      <trkpt lat="45.946" lon="4.99294">
        <ele>286.600006104</ele>
        <time>2015-11-11T11:21:16.968Z</time>
      </trkpt>
      <trkpt lat="45.94604" lon="4.99289">
        <ele>286.5</ele>
        <time>2015-11-11T11:21:17.983Z</time>
      </trkpt>
      <trkpt lat="45.94607" lon="4.99283">
        <ele>286.5</ele>
        <time>2015-11-11T11:21:18.967Z</time>
      </trkpt>
      <trkpt lat="45.94611" lon="4.99278">
        <ele>286.399993896</ele>
        <time>2015-11-11T11:21:19.981Z</time>
      </trkpt>
      <trkpt lat="45.94615" lon="4.99272">
        <ele>286.399993896</ele>
        <time>2015-11-11T11:21:20.97Z</time>
      </trkpt>
      <trkpt lat="45.94619" lon="4.99266">
        <ele>286.399993896</ele>
        <time>2015-11-11T11:21:21.982Z</time>
      </trkpt>
      <trkpt lat="45.94623" lon="4.99261">
        <ele>286.5</ele>
        <time>2015-11-11T11:21:22.968Z</time>
      </trkpt>
      <trkpt lat="45.94628" lon="4.99255">
        <ele>286.700012207</ele>
        <time>2015-11-11T11:21:23.981Z</time>
      </trkpt>
      <trkpt lat="45.94632" lon="4.9925">
        <ele>286.700012207</ele>
        <time>2015-11-11T11:21:24.967Z</time>
      </trkpt>
      <trkpt lat="45.94636" lon="4.99244">
        <ele>286.5</ele>
        <time>2015-11-11T11:21:25.981Z</time>
      </trkpt>
      <trkpt lat="45.9464" lon="4.99239">
        <ele>286.5</ele>
        <time>2015-11-11T11:21:26.97Z</time>
      </trkpt>
      <trkpt lat="45.94643" lon="4.99234">
        <ele>286.299987793</ele>
        <time>2015-11-11T11:21:27.982Z</time>
      </trkpt>
      <trkpt lat="45.94647" lon="4.99229">
        <ele>286.200012207</ele>
        <time>2015-11-11T11:21:28.969Z</time>
      </trkpt>
      <trkpt lat="45.94652" lon="4.99224">
        <ele>286</ele>
        <time>2015-11-11T11:21:29.996Z</time>
      </trkpt>
      <trkpt lat="45.94656" lon="4.99218">
        <ele>285.899993896</ele>
        <time>2015-11-11T11:21:30.967Z</time>
      </trkpt>
      <trkpt lat="45.9466" lon="4.99213">
        <ele>285.799987793</ele>
        <time>2015-11-11T11:21:31.981Z</time>
      </trkpt>
      <trkpt lat="45.94664" lon="4.99208">
        <ele>286</ele>
        <time>2015-11-11T11:21:32.972Z</time>
      </trkpt>
      <trkpt lat="45.94668" lon="4.99203">
        <ele>286.299987793</ele>
        <time>2015-11-11T11:21:33.981Z</time>
      </trkpt>
      <trkpt lat="45.94672" lon="4.99198">
        <ele>285.899993896</ele>
        <time>2015-11-11T11:21:34.968Z</time>
      </trkpt>
      <trkpt lat="45.94676" lon="4.99193">
        <ele>285.799987793</ele>
        <time>2015-11-11T11:21:35.982Z</time>
      </trkpt>
      <trkpt lat="45.9468" lon="4.99189">
        <ele>285.700012207</ele>
        <time>2015-11-11T11:21:36.967Z</time>
      </trkpt>
      <trkpt lat="45.94685" lon="4.99184">
        <ele>285.799987793</ele>
        <time>2015-11-11T11:21:37.983Z</time>
      </trkpt>
      <trkpt lat="45.94689" lon="4.9918">
        <ele>286</ele>
        <time>2015-11-11T11:21:38.969Z</time>
      </trkpt>
      <trkpt lat="45.94693" lon="4.99175">
        <ele>285.899993896</ele>
        <time>2015-11-11T11:21:40.021Z</time>
      </trkpt>
      <trkpt lat="45.94697" lon="4.99172">
        <ele>285.799987793</ele>
        <time>2015-11-11T11:21:40.968Z</time>
      </trkpt>
      <trkpt lat="45.94701" lon="4.99168">
        <ele>285.799987793</ele>
        <time>2015-11-11T11:21:41.981Z</time>
      </trkpt>
      <trkpt lat="45.94705" lon="4.99164">
        <ele>285.899993896</ele>
        <time>2015-11-11T11:21:42.967Z</time>
      </trkpt>
      <trkpt lat="45.94709" lon="4.99161">
        <ele>286</ele>
        <time>2015-11-11T11:21:43.981Z</time>
      </trkpt>
      <trkpt lat="45.94713" lon="4.99157">
        <ele>286</ele>
        <time>2015-11-11T11:21:44.97Z</time>
      </trkpt>
      <trkpt lat="45.94717" lon="4.99152">
        <ele>285.700012207</ele>
        <time>2015-11-11T11:21:45.981Z</time>
      </trkpt>
      <trkpt lat="45.94721" lon="4.99149">
        <ele>285.5</ele>
        <time>2015-11-11T11:21:46.968Z</time>
      </trkpt>
      <trkpt lat="45.94725" lon="4.99145">
        <ele>285.700012207</ele>
        <time>2015-11-11T11:21:47.983Z</time>
      </trkpt>
      <trkpt lat="45.94729" lon="4.99141">
        <ele>285.799987793</ele>
        <time>2015-11-11T11:21:48.967Z</time>
      </trkpt>
      <trkpt lat="45.94736" lon="4.99133">
        <ele>286</ele>
        <time>2015-11-11T11:21:50.998Z</time>
      </trkpt>
      <trkpt lat="45.94739" lon="4.99129">
        <ele>285.899993896</ele>
        <time>2015-11-11T11:21:51.967Z</time>
      </trkpt>
      <trkpt lat="45.94745" lon="4.9912">
        <ele>286.100006104</ele>
        <time>2015-11-11T11:21:53.981Z</time>
      </trkpt>
      <trkpt lat="45.94748" lon="4.99115">
        <ele>286.200012207</ele>
        <time>2015-11-11T11:21:54.967Z</time>
      </trkpt>
      <trkpt lat="45.94752" lon="4.99111">
        <ele>286.399993896</ele>
        <time>2015-11-11T11:21:55.981Z</time>
      </trkpt>
      <trkpt lat="45.94755" lon="4.99106">
        <ele>286.200012207</ele>
        <time>2015-11-11T11:21:56.97Z</time>
      </trkpt>
      <trkpt lat="45.94758" lon="4.99101">
        <ele>286.299987793</ele>
        <time>2015-11-11T11:21:57.983Z</time>
      </trkpt>
      <trkpt lat="45.94761" lon="4.99096">
        <ele>286.399993896</ele>
        <time>2015-11-11T11:21:58.97Z</time>
      </trkpt>
      <trkpt lat="45.94764" lon="4.9909">
        <ele>286.399993896</ele>
        <time>2015-11-11T11:21:59.982Z</time>
      </trkpt>
      <trkpt lat="45.94767" lon="4.99085">
        <ele>286.5</ele>
        <time>2015-11-11T11:22:00.967Z</time>
      </trkpt>
      <trkpt lat="45.9477" lon="4.9908">
        <ele>286.799987793</ele>
        <time>2015-11-11T11:22:01.995Z</time>
      </trkpt>
      <trkpt lat="45.94773" lon="4.99075">
        <ele>286.700012207</ele>
        <time>2015-11-11T11:22:02.97Z</time>
      </trkpt>
      <trkpt lat="45.94779" lon="4.99066">
        <ele>286.399993896</ele>
        <time>2015-11-11T11:22:04.982Z</time>
      </trkpt>
      <trkpt lat="45.94782" lon="4.99061">
        <ele>286.299987793</ele>
        <time>2015-11-11T11:22:05.967Z</time>
      </trkpt>
      <trkpt lat="45.94787" lon="4.9905">
        <ele>285.899993896</ele>
        <time>2015-11-11T11:22:07.984Z</time>
      </trkpt>
      <trkpt lat="45.9479" lon="4.99045">
        <ele>286</ele>
        <time>2015-11-11T11:22:08.97Z</time>
      </trkpt>
      <trkpt lat="45.94792" lon="4.9904">
        <ele>286</ele>
        <time>2015-11-11T11:22:09.981Z</time>
      </trkpt>
      <trkpt lat="45.94795" lon="4.99034">
        <ele>285.799987793</ele>
        <time>2015-11-11T11:22:10.968Z</time>
      </trkpt>
      <trkpt lat="45.94796" lon="4.99027">
        <ele>285.700012207</ele>
        <time>2015-11-11T11:22:11.981Z</time>
      </trkpt>
      <trkpt lat="45.94797" lon="4.9902">
        <ele>285.700012207</ele>
        <time>2015-11-11T11:22:12.967Z</time>
      </trkpt>
      <trkpt lat="45.94797" lon="4.99013">
        <ele>285.5</ele>
        <time>2015-11-11T11:22:13.981Z</time>
      </trkpt>
      <trkpt lat="45.94798" lon="4.99006">
        <ele>285.600006104</ele>
        <time>2015-11-11T11:22:14.969Z</time>
      </trkpt>
      <trkpt lat="45.94798" lon="4.98993">
        <ele>285.200012207</ele>
        <time>2015-11-11T11:22:16.983Z</time>
      </trkpt>
      <trkpt lat="45.94799" lon="4.98987">
        <ele>285.100006104</ele>
        <time>2015-11-11T11:22:17.966Z</time>
      </trkpt>
      <trkpt lat="45.948" lon="4.98975">
        <ele>284.700012207</ele>
        <time>2015-11-11T11:22:19.981Z</time>
      </trkpt>
      <trkpt lat="45.948" lon="4.98969">
        <ele>284.700012207</ele>
        <time>2015-11-11T11:22:20.97Z</time>
      </trkpt>
      <trkpt lat="45.948" lon="4.98956">
        <ele>285</ele>
        <time>2015-11-11T11:22:22.983Z</time>
      </trkpt>
      <trkpt lat="45.94801" lon="4.98949">
        <ele>284.799987793</ele>
        <time>2015-11-11T11:22:23.967Z</time>
      </trkpt>
      <trkpt lat="45.94801" lon="4.98943">
        <ele>284.700012207</ele>
        <time>2015-11-11T11:22:25.009Z</time>
      </trkpt>
      <trkpt lat="45.94802" lon="4.98936">
        <ele>284.899993896</ele>
        <time>2015-11-11T11:22:25.967Z</time>
      </trkpt>
      <trkpt lat="45.94803" lon="4.9893">
        <ele>285</ele>
        <time>2015-11-11T11:22:26.984Z</time>
      </trkpt>
      <trkpt lat="45.94804" lon="4.98923">
        <ele>285.399993896</ele>
        <time>2015-11-11T11:22:27.967Z</time>
      </trkpt>
      <trkpt lat="45.94805" lon="4.98917">
        <ele>285.5</ele>
        <time>2015-11-11T11:22:28.982Z</time>
      </trkpt>
      <trkpt lat="45.94806" lon="4.9891">
        <ele>285.600006104</ele>
        <time>2015-11-11T11:22:29.967Z</time>
      </trkpt>
      <trkpt lat="45.94806" lon="4.98903">
        <ele>285.600006104</ele>
        <time>2015-11-11T11:22:30.981Z</time>
      </trkpt>
      <trkpt lat="45.94807" lon="4.98896">
        <ele>285.399993896</ele>
        <time>2015-11-11T11:22:31.966Z</time>
      </trkpt>
      <trkpt lat="45.94808" lon="4.98883">
        <ele>285.799987793</ele>
        <time>2015-11-11T11:22:33.981Z</time>
      </trkpt>
      <trkpt lat="45.94808" lon="4.98877">
        <ele>285.799987793</ele>
        <time>2015-11-11T11:22:34.981Z</time>
      </trkpt>
      <trkpt lat="45.94809" lon="4.98865">
        <ele>285.600006104</ele>
        <time>2015-11-11T11:22:36.981Z</time>
      </trkpt>
      <trkpt lat="45.94809" lon="4.9886">
        <ele>285.700012207</ele>
        <time>2015-11-11T11:22:37.966Z</time>
      </trkpt>
      <trkpt lat="45.9481" lon="4.98848">
        <ele>285.399993896</ele>
        <time>2015-11-11T11:22:39.983Z</time>
      </trkpt>
      <trkpt lat="45.94811" lon="4.98842">
        <ele>285.399993896</ele>
        <time>2015-11-11T11:22:40.968Z</time>
      </trkpt>
      <trkpt lat="45.94813" lon="4.9883">
        <ele>285.100006104</ele>
        <time>2015-11-11T11:22:42.981Z</time>
      </trkpt>
      <trkpt lat="45.94813" lon="4.98824">
        <ele>285.100006104</ele>
        <time>2015-11-11T11:22:43.967Z</time>
      </trkpt>
      <trkpt lat="45.94814" lon="4.98811">
        <ele>284.899993896</ele>
        <time>2015-11-11T11:22:45.996Z</time>
      </trkpt>
      <trkpt lat="45.94815" lon="4.98805">
        <ele>284.799987793</ele>
        <time>2015-11-11T11:22:46.967Z</time>
      </trkpt>
      <trkpt lat="45.94815" lon="4.98798">
        <ele>284.700012207</ele>
        <time>2015-11-11T11:22:47.982Z</time>
      </trkpt>
      <trkpt lat="45.94816" lon="4.98792">
        <ele>284.600006104</ele>
        <time>2015-11-11T11:22:48.966Z</time>
      </trkpt>
      <trkpt lat="45.94816" lon="4.98785">
        <ele>284.600006104</ele>
        <time>2015-11-11T11:22:49.981Z</time>
      </trkpt>
      <trkpt lat="45.94817" lon="4.98779">
        <ele>284.799987793</ele>
        <time>2015-11-11T11:22:50.972Z</time>
      </trkpt>
      <trkpt lat="45.94818" lon="4.98772">
        <ele>284.799987793</ele>
        <time>2015-11-11T11:22:51.981Z</time>
      </trkpt>
      <trkpt lat="45.94819" lon="4.98766">
        <ele>285</ele>
        <time>2015-11-11T11:22:52.968Z</time>
      </trkpt>
      <trkpt lat="45.9482" lon="4.98759">
        <ele>285.200012207</ele>
        <time>2015-11-11T11:22:53.981Z</time>
      </trkpt>
      <trkpt lat="45.94821" lon="4.98753">
        <ele>285.399993896</ele>
        <time>2015-11-11T11:22:54.966Z</time>
      </trkpt>
      <trkpt lat="45.94823" lon="4.98741">
        <ele>285.700012207</ele>
        <time>2015-11-11T11:22:56.984Z</time>
      </trkpt>
      <trkpt lat="45.94824" lon="4.98735">
        <ele>285.899993896</ele>
        <time>2015-11-11T11:22:57.968Z</time>
      </trkpt>
      <trkpt lat="45.94827" lon="4.98724">
        <ele>286.100006104</ele>
        <time>2015-11-11T11:22:59.981Z</time>
      </trkpt>
      <trkpt lat="45.94829" lon="4.9872">
        <ele>286.200012207</ele>
        <time>2015-11-11T11:23:00.967Z</time>
      </trkpt>
      <trkpt lat="45.94834" lon="4.98714">
        <ele>287.100006104</ele>
        <time>2015-11-11T11:23:02.984Z</time>
      </trkpt>
      <trkpt lat="45.94834" lon="4.98706">
        <ele>288</ele>
        <time>2015-11-11T11:23:03.977Z</time>
      </trkpt>
      <trkpt lat="45.94836" lon="4.98696">
        <ele>288.600006104</ele>
        <time>2015-11-11T11:23:05.981Z</time>
      </trkpt>
      <trkpt lat="45.94836" lon="4.98691">
        <ele>289</ele>
        <time>2015-11-11T11:23:06.966Z</time>
      </trkpt>
      <trkpt lat="45.94837" lon="4.9868">
        <ele>289.600006104</ele>
        <time>2015-11-11T11:23:08.985Z</time>
      </trkpt>
      <trkpt lat="45.94838" lon="4.98674">
        <ele>289.899993896</ele>
        <time>2015-11-11T11:23:09.966Z</time>
      </trkpt>
      <trkpt lat="45.94839" lon="4.98664">
        <ele>290.899993896</ele>
        <time>2015-11-11T11:23:11.981Z</time>
      </trkpt>
      <trkpt lat="45.9484" lon="4.98658">
        <ele>291.399993896</ele>
        <time>2015-11-11T11:23:12.967Z</time>
      </trkpt>
      <trkpt lat="45.94844" lon="4.98648">
        <ele>292.700012207</ele>
        <time>2015-11-11T11:23:14.985Z</time>
      </trkpt>
      <trkpt lat="45.94845" lon="4.98644">
        <ele>292.899993896</ele>
        <time>2015-11-11T11:23:15.967Z</time>
      </trkpt>
      <trkpt lat="45.94849" lon="4.98636">
        <ele>293.100006104</ele>
        <time>2015-11-11T11:23:18Z</time>
      </trkpt>
      <trkpt lat="45.94852" lon="4.98635">
        <ele>293.299987793</ele>
        <time>2015-11-11T11:23:18.966Z</time>
      </trkpt>
      <trkpt lat="45.94859" lon="4.98635">
        <ele>293.700012207</ele>
        <time>2015-11-11T11:23:20.984Z</time>
      </trkpt>
      <trkpt lat="45.94862" lon="4.98634">
        <ele>294.100006104</ele>
        <time>2015-11-11T11:23:21.967Z</time>
      </trkpt>
      <trkpt lat="45.94871" lon="4.9863">
        <ele>295.799987793</ele>
        <time>2015-11-11T11:23:26.008Z</time>
      </trkpt>
      <trkpt lat="45.94873" lon="4.9863">
        <ele>296</ele>
        <time>2015-11-11T11:23:26.97Z</time>
      </trkpt>
      <trkpt lat="45.9488" lon="4.98624">
        <ele>297.399993896</ele>
        <time>2015-11-11T11:23:30.981Z</time>
      </trkpt>
      <trkpt lat="45.94883" lon="4.98622">
        <ele>297.600006104</ele>
        <time>2015-11-11T11:23:31.967Z</time>
      </trkpt>
      <trkpt lat="45.94889" lon="4.98615">
        <ele>297.700012207</ele>
        <time>2015-11-11T11:23:33.981Z</time>
      </trkpt>
      <trkpt lat="45.94892" lon="4.9861">
        <ele>298</ele>
        <time>2015-11-11T11:23:34.967Z</time>
      </trkpt>
      <trkpt lat="45.94895" lon="4.98605">
        <ele>297.899993896</ele>
        <time>2015-11-11T11:23:35.981Z</time>
      </trkpt>
      <trkpt lat="45.94898" lon="4.98598">
        <ele>297.899993896</ele>
        <time>2015-11-11T11:23:36.966Z</time>
      </trkpt>
      <trkpt lat="45.94901" lon="4.98592">
        <ele>297.700012207</ele>
        <time>2015-11-11T11:23:37.988Z</time>
      </trkpt>
      <trkpt lat="45.94904" lon="4.98586">
        <ele>297.600006104</ele>
        <time>2015-11-11T11:23:38.969Z</time>
      </trkpt>
      <trkpt lat="45.94907" lon="4.98579">
        <ele>297.700012207</ele>
        <time>2015-11-11T11:23:39.997Z</time>
      </trkpt>
      <trkpt lat="45.9491" lon="4.98573">
        <ele>297.600006104</ele>
        <time>2015-11-11T11:23:40.967Z</time>
      </trkpt>
      <trkpt lat="45.94913" lon="4.98567">
        <ele>297.600006104</ele>
        <time>2015-11-11T11:23:41.981Z</time>
      </trkpt>
      <trkpt lat="45.94916" lon="4.98562">
        <ele>297.5</ele>
        <time>2015-11-11T11:23:42.966Z</time>
      </trkpt>
      <trkpt lat="45.94919" lon="4.98556">
        <ele>297.399993896</ele>
        <time>2015-11-11T11:23:43.981Z</time>
      </trkpt>
      <trkpt lat="45.94922" lon="4.98549">
        <ele>297.399993896</ele>
        <time>2015-11-11T11:23:44.969Z</time>
      </trkpt>
      <trkpt lat="45.94924" lon="4.98543">
        <ele>297.299987793</ele>
        <time>2015-11-11T11:23:45.981Z</time>
      </trkpt>
      <trkpt lat="45.94926" lon="4.98538">
        <ele>297</ele>
        <time>2015-11-11T11:23:46.967Z</time>
      </trkpt>
      <trkpt lat="45.94933" lon="4.98529">
        <ele>296.799987793</ele>
        <time>2015-11-11T11:23:48.981Z</time>
      </trkpt>
      <trkpt lat="45.94935" lon="4.98523">
        <ele>296.700012207</ele>
        <time>2015-11-11T11:23:49.966Z</time>
      </trkpt>
      <trkpt lat="45.94939" lon="4.98517">
        <ele>296.600006104</ele>
        <time>2015-11-11T11:23:50.985Z</time>
      </trkpt>
      <trkpt lat="45.94943" lon="4.98512">
        <ele>296.700012207</ele>
        <time>2015-11-11T11:23:51.966Z</time>
      </trkpt>
      <trkpt lat="45.94947" lon="4.98505">
        <ele>296.799987793</ele>
        <time>2015-11-11T11:23:52.983Z</time>
      </trkpt>
      <trkpt lat="45.94951" lon="4.98499">
        <ele>297</ele>
        <time>2015-11-11T11:23:53.967Z</time>
      </trkpt>
      <trkpt lat="45.94954" lon="4.98493">
        <ele>296.899993896</ele>
        <time>2015-11-11T11:23:54.981Z</time>
      </trkpt>
      <trkpt lat="45.94957" lon="4.98486">
        <ele>296.799987793</ele>
        <time>2015-11-11T11:23:55.966Z</time>
      </trkpt>
      <trkpt lat="45.9496" lon="4.98479">
        <ele>296.700012207</ele>
        <time>2015-11-11T11:23:56.983Z</time>
      </trkpt>
      <trkpt lat="45.94964" lon="4.98472">
        <ele>296.899993896</ele>
        <time>2015-11-11T11:23:57.967Z</time>
      </trkpt>
      <trkpt lat="45.94967" lon="4.98466">
        <ele>296.799987793</ele>
        <time>2015-11-11T11:23:58.982Z</time>
      </trkpt>
      <trkpt lat="45.94971" lon="4.98458">
        <ele>296.200012207</ele>
        <time>2015-11-11T11:23:59.966Z</time>
      </trkpt>
      <trkpt lat="45.94975" lon="4.9845">
        <ele>295.899993896</ele>
        <time>2015-11-11T11:24:00.981Z</time>
      </trkpt>
      <trkpt lat="45.94979" lon="4.98443">
        <ele>295.200012207</ele>
        <time>2015-11-11T11:24:01.967Z</time>
      </trkpt>
      <trkpt lat="45.94982" lon="4.98436">
        <ele>294.799987793</ele>
        <time>2015-11-11T11:24:02.984Z</time>
      </trkpt>
      <trkpt lat="45.94986" lon="4.98429">
        <ele>294.399993896</ele>
        <time>2015-11-11T11:24:03.966Z</time>
      </trkpt>
      <trkpt lat="45.9499" lon="4.98422">
        <ele>294</ele>
        <time>2015-11-11T11:24:04.982Z</time>
      </trkpt>
      <trkpt lat="45.94993" lon="4.98415">
        <ele>293.799987793</ele>
        <time>2015-11-11T11:24:05.966Z</time>
      </trkpt>
      <trkpt lat="45.94996" lon="4.98408">
        <ele>293.5</ele>
        <time>2015-11-11T11:24:06.995Z</time>
      </trkpt>
      <trkpt lat="45.94999" lon="4.98401">
        <ele>293.299987793</ele>
        <time>2015-11-11T11:24:07.967Z</time>
      </trkpt>
      <trkpt lat="45.95002" lon="4.98393">
        <ele>292.899993896</ele>
        <time>2015-11-11T11:24:08.987Z</time>
      </trkpt>
      <trkpt lat="45.95005" lon="4.98386">
        <ele>292.200012207</ele>
        <time>2015-11-11T11:24:09.968Z</time>
      </trkpt>
      <trkpt lat="45.95008" lon="4.98379">
        <ele>291.5</ele>
        <time>2015-11-11T11:24:10.983Z</time>
      </trkpt>
      <trkpt lat="45.95011" lon="4.98373">
        <ele>291.100006104</ele>
        <time>2015-11-11T11:24:11.968Z</time>
      </trkpt>
      <trkpt lat="45.95015" lon="4.98366">
        <ele>290.899993896</ele>
        <time>2015-11-11T11:24:12.982Z</time>
      </trkpt>
      <trkpt lat="45.95018" lon="4.9836">
        <ele>290.700012207</ele>
        <time>2015-11-11T11:24:13.968Z</time>
      </trkpt>
      <trkpt lat="45.95022" lon="4.98353">
        <ele>290.5</ele>
        <time>2015-11-11T11:24:14.984Z</time>
      </trkpt>
      <trkpt lat="45.95025" lon="4.98346">
        <ele>290.100006104</ele>
        <time>2015-11-11T11:24:15.966Z</time>
      </trkpt>
      <trkpt lat="45.95029" lon="4.98339">
        <ele>289.799987793</ele>
        <time>2015-11-11T11:24:16.982Z</time>
      </trkpt>
      <trkpt lat="45.95032" lon="4.98332">
        <ele>289.600006104</ele>
        <time>2015-11-11T11:24:17.967Z</time>
      </trkpt>
      <trkpt lat="45.95036" lon="4.98325">
        <ele>289.399993896</ele>
        <time>2015-11-11T11:24:18.981Z</time>
      </trkpt>
      <trkpt lat="45.95039" lon="4.98318">
        <ele>289</ele>
        <time>2015-11-11T11:24:19.966Z</time>
      </trkpt>
      <trkpt lat="45.95042" lon="4.9831">
        <ele>288.700012207</ele>
        <time>2015-11-11T11:24:20.984Z</time>
      </trkpt>
      <trkpt lat="45.95045" lon="4.98303">
        <ele>288.299987793</ele>
        <time>2015-11-11T11:24:21.966Z</time>
      </trkpt>
      <trkpt lat="45.95047" lon="4.98296">
        <ele>288</ele>
        <time>2015-11-11T11:24:23.035Z</time>
      </trkpt>
      <trkpt lat="45.95049" lon="4.98288">
        <ele>288</ele>
        <time>2015-11-11T11:24:23.967Z</time>
      </trkpt>
      <trkpt lat="45.95052" lon="4.98282">
        <ele>287.899993896</ele>
        <time>2015-11-11T11:24:24.981Z</time>
      </trkpt>
      <trkpt lat="45.95054" lon="4.98275">
        <ele>287.299987793</ele>
        <time>2015-11-11T11:24:25.967Z</time>
      </trkpt>
      <trkpt lat="45.95058" lon="4.98269">
        <ele>287.799987793</ele>
        <time>2015-11-11T11:24:26.984Z</time>
      </trkpt>
      <trkpt lat="45.9506" lon="4.98263">
        <ele>287.5</ele>
        <time>2015-11-11T11:24:27.968Z</time>
      </trkpt>
      <trkpt lat="45.95063" lon="4.98256">
        <ele>287.299987793</ele>
        <time>2015-11-11T11:24:28.982Z</time>
      </trkpt>
      <trkpt lat="45.95065" lon="4.98249">
        <ele>287.299987793</ele>
        <time>2015-11-11T11:24:29.966Z</time>
      </trkpt>
      <trkpt lat="45.95067" lon="4.98242">
        <ele>287.100006104</ele>
        <time>2015-11-11T11:24:30.981Z</time>
      </trkpt>
      <trkpt lat="45.9507" lon="4.98234">
        <ele>287</ele>
        <time>2015-11-11T11:24:31.966Z</time>
      </trkpt>
      <trkpt lat="45.95072" lon="4.98227">
        <ele>286.899993896</ele>
        <time>2015-11-11T11:24:32.985Z</time>
      </trkpt>
      <trkpt lat="45.95075" lon="4.98219">
        <ele>287</ele>
        <time>2015-11-11T11:24:33.966Z</time>
      </trkpt>
      <trkpt lat="45.95077" lon="4.98212">
        <ele>287.100006104</ele>
        <time>2015-11-11T11:24:34.982Z</time>
      </trkpt>
      <trkpt lat="45.9508" lon="4.98204">
        <ele>287.5</ele>
        <time>2015-11-11T11:24:35.966Z</time>
      </trkpt>
      <trkpt lat="45.95082" lon="4.98196">
        <ele>287.200012207</ele>
        <time>2015-11-11T11:24:36.981Z</time>
      </trkpt>
      <trkpt lat="45.95084" lon="4.98188">
        <ele>287</ele>
        <time>2015-11-11T11:24:37.968Z</time>
      </trkpt>
      <trkpt lat="45.95086" lon="4.9818">
        <ele>286.799987793</ele>
        <time>2015-11-11T11:24:38.999Z</time>
      </trkpt>
      <trkpt lat="45.95087" lon="4.98173">
        <ele>286.600006104</ele>
        <time>2015-11-11T11:24:39.968Z</time>
      </trkpt>
      <trkpt lat="45.95089" lon="4.98166">
        <ele>286.5</ele>
        <time>2015-11-11T11:24:40.982Z</time>
      </trkpt>
      <trkpt lat="45.9509" lon="4.9816">
        <ele>286.399993896</ele>
        <time>2015-11-11T11:24:41.966Z</time>
      </trkpt>
      <trkpt lat="45.95092" lon="4.98147">
        <ele>286.299987793</ele>
        <time>2015-11-11T11:24:43.981Z</time>
      </trkpt>
      <trkpt lat="45.95093" lon="4.98141">
        <ele>286.100006104</ele>
        <time>2015-11-11T11:24:44.97Z</time>
      </trkpt>
      <trkpt lat="45.95094" lon="4.98134">
        <ele>286</ele>
        <time>2015-11-11T11:24:45.982Z</time>
      </trkpt>
      <trkpt lat="45.95095" lon="4.98127">
        <ele>285.799987793</ele>
        <time>2015-11-11T11:24:46.968Z</time>
      </trkpt>
      <trkpt lat="45.95096" lon="4.98121">
        <ele>285.700012207</ele>
        <time>2015-11-11T11:24:47.996Z</time>
      </trkpt>
      <trkpt lat="45.95096" lon="4.98114">
        <ele>285.700012207</ele>
        <time>2015-11-11T11:24:48.966Z</time>
      </trkpt>
      <trkpt lat="45.95097" lon="4.98107">
        <ele>285.5</ele>
        <time>2015-11-11T11:24:49.996Z</time>
      </trkpt>
      <trkpt lat="45.95098" lon="4.981">
        <ele>285.700012207</ele>
        <time>2015-11-11T11:24:50.97Z</time>
      </trkpt>
      <trkpt lat="45.95099" lon="4.98092">
        <ele>285.700012207</ele>
        <time>2015-11-11T11:24:51.981Z</time>
      </trkpt>
      <trkpt lat="45.951" lon="4.98085">
        <ele>285.799987793</ele>
        <time>2015-11-11T11:24:52.967Z</time>
      </trkpt>
      <trkpt lat="45.95101" lon="4.98077">
        <ele>285.799987793</ele>
        <time>2015-11-11T11:24:53.981Z</time>
      </trkpt>
      <trkpt lat="45.95101" lon="4.98069">
        <ele>286</ele>
        <time>2015-11-11T11:24:54.966Z</time>
      </trkpt>
      <trkpt lat="45.95102" lon="4.98061">
        <ele>286</ele>
        <time>2015-11-11T11:24:55.98Z</time>
      </trkpt>
      <trkpt lat="45.95103" lon="4.98053">
        <ele>285.700012207</ele>
        <time>2015-11-11T11:24:56.969Z</time>
      </trkpt>
      <trkpt lat="45.95103" lon="4.98045">
        <ele>285.600006104</ele>
        <time>2015-11-11T11:24:57.996Z</time>
      </trkpt>
      <trkpt lat="45.95104" lon="4.98037">
        <ele>285.799987793</ele>
        <time>2015-11-11T11:24:58.967Z</time>
      </trkpt>
      <trkpt lat="45.95104" lon="4.98029">
        <ele>285.799987793</ele>
        <time>2015-11-11T11:24:59.981Z</time>
      </trkpt>
      <trkpt lat="45.95104" lon="4.98021">
        <ele>285.399993896</ele>
        <time>2015-11-11T11:25:00.966Z</time>
      </trkpt>
      <trkpt lat="45.95103" lon="4.98012">
        <ele>285.600006104</ele>
        <time>2015-11-11T11:25:01.98Z</time>
      </trkpt>
      <trkpt lat="45.95102" lon="4.98004">
        <ele>285.399993896</ele>
        <time>2015-11-11T11:25:02.969Z</time>
      </trkpt>
      <trkpt lat="45.95102" lon="4.97995">
        <ele>285.200012207</ele>
        <time>2015-11-11T11:25:03.981Z</time>
      </trkpt>
      <trkpt lat="45.95101" lon="4.97987">
        <ele>285</ele>
        <time>2015-11-11T11:25:04.967Z</time>
      </trkpt>
      <trkpt lat="45.95101" lon="4.97979">
        <ele>285</ele>
        <time>2015-11-11T11:25:06Z</time>
      </trkpt>
      <trkpt lat="45.951" lon="4.97971">
        <ele>284.799987793</ele>
        <time>2015-11-11T11:25:06.966Z</time>
      </trkpt>
      <trkpt lat="45.95099" lon="4.97963">
        <ele>284.700012207</ele>
        <time>2015-11-11T11:25:08Z</time>
      </trkpt>
      <trkpt lat="45.95098" lon="4.97954">
        <ele>284.200012207</ele>
        <time>2015-11-11T11:25:08.97Z</time>
      </trkpt>
      <trkpt lat="45.95097" lon="4.97946">
        <ele>284.200012207</ele>
        <time>2015-11-11T11:25:09.981Z</time>
      </trkpt>
      <trkpt lat="45.95096" lon="4.97938">
        <ele>284.100006104</ele>
        <time>2015-11-11T11:25:10.967Z</time>
      </trkpt>
      <trkpt lat="45.95095" lon="4.97929">
        <ele>284</ele>
        <time>2015-11-11T11:25:11.982Z</time>
      </trkpt>
      <trkpt lat="45.95093" lon="4.9792">
        <ele>283.799987793</ele>
        <time>2015-11-11T11:25:12.966Z</time>
      </trkpt>
      <trkpt lat="45.95091" lon="4.97912">
        <ele>283.600006104</ele>
        <time>2015-11-11T11:25:13.98Z</time>
      </trkpt>
      <trkpt lat="45.95089" lon="4.97904">
        <ele>283.600006104</ele>
        <time>2015-11-11T11:25:14.969Z</time>
      </trkpt>
      <trkpt lat="45.95087" lon="4.97895">
        <ele>283.399993896</ele>
        <time>2015-11-11T11:25:15.981Z</time>
      </trkpt>
      <trkpt lat="45.95085" lon="4.97888">
        <ele>283.399993896</ele>
        <time>2015-11-11T11:25:16.967Z</time>
      </trkpt>
      <trkpt lat="45.95083" lon="4.9788">
        <ele>283.700012207</ele>
        <time>2015-11-11T11:25:17.998Z</time>
      </trkpt>
      <trkpt lat="45.95081" lon="4.97874">
        <ele>284</ele>
        <time>2015-11-11T11:25:18.966Z</time>
      </trkpt>
      <trkpt lat="45.95079" lon="4.97866">
        <ele>284</ele>
        <time>2015-11-11T11:25:19.981Z</time>
      </trkpt>
      <trkpt lat="45.95078" lon="4.9786">
        <ele>283.899993896</ele>
        <time>2015-11-11T11:25:20.97Z</time>
      </trkpt>
      <trkpt lat="45.95076" lon="4.97853">
        <ele>283.899993896</ele>
        <time>2015-11-11T11:25:21.994Z</time>
      </trkpt>
      <trkpt lat="45.95075" lon="4.97845">
        <ele>283.799987793</ele>
        <time>2015-11-11T11:25:22.968Z</time>
      </trkpt>
      <trkpt lat="45.95073" lon="4.97838">
        <ele>283.600006104</ele>
        <time>2015-11-11T11:25:23.981Z</time>
      </trkpt>
      <trkpt lat="45.95071" lon="4.9783">
        <ele>283.5</ele>
        <time>2015-11-11T11:25:24.966Z</time>
      </trkpt>
      <trkpt lat="45.95069" lon="4.97822">
        <ele>283.200012207</ele>
        <time>2015-11-11T11:25:25.981Z</time>
      </trkpt>
      <trkpt lat="45.95068" lon="4.97813">
        <ele>282.799987793</ele>
        <time>2015-11-11T11:25:26.969Z</time>
      </trkpt>
      <trkpt lat="45.95067" lon="4.97805">
        <ele>282.299987793</ele>
        <time>2015-11-11T11:25:28.039Z</time>
      </trkpt>
      <trkpt lat="45.95066" lon="4.97796">
        <ele>282.200012207</ele>
        <time>2015-11-11T11:25:28.967Z</time>
      </trkpt>
      <trkpt lat="45.95066" lon="4.97788">
        <ele>282.299987793</ele>
        <time>2015-11-11T11:25:29.981Z</time>
      </trkpt>
      <trkpt lat="45.95066" lon="4.97781">
        <ele>282.299987793</ele>
        <time>2015-11-11T11:25:30.966Z</time>
      </trkpt>
      <trkpt lat="45.95066" lon="4.97773">
        <ele>282.200012207</ele>
        <time>2015-11-11T11:25:31.981Z</time>
      </trkpt>
      <trkpt lat="45.95066" lon="4.97766">
        <ele>282.299987793</ele>
        <time>2015-11-11T11:25:32.969Z</time>
      </trkpt>
      <trkpt lat="45.95066" lon="4.97759">
        <ele>282.399993896</ele>
        <time>2015-11-11T11:25:33.981Z</time>
      </trkpt>
      <trkpt lat="45.95067" lon="4.97753">
        <ele>282.5</ele>
        <time>2015-11-11T11:25:34.967Z</time>
      </trkpt>
      <trkpt lat="45.95068" lon="4.97746">
        <ele>282.399993896</ele>
        <time>2015-11-11T11:25:35.981Z</time>
      </trkpt>
      <trkpt lat="45.95069" lon="4.97739">
        <ele>282.399993896</ele>
        <time>2015-11-11T11:25:36.966Z</time>
      </trkpt>
      <trkpt lat="45.95069" lon="4.97732">
        <ele>282.200012207</ele>
        <time>2015-11-11T11:25:38.02Z</time>
      </trkpt>
      <trkpt lat="45.9507" lon="4.97725">
        <ele>282.299987793</ele>
        <time>2015-11-11T11:25:38.969Z</time>
      </trkpt>
      <trkpt lat="45.9507" lon="4.97718">
        <ele>282</ele>
        <time>2015-11-11T11:25:39.983Z</time>
      </trkpt>
      <trkpt lat="45.95071" lon="4.9771">
        <ele>281.799987793</ele>
        <time>2015-11-11T11:25:40.967Z</time>
      </trkpt>
      <trkpt lat="45.95071" lon="4.97702">
        <ele>281.899993896</ele>
        <time>2015-11-11T11:25:41.981Z</time>
      </trkpt>
      <trkpt lat="45.95072" lon="4.97694">
        <ele>282.200012207</ele>
        <time>2015-11-11T11:25:42.966Z</time>
      </trkpt>
      <trkpt lat="45.95072" lon="4.97686">
        <ele>282.299987793</ele>
        <time>2015-11-11T11:25:43.981Z</time>
      </trkpt>
      <trkpt lat="45.95072" lon="4.97678">
        <ele>281.899993896</ele>
        <time>2015-11-11T11:25:44.969Z</time>
      </trkpt>
      <trkpt lat="45.95073" lon="4.97671">
        <ele>282.100006104</ele>
        <time>2015-11-11T11:25:45.981Z</time>
      </trkpt>
      <trkpt lat="45.95073" lon="4.97663">
        <ele>281.899993896</ele>
        <time>2015-11-11T11:25:46.967Z</time>
      </trkpt>
      <trkpt lat="45.95074" lon="4.97656">
        <ele>281.799987793</ele>
        <time>2015-11-11T11:25:48Z</time>
      </trkpt>
      <trkpt lat="45.95074" lon="4.97648">
        <ele>281.5</ele>
        <time>2015-11-11T11:25:48.979Z</time>
      </trkpt>
      <trkpt lat="45.95075" lon="4.97641">
        <ele>281.399993896</ele>
        <time>2015-11-11T11:25:49.981Z</time>
      </trkpt>
      <trkpt lat="45.95075" lon="4.97634">
        <ele>281.200012207</ele>
        <time>2015-11-11T11:25:50.969Z</time>
      </trkpt>
      <trkpt lat="45.95076" lon="4.97627">
        <ele>281</ele>
        <time>2015-11-11T11:25:51.981Z</time>
      </trkpt>
      <trkpt lat="45.95077" lon="4.97619">
        <ele>280.899993896</ele>
        <time>2015-11-11T11:25:52.967Z</time>
      </trkpt>
      <trkpt lat="45.95077" lon="4.97611">
        <ele>280.399993896</ele>
        <time>2015-11-11T11:25:53.98Z</time>
      </trkpt>
      <trkpt lat="45.95078" lon="4.97603">
        <ele>280.899993896</ele>
        <time>2015-11-11T11:25:54.966Z</time>
      </trkpt>
      <trkpt lat="45.95078" lon="4.97596">
        <ele>280.799987793</ele>
        <time>2015-11-11T11:25:55.98Z</time>
      </trkpt>
      <trkpt lat="45.95078" lon="4.97588">
        <ele>280.700012207</ele>
        <time>2015-11-11T11:25:56.969Z</time>
      </trkpt>
      <trkpt lat="45.95078" lon="4.9758">
        <ele>280.799987793</ele>
        <time>2015-11-11T11:25:57.999Z</time>
      </trkpt>
      <trkpt lat="45.95079" lon="4.97572">
        <ele>280.799987793</ele>
        <time>2015-11-11T11:25:58.967Z</time>
      </trkpt>
      <trkpt lat="45.95079" lon="4.97563">
        <ele>281.100006104</ele>
        <time>2015-11-11T11:25:59.994Z</time>
      </trkpt>
      <trkpt lat="45.95079" lon="4.97555">
        <ele>281.100006104</ele>
        <time>2015-11-11T11:26:00.966Z</time>
      </trkpt>
      <trkpt lat="45.95079" lon="4.97547">
        <ele>281.200012207</ele>
        <time>2015-11-11T11:26:01.981Z</time>
      </trkpt>
      <trkpt lat="45.95079" lon="4.9754">
        <ele>281.299987793</ele>
        <time>2015-11-11T11:26:02.969Z</time>
      </trkpt>
      <trkpt lat="45.9508" lon="4.97532">
        <ele>281.5</ele>
        <time>2015-11-11T11:26:03.981Z</time>
      </trkpt>
      <trkpt lat="45.9508" lon="4.97525">
        <ele>281.700012207</ele>
        <time>2015-11-11T11:26:04.967Z</time>
      </trkpt>
      <trkpt lat="45.9508" lon="4.97518">
        <ele>281.799987793</ele>
        <time>2015-11-11T11:26:05.98Z</time>
      </trkpt>
      <trkpt lat="45.9508" lon="4.97511">
        <ele>281.899993896</ele>
        <time>2015-11-11T11:26:06.966Z</time>
      </trkpt>
      <trkpt lat="45.95079" lon="4.97499">
        <ele>282.100006104</ele>
        <time>2015-11-11T11:26:09.018Z</time>
      </trkpt>
      <trkpt lat="45.95078" lon="4.97493">
        <ele>282.100006104</ele>
        <time>2015-11-11T11:26:09.966Z</time>
      </trkpt>
      <trkpt lat="45.95078" lon="4.97486">
        <ele>282</ele>
        <time>2015-11-11T11:26:10.982Z</time>
      </trkpt>
      <trkpt lat="45.95078" lon="4.97479">
        <ele>282</ele>
        <time>2015-11-11T11:26:11.966Z</time>
      </trkpt>
      <trkpt lat="45.95077" lon="4.97472">
        <ele>282</ele>
        <time>2015-11-11T11:26:12.98Z</time>
      </trkpt>
      <trkpt lat="45.95077" lon="4.97466">
        <ele>282</ele>
        <time>2015-11-11T11:26:13.966Z</time>
      </trkpt>
      <trkpt lat="45.95076" lon="4.97459">
        <ele>282</ele>
        <time>2015-11-11T11:26:14.984Z</time>
      </trkpt>
      <trkpt lat="45.95076" lon="4.97451">
        <ele>281.799987793</ele>
        <time>2015-11-11T11:26:15.966Z</time>
      </trkpt>
      <trkpt lat="45.95075" lon="4.97444">
        <ele>281.700012207</ele>
        <time>2015-11-11T11:26:16.982Z</time>
      </trkpt>
      <trkpt lat="45.95075" lon="4.97436">
        <ele>281.600006104</ele>
        <time>2015-11-11T11:26:17.974Z</time>
      </trkpt>
      <trkpt lat="45.95075" lon="4.97429">
        <ele>281.5</ele>
        <time>2015-11-11T11:26:18.981Z</time>
      </trkpt>
      <trkpt lat="45.95074" lon="4.97421">
        <ele>281.5</ele>
        <time>2015-11-11T11:26:19.966Z</time>
      </trkpt>
      <trkpt lat="45.95074" lon="4.97413">
        <ele>281.5</ele>
        <time>2015-11-11T11:26:20.984Z</time>
      </trkpt>
      <trkpt lat="45.95074" lon="4.97405">
        <ele>281.600006104</ele>
        <time>2015-11-11T11:26:21.966Z</time>
      </trkpt>
      <trkpt lat="45.95073" lon="4.97397">
        <ele>281.5</ele>
        <time>2015-11-11T11:26:22.982Z</time>
      </trkpt>
      <trkpt lat="45.95073" lon="4.97389">
        <ele>281.600006104</ele>
        <time>2015-11-11T11:26:23.966Z</time>
      </trkpt>
      <trkpt lat="45.95072" lon="4.97382">
        <ele>281.5</ele>
        <time>2015-11-11T11:26:24.98Z</time>
      </trkpt>
      <trkpt lat="45.95072" lon="4.97374">
        <ele>281.399993896</ele>
        <time>2015-11-11T11:26:25.966Z</time>
      </trkpt>
      <trkpt lat="45.95072" lon="4.97367">
        <ele>281.399993896</ele>
        <time>2015-11-11T11:26:26.998Z</time>
      </trkpt>
      <trkpt lat="45.95072" lon="4.97359">
        <ele>281.399993896</ele>
        <time>2015-11-11T11:26:27.974Z</time>
      </trkpt>
      <trkpt lat="45.95071" lon="4.97352">
        <ele>281.299987793</ele>
        <time>2015-11-11T11:26:28.982Z</time>
      </trkpt>
      <trkpt lat="45.95071" lon="4.97344">
        <ele>281.299987793</ele>
        <time>2015-11-11T11:26:29.966Z</time>
      </trkpt>
      <trkpt lat="45.9507" lon="4.97337">
        <ele>281.200012207</ele>
        <time>2015-11-11T11:26:30.981Z</time>
      </trkpt>
      <trkpt lat="45.9507" lon="4.97329">
        <ele>281</ele>
        <time>2015-11-11T11:26:31.966Z</time>
      </trkpt>
      <trkpt lat="45.95069" lon="4.97321">
        <ele>280.899993896</ele>
        <time>2015-11-11T11:26:32.983Z</time>
      </trkpt>
      <trkpt lat="45.95069" lon="4.97313">
        <ele>280.899993896</ele>
        <time>2015-11-11T11:26:33.966Z</time>
      </trkpt>
      <trkpt lat="45.95069" lon="4.97305">
        <ele>280.799987793</ele>
        <time>2015-11-11T11:26:34.991Z</time>
      </trkpt>
      <trkpt lat="45.95069" lon="4.97296">
        <ele>280.799987793</ele>
        <time>2015-11-11T11:26:35.966Z</time>
      </trkpt>
      <trkpt lat="45.95069" lon="4.97288">
        <ele>280.700012207</ele>
        <time>2015-11-11T11:26:36.98Z</time>
      </trkpt>
      <trkpt lat="45.95068" lon="4.97279">
        <ele>280.600006104</ele>
        <time>2015-11-11T11:26:37.974Z</time>
      </trkpt>
      <trkpt lat="45.95068" lon="4.97271">
        <ele>280.5</ele>
        <time>2015-11-11T11:26:38.983Z</time>
      </trkpt>
      <trkpt lat="45.95068" lon="4.97262">
        <ele>280.399993896</ele>
        <time>2015-11-11T11:26:39.968Z</time>
      </trkpt>
      <trkpt lat="45.95067" lon="4.97253">
        <ele>280.299987793</ele>
        <time>2015-11-11T11:26:40.982Z</time>
      </trkpt>
      <trkpt lat="45.95067" lon="4.97244">
        <ele>280.200012207</ele>
        <time>2015-11-11T11:26:41.966Z</time>
      </trkpt>
      <trkpt lat="45.95066" lon="4.97235">
        <ele>280.100006104</ele>
        <time>2015-11-11T11:26:42.994Z</time>
      </trkpt>
      <trkpt lat="45.95066" lon="4.97226">
        <ele>280.100006104</ele>
        <time>2015-11-11T11:26:43.966Z</time>
      </trkpt>
      <trkpt lat="45.95066" lon="4.97218">
        <ele>280</ele>
        <time>2015-11-11T11:26:44.983Z</time>
      </trkpt>
      <trkpt lat="45.95065" lon="4.9721">
        <ele>280</ele>
        <time>2015-11-11T11:26:45.966Z</time>
      </trkpt>
      <trkpt lat="45.95064" lon="4.97202">
        <ele>279.899993896</ele>
        <time>2015-11-11T11:26:46.982Z</time>
      </trkpt>
      <trkpt lat="45.95064" lon="4.97194">
        <ele>279.899993896</ele>
        <time>2015-11-11T11:26:47.974Z</time>
      </trkpt>
      <trkpt lat="45.95063" lon="4.97187">
        <ele>279.899993896</ele>
        <time>2015-11-11T11:26:48.981Z</time>
      </trkpt>
      <trkpt lat="45.95062" lon="4.97179">
        <ele>279.899993896</ele>
        <time>2015-11-11T11:26:49.966Z</time>
      </trkpt>
      <trkpt lat="45.95063" lon="4.97172">
        <ele>279.899993896</ele>
        <time>2015-11-11T11:26:50.984Z</time>
      </trkpt>
      <trkpt lat="45.95063" lon="4.97164">
        <ele>279.899993896</ele>
        <time>2015-11-11T11:26:51.979Z</time>
      </trkpt>
      <trkpt lat="45.95063" lon="4.97156">
        <ele>279.899993896</ele>
        <time>2015-11-11T11:26:53.104Z</time>
      </trkpt>
      <trkpt lat="45.95063" lon="4.97149">
        <ele>279.899993896</ele>
        <time>2015-11-11T11:26:53.966Z</time>
      </trkpt>
      <trkpt lat="45.95062" lon="4.97141">
        <ele>279.899993896</ele>
        <time>2015-11-11T11:26:54.989Z</time>
      </trkpt>
      <trkpt lat="45.95062" lon="4.97133">
        <ele>279.799987793</ele>
        <time>2015-11-11T11:26:55.966Z</time>
      </trkpt>
      <trkpt lat="45.95062" lon="4.97125">
        <ele>279.799987793</ele>
        <time>2015-11-11T11:26:56.983Z</time>
      </trkpt>
      <trkpt lat="45.95061" lon="4.97118">
        <ele>279.799987793</ele>
        <time>2015-11-11T11:26:57.974Z</time>
      </trkpt>
      <trkpt lat="45.95061" lon="4.9711">
        <ele>279.799987793</ele>
        <time>2015-11-11T11:26:58.981Z</time>
      </trkpt>
      <trkpt lat="45.95061" lon="4.97102">
        <ele>279.799987793</ele>
        <time>2015-11-11T11:26:59.966Z</time>
      </trkpt>
      <trkpt lat="45.9506" lon="4.97094">
        <ele>279.899993896</ele>
        <time>2015-11-11T11:27:00.98Z</time>
      </trkpt>
      <trkpt lat="45.9506" lon="4.97087">
        <ele>279.799987793</ele>
        <time>2015-11-11T11:27:01.966Z</time>
      </trkpt>
      <trkpt lat="45.9506" lon="4.97079">
        <ele>279.799987793</ele>
        <time>2015-11-11T11:27:02.984Z</time>
      </trkpt>
      <trkpt lat="45.95059" lon="4.97072">
        <ele>279.799987793</ele>
        <time>2015-11-11T11:27:03.966Z</time>
      </trkpt>
      <trkpt lat="45.95059" lon="4.97064">
        <ele>279.799987793</ele>
        <time>2015-11-11T11:27:04.981Z</time>
      </trkpt>
      <trkpt lat="45.95058" lon="4.97056">
        <ele>279.799987793</ele>
        <time>2015-11-11T11:27:06.003Z</time>
      </trkpt>
      <trkpt lat="45.95058" lon="4.97048">
        <ele>279.799987793</ele>
        <time>2015-11-11T11:27:06.98Z</time>
      </trkpt>
      <trkpt lat="45.95058" lon="4.97041">
        <ele>279.799987793</ele>
        <time>2015-11-11T11:27:07.972Z</time>
      </trkpt>
      <trkpt lat="45.95058" lon="4.97033">
        <ele>279.799987793</ele>
        <time>2015-11-11T11:27:08.983Z</time>
      </trkpt>
      <trkpt lat="45.95058" lon="4.97025">
        <ele>279.799987793</ele>
        <time>2015-11-11T11:27:09.966Z</time>
      </trkpt>
      <trkpt lat="45.95058" lon="4.97017">
        <ele>279.899993896</ele>
        <time>2015-11-11T11:27:10.99Z</time>
      </trkpt>
      <trkpt lat="45.95058" lon="4.97009">
        <ele>279.899993896</ele>
        <time>2015-11-11T11:27:11.966Z</time>
      </trkpt>
      <trkpt lat="45.95057" lon="4.97002">
        <ele>280.100006104</ele>
        <time>2015-11-11T11:27:12.981Z</time>
      </trkpt>
      <trkpt lat="45.95057" lon="4.96994">
        <ele>280.200012207</ele>
        <time>2015-11-11T11:27:13.966Z</time>
      </trkpt>
      <trkpt lat="45.95057" lon="4.96986">
        <ele>280.299987793</ele>
        <time>2015-11-11T11:27:15.003Z</time>
      </trkpt>
      <trkpt lat="45.95057" lon="4.96978">
        <ele>280.399993896</ele>
        <time>2015-11-11T11:27:15.966Z</time>
      </trkpt>
      <trkpt lat="45.95057" lon="4.96971">
        <ele>280.399993896</ele>
        <time>2015-11-11T11:27:16.982Z</time>
      </trkpt>
      <trkpt lat="45.95056" lon="4.96963">
        <ele>280.399993896</ele>
        <time>2015-11-11T11:27:17.97Z</time>
      </trkpt>
      <trkpt lat="45.95056" lon="4.96955">
        <ele>280.299987793</ele>
        <time>2015-11-11T11:27:18.981Z</time>
      </trkpt>
      <trkpt lat="45.95056" lon="4.96948">
        <ele>280.399993896</ele>
        <time>2015-11-11T11:27:19.966Z</time>
      </trkpt>
      <trkpt lat="45.95055" lon="4.9694">
        <ele>280.399993896</ele>
        <time>2015-11-11T11:27:20.983Z</time>
      </trkpt>
      <trkpt lat="45.95055" lon="4.96932">
        <ele>280.5</ele>
        <time>2015-11-11T11:27:21.966Z</time>
      </trkpt>
      <trkpt lat="45.95055" lon="4.96925">
        <ele>280.600006104</ele>
        <time>2015-11-11T11:27:22.982Z</time>
      </trkpt>
      <trkpt lat="45.95054" lon="4.96917">
        <ele>280.600006104</ele>
        <time>2015-11-11T11:27:23.966Z</time>
      </trkpt>
      <trkpt lat="45.95054" lon="4.96909">
        <ele>280.600006104</ele>
        <time>2015-11-11T11:27:24.981Z</time>
      </trkpt>
      <trkpt lat="45.95054" lon="4.96902">
        <ele>280.700012207</ele>
        <time>2015-11-11T11:27:25.966Z</time>
      </trkpt>
      <trkpt lat="45.95053" lon="4.96894">
        <ele>280.700012207</ele>
        <time>2015-11-11T11:27:26.983Z</time>
      </trkpt>
      <trkpt lat="45.95053" lon="4.96886">
        <ele>280.799987793</ele>
        <time>2015-11-11T11:27:27.968Z</time>
      </trkpt>
      <trkpt lat="45.95052" lon="4.96878">
        <ele>280.899993896</ele>
        <time>2015-11-11T11:27:28.982Z</time>
      </trkpt>
      <trkpt lat="45.95052" lon="4.96869">
        <ele>280.899993896</ele>
        <time>2015-11-11T11:27:29.966Z</time>
      </trkpt>
      <trkpt lat="45.95051" lon="4.96862">
        <ele>280.899993896</ele>
        <time>2015-11-11T11:27:30.994Z</time>
      </trkpt>
      <trkpt lat="45.95051" lon="4.96854">
        <ele>280.899993896</ele>
        <time>2015-11-11T11:27:31.966Z</time>
      </trkpt>
      <trkpt lat="45.9505" lon="4.96846">
        <ele>280.899993896</ele>
        <time>2015-11-11T11:27:32.983Z</time>
      </trkpt>
      <trkpt lat="45.95049" lon="4.96839">
        <ele>280.899993896</ele>
        <time>2015-11-11T11:27:33.966Z</time>
      </trkpt>
      <trkpt lat="45.95049" lon="4.96831">
        <ele>280.899993896</ele>
        <time>2015-11-11T11:27:34.982Z</time>
      </trkpt>
      <trkpt lat="45.95048" lon="4.96823">
        <ele>280.899993896</ele>
        <time>2015-11-11T11:27:35.966Z</time>
      </trkpt>
      <trkpt lat="45.95048" lon="4.96815">
        <ele>280.899993896</ele>
        <time>2015-11-11T11:27:36.98Z</time>
      </trkpt>
      <trkpt lat="45.95047" lon="4.96807">
        <ele>280.899993896</ele>
        <time>2015-11-11T11:27:37.966Z</time>
      </trkpt>
      <trkpt lat="45.95047" lon="4.96799">
        <ele>280.899993896</ele>
        <time>2015-11-11T11:27:38.983Z</time>
      </trkpt>
      <trkpt lat="45.95047" lon="4.9679">
        <ele>280.899993896</ele>
        <time>2015-11-11T11:27:39.968Z</time>
      </trkpt>
      <trkpt lat="45.95047" lon="4.96782">
        <ele>280.899993896</ele>
        <time>2015-11-11T11:27:40.981Z</time>
      </trkpt>
      <trkpt lat="45.95047" lon="4.96773">
        <ele>280.899993896</ele>
        <time>2015-11-11T11:27:41.966Z</time>
      </trkpt>
      <trkpt lat="45.95046" lon="4.96765">
        <ele>281</ele>
        <time>2015-11-11T11:27:42.98Z</time>
      </trkpt>
      <trkpt lat="45.95046" lon="4.96757">
        <ele>281</ele>
        <time>2015-11-11T11:27:43.966Z</time>
      </trkpt>
      <trkpt lat="45.95046" lon="4.96749">
        <ele>281.100006104</ele>
        <time>2015-11-11T11:27:44.983Z</time>
      </trkpt>
      <trkpt lat="45.95046" lon="4.96742">
        <ele>281.100006104</ele>
        <time>2015-11-11T11:27:45.966Z</time>
      </trkpt>
      <trkpt lat="45.95046" lon="4.96735">
        <ele>281.100006104</ele>
        <time>2015-11-11T11:27:46.995Z</time>
      </trkpt>
      <trkpt lat="45.95045" lon="4.96727">
        <ele>281.100006104</ele>
        <time>2015-11-11T11:27:47.966Z</time>
      </trkpt>
      <trkpt lat="45.95045" lon="4.9672">
        <ele>281.200012207</ele>
        <time>2015-11-11T11:27:48.981Z</time>
      </trkpt>
      <trkpt lat="45.95045" lon="4.96712">
        <ele>281.100006104</ele>
        <time>2015-11-11T11:27:49.966Z</time>
      </trkpt>
      <trkpt lat="45.95044" lon="4.96705">
        <ele>281.100006104</ele>
        <time>2015-11-11T11:27:50.983Z</time>
      </trkpt>
      <trkpt lat="45.95044" lon="4.96698">
        <ele>281</ele>
        <time>2015-11-11T11:27:51.966Z</time>
      </trkpt>
      <trkpt lat="45.95044" lon="4.9669">
        <ele>281.100006104</ele>
        <time>2015-11-11T11:27:52.981Z</time>
      </trkpt>
      <trkpt lat="45.95043" lon="4.96682">
        <ele>281</ele>
        <time>2015-11-11T11:27:53.966Z</time>
      </trkpt>
      <trkpt lat="45.95043" lon="4.96674">
        <ele>281</ele>
        <time>2015-11-11T11:27:54.98Z</time>
      </trkpt>
      <trkpt lat="45.95043" lon="4.96666">
        <ele>280.899993896</ele>
        <time>2015-11-11T11:27:55.966Z</time>
      </trkpt>
      <trkpt lat="45.95043" lon="4.96658">
        <ele>281</ele>
        <time>2015-11-11T11:27:56.986Z</time>
      </trkpt>
      <trkpt lat="45.95044" lon="4.9665">
        <ele>281</ele>
        <time>2015-11-11T11:27:57.966Z</time>
      </trkpt>
      <trkpt lat="45.95044" lon="4.96643">
        <ele>280.799987793</ele>
        <time>2015-11-11T11:27:59.02Z</time>
      </trkpt>
      <trkpt lat="45.95044" lon="4.96635">
        <ele>280.700012207</ele>
        <time>2015-11-11T11:27:59.966Z</time>
      </trkpt>
      <trkpt lat="45.95045" lon="4.96628">
        <ele>280.600006104</ele>
        <time>2015-11-11T11:28:00.98Z</time>
      </trkpt>
      <trkpt lat="45.95045" lon="4.9662">
        <ele>280.5</ele>
        <time>2015-11-11T11:28:01.966Z</time>
      </trkpt>
      <trkpt lat="45.95046" lon="4.96613">
        <ele>280.399993896</ele>
        <time>2015-11-11T11:28:02.998Z</time>
      </trkpt>
      <trkpt lat="45.95046" lon="4.96605">
        <ele>280.299987793</ele>
        <time>2015-11-11T11:28:03.966Z</time>
      </trkpt>
      <trkpt lat="45.95047" lon="4.96598">
        <ele>280.200012207</ele>
        <time>2015-11-11T11:28:04.982Z</time>
      </trkpt>
      <trkpt lat="45.95048" lon="4.9659">
        <ele>279.700012207</ele>
        <time>2015-11-11T11:28:05.966Z</time>
      </trkpt>
      <trkpt lat="45.95049" lon="4.96582">
        <ele>279.600006104</ele>
        <time>2015-11-11T11:28:06.98Z</time>
      </trkpt>
      <trkpt lat="45.95051" lon="4.96574">
        <ele>280.200012207</ele>
        <time>2015-11-11T11:28:07.966Z</time>
      </trkpt>
      <trkpt lat="45.95053" lon="4.96567">
        <ele>280.200012207</ele>
        <time>2015-11-11T11:28:09.008Z</time>
      </trkpt>
      <trkpt lat="45.95055" lon="4.9656">
        <ele>280.100006104</ele>
        <time>2015-11-11T11:28:09.966Z</time>
      </trkpt>
      <trkpt lat="45.95058" lon="4.96553">
        <ele>280</ele>
        <time>2015-11-11T11:28:10.981Z</time>
      </trkpt>
      <trkpt lat="45.9506" lon="4.96546">
        <ele>279.899993896</ele>
        <time>2015-11-11T11:28:11.966Z</time>
      </trkpt>
      <trkpt lat="45.95063" lon="4.96539">
        <ele>280.100006104</ele>
        <time>2015-11-11T11:28:12.98Z</time>
      </trkpt>
      <trkpt lat="45.95065" lon="4.96533">
        <ele>280.200012207</ele>
        <time>2015-11-11T11:28:13.966Z</time>
      </trkpt>
      <trkpt lat="45.95067" lon="4.96527">
        <ele>280.100006104</ele>
        <time>2015-11-11T11:28:14.983Z</time>
      </trkpt>
      <trkpt lat="45.95069" lon="4.9652">
        <ele>280.399993896</ele>
        <time>2015-11-11T11:28:15.966Z</time>
      </trkpt>
      <trkpt lat="45.95071" lon="4.96514">
        <ele>280.700012207</ele>
        <time>2015-11-11T11:28:16.981Z</time>
      </trkpt>
      <trkpt lat="45.95074" lon="4.96507">
        <ele>280.600006104</ele>
        <time>2015-11-11T11:28:17.966Z</time>
      </trkpt>
      <trkpt lat="45.95076" lon="4.96501">
        <ele>280.600006104</ele>
        <time>2015-11-11T11:28:18.994Z</time>
      </trkpt>
      <trkpt lat="45.95078" lon="4.96495">
        <ele>280.700012207</ele>
        <time>2015-11-11T11:28:19.966Z</time>
      </trkpt>
      <trkpt lat="45.95081" lon="4.96489">
        <ele>280.399993896</ele>
        <time>2015-11-11T11:28:21.018Z</time>
      </trkpt>
      <trkpt lat="45.95082" lon="4.96482">
        <ele>280.299987793</ele>
        <time>2015-11-11T11:28:21.966Z</time>
      </trkpt>
      <trkpt lat="45.95084" lon="4.96475">
        <ele>280.200012207</ele>
        <time>2015-11-11T11:28:22.981Z</time>
      </trkpt>
      <trkpt lat="45.95087" lon="4.96469">
        <ele>280.200012207</ele>
        <time>2015-11-11T11:28:23.966Z</time>
      </trkpt>
      <trkpt lat="45.95089" lon="4.96462">
        <ele>280.200012207</ele>
        <time>2015-11-11T11:28:24.981Z</time>
      </trkpt>
      <trkpt lat="45.95091" lon="4.96455">
        <ele>280.100006104</ele>
        <time>2015-11-11T11:28:25.977Z</time>
      </trkpt>
      <trkpt lat="45.95093" lon="4.96448">
        <ele>280.200012207</ele>
        <time>2015-11-11T11:28:26.983Z</time>
      </trkpt>
      <trkpt lat="45.95096" lon="4.96441">
        <ele>280.200012207</ele>
        <time>2015-11-11T11:28:27.966Z</time>
      </trkpt>
      <trkpt lat="45.95099" lon="4.96433">
        <ele>280.299987793</ele>
        <time>2015-11-11T11:28:28.981Z</time>
      </trkpt>
      <trkpt lat="45.95101" lon="4.96426">
        <ele>280.100006104</ele>
        <time>2015-11-11T11:28:29.966Z</time>
      </trkpt>
      <trkpt lat="45.95105" lon="4.96419">
        <ele>281.200012207</ele>
        <time>2015-11-11T11:28:30.98Z</time>
      </trkpt>
      <trkpt lat="45.95108" lon="4.96412">
        <ele>281.399993896</ele>
        <time>2015-11-11T11:28:31.966Z</time>
      </trkpt>
      <trkpt lat="45.95111" lon="4.96406">
        <ele>281.600006104</ele>
        <time>2015-11-11T11:28:32.983Z</time>
      </trkpt>
      <trkpt lat="45.95114" lon="4.96399">
        <ele>281.5</ele>
        <time>2015-11-11T11:28:33.966Z</time>
      </trkpt>
      <trkpt lat="45.95116" lon="4.96393">
        <ele>281.899993896</ele>
        <time>2015-11-11T11:28:34.995Z</time>
      </trkpt>
      <trkpt lat="45.95119" lon="4.96387">
        <ele>282.399993896</ele>
        <time>2015-11-11T11:28:35.966Z</time>
      </trkpt>
      <trkpt lat="45.95122" lon="4.9638">
        <ele>282.600006104</ele>
        <time>2015-11-11T11:28:36.98Z</time>
      </trkpt>
      <trkpt lat="45.95124" lon="4.96373">
        <ele>282.600006104</ele>
        <time>2015-11-11T11:28:37.966Z</time>
      </trkpt>
      <trkpt lat="45.95126" lon="4.96365">
        <ele>282.700012207</ele>
        <time>2015-11-11T11:28:38.983Z</time>
      </trkpt>
      <trkpt lat="45.95129" lon="4.96357">
        <ele>282.700012207</ele>
        <time>2015-11-11T11:28:39.969Z</time>
      </trkpt>
      <trkpt lat="45.95131" lon="4.9635">
        <ele>282.700012207</ele>
        <time>2015-11-11T11:28:40.981Z</time>
      </trkpt>
      <trkpt lat="45.95133" lon="4.96343">
        <ele>282.700012207</ele>
        <time>2015-11-11T11:28:41.966Z</time>
      </trkpt>
      <trkpt lat="45.95135" lon="4.96336">
        <ele>282.799987793</ele>
        <time>2015-11-11T11:28:42.987Z</time>
      </trkpt>
      <trkpt lat="45.95138" lon="4.96329">
        <ele>283</ele>
        <time>2015-11-11T11:28:43.966Z</time>
      </trkpt>
      <trkpt lat="45.9514" lon="4.96323">
        <ele>283</ele>
        <time>2015-11-11T11:28:44.983Z</time>
      </trkpt>
      <trkpt lat="45.95142" lon="4.96316">
        <ele>283</ele>
        <time>2015-11-11T11:28:45.966Z</time>
      </trkpt>
      <trkpt lat="45.95145" lon="4.96308">
        <ele>283.100006104</ele>
        <time>2015-11-11T11:28:46.981Z</time>
      </trkpt>
      <trkpt lat="45.95147" lon="4.96301">
        <ele>283.200012207</ele>
        <time>2015-11-11T11:28:47.965Z</time>
      </trkpt>
      <trkpt lat="45.95151" lon="4.96294">
        <ele>283.5</ele>
        <time>2015-11-11T11:28:49.008Z</time>
      </trkpt>
      <trkpt lat="45.95154" lon="4.96286">
        <ele>283.899993896</ele>
        <time>2015-11-11T11:28:49.966Z</time>
      </trkpt>
      <trkpt lat="45.95156" lon="4.96279">
        <ele>283.899993896</ele>
        <time>2015-11-11T11:28:50.997Z</time>
      </trkpt>
      <trkpt lat="45.95159" lon="4.96271">
        <ele>284</ele>
        <time>2015-11-11T11:28:51.966Z</time>
      </trkpt>
      <trkpt lat="45.95161" lon="4.96263">
        <ele>284.299987793</ele>
        <time>2015-11-11T11:28:53.01Z</time>
      </trkpt>
      <trkpt lat="45.95163" lon="4.96255">
        <ele>284.600006104</ele>
        <time>2015-11-11T11:28:53.966Z</time>
      </trkpt>
      <trkpt lat="45.95164" lon="4.96246">
        <ele>283.700012207</ele>
        <time>2015-11-11T11:28:54.98Z</time>
      </trkpt>
      <trkpt lat="45.95165" lon="4.96237">
        <ele>283.700012207</ele>
        <time>2015-11-11T11:28:55.966Z</time>
      </trkpt>
      <trkpt lat="45.95166" lon="4.96228">
        <ele>283.600006104</ele>
        <time>2015-11-11T11:28:56.983Z</time>
      </trkpt>
      <trkpt lat="45.95167" lon="4.9622">
        <ele>283.5</ele>
        <time>2015-11-11T11:28:57.966Z</time>
      </trkpt>
      <trkpt lat="45.95167" lon="4.96211">
        <ele>283.299987793</ele>
        <time>2015-11-11T11:28:58.991Z</time>
      </trkpt>
      <trkpt lat="45.95167" lon="4.96204">
        <ele>283</ele>
        <time>2015-11-11T11:28:59.966Z</time>
      </trkpt>
      <trkpt lat="45.95167" lon="4.96196">
        <ele>282.899993896</ele>
        <time>2015-11-11T11:29:00.981Z</time>
      </trkpt>
      <trkpt lat="45.95168" lon="4.96189">
        <ele>282.700012207</ele>
        <time>2015-11-11T11:29:01.965Z</time>
      </trkpt>
      <trkpt lat="45.95168" lon="4.96181">
        <ele>282.600006104</ele>
        <time>2015-11-11T11:29:02.983Z</time>
      </trkpt>
      <trkpt lat="45.95168" lon="4.96174">
        <ele>282.5</ele>
        <time>2015-11-11T11:29:03.966Z</time>
      </trkpt>
      <trkpt lat="45.95168" lon="4.96167">
        <ele>282.600006104</ele>
        <time>2015-11-11T11:29:05.1Z</time>
      </trkpt>
      <trkpt lat="45.95168" lon="4.96159">
        <ele>282.600006104</ele>
        <time>2015-11-11T11:29:05.966Z</time>
      </trkpt>
      <trkpt lat="45.95168" lon="4.96152">
        <ele>282.600006104</ele>
        <time>2015-11-11T11:29:06.994Z</time>
      </trkpt>
      <trkpt lat="45.95168" lon="4.96144">
        <ele>282.799987793</ele>
        <time>2015-11-11T11:29:07.966Z</time>
      </trkpt>
      <trkpt lat="45.95168" lon="4.96136">
        <ele>282.799987793</ele>
        <time>2015-11-11T11:29:08.983Z</time>
      </trkpt>
      <trkpt lat="45.95168" lon="4.96128">
        <ele>282.899993896</ele>
        <time>2015-11-11T11:29:09.966Z</time>
      </trkpt>
      <trkpt lat="45.95169" lon="4.96119">
        <ele>282.899993896</ele>
        <time>2015-11-11T11:29:10.981Z</time>
      </trkpt>
      <trkpt lat="45.95169" lon="4.96111">
        <ele>283.200012207</ele>
        <time>2015-11-11T11:29:11.966Z</time>
      </trkpt>
      <trkpt lat="45.95169" lon="4.96102">
        <ele>283.200012207</ele>
        <time>2015-11-11T11:29:12.98Z</time>
      </trkpt>
      <trkpt lat="45.95168" lon="4.96094">
        <ele>283.600006104</ele>
        <time>2015-11-11T11:29:13.966Z</time>
      </trkpt>
      <trkpt lat="45.95168" lon="4.96085">
        <ele>284</ele>
        <time>2015-11-11T11:29:14.985Z</time>
      </trkpt>
      <trkpt lat="45.95166" lon="4.96077">
        <ele>284.299987793</ele>
        <time>2015-11-11T11:29:15.967Z</time>
      </trkpt>
      <trkpt lat="45.95164" lon="4.96069">
        <ele>284.399993896</ele>
        <time>2015-11-11T11:29:16.983Z</time>
      </trkpt>
      <trkpt lat="45.95163" lon="4.9606">
        <ele>284.399993896</ele>
        <time>2015-11-11T11:29:17.967Z</time>
      </trkpt>
      <trkpt lat="45.95161" lon="4.96052">
        <ele>284.5</ele>
        <time>2015-11-11T11:29:18.982Z</time>
      </trkpt>
      <trkpt lat="45.95159" lon="4.96045">
        <ele>284.5</ele>
        <time>2015-11-11T11:29:19.965Z</time>
      </trkpt>
      <trkpt lat="45.95157" lon="4.96037">
        <ele>284.5</ele>
        <time>2015-11-11T11:29:20.983Z</time>
      </trkpt>
      <trkpt lat="45.95156" lon="4.96029">
        <ele>284.200012207</ele>
        <time>2015-11-11T11:29:21.966Z</time>
      </trkpt>
      <trkpt lat="45.95154" lon="4.96021">
        <ele>284</ele>
        <time>2015-11-11T11:29:22.995Z</time>
      </trkpt>
      <trkpt lat="45.95153" lon="4.96013">
        <ele>283.799987793</ele>
        <time>2015-11-11T11:29:23.966Z</time>
      </trkpt>
      <trkpt lat="45.95151" lon="4.96004">
        <ele>284</ele>
        <time>2015-11-11T11:29:24.98Z</time>
      </trkpt>
      <trkpt lat="45.95149" lon="4.95996">
        <ele>283.600006104</ele>
        <time>2015-11-11T11:29:25.965Z</time>
      </trkpt>
      <trkpt lat="45.95147" lon="4.95987">
        <ele>283.399993896</ele>
        <time>2015-11-11T11:29:26.983Z</time>
      </trkpt>
      <trkpt lat="45.95145" lon="4.95979">
        <ele>283.299987793</ele>
        <time>2015-11-11T11:29:27.966Z</time>
      </trkpt>
      <trkpt lat="45.95143" lon="4.95971">
        <ele>283</ele>
        <time>2015-11-11T11:29:28.981Z</time>
      </trkpt>
      <trkpt lat="45.95142" lon="4.95963">
        <ele>282.5</ele>
        <time>2015-11-11T11:29:29.966Z</time>
      </trkpt>
      <trkpt lat="45.9514" lon="4.95955">
        <ele>282.5</ele>
        <time>2015-11-11T11:29:30.983Z</time>
      </trkpt>
      <trkpt lat="45.95138" lon="4.95947">
        <ele>282.700012207</ele>
        <time>2015-11-11T11:29:31.965Z</time>
      </trkpt>
      <trkpt lat="45.95136" lon="4.95939">
        <ele>282.700012207</ele>
        <time>2015-11-11T11:29:32.983Z</time>
      </trkpt>
      <trkpt lat="45.95134" lon="4.95931">
        <ele>282.299987793</ele>
        <time>2015-11-11T11:29:34.081Z</time>
      </trkpt>
      <trkpt lat="45.95132" lon="4.95922">
        <ele>282</ele>
        <time>2015-11-11T11:29:34.981Z</time>
      </trkpt>
      <trkpt lat="45.95129" lon="4.95914">
        <ele>281.799987793</ele>
        <time>2015-11-11T11:29:35.966Z</time>
      </trkpt>
      <trkpt lat="45.95127" lon="4.95905">
        <ele>281.5</ele>
        <time>2015-11-11T11:29:36.98Z</time>
      </trkpt>
      <trkpt lat="45.95125" lon="4.95897">
        <ele>281.200012207</ele>
        <time>2015-11-11T11:29:37.966Z</time>
      </trkpt>
      <trkpt lat="45.95123" lon="4.95888">
        <ele>281.200012207</ele>
        <time>2015-11-11T11:29:38.983Z</time>
      </trkpt>
      <trkpt lat="45.95122" lon="4.9588">
        <ele>280.700012207</ele>
        <time>2015-11-11T11:29:39.968Z</time>
      </trkpt>
      <trkpt lat="45.95119" lon="4.95872">
        <ele>280.5</ele>
        <time>2015-11-11T11:29:40.981Z</time>
      </trkpt>
      <trkpt lat="45.95117" lon="4.95863">
        <ele>280.100006104</ele>
        <time>2015-11-11T11:29:41.965Z</time>
      </trkpt>
      <trkpt lat="45.95115" lon="4.95855">
        <ele>280.100006104</ele>
        <time>2015-11-11T11:29:42.98Z</time>
      </trkpt>
      <trkpt lat="45.95113" lon="4.95848">
        <ele>280</ele>
        <time>2015-11-11T11:29:43.966Z</time>
      </trkpt>
      <trkpt lat="45.95111" lon="4.9584">
        <ele>279.799987793</ele>
        <time>2015-11-11T11:29:44.983Z</time>
      </trkpt>
      <trkpt lat="45.9511" lon="4.95833">
        <ele>279.700012207</ele>
        <time>2015-11-11T11:29:45.965Z</time>
      </trkpt>
      <trkpt lat="45.95108" lon="4.95825">
        <ele>279.600006104</ele>
        <time>2015-11-11T11:29:46.981Z</time>
      </trkpt>
      <trkpt lat="45.95106" lon="4.95818">
        <ele>279.5</ele>
        <time>2015-11-11T11:29:48.002Z</time>
      </trkpt>
      <trkpt lat="45.95104" lon="4.9581">
        <ele>279.5</ele>
        <time>2015-11-11T11:29:49.096Z</time>
      </trkpt>
      <trkpt lat="45.95103" lon="4.95802">
        <ele>279.5</ele>
        <time>2015-11-11T11:29:49.966Z</time>
      </trkpt>
      <trkpt lat="45.95101" lon="4.95795">
        <ele>279.399993896</ele>
        <time>2015-11-11T11:29:50.983Z</time>
      </trkpt>
      <trkpt lat="45.95099" lon="4.95788">
        <ele>279.399993896</ele>
        <time>2015-11-11T11:29:51.966Z</time>
      </trkpt>
      <trkpt lat="45.95098" lon="4.9578">
        <ele>279.399993896</ele>
        <time>2015-11-11T11:29:52.981Z</time>
      </trkpt>
      <trkpt lat="45.95096" lon="4.95772">
        <ele>279.299987793</ele>
        <time>2015-11-11T11:29:53.966Z</time>
      </trkpt>
      <trkpt lat="45.95094" lon="4.95764">
        <ele>279.200012207</ele>
        <time>2015-11-11T11:29:54.98Z</time>
      </trkpt>
      <trkpt lat="45.95092" lon="4.95756">
        <ele>279.100006104</ele>
        <time>2015-11-11T11:29:55.966Z</time>
      </trkpt>
      <trkpt lat="45.9509" lon="4.95748">
        <ele>278.899993896</ele>
        <time>2015-11-11T11:29:56.985Z</time>
      </trkpt>
      <trkpt lat="45.95088" lon="4.95741">
        <ele>278.899993896</ele>
        <time>2015-11-11T11:29:57.987Z</time>
      </trkpt>
      <trkpt lat="45.95086" lon="4.95734">
        <ele>278.799987793</ele>
        <time>2015-11-11T11:29:58.981Z</time>
      </trkpt>
      <trkpt lat="45.95084" lon="4.95726">
        <ele>279</ele>
        <time>2015-11-11T11:29:59.966Z</time>
      </trkpt>
      <trkpt lat="45.95083" lon="4.95719">
        <ele>279.299987793</ele>
        <time>2015-11-11T11:30:00.993Z</time>
      </trkpt>
      <trkpt lat="45.95081" lon="4.95712">
        <ele>279.299987793</ele>
        <time>2015-11-11T11:30:01.966Z</time>
      </trkpt>
      <trkpt lat="45.95079" lon="4.95705">
        <ele>279.399993896</ele>
        <time>2015-11-11T11:30:02.983Z</time>
      </trkpt>
      <trkpt lat="45.95077" lon="4.95697">
        <ele>279.399993896</ele>
        <time>2015-11-11T11:30:03.965Z</time>
      </trkpt>
      <trkpt lat="45.95074" lon="4.9569">
        <ele>279.600006104</ele>
        <time>2015-11-11T11:30:04.981Z</time>
      </trkpt>
      <trkpt lat="45.95071" lon="4.95683">
        <ele>279.700012207</ele>
        <time>2015-11-11T11:30:05.965Z</time>
      </trkpt>
      <trkpt lat="45.95068" lon="4.95676">
        <ele>279.899993896</ele>
        <time>2015-11-11T11:30:06.98Z</time>
      </trkpt>
      <trkpt lat="45.95066" lon="4.95669">
        <ele>280.299987793</ele>
        <time>2015-11-11T11:30:07.965Z</time>
      </trkpt>
      <trkpt lat="45.95064" lon="4.95662">
        <ele>280.5</ele>
        <time>2015-11-11T11:30:08.983Z</time>
      </trkpt>
      <trkpt lat="45.95061" lon="4.95655">
        <ele>280.5</ele>
        <time>2015-11-11T11:30:09.965Z</time>
      </trkpt>
      <trkpt lat="45.95059" lon="4.95647">
        <ele>280.899993896</ele>
        <time>2015-11-11T11:30:10.992Z</time>
      </trkpt>
      <trkpt lat="45.95056" lon="4.95641">
        <ele>281</ele>
        <time>2015-11-11T11:30:11.965Z</time>
      </trkpt>
      <trkpt lat="45.95053" lon="4.95634">
        <ele>281.5</ele>
        <time>2015-11-11T11:30:12.98Z</time>
      </trkpt>
      <trkpt lat="45.9505" lon="4.95627">
        <ele>282</ele>
        <time>2015-11-11T11:30:13.965Z</time>
      </trkpt>
      <trkpt lat="45.95047" lon="4.95619">
        <ele>282.200012207</ele>
        <time>2015-11-11T11:30:14.983Z</time>
      </trkpt>
      <trkpt lat="45.95044" lon="4.95612">
        <ele>282.600006104</ele>
        <time>2015-11-11T11:30:15.965Z</time>
      </trkpt>
      <trkpt lat="45.95041" lon="4.95605">
        <ele>283.200012207</ele>
        <time>2015-11-11T11:30:16.995Z</time>
      </trkpt>
      <trkpt lat="45.95039" lon="4.95597">
        <ele>283.600006104</ele>
        <time>2015-11-11T11:30:17.965Z</time>
      </trkpt>
      <trkpt lat="45.95036" lon="4.95589">
        <ele>283.700012207</ele>
        <time>2015-11-11T11:30:18.98Z</time>
      </trkpt>
      <trkpt lat="45.95034" lon="4.95582">
        <ele>283.899993896</ele>
        <time>2015-11-11T11:30:19.966Z</time>
      </trkpt>
      <trkpt lat="45.95032" lon="4.95574">
        <ele>283.899993896</ele>
        <time>2015-11-11T11:30:20.982Z</time>
      </trkpt>
      <trkpt lat="45.9503" lon="4.95567">
        <ele>283.799987793</ele>
        <time>2015-11-11T11:30:21.965Z</time>
      </trkpt>
      <trkpt lat="45.95027" lon="4.95559">
        <ele>283.700012207</ele>
        <time>2015-11-11T11:30:22.983Z</time>
      </trkpt>
      <trkpt lat="45.95025" lon="4.95552">
        <ele>283.799987793</ele>
        <time>2015-11-11T11:30:23.966Z</time>
      </trkpt>
      <trkpt lat="45.95024" lon="4.95545">
        <ele>283.799987793</ele>
        <time>2015-11-11T11:30:24.98Z</time>
      </trkpt>
      <trkpt lat="45.95023" lon="4.95538">
        <ele>284</ele>
        <time>2015-11-11T11:30:25.965Z</time>
      </trkpt>
      <trkpt lat="45.95022" lon="4.95531">
        <ele>284.200012207</ele>
        <time>2015-11-11T11:30:26.983Z</time>
      </trkpt>
      <trkpt lat="45.95021" lon="4.95525">
        <ele>284.5</ele>
        <time>2015-11-11T11:30:27.966Z</time>
      </trkpt>
      <trkpt lat="45.95021" lon="4.95518">
        <ele>285.100006104</ele>
        <time>2015-11-11T11:30:28.981Z</time>
      </trkpt>
      <trkpt lat="45.9502" lon="4.95511">
        <ele>285</ele>
        <time>2015-11-11T11:30:29.965Z</time>
      </trkpt>
      <trkpt lat="45.95019" lon="4.95499">
        <ele>285.600006104</ele>
        <time>2015-11-11T11:30:31.98Z</time>
      </trkpt>
      <trkpt lat="45.95018" lon="4.95493">
        <ele>285.700012207</ele>
        <time>2015-11-11T11:30:32.982Z</time>
      </trkpt>
      <trkpt lat="45.95018" lon="4.95481">
        <ele>286.200012207</ele>
        <time>2015-11-11T11:30:35.02Z</time>
      </trkpt>
      <trkpt lat="45.95018" lon="4.95475">
        <ele>286.600006104</ele>
        <time>2015-11-11T11:30:35.965Z</time>
      </trkpt>
      <trkpt lat="45.95019" lon="4.95464">
        <ele>287.299987793</ele>
        <time>2015-11-11T11:30:37.98Z</time>
      </trkpt>
      <trkpt lat="45.95019" lon="4.95458">
        <ele>287.799987793</ele>
        <time>2015-11-11T11:30:38.968Z</time>
      </trkpt>
      <trkpt lat="45.9502" lon="4.95448">
        <ele>288.600006104</ele>
        <time>2015-11-11T11:30:40.981Z</time>
      </trkpt>
      <trkpt lat="45.9502" lon="4.95443">
        <ele>289.100006104</ele>
        <time>2015-11-11T11:30:41.965Z</time>
      </trkpt>
      <trkpt lat="45.9502" lon="4.95433">
        <ele>289.799987793</ele>
        <time>2015-11-11T11:30:43.994Z</time>
      </trkpt>
      <trkpt lat="45.9502" lon="4.95428">
        <ele>290.299987793</ele>
        <time>2015-11-11T11:30:44.968Z</time>
      </trkpt>
      <trkpt lat="45.95021" lon="4.95418">
        <ele>291.299987793</ele>
        <time>2015-11-11T11:30:46.981Z</time>
      </trkpt>
      <trkpt lat="45.95021" lon="4.95412">
        <ele>291.700012207</ele>
        <time>2015-11-11T11:30:47.965Z</time>
      </trkpt>
      <trkpt lat="45.95021" lon="4.954">
        <ele>292</ele>
        <time>2015-11-11T11:30:49.981Z</time>
      </trkpt>
      <trkpt lat="45.95021" lon="4.95393">
        <ele>292.200012207</ele>
        <time>2015-11-11T11:30:50.968Z</time>
      </trkpt>
      <trkpt lat="45.95021" lon="4.95381">
        <ele>293</ele>
        <time>2015-11-11T11:30:52.981Z</time>
      </trkpt>
      <trkpt lat="45.95022" lon="4.95375">
        <ele>293.399993896</ele>
        <time>2015-11-11T11:30:53.966Z</time>
      </trkpt>
      <trkpt lat="45.95022" lon="4.95362">
        <ele>294.100006104</ele>
        <time>2015-11-11T11:30:55.98Z</time>
      </trkpt>
      <trkpt lat="45.95022" lon="4.95355">
        <ele>294.100006104</ele>
        <time>2015-11-11T11:30:56.968Z</time>
      </trkpt>
      <trkpt lat="45.95021" lon="4.95348">
        <ele>294.399993896</ele>
        <time>2015-11-11T11:30:57.98Z</time>
      </trkpt>
      <trkpt lat="45.95021" lon="4.95341">
        <ele>294.5</ele>
        <time>2015-11-11T11:30:58.967Z</time>
      </trkpt>
      <trkpt lat="45.95021" lon="4.95334">
        <ele>294.899993896</ele>
        <time>2015-11-11T11:30:59.98Z</time>
      </trkpt>
      <trkpt lat="45.95021" lon="4.95327">
        <ele>295.299987793</ele>
        <time>2015-11-11T11:31:00.965Z</time>
      </trkpt>
      <trkpt lat="45.9502" lon="4.95315">
        <ele>296.200012207</ele>
        <time>2015-11-11T11:31:02.982Z</time>
      </trkpt>
      <trkpt lat="45.95019" lon="4.95308">
        <ele>296.399993896</ele>
        <time>2015-11-11T11:31:03.965Z</time>
      </trkpt>
      <trkpt lat="45.95019" lon="4.953">
        <ele>295.899993896</ele>
        <time>2015-11-11T11:31:04.981Z</time>
      </trkpt>
      <trkpt lat="45.95019" lon="4.95293">
        <ele>295.899993896</ele>
        <time>2015-11-11T11:31:05.965Z</time>
      </trkpt>
      <trkpt lat="45.95018" lon="4.95285">
        <ele>295.299987793</ele>
        <time>2015-11-11T11:31:06.98Z</time>
      </trkpt>
      <trkpt lat="45.95017" lon="4.95278">
        <ele>295.5</ele>
        <time>2015-11-11T11:31:07.965Z</time>
      </trkpt>
      <trkpt lat="45.95017" lon="4.95271">
        <ele>295</ele>
        <time>2015-11-11T11:31:08.982Z</time>
      </trkpt>
      <trkpt lat="45.95016" lon="4.95264">
        <ele>295.100006104</ele>
        <time>2015-11-11T11:31:09.965Z</time>
      </trkpt>
      <trkpt lat="45.95015" lon="4.95256">
        <ele>295.200012207</ele>
        <time>2015-11-11T11:31:10.995Z</time>
      </trkpt>
      <trkpt lat="45.95014" lon="4.95249">
        <ele>295.600006104</ele>
        <time>2015-11-11T11:31:11.965Z</time>
      </trkpt>
      <trkpt lat="45.95012" lon="4.95242">
        <ele>295.799987793</ele>
        <time>2015-11-11T11:31:12.98Z</time>
      </trkpt>
      <trkpt lat="45.95011" lon="4.95234">
        <ele>295.700012207</ele>
        <time>2015-11-11T11:31:13.965Z</time>
      </trkpt>
      <trkpt lat="45.9501" lon="4.95226">
        <ele>295.5</ele>
        <time>2015-11-11T11:31:14.991Z</time>
      </trkpt>
      <trkpt lat="45.95009" lon="4.95217">
        <ele>294.799987793</ele>
        <time>2015-11-11T11:31:15.965Z</time>
      </trkpt>
      <trkpt lat="45.95007" lon="4.95209">
        <ele>294.200012207</ele>
        <time>2015-11-11T11:31:16.981Z</time>
      </trkpt>
      <trkpt lat="45.95006" lon="4.95202">
        <ele>294.299987793</ele>
        <time>2015-11-11T11:31:17.965Z</time>
      </trkpt>
      <trkpt lat="45.95006" lon="4.95195">
        <ele>294.200012207</ele>
        <time>2015-11-11T11:31:18.98Z</time>
      </trkpt>
      <trkpt lat="45.95006" lon="4.95188">
        <ele>293.700012207</ele>
        <time>2015-11-11T11:31:19.965Z</time>
      </trkpt>
      <trkpt lat="45.95006" lon="4.95182">
        <ele>293.399993896</ele>
        <time>2015-11-11T11:31:20.983Z</time>
      </trkpt>
      <trkpt lat="45.95006" lon="4.95174">
        <ele>293</ele>
        <time>2015-11-11T11:31:21.966Z</time>
      </trkpt>
      <trkpt lat="45.95006" lon="4.95167">
        <ele>292.799987793</ele>
        <time>2015-11-11T11:31:22.98Z</time>
      </trkpt>
      <trkpt lat="45.95006" lon="4.9516">
        <ele>292.100006104</ele>
        <time>2015-11-11T11:31:23.965Z</time>
      </trkpt>
      <trkpt lat="45.95007" lon="4.95153">
        <ele>291.5</ele>
        <time>2015-11-11T11:31:24.979Z</time>
      </trkpt>
      <trkpt lat="45.95007" lon="4.95147">
        <ele>291.399993896</ele>
        <time>2015-11-11T11:31:25.965Z</time>
      </trkpt>
      <trkpt lat="45.95008" lon="4.9514">
        <ele>291.600006104</ele>
        <time>2015-11-11T11:31:26.997Z</time>
      </trkpt>
      <trkpt lat="45.95008" lon="4.95133">
        <ele>291.5</ele>
        <time>2015-11-11T11:31:27.965Z</time>
      </trkpt>
      <trkpt lat="45.95008" lon="4.95126">
        <ele>291.399993896</ele>
        <time>2015-11-11T11:31:28.981Z</time>
      </trkpt>
      <trkpt lat="45.95008" lon="4.95119">
        <ele>291.200012207</ele>
        <time>2015-11-11T11:31:30.003Z</time>
      </trkpt>
      <trkpt lat="45.95008" lon="4.95111">
        <ele>291.100006104</ele>
        <time>2015-11-11T11:31:30.98Z</time>
      </trkpt>
      <trkpt lat="45.95008" lon="4.95104">
        <ele>290.799987793</ele>
        <time>2015-11-11T11:31:31.965Z</time>
      </trkpt>
      <trkpt lat="45.95008" lon="4.95097">
        <ele>290.799987793</ele>
        <time>2015-11-11T11:31:32.982Z</time>
      </trkpt>
      <trkpt lat="45.95008" lon="4.95089">
        <ele>290.5</ele>
        <time>2015-11-11T11:31:33.965Z</time>
      </trkpt>
      <trkpt lat="45.95009" lon="4.95083">
        <ele>290</ele>
        <time>2015-11-11T11:31:34.98Z</time>
      </trkpt>
      <trkpt lat="45.95008" lon="4.95076">
        <ele>290</ele>
        <time>2015-11-11T11:31:35.965Z</time>
      </trkpt>
      <trkpt lat="45.95008" lon="4.95069">
        <ele>289</ele>
        <time>2015-11-11T11:31:36.98Z</time>
      </trkpt>
      <trkpt lat="45.95008" lon="4.95063">
        <ele>289.100006104</ele>
        <time>2015-11-11T11:31:37.965Z</time>
      </trkpt>
      <trkpt lat="45.95008" lon="4.95056">
        <ele>289</ele>
        <time>2015-11-11T11:31:38.982Z</time>
      </trkpt>
      <trkpt lat="45.95007" lon="4.9505">
        <ele>288.899993896</ele>
        <time>2015-11-11T11:31:39.968Z</time>
      </trkpt>
      <trkpt lat="45.95007" lon="4.95043">
        <ele>289</ele>
        <time>2015-11-11T11:31:40.983Z</time>
      </trkpt>
      <trkpt lat="45.95006" lon="4.95037">
        <ele>289.100006104</ele>
        <time>2015-11-11T11:31:41.965Z</time>
      </trkpt>
      <trkpt lat="45.95004" lon="4.95031">
        <ele>289</ele>
        <time>2015-11-11T11:31:42.993Z</time>
      </trkpt>
      <trkpt lat="45.95003" lon="4.95024">
        <ele>288.799987793</ele>
        <time>2015-11-11T11:31:43.965Z</time>
      </trkpt>
      <trkpt lat="45.95001" lon="4.95015">
        <ele>288.600006104</ele>
        <time>2015-11-11T11:31:44.986Z</time>
      </trkpt>
      <trkpt lat="45.94999" lon="4.95008">
        <ele>288.299987793</ele>
        <time>2015-11-11T11:31:45.965Z</time>
      </trkpt>
      <trkpt lat="45.94997" lon="4.95">
        <ele>287.899993896</ele>
        <time>2015-11-11T11:31:46.98Z</time>
      </trkpt>
      <trkpt lat="45.94997" lon="4.94993">
        <ele>287.5</ele>
        <time>2015-11-11T11:31:47.965Z</time>
      </trkpt>
      <trkpt lat="45.94997" lon="4.94986">
        <ele>287.100006104</ele>
        <time>2015-11-11T11:31:48.98Z</time>
      </trkpt>
      <trkpt lat="45.94998" lon="4.94979">
        <ele>286.700012207</ele>
        <time>2015-11-11T11:31:49.965Z</time>
      </trkpt>
      <trkpt lat="45.95" lon="4.94971">
        <ele>286.399993896</ele>
        <time>2015-11-11T11:31:50.983Z</time>
      </trkpt>
      <trkpt lat="45.95003" lon="4.94965">
        <ele>286.100006104</ele>
        <time>2015-11-11T11:31:51.965Z</time>
      </trkpt>
      <trkpt lat="45.95006" lon="4.94959">
        <ele>285.700012207</ele>
        <time>2015-11-11T11:31:52.981Z</time>
      </trkpt>
      <trkpt lat="45.9501" lon="4.94954">
        <ele>285.600006104</ele>
        <time>2015-11-11T11:31:53.966Z</time>
      </trkpt>
      <trkpt lat="45.95014" lon="4.94949">
        <ele>285.600006104</ele>
        <time>2015-11-11T11:31:54.98Z</time>
      </trkpt>
      <trkpt lat="45.95018" lon="4.94943">
        <ele>285.200012207</ele>
        <time>2015-11-11T11:31:55.965Z</time>
      </trkpt>
      <trkpt lat="45.95022" lon="4.94938">
        <ele>284.799987793</ele>
        <time>2015-11-11T11:31:56.982Z</time>
      </trkpt>
      <trkpt lat="45.95027" lon="4.94933">
        <ele>284.899993896</ele>
        <time>2015-11-11T11:31:57.965Z</time>
      </trkpt>
      <trkpt lat="45.9503" lon="4.94927">
        <ele>284.700012207</ele>
        <time>2015-11-11T11:31:58.993Z</time>
      </trkpt>
      <trkpt lat="45.95035" lon="4.94922">
        <ele>285.200012207</ele>
        <time>2015-11-11T11:31:59.965Z</time>
      </trkpt>
      <trkpt lat="45.95039" lon="4.94917">
        <ele>285.5</ele>
        <time>2015-11-11T11:32:00.98Z</time>
      </trkpt>
      <trkpt lat="45.95042" lon="4.94913">
        <ele>285.299987793</ele>
        <time>2015-11-11T11:32:01.965Z</time>
      </trkpt>
      <trkpt lat="45.95046" lon="4.94908">
        <ele>285.299987793</ele>
        <time>2015-11-11T11:32:02.982Z</time>
      </trkpt>
      <trkpt lat="45.9505" lon="4.94904">
        <ele>285.100006104</ele>
        <time>2015-11-11T11:32:03.965Z</time>
      </trkpt>
      <trkpt lat="45.95053" lon="4.949">
        <ele>285</ele>
        <time>2015-11-11T11:32:04.98Z</time>
      </trkpt>
      <trkpt lat="45.95057" lon="4.94895">
        <ele>284.799987793</ele>
        <time>2015-11-11T11:32:05.965Z</time>
      </trkpt>
      <trkpt lat="45.95061" lon="4.94891">
        <ele>284.799987793</ele>
        <time>2015-11-11T11:32:06.982Z</time>
      </trkpt>
      <trkpt lat="45.95065" lon="4.94886">
        <ele>284.600006104</ele>
        <time>2015-11-11T11:32:07.965Z</time>
      </trkpt>
      <trkpt lat="45.95069" lon="4.94882">
        <ele>284.700012207</ele>
        <time>2015-11-11T11:32:08.983Z</time>
      </trkpt>
      <trkpt lat="45.95073" lon="4.94877">
        <ele>284.799987793</ele>
        <time>2015-11-11T11:32:09.965Z</time>
      </trkpt>
      <trkpt lat="45.95077" lon="4.94873">
        <ele>284.799987793</ele>
        <time>2015-11-11T11:32:10.981Z</time>
      </trkpt>
      <trkpt lat="45.95082" lon="4.94868">
        <ele>285</ele>
        <time>2015-11-11T11:32:11.999Z</time>
      </trkpt>
      <trkpt lat="45.95086" lon="4.94863">
        <ele>285</ele>
        <time>2015-11-11T11:32:12.98Z</time>
      </trkpt>
      <trkpt lat="45.9509" lon="4.94858">
        <ele>285.200012207</ele>
        <time>2015-11-11T11:32:13.965Z</time>
      </trkpt>
      <trkpt lat="45.95095" lon="4.94852">
        <ele>285.299987793</ele>
        <time>2015-11-11T11:32:14.996Z</time>
      </trkpt>
      <trkpt lat="45.951" lon="4.94847">
        <ele>285.299987793</ele>
        <time>2015-11-11T11:32:15.965Z</time>
      </trkpt>
      <trkpt lat="45.95105" lon="4.94842">
        <ele>285.299987793</ele>
        <time>2015-11-11T11:32:16.982Z</time>
      </trkpt>
      <trkpt lat="45.95111" lon="4.94837">
        <ele>285</ele>
        <time>2015-11-11T11:32:17.965Z</time>
      </trkpt>
      <trkpt lat="45.95116" lon="4.94832">
        <ele>284.700012207</ele>
        <time>2015-11-11T11:32:18.98Z</time>
      </trkpt>
      <trkpt lat="45.9512" lon="4.94828">
        <ele>284.5</ele>
        <time>2015-11-11T11:32:19.965Z</time>
      </trkpt>
      <trkpt lat="45.95125" lon="4.94823">
        <ele>284.299987793</ele>
        <time>2015-11-11T11:32:20.982Z</time>
      </trkpt>
      <trkpt lat="45.9513" lon="4.94819">
        <ele>283.899993896</ele>
        <time>2015-11-11T11:32:21.965Z</time>
      </trkpt>
      <trkpt lat="45.95135" lon="4.94816">
        <ele>283.700012207</ele>
        <time>2015-11-11T11:32:22.981Z</time>
      </trkpt>
      <trkpt lat="45.9514" lon="4.94813">
        <ele>283.600006104</ele>
        <time>2015-11-11T11:32:23.965Z</time>
      </trkpt>
      <trkpt lat="45.95145" lon="4.94811">
        <ele>283.399993896</ele>
        <time>2015-11-11T11:32:24.979Z</time>
      </trkpt>
      <trkpt lat="45.9515" lon="4.94808">
        <ele>283.200012207</ele>
        <time>2015-11-11T11:32:25.965Z</time>
      </trkpt>
      <trkpt lat="45.95155" lon="4.94805">
        <ele>283.399993896</ele>
        <time>2015-11-11T11:32:26.982Z</time>
      </trkpt>
      <trkpt lat="45.9516" lon="4.94802">
        <ele>283.299987793</ele>
        <time>2015-11-11T11:32:27.965Z</time>
      </trkpt>
      <trkpt lat="45.95165" lon="4.948">
        <ele>283.299987793</ele>
        <time>2015-11-11T11:32:28.989Z</time>
      </trkpt>
      <trkpt lat="45.9517" lon="4.94798">
        <ele>283.399993896</ele>
        <time>2015-11-11T11:32:29.965Z</time>
      </trkpt>
      <trkpt lat="45.95175" lon="4.94795">
        <ele>283.399993896</ele>
        <time>2015-11-11T11:32:30.994Z</time>
      </trkpt>
      <trkpt lat="45.95181" lon="4.94793">
        <ele>283.200012207</ele>
        <time>2015-11-11T11:32:31.965Z</time>
      </trkpt>
      <trkpt lat="45.95186" lon="4.94791">
        <ele>283.299987793</ele>
        <time>2015-11-11T11:32:32.985Z</time>
      </trkpt>
      <trkpt lat="45.95191" lon="4.94789">
        <ele>283.299987793</ele>
        <time>2015-11-11T11:32:33.965Z</time>
      </trkpt>
      <trkpt lat="45.95197" lon="4.94786">
        <ele>283.5</ele>
        <time>2015-11-11T11:32:34.981Z</time>
      </trkpt>
      <trkpt lat="45.95201" lon="4.94782">
        <ele>283.200012207</ele>
        <time>2015-11-11T11:32:36.015Z</time>
      </trkpt>
      <trkpt lat="45.95205" lon="4.94778">
        <ele>283.5</ele>
        <time>2015-11-11T11:32:36.98Z</time>
      </trkpt>
      <trkpt lat="45.95207" lon="4.94771">
        <ele>283.399993896</ele>
        <time>2015-11-11T11:32:37.965Z</time>
      </trkpt>
      <trkpt lat="45.95207" lon="4.94764">
        <ele>283.5</ele>
        <time>2015-11-11T11:32:38.982Z</time>
      </trkpt>
      <trkpt lat="45.95205" lon="4.94758">
        <ele>283.799987793</ele>
        <time>2015-11-11T11:32:39.967Z</time>
      </trkpt>
      <trkpt lat="45.95201" lon="4.94754">
        <ele>284.100006104</ele>
        <time>2015-11-11T11:32:40.98Z</time>
      </trkpt>
      <trkpt lat="45.95197" lon="4.9475">
        <ele>284.399993896</ele>
        <time>2015-11-11T11:32:41.965Z</time>
      </trkpt>
      <trkpt lat="45.95193" lon="4.94745">
        <ele>284.700012207</ele>
        <time>2015-11-11T11:32:42.98Z</time>
      </trkpt>
      <trkpt lat="45.95189" lon="4.94741">
        <ele>284.700012207</ele>
        <time>2015-11-11T11:32:43.965Z</time>
      </trkpt>
      <trkpt lat="45.95185" lon="4.94736">
        <ele>284.700012207</ele>
        <time>2015-11-11T11:32:44.982Z</time>
      </trkpt>
      <trkpt lat="45.95182" lon="4.94731">
        <ele>284.799987793</ele>
        <time>2015-11-11T11:32:45.965Z</time>
      </trkpt>
      <trkpt lat="45.95178" lon="4.94727">
        <ele>285</ele>
        <time>2015-11-11T11:32:46.995Z</time>
      </trkpt>
      <trkpt lat="45.95174" lon="4.94722">
        <ele>285.100006104</ele>
        <time>2015-11-11T11:32:47.965Z</time>
      </trkpt>
      <trkpt lat="45.9517" lon="4.94717">
        <ele>285.200012207</ele>
        <time>2015-11-11T11:32:48.979Z</time>
      </trkpt>
      <trkpt lat="45.95165" lon="4.94712">
        <ele>285.299987793</ele>
        <time>2015-11-11T11:32:49.965Z</time>
      </trkpt>
      <trkpt lat="45.95161" lon="4.94707">
        <ele>285.100006104</ele>
        <time>2015-11-11T11:32:50.982Z</time>
      </trkpt>
      <trkpt lat="45.95157" lon="4.94701">
        <ele>285</ele>
        <time>2015-11-11T11:32:51.965Z</time>
      </trkpt>
      <trkpt lat="45.95153" lon="4.94695">
        <ele>284.700012207</ele>
        <time>2015-11-11T11:32:52.981Z</time>
      </trkpt>
      <trkpt lat="45.95151" lon="4.94688">
        <ele>284.100006104</ele>
        <time>2015-11-11T11:32:53.965Z</time>
      </trkpt>
      <trkpt lat="45.95151" lon="4.9468">
        <ele>283.700012207</ele>
        <time>2015-11-11T11:32:54.98Z</time>
      </trkpt>
      <trkpt lat="45.95153" lon="4.94673">
        <ele>283.5</ele>
        <time>2015-11-11T11:32:55.965Z</time>
      </trkpt>
      <trkpt lat="45.95156" lon="4.94666">
        <ele>283.299987793</ele>
        <time>2015-11-11T11:32:56.982Z</time>
      </trkpt>
      <trkpt lat="45.95159" lon="4.94659">
        <ele>283.200012207</ele>
        <time>2015-11-11T11:32:57.965Z</time>
      </trkpt>
      <trkpt lat="45.95163" lon="4.94653">
        <ele>283.299987793</ele>
        <time>2015-11-11T11:32:58.983Z</time>
      </trkpt>
      <trkpt lat="45.95167" lon="4.94648">
        <ele>284.200012207</ele>
        <time>2015-11-11T11:32:59.965Z</time>
      </trkpt>
      <trkpt lat="45.9517" lon="4.94642">
        <ele>283.899993896</ele>
        <time>2015-11-11T11:33:00.98Z</time>
      </trkpt>
      <trkpt lat="45.95174" lon="4.94636">
        <ele>284.100006104</ele>
        <time>2015-11-11T11:33:01.965Z</time>
      </trkpt>
      <trkpt lat="45.95177" lon="4.9463">
        <ele>284.100006104</ele>
        <time>2015-11-11T11:33:02.998Z</time>
      </trkpt>
      <trkpt lat="45.95179" lon="4.94624">
        <ele>284.200012207</ele>
        <time>2015-11-11T11:33:03.965Z</time>
      </trkpt>
      <trkpt lat="45.95182" lon="4.94617">
        <ele>284.299987793</ele>
        <time>2015-11-11T11:33:04.981Z</time>
      </trkpt>
      <trkpt lat="45.95183" lon="4.9461">
        <ele>284.399993896</ele>
        <time>2015-11-11T11:33:05.965Z</time>
      </trkpt>
      <trkpt lat="45.95184" lon="4.94603">
        <ele>284.600006104</ele>
        <time>2015-11-11T11:33:06.98Z</time>
      </trkpt>
      <trkpt lat="45.95185" lon="4.94595">
        <ele>284.700012207</ele>
        <time>2015-11-11T11:33:07.965Z</time>
      </trkpt>
      <trkpt lat="45.95185" lon="4.94588">
        <ele>284.799987793</ele>
        <time>2015-11-11T11:33:08.983Z</time>
      </trkpt>
      <trkpt lat="45.95186" lon="4.9458">
        <ele>284.799987793</ele>
        <time>2015-11-11T11:33:09.965Z</time>
      </trkpt>
      <trkpt lat="45.95186" lon="4.94572">
        <ele>284.899993896</ele>
        <time>2015-11-11T11:33:10.981Z</time>
      </trkpt>
      <trkpt lat="45.95186" lon="4.94565">
        <ele>284.899993896</ele>
        <time>2015-11-11T11:33:11.965Z</time>
      </trkpt>
      <trkpt lat="45.95187" lon="4.94553">
        <ele>284.899993896</ele>
        <time>2015-11-11T11:33:13.98Z</time>
      </trkpt>
      <trkpt lat="45.95188" lon="4.94546">
        <ele>285</ele>
        <time>2015-11-11T11:33:14.968Z</time>
      </trkpt>
      <trkpt lat="45.95189" lon="4.94534">
        <ele>285.399993896</ele>
        <time>2015-11-11T11:33:16.981Z</time>
      </trkpt>
      <trkpt lat="45.9519" lon="4.94527">
        <ele>285.600006104</ele>
        <time>2015-11-11T11:33:17.965Z</time>
      </trkpt>
      <trkpt lat="45.95191" lon="4.94521">
        <ele>285.799987793</ele>
        <time>2015-11-11T11:33:18.994Z</time>
      </trkpt>
      <trkpt lat="45.95191" lon="4.94514">
        <ele>285.899993896</ele>
        <time>2015-11-11T11:33:19.965Z</time>
      </trkpt>
      <trkpt lat="45.95192" lon="4.94507">
        <ele>286.299987793</ele>
        <time>2015-11-11T11:33:20.982Z</time>
      </trkpt>
      <trkpt lat="45.95193" lon="4.945">
        <ele>286.399993896</ele>
        <time>2015-11-11T11:33:21.965Z</time>
      </trkpt>
      <trkpt lat="45.95194" lon="4.94494">
        <ele>286.700012207</ele>
        <time>2015-11-11T11:33:22.98Z</time>
      </trkpt>
      <trkpt lat="45.95194" lon="4.94487">
        <ele>286.600006104</ele>
        <time>2015-11-11T11:33:23.965Z</time>
      </trkpt>
      <trkpt lat="45.95194" lon="4.94479">
        <ele>286.399993896</ele>
        <time>2015-11-11T11:33:24.982Z</time>
      </trkpt>
      <trkpt lat="45.95194" lon="4.94472">
        <ele>286.399993896</ele>
        <time>2015-11-11T11:33:25.965Z</time>
      </trkpt>
      <trkpt lat="45.95194" lon="4.94464">
        <ele>286.299987793</ele>
        <time>2015-11-11T11:33:26.982Z</time>
      </trkpt>
      <trkpt lat="45.95195" lon="4.94457">
        <ele>286.399993896</ele>
        <time>2015-11-11T11:33:27.965Z</time>
      </trkpt>
      <trkpt lat="45.95196" lon="4.94449">
        <ele>286.700012207</ele>
        <time>2015-11-11T11:33:28.98Z</time>
      </trkpt>
      <trkpt lat="45.95197" lon="4.94442">
        <ele>286.799987793</ele>
        <time>2015-11-11T11:33:29.965Z</time>
      </trkpt>
      <trkpt lat="45.95199" lon="4.94435">
        <ele>286.700012207</ele>
        <time>2015-11-11T11:33:31.018Z</time>
      </trkpt>
      <trkpt lat="45.952" lon="4.94428">
        <ele>286.5</ele>
        <time>2015-11-11T11:33:31.965Z</time>
      </trkpt>
      <trkpt lat="45.95202" lon="4.94422">
        <ele>286.700012207</ele>
        <time>2015-11-11T11:33:33.018Z</time>
      </trkpt>
      <trkpt lat="45.95205" lon="4.94416">
        <ele>286.600006104</ele>
        <time>2015-11-11T11:33:33.965Z</time>
      </trkpt>
      <trkpt lat="45.95207" lon="4.94409">
        <ele>286.600006104</ele>
        <time>2015-11-11T11:33:34.995Z</time>
      </trkpt>
      <trkpt lat="45.95209" lon="4.94403">
        <ele>286.5</ele>
        <time>2015-11-11T11:33:35.965Z</time>
      </trkpt>
      <trkpt lat="45.95212" lon="4.94397">
        <ele>286.600006104</ele>
        <time>2015-11-11T11:33:36.979Z</time>
      </trkpt>
      <trkpt lat="45.95214" lon="4.9439">
        <ele>286.5</ele>
        <time>2015-11-11T11:33:37.965Z</time>
      </trkpt>
      <trkpt lat="45.95217" lon="4.94384">
        <ele>286.399993896</ele>
        <time>2015-11-11T11:33:38.982Z</time>
      </trkpt>
      <trkpt lat="45.9522" lon="4.94377">
        <ele>286.700012207</ele>
        <time>2015-11-11T11:33:39.967Z</time>
      </trkpt>
      <trkpt lat="45.95222" lon="4.94371">
        <ele>286.5</ele>
        <time>2015-11-11T11:33:40.982Z</time>
      </trkpt>
      <trkpt lat="45.95225" lon="4.94364">
        <ele>286.799987793</ele>
        <time>2015-11-11T11:33:41.965Z</time>
      </trkpt>
      <trkpt lat="45.95227" lon="4.94358">
        <ele>287.100006104</ele>
        <time>2015-11-11T11:33:42.979Z</time>
      </trkpt>
      <trkpt lat="45.9523" lon="4.94351">
        <ele>286.700012207</ele>
        <time>2015-11-11T11:33:43.965Z</time>
      </trkpt>
      <trkpt lat="45.95231" lon="4.94343">
        <ele>286.700012207</ele>
        <time>2015-11-11T11:33:44.982Z</time>
      </trkpt>
      <trkpt lat="45.95233" lon="4.94336">
        <ele>286.5</ele>
        <time>2015-11-11T11:33:45.965Z</time>
      </trkpt>
      <trkpt lat="45.95234" lon="4.94328">
        <ele>286.399993896</ele>
        <time>2015-11-11T11:33:46.98Z</time>
      </trkpt>
      <trkpt lat="45.95235" lon="4.9432">
        <ele>286.399993896</ele>
        <time>2015-11-11T11:33:47.965Z</time>
      </trkpt>
      <trkpt lat="45.95236" lon="4.94312">
        <ele>286.5</ele>
        <time>2015-11-11T11:33:48.979Z</time>
      </trkpt>
      <trkpt lat="45.95237" lon="4.94305">
        <ele>286.700012207</ele>
        <time>2015-11-11T11:33:49.965Z</time>
      </trkpt>
      <trkpt lat="45.95237" lon="4.94297">
        <ele>286.700012207</ele>
        <time>2015-11-11T11:33:50.995Z</time>
      </trkpt>
      <trkpt lat="45.95238" lon="4.9429">
        <ele>286.799987793</ele>
        <time>2015-11-11T11:33:51.965Z</time>
      </trkpt>
      <trkpt lat="45.95238" lon="4.94283">
        <ele>286.299987793</ele>
        <time>2015-11-11T11:33:52.98Z</time>
      </trkpt>
      <trkpt lat="45.95239" lon="4.94275">
        <ele>286.200012207</ele>
        <time>2015-11-11T11:33:53.965Z</time>
      </trkpt>
      <trkpt lat="45.95239" lon="4.94267">
        <ele>286.100006104</ele>
        <time>2015-11-11T11:33:54.979Z</time>
      </trkpt>
      <trkpt lat="45.95239" lon="4.9426">
        <ele>286.100006104</ele>
        <time>2015-11-11T11:33:55.965Z</time>
      </trkpt>
      <trkpt lat="45.95239" lon="4.94252">
        <ele>286</ele>
        <time>2015-11-11T11:33:56.982Z</time>
      </trkpt>
      <trkpt lat="45.9524" lon="4.94244">
        <ele>286</ele>
        <time>2015-11-11T11:33:57.965Z</time>
      </trkpt>
      <trkpt lat="45.9524" lon="4.94236">
        <ele>285.899993896</ele>
        <time>2015-11-11T11:33:58.98Z</time>
      </trkpt>
      <trkpt lat="45.95241" lon="4.94229">
        <ele>285.899993896</ele>
        <time>2015-11-11T11:33:59.965Z</time>
      </trkpt>
      <trkpt lat="45.95242" lon="4.94221">
        <ele>285.899993896</ele>
        <time>2015-11-11T11:34:00.979Z</time>
      </trkpt>
      <trkpt lat="45.95243" lon="4.94213">
        <ele>285.899993896</ele>
        <time>2015-11-11T11:34:01.965Z</time>
      </trkpt>
      <trkpt lat="45.95245" lon="4.94205">
        <ele>285.600006104</ele>
        <time>2015-11-11T11:34:02.982Z</time>
      </trkpt>
      <trkpt lat="45.95246" lon="4.94198">
        <ele>285.600006104</ele>
        <time>2015-11-11T11:34:03.965Z</time>
      </trkpt>
      <trkpt lat="45.95248" lon="4.9419">
        <ele>285.5</ele>
        <time>2015-11-11T11:34:04.98Z</time>
      </trkpt>
      <trkpt lat="45.9525" lon="4.94183">
        <ele>285.399993896</ele>
        <time>2015-11-11T11:34:05.965Z</time>
      </trkpt>
      <trkpt lat="45.95252" lon="4.94176">
        <ele>285.200012207</ele>
        <time>2015-11-11T11:34:06.993Z</time>
      </trkpt>
      <trkpt lat="45.95254" lon="4.9417">
        <ele>285.200012207</ele>
        <time>2015-11-11T11:34:07.965Z</time>
      </trkpt>
      <trkpt lat="45.95257" lon="4.94163">
        <ele>285.200012207</ele>
        <time>2015-11-11T11:34:08.982Z</time>
      </trkpt>
      <trkpt lat="45.9526" lon="4.94157">
        <ele>285</ele>
        <time>2015-11-11T11:34:09.965Z</time>
      </trkpt>
      <trkpt lat="45.95262" lon="4.94151">
        <ele>285</ele>
        <time>2015-11-11T11:34:10.98Z</time>
      </trkpt>
      <trkpt lat="45.95264" lon="4.94145">
        <ele>284.899993896</ele>
        <time>2015-11-11T11:34:11.965Z</time>
      </trkpt>
      <trkpt lat="45.95267" lon="4.94138">
        <ele>284.899993896</ele>
        <time>2015-11-11T11:34:13.008Z</time>
      </trkpt>
      <trkpt lat="45.95269" lon="4.94132">
        <ele>284.700012207</ele>
        <time>2015-11-11T11:34:13.965Z</time>
      </trkpt>
      <trkpt lat="45.95271" lon="4.94125">
        <ele>284.600006104</ele>
        <time>2015-11-11T11:34:14.982Z</time>
      </trkpt>
      <trkpt lat="45.95274" lon="4.94119">
        <ele>284.5</ele>
        <time>2015-11-11T11:34:15.965Z</time>
      </trkpt>
      <trkpt lat="45.95276" lon="4.94112">
        <ele>284.399993896</ele>
        <time>2015-11-11T11:34:16.98Z</time>
      </trkpt>
      <trkpt lat="45.95278" lon="4.94106">
        <ele>284.299987793</ele>
        <time>2015-11-11T11:34:17.965Z</time>
      </trkpt>
      <trkpt lat="45.95281" lon="4.94099">
        <ele>284.200012207</ele>
        <time>2015-11-11T11:34:18.979Z</time>
      </trkpt>
      <trkpt lat="45.95283" lon="4.94092">
        <ele>284.100006104</ele>
        <time>2015-11-11T11:34:19.966Z</time>
      </trkpt>
      <trkpt lat="45.95285" lon="4.94085">
        <ele>284</ele>
        <time>2015-11-11T11:34:20.984Z</time>
      </trkpt>
      <trkpt lat="45.95288" lon="4.94079">
        <ele>283.899993896</ele>
        <time>2015-11-11T11:34:21.966Z</time>
      </trkpt>
      <trkpt lat="45.9529" lon="4.94072">
        <ele>283.799987793</ele>
        <time>2015-11-11T11:34:22.995Z</time>
      </trkpt>
      <trkpt lat="45.95292" lon="4.94065">
        <ele>283.700012207</ele>
        <time>2015-11-11T11:34:23.966Z</time>
      </trkpt>
      <trkpt lat="45.95294" lon="4.94059">
        <ele>283.5</ele>
        <time>2015-11-11T11:34:24.979Z</time>
      </trkpt>
      <trkpt lat="45.95296" lon="4.94053">
        <ele>283.399993896</ele>
        <time>2015-11-11T11:34:26.002Z</time>
      </trkpt>
      <trkpt lat="45.95299" lon="4.94047">
        <ele>283.399993896</ele>
        <time>2015-11-11T11:34:26.982Z</time>
      </trkpt>
      <trkpt lat="45.95302" lon="4.94042">
        <ele>283.299987793</ele>
        <time>2015-11-11T11:34:27.965Z</time>
      </trkpt>
      <trkpt lat="45.95308" lon="4.94034">
        <ele>282.799987793</ele>
        <time>2015-11-11T11:34:29.979Z</time>
      </trkpt>
      <trkpt lat="45.95312" lon="4.94032">
        <ele>282.700012207</ele>
        <time>2015-11-11T11:34:30.965Z</time>
      </trkpt>
      <trkpt lat="45.95316" lon="4.9403">
        <ele>282.5</ele>
        <time>2015-11-11T11:34:31.979Z</time>
      </trkpt>
      <trkpt lat="45.95321" lon="4.9403">
        <ele>282.399993896</ele>
        <time>2015-11-11T11:34:32.967Z</time>
      </trkpt>
      <trkpt lat="45.95326" lon="4.94031">
        <ele>282.299987793</ele>
        <time>2015-11-11T11:34:33.979Z</time>
      </trkpt>
      <trkpt lat="45.95331" lon="4.94031">
        <ele>282.100006104</ele>
        <time>2015-11-11T11:34:34.966Z</time>
      </trkpt>
      <trkpt lat="45.95336" lon="4.94031">
        <ele>282</ele>
        <time>2015-11-11T11:34:35.979Z</time>
      </trkpt>
      <trkpt lat="45.95341" lon="4.9403">
        <ele>281.799987793</ele>
        <time>2015-11-11T11:34:36.965Z</time>
      </trkpt>
      <trkpt lat="45.95346" lon="4.9403">
        <ele>281.600006104</ele>
        <time>2015-11-11T11:34:37.979Z</time>
      </trkpt>
      <trkpt lat="45.95352" lon="4.94029">
        <ele>281.5</ele>
        <time>2015-11-11T11:34:38.981Z</time>
      </trkpt>
      <trkpt lat="45.95357" lon="4.94028">
        <ele>281.299987793</ele>
        <time>2015-11-11T11:34:39.981Z</time>
      </trkpt>
      <trkpt lat="45.95362" lon="4.94026">
        <ele>281.200012207</ele>
        <time>2015-11-11T11:34:40.966Z</time>
      </trkpt>
      <trkpt lat="45.95368" lon="4.94025">
        <ele>281.899993896</ele>
        <time>2015-11-11T11:34:41.979Z</time>
      </trkpt>
      <trkpt lat="45.95373" lon="4.94024">
        <ele>281.799987793</ele>
        <time>2015-11-11T11:34:42.965Z</time>
      </trkpt>
      <trkpt lat="45.95378" lon="4.94023">
        <ele>281.799987793</ele>
        <time>2015-11-11T11:34:43.979Z</time>
      </trkpt>
      <trkpt lat="45.95383" lon="4.94022">
        <ele>282</ele>
        <time>2015-11-11T11:34:44.968Z</time>
      </trkpt>
      <trkpt lat="45.95388" lon="4.9402">
        <ele>282.200012207</ele>
        <time>2015-11-11T11:34:45.986Z</time>
      </trkpt>
      <trkpt lat="45.95393" lon="4.94019">
        <ele>282.100006104</ele>
        <time>2015-11-11T11:34:46.966Z</time>
      </trkpt>
      <trkpt lat="45.95398" lon="4.94017">
        <ele>282.100006104</ele>
        <time>2015-11-11T11:34:47.979Z</time>
      </trkpt>
      <trkpt lat="45.95403" lon="4.94016">
        <ele>282</ele>
        <time>2015-11-11T11:34:48.965Z</time>
      </trkpt>
      <trkpt lat="45.95407" lon="4.94015">
        <ele>281.899993896</ele>
        <time>2015-11-11T11:34:49.993Z</time>
      </trkpt>
      <trkpt lat="45.95412" lon="4.94014">
        <ele>281.799987793</ele>
        <time>2015-11-11T11:34:50.967Z</time>
      </trkpt>
      <trkpt lat="45.95417" lon="4.94012">
        <ele>281.899993896</ele>
        <time>2015-11-11T11:34:51.979Z</time>
      </trkpt>
      <trkpt lat="45.95422" lon="4.9401">
        <ele>281.799987793</ele>
        <time>2015-11-11T11:34:52.966Z</time>
      </trkpt>
      <trkpt lat="45.95427" lon="4.94008">
        <ele>281.700012207</ele>
        <time>2015-11-11T11:34:53.98Z</time>
      </trkpt>
      <trkpt lat="45.95432" lon="4.94006">
        <ele>281.700012207</ele>
        <time>2015-11-11T11:34:54.965Z</time>
      </trkpt>
      <trkpt lat="45.95437" lon="4.94005">
        <ele>281.5</ele>
        <time>2015-11-11T11:34:55.979Z</time>
      </trkpt>
      <trkpt lat="45.95442" lon="4.94004">
        <ele>281.600006104</ele>
        <time>2015-11-11T11:34:56.967Z</time>
      </trkpt>
      <trkpt lat="45.95447" lon="4.94002">
        <ele>281.600006104</ele>
        <time>2015-11-11T11:34:57.979Z</time>
      </trkpt>
      <trkpt lat="45.95452" lon="4.94">
        <ele>281.5</ele>
        <time>2015-11-11T11:34:58.966Z</time>
      </trkpt>
      <trkpt lat="45.95457" lon="4.93999">
        <ele>281.700012207</ele>
        <time>2015-11-11T11:34:59.979Z</time>
      </trkpt>
      <trkpt lat="45.95462" lon="4.93998">
        <ele>281.899993896</ele>
        <time>2015-11-11T11:35:00.979Z</time>
      </trkpt>
      <trkpt lat="45.95467" lon="4.93997">
        <ele>282.600006104</ele>
        <time>2015-11-11T11:35:01.979Z</time>
      </trkpt>
      <trkpt lat="45.95472" lon="4.93997">
        <ele>283.100006104</ele>
        <time>2015-11-11T11:35:02.967Z</time>
      </trkpt>
      <trkpt lat="45.95477" lon="4.93996">
        <ele>283.5</ele>
        <time>2015-11-11T11:35:03.979Z</time>
      </trkpt>
      <trkpt lat="45.95482" lon="4.93996">
        <ele>283.799987793</ele>
        <time>2015-11-11T11:35:04.967Z</time>
      </trkpt>
      <trkpt lat="45.95487" lon="4.93996">
        <ele>284.100006104</ele>
        <time>2015-11-11T11:35:05.979Z</time>
      </trkpt>
      <trkpt lat="45.95492" lon="4.93996">
        <ele>284.600006104</ele>
        <time>2015-11-11T11:35:06.965Z</time>
      </trkpt>
      <trkpt lat="45.95497" lon="4.93997">
        <ele>285.100006104</ele>
        <time>2015-11-11T11:35:08.099Z</time>
      </trkpt>
      <trkpt lat="45.95502" lon="4.94">
        <ele>285.200012207</ele>
        <time>2015-11-11T11:35:08.968Z</time>
      </trkpt>
      <trkpt lat="45.95508" lon="4.94001">
        <ele>285.5</ele>
        <time>2015-11-11T11:35:09.979Z</time>
      </trkpt>
      <trkpt lat="45.95512" lon="4.94002">
        <ele>286.399993896</ele>
        <time>2015-11-11T11:35:10.966Z</time>
      </trkpt>
      <trkpt lat="45.95517" lon="4.94002">
        <ele>286.299987793</ele>
        <time>2015-11-11T11:35:11.992Z</time>
      </trkpt>
      <trkpt lat="45.95521" lon="4.94001">
        <ele>286.200012207</ele>
        <time>2015-11-11T11:35:12.965Z</time>
      </trkpt>
      <trkpt lat="45.95526" lon="4.93999">
        <ele>285.600006104</ele>
        <time>2015-11-11T11:35:13.979Z</time>
      </trkpt>
      <trkpt lat="45.95529" lon="4.93995">
        <ele>285.299987793</ele>
        <time>2015-11-11T11:35:14.967Z</time>
      </trkpt>
      <trkpt lat="45.95532" lon="4.93983">
        <ele>285.200012207</ele>
        <time>2015-11-11T11:35:16.98Z</time>
      </trkpt>
      <trkpt lat="45.95532" lon="4.93976">
        <ele>285.700012207</ele>
        <time>2015-11-11T11:35:17.965Z</time>
      </trkpt>
      <trkpt lat="45.95532" lon="4.93968">
        <ele>286</ele>
        <time>2015-11-11T11:35:18.979Z</time>
      </trkpt>
      <trkpt lat="45.95533" lon="4.9396">
        <ele>286.200012207</ele>
        <time>2015-11-11T11:35:19.965Z</time>
      </trkpt>
      <trkpt lat="45.95533" lon="4.93951">
        <ele>286.299987793</ele>
        <time>2015-11-11T11:35:21.018Z</time>
      </trkpt>
      <trkpt lat="45.95533" lon="4.9394">
        <ele>286.399993896</ele>
        <time>2015-11-11T11:35:21.965Z</time>
      </trkpt>
      <trkpt lat="45.95533" lon="4.9393">
        <ele>285.399993896</ele>
        <time>2015-11-11T11:35:22.98Z</time>
      </trkpt>
      <trkpt lat="45.95533" lon="4.93922">
        <ele>285.5</ele>
        <time>2015-11-11T11:35:23.965Z</time>
      </trkpt>
      <trkpt lat="45.95533" lon="4.93914">
        <ele>285.299987793</ele>
        <time>2015-11-11T11:35:24.979Z</time>
      </trkpt>
      <trkpt lat="45.95533" lon="4.93907">
        <ele>285.299987793</ele>
        <time>2015-11-11T11:35:25.965Z</time>
      </trkpt>
      <trkpt lat="45.95533" lon="4.939">
        <ele>285.5</ele>
        <time>2015-11-11T11:35:26.981Z</time>
      </trkpt>
      <trkpt lat="45.95534" lon="4.93893">
        <ele>285.399993896</ele>
        <time>2015-11-11T11:35:27.965Z</time>
      </trkpt>
      <trkpt lat="45.95534" lon="4.93887">
        <ele>285.5</ele>
        <time>2015-11-11T11:35:28.98Z</time>
      </trkpt>
      <trkpt lat="45.95535" lon="4.9388">
        <ele>285.600006104</ele>
        <time>2015-11-11T11:35:29.964Z</time>
      </trkpt>
      <trkpt lat="45.95535" lon="4.93873">
        <ele>285.299987793</ele>
        <time>2015-11-11T11:35:30.979Z</time>
      </trkpt>
      <trkpt lat="45.95535" lon="4.93866">
        <ele>285.299987793</ele>
        <time>2015-11-11T11:35:31.965Z</time>
      </trkpt>
      <trkpt lat="45.95536" lon="4.9386">
        <ele>285.399993896</ele>
        <time>2015-11-11T11:35:32.982Z</time>
      </trkpt>
      <trkpt lat="45.95536" lon="4.93853">
        <ele>285.5</ele>
        <time>2015-11-11T11:35:33.965Z</time>
      </trkpt>
      <trkpt lat="45.95536" lon="4.93846">
        <ele>285.5</ele>
        <time>2015-11-11T11:35:34.98Z</time>
      </trkpt>
      <trkpt lat="45.95537" lon="4.93839">
        <ele>285.100006104</ele>
        <time>2015-11-11T11:35:35.965Z</time>
      </trkpt>
      <trkpt lat="45.95539" lon="4.93833">
        <ele>285.5</ele>
        <time>2015-11-11T11:35:36.979Z</time>
      </trkpt>
      <trkpt lat="45.9554" lon="4.93826">
        <ele>285.899993896</ele>
        <time>2015-11-11T11:35:37.965Z</time>
      </trkpt>
      <trkpt lat="45.95545" lon="4.93816">
        <ele>285.799987793</ele>
        <time>2015-11-11T11:35:39.981Z</time>
      </trkpt>
      <trkpt lat="45.95549" lon="4.93812">
        <ele>285.700012207</ele>
        <time>2015-11-11T11:35:40.965Z</time>
      </trkpt>
      <trkpt lat="45.95553" lon="4.93808">
        <ele>285.700012207</ele>
        <time>2015-11-11T11:35:41.979Z</time>
      </trkpt>
      <trkpt lat="45.95558" lon="4.93804">
        <ele>285.399993896</ele>
        <time>2015-11-11T11:35:42.965Z</time>
      </trkpt>
      <trkpt lat="45.95562" lon="4.93798">
        <ele>285.299987793</ele>
        <time>2015-11-11T11:35:43.979Z</time>
      </trkpt>
      <trkpt lat="45.95564" lon="4.93791">
        <ele>285.200012207</ele>
        <time>2015-11-11T11:35:44.967Z</time>
      </trkpt>
      <trkpt lat="45.95566" lon="4.93783">
        <ele>284.799987793</ele>
        <time>2015-11-11T11:35:45.98Z</time>
      </trkpt>
      <trkpt lat="45.95566" lon="4.93776">
        <ele>284.600006104</ele>
        <time>2015-11-11T11:35:46.966Z</time>
      </trkpt>
      <trkpt lat="45.95565" lon="4.93768">
        <ele>284.700012207</ele>
        <time>2015-11-11T11:35:47.979Z</time>
      </trkpt>
      <trkpt lat="45.95565" lon="4.93761">
        <ele>284.700012207</ele>
        <time>2015-11-11T11:35:48.965Z</time>
      </trkpt>
      <trkpt lat="45.95564" lon="4.93748">
        <ele>285</ele>
        <time>2015-11-11T11:35:50.982Z</time>
      </trkpt>
      <trkpt lat="45.95564" lon="4.93742">
        <ele>285.5</ele>
        <time>2015-11-11T11:35:51.964Z</time>
      </trkpt>
      <trkpt lat="45.95564" lon="4.93736">
        <ele>285.700012207</ele>
        <time>2015-11-11T11:35:53.092Z</time>
      </trkpt>
      <trkpt lat="45.95563" lon="4.93729">
        <ele>285.700012207</ele>
        <time>2015-11-11T11:35:53.965Z</time>
      </trkpt>
      <trkpt lat="45.95563" lon="4.93722">
        <ele>285.799987793</ele>
        <time>2015-11-11T11:35:54.979Z</time>
      </trkpt>
      <trkpt lat="45.95564" lon="4.93715">
        <ele>285.899993896</ele>
        <time>2015-11-11T11:35:55.965Z</time>
      </trkpt>
      <trkpt lat="45.95564" lon="4.93708">
        <ele>286.200012207</ele>
        <time>2015-11-11T11:35:56.982Z</time>
      </trkpt>
      <trkpt lat="45.95564" lon="4.93701">
        <ele>286.100006104</ele>
        <time>2015-11-11T11:35:57.965Z</time>
      </trkpt>
      <trkpt lat="45.95564" lon="4.93694">
        <ele>286.299987793</ele>
        <time>2015-11-11T11:35:58.98Z</time>
      </trkpt>
      <trkpt lat="45.95565" lon="4.93687">
        <ele>286.399993896</ele>
        <time>2015-11-11T11:35:59.965Z</time>
      </trkpt>
      <trkpt lat="45.95565" lon="4.9368">
        <ele>286.200012207</ele>
        <time>2015-11-11T11:36:00.997Z</time>
      </trkpt>
      <trkpt lat="45.95565" lon="4.93672">
        <ele>286.200012207</ele>
        <time>2015-11-11T11:36:01.964Z</time>
      </trkpt>
      <trkpt lat="45.95566" lon="4.93665">
        <ele>286.399993896</ele>
        <time>2015-11-11T11:36:02.983Z</time>
      </trkpt>
      <trkpt lat="45.95566" lon="4.93657">
        <ele>286.399993896</ele>
        <time>2015-11-11T11:36:03.968Z</time>
      </trkpt>
      <trkpt lat="45.95567" lon="4.9365">
        <ele>286.299987793</ele>
        <time>2015-11-11T11:36:04.98Z</time>
      </trkpt>
      <trkpt lat="45.95568" lon="4.93643">
        <ele>286.100006104</ele>
        <time>2015-11-11T11:36:05.965Z</time>
      </trkpt>
      <trkpt lat="45.95569" lon="4.9363">
        <ele>286.600006104</ele>
        <time>2015-11-11T11:36:07.978Z</time>
      </trkpt>
      <trkpt lat="45.95569" lon="4.93624">
        <ele>286.399993896</ele>
        <time>2015-11-11T11:36:08.967Z</time>
      </trkpt>
      <trkpt lat="45.9557" lon="4.93617">
        <ele>286.299987793</ele>
        <time>2015-11-11T11:36:09.978Z</time>
      </trkpt>
      <trkpt lat="45.95571" lon="4.9361">
        <ele>286.299987793</ele>
        <time>2015-11-11T11:36:10.965Z</time>
      </trkpt>
      <trkpt lat="45.95571" lon="4.93603">
        <ele>286.200012207</ele>
        <time>2015-11-11T11:36:11.979Z</time>
      </trkpt>
      <trkpt lat="45.95572" lon="4.93596">
        <ele>286.299987793</ele>
        <time>2015-11-11T11:36:12.964Z</time>
      </trkpt>
      <trkpt lat="45.95573" lon="4.9359">
        <ele>286.100006104</ele>
        <time>2015-11-11T11:36:13.978Z</time>
      </trkpt>
      <trkpt lat="45.95573" lon="4.93583">
        <ele>286.100006104</ele>
        <time>2015-11-11T11:36:14.967Z</time>
      </trkpt>
      <trkpt lat="45.95573" lon="4.93575">
        <ele>285.700012207</ele>
        <time>2015-11-11T11:36:15.979Z</time>
      </trkpt>
      <trkpt lat="45.95573" lon="4.93568">
        <ele>285.899993896</ele>
        <time>2015-11-11T11:36:16.969Z</time>
      </trkpt>
      <trkpt lat="45.95574" lon="4.93561">
        <ele>286</ele>
        <time>2015-11-11T11:36:17.979Z</time>
      </trkpt>
      <trkpt lat="45.95575" lon="4.93554">
        <ele>285.899993896</ele>
        <time>2015-11-11T11:36:18.964Z</time>
      </trkpt>
      <trkpt lat="45.95575" lon="4.93546">
        <ele>285.700012207</ele>
        <time>2015-11-11T11:36:19.979Z</time>
      </trkpt>
      <trkpt lat="45.95575" lon="4.93538">
        <ele>285.399993896</ele>
        <time>2015-11-11T11:36:20.967Z</time>
      </trkpt>
      <trkpt lat="45.95575" lon="4.9353">
        <ele>285</ele>
        <time>2015-11-11T11:36:21.992Z</time>
      </trkpt>
      <trkpt lat="45.95574" lon="4.93522">
        <ele>285</ele>
        <time>2015-11-11T11:36:22.965Z</time>
      </trkpt>
      <trkpt lat="45.95571" lon="4.93514">
        <ele>284.899993896</ele>
        <time>2015-11-11T11:36:23.979Z</time>
      </trkpt>
      <trkpt lat="45.95569" lon="4.93507">
        <ele>284.899993896</ele>
        <time>2015-11-11T11:36:24.964Z</time>
      </trkpt>
      <trkpt lat="45.95567" lon="4.93499">
        <ele>285</ele>
        <time>2015-11-11T11:36:25.979Z</time>
      </trkpt>
      <trkpt lat="45.95565" lon="4.93492">
        <ele>285.200012207</ele>
        <time>2015-11-11T11:36:26.967Z</time>
      </trkpt>
      <trkpt lat="45.95562" lon="4.93486">
        <ele>285.5</ele>
        <time>2015-11-11T11:36:27.978Z</time>
      </trkpt>
      <trkpt lat="45.95559" lon="4.93479">
        <ele>285.799987793</ele>
        <time>2015-11-11T11:36:28.967Z</time>
      </trkpt>
      <trkpt lat="45.95556" lon="4.93472">
        <ele>285.899993896</ele>
        <time>2015-11-11T11:36:29.978Z</time>
      </trkpt>
      <trkpt lat="45.95554" lon="4.93465">
        <ele>286</ele>
        <time>2015-11-11T11:36:30.964Z</time>
      </trkpt>
      <trkpt lat="45.95551" lon="4.93459">
        <ele>286.200012207</ele>
        <time>2015-11-11T11:36:31.978Z</time>
      </trkpt>
      <trkpt lat="45.95548" lon="4.93453">
        <ele>286.299987793</ele>
        <time>2015-11-11T11:36:32.967Z</time>
      </trkpt>
      <trkpt lat="45.95546" lon="4.93447">
        <ele>286.600006104</ele>
        <time>2015-11-11T11:36:33.978Z</time>
      </trkpt>
      <trkpt lat="45.95544" lon="4.9344">
        <ele>286.700012207</ele>
        <time>2015-11-11T11:36:34.965Z</time>
      </trkpt>
      <trkpt lat="45.95542" lon="4.93434">
        <ele>286.899993896</ele>
        <time>2015-11-11T11:36:35.978Z</time>
      </trkpt>
      <trkpt lat="45.95539" lon="4.93428">
        <ele>287.299987793</ele>
        <time>2015-11-11T11:36:36.964Z</time>
      </trkpt>
      <trkpt lat="45.95537" lon="4.93421">
        <ele>287.5</ele>
        <time>2015-11-11T11:36:37.995Z</time>
      </trkpt>
      <trkpt lat="45.95534" lon="4.93415">
        <ele>287.700012207</ele>
        <time>2015-11-11T11:36:38.967Z</time>
      </trkpt>
      <trkpt lat="45.95531" lon="4.93408">
        <ele>287.899993896</ele>
        <time>2015-11-11T11:36:39.981Z</time>
      </trkpt>
      <trkpt lat="45.95529" lon="4.93402">
        <ele>287.700012207</ele>
        <time>2015-11-11T11:36:40.965Z</time>
      </trkpt>
      <trkpt lat="45.95526" lon="4.93396">
        <ele>287.200012207</ele>
        <time>2015-11-11T11:36:42.089Z</time>
      </trkpt>
      <trkpt lat="45.95523" lon="4.9339">
        <ele>287.200012207</ele>
        <time>2015-11-11T11:36:42.964Z</time>
      </trkpt>
      <trkpt lat="45.9552" lon="4.93384">
        <ele>287.200012207</ele>
        <time>2015-11-11T11:36:43.978Z</time>
      </trkpt>
      <trkpt lat="45.95518" lon="4.93378">
        <ele>287.200012207</ele>
        <time>2015-11-11T11:36:44.967Z</time>
      </trkpt>
      <trkpt lat="45.95516" lon="4.93372">
        <ele>287.100006104</ele>
        <time>2015-11-11T11:36:45.978Z</time>
      </trkpt>
      <trkpt lat="45.95513" lon="4.93366">
        <ele>287.100006104</ele>
        <time>2015-11-11T11:36:46.965Z</time>
      </trkpt>
      <trkpt lat="45.95509" lon="4.93355">
        <ele>287.5</ele>
        <time>2015-11-11T11:36:48.992Z</time>
      </trkpt>
      <trkpt lat="45.95507" lon="4.9335">
        <ele>287.799987793</ele>
        <time>2015-11-11T11:36:49.964Z</time>
      </trkpt>
      <trkpt lat="45.95505" lon="4.93344">
        <ele>288.200012207</ele>
        <time>2015-11-11T11:36:50.981Z</time>
      </trkpt>
      <trkpt lat="45.95502" lon="4.93337">
        <ele>288.5</ele>
        <time>2015-11-11T11:36:51.964Z</time>
      </trkpt>
      <trkpt lat="45.955" lon="4.93331">
        <ele>288.399993896</ele>
        <time>2015-11-11T11:36:52.979Z</time>
      </trkpt>
      <trkpt lat="45.95497" lon="4.93325">
        <ele>289</ele>
        <time>2015-11-11T11:36:53.964Z</time>
      </trkpt>
      <trkpt lat="45.95494" lon="4.93319">
        <ele>289.200012207</ele>
        <time>2015-11-11T11:36:54.998Z</time>
      </trkpt>
      <trkpt lat="45.95492" lon="4.93312">
        <ele>289.600006104</ele>
        <time>2015-11-11T11:36:55.964Z</time>
      </trkpt>
      <trkpt lat="45.95489" lon="4.93306">
        <ele>289.700012207</ele>
        <time>2015-11-11T11:36:57.092Z</time>
      </trkpt>
      <trkpt lat="45.95487" lon="4.93301">
        <ele>289.899993896</ele>
        <time>2015-11-11T11:36:57.964Z</time>
      </trkpt>
      <trkpt lat="45.95484" lon="4.93295">
        <ele>290.100006104</ele>
        <time>2015-11-11T11:36:58.979Z</time>
      </trkpt>
      <trkpt lat="45.95481" lon="4.93289">
        <ele>290.100006104</ele>
        <time>2015-11-11T11:36:59.964Z</time>
      </trkpt>
      <trkpt lat="45.95478" lon="4.93283">
        <ele>289.600006104</ele>
        <time>2015-11-11T11:37:00.979Z</time>
      </trkpt>
      <trkpt lat="45.95475" lon="4.93277">
        <ele>289.700012207</ele>
        <time>2015-11-11T11:37:01.964Z</time>
      </trkpt>
      <trkpt lat="45.95473" lon="4.9327">
        <ele>289.299987793</ele>
        <time>2015-11-11T11:37:02.981Z</time>
      </trkpt>
      <trkpt lat="45.95471" lon="4.93264">
        <ele>289.600006104</ele>
        <time>2015-11-11T11:37:03.964Z</time>
      </trkpt>
      <trkpt lat="45.95468" lon="4.93258">
        <ele>289.799987793</ele>
        <time>2015-11-11T11:37:04.993Z</time>
      </trkpt>
      <trkpt lat="45.95465" lon="4.93252">
        <ele>289.899993896</ele>
        <time>2015-11-11T11:37:05.964Z</time>
      </trkpt>
      <trkpt lat="45.95461" lon="4.93246">
        <ele>290.100006104</ele>
        <time>2015-11-11T11:37:06.978Z</time>
      </trkpt>
      <trkpt lat="45.95459" lon="4.9324">
        <ele>290.700012207</ele>
        <time>2015-11-11T11:37:07.964Z</time>
      </trkpt>
      <trkpt lat="45.95457" lon="4.93234">
        <ele>290.200012207</ele>
        <time>2015-11-11T11:37:09.011Z</time>
      </trkpt>
      <trkpt lat="45.95454" lon="4.93227">
        <ele>290.299987793</ele>
        <time>2015-11-11T11:37:09.964Z</time>
      </trkpt>
      <trkpt lat="45.95452" lon="4.9322">
        <ele>290.100006104</ele>
        <time>2015-11-11T11:37:10.983Z</time>
      </trkpt>
      <trkpt lat="45.9545" lon="4.93214">
        <ele>290.299987793</ele>
        <time>2015-11-11T11:37:11.964Z</time>
      </trkpt>
      <trkpt lat="45.95449" lon="4.93207">
        <ele>290.5</ele>
        <time>2015-11-11T11:37:12.979Z</time>
      </trkpt>
      <trkpt lat="45.95449" lon="4.93199">
        <ele>290.399993896</ele>
        <time>2015-11-11T11:37:13.964Z</time>
      </trkpt>
      <trkpt lat="45.9545" lon="4.93192">
        <ele>290.399993896</ele>
        <time>2015-11-11T11:37:14.981Z</time>
      </trkpt>
      <trkpt lat="45.95452" lon="4.93186">
        <ele>290.600006104</ele>
        <time>2015-11-11T11:37:15.964Z</time>
      </trkpt>
      <trkpt lat="45.95456" lon="4.93181">
        <ele>290.5</ele>
        <time>2015-11-11T11:37:16.979Z</time>
      </trkpt>
      <trkpt lat="45.9546" lon="4.93176">
        <ele>290.799987793</ele>
        <time>2015-11-11T11:37:17.964Z</time>
      </trkpt>
      <trkpt lat="45.95463" lon="4.93171">
        <ele>291</ele>
        <time>2015-11-11T11:37:18.978Z</time>
      </trkpt>
      <trkpt lat="45.95467" lon="4.93168">
        <ele>291.200012207</ele>
        <time>2015-11-11T11:37:19.964Z</time>
      </trkpt>
      <trkpt lat="45.95471" lon="4.93164">
        <ele>291.399993896</ele>
        <time>2015-11-11T11:37:20.981Z</time>
      </trkpt>
      <trkpt lat="45.95476" lon="4.93161">
        <ele>291.399993896</ele>
        <time>2015-11-11T11:37:21.964Z</time>
      </trkpt>
      <trkpt lat="45.9548" lon="4.93157">
        <ele>291.700012207</ele>
        <time>2015-11-11T11:37:22.979Z</time>
      </trkpt>
      <trkpt lat="45.95484" lon="4.93154">
        <ele>292.100006104</ele>
        <time>2015-11-11T11:37:23.964Z</time>
      </trkpt>
      <trkpt lat="45.95489" lon="4.93151">
        <ele>292.299987793</ele>
        <time>2015-11-11T11:37:24.978Z</time>
      </trkpt>
      <trkpt lat="45.95493" lon="4.93148">
        <ele>292.5</ele>
        <time>2015-11-11T11:37:25.964Z</time>
      </trkpt>
      <trkpt lat="45.955" lon="4.93142">
        <ele>293.200012207</ele>
        <time>2015-11-11T11:37:27.978Z</time>
      </trkpt>
      <trkpt lat="45.95503" lon="4.93139">
        <ele>293.799987793</ele>
        <time>2015-11-11T11:37:28.965Z</time>
      </trkpt>
      <trkpt lat="45.95511" lon="4.93132">
        <ele>294.100006104</ele>
        <time>2015-11-11T11:37:30.978Z</time>
      </trkpt>
      <trkpt lat="45.95514" lon="4.9313">
        <ele>294.5</ele>
        <time>2015-11-11T11:37:31.964Z</time>
      </trkpt>
      <trkpt lat="45.95518" lon="4.93126">
        <ele>294.600006104</ele>
        <time>2015-11-11T11:37:32.981Z</time>
      </trkpt>
      <trkpt lat="45.95522" lon="4.93122">
        <ele>294.799987793</ele>
        <time>2015-11-11T11:37:33.964Z</time>
      </trkpt>
      <trkpt lat="45.95526" lon="4.93117">
        <ele>295.100006104</ele>
        <time>2015-11-11T11:37:34.979Z</time>
      </trkpt>
      <trkpt lat="45.95529" lon="4.93112">
        <ele>295</ele>
        <time>2015-11-11T11:37:35.964Z</time>
      </trkpt>
      <trkpt lat="45.95534" lon="4.93107">
        <ele>295.299987793</ele>
        <time>2015-11-11T11:37:36.978Z</time>
      </trkpt>
      <trkpt lat="45.95537" lon="4.93101">
        <ele>295.399993896</ele>
        <time>2015-11-11T11:37:37.964Z</time>
      </trkpt>
      <trkpt lat="45.9554" lon="4.93095">
        <ele>295.299987793</ele>
        <time>2015-11-11T11:37:38.982Z</time>
      </trkpt>
      <trkpt lat="45.95543" lon="4.93089">
        <ele>295.299987793</ele>
        <time>2015-11-11T11:37:39.966Z</time>
      </trkpt>
      <trkpt lat="45.95545" lon="4.93082">
        <ele>294.899993896</ele>
        <time>2015-11-11T11:37:40.979Z</time>
      </trkpt>
      <trkpt lat="45.95547" lon="4.93075">
        <ele>294.700012207</ele>
        <time>2015-11-11T11:37:41.964Z</time>
      </trkpt>
      <trkpt lat="45.95548" lon="4.93069">
        <ele>294.5</ele>
        <time>2015-11-11T11:37:43.006Z</time>
      </trkpt>
      <trkpt lat="45.95548" lon="4.93062">
        <ele>293.700012207</ele>
        <time>2015-11-11T11:37:43.964Z</time>
      </trkpt>
      <trkpt lat="45.9555" lon="4.93049">
        <ele>293.299987793</ele>
        <time>2015-11-11T11:37:45.978Z</time>
      </trkpt>
      <trkpt lat="45.9555" lon="4.93043">
        <ele>293.299987793</ele>
        <time>2015-11-11T11:37:46.965Z</time>
      </trkpt>
      <trkpt lat="45.9555" lon="4.93037">
        <ele>292.899993896</ele>
        <time>2015-11-11T11:37:47.978Z</time>
      </trkpt>
      <trkpt lat="45.95551" lon="4.9303">
        <ele>292.700012207</ele>
        <time>2015-11-11T11:37:48.964Z</time>
      </trkpt>
      <trkpt lat="45.95552" lon="4.93024">
        <ele>292.100006104</ele>
        <time>2015-11-11T11:37:49.978Z</time>
      </trkpt>
      <trkpt lat="45.95552" lon="4.93017">
        <ele>292</ele>
        <time>2015-11-11T11:37:50.967Z</time>
      </trkpt>
      <trkpt lat="45.95553" lon="4.9301">
        <ele>291.799987793</ele>
        <time>2015-11-11T11:37:51.978Z</time>
      </trkpt>
      <trkpt lat="45.95555" lon="4.93003">
        <ele>291.600006104</ele>
        <time>2015-11-11T11:37:52.965Z</time>
      </trkpt>
      <trkpt lat="45.95555" lon="4.92997">
        <ele>291.600006104</ele>
        <time>2015-11-11T11:37:53.978Z</time>
      </trkpt>
      <trkpt lat="45.95556" lon="4.9299">
        <ele>291.399993896</ele>
        <time>2015-11-11T11:37:54.963Z</time>
      </trkpt>
      <trkpt lat="45.95557" lon="4.92983">
        <ele>291.399993896</ele>
        <time>2015-11-11T11:37:55.979Z</time>
      </trkpt>
      <trkpt lat="45.95559" lon="4.92977">
        <ele>291.200012207</ele>
        <time>2015-11-11T11:37:56.967Z</time>
      </trkpt>
      <trkpt lat="45.95559" lon="4.9297">
        <ele>291.100006104</ele>
        <time>2015-11-11T11:37:57.978Z</time>
      </trkpt>
      <trkpt lat="45.9556" lon="4.92963">
        <ele>290.899993896</ele>
        <time>2015-11-11T11:37:58.965Z</time>
      </trkpt>
      <trkpt lat="45.95561" lon="4.92956">
        <ele>291.100006104</ele>
        <time>2015-11-11T11:37:59.978Z</time>
      </trkpt>
      <trkpt lat="45.95562" lon="4.92949">
        <ele>290.799987793</ele>
        <time>2015-11-11T11:38:00.964Z</time>
      </trkpt>
      <trkpt lat="45.95563" lon="4.92942">
        <ele>290.700012207</ele>
        <time>2015-11-11T11:38:01.978Z</time>
      </trkpt>
      <trkpt lat="45.95565" lon="4.92936">
        <ele>290.5</ele>
        <time>2015-11-11T11:38:02.967Z</time>
      </trkpt>
      <trkpt lat="45.95566" lon="4.92929">
        <ele>290.5</ele>
        <time>2015-11-11T11:38:04.031Z</time>
      </trkpt>
      <trkpt lat="45.95567" lon="4.92922">
        <ele>290.600006104</ele>
        <time>2015-11-11T11:38:04.965Z</time>
      </trkpt>
      <trkpt lat="45.95568" lon="4.92915">
        <ele>290.299987793</ele>
        <time>2015-11-11T11:38:05.978Z</time>
      </trkpt>
      <trkpt lat="45.9557" lon="4.92907">
        <ele>289.899993896</ele>
        <time>2015-11-11T11:38:06.964Z</time>
      </trkpt>
      <trkpt lat="45.95571" lon="4.929">
        <ele>289.899993896</ele>
        <time>2015-11-11T11:38:07.978Z</time>
      </trkpt>
      <trkpt lat="45.95572" lon="4.92894">
        <ele>289.899993896</ele>
        <time>2015-11-11T11:38:08.967Z</time>
      </trkpt>
      <trkpt lat="45.95573" lon="4.92887">
        <ele>289.799987793</ele>
        <time>2015-11-11T11:38:10.099Z</time>
      </trkpt>
      <trkpt lat="45.95574" lon="4.92881">
        <ele>289.600006104</ele>
        <time>2015-11-11T11:38:10.965Z</time>
      </trkpt>
      <trkpt lat="45.95577" lon="4.92869">
        <ele>289.399993896</ele>
        <time>2015-11-11T11:38:12.978Z</time>
      </trkpt>
      <trkpt lat="45.95578" lon="4.92863">
        <ele>289.399993896</ele>
        <time>2015-11-11T11:38:13.969Z</time>
      </trkpt>
      <trkpt lat="45.9558" lon="4.92857">
        <ele>289.200012207</ele>
        <time>2015-11-11T11:38:14.981Z</time>
      </trkpt>
      <trkpt lat="45.95581" lon="4.9285">
        <ele>289.200012207</ele>
        <time>2015-11-11T11:38:15.964Z</time>
      </trkpt>
      <trkpt lat="45.95582" lon="4.92844">
        <ele>289.100006104</ele>
        <time>2015-11-11T11:38:16.979Z</time>
      </trkpt>
      <trkpt lat="45.95583" lon="4.92837">
        <ele>289.299987793</ele>
        <time>2015-11-11T11:38:17.964Z</time>
      </trkpt>
      <trkpt lat="45.95585" lon="4.92825">
        <ele>289.5</ele>
        <time>2015-11-11T11:38:19.991Z</time>
      </trkpt>
      <trkpt lat="45.95586" lon="4.92819">
        <ele>289.5</ele>
        <time>2015-11-11T11:38:20.967Z</time>
      </trkpt>
      <trkpt lat="45.95587" lon="4.92813">
        <ele>289.600006104</ele>
        <time>2015-11-11T11:38:21.979Z</time>
      </trkpt>
      <trkpt lat="45.95588" lon="4.92806">
        <ele>289.700012207</ele>
        <time>2015-11-11T11:38:22.965Z</time>
      </trkpt>
      <trkpt lat="45.95588" lon="4.92799">
        <ele>289.899993896</ele>
        <time>2015-11-11T11:38:23.978Z</time>
      </trkpt>
      <trkpt lat="45.95589" lon="4.92793">
        <ele>290.200012207</ele>
        <time>2015-11-11T11:38:24.964Z</time>
      </trkpt>
      <trkpt lat="45.95591" lon="4.92786">
        <ele>290.399993896</ele>
        <time>2015-11-11T11:38:26.099Z</time>
      </trkpt>
      <trkpt lat="45.95592" lon="4.92779">
        <ele>290.5</ele>
        <time>2015-11-11T11:38:26.967Z</time>
      </trkpt>
      <trkpt lat="45.95594" lon="4.92772">
        <ele>290.700012207</ele>
        <time>2015-11-11T11:38:27.978Z</time>
      </trkpt>
      <trkpt lat="45.95595" lon="4.92764">
        <ele>290.799987793</ele>
        <time>2015-11-11T11:38:28.965Z</time>
      </trkpt>
      <trkpt lat="45.95596" lon="4.92757">
        <ele>290.700012207</ele>
        <time>2015-11-11T11:38:29.978Z</time>
      </trkpt>
      <trkpt lat="45.95598" lon="4.92749">
        <ele>290.899993896</ele>
        <time>2015-11-11T11:38:30.964Z</time>
      </trkpt>
      <trkpt lat="45.95599" lon="4.92741">
        <ele>291.100006104</ele>
        <time>2015-11-11T11:38:31.978Z</time>
      </trkpt>
      <trkpt lat="45.956" lon="4.92733">
        <ele>291.399993896</ele>
        <time>2015-11-11T11:38:32.967Z</time>
      </trkpt>
      <trkpt lat="45.95601" lon="4.92725">
        <ele>291.399993896</ele>
        <time>2015-11-11T11:38:33.978Z</time>
      </trkpt>
      <trkpt lat="45.95603" lon="4.92717">
        <ele>291.600006104</ele>
        <time>2015-11-11T11:38:34.965Z</time>
      </trkpt>
      <trkpt lat="45.95604" lon="4.92709">
        <ele>291.700012207</ele>
        <time>2015-11-11T11:38:35.991Z</time>
      </trkpt>
      <trkpt lat="45.95606" lon="4.92701">
        <ele>291.899993896</ele>
        <time>2015-11-11T11:38:36.964Z</time>
      </trkpt>
      <trkpt lat="45.95608" lon="4.92693">
        <ele>292</ele>
        <time>2015-11-11T11:38:37.978Z</time>
      </trkpt>
      <trkpt lat="45.95609" lon="4.92686">
        <ele>292</ele>
        <time>2015-11-11T11:38:38.967Z</time>
      </trkpt>
      <trkpt lat="45.95611" lon="4.92678">
        <ele>291.5</ele>
        <time>2015-11-11T11:38:40.091Z</time>
      </trkpt>
      <trkpt lat="45.95612" lon="4.92671">
        <ele>291</ele>
        <time>2015-11-11T11:38:40.965Z</time>
      </trkpt>
      <trkpt lat="45.95613" lon="4.92664">
        <ele>290.899993896</ele>
        <time>2015-11-11T11:38:41.978Z</time>
      </trkpt>
      <trkpt lat="45.95615" lon="4.92657">
        <ele>290.899993896</ele>
        <time>2015-11-11T11:38:42.964Z</time>
      </trkpt>
      <trkpt lat="45.95616" lon="4.92649">
        <ele>290.600006104</ele>
        <time>2015-11-11T11:38:43.978Z</time>
      </trkpt>
      <trkpt lat="45.95617" lon="4.92641">
        <ele>290.399993896</ele>
        <time>2015-11-11T11:38:44.967Z</time>
      </trkpt>
      <trkpt lat="45.95618" lon="4.92633">
        <ele>290</ele>
        <time>2015-11-11T11:38:45.978Z</time>
      </trkpt>
      <trkpt lat="45.95619" lon="4.92625">
        <ele>289.899993896</ele>
        <time>2015-11-11T11:38:46.965Z</time>
      </trkpt>
      <trkpt lat="45.95621" lon="4.92617">
        <ele>290</ele>
        <time>2015-11-11T11:38:47.979Z</time>
      </trkpt>
      <trkpt lat="45.95622" lon="4.9261">
        <ele>290</ele>
        <time>2015-11-11T11:38:48.964Z</time>
      </trkpt>
      <trkpt lat="45.95623" lon="4.92601">
        <ele>289.299987793</ele>
        <time>2015-11-11T11:38:49.983Z</time>
      </trkpt>
      <trkpt lat="45.95625" lon="4.92593">
        <ele>289.399993896</ele>
        <time>2015-11-11T11:38:50.968Z</time>
      </trkpt>
      <trkpt lat="45.95626" lon="4.92584">
        <ele>288.799987793</ele>
        <time>2015-11-11T11:38:51.992Z</time>
      </trkpt>
      <trkpt lat="45.95627" lon="4.92576">
        <ele>288.5</ele>
        <time>2015-11-11T11:38:52.965Z</time>
      </trkpt>
      <trkpt lat="45.95628" lon="4.92568">
        <ele>288.100006104</ele>
        <time>2015-11-11T11:38:53.979Z</time>
      </trkpt>
      <trkpt lat="45.95629" lon="4.9256">
        <ele>287.899993896</ele>
        <time>2015-11-11T11:38:54.963Z</time>
      </trkpt>
      <trkpt lat="45.9563" lon="4.92552">
        <ele>287.700012207</ele>
        <time>2015-11-11T11:38:55.978Z</time>
      </trkpt>
      <trkpt lat="45.95631" lon="4.92544">
        <ele>287.399993896</ele>
        <time>2015-11-11T11:38:56.967Z</time>
      </trkpt>
      <trkpt lat="45.95632" lon="4.92537">
        <ele>287.299987793</ele>
        <time>2015-11-11T11:38:57.978Z</time>
      </trkpt>
      <trkpt lat="45.95633" lon="4.92529">
        <ele>287.399993896</ele>
        <time>2015-11-11T11:38:59.002Z</time>
      </trkpt>
      <trkpt lat="45.95634" lon="4.92521">
        <ele>287.399993896</ele>
        <time>2015-11-11T11:38:59.978Z</time>
      </trkpt>
      <trkpt lat="45.95635" lon="4.92514">
        <ele>287.700012207</ele>
        <time>2015-11-11T11:39:00.964Z</time>
      </trkpt>
      <trkpt lat="45.95636" lon="4.92506">
        <ele>287.799987793</ele>
        <time>2015-11-11T11:39:01.979Z</time>
      </trkpt>
      <trkpt lat="45.95637" lon="4.92498">
        <ele>287.799987793</ele>
        <time>2015-11-11T11:39:02.968Z</time>
      </trkpt>
      <trkpt lat="45.95637" lon="4.92491">
        <ele>288.100006104</ele>
        <time>2015-11-11T11:39:03.978Z</time>
      </trkpt>
      <trkpt lat="45.95638" lon="4.92483">
        <ele>288.299987793</ele>
        <time>2015-11-11T11:39:04.965Z</time>
      </trkpt>
      <trkpt lat="45.95639" lon="4.92474">
        <ele>288.5</ele>
        <time>2015-11-11T11:39:05.978Z</time>
      </trkpt>
      <trkpt lat="45.9564" lon="4.92466">
        <ele>288.299987793</ele>
        <time>2015-11-11T11:39:06.963Z</time>
      </trkpt>
      <trkpt lat="45.95642" lon="4.92458">
        <ele>288</ele>
        <time>2015-11-11T11:39:07.992Z</time>
      </trkpt>
      <trkpt lat="45.95643" lon="4.9245">
        <ele>287.899993896</ele>
        <time>2015-11-11T11:39:08.967Z</time>
      </trkpt>
      <trkpt lat="45.95644" lon="4.92442">
        <ele>287.700012207</ele>
        <time>2015-11-11T11:39:09.978Z</time>
      </trkpt>
      <trkpt lat="45.95645" lon="4.92435">
        <ele>287.5</ele>
        <time>2015-11-11T11:39:10.965Z</time>
      </trkpt>
      <trkpt lat="45.95646" lon="4.92427">
        <ele>287.299987793</ele>
        <time>2015-11-11T11:39:11.978Z</time>
      </trkpt>
      <trkpt lat="45.95647" lon="4.92419">
        <ele>287.200012207</ele>
        <time>2015-11-11T11:39:12.963Z</time>
      </trkpt>
      <trkpt lat="45.95648" lon="4.92412">
        <ele>287</ele>
        <time>2015-11-11T11:39:13.979Z</time>
      </trkpt>
      <trkpt lat="45.95649" lon="4.92404">
        <ele>286.799987793</ele>
        <time>2015-11-11T11:39:14.967Z</time>
      </trkpt>
      <trkpt lat="45.9565" lon="4.92397">
        <ele>286.700012207</ele>
        <time>2015-11-11T11:39:16.004Z</time>
      </trkpt>
      <trkpt lat="45.95652" lon="4.9239">
        <ele>286.700012207</ele>
        <time>2015-11-11T11:39:16.964Z</time>
      </trkpt>
      <trkpt lat="45.95653" lon="4.92382">
        <ele>286.899993896</ele>
        <time>2015-11-11T11:39:17.978Z</time>
      </trkpt>
      <trkpt lat="45.95654" lon="4.92374">
        <ele>287.100006104</ele>
        <time>2015-11-11T11:39:18.964Z</time>
      </trkpt>
      <trkpt lat="45.95655" lon="4.92367">
        <ele>287.100006104</ele>
        <time>2015-11-11T11:39:19.978Z</time>
      </trkpt>
      <trkpt lat="45.95655" lon="4.92359">
        <ele>287.299987793</ele>
        <time>2015-11-11T11:39:20.967Z</time>
      </trkpt>
      <trkpt lat="45.95656" lon="4.92351">
        <ele>287.200012207</ele>
        <time>2015-11-11T11:39:21.978Z</time>
      </trkpt>
      <trkpt lat="45.95656" lon="4.92343">
        <ele>287.200012207</ele>
        <time>2015-11-11T11:39:22.964Z</time>
      </trkpt>
      <trkpt lat="45.95657" lon="4.92336">
        <ele>287.200012207</ele>
        <time>2015-11-11T11:39:23.992Z</time>
      </trkpt>
      <trkpt lat="45.95657" lon="4.92328">
        <ele>287.299987793</ele>
        <time>2015-11-11T11:39:24.965Z</time>
      </trkpt>
      <trkpt lat="45.95658" lon="4.9232">
        <ele>287.399993896</ele>
        <time>2015-11-11T11:39:25.979Z</time>
      </trkpt>
      <trkpt lat="45.95658" lon="4.92313">
        <ele>287.5</ele>
        <time>2015-11-11T11:39:26.969Z</time>
      </trkpt>
      <trkpt lat="45.95658" lon="4.92306">
        <ele>287.600006104</ele>
        <time>2015-11-11T11:39:27.979Z</time>
      </trkpt>
      <trkpt lat="45.95659" lon="4.923">
        <ele>287.700012207</ele>
        <time>2015-11-11T11:39:28.967Z</time>
      </trkpt>
      <trkpt lat="45.95659" lon="4.92293">
        <ele>287.600006104</ele>
        <time>2015-11-11T11:39:29.978Z</time>
      </trkpt>
      <trkpt lat="45.95659" lon="4.92286">
        <ele>286.700012207</ele>
        <time>2015-11-11T11:39:30.963Z</time>
      </trkpt>
      <trkpt lat="45.95659" lon="4.92278">
        <ele>286.799987793</ele>
        <time>2015-11-11T11:39:31.977Z</time>
      </trkpt>
      <trkpt lat="45.9566" lon="4.9227">
        <ele>286.700012207</ele>
        <time>2015-11-11T11:39:32.967Z</time>
      </trkpt>
      <trkpt lat="45.9566" lon="4.92263">
        <ele>286.700012207</ele>
        <time>2015-11-11T11:39:33.978Z</time>
      </trkpt>
      <trkpt lat="45.9566" lon="4.92255">
        <ele>286.700012207</ele>
        <time>2015-11-11T11:39:34.965Z</time>
      </trkpt>
      <trkpt lat="45.95661" lon="4.92248">
        <ele>286.700012207</ele>
        <time>2015-11-11T11:39:35.978Z</time>
      </trkpt>
      <trkpt lat="45.95661" lon="4.9224">
        <ele>286.700012207</ele>
        <time>2015-11-11T11:39:36.963Z</time>
      </trkpt>
      <trkpt lat="45.95661" lon="4.92232">
        <ele>286.600006104</ele>
        <time>2015-11-11T11:39:37.978Z</time>
      </trkpt>
      <trkpt lat="45.95662" lon="4.92225">
        <ele>286.600006104</ele>
        <time>2015-11-11T11:39:38.967Z</time>
      </trkpt>
      <trkpt lat="45.95662" lon="4.92217">
        <ele>286.5</ele>
        <time>2015-11-11T11:39:39.998Z</time>
      </trkpt>
      <trkpt lat="45.95663" lon="4.92209">
        <ele>286.399993896</ele>
        <time>2015-11-11T11:39:40.964Z</time>
      </trkpt>
      <trkpt lat="45.95663" lon="4.922">
        <ele>286.299987793</ele>
        <time>2015-11-11T11:39:41.978Z</time>
      </trkpt>
      <trkpt lat="45.95663" lon="4.92192">
        <ele>286.299987793</ele>
        <time>2015-11-11T11:39:42.963Z</time>
      </trkpt>
      <trkpt lat="45.95664" lon="4.92184">
        <ele>286.200012207</ele>
        <time>2015-11-11T11:39:43.978Z</time>
      </trkpt>
      <trkpt lat="45.95664" lon="4.92176">
        <ele>286.200012207</ele>
        <time>2015-11-11T11:39:44.967Z</time>
      </trkpt>
      <trkpt lat="45.95665" lon="4.92168">
        <ele>286.299987793</ele>
        <time>2015-11-11T11:39:45.978Z</time>
      </trkpt>
      <trkpt lat="45.95665" lon="4.92161">
        <ele>286.399993896</ele>
        <time>2015-11-11T11:39:46.964Z</time>
      </trkpt>
      <trkpt lat="45.95666" lon="4.92154">
        <ele>286.5</ele>
        <time>2015-11-11T11:39:47.978Z</time>
      </trkpt>
      <trkpt lat="45.95666" lon="4.92148">
        <ele>286.399993896</ele>
        <time>2015-11-11T11:39:48.963Z</time>
      </trkpt>
      <trkpt lat="45.95666" lon="4.92141">
        <ele>286.399993896</ele>
        <time>2015-11-11T11:39:49.978Z</time>
      </trkpt>
      <trkpt lat="45.95666" lon="4.92134">
        <ele>286.5</ele>
        <time>2015-11-11T11:39:50.981Z</time>
      </trkpt>
      <trkpt lat="45.95667" lon="4.92128">
        <ele>286.5</ele>
        <time>2015-11-11T11:39:51.978Z</time>
      </trkpt>
      <trkpt lat="45.95668" lon="4.92121">
        <ele>286.299987793</ele>
        <time>2015-11-11T11:39:52.964Z</time>
      </trkpt>
      <trkpt lat="45.95668" lon="4.92115">
        <ele>286.399993896</ele>
        <time>2015-11-11T11:39:54.016Z</time>
      </trkpt>
      <trkpt lat="45.95669" lon="4.92108">
        <ele>286.5</ele>
        <time>2015-11-11T11:39:54.963Z</time>
      </trkpt>
      <trkpt lat="45.95669" lon="4.92101">
        <ele>286.700012207</ele>
        <time>2015-11-11T11:39:55.978Z</time>
      </trkpt>
      <trkpt lat="45.95669" lon="4.92094">
        <ele>286.700012207</ele>
        <time>2015-11-11T11:39:56.967Z</time>
      </trkpt>
      <trkpt lat="45.9567" lon="4.92086">
        <ele>286.700012207</ele>
        <time>2015-11-11T11:39:57.977Z</time>
      </trkpt>
      <trkpt lat="45.9567" lon="4.92078">
        <ele>286.899993896</ele>
        <time>2015-11-11T11:39:58.964Z</time>
      </trkpt>
      <trkpt lat="45.95671" lon="4.92071">
        <ele>287</ele>
        <time>2015-11-11T11:39:59.977Z</time>
      </trkpt>
      <trkpt lat="45.95671" lon="4.92062">
        <ele>287</ele>
        <time>2015-11-11T11:40:00.964Z</time>
      </trkpt>
      <trkpt lat="45.95672" lon="4.92055">
        <ele>287.299987793</ele>
        <time>2015-11-11T11:40:01.999Z</time>
      </trkpt>
      <trkpt lat="45.95673" lon="4.92048">
        <ele>287.700012207</ele>
        <time>2015-11-11T11:40:02.967Z</time>
      </trkpt>
      <trkpt lat="45.95675" lon="4.9204">
        <ele>287.700012207</ele>
        <time>2015-11-11T11:40:03.978Z</time>
      </trkpt>
      <trkpt lat="45.95677" lon="4.92034">
        <ele>288</ele>
        <time>2015-11-11T11:40:04.967Z</time>
      </trkpt>
      <trkpt lat="45.95679" lon="4.92027">
        <ele>287.899993896</ele>
        <time>2015-11-11T11:40:05.979Z</time>
      </trkpt>
      <trkpt lat="45.95681" lon="4.92022">
        <ele>288.200012207</ele>
        <time>2015-11-11T11:40:06.963Z</time>
      </trkpt>
      <trkpt lat="45.95683" lon="4.92015">
        <ele>288.5</ele>
        <time>2015-11-11T11:40:07.977Z</time>
      </trkpt>
      <trkpt lat="45.95685" lon="4.9201">
        <ele>288.700012207</ele>
        <time>2015-11-11T11:40:08.967Z</time>
      </trkpt>
      <trkpt lat="45.95688" lon="4.92004">
        <ele>289.200012207</ele>
        <time>2015-11-11T11:40:09.978Z</time>
      </trkpt>
      <trkpt lat="45.9569" lon="4.91999">
        <ele>289.5</ele>
        <time>2015-11-11T11:40:10.964Z</time>
      </trkpt>
      <trkpt lat="45.95693" lon="4.91994">
        <ele>289.700012207</ele>
        <time>2015-11-11T11:40:11.978Z</time>
      </trkpt>
      <trkpt lat="45.95696" lon="4.91988">
        <ele>289.799987793</ele>
        <time>2015-11-11T11:40:12.979Z</time>
      </trkpt>
      <trkpt lat="45.95701" lon="4.91977">
        <ele>290.100006104</ele>
        <time>2015-11-11T11:40:14.981Z</time>
      </trkpt>
      <trkpt lat="45.95704" lon="4.91971">
        <ele>290.100006104</ele>
        <time>2015-11-11T11:40:15.964Z</time>
      </trkpt>
      <trkpt lat="45.95707" lon="4.91965">
        <ele>289.799987793</ele>
        <time>2015-11-11T11:40:16.979Z</time>
      </trkpt>
      <trkpt lat="45.9571" lon="4.9196">
        <ele>290.100006104</ele>
        <time>2015-11-11T11:40:17.963Z</time>
      </trkpt>
      <trkpt lat="45.95713" lon="4.91954">
        <ele>290.399993896</ele>
        <time>2015-11-11T11:40:18.978Z</time>
      </trkpt>
      <trkpt lat="45.95717" lon="4.91948">
        <ele>290.600006104</ele>
        <time>2015-11-11T11:40:19.963Z</time>
      </trkpt>
      <trkpt lat="45.9572" lon="4.91943">
        <ele>290.5</ele>
        <time>2015-11-11T11:40:20.981Z</time>
      </trkpt>
      <trkpt lat="45.95724" lon="4.91937">
        <ele>290.5</ele>
        <time>2015-11-11T11:40:21.963Z</time>
      </trkpt>
      <trkpt lat="45.95726" lon="4.91931">
        <ele>290.399993896</ele>
        <time>2015-11-11T11:40:23.1Z</time>
      </trkpt>
      <trkpt lat="45.95729" lon="4.91926">
        <ele>290.5</ele>
        <time>2015-11-11T11:40:23.964Z</time>
      </trkpt>
      <trkpt lat="45.95732" lon="4.9192">
        <ele>290.700012207</ele>
        <time>2015-11-11T11:40:24.979Z</time>
      </trkpt>
      <trkpt lat="45.95735" lon="4.91913">
        <ele>290.600006104</ele>
        <time>2015-11-11T11:40:25.963Z</time>
      </trkpt>
      <trkpt lat="45.95738" lon="4.91907">
        <ele>290.5</ele>
        <time>2015-11-11T11:40:26.981Z</time>
      </trkpt>
      <trkpt lat="45.95742" lon="4.91901">
        <ele>290.700012207</ele>
        <time>2015-11-11T11:40:27.963Z</time>
      </trkpt>
      <trkpt lat="45.95745" lon="4.91895">
        <ele>290.700012207</ele>
        <time>2015-11-11T11:40:28.979Z</time>
      </trkpt>
      <trkpt lat="45.95749" lon="4.91889">
        <ele>290.600006104</ele>
        <time>2015-11-11T11:40:29.964Z</time>
      </trkpt>
      <trkpt lat="45.95752" lon="4.91883">
        <ele>290.700012207</ele>
        <time>2015-11-11T11:40:30.98Z</time>
      </trkpt>
      <trkpt lat="45.95755" lon="4.91876">
        <ele>290.899993896</ele>
        <time>2015-11-11T11:40:31.963Z</time>
      </trkpt>
      <trkpt lat="45.95758" lon="4.91869">
        <ele>290.700012207</ele>
        <time>2015-11-11T11:40:32.981Z</time>
      </trkpt>
      <trkpt lat="45.95762" lon="4.91863">
        <ele>290.700012207</ele>
        <time>2015-11-11T11:40:33.963Z</time>
      </trkpt>
      <trkpt lat="45.95766" lon="4.91857">
        <ele>290.899993896</ele>
        <time>2015-11-11T11:40:34.979Z</time>
      </trkpt>
      <trkpt lat="45.95769" lon="4.91851">
        <ele>290.899993896</ele>
        <time>2015-11-11T11:40:35.964Z</time>
      </trkpt>
      <trkpt lat="45.95772" lon="4.91845">
        <ele>291.200012207</ele>
        <time>2015-11-11T11:40:36.978Z</time>
      </trkpt>
      <trkpt lat="45.95776" lon="4.9184">
        <ele>291.600006104</ele>
        <time>2015-11-11T11:40:37.963Z</time>
      </trkpt>
      <trkpt lat="45.95779" lon="4.91834">
        <ele>291.700012207</ele>
        <time>2015-11-11T11:40:38.981Z</time>
      </trkpt>
      <trkpt lat="45.95782" lon="4.91828">
        <ele>291.799987793</ele>
        <time>2015-11-11T11:40:39.966Z</time>
      </trkpt>
      <trkpt lat="45.95786" lon="4.91822">
        <ele>292</ele>
        <time>2015-11-11T11:40:40.979Z</time>
      </trkpt>
      <trkpt lat="45.95789" lon="4.91817">
        <ele>292.100006104</ele>
        <time>2015-11-11T11:40:41.963Z</time>
      </trkpt>
      <trkpt lat="45.95792" lon="4.91812">
        <ele>292.399993896</ele>
        <time>2015-11-11T11:40:42.977Z</time>
      </trkpt>
      <trkpt lat="45.95795" lon="4.91807">
        <ele>292.399993896</ele>
        <time>2015-11-11T11:40:43.963Z</time>
      </trkpt>
      <trkpt lat="45.95798" lon="4.91802">
        <ele>292.700012207</ele>
        <time>2015-11-11T11:40:44.99Z</time>
      </trkpt>
      <trkpt lat="45.95801" lon="4.91796">
        <ele>293</ele>
        <time>2015-11-11T11:40:45.963Z</time>
      </trkpt>
      <trkpt lat="45.95804" lon="4.91791">
        <ele>293.200012207</ele>
        <time>2015-11-11T11:40:46.979Z</time>
      </trkpt>
      <trkpt lat="45.95807" lon="4.91786">
        <ele>293.5</ele>
        <time>2015-11-11T11:40:47.963Z</time>
      </trkpt>
      <trkpt lat="45.95812" lon="4.91776">
        <ele>294.200012207</ele>
        <time>2015-11-11T11:40:49.991Z</time>
      </trkpt>
      <trkpt lat="45.95815" lon="4.91771">
        <ele>295.200012207</ele>
        <time>2015-11-11T11:40:50.966Z</time>
      </trkpt>
      <trkpt lat="45.9582" lon="4.91762">
        <ele>296.100006104</ele>
        <time>2015-11-11T11:40:52.978Z</time>
      </trkpt>
      <trkpt lat="45.95823" lon="4.91757">
        <ele>296.5</ele>
        <time>2015-11-11T11:40:53.963Z</time>
      </trkpt>
      <trkpt lat="45.95829" lon="4.91747">
        <ele>297</ele>
        <time>2015-11-11T11:40:55.987Z</time>
      </trkpt>
      <trkpt lat="45.95831" lon="4.91742">
        <ele>297.600006104</ele>
        <time>2015-11-11T11:40:56.969Z</time>
      </trkpt>
      <trkpt lat="45.95836" lon="4.91734">
        <ele>297.600006104</ele>
        <time>2015-11-11T11:40:58.979Z</time>
      </trkpt>
      <trkpt lat="45.95838" lon="4.91729">
        <ele>297.700012207</ele>
        <time>2015-11-11T11:40:59.964Z</time>
      </trkpt>
      <trkpt lat="45.9584" lon="4.91724">
        <ele>297.899993896</ele>
        <time>2015-11-11T11:41:00.992Z</time>
      </trkpt>
      <trkpt lat="45.95841" lon="4.91717">
        <ele>297.899993896</ele>
        <time>2015-11-11T11:41:01.964Z</time>
      </trkpt>
      <trkpt lat="45.95841" lon="4.91708">
        <ele>297.899993896</ele>
        <time>2015-11-11T11:41:02.982Z</time>
      </trkpt>
      <trkpt lat="45.95841" lon="4.917">
        <ele>297.899993896</ele>
        <time>2015-11-11T11:41:03.964Z</time>
      </trkpt>
      <trkpt lat="45.95841" lon="4.91692">
        <ele>297.700012207</ele>
        <time>2015-11-11T11:41:04.979Z</time>
      </trkpt>
      <trkpt lat="45.95842" lon="4.91684">
        <ele>297.700012207</ele>
        <time>2015-11-11T11:41:05.964Z</time>
      </trkpt>
      <trkpt lat="45.95842" lon="4.91676">
        <ele>297.600006104</ele>
        <time>2015-11-11T11:41:07.089Z</time>
      </trkpt>
      <trkpt lat="45.95842" lon="4.91668">
        <ele>297.299987793</ele>
        <time>2015-11-11T11:41:07.964Z</time>
      </trkpt>
      <trkpt lat="45.95842" lon="4.91659">
        <ele>296.799987793</ele>
        <time>2015-11-11T11:41:08.982Z</time>
      </trkpt>
      <trkpt lat="45.95843" lon="4.91651">
        <ele>296.5</ele>
        <time>2015-11-11T11:41:09.964Z</time>
      </trkpt>
      <trkpt lat="45.95842" lon="4.91642">
        <ele>296.5</ele>
        <time>2015-11-11T11:41:10.979Z</time>
      </trkpt>
      <trkpt lat="45.95843" lon="4.91634">
        <ele>296.799987793</ele>
        <time>2015-11-11T11:41:11.977Z</time>
      </trkpt>
      <trkpt lat="45.95843" lon="4.91625">
        <ele>296.799987793</ele>
        <time>2015-11-11T11:41:12.978Z</time>
      </trkpt>
      <trkpt lat="45.95844" lon="4.91617">
        <ele>296.799987793</ele>
        <time>2015-11-11T11:41:13.964Z</time>
      </trkpt>
      <trkpt lat="45.95844" lon="4.91608">
        <ele>296.799987793</ele>
        <time>2015-11-11T11:41:14.981Z</time>
      </trkpt>
      <trkpt lat="45.95845" lon="4.916">
        <ele>296.399993896</ele>
        <time>2015-11-11T11:41:15.964Z</time>
      </trkpt>
      <trkpt lat="45.95845" lon="4.91591">
        <ele>296.200012207</ele>
        <time>2015-11-11T11:41:16.979Z</time>
      </trkpt>
      <trkpt lat="45.95846" lon="4.91582">
        <ele>296</ele>
        <time>2015-11-11T11:41:17.964Z</time>
      </trkpt>
      <trkpt lat="45.95847" lon="4.91573">
        <ele>295.700012207</ele>
        <time>2015-11-11T11:41:18.979Z</time>
      </trkpt>
      <trkpt lat="45.95847" lon="4.91564">
        <ele>295.700012207</ele>
        <time>2015-11-11T11:41:19.964Z</time>
      </trkpt>
      <trkpt lat="45.95848" lon="4.91556">
        <ele>295.600006104</ele>
        <time>2015-11-11T11:41:20.981Z</time>
      </trkpt>
      <trkpt lat="45.95849" lon="4.91547">
        <ele>294.899993896</ele>
        <time>2015-11-11T11:41:21.963Z</time>
      </trkpt>
      <trkpt lat="45.95849" lon="4.91539">
        <ele>294.5</ele>
        <time>2015-11-11T11:41:22.982Z</time>
      </trkpt>
      <trkpt lat="45.9585" lon="4.91531">
        <ele>294.200012207</ele>
        <time>2015-11-11T11:41:23.964Z</time>
      </trkpt>
      <trkpt lat="45.9585" lon="4.91523">
        <ele>294</ele>
        <time>2015-11-11T11:41:24.978Z</time>
      </trkpt>
      <trkpt lat="45.95851" lon="4.91516">
        <ele>293.700012207</ele>
        <time>2015-11-11T11:41:25.964Z</time>
      </trkpt>
      <trkpt lat="45.95851" lon="4.91507">
        <ele>293.600006104</ele>
        <time>2015-11-11T11:41:26.996Z</time>
      </trkpt>
      <trkpt lat="45.9585" lon="4.91498">
        <ele>293.200012207</ele>
        <time>2015-11-11T11:41:27.964Z</time>
      </trkpt>
      <trkpt lat="45.95851" lon="4.9149">
        <ele>292.799987793</ele>
        <time>2015-11-11T11:41:28.98Z</time>
      </trkpt>
      <trkpt lat="45.95851" lon="4.91482">
        <ele>292.399993896</ele>
        <time>2015-11-11T11:41:29.964Z</time>
      </trkpt>
      <trkpt lat="45.95851" lon="4.91474">
        <ele>292.200012207</ele>
        <time>2015-11-11T11:41:30.978Z</time>
      </trkpt>
      <trkpt lat="45.95851" lon="4.91466">
        <ele>292</ele>
        <time>2015-11-11T11:41:31.964Z</time>
      </trkpt>
      <trkpt lat="45.95851" lon="4.91458">
        <ele>291.5</ele>
        <time>2015-11-11T11:41:32.981Z</time>
      </trkpt>
      <trkpt lat="45.95851" lon="4.91449">
        <ele>291.5</ele>
        <time>2015-11-11T11:41:33.964Z</time>
      </trkpt>
      <trkpt lat="45.9585" lon="4.9144">
        <ele>291.200012207</ele>
        <time>2015-11-11T11:41:34.979Z</time>
      </trkpt>
      <trkpt lat="45.9585" lon="4.91431">
        <ele>290.899993896</ele>
        <time>2015-11-11T11:41:35.964Z</time>
      </trkpt>
      <trkpt lat="45.95851" lon="4.91422">
        <ele>290.799987793</ele>
        <time>2015-11-11T11:41:36.978Z</time>
      </trkpt>
      <trkpt lat="45.95852" lon="4.91414">
        <ele>290.899993896</ele>
        <time>2015-11-11T11:41:37.964Z</time>
      </trkpt>
      <trkpt lat="45.95853" lon="4.91405">
        <ele>290.799987793</ele>
        <time>2015-11-11T11:41:38.997Z</time>
      </trkpt>
      <trkpt lat="45.95853" lon="4.91396">
        <ele>291.200012207</ele>
        <time>2015-11-11T11:41:39.966Z</time>
      </trkpt>
      <trkpt lat="45.95853" lon="4.91389">
        <ele>291.600006104</ele>
        <time>2015-11-11T11:41:40.98Z</time>
      </trkpt>
      <trkpt lat="45.95854" lon="4.9138">
        <ele>291.899993896</ele>
        <time>2015-11-11T11:41:41.989Z</time>
      </trkpt>
      <trkpt lat="45.95855" lon="4.91372">
        <ele>291.899993896</ele>
        <time>2015-11-11T11:41:42.978Z</time>
      </trkpt>
      <trkpt lat="45.95855" lon="4.91363">
        <ele>292.200012207</ele>
        <time>2015-11-11T11:41:43.964Z</time>
      </trkpt>
      <trkpt lat="45.95855" lon="4.91355">
        <ele>292</ele>
        <time>2015-11-11T11:41:44.982Z</time>
      </trkpt>
      <trkpt lat="45.95856" lon="4.91347">
        <ele>291.899993896</ele>
        <time>2015-11-11T11:41:45.964Z</time>
      </trkpt>
      <trkpt lat="45.95856" lon="4.91339">
        <ele>291.700012207</ele>
        <time>2015-11-11T11:41:46.979Z</time>
      </trkpt>
      <trkpt lat="45.95857" lon="4.9133">
        <ele>291.700012207</ele>
        <time>2015-11-11T11:41:47.964Z</time>
      </trkpt>
      <trkpt lat="45.95857" lon="4.91323">
        <ele>291.899993896</ele>
        <time>2015-11-11T11:41:48.982Z</time>
      </trkpt>
      <trkpt lat="45.95857" lon="4.91315">
        <ele>291.899993896</ele>
        <time>2015-11-11T11:41:49.963Z</time>
      </trkpt>
      <trkpt lat="45.95858" lon="4.91307">
        <ele>291.899993896</ele>
        <time>2015-11-11T11:41:51.096Z</time>
      </trkpt>
      <trkpt lat="45.95858" lon="4.913">
        <ele>292</ele>
        <time>2015-11-11T11:41:51.964Z</time>
      </trkpt>
      <trkpt lat="45.95858" lon="4.91294">
        <ele>292.100006104</ele>
        <time>2015-11-11T11:41:52.979Z</time>
      </trkpt>
      <trkpt lat="45.95858" lon="4.91287">
        <ele>292.100006104</ele>
        <time>2015-11-11T11:41:53.964Z</time>
      </trkpt>
      <trkpt lat="45.95858" lon="4.9128">
        <ele>292.200012207</ele>
        <time>2015-11-11T11:41:54.978Z</time>
      </trkpt>
      <trkpt lat="45.95858" lon="4.91273">
        <ele>292.700012207</ele>
        <time>2015-11-11T11:41:55.964Z</time>
      </trkpt>
      <trkpt lat="45.95858" lon="4.91266">
        <ele>292.799987793</ele>
        <time>2015-11-11T11:41:56.981Z</time>
      </trkpt>
      <trkpt lat="45.95858" lon="4.91258">
        <ele>293.100006104</ele>
        <time>2015-11-11T11:41:57.964Z</time>
      </trkpt>
      <trkpt lat="45.95858" lon="4.91251">
        <ele>292.799987793</ele>
        <time>2015-11-11T11:41:58.98Z</time>
      </trkpt>
      <trkpt lat="45.95859" lon="4.91245">
        <ele>293.100006104</ele>
        <time>2015-11-11T11:41:59.964Z</time>
      </trkpt>
      <trkpt lat="45.95859" lon="4.91238">
        <ele>293.299987793</ele>
        <time>2015-11-11T11:42:00.992Z</time>
      </trkpt>
      <trkpt lat="45.9586" lon="4.9123">
        <ele>293.799987793</ele>
        <time>2015-11-11T11:42:01.963Z</time>
      </trkpt>
      <trkpt lat="45.9586" lon="4.91223">
        <ele>294</ele>
        <time>2015-11-11T11:42:02.983Z</time>
      </trkpt>
      <trkpt lat="45.9586" lon="4.91215">
        <ele>294.299987793</ele>
        <time>2015-11-11T11:42:03.964Z</time>
      </trkpt>
      <trkpt lat="45.9586" lon="4.91206">
        <ele>294.200012207</ele>
        <time>2015-11-11T11:42:04.979Z</time>
      </trkpt>
      <trkpt lat="45.9586" lon="4.91198">
        <ele>294.100006104</ele>
        <time>2015-11-11T11:42:05.963Z</time>
      </trkpt>
      <trkpt lat="45.95861" lon="4.91189">
        <ele>293.700012207</ele>
        <time>2015-11-11T11:42:06.978Z</time>
      </trkpt>
      <trkpt lat="45.95861" lon="4.91181">
        <ele>293.600006104</ele>
        <time>2015-11-11T11:42:07.963Z</time>
      </trkpt>
      <trkpt lat="45.95862" lon="4.91174">
        <ele>293.5</ele>
        <time>2015-11-11T11:42:08.982Z</time>
      </trkpt>
      <trkpt lat="45.95863" lon="4.91165">
        <ele>292.899993896</ele>
        <time>2015-11-11T11:42:09.964Z</time>
      </trkpt>
      <trkpt lat="45.95864" lon="4.91157">
        <ele>292.899993896</ele>
        <time>2015-11-11T11:42:10.98Z</time>
      </trkpt>
      <trkpt lat="45.95865" lon="4.91149">
        <ele>292.799987793</ele>
        <time>2015-11-11T11:42:11.964Z</time>
      </trkpt>
      <trkpt lat="45.95866" lon="4.9114">
        <ele>292.600006104</ele>
        <time>2015-11-11T11:42:12.978Z</time>
      </trkpt>
      <trkpt lat="45.95866" lon="4.91132">
        <ele>292.5</ele>
        <time>2015-11-11T11:42:13.963Z</time>
      </trkpt>
      <trkpt lat="45.95866" lon="4.91124">
        <ele>292.700012207</ele>
        <time>2015-11-11T11:42:14.984Z</time>
      </trkpt>
      <trkpt lat="45.95867" lon="4.91117">
        <ele>292.700012207</ele>
        <time>2015-11-11T11:42:15.964Z</time>
      </trkpt>
      <trkpt lat="45.95867" lon="4.91109">
        <ele>292.899993896</ele>
        <time>2015-11-11T11:42:16.994Z</time>
      </trkpt>
      <trkpt lat="45.95868" lon="4.91101">
        <ele>293.200012207</ele>
        <time>2015-11-11T11:42:17.964Z</time>
      </trkpt>
      <trkpt lat="45.95868" lon="4.91093">
        <ele>293.100006104</ele>
        <time>2015-11-11T11:42:18.987Z</time>
      </trkpt>
      <trkpt lat="45.95869" lon="4.91086">
        <ele>293.399993896</ele>
        <time>2015-11-11T11:42:19.964Z</time>
      </trkpt>
      <trkpt lat="45.95869" lon="4.91078">
        <ele>293.399993896</ele>
        <time>2015-11-11T11:42:20.982Z</time>
      </trkpt>
      <trkpt lat="45.9587" lon="4.9107">
        <ele>293.399993896</ele>
        <time>2015-11-11T11:42:21.963Z</time>
      </trkpt>
      <trkpt lat="45.95869" lon="4.91063">
        <ele>293.700012207</ele>
        <time>2015-11-11T11:42:22.979Z</time>
      </trkpt>
      <trkpt lat="45.9587" lon="4.91056">
        <ele>293.899993896</ele>
        <time>2015-11-11T11:42:23.963Z</time>
      </trkpt>
      <trkpt lat="45.9587" lon="4.91048">
        <ele>293.799987793</ele>
        <time>2015-11-11T11:42:24.978Z</time>
      </trkpt>
      <trkpt lat="45.9587" lon="4.9104">
        <ele>293.899993896</ele>
        <time>2015-11-11T11:42:25.963Z</time>
      </trkpt>
      <trkpt lat="45.9587" lon="4.91033">
        <ele>294.5</ele>
        <time>2015-11-11T11:42:26.981Z</time>
      </trkpt>
      <trkpt lat="45.9587" lon="4.91025">
        <ele>294.799987793</ele>
        <time>2015-11-11T11:42:27.964Z</time>
      </trkpt>
      <trkpt lat="45.9587" lon="4.91018">
        <ele>295.399993896</ele>
        <time>2015-11-11T11:42:28.981Z</time>
      </trkpt>
      <trkpt lat="45.9587" lon="4.9101">
        <ele>295.600006104</ele>
        <time>2015-11-11T11:42:29.963Z</time>
      </trkpt>
      <trkpt lat="45.9587" lon="4.91001">
        <ele>295.799987793</ele>
        <time>2015-11-11T11:42:30.978Z</time>
      </trkpt>
      <trkpt lat="45.9587" lon="4.90993">
        <ele>295.700012207</ele>
        <time>2015-11-11T11:42:31.963Z</time>
      </trkpt>
      <trkpt lat="45.9587" lon="4.90985">
        <ele>295.600006104</ele>
        <time>2015-11-11T11:42:32.981Z</time>
      </trkpt>
      <trkpt lat="45.9587" lon="4.90976">
        <ele>295.100006104</ele>
        <time>2015-11-11T11:42:33.963Z</time>
      </trkpt>
      <trkpt lat="45.95871" lon="4.90968">
        <ele>294.899993896</ele>
        <time>2015-11-11T11:42:34.979Z</time>
      </trkpt>
      <trkpt lat="45.95871" lon="4.90958">
        <ele>294.700012207</ele>
        <time>2015-11-11T11:42:35.964Z</time>
      </trkpt>
      <trkpt lat="45.95871" lon="4.9095">
        <ele>294.700012207</ele>
        <time>2015-11-11T11:42:36.978Z</time>
      </trkpt>
      <trkpt lat="45.95872" lon="4.90941">
        <ele>294.399993896</ele>
        <time>2015-11-11T11:42:37.964Z</time>
      </trkpt>
      <trkpt lat="45.95872" lon="4.90934">
        <ele>293.799987793</ele>
        <time>2015-11-11T11:42:38.988Z</time>
      </trkpt>
      <trkpt lat="45.95872" lon="4.90926">
        <ele>293.399993896</ele>
        <time>2015-11-11T11:42:39.966Z</time>
      </trkpt>
      <trkpt lat="45.95872" lon="4.90919">
        <ele>293</ele>
        <time>2015-11-11T11:42:40.982Z</time>
      </trkpt>
      <trkpt lat="45.95872" lon="4.90911">
        <ele>292.700012207</ele>
        <time>2015-11-11T11:42:41.963Z</time>
      </trkpt>
      <trkpt lat="45.95873" lon="4.90904">
        <ele>292.5</ele>
        <time>2015-11-11T11:42:42.978Z</time>
      </trkpt>
      <trkpt lat="45.95873" lon="4.90897">
        <ele>292.200012207</ele>
        <time>2015-11-11T11:42:43.963Z</time>
      </trkpt>
      <trkpt lat="45.95872" lon="4.90889">
        <ele>291.600006104</ele>
        <time>2015-11-11T11:42:45.008Z</time>
      </trkpt>
      <trkpt lat="45.95873" lon="4.90882">
        <ele>291.100006104</ele>
        <time>2015-11-11T11:42:45.964Z</time>
      </trkpt>
      <trkpt lat="45.95873" lon="4.90874">
        <ele>290.700012207</ele>
        <time>2015-11-11T11:42:46.979Z</time>
      </trkpt>
      <trkpt lat="45.95873" lon="4.90867">
        <ele>290.600006104</ele>
        <time>2015-11-11T11:42:47.964Z</time>
      </trkpt>
      <trkpt lat="45.95874" lon="4.90859">
        <ele>290.600006104</ele>
        <time>2015-11-11T11:42:48.993Z</time>
      </trkpt>
      <trkpt lat="45.95874" lon="4.90851">
        <ele>290.700012207</ele>
        <time>2015-11-11T11:42:49.963Z</time>
      </trkpt>
      <trkpt lat="45.95874" lon="4.90844">
        <ele>290.5</ele>
        <time>2015-11-11T11:42:50.981Z</time>
      </trkpt>
      <trkpt lat="45.95874" lon="4.90836">
        <ele>290.5</ele>
        <time>2015-11-11T11:42:51.963Z</time>
      </trkpt>
      <trkpt lat="45.95875" lon="4.90828">
        <ele>290.299987793</ele>
        <time>2015-11-11T11:42:52.979Z</time>
      </trkpt>
      <trkpt lat="45.95875" lon="4.9082">
        <ele>290.200012207</ele>
        <time>2015-11-11T11:42:53.963Z</time>
      </trkpt>
      <trkpt lat="45.95876" lon="4.90812">
        <ele>290.200012207</ele>
        <time>2015-11-11T11:42:54.978Z</time>
      </trkpt>
      <trkpt lat="45.95876" lon="4.90804">
        <ele>290</ele>
        <time>2015-11-11T11:42:55.964Z</time>
      </trkpt>
      <trkpt lat="45.95876" lon="4.90796">
        <ele>290</ele>
        <time>2015-11-11T11:42:56.981Z</time>
      </trkpt>
      <trkpt lat="45.95876" lon="4.90788">
        <ele>290</ele>
        <time>2015-11-11T11:42:57.963Z</time>
      </trkpt>
      <trkpt lat="45.95876" lon="4.9078">
        <ele>289.899993896</ele>
        <time>2015-11-11T11:42:59.008Z</time>
      </trkpt>
      <trkpt lat="45.95877" lon="4.90771">
        <ele>289.899993896</ele>
        <time>2015-11-11T11:42:59.964Z</time>
      </trkpt>
      <trkpt lat="45.95877" lon="4.90764">
        <ele>289.799987793</ele>
        <time>2015-11-11T11:43:00.985Z</time>
      </trkpt>
      <trkpt lat="45.95877" lon="4.90756">
        <ele>289.700012207</ele>
        <time>2015-11-11T11:43:01.964Z</time>
      </trkpt>
      <trkpt lat="45.95878" lon="4.90748">
        <ele>289.700012207</ele>
        <time>2015-11-11T11:43:02.981Z</time>
      </trkpt>
      <trkpt lat="45.95878" lon="4.90739">
        <ele>289.5</ele>
        <time>2015-11-11T11:43:03.964Z</time>
      </trkpt>
      <trkpt lat="45.95878" lon="4.90731">
        <ele>289.399993896</ele>
        <time>2015-11-11T11:43:04.992Z</time>
      </trkpt>
      <trkpt lat="45.95878" lon="4.90723">
        <ele>289.200012207</ele>
        <time>2015-11-11T11:43:05.963Z</time>
      </trkpt>
      <trkpt lat="45.95878" lon="4.90715">
        <ele>289</ele>
        <time>2015-11-11T11:43:06.98Z</time>
      </trkpt>
      <trkpt lat="45.95878" lon="4.90707">
        <ele>289</ele>
        <time>2015-11-11T11:43:07.963Z</time>
      </trkpt>
      <trkpt lat="45.95878" lon="4.90699">
        <ele>288.899993896</ele>
        <time>2015-11-11T11:43:08.983Z</time>
      </trkpt>
      <trkpt lat="45.95879" lon="4.9069">
        <ele>288.899993896</ele>
        <time>2015-11-11T11:43:09.963Z</time>
      </trkpt>
      <trkpt lat="45.95879" lon="4.90682">
        <ele>288.799987793</ele>
        <time>2015-11-11T11:43:10.979Z</time>
      </trkpt>
      <trkpt lat="45.9588" lon="4.90675">
        <ele>288.799987793</ele>
        <time>2015-11-11T11:43:11.963Z</time>
      </trkpt>
      <trkpt lat="45.9588" lon="4.90667">
        <ele>288.700012207</ele>
        <time>2015-11-11T11:43:12.978Z</time>
      </trkpt>
      <trkpt lat="45.9588" lon="4.9066">
        <ele>288.700012207</ele>
        <time>2015-11-11T11:43:13.963Z</time>
      </trkpt>
      <trkpt lat="45.95881" lon="4.90653">
        <ele>288.700012207</ele>
        <time>2015-11-11T11:43:14.981Z</time>
      </trkpt>
      <trkpt lat="45.95881" lon="4.90645">
        <ele>288.700012207</ele>
        <time>2015-11-11T11:43:15.963Z</time>
      </trkpt>
      <trkpt lat="45.95881" lon="4.90638">
        <ele>288.600006104</ele>
        <time>2015-11-11T11:43:16.979Z</time>
      </trkpt>
      <trkpt lat="45.95881" lon="4.90631">
        <ele>288.600006104</ele>
        <time>2015-11-11T11:43:17.963Z</time>
      </trkpt>
      <trkpt lat="45.95882" lon="4.90623">
        <ele>288.5</ele>
        <time>2015-11-11T11:43:18.98Z</time>
      </trkpt>
      <trkpt lat="45.95882" lon="4.90615">
        <ele>288.399993896</ele>
        <time>2015-11-11T11:43:19.963Z</time>
      </trkpt>
      <trkpt lat="45.95882" lon="4.90608">
        <ele>288.399993896</ele>
        <time>2015-11-11T11:43:20.995Z</time>
      </trkpt>
      <trkpt lat="45.95882" lon="4.906">
        <ele>288.200012207</ele>
        <time>2015-11-11T11:43:21.963Z</time>
      </trkpt>
      <trkpt lat="45.95883" lon="4.90593">
        <ele>288.100006104</ele>
        <time>2015-11-11T11:43:22.979Z</time>
      </trkpt>
      <trkpt lat="45.95883" lon="4.90585">
        <ele>288</ele>
        <time>2015-11-11T11:43:23.963Z</time>
      </trkpt>
      <trkpt lat="45.95883" lon="4.90577">
        <ele>287.899993896</ele>
        <time>2015-11-11T11:43:24.978Z</time>
      </trkpt>
      <trkpt lat="45.95884" lon="4.90569">
        <ele>287.799987793</ele>
        <time>2015-11-11T11:43:25.963Z</time>
      </trkpt>
      <trkpt lat="45.95884" lon="4.9056">
        <ele>287.799987793</ele>
        <time>2015-11-11T11:43:26.981Z</time>
      </trkpt>
      <trkpt lat="45.95884" lon="4.90552">
        <ele>287.600006104</ele>
        <time>2015-11-11T11:43:27.963Z</time>
      </trkpt>
      <trkpt lat="45.95885" lon="4.90544">
        <ele>287.600006104</ele>
        <time>2015-11-11T11:43:28.981Z</time>
      </trkpt>
      <trkpt lat="45.95885" lon="4.90536">
        <ele>287.399993896</ele>
        <time>2015-11-11T11:43:29.963Z</time>
      </trkpt>
      <trkpt lat="45.95885" lon="4.90527">
        <ele>287.299987793</ele>
        <time>2015-11-11T11:43:30.978Z</time>
      </trkpt>
      <trkpt lat="45.95885" lon="4.90519">
        <ele>287.299987793</ele>
        <time>2015-11-11T11:43:31.964Z</time>
      </trkpt>
      <trkpt lat="45.95886" lon="4.9051">
        <ele>287.200012207</ele>
        <time>2015-11-11T11:43:32.983Z</time>
      </trkpt>
      <trkpt lat="45.95886" lon="4.90502">
        <ele>287.200012207</ele>
        <time>2015-11-11T11:43:33.963Z</time>
      </trkpt>
      <trkpt lat="45.95887" lon="4.90493">
        <ele>287.200012207</ele>
        <time>2015-11-11T11:43:34.979Z</time>
      </trkpt>
      <trkpt lat="45.95887" lon="4.90485">
        <ele>287.299987793</ele>
        <time>2015-11-11T11:43:35.963Z</time>
      </trkpt>
      <trkpt lat="45.95888" lon="4.90476">
        <ele>287.299987793</ele>
        <time>2015-11-11T11:43:36.992Z</time>
      </trkpt>
      <trkpt lat="45.95888" lon="4.90468">
        <ele>287.5</ele>
        <time>2015-11-11T11:43:37.963Z</time>
      </trkpt>
      <trkpt lat="45.95888" lon="4.9046">
        <ele>287.600006104</ele>
        <time>2015-11-11T11:43:39.008Z</time>
      </trkpt>
      <trkpt lat="45.95889" lon="4.90453">
        <ele>287.899993896</ele>
        <time>2015-11-11T11:43:39.966Z</time>
      </trkpt>
      <trkpt lat="45.9589" lon="4.90446">
        <ele>288.100006104</ele>
        <time>2015-11-11T11:43:40.979Z</time>
      </trkpt>
      <trkpt lat="45.9589" lon="4.90439">
        <ele>288.299987793</ele>
        <time>2015-11-11T11:43:41.963Z</time>
      </trkpt>
      <trkpt lat="45.95891" lon="4.90432">
        <ele>288.600006104</ele>
        <time>2015-11-11T11:43:42.978Z</time>
      </trkpt>
      <trkpt lat="45.95891" lon="4.90425">
        <ele>289</ele>
        <time>2015-11-11T11:43:43.963Z</time>
      </trkpt>
      <trkpt lat="45.95891" lon="4.90418">
        <ele>289.299987793</ele>
        <time>2015-11-11T11:43:44.981Z</time>
      </trkpt>
      <trkpt lat="45.95891" lon="4.90411">
        <ele>289.399993896</ele>
        <time>2015-11-11T11:43:45.963Z</time>
      </trkpt>
      <trkpt lat="45.95892" lon="4.90404">
        <ele>289.399993896</ele>
        <time>2015-11-11T11:43:47.008Z</time>
      </trkpt>
      <trkpt lat="45.95892" lon="4.90396">
        <ele>289.399993896</ele>
        <time>2015-11-11T11:43:47.963Z</time>
      </trkpt>
      <trkpt lat="45.95892" lon="4.90388">
        <ele>289.799987793</ele>
        <time>2015-11-11T11:43:48.979Z</time>
      </trkpt>
      <trkpt lat="45.95893" lon="4.90381">
        <ele>290.100006104</ele>
        <time>2015-11-11T11:43:49.963Z</time>
      </trkpt>
      <trkpt lat="45.95893" lon="4.90373">
        <ele>290.100006104</ele>
        <time>2015-11-11T11:43:50.981Z</time>
      </trkpt>
      <trkpt lat="45.95893" lon="4.90365">
        <ele>290.5</ele>
        <time>2015-11-11T11:43:51.963Z</time>
      </trkpt>
      <trkpt lat="45.95894" lon="4.90357">
        <ele>290.899993896</ele>
        <time>2015-11-11T11:43:53.002Z</time>
      </trkpt>
      <trkpt lat="45.95894" lon="4.90349">
        <ele>290.899993896</ele>
        <time>2015-11-11T11:43:53.963Z</time>
      </trkpt>
      <trkpt lat="45.95894" lon="4.9034">
        <ele>291</ele>
        <time>2015-11-11T11:43:54.978Z</time>
      </trkpt>
      <trkpt lat="45.95894" lon="4.90331">
        <ele>291.200012207</ele>
        <time>2015-11-11T11:43:55.963Z</time>
      </trkpt>
      <trkpt lat="45.95895" lon="4.90322">
        <ele>291.5</ele>
        <time>2015-11-11T11:43:56.981Z</time>
      </trkpt>
      <trkpt lat="45.95895" lon="4.90313">
        <ele>291.700012207</ele>
        <time>2015-11-11T11:43:57.963Z</time>
      </trkpt>
      <trkpt lat="45.95895" lon="4.90305">
        <ele>291.700012207</ele>
        <time>2015-11-11T11:43:58.982Z</time>
      </trkpt>
      <trkpt lat="45.95895" lon="4.90297">
        <ele>291.700012207</ele>
        <time>2015-11-11T11:43:59.963Z</time>
      </trkpt>
      <trkpt lat="45.95895" lon="4.90289">
        <ele>291.799987793</ele>
        <time>2015-11-11T11:44:00.978Z</time>
      </trkpt>
      <trkpt lat="45.95896" lon="4.9028">
        <ele>291.700012207</ele>
        <time>2015-11-11T11:44:01.963Z</time>
      </trkpt>
      <trkpt lat="45.95896" lon="4.90273">
        <ele>291.799987793</ele>
        <time>2015-11-11T11:44:02.985Z</time>
      </trkpt>
      <trkpt lat="45.95897" lon="4.90266">
        <ele>291.799987793</ele>
        <time>2015-11-11T11:44:03.963Z</time>
      </trkpt>
      <trkpt lat="45.95897" lon="4.90258">
        <ele>291.799987793</ele>
        <time>2015-11-11T11:44:04.979Z</time>
      </trkpt>
      <trkpt lat="45.95898" lon="4.9025">
        <ele>291.200012207</ele>
        <time>2015-11-11T11:44:05.963Z</time>
      </trkpt>
      <trkpt lat="45.95898" lon="4.90241">
        <ele>290.700012207</ele>
        <time>2015-11-11T11:44:06.977Z</time>
      </trkpt>
      <trkpt lat="45.95899" lon="4.90232">
        <ele>290.600006104</ele>
        <time>2015-11-11T11:44:07.963Z</time>
      </trkpt>
      <trkpt lat="45.95898" lon="4.90223">
        <ele>290.5</ele>
        <time>2015-11-11T11:44:08.982Z</time>
      </trkpt>
      <trkpt lat="45.95898" lon="4.90214">
        <ele>290.299987793</ele>
        <time>2015-11-11T11:44:09.963Z</time>
      </trkpt>
      <trkpt lat="45.95899" lon="4.90204">
        <ele>290.200012207</ele>
        <time>2015-11-11T11:44:10.979Z</time>
      </trkpt>
      <trkpt lat="45.95899" lon="4.90196">
        <ele>290.100006104</ele>
        <time>2015-11-11T11:44:11.963Z</time>
      </trkpt>
      <trkpt lat="45.95899" lon="4.90187">
        <ele>289.700012207</ele>
        <time>2015-11-11T11:44:12.982Z</time>
      </trkpt>
      <trkpt lat="45.95899" lon="4.90178">
        <ele>289.399993896</ele>
        <time>2015-11-11T11:44:13.963Z</time>
      </trkpt>
      <trkpt lat="45.95899" lon="4.9017">
        <ele>289.200012207</ele>
        <time>2015-11-11T11:44:14.981Z</time>
      </trkpt>
      <trkpt lat="45.95899" lon="4.90161">
        <ele>288.899993896</ele>
        <time>2015-11-11T11:44:15.963Z</time>
      </trkpt>
      <trkpt lat="45.95899" lon="4.90154">
        <ele>288.600006104</ele>
        <time>2015-11-11T11:44:16.979Z</time>
      </trkpt>
      <trkpt lat="45.95899" lon="4.90146">
        <ele>288.200012207</ele>
        <time>2015-11-11T11:44:17.963Z</time>
      </trkpt>
      <trkpt lat="45.95899" lon="4.90138">
        <ele>288.5</ele>
        <time>2015-11-11T11:44:18.98Z</time>
      </trkpt>
      <trkpt lat="45.95899" lon="4.90129">
        <ele>288.700012207</ele>
        <time>2015-11-11T11:44:19.963Z</time>
      </trkpt>
      <trkpt lat="45.95899" lon="4.90121">
        <ele>288.700012207</ele>
        <time>2015-11-11T11:44:20.981Z</time>
      </trkpt>
      <trkpt lat="45.95899" lon="4.90113">
        <ele>288.5</ele>
        <time>2015-11-11T11:44:21.963Z</time>
      </trkpt>
      <trkpt lat="45.95899" lon="4.90104">
        <ele>288.600006104</ele>
        <time>2015-11-11T11:44:22.979Z</time>
      </trkpt>
      <trkpt lat="45.95899" lon="4.90096">
        <ele>288.799987793</ele>
        <time>2015-11-11T11:44:23.963Z</time>
      </trkpt>
      <trkpt lat="45.95899" lon="4.90087">
        <ele>289</ele>
        <time>2015-11-11T11:44:24.98Z</time>
      </trkpt>
      <trkpt lat="45.95899" lon="4.90079">
        <ele>288.799987793</ele>
        <time>2015-11-11T11:44:25.963Z</time>
      </trkpt>
      <trkpt lat="45.95899" lon="4.9007">
        <ele>288.799987793</ele>
        <time>2015-11-11T11:44:27.091Z</time>
      </trkpt>
      <trkpt lat="45.95899" lon="4.90061">
        <ele>288.299987793</ele>
        <time>2015-11-11T11:44:27.963Z</time>
      </trkpt>
      <trkpt lat="45.95899" lon="4.90052">
        <ele>287.799987793</ele>
        <time>2015-11-11T11:44:28.981Z</time>
      </trkpt>
      <trkpt lat="45.95898" lon="4.90043">
        <ele>287.600006104</ele>
        <time>2015-11-11T11:44:29.965Z</time>
      </trkpt>
      <trkpt lat="45.95898" lon="4.90034">
        <ele>287.399993896</ele>
        <time>2015-11-11T11:44:31.04Z</time>
      </trkpt>
      <trkpt lat="45.95897" lon="4.90027">
        <ele>287.200012207</ele>
        <time>2015-11-11T11:44:31.964Z</time>
      </trkpt>
      <trkpt lat="45.95897" lon="4.90019">
        <ele>286.700012207</ele>
        <time>2015-11-11T11:44:32.983Z</time>
      </trkpt>
      <trkpt lat="45.95897" lon="4.90011">
        <ele>286.600006104</ele>
        <time>2015-11-11T11:44:33.965Z</time>
      </trkpt>
      <trkpt lat="45.95896" lon="4.90003">
        <ele>286.299987793</ele>
        <time>2015-11-11T11:44:34.985Z</time>
      </trkpt>
      <trkpt lat="45.95896" lon="4.89995">
        <ele>286.399993896</ele>
        <time>2015-11-11T11:44:35.964Z</time>
      </trkpt>
      <trkpt lat="45.95896" lon="4.89987">
        <ele>286.100006104</ele>
        <time>2015-11-11T11:44:36.977Z</time>
      </trkpt>
      <trkpt lat="45.95895" lon="4.89978">
        <ele>285.799987793</ele>
        <time>2015-11-11T11:44:37.963Z</time>
      </trkpt>
      <trkpt lat="45.95896" lon="4.8997">
        <ele>285.799987793</ele>
        <time>2015-11-11T11:44:38.983Z</time>
      </trkpt>
      <trkpt lat="45.95896" lon="4.89962">
        <ele>285.5</ele>
        <time>2015-11-11T11:44:39.965Z</time>
      </trkpt>
      <trkpt lat="45.95896" lon="4.89953">
        <ele>285.299987793</ele>
        <time>2015-11-11T11:44:40.978Z</time>
      </trkpt>
      <trkpt lat="45.95896" lon="4.89945">
        <ele>285.399993896</ele>
        <time>2015-11-11T11:44:41.998Z</time>
      </trkpt>
      <trkpt lat="45.95896" lon="4.89936">
        <ele>285.799987793</ele>
        <time>2015-11-11T11:44:42.978Z</time>
      </trkpt>
      <trkpt lat="45.95897" lon="4.89927">
        <ele>286.200012207</ele>
        <time>2015-11-11T11:44:43.964Z</time>
      </trkpt>
      <trkpt lat="45.95896" lon="4.89919">
        <ele>285.600006104</ele>
        <time>2015-11-11T11:44:44.981Z</time>
      </trkpt>
      <trkpt lat="45.95897" lon="4.89911">
        <ele>286</ele>
        <time>2015-11-11T11:44:45.963Z</time>
      </trkpt>
      <trkpt lat="45.95896" lon="4.89903">
        <ele>286.100006104</ele>
        <time>2015-11-11T11:44:46.992Z</time>
      </trkpt>
      <trkpt lat="45.95896" lon="4.89895">
        <ele>286.200012207</ele>
        <time>2015-11-11T11:44:47.964Z</time>
      </trkpt>
      <trkpt lat="45.95896" lon="4.89887">
        <ele>286.299987793</ele>
        <time>2015-11-11T11:44:48.98Z</time>
      </trkpt>
      <trkpt lat="45.95896" lon="4.8988">
        <ele>286.399993896</ele>
        <time>2015-11-11T11:44:49.963Z</time>
      </trkpt>
      <trkpt lat="45.95896" lon="4.89873">
        <ele>286.5</ele>
        <time>2015-11-11T11:44:50.981Z</time>
      </trkpt>
      <trkpt lat="45.95896" lon="4.89866">
        <ele>286.600006104</ele>
        <time>2015-11-11T11:44:51.963Z</time>
      </trkpt>
      <trkpt lat="45.95895" lon="4.89858">
        <ele>286.600006104</ele>
        <time>2015-11-11T11:44:52.979Z</time>
      </trkpt>
      <trkpt lat="45.95895" lon="4.89851">
        <ele>286.600006104</ele>
        <time>2015-11-11T11:44:53.963Z</time>
      </trkpt>
      <trkpt lat="45.95895" lon="4.89843">
        <ele>286.600006104</ele>
        <time>2015-11-11T11:44:54.977Z</time>
      </trkpt>
      <trkpt lat="45.95895" lon="4.89836">
        <ele>286.5</ele>
        <time>2015-11-11T11:44:55.963Z</time>
      </trkpt>
      <trkpt lat="45.95895" lon="4.89828">
        <ele>286.5</ele>
        <time>2015-11-11T11:44:56.981Z</time>
      </trkpt>
      <trkpt lat="45.95895" lon="4.89821">
        <ele>286.399993896</ele>
        <time>2015-11-11T11:44:57.963Z</time>
      </trkpt>
      <trkpt lat="45.95894" lon="4.89813">
        <ele>286.299987793</ele>
        <time>2015-11-11T11:44:58.981Z</time>
      </trkpt>
      <trkpt lat="45.95894" lon="4.89805">
        <ele>286.200012207</ele>
        <time>2015-11-11T11:44:59.963Z</time>
      </trkpt>
      <trkpt lat="45.95894" lon="4.89796">
        <ele>286</ele>
        <time>2015-11-11T11:45:00.978Z</time>
      </trkpt>
      <trkpt lat="45.95894" lon="4.89788">
        <ele>285.899993896</ele>
        <time>2015-11-11T11:45:01.964Z</time>
      </trkpt>
      <trkpt lat="45.95894" lon="4.89779">
        <ele>285.799987793</ele>
        <time>2015-11-11T11:45:02.995Z</time>
      </trkpt>
      <trkpt lat="45.95894" lon="4.89771">
        <ele>285.799987793</ele>
        <time>2015-11-11T11:45:03.963Z</time>
      </trkpt>
      <trkpt lat="45.95893" lon="4.89762">
        <ele>286</ele>
        <time>2015-11-11T11:45:04.989Z</time>
      </trkpt>
      <trkpt lat="45.95893" lon="4.89754">
        <ele>285.899993896</ele>
        <time>2015-11-11T11:45:05.963Z</time>
      </trkpt>
      <trkpt lat="45.95893" lon="4.89746">
        <ele>285.899993896</ele>
        <time>2015-11-11T11:45:06.977Z</time>
      </trkpt>
      <trkpt lat="45.95893" lon="4.89738">
        <ele>285.899993896</ele>
        <time>2015-11-11T11:45:07.963Z</time>
      </trkpt>
      <trkpt lat="45.95893" lon="4.89731">
        <ele>286</ele>
        <time>2015-11-11T11:45:08.982Z</time>
      </trkpt>
      <trkpt lat="45.95893" lon="4.89723">
        <ele>285.899993896</ele>
        <time>2015-11-11T11:45:09.963Z</time>
      </trkpt>
      <trkpt lat="45.95893" lon="4.89716">
        <ele>285.799987793</ele>
        <time>2015-11-11T11:45:10.978Z</time>
      </trkpt>
      <trkpt lat="45.95893" lon="4.89709">
        <ele>285.799987793</ele>
        <time>2015-11-11T11:45:11.963Z</time>
      </trkpt>
      <trkpt lat="45.95892" lon="4.89702">
        <ele>285.799987793</ele>
        <time>2015-11-11T11:45:12.977Z</time>
      </trkpt>
      <trkpt lat="45.95892" lon="4.89694">
        <ele>285.700012207</ele>
        <time>2015-11-11T11:45:13.964Z</time>
      </trkpt>
      <trkpt lat="45.95892" lon="4.89687">
        <ele>285.399993896</ele>
        <time>2015-11-11T11:45:14.981Z</time>
      </trkpt>
      <trkpt lat="45.95892" lon="4.89679">
        <ele>285.200012207</ele>
        <time>2015-11-11T11:45:15.963Z</time>
      </trkpt>
      <trkpt lat="45.95892" lon="4.89671">
        <ele>285</ele>
        <time>2015-11-11T11:45:16.986Z</time>
      </trkpt>
      <trkpt lat="45.95892" lon="4.89662">
        <ele>284.799987793</ele>
        <time>2015-11-11T11:45:17.963Z</time>
      </trkpt>
      <trkpt lat="45.95892" lon="4.89654">
        <ele>284.600006104</ele>
        <time>2015-11-11T11:45:18.993Z</time>
      </trkpt>
      <trkpt lat="45.95892" lon="4.89646">
        <ele>284.600006104</ele>
        <time>2015-11-11T11:45:19.963Z</time>
      </trkpt>
      <trkpt lat="45.95892" lon="4.89638">
        <ele>284.399993896</ele>
        <time>2015-11-11T11:45:20.989Z</time>
      </trkpt>
      <trkpt lat="45.95892" lon="4.89629">
        <ele>284.299987793</ele>
        <time>2015-11-11T11:45:21.963Z</time>
      </trkpt>
      <trkpt lat="45.95892" lon="4.8962">
        <ele>284.200012207</ele>
        <time>2015-11-11T11:45:22.978Z</time>
      </trkpt>
      <trkpt lat="45.95892" lon="4.89611">
        <ele>284.100006104</ele>
        <time>2015-11-11T11:45:23.963Z</time>
      </trkpt>
      <trkpt lat="45.95891" lon="4.89603">
        <ele>283.899993896</ele>
        <time>2015-11-11T11:45:24.977Z</time>
      </trkpt>
      <trkpt lat="45.95891" lon="4.89594">
        <ele>283.799987793</ele>
        <time>2015-11-11T11:45:25.963Z</time>
      </trkpt>
      <trkpt lat="45.95891" lon="4.89586">
        <ele>283.600006104</ele>
        <time>2015-11-11T11:45:26.981Z</time>
      </trkpt>
      <trkpt lat="45.95891" lon="4.89577">
        <ele>283.600006104</ele>
        <time>2015-11-11T11:45:27.964Z</time>
      </trkpt>
      <trkpt lat="45.95891" lon="4.89569">
        <ele>283.600006104</ele>
        <time>2015-11-11T11:45:28.98Z</time>
      </trkpt>
      <trkpt lat="45.9589" lon="4.89561">
        <ele>283.5</ele>
        <time>2015-11-11T11:45:29.963Z</time>
      </trkpt>
      <trkpt lat="45.9589" lon="4.89552">
        <ele>283.399993896</ele>
        <time>2015-11-11T11:45:30.978Z</time>
      </trkpt>
      <trkpt lat="45.9589" lon="4.89544">
        <ele>283.299987793</ele>
        <time>2015-11-11T11:45:31.963Z</time>
      </trkpt>
      <trkpt lat="45.9589" lon="4.89535">
        <ele>283.200012207</ele>
        <time>2015-11-11T11:45:32.981Z</time>
      </trkpt>
      <trkpt lat="45.9589" lon="4.89527">
        <ele>283</ele>
        <time>2015-11-11T11:45:33.963Z</time>
      </trkpt>
      <trkpt lat="45.9589" lon="4.89518">
        <ele>282.899993896</ele>
        <time>2015-11-11T11:45:34.979Z</time>
      </trkpt>
      <trkpt lat="45.9589" lon="4.89509">
        <ele>282.799987793</ele>
        <time>2015-11-11T11:45:35.963Z</time>
      </trkpt>
      <trkpt lat="45.9589" lon="4.895">
        <ele>282.799987793</ele>
        <time>2015-11-11T11:45:37.016Z</time>
      </trkpt>
      <trkpt lat="45.95889" lon="4.89491">
        <ele>282.700012207</ele>
        <time>2015-11-11T11:45:37.963Z</time>
      </trkpt>
      <trkpt lat="45.95889" lon="4.89482">
        <ele>282.5</ele>
        <time>2015-11-11T11:45:38.983Z</time>
      </trkpt>
      <trkpt lat="45.95889" lon="4.89472">
        <ele>282.399993896</ele>
        <time>2015-11-11T11:45:39.979Z</time>
      </trkpt>
      <trkpt lat="45.95889" lon="4.89463">
        <ele>282.399993896</ele>
        <time>2015-11-11T11:45:40.979Z</time>
      </trkpt>
      <trkpt lat="45.95889" lon="4.89454">
        <ele>282.399993896</ele>
        <time>2015-11-11T11:45:41.964Z</time>
      </trkpt>
      <trkpt lat="45.95888" lon="4.89445">
        <ele>282.299987793</ele>
        <time>2015-11-11T11:45:42.978Z</time>
      </trkpt>
      <trkpt lat="45.95888" lon="4.89436">
        <ele>282.299987793</ele>
        <time>2015-11-11T11:45:43.963Z</time>
      </trkpt>
      <trkpt lat="45.95888" lon="4.89427">
        <ele>282.200012207</ele>
        <time>2015-11-11T11:45:44.981Z</time>
      </trkpt>
      <trkpt lat="45.95888" lon="4.89419">
        <ele>282.100006104</ele>
        <time>2015-11-11T11:45:45.963Z</time>
      </trkpt>
      <trkpt lat="45.95888" lon="4.89411">
        <ele>282.100006104</ele>
        <time>2015-11-11T11:45:46.979Z</time>
      </trkpt>
      <trkpt lat="45.95888" lon="4.89403">
        <ele>282.100006104</ele>
        <time>2015-11-11T11:45:47.963Z</time>
      </trkpt>
      <trkpt lat="45.95888" lon="4.89395">
        <ele>282.100006104</ele>
        <time>2015-11-11T11:45:48.979Z</time>
      </trkpt>
      <trkpt lat="45.95888" lon="4.89387">
        <ele>282.100006104</ele>
        <time>2015-11-11T11:45:49.963Z</time>
      </trkpt>
      <trkpt lat="45.95888" lon="4.89379">
        <ele>282.100006104</ele>
        <time>2015-11-11T11:45:50.981Z</time>
      </trkpt>
      <trkpt lat="45.95888" lon="4.89371">
        <ele>282.200012207</ele>
        <time>2015-11-11T11:45:51.963Z</time>
      </trkpt>
      <trkpt lat="45.95888" lon="4.89363">
        <ele>282.100006104</ele>
        <time>2015-11-11T11:45:52.978Z</time>
      </trkpt>
      <trkpt lat="45.95888" lon="4.89354">
        <ele>282.200012207</ele>
        <time>2015-11-11T11:45:53.964Z</time>
      </trkpt>
      <trkpt lat="45.95887" lon="4.89346">
        <ele>282.299987793</ele>
        <time>2015-11-11T11:45:54.977Z</time>
      </trkpt>
      <trkpt lat="45.95888" lon="4.89338">
        <ele>282.200012207</ele>
        <time>2015-11-11T11:45:55.963Z</time>
      </trkpt>
      <trkpt lat="45.95888" lon="4.8933">
        <ele>282.299987793</ele>
        <time>2015-11-11T11:45:56.98Z</time>
      </trkpt>
      <trkpt lat="45.95888" lon="4.89322">
        <ele>282.700012207</ele>
        <time>2015-11-11T11:45:57.963Z</time>
      </trkpt>
      <trkpt lat="45.95888" lon="4.89313">
        <ele>282.899993896</ele>
        <time>2015-11-11T11:45:58.981Z</time>
      </trkpt>
      <trkpt lat="45.95888" lon="4.89305">
        <ele>283</ele>
        <time>2015-11-11T11:45:59.963Z</time>
      </trkpt>
      <trkpt lat="45.95887" lon="4.89297">
        <ele>283</ele>
        <time>2015-11-11T11:46:00.977Z</time>
      </trkpt>
      <trkpt lat="45.95887" lon="4.89289">
        <ele>283.100006104</ele>
        <time>2015-11-11T11:46:01.963Z</time>
      </trkpt>
      <trkpt lat="45.95888" lon="4.89281">
        <ele>283</ele>
        <time>2015-11-11T11:46:02.981Z</time>
      </trkpt>
      <trkpt lat="45.95888" lon="4.89273">
        <ele>282.700012207</ele>
        <time>2015-11-11T11:46:03.963Z</time>
      </trkpt>
      <trkpt lat="45.95888" lon="4.89265">
        <ele>282.899993896</ele>
        <time>2015-11-11T11:46:04.978Z</time>
      </trkpt>
      <trkpt lat="45.95888" lon="4.89256">
        <ele>283.100006104</ele>
        <time>2015-11-11T11:46:05.963Z</time>
      </trkpt>
      <trkpt lat="45.95888" lon="4.89248">
        <ele>283.299987793</ele>
        <time>2015-11-11T11:46:06.996Z</time>
      </trkpt>
      <trkpt lat="45.95887" lon="4.89239">
        <ele>283.5</ele>
        <time>2015-11-11T11:46:07.964Z</time>
      </trkpt>
      <trkpt lat="45.95887" lon="4.8923">
        <ele>283.5</ele>
        <time>2015-11-11T11:46:08.982Z</time>
      </trkpt>
      <trkpt lat="45.95887" lon="4.89222">
        <ele>283.600006104</ele>
        <time>2015-11-11T11:46:09.963Z</time>
      </trkpt>
      <trkpt lat="45.95886" lon="4.89214">
        <ele>283.799987793</ele>
        <time>2015-11-11T11:46:10.978Z</time>
      </trkpt>
      <trkpt lat="45.95886" lon="4.89206">
        <ele>283.899993896</ele>
        <time>2015-11-11T11:46:11.963Z</time>
      </trkpt>
      <trkpt lat="45.95886" lon="4.89198">
        <ele>283.799987793</ele>
        <time>2015-11-11T11:46:12.978Z</time>
      </trkpt>
      <trkpt lat="45.95885" lon="4.89191">
        <ele>284</ele>
        <time>2015-11-11T11:46:13.963Z</time>
      </trkpt>
      <trkpt lat="45.95885" lon="4.89183">
        <ele>284</ele>
        <time>2015-11-11T11:46:14.981Z</time>
      </trkpt>
      <trkpt lat="45.95885" lon="4.89176">
        <ele>283.899993896</ele>
        <time>2015-11-11T11:46:15.963Z</time>
      </trkpt>
      <trkpt lat="45.95884" lon="4.89168">
        <ele>283.700012207</ele>
        <time>2015-11-11T11:46:16.978Z</time>
      </trkpt>
      <trkpt lat="45.95883" lon="4.89161">
        <ele>283.5</ele>
        <time>2015-11-11T11:46:17.963Z</time>
      </trkpt>
      <trkpt lat="45.95882" lon="4.89153">
        <ele>283.299987793</ele>
        <time>2015-11-11T11:46:18.979Z</time>
      </trkpt>
      <trkpt lat="45.95882" lon="4.89146">
        <ele>282.799987793</ele>
        <time>2015-11-11T11:46:19.964Z</time>
      </trkpt>
      <trkpt lat="45.95882" lon="4.89134">
        <ele>282.799987793</ele>
        <time>2015-11-11T11:46:21.977Z</time>
      </trkpt>
      <trkpt lat="45.95884" lon="4.89128">
        <ele>282.899993896</ele>
        <time>2015-11-11T11:46:22.976Z</time>
      </trkpt>
      <trkpt lat="45.95889" lon="4.8912">
        <ele>282.700012207</ele>
        <time>2015-11-11T11:46:24.977Z</time>
      </trkpt>
      <trkpt lat="45.95892" lon="4.89116">
        <ele>282.600006104</ele>
        <time>2015-11-11T11:46:25.963Z</time>
      </trkpt>
      <trkpt lat="45.95897" lon="4.89108">
        <ele>282.299987793</ele>
        <time>2015-11-11T11:46:27.977Z</time>
      </trkpt>
      <trkpt lat="45.95899" lon="4.89103">
        <ele>282.200012207</ele>
        <time>2015-11-11T11:46:28.966Z</time>
      </trkpt>
      <trkpt lat="45.95901" lon="4.89092">
        <ele>282.399993896</ele>
        <time>2015-11-11T11:46:31.009Z</time>
      </trkpt>
      <trkpt lat="45.95901" lon="4.89086">
        <ele>282.399993896</ele>
        <time>2015-11-11T11:46:31.963Z</time>
      </trkpt>
      <trkpt lat="45.95902" lon="4.89074">
        <ele>282.700012207</ele>
        <time>2015-11-11T11:46:33.99Z</time>
      </trkpt>
      <trkpt lat="45.95902" lon="4.89067">
        <ele>282.5</ele>
        <time>2015-11-11T11:46:34.964Z</time>
      </trkpt>
      <trkpt lat="45.95902" lon="4.89061">
        <ele>282.700012207</ele>
        <time>2015-11-11T11:46:35.977Z</time>
      </trkpt>
      <trkpt lat="45.95901" lon="4.89054">
        <ele>282.399993896</ele>
        <time>2015-11-11T11:46:36.963Z</time>
      </trkpt>
      <trkpt lat="45.959" lon="4.89042">
        <ele>282.600006104</ele>
        <time>2015-11-11T11:46:38.982Z</time>
      </trkpt>
      <trkpt lat="45.959" lon="4.89035">
        <ele>282.700012207</ele>
        <time>2015-11-11T11:46:39.965Z</time>
      </trkpt>
      <trkpt lat="45.95899" lon="4.89029">
        <ele>282.799987793</ele>
        <time>2015-11-11T11:46:40.978Z</time>
      </trkpt>
      <trkpt lat="45.95898" lon="4.89023">
        <ele>282.899993896</ele>
        <time>2015-11-11T11:46:41.963Z</time>
      </trkpt>
      <trkpt lat="45.95896" lon="4.89017">
        <ele>283</ele>
        <time>2015-11-11T11:46:42.977Z</time>
      </trkpt>
      <trkpt lat="45.95894" lon="4.89011">
        <ele>283.100006104</ele>
        <time>2015-11-11T11:46:43.963Z</time>
      </trkpt>
      <trkpt lat="45.95893" lon="4.89005">
        <ele>283.299987793</ele>
        <time>2015-11-11T11:46:44.981Z</time>
      </trkpt>
      <trkpt lat="45.95891" lon="4.88998">
        <ele>283.299987793</ele>
        <time>2015-11-11T11:46:45.964Z</time>
      </trkpt>
      <trkpt lat="45.95889" lon="4.88991">
        <ele>283.399993896</ele>
        <time>2015-11-11T11:46:46.978Z</time>
      </trkpt>
      <trkpt lat="45.95888" lon="4.88984">
        <ele>283.399993896</ele>
        <time>2015-11-11T11:46:47.963Z</time>
      </trkpt>
      <trkpt lat="45.95886" lon="4.88976">
        <ele>283.5</ele>
        <time>2015-11-11T11:46:48.979Z</time>
      </trkpt>
      <trkpt lat="45.95886" lon="4.88969">
        <ele>283</ele>
        <time>2015-11-11T11:46:49.963Z</time>
      </trkpt>
      <trkpt lat="45.95885" lon="4.88962">
        <ele>282.899993896</ele>
        <time>2015-11-11T11:46:50.985Z</time>
      </trkpt>
      <trkpt lat="45.95885" lon="4.88956">
        <ele>282.899993896</ele>
        <time>2015-11-11T11:46:51.962Z</time>
      </trkpt>
      <trkpt lat="45.95885" lon="4.88943">
        <ele>282.899993896</ele>
        <time>2015-11-11T11:46:53.977Z</time>
      </trkpt>
      <trkpt lat="45.95885" lon="4.88936">
        <ele>282.899993896</ele>
        <time>2015-11-11T11:46:54.963Z</time>
      </trkpt>
      <trkpt lat="45.95885" lon="4.8893">
        <ele>282.899993896</ele>
        <time>2015-11-11T11:46:55.977Z</time>
      </trkpt>
      <trkpt lat="45.95885" lon="4.88923">
        <ele>283</ele>
        <time>2015-11-11T11:46:56.966Z</time>
      </trkpt>
      <trkpt lat="45.95885" lon="4.88916">
        <ele>283</ele>
        <time>2015-11-11T11:46:57.978Z</time>
      </trkpt>
      <trkpt lat="45.95885" lon="4.8891">
        <ele>283</ele>
        <time>2015-11-11T11:46:58.965Z</time>
      </trkpt>
      <trkpt lat="45.95885" lon="4.88903">
        <ele>283</ele>
        <time>2015-11-11T11:46:59.977Z</time>
      </trkpt>
      <trkpt lat="45.95885" lon="4.88897">
        <ele>283</ele>
        <time>2015-11-11T11:47:00.976Z</time>
      </trkpt>
      <trkpt lat="45.95885" lon="4.8889">
        <ele>282.899993896</ele>
        <time>2015-11-11T11:47:01.977Z</time>
      </trkpt>
      <trkpt lat="45.95885" lon="4.88883">
        <ele>282.899993896</ele>
        <time>2015-11-11T11:47:02.966Z</time>
      </trkpt>
      <trkpt lat="45.95884" lon="4.88876">
        <ele>282.799987793</ele>
        <time>2015-11-11T11:47:03.977Z</time>
      </trkpt>
      <trkpt lat="45.95884" lon="4.88869">
        <ele>282.700012207</ele>
        <time>2015-11-11T11:47:04.964Z</time>
      </trkpt>
      <trkpt lat="45.95884" lon="4.88862">
        <ele>282.5</ele>
        <time>2015-11-11T11:47:05.977Z</time>
      </trkpt>
      <trkpt lat="45.95884" lon="4.88855">
        <ele>282.5</ele>
        <time>2015-11-11T11:47:06.963Z</time>
      </trkpt>
      <trkpt lat="45.95884" lon="4.88847">
        <ele>282.5</ele>
        <time>2015-11-11T11:47:07.977Z</time>
      </trkpt>
      <trkpt lat="45.95884" lon="4.8884">
        <ele>282.399993896</ele>
        <time>2015-11-11T11:47:08.967Z</time>
      </trkpt>
      <trkpt lat="45.95884" lon="4.88833">
        <ele>282.399993896</ele>
        <time>2015-11-11T11:47:09.977Z</time>
      </trkpt>
      <trkpt lat="45.95883" lon="4.88825">
        <ele>282.299987793</ele>
        <time>2015-11-11T11:47:10.964Z</time>
      </trkpt>
      <trkpt lat="45.95883" lon="4.88817">
        <ele>282.299987793</ele>
        <time>2015-11-11T11:47:11.981Z</time>
      </trkpt>
      <trkpt lat="45.95883" lon="4.8881">
        <ele>282.299987793</ele>
        <time>2015-11-11T11:47:12.969Z</time>
      </trkpt>
      <trkpt lat="45.95883" lon="4.88802">
        <ele>282.200012207</ele>
        <time>2015-11-11T11:47:13.977Z</time>
      </trkpt>
      <trkpt lat="45.95882" lon="4.88794">
        <ele>282.100006104</ele>
        <time>2015-11-11T11:47:14.966Z</time>
      </trkpt>
      <trkpt lat="45.95882" lon="4.88786">
        <ele>282.100006104</ele>
        <time>2015-11-11T11:47:15.978Z</time>
      </trkpt>
      <trkpt lat="45.95881" lon="4.88778">
        <ele>282</ele>
        <time>2015-11-11T11:47:16.964Z</time>
      </trkpt>
      <trkpt lat="45.95881" lon="4.8877">
        <ele>281.899993896</ele>
        <time>2015-11-11T11:47:17.977Z</time>
      </trkpt>
      <trkpt lat="45.95881" lon="4.88762">
        <ele>281.899993896</ele>
        <time>2015-11-11T11:47:18.964Z</time>
      </trkpt>
      <trkpt lat="45.95881" lon="4.88754">
        <ele>281.799987793</ele>
        <time>2015-11-11T11:47:19.977Z</time>
      </trkpt>
      <trkpt lat="45.9588" lon="4.88745">
        <ele>281.799987793</ele>
        <time>2015-11-11T11:47:20.966Z</time>
      </trkpt>
      <trkpt lat="45.9588" lon="4.88737">
        <ele>281.700012207</ele>
        <time>2015-11-11T11:47:21.991Z</time>
      </trkpt>
      <trkpt lat="45.9588" lon="4.88729">
        <ele>281.700012207</ele>
        <time>2015-11-11T11:47:22.964Z</time>
      </trkpt>
      <trkpt lat="45.9588" lon="4.8872">
        <ele>281.700012207</ele>
        <time>2015-11-11T11:47:23.977Z</time>
      </trkpt>
      <trkpt lat="45.95879" lon="4.88712">
        <ele>281.700012207</ele>
        <time>2015-11-11T11:47:24.963Z</time>
      </trkpt>
      <trkpt lat="45.95879" lon="4.88704">
        <ele>281.700012207</ele>
        <time>2015-11-11T11:47:25.978Z</time>
      </trkpt>
      <trkpt lat="45.95879" lon="4.88696">
        <ele>281.700012207</ele>
        <time>2015-11-11T11:47:26.966Z</time>
      </trkpt>
      <trkpt lat="45.95879" lon="4.88688">
        <ele>281.700012207</ele>
        <time>2015-11-11T11:47:27.978Z</time>
      </trkpt>
      <trkpt lat="45.95878" lon="4.8868">
        <ele>281.600006104</ele>
        <time>2015-11-11T11:47:28.966Z</time>
      </trkpt>
      <trkpt lat="45.95878" lon="4.88672">
        <ele>281.600006104</ele>
        <time>2015-11-11T11:47:29.977Z</time>
      </trkpt>
      <trkpt lat="45.95878" lon="4.88665">
        <ele>281.600006104</ele>
        <time>2015-11-11T11:47:30.963Z</time>
      </trkpt>
      <trkpt lat="45.95877" lon="4.88657">
        <ele>281.600006104</ele>
        <time>2015-11-11T11:47:31.978Z</time>
      </trkpt>
      <trkpt lat="45.95877" lon="4.88649">
        <ele>281.600006104</ele>
        <time>2015-11-11T11:47:32.966Z</time>
      </trkpt>
      <trkpt lat="45.95876" lon="4.88641">
        <ele>281.600006104</ele>
        <time>2015-11-11T11:47:33.978Z</time>
      </trkpt>
      <trkpt lat="45.95876" lon="4.88632">
        <ele>281.600006104</ele>
        <time>2015-11-11T11:47:34.964Z</time>
      </trkpt>
      <trkpt lat="45.95876" lon="4.88624">
        <ele>281.5</ele>
        <time>2015-11-11T11:47:35.978Z</time>
      </trkpt>
      <trkpt lat="45.95876" lon="4.88616">
        <ele>281.5</ele>
        <time>2015-11-11T11:47:36.963Z</time>
      </trkpt>
      <trkpt lat="45.95875" lon="4.88607">
        <ele>281.5</ele>
        <time>2015-11-11T11:47:37.995Z</time>
      </trkpt>
      <trkpt lat="45.95875" lon="4.88599">
        <ele>281.399993896</ele>
        <time>2015-11-11T11:47:38.967Z</time>
      </trkpt>
      <trkpt lat="45.95874" lon="4.8859">
        <ele>281.299987793</ele>
        <time>2015-11-11T11:47:39.981Z</time>
      </trkpt>
      <trkpt lat="45.95874" lon="4.88581">
        <ele>281.299987793</ele>
        <time>2015-11-11T11:47:40.964Z</time>
      </trkpt>
      <trkpt lat="45.95873" lon="4.88572">
        <ele>281.200012207</ele>
        <time>2015-11-11T11:47:41.978Z</time>
      </trkpt>
      <trkpt lat="45.95873" lon="4.88564">
        <ele>281.100006104</ele>
        <time>2015-11-11T11:47:42.963Z</time>
      </trkpt>
      <trkpt lat="45.95872" lon="4.88555">
        <ele>281.100006104</ele>
        <time>2015-11-11T11:47:43.978Z</time>
      </trkpt>
      <trkpt lat="45.95872" lon="4.88547">
        <ele>281.100006104</ele>
        <time>2015-11-11T11:47:44.966Z</time>
      </trkpt>
      <trkpt lat="45.95872" lon="4.88539">
        <ele>281</ele>
        <time>2015-11-11T11:47:45.978Z</time>
      </trkpt>
      <trkpt lat="45.95871" lon="4.88531">
        <ele>281</ele>
        <time>2015-11-11T11:47:46.964Z</time>
      </trkpt>
      <trkpt lat="45.95871" lon="4.88524">
        <ele>281</ele>
        <time>2015-11-11T11:47:47.977Z</time>
      </trkpt>
      <trkpt lat="45.95871" lon="4.88516">
        <ele>281</ele>
        <time>2015-11-11T11:47:48.967Z</time>
      </trkpt>
      <trkpt lat="45.9587" lon="4.88508">
        <ele>281</ele>
        <time>2015-11-11T11:47:49.977Z</time>
      </trkpt>
      <trkpt lat="45.9587" lon="4.885">
        <ele>281</ele>
        <time>2015-11-11T11:47:50.966Z</time>
      </trkpt>
      <trkpt lat="45.9587" lon="4.88492">
        <ele>281</ele>
        <time>2015-11-11T11:47:51.977Z</time>
      </trkpt>
      <trkpt lat="45.9587" lon="4.88485">
        <ele>281.100006104</ele>
        <time>2015-11-11T11:47:52.964Z</time>
      </trkpt>
      <trkpt lat="45.95869" lon="4.88477">
        <ele>281.100006104</ele>
        <time>2015-11-11T11:47:53.991Z</time>
      </trkpt>
      <trkpt lat="45.95869" lon="4.88469">
        <ele>281.100006104</ele>
        <time>2015-11-11T11:47:54.963Z</time>
      </trkpt>
      <trkpt lat="45.95869" lon="4.8846">
        <ele>281.100006104</ele>
        <time>2015-11-11T11:47:55.977Z</time>
      </trkpt>
      <trkpt lat="45.95868" lon="4.88452">
        <ele>281.100006104</ele>
        <time>2015-11-11T11:47:56.966Z</time>
      </trkpt>
      <trkpt lat="45.95868" lon="4.88444">
        <ele>281.100006104</ele>
        <time>2015-11-11T11:47:57.977Z</time>
      </trkpt>
      <trkpt lat="45.95867" lon="4.88436">
        <ele>281.100006104</ele>
        <time>2015-11-11T11:47:58.965Z</time>
      </trkpt>
      <trkpt lat="45.95867" lon="4.88428">
        <ele>281.100006104</ele>
        <time>2015-11-11T11:47:59.977Z</time>
      </trkpt>
      <trkpt lat="45.95866" lon="4.8842">
        <ele>281.100006104</ele>
        <time>2015-11-11T11:48:00.963Z</time>
      </trkpt>
      <trkpt lat="45.95866" lon="4.88412">
        <ele>281.100006104</ele>
        <time>2015-11-11T11:48:01.978Z</time>
      </trkpt>
      <trkpt lat="45.95866" lon="4.88404">
        <ele>281.100006104</ele>
        <time>2015-11-11T11:48:02.966Z</time>
      </trkpt>
      <trkpt lat="45.95866" lon="4.88396">
        <ele>281.200012207</ele>
        <time>2015-11-11T11:48:03.995Z</time>
      </trkpt>
      <trkpt lat="45.95865" lon="4.88388">
        <ele>281.100006104</ele>
        <time>2015-11-11T11:48:04.964Z</time>
      </trkpt>
      <trkpt lat="45.95865" lon="4.8838">
        <ele>281.100006104</ele>
        <time>2015-11-11T11:48:05.977Z</time>
      </trkpt>
      <trkpt lat="45.95865" lon="4.88373">
        <ele>281.100006104</ele>
        <time>2015-11-11T11:48:06.963Z</time>
      </trkpt>
      <trkpt lat="45.95864" lon="4.88365">
        <ele>281.200012207</ele>
        <time>2015-11-11T11:48:07.977Z</time>
      </trkpt>
      <trkpt lat="45.95864" lon="4.88357">
        <ele>281.200012207</ele>
        <time>2015-11-11T11:48:08.967Z</time>
      </trkpt>
      <trkpt lat="45.95863" lon="4.8835">
        <ele>281.299987793</ele>
        <time>2015-11-11T11:48:09.991Z</time>
      </trkpt>
      <trkpt lat="45.95863" lon="4.88342">
        <ele>281.299987793</ele>
        <time>2015-11-11T11:48:10.964Z</time>
      </trkpt>
      <trkpt lat="45.95862" lon="4.88334">
        <ele>281.299987793</ele>
        <time>2015-11-11T11:48:11.977Z</time>
      </trkpt>
      <trkpt lat="45.95862" lon="4.88327">
        <ele>281.299987793</ele>
        <time>2015-11-11T11:48:12.963Z</time>
      </trkpt>
      <trkpt lat="45.95862" lon="4.88319">
        <ele>281.299987793</ele>
        <time>2015-11-11T11:48:13.977Z</time>
      </trkpt>
      <trkpt lat="45.95861" lon="4.88311">
        <ele>281.299987793</ele>
        <time>2015-11-11T11:48:14.966Z</time>
      </trkpt>
      <trkpt lat="45.95861" lon="4.88303">
        <ele>281.299987793</ele>
        <time>2015-11-11T11:48:15.977Z</time>
      </trkpt>
      <trkpt lat="45.9586" lon="4.88296">
        <ele>281.200012207</ele>
        <time>2015-11-11T11:48:16.964Z</time>
      </trkpt>
      <trkpt lat="45.9586" lon="4.88288">
        <ele>281.200012207</ele>
        <time>2015-11-11T11:48:17.977Z</time>
      </trkpt>
      <trkpt lat="45.95859" lon="4.8828">
        <ele>281.299987793</ele>
        <time>2015-11-11T11:48:18.969Z</time>
      </trkpt>
      <trkpt lat="45.95859" lon="4.88272">
        <ele>281.299987793</ele>
        <time>2015-11-11T11:48:20.12Z</time>
      </trkpt>
      <trkpt lat="45.95858" lon="4.88264">
        <ele>281.299987793</ele>
        <time>2015-11-11T11:48:20.966Z</time>
      </trkpt>
      <trkpt lat="45.95858" lon="4.88256">
        <ele>281.299987793</ele>
        <time>2015-11-11T11:48:21.998Z</time>
      </trkpt>
      <trkpt lat="45.95858" lon="4.88248">
        <ele>281.299987793</ele>
        <time>2015-11-11T11:48:22.964Z</time>
      </trkpt>
      <trkpt lat="45.95858" lon="4.8824">
        <ele>281.399993896</ele>
        <time>2015-11-11T11:48:23.977Z</time>
      </trkpt>
      <trkpt lat="45.95858" lon="4.88232">
        <ele>281.399993896</ele>
        <time>2015-11-11T11:48:24.963Z</time>
      </trkpt>
      <trkpt lat="45.95857" lon="4.88225">
        <ele>281.5</ele>
        <time>2015-11-11T11:48:25.977Z</time>
      </trkpt>
      <trkpt lat="45.95857" lon="4.88218">
        <ele>281.600006104</ele>
        <time>2015-11-11T11:48:26.966Z</time>
      </trkpt>
      <trkpt lat="45.95857" lon="4.88211">
        <ele>281.600006104</ele>
        <time>2015-11-11T11:48:27.977Z</time>
      </trkpt>
      <trkpt lat="45.95857" lon="4.88204">
        <ele>281.700012207</ele>
        <time>2015-11-11T11:48:28.966Z</time>
      </trkpt>
      <trkpt lat="45.95857" lon="4.88198">
        <ele>281.700012207</ele>
        <time>2015-11-11T11:48:29.981Z</time>
      </trkpt>
      <trkpt lat="45.95856" lon="4.88191">
        <ele>281.700012207</ele>
        <time>2015-11-11T11:48:30.975Z</time>
      </trkpt>
      <trkpt lat="45.95855" lon="4.88185">
        <ele>281.700012207</ele>
        <time>2015-11-11T11:48:31.977Z</time>
      </trkpt>
      <trkpt lat="45.95855" lon="4.88178">
        <ele>281.600006104</ele>
        <time>2015-11-11T11:48:32.966Z</time>
      </trkpt>
      <trkpt lat="45.95855" lon="4.88171">
        <ele>281.600006104</ele>
        <time>2015-11-11T11:48:33.977Z</time>
      </trkpt>
      <trkpt lat="45.95854" lon="4.88164">
        <ele>281.700012207</ele>
        <time>2015-11-11T11:48:34.964Z</time>
      </trkpt>
      <trkpt lat="45.95854" lon="4.88157">
        <ele>281.700012207</ele>
        <time>2015-11-11T11:48:35.977Z</time>
      </trkpt>
      <trkpt lat="45.95854" lon="4.8815">
        <ele>281.799987793</ele>
        <time>2015-11-11T11:48:36.963Z</time>
      </trkpt>
      <trkpt lat="45.95853" lon="4.88142">
        <ele>281.799987793</ele>
        <time>2015-11-11T11:48:37.977Z</time>
      </trkpt>
      <trkpt lat="45.95853" lon="4.88135">
        <ele>281.799987793</ele>
        <time>2015-11-11T11:48:38.967Z</time>
      </trkpt>
      <trkpt lat="45.95853" lon="4.88128">
        <ele>281.799987793</ele>
        <time>2015-11-11T11:48:39.979Z</time>
      </trkpt>
      <trkpt lat="45.95853" lon="4.8812">
        <ele>281.799987793</ele>
        <time>2015-11-11T11:48:40.964Z</time>
      </trkpt>
      <trkpt lat="45.95853" lon="4.88113">
        <ele>281.899993896</ele>
        <time>2015-11-11T11:48:41.977Z</time>
      </trkpt>
      <trkpt lat="45.95853" lon="4.88105">
        <ele>281.899993896</ele>
        <time>2015-11-11T11:48:42.963Z</time>
      </trkpt>
      <trkpt lat="45.95852" lon="4.88097">
        <ele>281.899993896</ele>
        <time>2015-11-11T11:48:43.977Z</time>
      </trkpt>
      <trkpt lat="45.95852" lon="4.8809">
        <ele>281.899993896</ele>
        <time>2015-11-11T11:48:44.966Z</time>
      </trkpt>
      <trkpt lat="45.95852" lon="4.88081">
        <ele>282</ele>
        <time>2015-11-11T11:48:45.978Z</time>
      </trkpt>
      <trkpt lat="45.95851" lon="4.88073">
        <ele>282.100006104</ele>
        <time>2015-11-11T11:48:46.964Z</time>
      </trkpt>
      <trkpt lat="45.95851" lon="4.88065">
        <ele>282.100006104</ele>
        <time>2015-11-11T11:48:47.978Z</time>
      </trkpt>
      <trkpt lat="45.9585" lon="4.88057">
        <ele>282.100006104</ele>
        <time>2015-11-11T11:48:48.964Z</time>
      </trkpt>
      <trkpt lat="45.9585" lon="4.8805">
        <ele>282.200012207</ele>
        <time>2015-11-11T11:48:49.977Z</time>
      </trkpt>
      <trkpt lat="45.9585" lon="4.88042">
        <ele>282.200012207</ele>
        <time>2015-11-11T11:48:51.077Z</time>
      </trkpt>
      <trkpt lat="45.95849" lon="4.88035">
        <ele>282.200012207</ele>
        <time>2015-11-11T11:48:51.99Z</time>
      </trkpt>
      <trkpt lat="45.95849" lon="4.88027">
        <ele>282.200012207</ele>
        <time>2015-11-11T11:48:52.964Z</time>
      </trkpt>
      <trkpt lat="45.95849" lon="4.8802">
        <ele>282.200012207</ele>
        <time>2015-11-11T11:48:53.977Z</time>
      </trkpt>
      <trkpt lat="45.95848" lon="4.88012">
        <ele>282.200012207</ele>
        <time>2015-11-11T11:48:54.963Z</time>
      </trkpt>
      <trkpt lat="45.95848" lon="4.88005">
        <ele>282.299987793</ele>
        <time>2015-11-11T11:48:55.981Z</time>
      </trkpt>
      <trkpt lat="45.95847" lon="4.87997">
        <ele>282.299987793</ele>
        <time>2015-11-11T11:48:56.966Z</time>
      </trkpt>
      <trkpt lat="45.95847" lon="4.87989">
        <ele>282.299987793</ele>
        <time>2015-11-11T11:48:57.977Z</time>
      </trkpt>
      <trkpt lat="45.95847" lon="4.87981">
        <ele>282.299987793</ele>
        <time>2015-11-11T11:48:58.965Z</time>
      </trkpt>
      <trkpt lat="45.95846" lon="4.87972">
        <ele>282.299987793</ele>
        <time>2015-11-11T11:48:59.977Z</time>
      </trkpt>
      <trkpt lat="45.95846" lon="4.87964">
        <ele>282.299987793</ele>
        <time>2015-11-11T11:49:00.963Z</time>
      </trkpt>
      <trkpt lat="45.95846" lon="4.87956">
        <ele>282.200012207</ele>
        <time>2015-11-11T11:49:02.008Z</time>
      </trkpt>
      <trkpt lat="45.95845" lon="4.87947">
        <ele>282.100006104</ele>
        <time>2015-11-11T11:49:02.966Z</time>
      </trkpt>
      <trkpt lat="45.95845" lon="4.87939">
        <ele>282.100006104</ele>
        <time>2015-11-11T11:49:03.977Z</time>
      </trkpt>
      <trkpt lat="45.95845" lon="4.87931">
        <ele>282</ele>
        <time>2015-11-11T11:49:04.964Z</time>
      </trkpt>
      <trkpt lat="45.95844" lon="4.87923">
        <ele>281.899993896</ele>
        <time>2015-11-11T11:49:05.977Z</time>
      </trkpt>
      <trkpt lat="45.95843" lon="4.87915">
        <ele>281.799987793</ele>
        <time>2015-11-11T11:49:06.963Z</time>
      </trkpt>
      <trkpt lat="45.95843" lon="4.87908">
        <ele>281.700012207</ele>
        <time>2015-11-11T11:49:07.977Z</time>
      </trkpt>
      <trkpt lat="45.95843" lon="4.879">
        <ele>281.5</ele>
        <time>2015-11-11T11:49:08.974Z</time>
      </trkpt>
      <trkpt lat="45.95842" lon="4.87892">
        <ele>281.399993896</ele>
        <time>2015-11-11T11:49:10.007Z</time>
      </trkpt>
      <trkpt lat="45.95841" lon="4.87884">
        <ele>281.200012207</ele>
        <time>2015-11-11T11:49:10.964Z</time>
      </trkpt>
      <trkpt lat="45.9584" lon="4.87876">
        <ele>281.100006104</ele>
        <time>2015-11-11T11:49:11.977Z</time>
      </trkpt>
      <trkpt lat="45.9584" lon="4.87868">
        <ele>280.899993896</ele>
        <time>2015-11-11T11:49:13.014Z</time>
      </trkpt>
      <trkpt lat="45.95839" lon="4.87859">
        <ele>280.700012207</ele>
        <time>2015-11-11T11:49:13.978Z</time>
      </trkpt>
      <trkpt lat="45.95839" lon="4.87851">
        <ele>280.600006104</ele>
        <time>2015-11-11T11:49:14.965Z</time>
      </trkpt>
      <trkpt lat="45.95838" lon="4.87842">
        <ele>280.399993896</ele>
        <time>2015-11-11T11:49:15.978Z</time>
      </trkpt>
      <trkpt lat="45.95837" lon="4.87833">
        <ele>280.200012207</ele>
        <time>2015-11-11T11:49:16.964Z</time>
      </trkpt>
      <trkpt lat="45.95836" lon="4.87823">
        <ele>280</ele>
        <time>2015-11-11T11:49:17.977Z</time>
      </trkpt>
      <trkpt lat="45.95835" lon="4.87814">
        <ele>279.700012207</ele>
        <time>2015-11-11T11:49:18.965Z</time>
      </trkpt>
      <trkpt lat="45.95834" lon="4.87804">
        <ele>279.399993896</ele>
        <time>2015-11-11T11:49:19.977Z</time>
      </trkpt>
      <trkpt lat="45.95833" lon="4.87794">
        <ele>279.100006104</ele>
        <time>2015-11-11T11:49:20.965Z</time>
      </trkpt>
      <trkpt lat="45.95832" lon="4.87784">
        <ele>278.899993896</ele>
        <time>2015-11-11T11:49:21.981Z</time>
      </trkpt>
      <trkpt lat="45.95831" lon="4.87774">
        <ele>278.600006104</ele>
        <time>2015-11-11T11:49:22.964Z</time>
      </trkpt>
      <trkpt lat="45.95829" lon="4.87763">
        <ele>278.399993896</ele>
        <time>2015-11-11T11:49:23.99Z</time>
      </trkpt>
      <trkpt lat="45.95827" lon="4.87753">
        <ele>278.200012207</ele>
        <time>2015-11-11T11:49:24.963Z</time>
      </trkpt>
      <trkpt lat="45.95825" lon="4.87742">
        <ele>278</ele>
        <time>2015-11-11T11:49:25.977Z</time>
      </trkpt>
      <trkpt lat="45.95824" lon="4.87731">
        <ele>277.899993896</ele>
        <time>2015-11-11T11:49:26.965Z</time>
      </trkpt>
      <trkpt lat="45.95822" lon="4.87722">
        <ele>277.700012207</ele>
        <time>2015-11-11T11:49:27.977Z</time>
      </trkpt>
      <trkpt lat="45.9582" lon="4.87712">
        <ele>277.600006104</ele>
        <time>2015-11-11T11:49:28.967Z</time>
      </trkpt>
      <trkpt lat="45.95818" lon="4.87702">
        <ele>277.399993896</ele>
        <time>2015-11-11T11:49:29.977Z</time>
      </trkpt>
      <trkpt lat="45.95816" lon="4.87692">
        <ele>277.200012207</ele>
        <time>2015-11-11T11:49:30.963Z</time>
      </trkpt>
      <trkpt lat="45.95813" lon="4.87683">
        <ele>277</ele>
        <time>2015-11-11T11:49:31.977Z</time>
      </trkpt>
      <trkpt lat="45.95811" lon="4.87673">
        <ele>276.700012207</ele>
        <time>2015-11-11T11:49:32.966Z</time>
      </trkpt>
      <trkpt lat="45.95808" lon="4.87664">
        <ele>276.399993896</ele>
        <time>2015-11-11T11:49:33.977Z</time>
      </trkpt>
      <trkpt lat="45.95805" lon="4.87654">
        <ele>276.100006104</ele>
        <time>2015-11-11T11:49:34.965Z</time>
      </trkpt>
      <trkpt lat="45.95801" lon="4.87645">
        <ele>275.700012207</ele>
        <time>2015-11-11T11:49:35.978Z</time>
      </trkpt>
      <trkpt lat="45.95797" lon="4.87636">
        <ele>275.399993896</ele>
        <time>2015-11-11T11:49:36.964Z</time>
      </trkpt>
      <trkpt lat="45.95793" lon="4.87627">
        <ele>275.100006104</ele>
        <time>2015-11-11T11:49:37.979Z</time>
      </trkpt>
      <trkpt lat="45.95789" lon="4.87617">
        <ele>274.399993896</ele>
        <time>2015-11-11T11:49:38.975Z</time>
      </trkpt>
      <trkpt lat="45.95784" lon="4.87608">
        <ele>274</ele>
        <time>2015-11-11T11:49:39.993Z</time>
      </trkpt>
      <trkpt lat="45.95779" lon="4.87599">
        <ele>273.5</ele>
        <time>2015-11-11T11:49:40.964Z</time>
      </trkpt>
      <trkpt lat="45.95774" lon="4.87589">
        <ele>273</ele>
        <time>2015-11-11T11:49:41.977Z</time>
      </trkpt>
      <trkpt lat="45.95769" lon="4.8758">
        <ele>272.600006104</ele>
        <time>2015-11-11T11:49:42.963Z</time>
      </trkpt>
      <trkpt lat="45.95764" lon="4.8757">
        <ele>272.100006104</ele>
        <time>2015-11-11T11:49:43.977Z</time>
      </trkpt>
      <trkpt lat="45.95759" lon="4.87559">
        <ele>271.700012207</ele>
        <time>2015-11-11T11:49:44.966Z</time>
      </trkpt>
      <trkpt lat="45.95754" lon="4.87549">
        <ele>271.299987793</ele>
        <time>2015-11-11T11:49:45.977Z</time>
      </trkpt>
      <trkpt lat="45.95749" lon="4.87539">
        <ele>271</ele>
        <time>2015-11-11T11:49:46.964Z</time>
      </trkpt>
      <trkpt lat="45.95744" lon="4.87528">
        <ele>270.799987793</ele>
        <time>2015-11-11T11:49:47.989Z</time>
      </trkpt>
      <trkpt lat="45.95739" lon="4.87518">
        <ele>270.5</ele>
        <time>2015-11-11T11:49:48.966Z</time>
      </trkpt>
      <trkpt lat="45.95734" lon="4.87508">
        <ele>270.200012207</ele>
        <time>2015-11-11T11:49:49.977Z</time>
      </trkpt>
      <trkpt lat="45.95729" lon="4.87498">
        <ele>270</ele>
        <time>2015-11-11T11:49:50.966Z</time>
      </trkpt>
      <trkpt lat="45.95724" lon="4.87488">
        <ele>269.600006104</ele>
        <time>2015-11-11T11:49:51.977Z</time>
      </trkpt>
      <trkpt lat="45.95719" lon="4.87478">
        <ele>269.399993896</ele>
        <time>2015-11-11T11:49:52.964Z</time>
      </trkpt>
      <trkpt lat="45.95714" lon="4.87468">
        <ele>269.200012207</ele>
        <time>2015-11-11T11:49:53.977Z</time>
      </trkpt>
      <trkpt lat="45.9571" lon="4.87458">
        <ele>269</ele>
        <time>2015-11-11T11:49:54.963Z</time>
      </trkpt>
      <trkpt lat="45.95705" lon="4.87448">
        <ele>268.700012207</ele>
        <time>2015-11-11T11:49:55.99Z</time>
      </trkpt>
      <trkpt lat="45.957" lon="4.87438">
        <ele>268.600006104</ele>
        <time>2015-11-11T11:49:56.966Z</time>
      </trkpt>
      <trkpt lat="45.95696" lon="4.87429">
        <ele>268.5</ele>
        <time>2015-11-11T11:49:58.001Z</time>
      </trkpt>
      <trkpt lat="45.95691" lon="4.8742">
        <ele>268.299987793</ele>
        <time>2015-11-11T11:49:58.969Z</time>
      </trkpt>
      <trkpt lat="45.95687" lon="4.87411">
        <ele>268.100006104</ele>
        <time>2015-11-11T11:49:59.977Z</time>
      </trkpt>
      <trkpt lat="45.95683" lon="4.87402">
        <ele>268.200012207</ele>
        <time>2015-11-11T11:50:00.963Z</time>
      </trkpt>
      <trkpt lat="45.95679" lon="4.87393">
        <ele>268.100006104</ele>
        <time>2015-11-11T11:50:01.977Z</time>
      </trkpt>
      <trkpt lat="45.95675" lon="4.87385">
        <ele>268</ele>
        <time>2015-11-11T11:50:02.965Z</time>
      </trkpt>
      <trkpt lat="45.9567" lon="4.87376">
        <ele>268</ele>
        <time>2015-11-11T11:50:03.977Z</time>
      </trkpt>
      <trkpt lat="45.95667" lon="4.87368">
        <ele>268</ele>
        <time>2015-11-11T11:50:04.964Z</time>
      </trkpt>
      <trkpt lat="45.95663" lon="4.8736">
        <ele>268</ele>
        <time>2015-11-11T11:50:05.977Z</time>
      </trkpt>
      <trkpt lat="45.95658" lon="4.87352">
        <ele>268</ele>
        <time>2015-11-11T11:50:06.963Z</time>
      </trkpt>
      <trkpt lat="45.95655" lon="4.87345">
        <ele>268</ele>
        <time>2015-11-11T11:50:07.977Z</time>
      </trkpt>
      <trkpt lat="45.95651" lon="4.87337">
        <ele>267.899993896</ele>
        <time>2015-11-11T11:50:08.968Z</time>
      </trkpt>
      <trkpt lat="45.95647" lon="4.87329">
        <ele>267.899993896</ele>
        <time>2015-11-11T11:50:09.977Z</time>
      </trkpt>
      <trkpt lat="45.95643" lon="4.87322">
        <ele>267.899993896</ele>
        <time>2015-11-11T11:50:10.964Z</time>
      </trkpt>
      <trkpt lat="45.9564" lon="4.87314">
        <ele>267.899993896</ele>
        <time>2015-11-11T11:50:11.992Z</time>
      </trkpt>
      <trkpt lat="45.95636" lon="4.87306">
        <ele>267.700012207</ele>
        <time>2015-11-11T11:50:12.963Z</time>
      </trkpt>
      <trkpt lat="45.95632" lon="4.87298">
        <ele>267.5</ele>
        <time>2015-11-11T11:50:13.981Z</time>
      </trkpt>
      <trkpt lat="45.95628" lon="4.8729">
        <ele>267.299987793</ele>
        <time>2015-11-11T11:50:14.966Z</time>
      </trkpt>
      <trkpt lat="45.95624" lon="4.87282">
        <ele>267.100006104</ele>
        <time>2015-11-11T11:50:15.977Z</time>
      </trkpt>
      <trkpt lat="45.95619" lon="4.87273">
        <ele>266.799987793</ele>
        <time>2015-11-11T11:50:16.964Z</time>
      </trkpt>
      <trkpt lat="45.95616" lon="4.87265">
        <ele>266.5</ele>
        <time>2015-11-11T11:50:17.977Z</time>
      </trkpt>
      <trkpt lat="45.95611" lon="4.87256">
        <ele>266.100006104</ele>
        <time>2015-11-11T11:50:18.966Z</time>
      </trkpt>
      <trkpt lat="45.95607" lon="4.87246">
        <ele>265.600006104</ele>
        <time>2015-11-11T11:50:19.977Z</time>
      </trkpt>
      <trkpt lat="45.95602" lon="4.87237">
        <ele>265.200012207</ele>
        <time>2015-11-11T11:50:20.966Z</time>
      </trkpt>
      <trkpt lat="45.95598" lon="4.87228">
        <ele>264.799987793</ele>
        <time>2015-11-11T11:50:21.977Z</time>
      </trkpt>
      <trkpt lat="45.95593" lon="4.87218">
        <ele>264.399993896</ele>
        <time>2015-11-11T11:50:22.964Z</time>
      </trkpt>
      <trkpt lat="45.95589" lon="4.87208">
        <ele>264.100006104</ele>
        <time>2015-11-11T11:50:23.977Z</time>
      </trkpt>
      <trkpt lat="45.95584" lon="4.87198">
        <ele>263.799987793</ele>
        <time>2015-11-11T11:50:24.963Z</time>
      </trkpt>
      <trkpt lat="45.95579" lon="4.87189">
        <ele>263.600006104</ele>
        <time>2015-11-11T11:50:25.977Z</time>
      </trkpt>
      <trkpt lat="45.95574" lon="4.87179">
        <ele>263.399993896</ele>
        <time>2015-11-11T11:50:26.965Z</time>
      </trkpt>
      <trkpt lat="45.9557" lon="4.8717">
        <ele>263.200012207</ele>
        <time>2015-11-11T11:50:27.996Z</time>
      </trkpt>
      <trkpt lat="45.95565" lon="4.8716">
        <ele>263</ele>
        <time>2015-11-11T11:50:28.964Z</time>
      </trkpt>
      <trkpt lat="45.9556" lon="4.87152">
        <ele>262.899993896</ele>
        <time>2015-11-11T11:50:29.977Z</time>
      </trkpt>
      <trkpt lat="45.95555" lon="4.87142">
        <ele>262.700012207</ele>
        <time>2015-11-11T11:50:30.963Z</time>
      </trkpt>
      <trkpt lat="45.95551" lon="4.87133">
        <ele>262.700012207</ele>
        <time>2015-11-11T11:50:31.977Z</time>
      </trkpt>
      <trkpt lat="45.95546" lon="4.87125">
        <ele>262.700012207</ele>
        <time>2015-11-11T11:50:32.965Z</time>
      </trkpt>
      <trkpt lat="45.95542" lon="4.87116">
        <ele>262.600006104</ele>
        <time>2015-11-11T11:50:33.985Z</time>
      </trkpt>
      <trkpt lat="45.95538" lon="4.87107">
        <ele>262.299987793</ele>
        <time>2015-11-11T11:50:34.964Z</time>
      </trkpt>
      <trkpt lat="45.95534" lon="4.87099">
        <ele>262.299987793</ele>
        <time>2015-11-11T11:50:35.977Z</time>
      </trkpt>
      <trkpt lat="45.9553" lon="4.87091">
        <ele>262.399993896</ele>
        <time>2015-11-11T11:50:36.963Z</time>
      </trkpt>
      <trkpt lat="45.95526" lon="4.87083">
        <ele>262.600006104</ele>
        <time>2015-11-11T11:50:37.977Z</time>
      </trkpt>
      <trkpt lat="45.95522" lon="4.87076">
        <ele>262.700012207</ele>
        <time>2015-11-11T11:50:38.966Z</time>
      </trkpt>
      <trkpt lat="45.95519" lon="4.87069">
        <ele>262.799987793</ele>
        <time>2015-11-11T11:50:39.983Z</time>
      </trkpt>
      <trkpt lat="45.95515" lon="4.87061">
        <ele>262.899993896</ele>
        <time>2015-11-11T11:50:40.964Z</time>
      </trkpt>
      <trkpt lat="45.95511" lon="4.87054">
        <ele>263.100006104</ele>
        <time>2015-11-11T11:50:41.977Z</time>
      </trkpt>
      <trkpt lat="45.95508" lon="4.87046">
        <ele>263.200012207</ele>
        <time>2015-11-11T11:50:42.963Z</time>
      </trkpt>
      <trkpt lat="45.95505" lon="4.87039">
        <ele>263.100006104</ele>
        <time>2015-11-11T11:50:43.99Z</time>
      </trkpt>
      <trkpt lat="45.95501" lon="4.87032">
        <ele>263.100006104</ele>
        <time>2015-11-11T11:50:44.965Z</time>
      </trkpt>
      <trkpt lat="45.95498" lon="4.87025">
        <ele>263.100006104</ele>
        <time>2015-11-11T11:50:45.977Z</time>
      </trkpt>
      <trkpt lat="45.95494" lon="4.87018">
        <ele>263</ele>
        <time>2015-11-11T11:50:46.964Z</time>
      </trkpt>
      <trkpt lat="45.95489" lon="4.87011">
        <ele>262.799987793</ele>
        <time>2015-11-11T11:50:47.977Z</time>
      </trkpt>
      <trkpt lat="45.95485" lon="4.87003">
        <ele>262.799987793</ele>
        <time>2015-11-11T11:50:48.963Z</time>
      </trkpt>
      <trkpt lat="45.95482" lon="4.86996">
        <ele>262.899993896</ele>
        <time>2015-11-11T11:50:49.977Z</time>
      </trkpt>
      <trkpt lat="45.95478" lon="4.86988">
        <ele>262.799987793</ele>
        <time>2015-11-11T11:50:50.965Z</time>
      </trkpt>
      <trkpt lat="45.95475" lon="4.8698">
        <ele>263</ele>
        <time>2015-11-11T11:50:51.977Z</time>
      </trkpt>
      <trkpt lat="45.95471" lon="4.86973">
        <ele>263</ele>
        <time>2015-11-11T11:50:52.964Z</time>
      </trkpt>
      <trkpt lat="45.95467" lon="4.86965">
        <ele>262.899993896</ele>
        <time>2015-11-11T11:50:53.977Z</time>
      </trkpt>
      <trkpt lat="45.95464" lon="4.86957">
        <ele>263</ele>
        <time>2015-11-11T11:50:54.963Z</time>
      </trkpt>
      <trkpt lat="45.9546" lon="4.8695">
        <ele>263</ele>
        <time>2015-11-11T11:50:55.976Z</time>
      </trkpt>
      <trkpt lat="45.95457" lon="4.86942">
        <ele>263</ele>
        <time>2015-11-11T11:50:56.965Z</time>
      </trkpt>
      <trkpt lat="45.95453" lon="4.86935">
        <ele>263</ele>
        <time>2015-11-11T11:50:57.977Z</time>
      </trkpt>
      <trkpt lat="45.95449" lon="4.86928">
        <ele>262.899993896</ele>
        <time>2015-11-11T11:50:58.965Z</time>
      </trkpt>
      <trkpt lat="45.95446" lon="4.86921">
        <ele>262.899993896</ele>
        <time>2015-11-11T11:50:59.991Z</time>
      </trkpt>
      <trkpt lat="45.95443" lon="4.86915">
        <ele>262.799987793</ele>
        <time>2015-11-11T11:51:00.962Z</time>
      </trkpt>
      <trkpt lat="45.9544" lon="4.86908">
        <ele>262.799987793</ele>
        <time>2015-11-11T11:51:01.977Z</time>
      </trkpt>
      <trkpt lat="45.95436" lon="4.86901">
        <ele>262.799987793</ele>
        <time>2015-11-11T11:51:02.965Z</time>
      </trkpt>
      <trkpt lat="45.95433" lon="4.86894">
        <ele>262.899993896</ele>
        <time>2015-11-11T11:51:03.977Z</time>
      </trkpt>
      <trkpt lat="45.95429" lon="4.86888">
        <ele>262.899993896</ele>
        <time>2015-11-11T11:51:04.963Z</time>
      </trkpt>
      <trkpt lat="45.95426" lon="4.86881">
        <ele>262.899993896</ele>
        <time>2015-11-11T11:51:05.98Z</time>
      </trkpt>
      <trkpt lat="45.95423" lon="4.86873">
        <ele>262.899993896</ele>
        <time>2015-11-11T11:51:06.962Z</time>
      </trkpt>
      <trkpt lat="45.9542" lon="4.86866">
        <ele>262.799987793</ele>
        <time>2015-11-11T11:51:07.977Z</time>
      </trkpt>
      <trkpt lat="45.95416" lon="4.86858">
        <ele>262.899993896</ele>
        <time>2015-11-11T11:51:08.978Z</time>
      </trkpt>
      <trkpt lat="45.95413" lon="4.86851">
        <ele>263</ele>
        <time>2015-11-11T11:51:09.978Z</time>
      </trkpt>
      <trkpt lat="45.95409" lon="4.86844">
        <ele>263</ele>
        <time>2015-11-11T11:51:10.963Z</time>
      </trkpt>
      <trkpt lat="45.95406" lon="4.86837">
        <ele>263</ele>
        <time>2015-11-11T11:51:11.977Z</time>
      </trkpt>
      <trkpt lat="45.95402" lon="4.8683">
        <ele>263</ele>
        <time>2015-11-11T11:51:12.962Z</time>
      </trkpt>
      <trkpt lat="45.95399" lon="4.86823">
        <ele>263</ele>
        <time>2015-11-11T11:51:13.977Z</time>
      </trkpt>
      <trkpt lat="45.95396" lon="4.86816">
        <ele>263</ele>
        <time>2015-11-11T11:51:14.965Z</time>
      </trkpt>
      <trkpt lat="45.95393" lon="4.8681">
        <ele>263</ele>
        <time>2015-11-11T11:51:15.977Z</time>
      </trkpt>
      <trkpt lat="45.95389" lon="4.86803">
        <ele>263</ele>
        <time>2015-11-11T11:51:16.964Z</time>
      </trkpt>
      <trkpt lat="45.95386" lon="4.86797">
        <ele>263</ele>
        <time>2015-11-11T11:51:17.977Z</time>
      </trkpt>
      <trkpt lat="45.95383" lon="4.86791">
        <ele>263.100006104</ele>
        <time>2015-11-11T11:51:18.963Z</time>
      </trkpt>
      <trkpt lat="45.9538" lon="4.86785">
        <ele>263.100006104</ele>
        <time>2015-11-11T11:51:19.984Z</time>
      </trkpt>
      <trkpt lat="45.95378" lon="4.8678">
        <ele>263.100006104</ele>
        <time>2015-11-11T11:51:20.979Z</time>
      </trkpt>
      <trkpt lat="45.95373" lon="4.8677">
        <ele>263.200012207</ele>
        <time>2015-11-11T11:51:22.978Z</time>
      </trkpt>
      <trkpt lat="45.9537" lon="4.86765">
        <ele>263.200012207</ele>
        <time>2015-11-11T11:51:23.962Z</time>
      </trkpt>
      <trkpt lat="45.95365" lon="4.86756">
        <ele>263.299987793</ele>
        <time>2015-11-11T11:51:25.977Z</time>
      </trkpt>
      <trkpt lat="45.95363" lon="4.86751">
        <ele>263.200012207</ele>
        <time>2015-11-11T11:51:26.966Z</time>
      </trkpt>
      <trkpt lat="45.95359" lon="4.86742">
        <ele>263.100006104</ele>
        <time>2015-11-11T11:51:28.978Z</time>
      </trkpt>
      <trkpt lat="45.95357" lon="4.86736">
        <ele>263.100006104</ele>
        <time>2015-11-11T11:51:29.962Z</time>
      </trkpt>
      <trkpt lat="45.95351" lon="4.86727">
        <ele>263.299987793</ele>
        <time>2015-11-11T11:51:32.018Z</time>
      </trkpt>
      <trkpt lat="45.95349" lon="4.86723">
        <ele>263.200012207</ele>
        <time>2015-11-11T11:51:32.966Z</time>
      </trkpt>
      <trkpt lat="45.95344" lon="4.86713">
        <ele>263.299987793</ele>
        <time>2015-11-11T11:51:34.977Z</time>
      </trkpt>
      <trkpt lat="45.95341" lon="4.86707">
        <ele>263.200012207</ele>
        <time>2015-11-11T11:51:35.962Z</time>
      </trkpt>
      <trkpt lat="45.95339" lon="4.86702">
        <ele>263.200012207</ele>
        <time>2015-11-11T11:51:36.977Z</time>
      </trkpt>
      <trkpt lat="45.95336" lon="4.86696">
        <ele>263.100006104</ele>
        <time>2015-11-11T11:51:37.963Z</time>
      </trkpt>
      <trkpt lat="45.95334" lon="4.8669">
        <ele>263.200012207</ele>
        <time>2015-11-11T11:51:38.981Z</time>
      </trkpt>
      <trkpt lat="45.95331" lon="4.86684">
        <ele>263.200012207</ele>
        <time>2015-11-11T11:51:39.964Z</time>
      </trkpt>
      <trkpt lat="45.95328" lon="4.86679">
        <ele>263.200012207</ele>
        <time>2015-11-11T11:51:41.01Z</time>
      </trkpt>
      <trkpt lat="45.95325" lon="4.86673">
        <ele>263.299987793</ele>
        <time>2015-11-11T11:51:41.962Z</time>
      </trkpt>
      <trkpt lat="45.95322" lon="4.86667">
        <ele>263.299987793</ele>
        <time>2015-11-11T11:51:42.994Z</time>
      </trkpt>
      <trkpt lat="45.95319" lon="4.86661">
        <ele>263.200012207</ele>
        <time>2015-11-11T11:51:43.962Z</time>
      </trkpt>
      <trkpt lat="45.95316" lon="4.86655">
        <ele>263.200012207</ele>
        <time>2015-11-11T11:51:44.98Z</time>
      </trkpt>
      <trkpt lat="45.95313" lon="4.86648">
        <ele>263.100006104</ele>
        <time>2015-11-11T11:51:45.962Z</time>
      </trkpt>
      <trkpt lat="45.9531" lon="4.86641">
        <ele>262.899993896</ele>
        <time>2015-11-11T11:51:46.978Z</time>
      </trkpt>
      <trkpt lat="45.95306" lon="4.86634">
        <ele>262.700012207</ele>
        <time>2015-11-11T11:51:48.086Z</time>
      </trkpt>
      <trkpt lat="45.95302" lon="4.86627">
        <ele>262.5</ele>
        <time>2015-11-11T11:51:48.976Z</time>
      </trkpt>
      <trkpt lat="45.95299" lon="4.8662">
        <ele>262.200012207</ele>
        <time>2015-11-11T11:51:49.962Z</time>
      </trkpt>
      <trkpt lat="45.95295" lon="4.86612">
        <ele>261.799987793</ele>
        <time>2015-11-11T11:51:50.98Z</time>
      </trkpt>
      <trkpt lat="45.95291" lon="4.86604">
        <ele>261.5</ele>
        <time>2015-11-11T11:51:51.962Z</time>
      </trkpt>
      <trkpt lat="45.95287" lon="4.86597">
        <ele>261.100006104</ele>
        <time>2015-11-11T11:51:52.979Z</time>
      </trkpt>
      <trkpt lat="45.95282" lon="4.86589">
        <ele>260.799987793</ele>
        <time>2015-11-11T11:51:53.962Z</time>
      </trkpt>
      <trkpt lat="45.95277" lon="4.86581">
        <ele>260.600006104</ele>
        <time>2015-11-11T11:51:54.976Z</time>
      </trkpt>
      <trkpt lat="45.95272" lon="4.86574">
        <ele>260.299987793</ele>
        <time>2015-11-11T11:51:55.973Z</time>
      </trkpt>
      <trkpt lat="45.95267" lon="4.86566">
        <ele>260.100006104</ele>
        <time>2015-11-11T11:51:56.98Z</time>
      </trkpt>
      <trkpt lat="45.95262" lon="4.86559">
        <ele>259.899993896</ele>
        <time>2015-11-11T11:51:57.963Z</time>
      </trkpt>
      <trkpt lat="45.95256" lon="4.86552">
        <ele>259.700012207</ele>
        <time>2015-11-11T11:51:58.996Z</time>
      </trkpt>
      <trkpt lat="45.95251" lon="4.86545">
        <ele>259.5</ele>
        <time>2015-11-11T11:51:59.962Z</time>
      </trkpt>
      <trkpt lat="45.95246" lon="4.86538">
        <ele>259.299987793</ele>
        <time>2015-11-11T11:52:00.977Z</time>
      </trkpt>
      <trkpt lat="45.9524" lon="4.86532">
        <ele>259.299987793</ele>
        <time>2015-11-11T11:52:01.962Z</time>
      </trkpt>
      <trkpt lat="45.95235" lon="4.86526">
        <ele>259.100006104</ele>
        <time>2015-11-11T11:52:02.98Z</time>
      </trkpt>
      <trkpt lat="45.9523" lon="4.8652">
        <ele>259.200012207</ele>
        <time>2015-11-11T11:52:03.963Z</time>
      </trkpt>
      <trkpt lat="45.95226" lon="4.86514">
        <ele>259.299987793</ele>
        <time>2015-11-11T11:52:04.978Z</time>
      </trkpt>
      <trkpt lat="45.95221" lon="4.86508">
        <ele>259.5</ele>
        <time>2015-11-11T11:52:05.962Z</time>
      </trkpt>
      <trkpt lat="45.95216" lon="4.86503">
        <ele>259.899993896</ele>
        <time>2015-11-11T11:52:06.977Z</time>
      </trkpt>
      <trkpt lat="45.95212" lon="4.86498">
        <ele>260.399993896</ele>
        <time>2015-11-11T11:52:07.962Z</time>
      </trkpt>
      <trkpt lat="45.95209" lon="4.86494">
        <ele>260.5</ele>
        <time>2015-11-11T11:52:08.98Z</time>
      </trkpt>
      <trkpt lat="45.95205" lon="4.86489">
        <ele>261</ele>
        <time>2015-11-11T11:52:09.963Z</time>
      </trkpt>
      <trkpt lat="45.95201" lon="4.86485">
        <ele>261.299987793</ele>
        <time>2015-11-11T11:52:10.978Z</time>
      </trkpt>
      <trkpt lat="45.95198" lon="4.8648">
        <ele>261.399993896</ele>
        <time>2015-11-11T11:52:11.962Z</time>
      </trkpt>
      <trkpt lat="45.95191" lon="4.86472">
        <ele>261.899993896</ele>
        <time>2015-11-11T11:52:13.977Z</time>
      </trkpt>
      <trkpt lat="45.95188" lon="4.86469">
        <ele>262.200012207</ele>
        <time>2015-11-11T11:52:14.979Z</time>
      </trkpt>
      <trkpt lat="45.95182" lon="4.86459">
        <ele>263</ele>
        <time>2015-11-11T11:52:16.977Z</time>
      </trkpt>
      <trkpt lat="45.95179" lon="4.86455">
        <ele>262.899993896</ele>
        <time>2015-11-11T11:52:17.962Z</time>
      </trkpt>
      <trkpt lat="45.95172" lon="4.86447">
        <ele>263.600006104</ele>
        <time>2015-11-11T11:52:19.977Z</time>
      </trkpt>
      <trkpt lat="45.95169" lon="4.86444">
        <ele>263.399993896</ele>
        <time>2015-11-11T11:52:20.965Z</time>
      </trkpt>
      <trkpt lat="45.95163" lon="4.86436">
        <ele>263.799987793</ele>
        <time>2015-11-11T11:52:22.977Z</time>
      </trkpt>
      <trkpt lat="45.95159" lon="4.86431">
        <ele>263.899993896</ele>
        <time>2015-11-11T11:52:23.963Z</time>
      </trkpt>
      <trkpt lat="45.95156" lon="4.86427">
        <ele>264.100006104</ele>
        <time>2015-11-11T11:52:24.999Z</time>
      </trkpt>
      <trkpt lat="45.95152" lon="4.86423">
        <ele>263.799987793</ele>
        <time>2015-11-11T11:52:25.963Z</time>
      </trkpt>
      <trkpt lat="45.95148" lon="4.86419">
        <ele>263.799987793</ele>
        <time>2015-11-11T11:52:26.98Z</time>
      </trkpt>
      <trkpt lat="45.95144" lon="4.86414">
        <ele>263.799987793</ele>
        <time>2015-11-11T11:52:27.962Z</time>
      </trkpt>
      <trkpt lat="45.95141" lon="4.8641">
        <ele>263.899993896</ele>
        <time>2015-11-11T11:52:28.978Z</time>
      </trkpt>
      <trkpt lat="45.95136" lon="4.86405">
        <ele>263.799987793</ele>
        <time>2015-11-11T11:52:29.962Z</time>
      </trkpt>
      <trkpt lat="45.95133" lon="4.864">
        <ele>263.799987793</ele>
        <time>2015-11-11T11:52:30.977Z</time>
      </trkpt>
      <trkpt lat="45.95129" lon="4.86395">
        <ele>263.899993896</ele>
        <time>2015-11-11T11:52:31.962Z</time>
      </trkpt>
      <trkpt lat="45.95125" lon="4.8639">
        <ele>264</ele>
        <time>2015-11-11T11:52:32.979Z</time>
      </trkpt>
      <trkpt lat="45.95121" lon="4.86384">
        <ele>264.100006104</ele>
        <time>2015-11-11T11:52:33.962Z</time>
      </trkpt>
      <trkpt lat="45.95118" lon="4.8638">
        <ele>264.100006104</ele>
        <time>2015-11-11T11:52:34.978Z</time>
      </trkpt>
      <trkpt lat="45.95114" lon="4.86376">
        <ele>264.200012207</ele>
        <time>2015-11-11T11:52:35.979Z</time>
      </trkpt>
      <trkpt lat="45.9511" lon="4.86372">
        <ele>264.299987793</ele>
        <time>2015-11-11T11:52:36.976Z</time>
      </trkpt>
      <trkpt lat="45.95106" lon="4.86368">
        <ele>264.299987793</ele>
        <time>2015-11-11T11:52:37.962Z</time>
      </trkpt>
      <trkpt lat="45.95102" lon="4.86364">
        <ele>264.299987793</ele>
        <time>2015-11-11T11:52:38.979Z</time>
      </trkpt>
      <trkpt lat="45.95099" lon="4.86359">
        <ele>264.299987793</ele>
        <time>2015-11-11T11:52:39.965Z</time>
      </trkpt>
      <trkpt lat="45.95096" lon="4.86354">
        <ele>264.399993896</ele>
        <time>2015-11-11T11:52:40.978Z</time>
      </trkpt>
      <trkpt lat="45.95092" lon="4.8635">
        <ele>264.5</ele>
        <time>2015-11-11T11:52:41.962Z</time>
      </trkpt>
      <trkpt lat="45.95089" lon="4.86345">
        <ele>264.600006104</ele>
        <time>2015-11-11T11:52:42.976Z</time>
      </trkpt>
      <trkpt lat="45.95085" lon="4.86341">
        <ele>264.700012207</ele>
        <time>2015-11-11T11:52:43.962Z</time>
      </trkpt>
      <trkpt lat="45.95081" lon="4.86337">
        <ele>264.700012207</ele>
        <time>2015-11-11T11:52:44.979Z</time>
      </trkpt>
      <trkpt lat="45.95077" lon="4.86332">
        <ele>264.799987793</ele>
        <time>2015-11-11T11:52:45.962Z</time>
      </trkpt>
      <trkpt lat="45.95074" lon="4.86328">
        <ele>264.799987793</ele>
        <time>2015-11-11T11:52:46.991Z</time>
      </trkpt>
      <trkpt lat="45.9507" lon="4.86323">
        <ele>264.799987793</ele>
        <time>2015-11-11T11:52:47.962Z</time>
      </trkpt>
      <trkpt lat="45.95066" lon="4.86319">
        <ele>264.799987793</ele>
        <time>2015-11-11T11:52:48.983Z</time>
      </trkpt>
      <trkpt lat="45.95063" lon="4.86314">
        <ele>264.899993896</ele>
        <time>2015-11-11T11:52:49.969Z</time>
      </trkpt>
      <trkpt lat="45.95059" lon="4.8631">
        <ele>264.899993896</ele>
        <time>2015-11-11T11:52:50.98Z</time>
      </trkpt>
      <trkpt lat="45.95056" lon="4.86306">
        <ele>264.899993896</ele>
        <time>2015-11-11T11:52:51.962Z</time>
      </trkpt>
      <trkpt lat="45.95052" lon="4.86301">
        <ele>265</ele>
        <time>2015-11-11T11:52:52.978Z</time>
      </trkpt>
      <trkpt lat="45.95048" lon="4.86297">
        <ele>265.200012207</ele>
        <time>2015-11-11T11:52:53.962Z</time>
      </trkpt>
      <trkpt lat="45.95045" lon="4.86292">
        <ele>265.299987793</ele>
        <time>2015-11-11T11:52:54.977Z</time>
      </trkpt>
      <trkpt lat="45.95041" lon="4.86288">
        <ele>265.399993896</ele>
        <time>2015-11-11T11:52:55.962Z</time>
      </trkpt>
      <trkpt lat="45.95038" lon="4.86284">
        <ele>265.5</ele>
        <time>2015-11-11T11:52:56.979Z</time>
      </trkpt>
      <trkpt lat="45.95034" lon="4.8628">
        <ele>265.600006104</ele>
        <time>2015-11-11T11:52:57.962Z</time>
      </trkpt>
      <trkpt lat="45.95027" lon="4.86272">
        <ele>265.799987793</ele>
        <time>2015-11-11T11:52:59.976Z</time>
      </trkpt>
      <trkpt lat="45.95024" lon="4.86267">
        <ele>265.899993896</ele>
        <time>2015-11-11T11:53:00.962Z</time>
      </trkpt>
      <trkpt lat="45.95021" lon="4.86263">
        <ele>266.100006104</ele>
        <time>2015-11-11T11:53:01.976Z</time>
      </trkpt>
      <trkpt lat="45.95017" lon="4.86259">
        <ele>266.200012207</ele>
        <time>2015-11-11T11:53:02.979Z</time>
      </trkpt>
      <trkpt lat="45.95013" lon="4.86255">
        <ele>266.399993896</ele>
        <time>2015-11-11T11:53:03.976Z</time>
      </trkpt>
      <trkpt lat="45.9501" lon="4.86251">
        <ele>266.399993896</ele>
        <time>2015-11-11T11:53:04.963Z</time>
      </trkpt>
      <trkpt lat="45.95003" lon="4.86242">
        <ele>266.799987793</ele>
        <time>2015-11-11T11:53:06.976Z</time>
      </trkpt>
      <trkpt lat="45.95" lon="4.86238">
        <ele>266.899993896</ele>
        <time>2015-11-11T11:53:07.962Z</time>
      </trkpt>
      <trkpt lat="45.94993" lon="4.86229">
        <ele>267</ele>
        <time>2015-11-11T11:53:09.98Z</time>
      </trkpt>
      <trkpt lat="45.9499" lon="4.86225">
        <ele>267.100006104</ele>
        <time>2015-11-11T11:53:10.964Z</time>
      </trkpt>
      <trkpt lat="45.94983" lon="4.86217">
        <ele>267.299987793</ele>
        <time>2015-11-11T11:53:13.131Z</time>
      </trkpt>
      <trkpt lat="45.94979" lon="4.86213">
        <ele>267.399993896</ele>
        <time>2015-11-11T11:53:13.963Z</time>
      </trkpt>
      <trkpt lat="45.94973" lon="4.86204">
        <ele>267.600006104</ele>
        <time>2015-11-11T11:53:15.977Z</time>
      </trkpt>
      <trkpt lat="45.94969" lon="4.862">
        <ele>267.700012207</ele>
        <time>2015-11-11T11:53:16.963Z</time>
      </trkpt>
      <trkpt lat="45.94962" lon="4.86192">
        <ele>267.899993896</ele>
        <time>2015-11-11T11:53:18.977Z</time>
      </trkpt>
      <trkpt lat="45.94959" lon="4.86187">
        <ele>268</ele>
        <time>2015-11-11T11:53:19.962Z</time>
      </trkpt>
      <trkpt lat="45.94955" lon="4.86183">
        <ele>268</ele>
        <time>2015-11-11T11:53:20.979Z</time>
      </trkpt>
      <trkpt lat="45.94952" lon="4.86179">
        <ele>268.100006104</ele>
        <time>2015-11-11T11:53:21.962Z</time>
      </trkpt>
      <trkpt lat="45.94948" lon="4.86174">
        <ele>268.100006104</ele>
        <time>2015-11-11T11:53:22.978Z</time>
      </trkpt>
      <trkpt lat="45.94945" lon="4.8617">
        <ele>268.200012207</ele>
        <time>2015-11-11T11:53:23.975Z</time>
      </trkpt>
      <trkpt lat="45.94941" lon="4.86166">
        <ele>268.200012207</ele>
        <time>2015-11-11T11:53:24.977Z</time>
      </trkpt>
      <trkpt lat="45.94938" lon="4.86161">
        <ele>268.299987793</ele>
        <time>2015-11-11T11:53:25.962Z</time>
      </trkpt>
      <trkpt lat="45.94934" lon="4.86157">
        <ele>268.299987793</ele>
        <time>2015-11-11T11:53:26.98Z</time>
      </trkpt>
      <trkpt lat="45.94931" lon="4.86152">
        <ele>268.299987793</ele>
        <time>2015-11-11T11:53:27.962Z</time>
      </trkpt>
      <trkpt lat="45.94928" lon="4.86147">
        <ele>268.299987793</ele>
        <time>2015-11-11T11:53:28.978Z</time>
      </trkpt>
      <trkpt lat="45.94925" lon="4.86142">
        <ele>268.399993896</ele>
        <time>2015-11-11T11:53:29.962Z</time>
      </trkpt>
      <trkpt lat="45.94922" lon="4.86137">
        <ele>268.5</ele>
        <time>2015-11-11T11:53:30.976Z</time>
      </trkpt>
      <trkpt lat="45.94918" lon="4.86132">
        <ele>268.600006104</ele>
        <time>2015-11-11T11:53:31.962Z</time>
      </trkpt>
      <trkpt lat="45.94913" lon="4.86122">
        <ele>268.799987793</ele>
        <time>2015-11-11T11:53:33.983Z</time>
      </trkpt>
      <trkpt lat="45.9491" lon="4.86117">
        <ele>268.799987793</ele>
        <time>2015-11-11T11:53:34.963Z</time>
      </trkpt>
      <trkpt lat="45.94906" lon="4.86107">
        <ele>269</ele>
        <time>2015-11-11T11:53:36.977Z</time>
      </trkpt>
      <trkpt lat="45.94903" lon="4.86101">
        <ele>269.100006104</ele>
        <time>2015-11-11T11:53:37.962Z</time>
      </trkpt>
      <trkpt lat="45.94899" lon="4.86091">
        <ele>269.399993896</ele>
        <time>2015-11-11T11:53:39.978Z</time>
      </trkpt>
      <trkpt lat="45.94898" lon="4.86086">
        <ele>269.600006104</ele>
        <time>2015-11-11T11:53:40.963Z</time>
      </trkpt>
      <trkpt lat="45.94894" lon="4.86074">
        <ele>269.5</ele>
        <time>2015-11-11T11:53:42.977Z</time>
      </trkpt>
      <trkpt lat="45.94893" lon="4.86068">
        <ele>269.5</ele>
        <time>2015-11-11T11:53:43.962Z</time>
      </trkpt>
      <trkpt lat="45.94889" lon="4.86057">
        <ele>269.700012207</ele>
        <time>2015-11-11T11:53:45.976Z</time>
      </trkpt>
      <trkpt lat="45.94888" lon="4.86051">
        <ele>269.799987793</ele>
        <time>2015-11-11T11:53:46.963Z</time>
      </trkpt>
      <trkpt lat="45.94886" lon="4.86045">
        <ele>269.799987793</ele>
        <time>2015-11-11T11:53:47.977Z</time>
      </trkpt>
      <trkpt lat="45.94885" lon="4.86039">
        <ele>269.799987793</ele>
        <time>2015-11-11T11:53:48.962Z</time>
      </trkpt>
      <trkpt lat="45.94883" lon="4.86033">
        <ele>269.799987793</ele>
        <time>2015-11-11T11:53:49.99Z</time>
      </trkpt>
      <trkpt lat="45.94881" lon="4.86027">
        <ele>269.899993896</ele>
        <time>2015-11-11T11:53:50.965Z</time>
      </trkpt>
      <trkpt lat="45.9488" lon="4.86021">
        <ele>270</ele>
        <time>2015-11-11T11:53:51.976Z</time>
      </trkpt>
      <trkpt lat="45.94878" lon="4.86014">
        <ele>270</ele>
        <time>2015-11-11T11:53:52.963Z</time>
      </trkpt>
      <trkpt lat="45.94876" lon="4.86008">
        <ele>270</ele>
        <time>2015-11-11T11:53:53.976Z</time>
      </trkpt>
      <trkpt lat="45.94875" lon="4.86002">
        <ele>269.899993896</ele>
        <time>2015-11-11T11:53:54.962Z</time>
      </trkpt>
      <trkpt lat="45.94873" lon="4.85995">
        <ele>269.899993896</ele>
        <time>2015-11-11T11:53:55.976Z</time>
      </trkpt>
      <trkpt lat="45.94871" lon="4.85989">
        <ele>269.899993896</ele>
        <time>2015-11-11T11:53:56.965Z</time>
      </trkpt>
      <trkpt lat="45.94868" lon="4.85977">
        <ele>269.899993896</ele>
        <time>2015-11-11T11:53:58.977Z</time>
      </trkpt>
      <trkpt lat="45.94867" lon="4.85971">
        <ele>269.899993896</ele>
        <time>2015-11-11T11:53:59.962Z</time>
      </trkpt>
      <trkpt lat="45.94865" lon="4.85965">
        <ele>269.899993896</ele>
        <time>2015-11-11T11:54:01.007Z</time>
      </trkpt>
      <trkpt lat="45.94864" lon="4.85959">
        <ele>270</ele>
        <time>2015-11-11T11:54:01.962Z</time>
      </trkpt>
      <trkpt lat="45.94861" lon="4.85947">
        <ele>270</ele>
        <time>2015-11-11T11:54:03.976Z</time>
      </trkpt>
      <trkpt lat="45.94859" lon="4.8594">
        <ele>270</ele>
        <time>2015-11-11T11:54:04.963Z</time>
      </trkpt>
      <trkpt lat="45.94858" lon="4.85934">
        <ele>270.100006104</ele>
        <time>2015-11-11T11:54:05.976Z</time>
      </trkpt>
      <trkpt lat="45.94856" lon="4.85928">
        <ele>270.100006104</ele>
        <time>2015-11-11T11:54:06.962Z</time>
      </trkpt>
      <trkpt lat="45.94854" lon="4.85922">
        <ele>270.200012207</ele>
        <time>2015-11-11T11:54:07.977Z</time>
      </trkpt>
      <trkpt lat="45.94852" lon="4.85916">
        <ele>270.200012207</ele>
        <time>2015-11-11T11:54:08.965Z</time>
      </trkpt>
      <trkpt lat="45.9485" lon="4.85909">
        <ele>270.299987793</ele>
        <time>2015-11-11T11:54:09.976Z</time>
      </trkpt>
      <trkpt lat="45.94849" lon="4.85903">
        <ele>270.399993896</ele>
        <time>2015-11-11T11:54:10.977Z</time>
      </trkpt>
      <trkpt lat="45.94847" lon="4.85897">
        <ele>270.5</ele>
        <time>2015-11-11T11:54:11.976Z</time>
      </trkpt>
      <trkpt lat="45.94846" lon="4.85891">
        <ele>270.600006104</ele>
        <time>2015-11-11T11:54:12.962Z</time>
      </trkpt>
      <trkpt lat="45.94844" lon="4.85884">
        <ele>270.600006104</ele>
        <time>2015-11-11T11:54:13.976Z</time>
      </trkpt>
      <trkpt lat="45.94843" lon="4.85878">
        <ele>270.700012207</ele>
        <time>2015-11-11T11:54:15.003Z</time>
      </trkpt>
      <trkpt lat="45.94842" lon="4.85872">
        <ele>270.700012207</ele>
        <time>2015-11-11T11:54:15.976Z</time>
      </trkpt>
      <trkpt lat="45.9484" lon="4.85866">
        <ele>270.799987793</ele>
        <time>2015-11-11T11:54:16.963Z</time>
      </trkpt>
      <trkpt lat="45.94838" lon="4.85859">
        <ele>270.899993896</ele>
        <time>2015-11-11T11:54:17.977Z</time>
      </trkpt>
      <trkpt lat="45.94836" lon="4.85854">
        <ele>271</ele>
        <time>2015-11-11T11:54:18.962Z</time>
      </trkpt>
      <trkpt lat="45.94833" lon="4.85842">
        <ele>271.100006104</ele>
        <time>2015-11-11T11:54:20.979Z</time>
      </trkpt>
      <trkpt lat="45.94832" lon="4.85836">
        <ele>271.200012207</ele>
        <time>2015-11-11T11:54:21.962Z</time>
      </trkpt>
      <trkpt lat="45.94829" lon="4.85823">
        <ele>271.200012207</ele>
        <time>2015-11-11T11:54:23.976Z</time>
      </trkpt>
      <trkpt lat="45.94827" lon="4.85817">
        <ele>271.299987793</ele>
        <time>2015-11-11T11:54:24.962Z</time>
      </trkpt>
      <trkpt lat="45.94826" lon="4.85811">
        <ele>271.399993896</ele>
        <time>2015-11-11T11:54:25.976Z</time>
      </trkpt>
      <trkpt lat="45.94824" lon="4.85805">
        <ele>271.399993896</ele>
        <time>2015-11-11T11:54:26.965Z</time>
      </trkpt>
      <trkpt lat="45.94822" lon="4.85799">
        <ele>271.5</ele>
        <time>2015-11-11T11:54:27.976Z</time>
      </trkpt>
      <trkpt lat="45.9482" lon="4.85792">
        <ele>271.600006104</ele>
        <time>2015-11-11T11:54:28.963Z</time>
      </trkpt>
      <trkpt lat="45.94819" lon="4.85786">
        <ele>271.700012207</ele>
        <time>2015-11-11T11:54:29.976Z</time>
      </trkpt>
      <trkpt lat="45.94817" lon="4.8578">
        <ele>271.799987793</ele>
        <time>2015-11-11T11:54:30.962Z</time>
      </trkpt>
      <trkpt lat="45.94815" lon="4.85774">
        <ele>271.899993896</ele>
        <time>2015-11-11T11:54:31.976Z</time>
      </trkpt>
      <trkpt lat="45.94814" lon="4.85768">
        <ele>272</ele>
        <time>2015-11-11T11:54:32.979Z</time>
      </trkpt>
      <trkpt lat="45.94811" lon="4.85756">
        <ele>272.200012207</ele>
        <time>2015-11-11T11:54:34.977Z</time>
      </trkpt>
      <trkpt lat="45.94809" lon="4.8575">
        <ele>272.200012207</ele>
        <time>2015-11-11T11:54:35.962Z</time>
      </trkpt>
      <trkpt lat="45.94806" lon="4.85739">
        <ele>272.399993896</ele>
        <time>2015-11-11T11:54:37.976Z</time>
      </trkpt>
      <trkpt lat="45.94804" lon="4.85733">
        <ele>272.5</ele>
        <time>2015-11-11T11:54:38.965Z</time>
      </trkpt>
      <trkpt lat="45.94801" lon="4.85723">
        <ele>272.700012207</ele>
        <time>2015-11-11T11:54:40.979Z</time>
      </trkpt>
      <trkpt lat="45.948" lon="4.85717">
        <ele>272.799987793</ele>
        <time>2015-11-11T11:54:41.964Z</time>
      </trkpt>
      <trkpt lat="45.94797" lon="4.85706">
        <ele>272.899993896</ele>
        <time>2015-11-11T11:54:43.992Z</time>
      </trkpt>
      <trkpt lat="45.94795" lon="4.857">
        <ele>272.899993896</ele>
        <time>2015-11-11T11:54:44.965Z</time>
      </trkpt>
      <trkpt lat="45.94792" lon="4.85689">
        <ele>273</ele>
        <time>2015-11-11T11:54:46.977Z</time>
      </trkpt>
      <trkpt lat="45.94791" lon="4.85683">
        <ele>273.100006104</ele>
        <time>2015-11-11T11:54:47.962Z</time>
      </trkpt>
      <trkpt lat="45.94789" lon="4.85677">
        <ele>272.899993896</ele>
        <time>2015-11-11T11:54:48.976Z</time>
      </trkpt>
      <trkpt lat="45.94788" lon="4.8567">
        <ele>272.899993896</ele>
        <time>2015-11-11T11:54:49.962Z</time>
      </trkpt>
      <trkpt lat="45.94786" lon="4.85664">
        <ele>272.799987793</ele>
        <time>2015-11-11T11:54:50.979Z</time>
      </trkpt>
      <trkpt lat="45.94784" lon="4.85657">
        <ele>272.700012207</ele>
        <time>2015-11-11T11:54:51.962Z</time>
      </trkpt>
      <trkpt lat="45.94782" lon="4.8565">
        <ele>272.600006104</ele>
        <time>2015-11-11T11:54:52.978Z</time>
      </trkpt>
      <trkpt lat="45.9478" lon="4.85643">
        <ele>272.399993896</ele>
        <time>2015-11-11T11:54:53.962Z</time>
      </trkpt>
      <trkpt lat="45.94779" lon="4.85636">
        <ele>272.299987793</ele>
        <time>2015-11-11T11:54:54.989Z</time>
      </trkpt>
      <trkpt lat="45.94777" lon="4.85629">
        <ele>272.100006104</ele>
        <time>2015-11-11T11:54:55.962Z</time>
      </trkpt>
      <trkpt lat="45.94775" lon="4.85621">
        <ele>272</ele>
        <time>2015-11-11T11:54:56.979Z</time>
      </trkpt>
      <trkpt lat="45.94773" lon="4.85614">
        <ele>271.799987793</ele>
        <time>2015-11-11T11:54:57.962Z</time>
      </trkpt>
      <trkpt lat="45.94772" lon="4.85606">
        <ele>271.5</ele>
        <time>2015-11-11T11:54:58.977Z</time>
      </trkpt>
      <trkpt lat="45.9477" lon="4.85598">
        <ele>271.200012207</ele>
        <time>2015-11-11T11:54:59.963Z</time>
      </trkpt>
      <trkpt lat="45.94768" lon="4.8559">
        <ele>270.899993896</ele>
        <time>2015-11-11T11:55:00.976Z</time>
      </trkpt>
      <trkpt lat="45.94767" lon="4.85581">
        <ele>270.399993896</ele>
        <time>2015-11-11T11:55:01.962Z</time>
      </trkpt>
      <trkpt lat="45.94765" lon="4.85572">
        <ele>270.100006104</ele>
        <time>2015-11-11T11:55:02.979Z</time>
      </trkpt>
      <trkpt lat="45.94763" lon="4.85563">
        <ele>269.600006104</ele>
        <time>2015-11-11T11:55:03.962Z</time>
      </trkpt>
      <trkpt lat="45.94761" lon="4.85554">
        <ele>269.200012207</ele>
        <time>2015-11-11T11:55:04.977Z</time>
      </trkpt>
      <trkpt lat="45.94759" lon="4.85544">
        <ele>268.799987793</ele>
        <time>2015-11-11T11:55:05.962Z</time>
      </trkpt>
      <trkpt lat="45.94758" lon="4.85534">
        <ele>268.299987793</ele>
        <time>2015-11-11T11:55:06.976Z</time>
      </trkpt>
      <trkpt lat="45.94756" lon="4.85524">
        <ele>267.799987793</ele>
        <time>2015-11-11T11:55:07.962Z</time>
      </trkpt>
      <trkpt lat="45.94755" lon="4.85512">
        <ele>267.399993896</ele>
        <time>2015-11-11T11:55:08.979Z</time>
      </trkpt>
      <trkpt lat="45.94755" lon="4.85501">
        <ele>267.100006104</ele>
        <time>2015-11-11T11:55:09.962Z</time>
      </trkpt>
      <trkpt lat="45.94753" lon="4.8549">
        <ele>266.700012207</ele>
        <time>2015-11-11T11:55:10.991Z</time>
      </trkpt>
      <trkpt lat="45.94751" lon="4.85478">
        <ele>266.299987793</ele>
        <time>2015-11-11T11:55:11.962Z</time>
      </trkpt>
      <trkpt lat="45.9475" lon="4.85465">
        <ele>265.899993896</ele>
        <time>2015-11-11T11:55:12.976Z</time>
      </trkpt>
      <trkpt lat="45.94749" lon="4.85453">
        <ele>265.5</ele>
        <time>2015-11-11T11:55:13.962Z</time>
      </trkpt>
      <trkpt lat="45.94747" lon="4.85441">
        <ele>265.200012207</ele>
        <time>2015-11-11T11:55:14.979Z</time>
      </trkpt>
      <trkpt lat="45.94746" lon="4.85429">
        <ele>264.799987793</ele>
        <time>2015-11-11T11:55:15.962Z</time>
      </trkpt>
      <trkpt lat="45.94745" lon="4.85417">
        <ele>264.5</ele>
        <time>2015-11-11T11:55:16.987Z</time>
      </trkpt>
      <trkpt lat="45.94743" lon="4.85405">
        <ele>264.200012207</ele>
        <time>2015-11-11T11:55:17.962Z</time>
      </trkpt>
      <trkpt lat="45.94742" lon="4.85393">
        <ele>264</ele>
        <time>2015-11-11T11:55:18.976Z</time>
      </trkpt>
      <trkpt lat="45.94741" lon="4.85382">
        <ele>263.899993896</ele>
        <time>2015-11-11T11:55:19.962Z</time>
      </trkpt>
      <trkpt lat="45.94739" lon="4.85371">
        <ele>263.799987793</ele>
        <time>2015-11-11T11:55:20.979Z</time>
      </trkpt>
      <trkpt lat="45.94738" lon="4.8536">
        <ele>263.600006104</ele>
        <time>2015-11-11T11:55:21.962Z</time>
      </trkpt>
      <trkpt lat="45.94737" lon="4.85349">
        <ele>263.5</ele>
        <time>2015-11-11T11:55:22.978Z</time>
      </trkpt>
      <trkpt lat="45.94736" lon="4.85338">
        <ele>263.5</ele>
        <time>2015-11-11T11:55:23.962Z</time>
      </trkpt>
      <trkpt lat="45.94735" lon="4.85328">
        <ele>263.299987793</ele>
        <time>2015-11-11T11:55:24.976Z</time>
      </trkpt>
      <trkpt lat="45.94734" lon="4.85319">
        <ele>263.299987793</ele>
        <time>2015-11-11T11:55:25.963Z</time>
      </trkpt>
      <trkpt lat="45.94733" lon="4.85309">
        <ele>263.299987793</ele>
        <time>2015-11-11T11:55:26.993Z</time>
      </trkpt>
      <trkpt lat="45.94731" lon="4.853">
        <ele>263.200012207</ele>
        <time>2015-11-11T11:55:27.962Z</time>
      </trkpt>
      <trkpt lat="45.94731" lon="4.8529">
        <ele>263.100006104</ele>
        <time>2015-11-11T11:55:28.977Z</time>
      </trkpt>
      <trkpt lat="45.9473" lon="4.85281">
        <ele>263</ele>
        <time>2015-11-11T11:55:29.962Z</time>
      </trkpt>
      <trkpt lat="45.94728" lon="4.85272">
        <ele>263</ele>
        <time>2015-11-11T11:55:30.976Z</time>
      </trkpt>
      <trkpt lat="45.94727" lon="4.85263">
        <ele>262.899993896</ele>
        <time>2015-11-11T11:55:31.962Z</time>
      </trkpt>
      <trkpt lat="45.94726" lon="4.85253">
        <ele>262.799987793</ele>
        <time>2015-11-11T11:55:32.979Z</time>
      </trkpt>
      <trkpt lat="45.94725" lon="4.85244">
        <ele>262.799987793</ele>
        <time>2015-11-11T11:55:33.962Z</time>
      </trkpt>
      <trkpt lat="45.94724" lon="4.85235">
        <ele>262.799987793</ele>
        <time>2015-11-11T11:55:34.977Z</time>
      </trkpt>
      <trkpt lat="45.94723" lon="4.85225">
        <ele>262.799987793</ele>
        <time>2015-11-11T11:55:35.962Z</time>
      </trkpt>
      <trkpt lat="45.94722" lon="4.85216">
        <ele>262.700012207</ele>
        <time>2015-11-11T11:55:36.976Z</time>
      </trkpt>
      <trkpt lat="45.94721" lon="4.85207">
        <ele>262.799987793</ele>
        <time>2015-11-11T11:55:37.962Z</time>
      </trkpt>
      <trkpt lat="45.9472" lon="4.85198">
        <ele>262.799987793</ele>
        <time>2015-11-11T11:55:38.979Z</time>
      </trkpt>
      <trkpt lat="45.94719" lon="4.85189">
        <ele>262.700012207</ele>
        <time>2015-11-11T11:55:39.964Z</time>
      </trkpt>
      <trkpt lat="45.94719" lon="4.8518">
        <ele>262.600006104</ele>
        <time>2015-11-11T11:55:40.977Z</time>
      </trkpt>
      <trkpt lat="45.94718" lon="4.8517">
        <ele>262.600006104</ele>
        <time>2015-11-11T11:55:41.962Z</time>
      </trkpt>
      <trkpt lat="45.94717" lon="4.85161">
        <ele>262.600006104</ele>
        <time>2015-11-11T11:55:42.976Z</time>
      </trkpt>
      <trkpt lat="45.94716" lon="4.85152">
        <ele>262.600006104</ele>
        <time>2015-11-11T11:55:43.962Z</time>
      </trkpt>
      <trkpt lat="45.94716" lon="4.85143">
        <ele>262.5</ele>
        <time>2015-11-11T11:55:44.979Z</time>
      </trkpt>
      <trkpt lat="45.94715" lon="4.85135">
        <ele>262.5</ele>
        <time>2015-11-11T11:55:45.962Z</time>
      </trkpt>
      <trkpt lat="45.94714" lon="4.85127">
        <ele>262.399993896</ele>
        <time>2015-11-11T11:55:46.977Z</time>
      </trkpt>
      <trkpt lat="45.94713" lon="4.85119">
        <ele>262.399993896</ele>
        <time>2015-11-11T11:55:47.962Z</time>
      </trkpt>
      <trkpt lat="45.94712" lon="4.8511">
        <ele>262.399993896</ele>
        <time>2015-11-11T11:55:48.997Z</time>
      </trkpt>
      <trkpt lat="45.9471" lon="4.85102">
        <ele>262.399993896</ele>
        <time>2015-11-11T11:55:49.962Z</time>
      </trkpt>
      <trkpt lat="45.9471" lon="4.85094">
        <ele>262.399993896</ele>
        <time>2015-11-11T11:55:50.979Z</time>
      </trkpt>
      <trkpt lat="45.94709" lon="4.85086">
        <ele>262.399993896</ele>
        <time>2015-11-11T11:55:51.963Z</time>
      </trkpt>
      <trkpt lat="45.94708" lon="4.85077">
        <ele>262.399993896</ele>
        <time>2015-11-11T11:55:52.987Z</time>
      </trkpt>
      <trkpt lat="45.94707" lon="4.85069">
        <ele>262.299987793</ele>
        <time>2015-11-11T11:55:53.962Z</time>
      </trkpt>
      <trkpt lat="45.94706" lon="4.85061">
        <ele>262.200012207</ele>
        <time>2015-11-11T11:55:54.976Z</time>
      </trkpt>
      <trkpt lat="45.94705" lon="4.85052">
        <ele>262.100006104</ele>
        <time>2015-11-11T11:55:55.962Z</time>
      </trkpt>
      <trkpt lat="45.94704" lon="4.85043">
        <ele>262.100006104</ele>
        <time>2015-11-11T11:55:56.979Z</time>
      </trkpt>
      <trkpt lat="45.94703" lon="4.85035">
        <ele>262.100006104</ele>
        <time>2015-11-11T11:55:57.962Z</time>
      </trkpt>
      <trkpt lat="45.94702" lon="4.85026">
        <ele>262</ele>
        <time>2015-11-11T11:55:58.977Z</time>
      </trkpt>
      <trkpt lat="45.94701" lon="4.85017">
        <ele>262</ele>
        <time>2015-11-11T11:56:00Z</time>
      </trkpt>
      <trkpt lat="45.947" lon="4.85009">
        <ele>261.899993896</ele>
        <time>2015-11-11T11:56:00.976Z</time>
      </trkpt>
      <trkpt lat="45.94699" lon="4.85001">
        <ele>261.799987793</ele>
        <time>2015-11-11T11:56:01.962Z</time>
      </trkpt>
      <trkpt lat="45.94698" lon="4.84993">
        <ele>261.700012207</ele>
        <time>2015-11-11T11:56:02.98Z</time>
      </trkpt>
      <trkpt lat="45.94698" lon="4.84985">
        <ele>261.700012207</ele>
        <time>2015-11-11T11:56:03.962Z</time>
      </trkpt>
      <trkpt lat="45.94697" lon="4.84978">
        <ele>261.700012207</ele>
        <time>2015-11-11T11:56:04.991Z</time>
      </trkpt>
      <trkpt lat="45.94697" lon="4.84971">
        <ele>261.700012207</ele>
        <time>2015-11-11T11:56:05.962Z</time>
      </trkpt>
      <trkpt lat="45.94696" lon="4.84963">
        <ele>261.700012207</ele>
        <time>2015-11-11T11:56:06.976Z</time>
      </trkpt>
      <trkpt lat="45.94695" lon="4.84956">
        <ele>261.700012207</ele>
        <time>2015-11-11T11:56:07.962Z</time>
      </trkpt>
      <trkpt lat="45.94694" lon="4.84948">
        <ele>261.600006104</ele>
        <time>2015-11-11T11:56:08.979Z</time>
      </trkpt>
      <trkpt lat="45.94693" lon="4.84941">
        <ele>261.5</ele>
        <time>2015-11-11T11:56:09.962Z</time>
      </trkpt>
      <trkpt lat="45.94692" lon="4.84933">
        <ele>261.399993896</ele>
        <time>2015-11-11T11:56:10.977Z</time>
      </trkpt>
      <trkpt lat="45.94691" lon="4.84925">
        <ele>261.399993896</ele>
        <time>2015-11-11T11:56:11.962Z</time>
      </trkpt>
      <trkpt lat="45.9469" lon="4.84917">
        <ele>261.299987793</ele>
        <time>2015-11-11T11:56:12.976Z</time>
      </trkpt>
      <trkpt lat="45.94689" lon="4.84909">
        <ele>261.200012207</ele>
        <time>2015-11-11T11:56:13.962Z</time>
      </trkpt>
      <trkpt lat="45.94688" lon="4.84901">
        <ele>261.100006104</ele>
        <time>2015-11-11T11:56:14.979Z</time>
      </trkpt>
      <trkpt lat="45.94688" lon="4.84893">
        <ele>261.100006104</ele>
        <time>2015-11-11T11:56:15.962Z</time>
      </trkpt>
      <trkpt lat="45.94687" lon="4.84884">
        <ele>261.100006104</ele>
        <time>2015-11-11T11:56:16.977Z</time>
      </trkpt>
      <trkpt lat="45.94686" lon="4.84876">
        <ele>261</ele>
        <time>2015-11-11T11:56:17.963Z</time>
      </trkpt>
      <trkpt lat="45.94685" lon="4.84868">
        <ele>261</ele>
        <time>2015-11-11T11:56:18.976Z</time>
      </trkpt>
      <trkpt lat="45.94684" lon="4.84859">
        <ele>260.899993896</ele>
        <time>2015-11-11T11:56:19.962Z</time>
      </trkpt>
      <trkpt lat="45.94683" lon="4.84851">
        <ele>260.899993896</ele>
        <time>2015-11-11T11:56:20.979Z</time>
      </trkpt>
      <trkpt lat="45.94683" lon="4.84843">
        <ele>260.899993896</ele>
        <time>2015-11-11T11:56:21.962Z</time>
      </trkpt>
      <trkpt lat="45.94682" lon="4.84835">
        <ele>260.899993896</ele>
        <time>2015-11-11T11:56:22.977Z</time>
      </trkpt>
      <trkpt lat="45.94681" lon="4.84828">
        <ele>260.899993896</ele>
        <time>2015-11-11T11:56:23.961Z</time>
      </trkpt>
      <trkpt lat="45.9468" lon="4.84821">
        <ele>260.899993896</ele>
        <time>2015-11-11T11:56:24.976Z</time>
      </trkpt>
      <trkpt lat="45.9468" lon="4.84814">
        <ele>260.899993896</ele>
        <time>2015-11-11T11:56:25.962Z</time>
      </trkpt>
      <trkpt lat="45.94679" lon="4.84806">
        <ele>261</ele>
        <time>2015-11-11T11:56:26.993Z</time>
      </trkpt>
      <trkpt lat="45.94678" lon="4.84799">
        <ele>261</ele>
        <time>2015-11-11T11:56:27.962Z</time>
      </trkpt>
      <trkpt lat="45.94677" lon="4.84792">
        <ele>261</ele>
        <time>2015-11-11T11:56:28.977Z</time>
      </trkpt>
      <trkpt lat="45.94677" lon="4.84784">
        <ele>260.899993896</ele>
        <time>2015-11-11T11:56:29.962Z</time>
      </trkpt>
      <trkpt lat="45.94677" lon="4.84777">
        <ele>260.899993896</ele>
        <time>2015-11-11T11:56:30.976Z</time>
      </trkpt>
      <trkpt lat="45.94676" lon="4.84769">
        <ele>260.899993896</ele>
        <time>2015-11-11T11:56:31.961Z</time>
      </trkpt>
      <trkpt lat="45.94676" lon="4.84761">
        <ele>260.899993896</ele>
        <time>2015-11-11T11:56:32.979Z</time>
      </trkpt>
      <trkpt lat="45.94675" lon="4.84754">
        <ele>260.899993896</ele>
        <time>2015-11-11T11:56:33.962Z</time>
      </trkpt>
      <trkpt lat="45.94675" lon="4.84746">
        <ele>260.899993896</ele>
        <time>2015-11-11T11:56:34.977Z</time>
      </trkpt>
      <trkpt lat="45.94675" lon="4.84737">
        <ele>260.899993896</ele>
        <time>2015-11-11T11:56:35.961Z</time>
      </trkpt>
      <trkpt lat="45.94674" lon="4.8473">
        <ele>260.899993896</ele>
        <time>2015-11-11T11:56:36.98Z</time>
      </trkpt>
      <trkpt lat="45.94674" lon="4.84721">
        <ele>260.899993896</ele>
        <time>2015-11-11T11:56:37.961Z</time>
      </trkpt>
      <trkpt lat="45.94673" lon="4.84713">
        <ele>260.899993896</ele>
        <time>2015-11-11T11:56:38.979Z</time>
      </trkpt>
      <trkpt lat="45.94673" lon="4.84705">
        <ele>260.899993896</ele>
        <time>2015-11-11T11:56:39.964Z</time>
      </trkpt>
      <trkpt lat="45.94673" lon="4.84697">
        <ele>260.799987793</ele>
        <time>2015-11-11T11:56:40.977Z</time>
      </trkpt>
      <trkpt lat="45.94673" lon="4.84688">
        <ele>260.799987793</ele>
        <time>2015-11-11T11:56:41.962Z</time>
      </trkpt>
      <trkpt lat="45.94672" lon="4.8468">
        <ele>260.700012207</ele>
        <time>2015-11-11T11:56:42.99Z</time>
      </trkpt>
      <trkpt lat="45.94672" lon="4.84671">
        <ele>260.799987793</ele>
        <time>2015-11-11T11:56:43.962Z</time>
      </trkpt>
      <trkpt lat="45.94671" lon="4.84663">
        <ele>260.799987793</ele>
        <time>2015-11-11T11:56:44.979Z</time>
      </trkpt>
      <trkpt lat="45.94671" lon="4.84654">
        <ele>260.700012207</ele>
        <time>2015-11-11T11:56:45.961Z</time>
      </trkpt>
      <trkpt lat="45.94671" lon="4.84645">
        <ele>260.700012207</ele>
        <time>2015-11-11T11:56:46.978Z</time>
      </trkpt>
      <trkpt lat="45.94671" lon="4.84637">
        <ele>260.700012207</ele>
        <time>2015-11-11T11:56:47.961Z</time>
      </trkpt>
      <trkpt lat="45.9467" lon="4.84628">
        <ele>260.799987793</ele>
        <time>2015-11-11T11:56:48.976Z</time>
      </trkpt>
      <trkpt lat="45.9467" lon="4.8462">
        <ele>260.899993896</ele>
        <time>2015-11-11T11:56:49.966Z</time>
      </trkpt>
      <trkpt lat="45.9467" lon="4.84613">
        <ele>260.899993896</ele>
        <time>2015-11-11T11:56:50.979Z</time>
      </trkpt>
      <trkpt lat="45.9467" lon="4.84605">
        <ele>260.899993896</ele>
        <time>2015-11-11T11:56:51.961Z</time>
      </trkpt>
      <trkpt lat="45.9467" lon="4.84598">
        <ele>261</ele>
        <time>2015-11-11T11:56:52.977Z</time>
      </trkpt>
      <trkpt lat="45.94669" lon="4.84591">
        <ele>261.100006104</ele>
        <time>2015-11-11T11:56:53.961Z</time>
      </trkpt>
      <trkpt lat="45.94669" lon="4.84584">
        <ele>261.100006104</ele>
        <time>2015-11-11T11:56:54.976Z</time>
      </trkpt>
      <trkpt lat="45.94669" lon="4.84577">
        <ele>261.200012207</ele>
        <time>2015-11-11T11:56:55.961Z</time>
      </trkpt>
      <trkpt lat="45.94668" lon="4.8457">
        <ele>261.200012207</ele>
        <time>2015-11-11T11:56:56.979Z</time>
      </trkpt>
      <trkpt lat="45.94668" lon="4.84563">
        <ele>261.200012207</ele>
        <time>2015-11-11T11:56:57.961Z</time>
      </trkpt>
      <trkpt lat="45.94667" lon="4.84556">
        <ele>261.200012207</ele>
        <time>2015-11-11T11:56:58.977Z</time>
      </trkpt>
      <trkpt lat="45.94667" lon="4.84548">
        <ele>261.200012207</ele>
        <time>2015-11-11T11:56:59.961Z</time>
      </trkpt>
      <trkpt lat="45.94666" lon="4.84541">
        <ele>261.200012207</ele>
        <time>2015-11-11T11:57:00.976Z</time>
      </trkpt>
      <trkpt lat="45.94665" lon="4.84533">
        <ele>261.200012207</ele>
        <time>2015-11-11T11:57:01.961Z</time>
      </trkpt>
      <trkpt lat="45.94665" lon="4.84526">
        <ele>261.200012207</ele>
        <time>2015-11-11T11:57:02.979Z</time>
      </trkpt>
      <trkpt lat="45.94664" lon="4.84518">
        <ele>261.200012207</ele>
        <time>2015-11-11T11:57:03.974Z</time>
      </trkpt>
      <trkpt lat="45.94663" lon="4.84511">
        <ele>261.299987793</ele>
        <time>2015-11-11T11:57:04.977Z</time>
      </trkpt>
      <trkpt lat="45.94662" lon="4.84503">
        <ele>261.299987793</ele>
        <time>2015-11-11T11:57:05.961Z</time>
      </trkpt>
      <trkpt lat="45.94662" lon="4.84496">
        <ele>261.299987793</ele>
        <time>2015-11-11T11:57:06.976Z</time>
      </trkpt>
      <trkpt lat="45.94661" lon="4.84488">
        <ele>261.299987793</ele>
        <time>2015-11-11T11:57:07.961Z</time>
      </trkpt>
      <trkpt lat="45.9466" lon="4.84481">
        <ele>261.299987793</ele>
        <time>2015-11-11T11:57:08.979Z</time>
      </trkpt>
      <trkpt lat="45.94659" lon="4.84473">
        <ele>261.299987793</ele>
        <time>2015-11-11T11:57:09.961Z</time>
      </trkpt>
      <trkpt lat="45.94658" lon="4.84465">
        <ele>261.299987793</ele>
        <time>2015-11-11T11:57:10.976Z</time>
      </trkpt>
      <trkpt lat="45.94658" lon="4.84457">
        <ele>261.399993896</ele>
        <time>2015-11-11T11:57:11.961Z</time>
      </trkpt>
      <trkpt lat="45.94657" lon="4.84449">
        <ele>261.5</ele>
        <time>2015-11-11T11:57:12.976Z</time>
      </trkpt>
      <trkpt lat="45.94656" lon="4.84442">
        <ele>261.5</ele>
        <time>2015-11-11T11:57:13.961Z</time>
      </trkpt>
      <trkpt lat="45.94656" lon="4.84434">
        <ele>261.399993896</ele>
        <time>2015-11-11T11:57:14.979Z</time>
      </trkpt>
      <trkpt lat="45.94655" lon="4.84427">
        <ele>261.399993896</ele>
        <time>2015-11-11T11:57:15.961Z</time>
      </trkpt>
      <trkpt lat="45.94654" lon="4.84418">
        <ele>261.299987793</ele>
        <time>2015-11-11T11:57:16.977Z</time>
      </trkpt>
      <trkpt lat="45.94653" lon="4.8441">
        <ele>261.200012207</ele>
        <time>2015-11-11T11:57:17.961Z</time>
      </trkpt>
      <trkpt lat="45.94652" lon="4.84403">
        <ele>261.200012207</ele>
        <time>2015-11-11T11:57:18.976Z</time>
      </trkpt>
      <trkpt lat="45.94651" lon="4.84395">
        <ele>261.200012207</ele>
        <time>2015-11-11T11:57:19.961Z</time>
      </trkpt>
      <trkpt lat="45.9465" lon="4.84386">
        <ele>261.100006104</ele>
        <time>2015-11-11T11:57:20.979Z</time>
      </trkpt>
      <trkpt lat="45.94649" lon="4.84378">
        <ele>261.100006104</ele>
        <time>2015-11-11T11:57:21.961Z</time>
      </trkpt>
      <trkpt lat="45.94648" lon="4.8437">
        <ele>261.200012207</ele>
        <time>2015-11-11T11:57:22.977Z</time>
      </trkpt>
      <trkpt lat="45.94647" lon="4.84362">
        <ele>261.200012207</ele>
        <time>2015-11-11T11:57:23.961Z</time>
      </trkpt>
      <trkpt lat="45.94645" lon="4.84354">
        <ele>261.200012207</ele>
        <time>2015-11-11T11:57:24.975Z</time>
      </trkpt>
      <trkpt lat="45.94644" lon="4.84346">
        <ele>261.100006104</ele>
        <time>2015-11-11T11:57:25.961Z</time>
      </trkpt>
      <trkpt lat="45.94643" lon="4.84338">
        <ele>261</ele>
        <time>2015-11-11T11:57:26.979Z</time>
      </trkpt>
      <trkpt lat="45.94642" lon="4.84329">
        <ele>260.899993896</ele>
        <time>2015-11-11T11:57:27.961Z</time>
      </trkpt>
      <trkpt lat="45.94641" lon="4.84321">
        <ele>260.899993896</ele>
        <time>2015-11-11T11:57:28.977Z</time>
      </trkpt>
      <trkpt lat="45.9464" lon="4.84312">
        <ele>260.700012207</ele>
        <time>2015-11-11T11:57:29.961Z</time>
      </trkpt>
      <trkpt lat="45.94638" lon="4.84304">
        <ele>260.5</ele>
        <time>2015-11-11T11:57:30.988Z</time>
      </trkpt>
      <trkpt lat="45.94638" lon="4.84296">
        <ele>260.399993896</ele>
        <time>2015-11-11T11:57:31.961Z</time>
      </trkpt>
      <trkpt lat="45.94637" lon="4.84287">
        <ele>260.299987793</ele>
        <time>2015-11-11T11:57:32.979Z</time>
      </trkpt>
      <trkpt lat="45.94635" lon="4.84279">
        <ele>260.200012207</ele>
        <time>2015-11-11T11:57:33.961Z</time>
      </trkpt>
      <trkpt lat="45.94634" lon="4.8427">
        <ele>260.100006104</ele>
        <time>2015-11-11T11:57:34.978Z</time>
      </trkpt>
      <trkpt lat="45.94633" lon="4.84262">
        <ele>260</ele>
        <time>2015-11-11T11:57:35.961Z</time>
      </trkpt>
      <trkpt lat="45.94632" lon="4.84254">
        <ele>259.899993896</ele>
        <time>2015-11-11T11:57:36.976Z</time>
      </trkpt>
      <trkpt lat="45.94631" lon="4.84246">
        <ele>259.899993896</ele>
        <time>2015-11-11T11:57:37.961Z</time>
      </trkpt>
      <trkpt lat="45.9463" lon="4.84237">
        <ele>259.799987793</ele>
        <time>2015-11-11T11:57:39.105Z</time>
      </trkpt>
      <trkpt lat="45.94629" lon="4.84229">
        <ele>259.799987793</ele>
        <time>2015-11-11T11:57:39.964Z</time>
      </trkpt>
      <trkpt lat="45.94627" lon="4.8422">
        <ele>259.799987793</ele>
        <time>2015-11-11T11:57:40.978Z</time>
      </trkpt>
      <trkpt lat="45.94626" lon="4.84212">
        <ele>259.799987793</ele>
        <time>2015-11-11T11:57:41.961Z</time>
      </trkpt>
      <trkpt lat="45.94625" lon="4.84203">
        <ele>259.700012207</ele>
        <time>2015-11-11T11:57:42.976Z</time>
      </trkpt>
      <trkpt lat="45.94623" lon="4.84195">
        <ele>259.700012207</ele>
        <time>2015-11-11T11:57:43.961Z</time>
      </trkpt>
      <trkpt lat="45.94622" lon="4.84186">
        <ele>259.700012207</ele>
        <time>2015-11-11T11:57:44.979Z</time>
      </trkpt>
      <trkpt lat="45.9462" lon="4.84177">
        <ele>259.600006104</ele>
        <time>2015-11-11T11:57:45.961Z</time>
      </trkpt>
      <trkpt lat="45.94619" lon="4.84169">
        <ele>259.600006104</ele>
        <time>2015-11-11T11:57:46.992Z</time>
      </trkpt>
      <trkpt lat="45.94617" lon="4.84161">
        <ele>259.600006104</ele>
        <time>2015-11-11T11:57:47.961Z</time>
      </trkpt>
      <trkpt lat="45.94616" lon="4.84152">
        <ele>259.600006104</ele>
        <time>2015-11-11T11:57:49.015Z</time>
      </trkpt>
      <trkpt lat="45.94614" lon="4.84144">
        <ele>259.600006104</ele>
        <time>2015-11-11T11:57:49.961Z</time>
      </trkpt>
      <trkpt lat="45.94613" lon="4.84135">
        <ele>259.700012207</ele>
        <time>2015-11-11T11:57:50.979Z</time>
      </trkpt>
      <trkpt lat="45.94612" lon="4.84127">
        <ele>259.700012207</ele>
        <time>2015-11-11T11:57:51.961Z</time>
      </trkpt>
      <trkpt lat="45.94611" lon="4.84119">
        <ele>259.799987793</ele>
        <time>2015-11-11T11:57:52.977Z</time>
      </trkpt>
      <trkpt lat="45.94609" lon="4.84111">
        <ele>259.799987793</ele>
        <time>2015-11-11T11:57:53.962Z</time>
      </trkpt>
      <trkpt lat="45.94608" lon="4.84103">
        <ele>259.799987793</ele>
        <time>2015-11-11T11:57:54.976Z</time>
      </trkpt>
      <trkpt lat="45.94607" lon="4.84095">
        <ele>259.799987793</ele>
        <time>2015-11-11T11:57:55.961Z</time>
      </trkpt>
      <trkpt lat="45.94605" lon="4.84088">
        <ele>259.799987793</ele>
        <time>2015-11-11T11:57:56.979Z</time>
      </trkpt>
      <trkpt lat="45.94604" lon="4.8408">
        <ele>259.799987793</ele>
        <time>2015-11-11T11:57:57.962Z</time>
      </trkpt>
      <trkpt lat="45.94603" lon="4.84072">
        <ele>259.799987793</ele>
        <time>2015-11-11T11:57:58.98Z</time>
      </trkpt>
      <trkpt lat="45.94602" lon="4.84065">
        <ele>259.799987793</ele>
        <time>2015-11-11T11:57:59.961Z</time>
      </trkpt>
      <trkpt lat="45.94601" lon="4.84057">
        <ele>259.799987793</ele>
        <time>2015-11-11T11:58:00.976Z</time>
      </trkpt>
      <trkpt lat="45.94599" lon="4.8405">
        <ele>259.899993896</ele>
        <time>2015-11-11T11:58:01.961Z</time>
      </trkpt>
      <trkpt lat="45.94598" lon="4.84042">
        <ele>259.899993896</ele>
        <time>2015-11-11T11:58:02.992Z</time>
      </trkpt>
      <trkpt lat="45.94597" lon="4.84034">
        <ele>260</ele>
        <time>2015-11-11T11:58:03.961Z</time>
      </trkpt>
      <trkpt lat="45.94596" lon="4.84027">
        <ele>260</ele>
        <time>2015-11-11T11:58:04.985Z</time>
      </trkpt>
      <trkpt lat="45.94595" lon="4.84019">
        <ele>260.100006104</ele>
        <time>2015-11-11T11:58:05.961Z</time>
      </trkpt>
      <trkpt lat="45.94593" lon="4.84011">
        <ele>260.100006104</ele>
        <time>2015-11-11T11:58:07.008Z</time>
      </trkpt>
      <trkpt lat="45.94592" lon="4.84003">
        <ele>260.100006104</ele>
        <time>2015-11-11T11:58:07.962Z</time>
      </trkpt>
      <trkpt lat="45.94591" lon="4.83995">
        <ele>260.100006104</ele>
        <time>2015-11-11T11:58:08.979Z</time>
      </trkpt>
      <trkpt lat="45.9459" lon="4.83987">
        <ele>260</ele>
        <time>2015-11-11T11:58:09.961Z</time>
      </trkpt>
      <trkpt lat="45.94588" lon="4.83979">
        <ele>259.899993896</ele>
        <time>2015-11-11T11:58:10.977Z</time>
      </trkpt>
      <trkpt lat="45.94587" lon="4.8397">
        <ele>259.700012207</ele>
        <time>2015-11-11T11:58:11.961Z</time>
      </trkpt>
      <trkpt lat="45.94586" lon="4.83961">
        <ele>259.600006104</ele>
        <time>2015-11-11T11:58:12.976Z</time>
      </trkpt>
      <trkpt lat="45.94584" lon="4.83953">
        <ele>259.399993896</ele>
        <time>2015-11-11T11:58:13.961Z</time>
      </trkpt>
      <trkpt lat="45.94583" lon="4.83944">
        <ele>259.200012207</ele>
        <time>2015-11-11T11:58:14.979Z</time>
      </trkpt>
      <trkpt lat="45.94582" lon="4.83935">
        <ele>259</ele>
        <time>2015-11-11T11:58:15.968Z</time>
      </trkpt>
      <trkpt lat="45.9458" lon="4.83925">
        <ele>258.799987793</ele>
        <time>2015-11-11T11:58:16.977Z</time>
      </trkpt>
      <trkpt lat="45.94579" lon="4.83915">
        <ele>258.5</ele>
        <time>2015-11-11T11:58:17.961Z</time>
      </trkpt>
      <trkpt lat="45.94577" lon="4.83905">
        <ele>258.100006104</ele>
        <time>2015-11-11T11:58:18.989Z</time>
      </trkpt>
      <trkpt lat="45.94576" lon="4.83895">
        <ele>257.799987793</ele>
        <time>2015-11-11T11:58:19.961Z</time>
      </trkpt>
      <trkpt lat="45.94574" lon="4.83885">
        <ele>257.399993896</ele>
        <time>2015-11-11T11:58:20.979Z</time>
      </trkpt>
      <trkpt lat="45.94573" lon="4.83875">
        <ele>256.899993896</ele>
        <time>2015-11-11T11:58:21.961Z</time>
      </trkpt>
      <trkpt lat="45.94571" lon="4.83865">
        <ele>256.799987793</ele>
        <time>2015-11-11T11:58:22.977Z</time>
      </trkpt>
      <trkpt lat="45.94569" lon="4.83854">
        <ele>256.399993896</ele>
        <time>2015-11-11T11:58:23.961Z</time>
      </trkpt>
      <trkpt lat="45.94568" lon="4.83844">
        <ele>256.200012207</ele>
        <time>2015-11-11T11:58:24.975Z</time>
      </trkpt>
      <trkpt lat="45.94566" lon="4.83833">
        <ele>256</ele>
        <time>2015-11-11T11:58:25.961Z</time>
      </trkpt>
      <trkpt lat="45.94565" lon="4.83822">
        <ele>255.800003052</ele>
        <time>2015-11-11T11:58:26.979Z</time>
      </trkpt>
      <trkpt lat="45.94563" lon="4.83812">
        <ele>255.600006104</ele>
        <time>2015-11-11T11:58:27.962Z</time>
      </trkpt>
      <trkpt lat="45.94561" lon="4.83801">
        <ele>255.300003052</ele>
        <time>2015-11-11T11:58:28.977Z</time>
      </trkpt>
      <trkpt lat="45.9456" lon="4.8379">
        <ele>255.100006104</ele>
        <time>2015-11-11T11:58:29.961Z</time>
      </trkpt>
      <trkpt lat="45.94558" lon="4.8378">
        <ele>254.899993896</ele>
        <time>2015-11-11T11:58:30.976Z</time>
      </trkpt>
      <trkpt lat="45.94557" lon="4.83769">
        <ele>254.800003052</ele>
        <time>2015-11-11T11:58:31.961Z</time>
      </trkpt>
      <trkpt lat="45.94556" lon="4.83759">
        <ele>254.600006104</ele>
        <time>2015-11-11T11:58:32.979Z</time>
      </trkpt>
      <trkpt lat="45.94554" lon="4.83748">
        <ele>254.5</ele>
        <time>2015-11-11T11:58:33.961Z</time>
      </trkpt>
      <trkpt lat="45.94553" lon="4.83738">
        <ele>254.399993896</ele>
        <time>2015-11-11T11:58:34.992Z</time>
      </trkpt>
      <trkpt lat="45.94551" lon="4.83728">
        <ele>254.399993896</ele>
        <time>2015-11-11T11:58:35.961Z</time>
      </trkpt>
      <trkpt lat="45.9455" lon="4.83719">
        <ele>254.300003052</ele>
        <time>2015-11-11T11:58:36.976Z</time>
      </trkpt>
      <trkpt lat="45.94549" lon="4.83709">
        <ele>254.199996948</ele>
        <time>2015-11-11T11:58:37.961Z</time>
      </trkpt>
      <trkpt lat="45.94547" lon="4.83699">
        <ele>254.199996948</ele>
        <time>2015-11-11T11:58:38.979Z</time>
      </trkpt>
      <trkpt lat="45.94545" lon="4.83689">
        <ele>254.100006104</ele>
        <time>2015-11-11T11:58:39.964Z</time>
      </trkpt>
      <trkpt lat="45.94544" lon="4.83679">
        <ele>254</ele>
        <time>2015-11-11T11:58:40.977Z</time>
      </trkpt>
      <trkpt lat="45.94542" lon="4.83669">
        <ele>254.100006104</ele>
        <time>2015-11-11T11:58:41.961Z</time>
      </trkpt>
      <trkpt lat="45.94541" lon="4.83659">
        <ele>254.199996948</ele>
        <time>2015-11-11T11:58:42.975Z</time>
      </trkpt>
      <trkpt lat="45.94539" lon="4.8365">
        <ele>254.300003052</ele>
        <time>2015-11-11T11:58:43.999Z</time>
      </trkpt>
      <trkpt lat="45.94538" lon="4.8364">
        <ele>254.399993896</ele>
        <time>2015-11-11T11:58:44.979Z</time>
      </trkpt>
      <trkpt lat="45.94536" lon="4.83632">
        <ele>254.5</ele>
        <time>2015-11-11T11:58:45.961Z</time>
      </trkpt>
      <trkpt lat="45.94534" lon="4.83623">
        <ele>254.600006104</ele>
        <time>2015-11-11T11:58:46.977Z</time>
      </trkpt>
      <trkpt lat="45.94533" lon="4.83615">
        <ele>254.699996948</ele>
        <time>2015-11-11T11:58:47.961Z</time>
      </trkpt>
      <trkpt lat="45.94532" lon="4.83607">
        <ele>254.899993896</ele>
        <time>2015-11-11T11:58:48.976Z</time>
      </trkpt>
      <trkpt lat="45.9453" lon="4.83599">
        <ele>254.899993896</ele>
        <time>2015-11-11T11:58:49.961Z</time>
      </trkpt>
      <trkpt lat="45.94528" lon="4.83591">
        <ele>254.899993896</ele>
        <time>2015-11-11T11:58:50.979Z</time>
      </trkpt>
      <trkpt lat="45.94526" lon="4.83583">
        <ele>255</ele>
        <time>2015-11-11T11:58:51.961Z</time>
      </trkpt>
      <trkpt lat="45.94524" lon="4.83575">
        <ele>255.100006104</ele>
        <time>2015-11-11T11:58:52.977Z</time>
      </trkpt>
      <trkpt lat="45.94521" lon="4.83568">
        <ele>255.100006104</ele>
        <time>2015-11-11T11:58:53.961Z</time>
      </trkpt>
      <trkpt lat="45.94519" lon="4.83561">
        <ele>255.100006104</ele>
        <time>2015-11-11T11:58:54.975Z</time>
      </trkpt>
      <trkpt lat="45.94516" lon="4.83554">
        <ele>255</ele>
        <time>2015-11-11T11:58:55.961Z</time>
      </trkpt>
      <trkpt lat="45.94512" lon="4.83547">
        <ele>255</ele>
        <time>2015-11-11T11:58:56.979Z</time>
      </trkpt>
      <trkpt lat="45.94508" lon="4.83541">
        <ele>254.899993896</ele>
        <time>2015-11-11T11:58:57.961Z</time>
      </trkpt>
      <trkpt lat="45.94505" lon="4.83534">
        <ele>254.899993896</ele>
        <time>2015-11-11T11:58:58.977Z</time>
      </trkpt>
      <trkpt lat="45.94501" lon="4.83528">
        <ele>255</ele>
        <time>2015-11-11T11:58:59.961Z</time>
      </trkpt>
      <trkpt lat="45.94497" lon="4.83521">
        <ele>255</ele>
        <time>2015-11-11T11:59:00.976Z</time>
      </trkpt>
      <trkpt lat="45.94493" lon="4.83515">
        <ele>255</ele>
        <time>2015-11-11T11:59:01.961Z</time>
      </trkpt>
      <trkpt lat="45.94489" lon="4.83508">
        <ele>255.100006104</ele>
        <time>2015-11-11T11:59:02.979Z</time>
      </trkpt>
      <trkpt lat="45.94485" lon="4.83502">
        <ele>255.199996948</ele>
        <time>2015-11-11T11:59:03.961Z</time>
      </trkpt>
      <trkpt lat="45.94481" lon="4.83496">
        <ele>255.300003052</ele>
        <time>2015-11-11T11:59:04.977Z</time>
      </trkpt>
      <trkpt lat="45.94477" lon="4.8349">
        <ele>255.399993896</ele>
        <time>2015-11-11T11:59:05.961Z</time>
      </trkpt>
      <trkpt lat="45.94473" lon="4.83483">
        <ele>255.5</ele>
        <time>2015-11-11T11:59:06.993Z</time>
      </trkpt>
      <trkpt lat="45.94469" lon="4.83477">
        <ele>255.5</ele>
        <time>2015-11-11T11:59:07.961Z</time>
      </trkpt>
      <trkpt lat="45.94466" lon="4.83471">
        <ele>255.5</ele>
        <time>2015-11-11T11:59:08.978Z</time>
      </trkpt>
      <trkpt lat="45.94462" lon="4.83465">
        <ele>255.399993896</ele>
        <time>2015-11-11T11:59:09.961Z</time>
      </trkpt>
      <trkpt lat="45.94458" lon="4.83458">
        <ele>255.199996948</ele>
        <time>2015-11-11T11:59:10.998Z</time>
      </trkpt>
      <trkpt lat="45.94455" lon="4.83452">
        <ele>255.5</ele>
        <time>2015-11-11T11:59:11.961Z</time>
      </trkpt>
      <trkpt lat="45.94452" lon="4.83446">
        <ele>255.600006104</ele>
        <time>2015-11-11T11:59:12.976Z</time>
      </trkpt>
      <trkpt lat="45.94449" lon="4.8344">
        <ele>255.600006104</ele>
        <time>2015-11-11T11:59:13.961Z</time>
      </trkpt>
      <trkpt lat="45.94446" lon="4.83433">
        <ele>255.699996948</ele>
        <time>2015-11-11T11:59:14.979Z</time>
      </trkpt>
      <trkpt lat="45.94442" lon="4.83428">
        <ele>255.699996948</ele>
        <time>2015-11-11T11:59:15.961Z</time>
      </trkpt>
      <trkpt lat="45.94439" lon="4.83422">
        <ele>255.699996948</ele>
        <time>2015-11-11T11:59:16.977Z</time>
      </trkpt>
      <trkpt lat="45.94436" lon="4.83416">
        <ele>255.800003052</ele>
        <time>2015-11-11T11:59:17.961Z</time>
      </trkpt>
      <trkpt lat="45.94433" lon="4.83409">
        <ele>256</ele>
        <time>2015-11-11T11:59:18.976Z</time>
      </trkpt>
      <trkpt lat="45.9443" lon="4.83404">
        <ele>256.100006104</ele>
        <time>2015-11-11T11:59:19.961Z</time>
      </trkpt>
      <trkpt lat="45.94427" lon="4.83398">
        <ele>256.100006104</ele>
        <time>2015-11-11T11:59:20.979Z</time>
      </trkpt>
      <trkpt lat="45.94424" lon="4.83391">
        <ele>256.100006104</ele>
        <time>2015-11-11T11:59:21.961Z</time>
      </trkpt>
      <trkpt lat="45.94421" lon="4.83385">
        <ele>256.200012207</ele>
        <time>2015-11-11T11:59:22.989Z</time>
      </trkpt>
      <trkpt lat="45.94418" lon="4.83378">
        <ele>256.200012207</ele>
        <time>2015-11-11T11:59:23.961Z</time>
      </trkpt>
      <trkpt lat="45.94415" lon="4.83372">
        <ele>256.200012207</ele>
        <time>2015-11-11T11:59:24.975Z</time>
      </trkpt>
      <trkpt lat="45.94413" lon="4.83365">
        <ele>256.299987793</ele>
        <time>2015-11-11T11:59:25.961Z</time>
      </trkpt>
      <trkpt lat="45.9441" lon="4.83358">
        <ele>256.299987793</ele>
        <time>2015-11-11T11:59:26.979Z</time>
      </trkpt>
      <trkpt lat="45.94407" lon="4.83352">
        <ele>256.299987793</ele>
        <time>2015-11-11T11:59:27.961Z</time>
      </trkpt>
      <trkpt lat="45.94405" lon="4.83345">
        <ele>256.399993896</ele>
        <time>2015-11-11T11:59:28.977Z</time>
      </trkpt>
      <trkpt lat="45.94402" lon="4.83338">
        <ele>256.399993896</ele>
        <time>2015-11-11T11:59:29.961Z</time>
      </trkpt>
      <trkpt lat="45.94399" lon="4.8333">
        <ele>256.399993896</ele>
        <time>2015-11-11T11:59:30.975Z</time>
      </trkpt>
      <trkpt lat="45.94396" lon="4.83323">
        <ele>256.5</ele>
        <time>2015-11-11T11:59:31.961Z</time>
      </trkpt>
      <trkpt lat="45.94394" lon="4.83316">
        <ele>256.700012207</ele>
        <time>2015-11-11T11:59:32.979Z</time>
      </trkpt>
      <trkpt lat="45.94391" lon="4.83309">
        <ele>256.799987793</ele>
        <time>2015-11-11T11:59:33.961Z</time>
      </trkpt>
      <trkpt lat="45.94389" lon="4.83303">
        <ele>256.799987793</ele>
        <time>2015-11-11T11:59:34.975Z</time>
      </trkpt>
      <trkpt lat="45.94387" lon="4.83297">
        <ele>256.899993896</ele>
        <time>2015-11-11T11:59:35.961Z</time>
      </trkpt>
      <trkpt lat="45.94385" lon="4.8329">
        <ele>256.899993896</ele>
        <time>2015-11-11T11:59:36.975Z</time>
      </trkpt>
      <trkpt lat="45.94383" lon="4.83284">
        <ele>257</ele>
        <time>2015-11-11T11:59:37.998Z</time>
      </trkpt>
      <trkpt lat="45.94381" lon="4.83278">
        <ele>257.100006104</ele>
        <time>2015-11-11T11:59:38.992Z</time>
      </trkpt>
      <trkpt lat="45.94379" lon="4.83271">
        <ele>257.200012207</ele>
        <time>2015-11-11T11:59:39.963Z</time>
      </trkpt>
      <trkpt lat="45.94376" lon="4.83265">
        <ele>257.399993896</ele>
        <time>2015-11-11T11:59:40.976Z</time>
      </trkpt>
      <trkpt lat="45.94374" lon="4.83259">
        <ele>257.5</ele>
        <time>2015-11-11T11:59:41.961Z</time>
      </trkpt>
      <trkpt lat="45.94372" lon="4.83253">
        <ele>257.700012207</ele>
        <time>2015-11-11T11:59:42.975Z</time>
      </trkpt>
      <trkpt lat="45.9437" lon="4.83246">
        <ele>257.700012207</ele>
        <time>2015-11-11T11:59:43.961Z</time>
      </trkpt>
      <trkpt lat="45.94368" lon="4.8324">
        <ele>257.799987793</ele>
        <time>2015-11-11T11:59:44.98Z</time>
      </trkpt>
      <trkpt lat="45.94365" lon="4.83233">
        <ele>257.799987793</ele>
        <time>2015-11-11T11:59:45.963Z</time>
      </trkpt>
      <trkpt lat="45.94363" lon="4.83227">
        <ele>257.799987793</ele>
        <time>2015-11-11T11:59:46.977Z</time>
      </trkpt>
      <trkpt lat="45.9436" lon="4.83221">
        <ele>257.899993896</ele>
        <time>2015-11-11T11:59:47.963Z</time>
      </trkpt>
      <trkpt lat="45.94358" lon="4.83214">
        <ele>258</ele>
        <time>2015-11-11T11:59:48.977Z</time>
      </trkpt>
      <trkpt lat="45.94355" lon="4.83208">
        <ele>258.100006104</ele>
        <time>2015-11-11T11:59:49.961Z</time>
      </trkpt>
      <trkpt lat="45.94353" lon="4.83201">
        <ele>258.200012207</ele>
        <time>2015-11-11T11:59:51.008Z</time>
      </trkpt>
      <trkpt lat="45.94351" lon="4.83194">
        <ele>258.200012207</ele>
        <time>2015-11-11T11:59:51.961Z</time>
      </trkpt>
      <trkpt lat="45.94348" lon="4.83188">
        <ele>258.200012207</ele>
        <time>2015-11-11T11:59:52.976Z</time>
      </trkpt>
      <trkpt lat="45.94346" lon="4.83181">
        <ele>258.200012207</ele>
        <time>2015-11-11T11:59:53.961Z</time>
      </trkpt>
      <trkpt lat="45.94344" lon="4.83174">
        <ele>258.200012207</ele>
        <time>2015-11-11T11:59:54.989Z</time>
      </trkpt>
      <trkpt lat="45.94342" lon="4.83168">
        <ele>258.299987793</ele>
        <time>2015-11-11T11:59:55.961Z</time>
      </trkpt>
      <trkpt lat="45.9434" lon="4.83161">
        <ele>258.299987793</ele>
        <time>2015-11-11T11:59:56.979Z</time>
      </trkpt>
      <trkpt lat="45.94337" lon="4.83155">
        <ele>258.399993896</ele>
        <time>2015-11-11T11:59:57.961Z</time>
      </trkpt>
      <trkpt lat="45.94335" lon="4.83148">
        <ele>258.5</ele>
        <time>2015-11-11T11:59:58.976Z</time>
      </trkpt>
      <trkpt lat="45.94333" lon="4.83142">
        <ele>258.600006104</ele>
        <time>2015-11-11T11:59:59.961Z</time>
      </trkpt>
      <trkpt lat="45.94331" lon="4.83135">
        <ele>258.700012207</ele>
        <time>2015-11-11T12:00:00.977Z</time>
      </trkpt>
      <trkpt lat="45.94328" lon="4.83129">
        <ele>258.600006104</ele>
        <time>2015-11-11T12:00:01.963Z</time>
      </trkpt>
      <trkpt lat="45.94326" lon="4.83122">
        <ele>258.600006104</ele>
        <time>2015-11-11T12:00:02.978Z</time>
      </trkpt>
      <trkpt lat="45.94324" lon="4.83116">
        <ele>258.600006104</ele>
        <time>2015-11-11T12:00:03.961Z</time>
      </trkpt>
      <trkpt lat="45.94322" lon="4.83109">
        <ele>258.600006104</ele>
        <time>2015-11-11T12:00:04.976Z</time>
      </trkpt>
      <trkpt lat="45.9432" lon="4.83102">
        <ele>258.600006104</ele>
        <time>2015-11-11T12:00:05.961Z</time>
      </trkpt>
      <trkpt lat="45.94318" lon="4.83096">
        <ele>258.600006104</ele>
        <time>2015-11-11T12:00:06.997Z</time>
      </trkpt>
      <trkpt lat="45.94316" lon="4.8309">
        <ele>258.600006104</ele>
        <time>2015-11-11T12:00:07.961Z</time>
      </trkpt>
      <trkpt lat="45.94314" lon="4.83083">
        <ele>258.600006104</ele>
        <time>2015-11-11T12:00:08.978Z</time>
      </trkpt>
      <trkpt lat="45.94312" lon="4.83077">
        <ele>258.600006104</ele>
        <time>2015-11-11T12:00:09.961Z</time>
      </trkpt>
      <trkpt lat="45.94311" lon="4.8307">
        <ele>258.700012207</ele>
        <time>2015-11-11T12:00:10.989Z</time>
      </trkpt>
      <trkpt lat="45.94309" lon="4.83064">
        <ele>258.700012207</ele>
        <time>2015-11-11T12:00:11.961Z</time>
      </trkpt>
      <trkpt lat="45.94308" lon="4.83057">
        <ele>258.700012207</ele>
        <time>2015-11-11T12:00:12.975Z</time>
      </trkpt>
      <trkpt lat="45.94306" lon="4.83051">
        <ele>258.700012207</ele>
        <time>2015-11-11T12:00:13.961Z</time>
      </trkpt>
      <trkpt lat="45.94305" lon="4.83044">
        <ele>258.700012207</ele>
        <time>2015-11-11T12:00:14.978Z</time>
      </trkpt>
      <trkpt lat="45.94303" lon="4.83037">
        <ele>258.600006104</ele>
        <time>2015-11-11T12:00:15.961Z</time>
      </trkpt>
      <trkpt lat="45.94302" lon="4.8303">
        <ele>258.600006104</ele>
        <time>2015-11-11T12:00:16.977Z</time>
      </trkpt>
      <trkpt lat="45.943" lon="4.83023">
        <ele>258.5</ele>
        <time>2015-11-11T12:00:17.961Z</time>
      </trkpt>
      <trkpt lat="45.94299" lon="4.83015">
        <ele>258.399993896</ele>
        <time>2015-11-11T12:00:18.975Z</time>
      </trkpt>
      <trkpt lat="45.94297" lon="4.83008">
        <ele>258.399993896</ele>
        <time>2015-11-11T12:00:19.961Z</time>
      </trkpt>
      <trkpt lat="45.94296" lon="4.83001">
        <ele>258.399993896</ele>
        <time>2015-11-11T12:00:20.985Z</time>
      </trkpt>
      <trkpt lat="45.94294" lon="4.82994">
        <ele>258.399993896</ele>
        <time>2015-11-11T12:00:21.961Z</time>
      </trkpt>
      <trkpt lat="45.94293" lon="4.82986">
        <ele>258.5</ele>
        <time>2015-11-11T12:00:22.976Z</time>
      </trkpt>
      <trkpt lat="45.94291" lon="4.8298">
        <ele>258.600006104</ele>
        <time>2015-11-11T12:00:23.961Z</time>
      </trkpt>
      <trkpt lat="45.94288" lon="4.82973">
        <ele>258.700012207</ele>
        <time>2015-11-11T12:00:24.975Z</time>
      </trkpt>
      <trkpt lat="45.94286" lon="4.82967">
        <ele>258.899993896</ele>
        <time>2015-11-11T12:00:25.961Z</time>
      </trkpt>
      <trkpt lat="45.94283" lon="4.8296">
        <ele>259</ele>
        <time>2015-11-11T12:00:26.992Z</time>
      </trkpt>
      <trkpt lat="45.94282" lon="4.82953">
        <ele>259</ele>
        <time>2015-11-11T12:00:27.974Z</time>
      </trkpt>
      <trkpt lat="45.94282" lon="4.82946">
        <ele>259</ele>
        <time>2015-11-11T12:00:28.99Z</time>
      </trkpt>
      <trkpt lat="45.94282" lon="4.82939">
        <ele>258.799987793</ele>
        <time>2015-11-11T12:00:29.971Z</time>
      </trkpt>
      <trkpt lat="45.94284" lon="4.82931">
        <ele>258.700012207</ele>
        <time>2015-11-11T12:00:30.989Z</time>
      </trkpt>
      <trkpt lat="45.94285" lon="4.82924">
        <ele>258.700012207</ele>
        <time>2015-11-11T12:00:31.975Z</time>
      </trkpt>
      <trkpt lat="45.94287" lon="4.82917">
        <ele>258.600006104</ele>
        <time>2015-11-11T12:00:32.992Z</time>
      </trkpt>
      <trkpt lat="45.94288" lon="4.8291">
        <ele>258.5</ele>
        <time>2015-11-11T12:00:33.974Z</time>
      </trkpt>
      <trkpt lat="45.9429" lon="4.82902">
        <ele>258.399993896</ele>
        <time>2015-11-11T12:00:34.99Z</time>
      </trkpt>
      <trkpt lat="45.9429" lon="4.82895">
        <ele>258.399993896</ele>
        <time>2015-11-11T12:00:35.974Z</time>
      </trkpt>
      <trkpt lat="45.94291" lon="4.82887">
        <ele>258.399993896</ele>
        <time>2015-11-11T12:00:36.975Z</time>
      </trkpt>
      <trkpt lat="45.94291" lon="4.82879">
        <ele>258.299987793</ele>
        <time>2015-11-11T12:00:37.961Z</time>
      </trkpt>
      <trkpt lat="45.94292" lon="4.82871">
        <ele>258.200012207</ele>
        <time>2015-11-11T12:00:38.979Z</time>
      </trkpt>
      <trkpt lat="45.94292" lon="4.82863">
        <ele>258.100006104</ele>
        <time>2015-11-11T12:00:39.963Z</time>
      </trkpt>
      <trkpt lat="45.94293" lon="4.82854">
        <ele>258</ele>
        <time>2015-11-11T12:00:40.977Z</time>
      </trkpt>
      <trkpt lat="45.94293" lon="4.82846">
        <ele>258</ele>
        <time>2015-11-11T12:00:41.961Z</time>
      </trkpt>
      <trkpt lat="45.94293" lon="4.82839">
        <ele>257.899993896</ele>
        <time>2015-11-11T12:00:42.975Z</time>
      </trkpt>
      <trkpt lat="45.94293" lon="4.82831">
        <ele>257.899993896</ele>
        <time>2015-11-11T12:00:43.961Z</time>
      </trkpt>
      <trkpt lat="45.94293" lon="4.82824">
        <ele>258</ele>
        <time>2015-11-11T12:00:44.979Z</time>
      </trkpt>
      <trkpt lat="45.94294" lon="4.82817">
        <ele>258</ele>
        <time>2015-11-11T12:00:45.961Z</time>
      </trkpt>
      <trkpt lat="45.94294" lon="4.8281">
        <ele>258.100006104</ele>
        <time>2015-11-11T12:00:46.976Z</time>
      </trkpt>
      <trkpt lat="45.94294" lon="4.82803">
        <ele>258.100006104</ele>
        <time>2015-11-11T12:00:47.977Z</time>
      </trkpt>
      <trkpt lat="45.94294" lon="4.82795">
        <ele>258.200012207</ele>
        <time>2015-11-11T12:00:48.975Z</time>
      </trkpt>
      <trkpt lat="45.94294" lon="4.82788">
        <ele>258.200012207</ele>
        <time>2015-11-11T12:00:49.961Z</time>
      </trkpt>
      <trkpt lat="45.94294" lon="4.82781">
        <ele>258.299987793</ele>
        <time>2015-11-11T12:00:50.979Z</time>
      </trkpt>
      <trkpt lat="45.94295" lon="4.82773">
        <ele>258.299987793</ele>
        <time>2015-11-11T12:00:51.961Z</time>
      </trkpt>
      <trkpt lat="45.94295" lon="4.82765">
        <ele>258.299987793</ele>
        <time>2015-11-11T12:00:52.976Z</time>
      </trkpt>
      <trkpt lat="45.94295" lon="4.82757">
        <ele>258.299987793</ele>
        <time>2015-11-11T12:00:53.961Z</time>
      </trkpt>
      <trkpt lat="45.94295" lon="4.8275">
        <ele>258.299987793</ele>
        <time>2015-11-11T12:00:54.975Z</time>
      </trkpt>
      <trkpt lat="45.94295" lon="4.82742">
        <ele>258.299987793</ele>
        <time>2015-11-11T12:00:55.961Z</time>
      </trkpt>
      <trkpt lat="45.94295" lon="4.82734">
        <ele>258.299987793</ele>
        <time>2015-11-11T12:00:56.978Z</time>
      </trkpt>
      <trkpt lat="45.94296" lon="4.82726">
        <ele>258.299987793</ele>
        <time>2015-11-11T12:00:57.974Z</time>
      </trkpt>
      <trkpt lat="45.94296" lon="4.82718">
        <ele>258.299987793</ele>
        <time>2015-11-11T12:00:58.997Z</time>
      </trkpt>
      <trkpt lat="45.94296" lon="4.8271">
        <ele>258.200012207</ele>
        <time>2015-11-11T12:00:59.961Z</time>
      </trkpt>
      <trkpt lat="45.94296" lon="4.82702">
        <ele>258.100006104</ele>
        <time>2015-11-11T12:01:00.975Z</time>
      </trkpt>
      <trkpt lat="45.94296" lon="4.82694">
        <ele>258.100006104</ele>
        <time>2015-11-11T12:01:01.961Z</time>
      </trkpt>
      <trkpt lat="45.94296" lon="4.82686">
        <ele>258.100006104</ele>
        <time>2015-11-11T12:01:02.978Z</time>
      </trkpt>
      <trkpt lat="45.94297" lon="4.82678">
        <ele>258.100006104</ele>
        <time>2015-11-11T12:01:03.961Z</time>
      </trkpt>
      <trkpt lat="45.94297" lon="4.82671">
        <ele>258</ele>
        <time>2015-11-11T12:01:04.976Z</time>
      </trkpt>
      <trkpt lat="45.94297" lon="4.82663">
        <ele>258</ele>
        <time>2015-11-11T12:01:05.961Z</time>
      </trkpt>
      <trkpt lat="45.94297" lon="4.82656">
        <ele>258</ele>
        <time>2015-11-11T12:01:06.975Z</time>
      </trkpt>
      <trkpt lat="45.94297" lon="4.82649">
        <ele>258</ele>
        <time>2015-11-11T12:01:07.961Z</time>
      </trkpt>
      <trkpt lat="45.94297" lon="4.82642">
        <ele>258</ele>
        <time>2015-11-11T12:01:08.983Z</time>
      </trkpt>
      <trkpt lat="45.94297" lon="4.82634">
        <ele>257.899993896</ele>
        <time>2015-11-11T12:01:09.961Z</time>
      </trkpt>
      <trkpt lat="45.94297" lon="4.82626">
        <ele>257.899993896</ele>
        <time>2015-11-11T12:01:10.976Z</time>
      </trkpt>
      <trkpt lat="45.94297" lon="4.82619">
        <ele>257.899993896</ele>
        <time>2015-11-11T12:01:11.961Z</time>
      </trkpt>
      <trkpt lat="45.94297" lon="4.82612">
        <ele>257.799987793</ele>
        <time>2015-11-11T12:01:12.975Z</time>
      </trkpt>
      <trkpt lat="45.94297" lon="4.82604">
        <ele>257.799987793</ele>
        <time>2015-11-11T12:01:13.961Z</time>
      </trkpt>
      <trkpt lat="45.94298" lon="4.82596">
        <ele>257.799987793</ele>
        <time>2015-11-11T12:01:14.994Z</time>
      </trkpt>
      <trkpt lat="45.94298" lon="4.82588">
        <ele>257.700012207</ele>
        <time>2015-11-11T12:01:15.961Z</time>
      </trkpt>
      <trkpt lat="45.94298" lon="4.82581">
        <ele>257.700012207</ele>
        <time>2015-11-11T12:01:16.976Z</time>
      </trkpt>
      <trkpt lat="45.94298" lon="4.82573">
        <ele>257.700012207</ele>
        <time>2015-11-11T12:01:17.961Z</time>
      </trkpt>
      <trkpt lat="45.94298" lon="4.82565">
        <ele>257.700012207</ele>
        <time>2015-11-11T12:01:18.975Z</time>
      </trkpt>
      <trkpt lat="45.94298" lon="4.82557">
        <ele>257.600006104</ele>
        <time>2015-11-11T12:01:19.961Z</time>
      </trkpt>
      <trkpt lat="45.94298" lon="4.82549">
        <ele>257.600006104</ele>
        <time>2015-11-11T12:01:20.978Z</time>
      </trkpt>
      <trkpt lat="45.94298" lon="4.82541">
        <ele>257.600006104</ele>
        <time>2015-11-11T12:01:21.961Z</time>
      </trkpt>
      <trkpt lat="45.94298" lon="4.82532">
        <ele>257.600006104</ele>
        <time>2015-11-11T12:01:22.976Z</time>
      </trkpt>
      <trkpt lat="45.94298" lon="4.82524">
        <ele>257.600006104</ele>
        <time>2015-11-11T12:01:23.961Z</time>
      </trkpt>
      <trkpt lat="45.94299" lon="4.82516">
        <ele>257.600006104</ele>
        <time>2015-11-11T12:01:24.975Z</time>
      </trkpt>
      <trkpt lat="45.94299" lon="4.82508">
        <ele>257.600006104</ele>
        <time>2015-11-11T12:01:25.961Z</time>
      </trkpt>
      <trkpt lat="45.94299" lon="4.82499">
        <ele>257.600006104</ele>
        <time>2015-11-11T12:01:27.013Z</time>
      </trkpt>
      <trkpt lat="45.94298" lon="4.82491">
        <ele>257.700012207</ele>
        <time>2015-11-11T12:01:27.961Z</time>
      </trkpt>
      <trkpt lat="45.94298" lon="4.82483">
        <ele>257.700012207</ele>
        <time>2015-11-11T12:01:28.976Z</time>
      </trkpt>
      <trkpt lat="45.94298" lon="4.82475">
        <ele>257.600006104</ele>
        <time>2015-11-11T12:01:29.961Z</time>
      </trkpt>
      <trkpt lat="45.94297" lon="4.82466">
        <ele>257.600006104</ele>
        <time>2015-11-11T12:01:30.988Z</time>
      </trkpt>
      <trkpt lat="45.94297" lon="4.82457">
        <ele>257.600006104</ele>
        <time>2015-11-11T12:01:31.961Z</time>
      </trkpt>
      <trkpt lat="45.94297" lon="4.82448">
        <ele>257.5</ele>
        <time>2015-11-11T12:01:32.978Z</time>
      </trkpt>
      <trkpt lat="45.94296" lon="4.8244">
        <ele>257.5</ele>
        <time>2015-11-11T12:01:33.961Z</time>
      </trkpt>
      <trkpt lat="45.94296" lon="4.82431">
        <ele>257.5</ele>
        <time>2015-11-11T12:01:34.977Z</time>
      </trkpt>
      <trkpt lat="45.94295" lon="4.82423">
        <ele>257.5</ele>
        <time>2015-11-11T12:01:35.961Z</time>
      </trkpt>
      <trkpt lat="45.94295" lon="4.82414">
        <ele>257.399993896</ele>
        <time>2015-11-11T12:01:36.975Z</time>
      </trkpt>
      <trkpt lat="45.94295" lon="4.82406">
        <ele>257.200012207</ele>
        <time>2015-11-11T12:01:37.961Z</time>
      </trkpt>
      <trkpt lat="45.94294" lon="4.82397">
        <ele>257.100006104</ele>
        <time>2015-11-11T12:01:38.978Z</time>
      </trkpt>
      <trkpt lat="45.94294" lon="4.82389">
        <ele>257</ele>
        <time>2015-11-11T12:01:39.963Z</time>
      </trkpt>
      <trkpt lat="45.94294" lon="4.8238">
        <ele>256.899993896</ele>
        <time>2015-11-11T12:01:40.977Z</time>
      </trkpt>
      <trkpt lat="45.94293" lon="4.82372">
        <ele>256.799987793</ele>
        <time>2015-11-11T12:01:41.961Z</time>
      </trkpt>
      <trkpt lat="45.94293" lon="4.82363">
        <ele>256.600006104</ele>
        <time>2015-11-11T12:01:42.975Z</time>
      </trkpt>
      <trkpt lat="45.94292" lon="4.82355">
        <ele>256.5</ele>
        <time>2015-11-11T12:01:43.961Z</time>
      </trkpt>
      <trkpt lat="45.94292" lon="4.82346">
        <ele>256.299987793</ele>
        <time>2015-11-11T12:01:44.979Z</time>
      </trkpt>
      <trkpt lat="45.94292" lon="4.82337">
        <ele>256.200012207</ele>
        <time>2015-11-11T12:01:45.961Z</time>
      </trkpt>
      <trkpt lat="45.94291" lon="4.82328">
        <ele>256</ele>
        <time>2015-11-11T12:01:46.99Z</time>
      </trkpt>
      <trkpt lat="45.94291" lon="4.82319">
        <ele>255.899993896</ele>
        <time>2015-11-11T12:01:47.961Z</time>
      </trkpt>
      <trkpt lat="45.9429" lon="4.8231">
        <ele>255.800003052</ele>
        <time>2015-11-11T12:01:48.975Z</time>
      </trkpt>
      <trkpt lat="45.9429" lon="4.82301">
        <ele>255.800003052</ele>
        <time>2015-11-11T12:01:49.961Z</time>
      </trkpt>
      <trkpt lat="45.94289" lon="4.82292">
        <ele>255.699996948</ele>
        <time>2015-11-11T12:01:50.979Z</time>
      </trkpt>
      <trkpt lat="45.94288" lon="4.82283">
        <ele>255.699996948</ele>
        <time>2015-11-11T12:01:51.961Z</time>
      </trkpt>
      <trkpt lat="45.94288" lon="4.82274">
        <ele>255.800003052</ele>
        <time>2015-11-11T12:01:52.977Z</time>
      </trkpt>
      <trkpt lat="45.94288" lon="4.82265">
        <ele>255.800003052</ele>
        <time>2015-11-11T12:01:53.961Z</time>
      </trkpt>
      <trkpt lat="45.94287" lon="4.82256">
        <ele>255.800003052</ele>
        <time>2015-11-11T12:01:54.975Z</time>
      </trkpt>
      <trkpt lat="45.94287" lon="4.82248">
        <ele>255.800003052</ele>
        <time>2015-11-11T12:01:55.961Z</time>
      </trkpt>
      <trkpt lat="45.94286" lon="4.8224">
        <ele>255.800003052</ele>
        <time>2015-11-11T12:01:56.978Z</time>
      </trkpt>
      <trkpt lat="45.94286" lon="4.82231">
        <ele>255.800003052</ele>
        <time>2015-11-11T12:01:57.961Z</time>
      </trkpt>
      <trkpt lat="45.94285" lon="4.82223">
        <ele>255.800003052</ele>
        <time>2015-11-11T12:01:58.976Z</time>
      </trkpt>
      <trkpt lat="45.94285" lon="4.82214">
        <ele>255.699996948</ele>
        <time>2015-11-11T12:01:59.961Z</time>
      </trkpt>
      <trkpt lat="45.94284" lon="4.82206">
        <ele>255.600006104</ele>
        <time>2015-11-11T12:02:01.091Z</time>
      </trkpt>
      <trkpt lat="45.94283" lon="4.82197">
        <ele>255.5</ele>
        <time>2015-11-11T12:02:01.961Z</time>
      </trkpt>
      <trkpt lat="45.94282" lon="4.82189">
        <ele>255.399993896</ele>
        <time>2015-11-11T12:02:02.992Z</time>
      </trkpt>
      <trkpt lat="45.9428" lon="4.8218">
        <ele>255.199996948</ele>
        <time>2015-11-11T12:02:03.961Z</time>
      </trkpt>
      <trkpt lat="45.94278" lon="4.82172">
        <ele>255.100006104</ele>
        <time>2015-11-11T12:02:04.976Z</time>
      </trkpt>
      <trkpt lat="45.94276" lon="4.82163">
        <ele>255.100006104</ele>
        <time>2015-11-11T12:02:05.961Z</time>
      </trkpt>
      <trkpt lat="45.94275" lon="4.82155">
        <ele>255</ele>
        <time>2015-11-11T12:02:06.975Z</time>
      </trkpt>
      <trkpt lat="45.94273" lon="4.82146">
        <ele>255</ele>
        <time>2015-11-11T12:02:07.961Z</time>
      </trkpt>
      <trkpt lat="45.94272" lon="4.82138">
        <ele>254.899993896</ele>
        <time>2015-11-11T12:02:08.978Z</time>
      </trkpt>
      <trkpt lat="45.9427" lon="4.82129">
        <ele>254.899993896</ele>
        <time>2015-11-11T12:02:09.961Z</time>
      </trkpt>
      <trkpt lat="45.94268" lon="4.82121">
        <ele>255.100006104</ele>
        <time>2015-11-11T12:02:10.976Z</time>
      </trkpt>
      <trkpt lat="45.94266" lon="4.82113">
        <ele>255.300003052</ele>
        <time>2015-11-11T12:02:11.961Z</time>
      </trkpt>
      <trkpt lat="45.94264" lon="4.82105">
        <ele>255.300003052</ele>
        <time>2015-11-11T12:02:12.975Z</time>
      </trkpt>
      <trkpt lat="45.94263" lon="4.82097">
        <ele>255.300003052</ele>
        <time>2015-11-11T12:02:13.961Z</time>
      </trkpt>
      <trkpt lat="45.94261" lon="4.82089">
        <ele>255.199996948</ele>
        <time>2015-11-11T12:02:14.978Z</time>
      </trkpt>
      <trkpt lat="45.94259" lon="4.82081">
        <ele>255.100006104</ele>
        <time>2015-11-11T12:02:15.961Z</time>
      </trkpt>
      <trkpt lat="45.94258" lon="4.82073">
        <ele>255.100006104</ele>
        <time>2015-11-11T12:02:16.977Z</time>
      </trkpt>
      <trkpt lat="45.94256" lon="4.82065">
        <ele>255.199996948</ele>
        <time>2015-11-11T12:02:17.961Z</time>
      </trkpt>
      <trkpt lat="45.94254" lon="4.82057">
        <ele>255.300003052</ele>
        <time>2015-11-11T12:02:18.989Z</time>
      </trkpt>
      <trkpt lat="45.94253" lon="4.82049">
        <ele>255.300003052</ele>
        <time>2015-11-11T12:02:19.961Z</time>
      </trkpt>
      <trkpt lat="45.94251" lon="4.82041">
        <ele>255.300003052</ele>
        <time>2015-11-11T12:02:20.978Z</time>
      </trkpt>
      <trkpt lat="45.9425" lon="4.82032">
        <ele>255.300003052</ele>
        <time>2015-11-11T12:02:21.961Z</time>
      </trkpt>
      <trkpt lat="45.94248" lon="4.82024">
        <ele>255.300003052</ele>
        <time>2015-11-11T12:02:22.976Z</time>
      </trkpt>
      <trkpt lat="45.94246" lon="4.82016">
        <ele>255.300003052</ele>
        <time>2015-11-11T12:02:23.96Z</time>
      </trkpt>
      <trkpt lat="45.94245" lon="4.82007">
        <ele>255.300003052</ele>
        <time>2015-11-11T12:02:24.975Z</time>
      </trkpt>
      <trkpt lat="45.94243" lon="4.81999">
        <ele>255.300003052</ele>
        <time>2015-11-11T12:02:25.961Z</time>
      </trkpt>
      <trkpt lat="45.94241" lon="4.8199">
        <ele>255.300003052</ele>
        <time>2015-11-11T12:02:26.979Z</time>
      </trkpt>
      <trkpt lat="45.9424" lon="4.81982">
        <ele>255.300003052</ele>
        <time>2015-11-11T12:02:27.962Z</time>
      </trkpt>
      <trkpt lat="45.94238" lon="4.81973">
        <ele>255.399993896</ele>
        <time>2015-11-11T12:02:28.988Z</time>
      </trkpt>
      <trkpt lat="45.94236" lon="4.81965">
        <ele>255.5</ele>
        <time>2015-11-11T12:02:29.961Z</time>
      </trkpt>
      <trkpt lat="45.94234" lon="4.81957">
        <ele>255.600006104</ele>
        <time>2015-11-11T12:02:30.976Z</time>
      </trkpt>
      <trkpt lat="45.94233" lon="4.81949">
        <ele>255.699996948</ele>
        <time>2015-11-11T12:02:31.961Z</time>
      </trkpt>
      <trkpt lat="45.94232" lon="4.81942">
        <ele>255.800003052</ele>
        <time>2015-11-11T12:02:32.978Z</time>
      </trkpt>
      <trkpt lat="45.9423" lon="4.81934">
        <ele>255.899993896</ele>
        <time>2015-11-11T12:02:33.961Z</time>
      </trkpt>
      <trkpt lat="45.94229" lon="4.81927">
        <ele>255.899993896</ele>
        <time>2015-11-11T12:02:34.99Z</time>
      </trkpt>
      <trkpt lat="45.94227" lon="4.8192">
        <ele>256</ele>
        <time>2015-11-11T12:02:35.961Z</time>
      </trkpt>
      <trkpt lat="45.94225" lon="4.81912">
        <ele>256.100006104</ele>
        <time>2015-11-11T12:02:36.982Z</time>
      </trkpt>
      <trkpt lat="45.94223" lon="4.81905">
        <ele>256.100006104</ele>
        <time>2015-11-11T12:02:37.962Z</time>
      </trkpt>
      <trkpt lat="45.94222" lon="4.81897">
        <ele>256.100006104</ele>
        <time>2015-11-11T12:02:38.987Z</time>
      </trkpt>
      <trkpt lat="45.9422" lon="4.8189">
        <ele>256.200012207</ele>
        <time>2015-11-11T12:02:39.963Z</time>
      </trkpt>
      <trkpt lat="45.94219" lon="4.81882">
        <ele>256.200012207</ele>
        <time>2015-11-11T12:02:40.977Z</time>
      </trkpt>
      <trkpt lat="45.94217" lon="4.81875">
        <ele>256.200012207</ele>
        <time>2015-11-11T12:02:41.961Z</time>
      </trkpt>
      <trkpt lat="45.94216" lon="4.81867">
        <ele>256.100006104</ele>
        <time>2015-11-11T12:02:42.975Z</time>
      </trkpt>
      <trkpt lat="45.94214" lon="4.8186">
        <ele>256</ele>
        <time>2015-11-11T12:02:43.961Z</time>
      </trkpt>
      <trkpt lat="45.94213" lon="4.81852">
        <ele>256</ele>
        <time>2015-11-11T12:02:45.105Z</time>
      </trkpt>
      <trkpt lat="45.94211" lon="4.81844">
        <ele>256</ele>
        <time>2015-11-11T12:02:45.962Z</time>
      </trkpt>
      <trkpt lat="45.94209" lon="4.81837">
        <ele>256.100006104</ele>
        <time>2015-11-11T12:02:46.976Z</time>
      </trkpt>
      <trkpt lat="45.94208" lon="4.81829">
        <ele>256.100006104</ele>
        <time>2015-11-11T12:02:47.961Z</time>
      </trkpt>
      <trkpt lat="45.94206" lon="4.81821">
        <ele>256</ele>
        <time>2015-11-11T12:02:48.975Z</time>
      </trkpt>
      <trkpt lat="45.94205" lon="4.81814">
        <ele>255.899993896</ele>
        <time>2015-11-11T12:02:49.961Z</time>
      </trkpt>
      <trkpt lat="45.94205" lon="4.81806">
        <ele>256.100006104</ele>
        <time>2015-11-11T12:02:50.979Z</time>
      </trkpt>
      <trkpt lat="45.94205" lon="4.81799">
        <ele>255.899993896</ele>
        <time>2015-11-11T12:02:51.961Z</time>
      </trkpt>
      <trkpt lat="45.94205" lon="4.81791">
        <ele>255.5</ele>
        <time>2015-11-11T12:02:52.98Z</time>
      </trkpt>
      <trkpt lat="45.94206" lon="4.81784">
        <ele>255.399993896</ele>
        <time>2015-11-11T12:02:53.961Z</time>
      </trkpt>
      <trkpt lat="45.94207" lon="4.81777">
        <ele>255.199996948</ele>
        <time>2015-11-11T12:02:54.975Z</time>
      </trkpt>
      <trkpt lat="45.94208" lon="4.8177">
        <ele>255.199996948</ele>
        <time>2015-11-11T12:02:55.961Z</time>
      </trkpt>
      <trkpt lat="45.94211" lon="4.81764">
        <ele>255.100006104</ele>
        <time>2015-11-11T12:02:56.979Z</time>
      </trkpt>
      <trkpt lat="45.94213" lon="4.81758">
        <ele>254.899993896</ele>
        <time>2015-11-11T12:02:57.961Z</time>
      </trkpt>
      <trkpt lat="45.94216" lon="4.81752">
        <ele>254.800003052</ele>
        <time>2015-11-11T12:02:58.976Z</time>
      </trkpt>
      <trkpt lat="45.94219" lon="4.81746">
        <ele>254.800003052</ele>
        <time>2015-11-11T12:02:59.961Z</time>
      </trkpt>
      <trkpt lat="45.94221" lon="4.8174">
        <ele>255</ele>
        <time>2015-11-11T12:03:00.975Z</time>
      </trkpt>
      <trkpt lat="45.94222" lon="4.81733">
        <ele>255.199996948</ele>
        <time>2015-11-11T12:03:01.961Z</time>
      </trkpt>
      <trkpt lat="45.9422" lon="4.81726">
        <ele>255</ele>
        <time>2015-11-11T12:03:02.979Z</time>
      </trkpt>
      <trkpt lat="45.94218" lon="4.8172">
        <ele>254.899993896</ele>
        <time>2015-11-11T12:03:03.961Z</time>
      </trkpt>
      <trkpt lat="45.94215" lon="4.81715">
        <ele>254.600006104</ele>
        <time>2015-11-11T12:03:04.976Z</time>
      </trkpt>
      <trkpt lat="45.94211" lon="4.81711">
        <ele>254.699996948</ele>
        <time>2015-11-11T12:03:05.961Z</time>
      </trkpt>
      <trkpt lat="45.94206" lon="4.81707">
        <ele>254.800003052</ele>
        <time>2015-11-11T12:03:06.989Z</time>
      </trkpt>
      <trkpt lat="45.94201" lon="4.81704">
        <ele>254.899993896</ele>
        <time>2015-11-11T12:03:07.961Z</time>
      </trkpt>
      <trkpt lat="45.94196" lon="4.817">
        <ele>255.199996948</ele>
        <time>2015-11-11T12:03:08.978Z</time>
      </trkpt>
      <trkpt lat="45.94192" lon="4.81696">
        <ele>255.300003052</ele>
        <time>2015-11-11T12:03:09.961Z</time>
      </trkpt>
      <trkpt lat="45.94187" lon="4.8169">
        <ele>255.5</ele>
        <time>2015-11-11T12:03:10.977Z</time>
      </trkpt>
      <trkpt lat="45.94183" lon="4.81683">
        <ele>255</ele>
        <time>2015-11-11T12:03:11.961Z</time>
      </trkpt>
      <trkpt lat="45.94179" lon="4.81675">
        <ele>254.600006104</ele>
        <time>2015-11-11T12:03:12.975Z</time>
      </trkpt>
      <trkpt lat="45.94176" lon="4.81666">
        <ele>254.199996948</ele>
        <time>2015-11-11T12:03:13.961Z</time>
      </trkpt>
      <trkpt lat="45.94174" lon="4.81656">
        <ele>253.699996948</ele>
        <time>2015-11-11T12:03:14.979Z</time>
      </trkpt>
      <trkpt lat="45.94172" lon="4.81645">
        <ele>253.899993896</ele>
        <time>2015-11-11T12:03:15.961Z</time>
      </trkpt>
      <trkpt lat="45.94169" lon="4.81635">
        <ele>253.899993896</ele>
        <time>2015-11-11T12:03:16.976Z</time>
      </trkpt>
      <trkpt lat="45.94166" lon="4.81624">
        <ele>253.600006104</ele>
        <time>2015-11-11T12:03:17.961Z</time>
      </trkpt>
      <trkpt lat="45.94165" lon="4.81612">
        <ele>253.399993896</ele>
        <time>2015-11-11T12:03:18.978Z</time>
      </trkpt>
      <trkpt lat="45.94163" lon="4.81601">
        <ele>253.199996948</ele>
        <time>2015-11-11T12:03:19.961Z</time>
      </trkpt>
      <trkpt lat="45.94162" lon="4.81589">
        <ele>253.100006104</ele>
        <time>2015-11-11T12:03:20.979Z</time>
      </trkpt>
      <trkpt lat="45.9416" lon="4.81577">
        <ele>253.100006104</ele>
        <time>2015-11-11T12:03:21.961Z</time>
      </trkpt>
      <trkpt lat="45.9416" lon="4.81577">
        <ele>253.100006104</ele>
        <time>2015-11-11T12:03:22.002Z</time>
      </trkpt>
      <trkpt lat="45.94159" lon="4.81564">
        <ele>252.699996948</ele>
        <time>2015-11-11T12:03:22.987Z</time>
      </trkpt>
      <trkpt lat="45.94158" lon="4.81552">
        <ele>252.800003052</ele>
        <time>2015-11-11T12:03:23.976Z</time>
      </trkpt>
      <trkpt lat="45.94158" lon="4.81539">
        <ele>252.899993896</ele>
        <time>2015-11-11T12:03:24.961Z</time>
      </trkpt>
      <trkpt lat="45.94158" lon="4.81539">
        <ele>252.899993896</ele>
        <time>2015-11-11T12:03:24.976Z</time>
      </trkpt>
      <trkpt lat="45.94158" lon="4.81526">
        <ele>253</ele>
        <time>2015-11-11T12:03:25.968Z</time>
      </trkpt>
      <trkpt lat="45.94158" lon="4.81526">
        <ele>253</ele>
        <time>2015-11-11T12:03:26.008Z</time>
      </trkpt>
      <trkpt lat="45.94159" lon="4.81513">
        <ele>253</ele>
        <time>2015-11-11T12:03:26.968Z</time>
      </trkpt>
      <trkpt lat="45.94159" lon="4.81513">
        <ele>253</ele>
        <time>2015-11-11T12:03:26.988Z</time>
      </trkpt>
      <trkpt lat="45.94159" lon="4.815">
        <ele>252.800003052</ele>
        <time>2015-11-11T12:03:27.961Z</time>
      </trkpt>
      <trkpt lat="45.9416" lon="4.81487">
        <ele>252.600006104</ele>
        <time>2015-11-11T12:03:28.977Z</time>
      </trkpt>
      <trkpt lat="45.94161" lon="4.81475">
        <ele>252.600006104</ele>
        <time>2015-11-11T12:03:29.961Z</time>
      </trkpt>
      <trkpt lat="45.94162" lon="4.81462">
        <ele>252.600006104</ele>
        <time>2015-11-11T12:03:30.976Z</time>
      </trkpt>
      <trkpt lat="45.94163" lon="4.81449">
        <ele>252.399993896</ele>
        <time>2015-11-11T12:03:31.961Z</time>
      </trkpt>
      <trkpt lat="45.94163" lon="4.81449">
        <ele>252.399993896</ele>
        <time>2015-11-11T12:03:31.98Z</time>
      </trkpt>
      <trkpt lat="45.94164" lon="4.81435">
        <ele>252</ele>
        <time>2015-11-11T12:03:32.964Z</time>
      </trkpt>
      <trkpt lat="45.94164" lon="4.81435">
        <ele>252</ele>
        <time>2015-11-11T12:03:32.98Z</time>
      </trkpt>
      <trkpt lat="45.94166" lon="4.81423">
        <ele>252.300003052</ele>
        <time>2015-11-11T12:03:33.961Z</time>
      </trkpt>
      <trkpt lat="45.94167" lon="4.8141">
        <ele>252</ele>
        <time>2015-11-11T12:03:34.977Z</time>
      </trkpt>
      <trkpt lat="45.94168" lon="4.81398">
        <ele>251.600006104</ele>
        <time>2015-11-11T12:03:35.961Z</time>
      </trkpt>
      <trkpt lat="45.94168" lon="4.81398">
        <ele>251.600006104</ele>
        <time>2015-11-11T12:03:35.977Z</time>
      </trkpt>
      <trkpt lat="45.94169" lon="4.81385">
        <ele>251.399993896</ele>
        <time>2015-11-11T12:03:36.961Z</time>
      </trkpt>
      <trkpt lat="45.94169" lon="4.81385">
        <ele>251.399993896</ele>
        <time>2015-11-11T12:03:36.977Z</time>
      </trkpt>
      <trkpt lat="45.94169" lon="4.81372">
        <ele>250.899993896</ele>
        <time>2015-11-11T12:03:37.961Z</time>
      </trkpt>
      <trkpt lat="45.94169" lon="4.81372">
        <ele>250.899993896</ele>
        <time>2015-11-11T12:03:37.977Z</time>
      </trkpt>
      <trkpt lat="45.9417" lon="4.81358">
        <ele>250.5</ele>
        <time>2015-11-11T12:03:38.978Z</time>
      </trkpt>
      <trkpt lat="45.9417" lon="4.81358">
        <ele>250.5</ele>
        <time>2015-11-11T12:03:38.993Z</time>
      </trkpt>
      <trkpt lat="45.9417" lon="4.81345">
        <ele>250.100006104</ele>
        <time>2015-11-11T12:03:39.963Z</time>
      </trkpt>
      <trkpt lat="45.9417" lon="4.81345">
        <ele>250.100006104</ele>
        <time>2015-11-11T12:03:39.979Z</time>
      </trkpt>
      <trkpt lat="45.94171" lon="4.81332">
        <ele>249.399993896</ele>
        <time>2015-11-11T12:03:40.962Z</time>
      </trkpt>
      <trkpt lat="45.94171" lon="4.81332">
        <ele>249.399993896</ele>
        <time>2015-11-11T12:03:40.978Z</time>
      </trkpt>
      <trkpt lat="45.94171" lon="4.81318">
        <ele>249.399993896</ele>
        <time>2015-11-11T12:03:41.961Z</time>
      </trkpt>
      <trkpt lat="45.94171" lon="4.81318">
        <ele>249.399993896</ele>
        <time>2015-11-11T12:03:41.976Z</time>
      </trkpt>
      <trkpt lat="45.94171" lon="4.81303">
        <ele>249</ele>
        <time>2015-11-11T12:03:42.962Z</time>
      </trkpt>
      <trkpt lat="45.94171" lon="4.81303">
        <ele>249</ele>
        <time>2015-11-11T12:03:42.977Z</time>
      </trkpt>
      <trkpt lat="45.9417" lon="4.81288">
        <ele>248.699996948</ele>
        <time>2015-11-11T12:03:43.961Z</time>
      </trkpt>
      <trkpt lat="45.9417" lon="4.81288">
        <ele>248.699996948</ele>
        <time>2015-11-11T12:03:43.976Z</time>
      </trkpt>
      <trkpt lat="45.94169" lon="4.81274">
        <ele>248.699996948</ele>
        <time>2015-11-11T12:03:44.964Z</time>
      </trkpt>
      <trkpt lat="45.94169" lon="4.81274">
        <ele>248.699996948</ele>
        <time>2015-11-11T12:03:44.982Z</time>
      </trkpt>
      <trkpt lat="45.94168" lon="4.81259">
        <ele>248.199996948</ele>
        <time>2015-11-11T12:03:45.961Z</time>
      </trkpt>
      <trkpt lat="45.94168" lon="4.81259">
        <ele>248.199996948</ele>
        <time>2015-11-11T12:03:45.977Z</time>
      </trkpt>
      <trkpt lat="45.94166" lon="4.81244">
        <ele>247.800003052</ele>
        <time>2015-11-11T12:03:46.962Z</time>
      </trkpt>
      <trkpt lat="45.94166" lon="4.81244">
        <ele>247.800003052</ele>
        <time>2015-11-11T12:03:46.978Z</time>
      </trkpt>
      <trkpt lat="45.94165" lon="4.8123">
        <ele>247.399993896</ele>
        <time>2015-11-11T12:03:47.961Z</time>
      </trkpt>
      <trkpt lat="45.94165" lon="4.8123">
        <ele>247.399993896</ele>
        <time>2015-11-11T12:03:47.977Z</time>
      </trkpt>
      <trkpt lat="45.94161" lon="4.81216">
        <ele>246.899993896</ele>
        <time>2015-11-11T12:03:48.961Z</time>
      </trkpt>
      <trkpt lat="45.94161" lon="4.81216">
        <ele>246.899993896</ele>
        <time>2015-11-11T12:03:48.977Z</time>
      </trkpt>
      <trkpt lat="45.94157" lon="4.81202">
        <ele>246.399993896</ele>
        <time>2015-11-11T12:03:49.961Z</time>
      </trkpt>
      <trkpt lat="45.94157" lon="4.81202">
        <ele>246.399993896</ele>
        <time>2015-11-11T12:03:49.977Z</time>
      </trkpt>
      <trkpt lat="45.94153" lon="4.81187">
        <ele>245.899993896</ele>
        <time>2015-11-11T12:03:50.964Z</time>
      </trkpt>
      <trkpt lat="45.94153" lon="4.81187">
        <ele>245.899993896</ele>
        <time>2015-11-11T12:03:50.98Z</time>
      </trkpt>
      <trkpt lat="45.94148" lon="4.81174">
        <ele>245</ele>
        <time>2015-11-11T12:03:51.961Z</time>
      </trkpt>
      <trkpt lat="45.94148" lon="4.81174">
        <ele>245</ele>
        <time>2015-11-11T12:03:51.976Z</time>
      </trkpt>
      <trkpt lat="45.94144" lon="4.81161">
        <ele>244.300003052</ele>
        <time>2015-11-11T12:03:52.962Z</time>
      </trkpt>
      <trkpt lat="45.94144" lon="4.81161">
        <ele>244.300003052</ele>
        <time>2015-11-11T12:03:52.978Z</time>
      </trkpt>
      <trkpt lat="45.94138" lon="4.81148">
        <ele>243.399993896</ele>
        <time>2015-11-11T12:03:53.961Z</time>
      </trkpt>
      <trkpt lat="45.94138" lon="4.81148">
        <ele>243.399993896</ele>
        <time>2015-11-11T12:03:53.976Z</time>
      </trkpt>
      <trkpt lat="45.94132" lon="4.81135">
        <ele>243</ele>
        <time>2015-11-11T12:03:54.974Z</time>
      </trkpt>
      <trkpt lat="45.94132" lon="4.81135">
        <ele>243</ele>
        <time>2015-11-11T12:03:54.99Z</time>
      </trkpt>
      <trkpt lat="45.94126" lon="4.81123">
        <ele>242.5</ele>
        <time>2015-11-11T12:03:55.961Z</time>
      </trkpt>
      <trkpt lat="45.94126" lon="4.81123">
        <ele>242.5</ele>
        <time>2015-11-11T12:03:55.977Z</time>
      </trkpt>
      <trkpt lat="45.9412" lon="4.81112">
        <ele>242</ele>
        <time>2015-11-11T12:03:56.964Z</time>
      </trkpt>
      <trkpt lat="45.9412" lon="4.81112">
        <ele>242</ele>
        <time>2015-11-11T12:03:56.98Z</time>
      </trkpt>
      <trkpt lat="45.94113" lon="4.811">
        <ele>241.600006104</ele>
        <time>2015-11-11T12:03:57.961Z</time>
      </trkpt>
      <trkpt lat="45.94113" lon="4.811">
        <ele>241.600006104</ele>
        <time>2015-11-11T12:03:57.976Z</time>
      </trkpt>
      <trkpt lat="45.94107" lon="4.81088">
        <ele>241</ele>
        <time>2015-11-11T12:03:58.962Z</time>
      </trkpt>
      <trkpt lat="45.94107" lon="4.81088">
        <ele>241</ele>
        <time>2015-11-11T12:03:58.978Z</time>
      </trkpt>
      <trkpt lat="45.94101" lon="4.81076">
        <ele>240.399993896</ele>
        <time>2015-11-11T12:03:59.961Z</time>
      </trkpt>
      <trkpt lat="45.94101" lon="4.81076">
        <ele>240.399993896</ele>
        <time>2015-11-11T12:03:59.976Z</time>
      </trkpt>
      <trkpt lat="45.94096" lon="4.81063">
        <ele>239.699996948</ele>
        <time>2015-11-11T12:04:00.961Z</time>
      </trkpt>
      <trkpt lat="45.94096" lon="4.81063">
        <ele>239.699996948</ele>
        <time>2015-11-11T12:04:00.977Z</time>
      </trkpt>
      <trkpt lat="45.9409" lon="4.81049">
        <ele>238.899993896</ele>
        <time>2015-11-11T12:04:01.961Z</time>
      </trkpt>
      <trkpt lat="45.9409" lon="4.81049">
        <ele>238.899993896</ele>
        <time>2015-11-11T12:04:01.977Z</time>
      </trkpt>
      <trkpt lat="45.94085" lon="4.81036">
        <ele>238.199996948</ele>
        <time>2015-11-11T12:04:02.964Z</time>
      </trkpt>
      <trkpt lat="45.94085" lon="4.81036">
        <ele>238.199996948</ele>
        <time>2015-11-11T12:04:02.98Z</time>
      </trkpt>
      <trkpt lat="45.94081" lon="4.81023">
        <ele>237.600006104</ele>
        <time>2015-11-11T12:04:03.961Z</time>
      </trkpt>
      <trkpt lat="45.94081" lon="4.81023">
        <ele>237.600006104</ele>
        <time>2015-11-11T12:04:03.976Z</time>
      </trkpt>
      <trkpt lat="45.94076" lon="4.81008">
        <ele>237</ele>
        <time>2015-11-11T12:04:04.962Z</time>
      </trkpt>
      <trkpt lat="45.94076" lon="4.81008">
        <ele>237</ele>
        <time>2015-11-11T12:04:04.977Z</time>
      </trkpt>
      <trkpt lat="45.94073" lon="4.80994">
        <ele>236.399993896</ele>
        <time>2015-11-11T12:04:05.961Z</time>
      </trkpt>
      <trkpt lat="45.94073" lon="4.80994">
        <ele>236.399993896</ele>
        <time>2015-11-11T12:04:05.976Z</time>
      </trkpt>
      <trkpt lat="45.94072" lon="4.80979">
        <ele>235.800003052</ele>
        <time>2015-11-11T12:04:06.961Z</time>
      </trkpt>
      <trkpt lat="45.94072" lon="4.80979">
        <ele>235.800003052</ele>
        <time>2015-11-11T12:04:06.985Z</time>
      </trkpt>
      <trkpt lat="45.94069" lon="4.80964">
        <ele>235.300003052</ele>
        <time>2015-11-11T12:04:07.961Z</time>
      </trkpt>
      <trkpt lat="45.94069" lon="4.80964">
        <ele>235.300003052</ele>
        <time>2015-11-11T12:04:07.976Z</time>
      </trkpt>
      <trkpt lat="45.94067" lon="4.80948">
        <ele>234.800003052</ele>
        <time>2015-11-11T12:04:08.964Z</time>
      </trkpt>
      <trkpt lat="45.94067" lon="4.80948">
        <ele>234.800003052</ele>
        <time>2015-11-11T12:04:08.98Z</time>
      </trkpt>
      <trkpt lat="45.94066" lon="4.80933">
        <ele>234.199996948</ele>
        <time>2015-11-11T12:04:09.961Z</time>
      </trkpt>
      <trkpt lat="45.94066" lon="4.80933">
        <ele>234.199996948</ele>
        <time>2015-11-11T12:04:09.976Z</time>
      </trkpt>
      <trkpt lat="45.94064" lon="4.80918">
        <ele>233.199996948</ele>
        <time>2015-11-11T12:04:10.978Z</time>
      </trkpt>
      <trkpt lat="45.94064" lon="4.80918">
        <ele>233.199996948</ele>
        <time>2015-11-11T12:04:10.993Z</time>
      </trkpt>
      <trkpt lat="45.94063" lon="4.80904">
        <ele>232.699996948</ele>
        <time>2015-11-11T12:04:11.961Z</time>
      </trkpt>
      <trkpt lat="45.94063" lon="4.80904">
        <ele>232.699996948</ele>
        <time>2015-11-11T12:04:11.977Z</time>
      </trkpt>
      <trkpt lat="45.94061" lon="4.80889">
        <ele>232</ele>
        <time>2015-11-11T12:04:12.961Z</time>
      </trkpt>
      <trkpt lat="45.94061" lon="4.80889">
        <ele>232</ele>
        <time>2015-11-11T12:04:12.976Z</time>
      </trkpt>
      <trkpt lat="45.94059" lon="4.80873">
        <ele>231.5</ele>
        <time>2015-11-11T12:04:13.961Z</time>
      </trkpt>
      <trkpt lat="45.94059" lon="4.80873">
        <ele>231.5</ele>
        <time>2015-11-11T12:04:13.977Z</time>
      </trkpt>
      <trkpt lat="45.94057" lon="4.80858">
        <ele>231</ele>
        <time>2015-11-11T12:04:14.964Z</time>
      </trkpt>
      <trkpt lat="45.94057" lon="4.80858">
        <ele>231</ele>
        <time>2015-11-11T12:04:14.98Z</time>
      </trkpt>
      <trkpt lat="45.94055" lon="4.80843">
        <ele>230.5</ele>
        <time>2015-11-11T12:04:15.961Z</time>
      </trkpt>
      <trkpt lat="45.94055" lon="4.80843">
        <ele>230.5</ele>
        <time>2015-11-11T12:04:15.977Z</time>
      </trkpt>
      <trkpt lat="45.94053" lon="4.80827">
        <ele>230.100006104</ele>
        <time>2015-11-11T12:04:16.962Z</time>
      </trkpt>
      <trkpt lat="45.94053" lon="4.80827">
        <ele>230.100006104</ele>
        <time>2015-11-11T12:04:16.977Z</time>
      </trkpt>
      <trkpt lat="45.94052" lon="4.80812">
        <ele>229.399993896</ele>
        <time>2015-11-11T12:04:17.961Z</time>
      </trkpt>
      <trkpt lat="45.94052" lon="4.80812">
        <ele>229.399993896</ele>
        <time>2015-11-11T12:04:17.977Z</time>
      </trkpt>
      <trkpt lat="45.9405" lon="4.80797">
        <ele>228.600006104</ele>
        <time>2015-11-11T12:04:18.961Z</time>
      </trkpt>
      <trkpt lat="45.9405" lon="4.80797">
        <ele>228.600006104</ele>
        <time>2015-11-11T12:04:18.976Z</time>
      </trkpt>
      <trkpt lat="45.94048" lon="4.80781">
        <ele>228</ele>
        <time>2015-11-11T12:04:19.961Z</time>
      </trkpt>
      <trkpt lat="45.94048" lon="4.80781">
        <ele>228</ele>
        <time>2015-11-11T12:04:19.977Z</time>
      </trkpt>
      <trkpt lat="45.94046" lon="4.80766">
        <ele>227.699996948</ele>
        <time>2015-11-11T12:04:20.964Z</time>
      </trkpt>
      <trkpt lat="45.94046" lon="4.80766">
        <ele>227.699996948</ele>
        <time>2015-11-11T12:04:20.98Z</time>
      </trkpt>
      <trkpt lat="45.94044" lon="4.80751">
        <ele>227.399993896</ele>
        <time>2015-11-11T12:04:21.961Z</time>
      </trkpt>
      <trkpt lat="45.94044" lon="4.80751">
        <ele>227.399993896</ele>
        <time>2015-11-11T12:04:21.977Z</time>
      </trkpt>
      <trkpt lat="45.94042" lon="4.80735">
        <ele>227.100006104</ele>
        <time>2015-11-11T12:04:22.962Z</time>
      </trkpt>
      <trkpt lat="45.94042" lon="4.80735">
        <ele>227.100006104</ele>
        <time>2015-11-11T12:04:22.978Z</time>
      </trkpt>
      <trkpt lat="45.9404" lon="4.80719">
        <ele>226.899993896</ele>
        <time>2015-11-11T12:04:23.961Z</time>
      </trkpt>
      <trkpt lat="45.9404" lon="4.80719">
        <ele>226.899993896</ele>
        <time>2015-11-11T12:04:23.976Z</time>
      </trkpt>
      <trkpt lat="45.94038" lon="4.80704">
        <ele>226.600006104</ele>
        <time>2015-11-11T12:04:24.962Z</time>
      </trkpt>
      <trkpt lat="45.94038" lon="4.80704">
        <ele>226.600006104</ele>
        <time>2015-11-11T12:04:24.978Z</time>
      </trkpt>
      <trkpt lat="45.94036" lon="4.80688">
        <ele>226</ele>
        <time>2015-11-11T12:04:25.961Z</time>
      </trkpt>
      <trkpt lat="45.94036" lon="4.80688">
        <ele>226</ele>
        <time>2015-11-11T12:04:25.977Z</time>
      </trkpt>
      <trkpt lat="45.94034" lon="4.80672">
        <ele>224</ele>
        <time>2015-11-11T12:04:26.977Z</time>
      </trkpt>
      <trkpt lat="45.94034" lon="4.80672">
        <ele>224</ele>
        <time>2015-11-11T12:04:26.994Z</time>
      </trkpt>
      <trkpt lat="45.94033" lon="4.80657">
        <ele>221.699996948</ele>
        <time>2015-11-11T12:04:27.961Z</time>
      </trkpt>
      <trkpt lat="45.94033" lon="4.80657">
        <ele>221.699996948</ele>
        <time>2015-11-11T12:04:27.977Z</time>
      </trkpt>
      <trkpt lat="45.94031" lon="4.80642">
        <ele>219.399993896</ele>
        <time>2015-11-11T12:04:28.962Z</time>
      </trkpt>
      <trkpt lat="45.94031" lon="4.80642">
        <ele>219.399993896</ele>
        <time>2015-11-11T12:04:28.978Z</time>
      </trkpt>
      <trkpt lat="45.9403" lon="4.80627">
        <ele>218</ele>
        <time>2015-11-11T12:04:29.961Z</time>
      </trkpt>
      <trkpt lat="45.9403" lon="4.80627">
        <ele>218</ele>
        <time>2015-11-11T12:04:29.976Z</time>
      </trkpt>
      <trkpt lat="45.94028" lon="4.80612">
        <ele>217.199996948</ele>
        <time>2015-11-11T12:04:30.961Z</time>
      </trkpt>
      <trkpt lat="45.94028" lon="4.80612">
        <ele>217.199996948</ele>
        <time>2015-11-11T12:04:30.976Z</time>
      </trkpt>
      <trkpt lat="45.94026" lon="4.80596">
        <ele>216.199996948</ele>
        <time>2015-11-11T12:04:31.961Z</time>
      </trkpt>
      <trkpt lat="45.94026" lon="4.80596">
        <ele>216.199996948</ele>
        <time>2015-11-11T12:04:31.976Z</time>
      </trkpt>
      <trkpt lat="45.94025" lon="4.8058">
        <ele>215.199996948</ele>
        <time>2015-11-11T12:04:32.964Z</time>
      </trkpt>
      <trkpt lat="45.94025" lon="4.8058">
        <ele>215.199996948</ele>
        <time>2015-11-11T12:04:32.98Z</time>
      </trkpt>
      <trkpt lat="45.94024" lon="4.80565">
        <ele>214</ele>
        <time>2015-11-11T12:04:33.961Z</time>
      </trkpt>
      <trkpt lat="45.94024" lon="4.80565">
        <ele>214</ele>
        <time>2015-11-11T12:04:33.977Z</time>
      </trkpt>
      <trkpt lat="45.94024" lon="4.80549">
        <ele>213.300003052</ele>
        <time>2015-11-11T12:04:34.962Z</time>
      </trkpt>
      <trkpt lat="45.94024" lon="4.80549">
        <ele>213.300003052</ele>
        <time>2015-11-11T12:04:34.977Z</time>
      </trkpt>
      <trkpt lat="45.94023" lon="4.80533">
        <ele>212.5</ele>
        <time>2015-11-11T12:04:35.961Z</time>
      </trkpt>
      <trkpt lat="45.94023" lon="4.80533">
        <ele>212.5</ele>
        <time>2015-11-11T12:04:35.977Z</time>
      </trkpt>
      <trkpt lat="45.94023" lon="4.80518">
        <ele>211.800003052</ele>
        <time>2015-11-11T12:04:36.961Z</time>
      </trkpt>
      <trkpt lat="45.94023" lon="4.80518">
        <ele>211.800003052</ele>
        <time>2015-11-11T12:04:36.979Z</time>
      </trkpt>
      <trkpt lat="45.94023" lon="4.80503">
        <ele>211.100006104</ele>
        <time>2015-11-11T12:04:37.961Z</time>
      </trkpt>
      <trkpt lat="45.94023" lon="4.80503">
        <ele>211.100006104</ele>
        <time>2015-11-11T12:04:37.977Z</time>
      </trkpt>
      <trkpt lat="45.94024" lon="4.80486">
        <ele>210.5</ele>
        <time>2015-11-11T12:04:38.964Z</time>
      </trkpt>
      <trkpt lat="45.94024" lon="4.80486">
        <ele>210.5</ele>
        <time>2015-11-11T12:04:38.98Z</time>
      </trkpt>
      <trkpt lat="45.94024" lon="4.8047">
        <ele>210</ele>
        <time>2015-11-11T12:04:39.963Z</time>
      </trkpt>
      <trkpt lat="45.94024" lon="4.8047">
        <ele>210</ele>
        <time>2015-11-11T12:04:39.981Z</time>
      </trkpt>
      <trkpt lat="45.94023" lon="4.80455">
        <ele>209.699996948</ele>
        <time>2015-11-11T12:04:40.962Z</time>
      </trkpt>
      <trkpt lat="45.94023" lon="4.80455">
        <ele>209.699996948</ele>
        <time>2015-11-11T12:04:40.978Z</time>
      </trkpt>
      <trkpt lat="45.94022" lon="4.8044">
        <ele>209.300003052</ele>
        <time>2015-11-11T12:04:41.961Z</time>
      </trkpt>
      <trkpt lat="45.94022" lon="4.8044">
        <ele>209.300003052</ele>
        <time>2015-11-11T12:04:41.977Z</time>
      </trkpt>
      <trkpt lat="45.94019" lon="4.80425">
        <ele>209.300003052</ele>
        <time>2015-11-11T12:04:42.974Z</time>
      </trkpt>
      <trkpt lat="45.94019" lon="4.80425">
        <ele>209.300003052</ele>
        <time>2015-11-11T12:04:42.992Z</time>
      </trkpt>
      <trkpt lat="45.94015" lon="4.80411">
        <ele>209.100006104</ele>
        <time>2015-11-11T12:04:43.961Z</time>
      </trkpt>
      <trkpt lat="45.94015" lon="4.80411">
        <ele>209.100006104</ele>
        <time>2015-11-11T12:04:43.976Z</time>
      </trkpt>
      <trkpt lat="45.94011" lon="4.80396">
        <ele>208.800003052</ele>
        <time>2015-11-11T12:04:44.964Z</time>
      </trkpt>
      <trkpt lat="45.94011" lon="4.80396">
        <ele>208.800003052</ele>
        <time>2015-11-11T12:04:44.98Z</time>
      </trkpt>
      <trkpt lat="45.94007" lon="4.80382">
        <ele>208.300003052</ele>
        <time>2015-11-11T12:04:45.961Z</time>
      </trkpt>
      <trkpt lat="45.94007" lon="4.80382">
        <ele>208.300003052</ele>
        <time>2015-11-11T12:04:45.978Z</time>
      </trkpt>
      <trkpt lat="45.94004" lon="4.80367">
        <ele>207.899993896</ele>
        <time>2015-11-11T12:04:46.962Z</time>
      </trkpt>
      <trkpt lat="45.94004" lon="4.80367">
        <ele>207.899993896</ele>
        <time>2015-11-11T12:04:46.979Z</time>
      </trkpt>
      <trkpt lat="45.93999" lon="4.80352">
        <ele>206.899993896</ele>
        <time>2015-11-11T12:04:47.961Z</time>
      </trkpt>
      <trkpt lat="45.93999" lon="4.80352">
        <ele>206.899993896</ele>
        <time>2015-11-11T12:04:47.978Z</time>
      </trkpt>
      <trkpt lat="45.93995" lon="4.80337">
        <ele>205.600006104</ele>
        <time>2015-11-11T12:04:48.961Z</time>
      </trkpt>
      <trkpt lat="45.93995" lon="4.80337">
        <ele>205.600006104</ele>
        <time>2015-11-11T12:04:48.978Z</time>
      </trkpt>
      <trkpt lat="45.93992" lon="4.80324">
        <ele>204</ele>
        <time>2015-11-11T12:04:49.963Z</time>
      </trkpt>
      <trkpt lat="45.93992" lon="4.80324">
        <ele>204</ele>
        <time>2015-11-11T12:04:49.98Z</time>
      </trkpt>
      <trkpt lat="45.93988" lon="4.8031">
        <ele>203</ele>
        <time>2015-11-11T12:04:50.966Z</time>
      </trkpt>
      <trkpt lat="45.93988" lon="4.8031">
        <ele>203</ele>
        <time>2015-11-11T12:04:50.983Z</time>
      </trkpt>
      <trkpt lat="45.93983" lon="4.80295">
        <ele>201.699996948</ele>
        <time>2015-11-11T12:04:51.963Z</time>
      </trkpt>
      <trkpt lat="45.93983" lon="4.80295">
        <ele>201.699996948</ele>
        <time>2015-11-11T12:04:52Z</time>
      </trkpt>
      <trkpt lat="45.9398" lon="4.8028">
        <ele>201.199996948</ele>
        <time>2015-11-11T12:04:52.964Z</time>
      </trkpt>
      <trkpt lat="45.9398" lon="4.8028">
        <ele>201.199996948</ele>
        <time>2015-11-11T12:04:52.981Z</time>
      </trkpt>
      <trkpt lat="45.93976" lon="4.80265">
        <ele>200.800003052</ele>
        <time>2015-11-11T12:04:53.963Z</time>
      </trkpt>
      <trkpt lat="45.93976" lon="4.80265">
        <ele>200.800003052</ele>
        <time>2015-11-11T12:04:53.98Z</time>
      </trkpt>
      <trkpt lat="45.93973" lon="4.8025">
        <ele>200.600006104</ele>
        <time>2015-11-11T12:04:54.961Z</time>
      </trkpt>
      <trkpt lat="45.93973" lon="4.8025">
        <ele>200.600006104</ele>
        <time>2015-11-11T12:04:54.976Z</time>
      </trkpt>
      <trkpt lat="45.93969" lon="4.80237">
        <ele>200.800003052</ele>
        <time>2015-11-11T12:04:55.961Z</time>
      </trkpt>
      <trkpt lat="45.93969" lon="4.80237">
        <ele>200.800003052</ele>
        <time>2015-11-11T12:04:55.977Z</time>
      </trkpt>
      <trkpt lat="45.93965" lon="4.80223">
        <ele>200.600006104</ele>
        <time>2015-11-11T12:04:56.964Z</time>
      </trkpt>
      <trkpt lat="45.93965" lon="4.80223">
        <ele>200.600006104</ele>
        <time>2015-11-11T12:04:56.981Z</time>
      </trkpt>
      <trkpt lat="45.93961" lon="4.8021">
        <ele>200.100006104</ele>
        <time>2015-11-11T12:04:57.961Z</time>
      </trkpt>
      <trkpt lat="45.93961" lon="4.8021">
        <ele>200.100006104</ele>
        <time>2015-11-11T12:04:57.978Z</time>
      </trkpt>
      <trkpt lat="45.93958" lon="4.80197">
        <ele>199.899993896</ele>
        <time>2015-11-11T12:04:58.976Z</time>
      </trkpt>
      <trkpt lat="45.93958" lon="4.80197">
        <ele>199.899993896</ele>
        <time>2015-11-11T12:04:58.993Z</time>
      </trkpt>
      <trkpt lat="45.93956" lon="4.80184">
        <ele>199.5</ele>
        <time>2015-11-11T12:04:59.961Z</time>
      </trkpt>
      <trkpt lat="45.93953" lon="4.80172">
        <ele>199.699996948</ele>
        <time>2015-11-11T12:05:00.975Z</time>
      </trkpt>
      <trkpt lat="45.93951" lon="4.8016">
        <ele>199.699996948</ele>
        <time>2015-11-11T12:05:01.961Z</time>
      </trkpt>
      <trkpt lat="45.93949" lon="4.80149">
        <ele>200.199996948</ele>
        <time>2015-11-11T12:05:02.982Z</time>
      </trkpt>
      <trkpt lat="45.93947" lon="4.80138">
        <ele>200.100006104</ele>
        <time>2015-11-11T12:05:03.961Z</time>
      </trkpt>
      <trkpt lat="45.93946" lon="4.80128">
        <ele>199.800003052</ele>
        <time>2015-11-11T12:05:04.976Z</time>
      </trkpt>
      <trkpt lat="45.93944" lon="4.80117">
        <ele>199.699996948</ele>
        <time>2015-11-11T12:05:05.961Z</time>
      </trkpt>
      <trkpt lat="45.93943" lon="4.80106">
        <ele>199.699996948</ele>
        <time>2015-11-11T12:05:06.975Z</time>
      </trkpt>
      <trkpt lat="45.93942" lon="4.80096">
        <ele>200.100006104</ele>
        <time>2015-11-11T12:05:07.961Z</time>
      </trkpt>
      <trkpt lat="45.93942" lon="4.80086">
        <ele>200.600006104</ele>
        <time>2015-11-11T12:05:09.113Z</time>
      </trkpt>
      <trkpt lat="45.93942" lon="4.80076">
        <ele>200.600006104</ele>
        <time>2015-11-11T12:05:09.961Z</time>
      </trkpt>
      <trkpt lat="45.93942" lon="4.80066">
        <ele>200.699996948</ele>
        <time>2015-11-11T12:05:11.009Z</time>
      </trkpt>
      <trkpt lat="45.93942" lon="4.80057">
        <ele>201</ele>
        <time>2015-11-11T12:05:11.961Z</time>
      </trkpt>
      <trkpt lat="45.93943" lon="4.80048">
        <ele>201.300003052</ele>
        <time>2015-11-11T12:05:12.974Z</time>
      </trkpt>
      <trkpt lat="45.93943" lon="4.80038">
        <ele>201.199996948</ele>
        <time>2015-11-11T12:05:13.961Z</time>
      </trkpt>
      <trkpt lat="45.93944" lon="4.80029">
        <ele>201.100006104</ele>
        <time>2015-11-11T12:05:14.978Z</time>
      </trkpt>
      <trkpt lat="45.93945" lon="4.80019">
        <ele>201.199996948</ele>
        <time>2015-11-11T12:05:15.961Z</time>
      </trkpt>
      <trkpt lat="45.93947" lon="4.8001">
        <ele>201.399993896</ele>
        <time>2015-11-11T12:05:16.976Z</time>
      </trkpt>
      <trkpt lat="45.93947" lon="4.80001">
        <ele>201.100006104</ele>
        <time>2015-11-11T12:05:17.961Z</time>
      </trkpt>
      <trkpt lat="45.93948" lon="4.79992">
        <ele>201.199996948</ele>
        <time>2015-11-11T12:05:18.975Z</time>
      </trkpt>
      <trkpt lat="45.9395" lon="4.79983">
        <ele>201.300003052</ele>
        <time>2015-11-11T12:05:19.961Z</time>
      </trkpt>
      <trkpt lat="45.93952" lon="4.79974">
        <ele>201.399993896</ele>
        <time>2015-11-11T12:05:20.978Z</time>
      </trkpt>
      <trkpt lat="45.93953" lon="4.79965">
        <ele>201.600006104</ele>
        <time>2015-11-11T12:05:21.961Z</time>
      </trkpt>
      <trkpt lat="45.93954" lon="4.79956">
        <ele>201.699996948</ele>
        <time>2015-11-11T12:05:22.976Z</time>
      </trkpt>
      <trkpt lat="45.93956" lon="4.79947">
        <ele>201</ele>
        <time>2015-11-11T12:05:23.961Z</time>
      </trkpt>
      <trkpt lat="45.93957" lon="4.79938">
        <ele>200.899993896</ele>
        <time>2015-11-11T12:05:24.975Z</time>
      </trkpt>
      <trkpt lat="45.93958" lon="4.7993">
        <ele>200.5</ele>
        <time>2015-11-11T12:05:25.961Z</time>
      </trkpt>
      <trkpt lat="45.93959" lon="4.79922">
        <ele>200.699996948</ele>
        <time>2015-11-11T12:05:26.978Z</time>
      </trkpt>
      <trkpt lat="45.9396" lon="4.79914">
        <ele>200.699996948</ele>
        <time>2015-11-11T12:05:27.961Z</time>
      </trkpt>
      <trkpt lat="45.93961" lon="4.79907">
        <ele>200.600006104</ele>
        <time>2015-11-11T12:05:28.976Z</time>
      </trkpt>
      <trkpt lat="45.93962" lon="4.79899">
        <ele>200.600006104</ele>
        <time>2015-11-11T12:05:29.961Z</time>
      </trkpt>
      <trkpt lat="45.93964" lon="4.79891">
        <ele>200.800003052</ele>
        <time>2015-11-11T12:05:30.992Z</time>
      </trkpt>
      <trkpt lat="45.93965" lon="4.79883">
        <ele>200.899993896</ele>
        <time>2015-11-11T12:05:31.961Z</time>
      </trkpt>
      <trkpt lat="45.93965" lon="4.79875">
        <ele>200.699996948</ele>
        <time>2015-11-11T12:05:32.991Z</time>
      </trkpt>
      <trkpt lat="45.93966" lon="4.79867">
        <ele>200.699996948</ele>
        <time>2015-11-11T12:05:33.961Z</time>
      </trkpt>
      <trkpt lat="45.93967" lon="4.79859">
        <ele>200.699996948</ele>
        <time>2015-11-11T12:05:34.976Z</time>
      </trkpt>
      <trkpt lat="45.93969" lon="4.7985">
        <ele>201</ele>
        <time>2015-11-11T12:05:35.961Z</time>
      </trkpt>
      <trkpt lat="45.93972" lon="4.7984">
        <ele>200.5</ele>
        <time>2015-11-11T12:05:36.976Z</time>
      </trkpt>
      <trkpt lat="45.93974" lon="4.79831">
        <ele>200.699996948</ele>
        <time>2015-11-11T12:05:37.961Z</time>
      </trkpt>
      <trkpt lat="45.93976" lon="4.79823">
        <ele>199.899993896</ele>
        <time>2015-11-11T12:05:38.98Z</time>
      </trkpt>
      <trkpt lat="45.93977" lon="4.79814">
        <ele>199.300003052</ele>
        <time>2015-11-11T12:05:39.963Z</time>
      </trkpt>
      <trkpt lat="45.93977" lon="4.79805">
        <ele>199.5</ele>
        <time>2015-11-11T12:05:40.976Z</time>
      </trkpt>
      <trkpt lat="45.93978" lon="4.79796">
        <ele>199.5</ele>
        <time>2015-11-11T12:05:41.961Z</time>
      </trkpt>
      <trkpt lat="45.93979" lon="4.79788">
        <ele>199.399993896</ele>
        <time>2015-11-11T12:05:42.975Z</time>
      </trkpt>
      <trkpt lat="45.93979" lon="4.79779">
        <ele>199.5</ele>
        <time>2015-11-11T12:05:43.961Z</time>
      </trkpt>
      <trkpt lat="45.93979" lon="4.79771">
        <ele>199.399993896</ele>
        <time>2015-11-11T12:05:44.978Z</time>
      </trkpt>
      <trkpt lat="45.93979" lon="4.79763">
        <ele>199.800003052</ele>
        <time>2015-11-11T12:05:45.974Z</time>
      </trkpt>
      <trkpt lat="45.93978" lon="4.79756">
        <ele>200.100006104</ele>
        <time>2015-11-11T12:05:46.989Z</time>
      </trkpt>
      <trkpt lat="45.93977" lon="4.79748">
        <ele>200.300003052</ele>
        <time>2015-11-11T12:05:47.96Z</time>
      </trkpt>
      <trkpt lat="45.93977" lon="4.7974">
        <ele>200.5</ele>
        <time>2015-11-11T12:05:48.975Z</time>
      </trkpt>
      <trkpt lat="45.93976" lon="4.79733">
        <ele>200.699996948</ele>
        <time>2015-11-11T12:05:49.96Z</time>
      </trkpt>
      <trkpt lat="45.93975" lon="4.79725">
        <ele>200.699996948</ele>
        <time>2015-11-11T12:05:50.978Z</time>
      </trkpt>
      <trkpt lat="45.93974" lon="4.79717">
        <ele>200.800003052</ele>
        <time>2015-11-11T12:05:51.96Z</time>
      </trkpt>
      <trkpt lat="45.93973" lon="4.79709">
        <ele>200.899993896</ele>
        <time>2015-11-11T12:05:52.976Z</time>
      </trkpt>
      <trkpt lat="45.93972" lon="4.79701">
        <ele>201.300003052</ele>
        <time>2015-11-11T12:05:53.96Z</time>
      </trkpt>
      <trkpt lat="45.93972" lon="4.79692">
        <ele>201.399993896</ele>
        <time>2015-11-11T12:05:54.975Z</time>
      </trkpt>
      <trkpt lat="45.93971" lon="4.79684">
        <ele>201.399993896</ele>
        <time>2015-11-11T12:05:55.96Z</time>
      </trkpt>
      <trkpt lat="45.9397" lon="4.79675">
        <ele>201.600006104</ele>
        <time>2015-11-11T12:05:56.978Z</time>
      </trkpt>
      <trkpt lat="45.93969" lon="4.79667">
        <ele>201.600006104</ele>
        <time>2015-11-11T12:05:57.961Z</time>
      </trkpt>
      <trkpt lat="45.93969" lon="4.79658">
        <ele>201.600006104</ele>
        <time>2015-11-11T12:05:58.976Z</time>
      </trkpt>
      <trkpt lat="45.93968" lon="4.79649">
        <ele>201.300003052</ele>
        <time>2015-11-11T12:05:59.971Z</time>
      </trkpt>
      <trkpt lat="45.93967" lon="4.79641">
        <ele>200.699996948</ele>
        <time>2015-11-11T12:06:01.022Z</time>
      </trkpt>
      <trkpt lat="45.93966" lon="4.79632">
        <ele>200.399993896</ele>
        <time>2015-11-11T12:06:01.964Z</time>
      </trkpt>
      <trkpt lat="45.93965" lon="4.79623">
        <ele>200.5</ele>
        <time>2015-11-11T12:06:03.003Z</time>
      </trkpt>
      <trkpt lat="45.93965" lon="4.79613">
        <ele>200.5</ele>
        <time>2015-11-11T12:06:03.965Z</time>
      </trkpt>
      <trkpt lat="45.93964" lon="4.79604">
        <ele>200.600006104</ele>
        <time>2015-11-11T12:06:04.985Z</time>
      </trkpt>
      <trkpt lat="45.93963" lon="4.79595">
        <ele>200.5</ele>
        <time>2015-11-11T12:06:05.974Z</time>
      </trkpt>
      <trkpt lat="45.93962" lon="4.79587">
        <ele>200</ele>
        <time>2015-11-11T12:06:07.008Z</time>
      </trkpt>
      <trkpt lat="45.93963" lon="4.79578">
        <ele>200.199996948</ele>
        <time>2015-11-11T12:06:07.964Z</time>
      </trkpt>
      <trkpt lat="45.93962" lon="4.79569">
        <ele>199.800003052</ele>
        <time>2015-11-11T12:06:09.007Z</time>
      </trkpt>
      <trkpt lat="45.93961" lon="4.79559">
        <ele>199.399993896</ele>
        <time>2015-11-11T12:06:09.963Z</time>
      </trkpt>
      <trkpt lat="45.93961" lon="4.7955">
        <ele>198.899993896</ele>
        <time>2015-11-11T12:06:10.979Z</time>
      </trkpt>
      <trkpt lat="45.9396" lon="4.7954">
        <ele>198.600006104</ele>
        <time>2015-11-11T12:06:11.964Z</time>
      </trkpt>
      <trkpt lat="45.93959" lon="4.7953">
        <ele>197.800003052</ele>
        <time>2015-11-11T12:06:12.979Z</time>
      </trkpt>
      <trkpt lat="45.93958" lon="4.7952">
        <ele>197.5</ele>
        <time>2015-11-11T12:06:13.963Z</time>
      </trkpt>
      <trkpt lat="45.93958" lon="4.7951">
        <ele>197.399993896</ele>
        <time>2015-11-11T12:06:14.981Z</time>
      </trkpt>
      <trkpt lat="45.93958" lon="4.795">
        <ele>197.199996948</ele>
        <time>2015-11-11T12:06:15.963Z</time>
      </trkpt>
      <trkpt lat="45.93958" lon="4.79489">
        <ele>197</ele>
        <time>2015-11-11T12:06:16.979Z</time>
      </trkpt>
      <trkpt lat="45.93958" lon="4.79479">
        <ele>196.800003052</ele>
        <time>2015-11-11T12:06:17.962Z</time>
      </trkpt>
      <trkpt lat="45.93958" lon="4.79468">
        <ele>196.5</ele>
        <time>2015-11-11T12:06:18.992Z</time>
      </trkpt>
      <trkpt lat="45.93957" lon="4.79458">
        <ele>196.5</ele>
        <time>2015-11-11T12:06:19.962Z</time>
      </trkpt>
      <trkpt lat="45.93957" lon="4.79447">
        <ele>196</ele>
        <time>2015-11-11T12:06:20.981Z</time>
      </trkpt>
      <trkpt lat="45.93957" lon="4.79437">
        <ele>195.600006104</ele>
        <time>2015-11-11T12:06:21.962Z</time>
      </trkpt>
      <trkpt lat="45.93957" lon="4.79427">
        <ele>194.800003052</ele>
        <time>2015-11-11T12:06:22.979Z</time>
      </trkpt>
      <trkpt lat="45.93957" lon="4.79416">
        <ele>194.5</ele>
        <time>2015-11-11T12:06:23.962Z</time>
      </trkpt>
      <trkpt lat="45.93957" lon="4.79405">
        <ele>194.199996948</ele>
        <time>2015-11-11T12:06:24.987Z</time>
      </trkpt>
      <trkpt lat="45.93957" lon="4.79395">
        <ele>194</ele>
        <time>2015-11-11T12:06:25.961Z</time>
      </trkpt>
      <trkpt lat="45.93958" lon="4.79383">
        <ele>193.600006104</ele>
        <time>2015-11-11T12:06:26.981Z</time>
      </trkpt>
      <trkpt lat="45.93958" lon="4.79371">
        <ele>193.5</ele>
        <time>2015-11-11T12:06:27.961Z</time>
      </trkpt>
      <trkpt lat="45.93958" lon="4.7936">
        <ele>193.100006104</ele>
        <time>2015-11-11T12:06:28.979Z</time>
      </trkpt>
      <trkpt lat="45.93957" lon="4.79348">
        <ele>193</ele>
        <time>2015-11-11T12:06:29.962Z</time>
      </trkpt>
      <trkpt lat="45.93957" lon="4.79336">
        <ele>192.5</ele>
        <time>2015-11-11T12:06:30.981Z</time>
      </trkpt>
      <trkpt lat="45.93956" lon="4.79324">
        <ele>191.800003052</ele>
        <time>2015-11-11T12:06:31.961Z</time>
      </trkpt>
      <trkpt lat="45.93956" lon="4.79312">
        <ele>190.800003052</ele>
        <time>2015-11-11T12:06:32.981Z</time>
      </trkpt>
      <trkpt lat="45.93956" lon="4.79301">
        <ele>190.699996948</ele>
        <time>2015-11-11T12:06:33.961Z</time>
      </trkpt>
      <trkpt lat="45.93955" lon="4.7929">
        <ele>191.300003052</ele>
        <time>2015-11-11T12:06:34.991Z</time>
      </trkpt>
      <trkpt lat="45.93954" lon="4.79279">
        <ele>190.699996948</ele>
        <time>2015-11-11T12:06:35.961Z</time>
      </trkpt>
      <trkpt lat="45.93954" lon="4.79268">
        <ele>190.600006104</ele>
        <time>2015-11-11T12:06:36.976Z</time>
      </trkpt>
      <trkpt lat="45.93955" lon="4.79257">
        <ele>190.699996948</ele>
        <time>2015-11-11T12:06:37.962Z</time>
      </trkpt>
      <trkpt lat="45.93955" lon="4.79246">
        <ele>191.100006104</ele>
        <time>2015-11-11T12:06:38.981Z</time>
      </trkpt>
      <trkpt lat="45.93956" lon="4.79235">
        <ele>190.800003052</ele>
        <time>2015-11-11T12:06:39.964Z</time>
      </trkpt>
      <trkpt lat="45.93956" lon="4.79225">
        <ele>190.600006104</ele>
        <time>2015-11-11T12:06:40.978Z</time>
      </trkpt>
      <trkpt lat="45.93956" lon="4.79215">
        <ele>190.399993896</ele>
        <time>2015-11-11T12:06:41.961Z</time>
      </trkpt>
      <trkpt lat="45.93955" lon="4.79204">
        <ele>190.100006104</ele>
        <time>2015-11-11T12:06:42.977Z</time>
      </trkpt>
      <trkpt lat="45.93954" lon="4.79194">
        <ele>190.300003052</ele>
        <time>2015-11-11T12:06:43.962Z</time>
      </trkpt>
      <trkpt lat="45.93954" lon="4.79184">
        <ele>190.199996948</ele>
        <time>2015-11-11T12:06:44.98Z</time>
      </trkpt>
      <trkpt lat="45.93954" lon="4.79174">
        <ele>190</ele>
        <time>2015-11-11T12:06:45.961Z</time>
      </trkpt>
      <trkpt lat="45.93954" lon="4.79163">
        <ele>190.300003052</ele>
        <time>2015-11-11T12:06:46.978Z</time>
      </trkpt>
      <trkpt lat="45.93954" lon="4.79154">
        <ele>190</ele>
        <time>2015-11-11T12:06:47.961Z</time>
      </trkpt>
      <trkpt lat="45.93954" lon="4.79144">
        <ele>189.899993896</ele>
        <time>2015-11-11T12:06:48.976Z</time>
      </trkpt>
      <trkpt lat="45.93954" lon="4.79133">
        <ele>188.899993896</ele>
        <time>2015-11-11T12:06:49.961Z</time>
      </trkpt>
      <trkpt lat="45.93954" lon="4.79123">
        <ele>188.5</ele>
        <time>2015-11-11T12:06:50.992Z</time>
      </trkpt>
      <trkpt lat="45.93953" lon="4.79112">
        <ele>188</ele>
        <time>2015-11-11T12:06:51.961Z</time>
      </trkpt>
      <trkpt lat="45.93953" lon="4.791">
        <ele>187.399993896</ele>
        <time>2015-11-11T12:06:52.978Z</time>
      </trkpt>
      <trkpt lat="45.93953" lon="4.79089">
        <ele>187.100006104</ele>
        <time>2015-11-11T12:06:53.961Z</time>
      </trkpt>
      <trkpt lat="45.93952" lon="4.79077">
        <ele>187</ele>
        <time>2015-11-11T12:06:55.009Z</time>
      </trkpt>
      <trkpt lat="45.93952" lon="4.79066">
        <ele>186.5</ele>
        <time>2015-11-11T12:06:55.962Z</time>
      </trkpt>
      <trkpt lat="45.93952" lon="4.79055">
        <ele>186.100006104</ele>
        <time>2015-11-11T12:06:56.983Z</time>
      </trkpt>
      <trkpt lat="45.93952" lon="4.79044">
        <ele>185.800003052</ele>
        <time>2015-11-11T12:06:57.961Z</time>
      </trkpt>
      <trkpt lat="45.93951" lon="4.79033">
        <ele>186.100006104</ele>
        <time>2015-11-11T12:06:58.977Z</time>
      </trkpt>
      <trkpt lat="45.9395" lon="4.79022">
        <ele>186.100006104</ele>
        <time>2015-11-11T12:06:59.961Z</time>
      </trkpt>
      <trkpt lat="45.9395" lon="4.79011">
        <ele>186.5</ele>
        <time>2015-11-11T12:07:01.001Z</time>
      </trkpt>
      <trkpt lat="45.93949" lon="4.79001">
        <ele>186.300003052</ele>
        <time>2015-11-11T12:07:01.961Z</time>
      </trkpt>
      <trkpt lat="45.93948" lon="4.7899">
        <ele>185.899993896</ele>
        <time>2015-11-11T12:07:02.979Z</time>
      </trkpt>
      <trkpt lat="45.93947" lon="4.7898">
        <ele>185.699996948</ele>
        <time>2015-11-11T12:07:03.961Z</time>
      </trkpt>
      <trkpt lat="45.93947" lon="4.7897">
        <ele>186</ele>
        <time>2015-11-11T12:07:04.979Z</time>
      </trkpt>
      <trkpt lat="45.93947" lon="4.78961">
        <ele>186.399993896</ele>
        <time>2015-11-11T12:07:05.961Z</time>
      </trkpt>
      <trkpt lat="45.93946" lon="4.78951">
        <ele>186.699996948</ele>
        <time>2015-11-11T12:07:07.028Z</time>
      </trkpt>
      <trkpt lat="45.93946" lon="4.78941">
        <ele>186.800003052</ele>
        <time>2015-11-11T12:07:07.963Z</time>
      </trkpt>
      <trkpt lat="45.93945" lon="4.78932">
        <ele>186.399993896</ele>
        <time>2015-11-11T12:07:08.98Z</time>
      </trkpt>
      <trkpt lat="45.93944" lon="4.78922">
        <ele>186.199996948</ele>
        <time>2015-11-11T12:07:09.962Z</time>
      </trkpt>
      <trkpt lat="45.93943" lon="4.78912">
        <ele>185.899993896</ele>
        <time>2015-11-11T12:07:10.977Z</time>
      </trkpt>
      <trkpt lat="45.93943" lon="4.78902">
        <ele>186.100006104</ele>
        <time>2015-11-11T12:07:11.961Z</time>
      </trkpt>
      <trkpt lat="45.93942" lon="4.78893">
        <ele>185.899993896</ele>
        <time>2015-11-11T12:07:12.976Z</time>
      </trkpt>
      <trkpt lat="45.93941" lon="4.78883">
        <ele>185.699996948</ele>
        <time>2015-11-11T12:07:13.961Z</time>
      </trkpt>
      <trkpt lat="45.93941" lon="4.78874">
        <ele>185.699996948</ele>
        <time>2015-11-11T12:07:14.981Z</time>
      </trkpt>
      <trkpt lat="45.9394" lon="4.78865">
        <ele>185.699996948</ele>
        <time>2015-11-11T12:07:15.962Z</time>
      </trkpt>
      <trkpt lat="45.9394" lon="4.78855">
        <ele>185.800003052</ele>
        <time>2015-11-11T12:07:17.004Z</time>
      </trkpt>
      <trkpt lat="45.93939" lon="4.78846">
        <ele>185.600006104</ele>
        <time>2015-11-11T12:07:17.961Z</time>
      </trkpt>
      <trkpt lat="45.93939" lon="4.78836">
        <ele>186.199996948</ele>
        <time>2015-11-11T12:07:18.976Z</time>
      </trkpt>
      <trkpt lat="45.93939" lon="4.78826">
        <ele>186.199996948</ele>
        <time>2015-11-11T12:07:19.961Z</time>
      </trkpt>
      <trkpt lat="45.93939" lon="4.78816">
        <ele>186.699996948</ele>
        <time>2015-11-11T12:07:21.008Z</time>
      </trkpt>
      <trkpt lat="45.93939" lon="4.78806">
        <ele>186.699996948</ele>
        <time>2015-11-11T12:07:21.962Z</time>
      </trkpt>
      <trkpt lat="45.9394" lon="4.78796">
        <ele>186.699996948</ele>
        <time>2015-11-11T12:07:22.992Z</time>
      </trkpt>
      <trkpt lat="45.9394" lon="4.78786">
        <ele>186.899993896</ele>
        <time>2015-11-11T12:07:23.961Z</time>
      </trkpt>
      <trkpt lat="45.93939" lon="4.78777">
        <ele>187</ele>
        <time>2015-11-11T12:07:24.976Z</time>
      </trkpt>
      <trkpt lat="45.93939" lon="4.78769">
        <ele>187</ele>
        <time>2015-11-11T12:07:25.962Z</time>
      </trkpt>
      <trkpt lat="45.93939" lon="4.78761">
        <ele>187.300003052</ele>
        <time>2015-11-11T12:07:26.981Z</time>
      </trkpt>
      <trkpt lat="45.93939" lon="4.78753">
        <ele>187.5</ele>
        <time>2015-11-11T12:07:27.961Z</time>
      </trkpt>
      <trkpt lat="45.9394" lon="4.78746">
        <ele>187.899993896</ele>
        <time>2015-11-11T12:07:28.979Z</time>
      </trkpt>
      <trkpt lat="45.9394" lon="4.78738">
        <ele>188</ele>
        <time>2015-11-11T12:07:29.962Z</time>
      </trkpt>
      <trkpt lat="45.9394" lon="4.78731">
        <ele>188.399993896</ele>
        <time>2015-11-11T12:07:30.976Z</time>
      </trkpt>
      <trkpt lat="45.93939" lon="4.78722">
        <ele>189.300003052</ele>
        <time>2015-11-11T12:07:31.961Z</time>
      </trkpt>
      <trkpt lat="45.93939" lon="4.78715">
        <ele>189.600006104</ele>
        <time>2015-11-11T12:07:32.979Z</time>
      </trkpt>
      <trkpt lat="45.93939" lon="4.78708">
        <ele>189.899993896</ele>
        <time>2015-11-11T12:07:33.961Z</time>
      </trkpt>
      <trkpt lat="45.93939" lon="4.787">
        <ele>190.100006104</ele>
        <time>2015-11-11T12:07:34.977Z</time>
      </trkpt>
      <trkpt lat="45.93938" lon="4.78693">
        <ele>190.600006104</ele>
        <time>2015-11-11T12:07:35.961Z</time>
      </trkpt>
      <trkpt lat="45.93939" lon="4.78685">
        <ele>190.199996948</ele>
        <time>2015-11-11T12:07:36.976Z</time>
      </trkpt>
      <trkpt lat="45.9394" lon="4.78678">
        <ele>189.899993896</ele>
        <time>2015-11-11T12:07:37.961Z</time>
      </trkpt>
      <trkpt lat="45.9394" lon="4.78671">
        <ele>189.800003052</ele>
        <time>2015-11-11T12:07:38.997Z</time>
      </trkpt>
      <trkpt lat="45.9394" lon="4.78665">
        <ele>189.800003052</ele>
        <time>2015-11-11T12:07:39.963Z</time>
      </trkpt>
      <trkpt lat="45.9394" lon="4.78657">
        <ele>190</ele>
        <time>2015-11-11T12:07:40.977Z</time>
      </trkpt>
      <trkpt lat="45.9394" lon="4.78649">
        <ele>190.199996948</ele>
        <time>2015-11-11T12:07:41.961Z</time>
      </trkpt>
      <trkpt lat="45.9394" lon="4.78641">
        <ele>190.199996948</ele>
        <time>2015-11-11T12:07:42.976Z</time>
      </trkpt>
      <trkpt lat="45.93939" lon="4.78634">
        <ele>190.399993896</ele>
        <time>2015-11-11T12:07:43.962Z</time>
      </trkpt>
      <trkpt lat="45.93939" lon="4.78626">
        <ele>190.699996948</ele>
        <time>2015-11-11T12:07:44.98Z</time>
      </trkpt>
      <trkpt lat="45.9394" lon="4.78618">
        <ele>191.100006104</ele>
        <time>2015-11-11T12:07:45.961Z</time>
      </trkpt>
      <trkpt lat="45.93939" lon="4.78611">
        <ele>191.100006104</ele>
        <time>2015-11-11T12:07:46.977Z</time>
      </trkpt>
      <trkpt lat="45.93938" lon="4.78604">
        <ele>191</ele>
        <time>2015-11-11T12:07:47.961Z</time>
      </trkpt>
      <trkpt lat="45.93937" lon="4.78592">
        <ele>191.5</ele>
        <time>2015-11-11T12:07:49.976Z</time>
      </trkpt>
      <trkpt lat="45.93937" lon="4.78586">
        <ele>191.399993896</ele>
        <time>2015-11-11T12:07:50.964Z</time>
      </trkpt>
      <trkpt lat="45.93937" lon="4.78579">
        <ele>191.699996948</ele>
        <time>2015-11-11T12:07:52.093Z</time>
      </trkpt>
      <trkpt lat="45.93936" lon="4.78572">
        <ele>191.300003052</ele>
        <time>2015-11-11T12:07:52.962Z</time>
      </trkpt>
      <trkpt lat="45.93935" lon="4.7856">
        <ele>191</ele>
        <time>2015-11-11T12:07:54.977Z</time>
      </trkpt>
      <trkpt lat="45.93936" lon="4.78554">
        <ele>191.199996948</ele>
        <time>2015-11-11T12:07:55.961Z</time>
      </trkpt>
      <trkpt lat="45.93937" lon="4.78543">
        <ele>191.600006104</ele>
        <time>2015-11-11T12:07:57.975Z</time>
      </trkpt>
      <trkpt lat="45.93937" lon="4.78537">
        <ele>191.399993896</ele>
        <time>2015-11-11T12:07:58.964Z</time>
      </trkpt>
      <trkpt lat="45.93937" lon="4.78524">
        <ele>191.600006104</ele>
        <time>2015-11-11T12:08:00.976Z</time>
      </trkpt>
      <trkpt lat="45.93938" lon="4.78518">
        <ele>191.600006104</ele>
        <time>2015-11-11T12:08:01.961Z</time>
      </trkpt>
      <trkpt lat="45.93938" lon="4.78511">
        <ele>191.5</ele>
        <time>2015-11-11T12:08:02.98Z</time>
      </trkpt>
      <trkpt lat="45.93939" lon="4.78504">
        <ele>191.399993896</ele>
        <time>2015-11-11T12:08:03.961Z</time>
      </trkpt>
      <trkpt lat="45.9394" lon="4.78492">
        <ele>191.600006104</ele>
        <time>2015-11-11T12:08:05.977Z</time>
      </trkpt>
      <trkpt lat="45.93941" lon="4.78485">
        <ele>191.699996948</ele>
        <time>2015-11-11T12:08:06.961Z</time>
      </trkpt>
      <trkpt lat="45.93943" lon="4.78473">
        <ele>191.5</ele>
        <time>2015-11-11T12:08:08.979Z</time>
      </trkpt>
      <trkpt lat="45.93944" lon="4.78467">
        <ele>191.399993896</ele>
        <time>2015-11-11T12:08:09.961Z</time>
      </trkpt>
      <trkpt lat="45.93944" lon="4.78454">
        <ele>191.699996948</ele>
        <time>2015-11-11T12:08:11.976Z</time>
      </trkpt>
      <trkpt lat="45.93945" lon="4.78447">
        <ele>191.899993896</ele>
        <time>2015-11-11T12:08:12.96Z</time>
      </trkpt>
      <trkpt lat="45.93946" lon="4.78441">
        <ele>192.199996948</ele>
        <time>2015-11-11T12:08:13.976Z</time>
      </trkpt>
      <trkpt lat="45.93947" lon="4.78435">
        <ele>192.699996948</ele>
        <time>2015-11-11T12:08:14.964Z</time>
      </trkpt>
      <trkpt lat="45.93947" lon="4.78428">
        <ele>192.699996948</ele>
        <time>2015-11-11T12:08:15.976Z</time>
      </trkpt>
      <trkpt lat="45.93948" lon="4.7842">
        <ele>192.5</ele>
        <time>2015-11-11T12:08:16.962Z</time>
      </trkpt>
      <trkpt lat="45.93949" lon="4.78413">
        <ele>192.600006104</ele>
        <time>2015-11-11T12:08:17.976Z</time>
      </trkpt>
      <trkpt lat="45.9395" lon="4.78405">
        <ele>192.800003052</ele>
        <time>2015-11-11T12:08:18.961Z</time>
      </trkpt>
      <trkpt lat="45.93952" lon="4.78398">
        <ele>193.300003052</ele>
        <time>2015-11-11T12:08:19.976Z</time>
      </trkpt>
      <trkpt lat="45.93953" lon="4.78392">
        <ele>193.100006104</ele>
        <time>2015-11-11T12:08:20.964Z</time>
      </trkpt>
      <trkpt lat="45.93954" lon="4.78385">
        <ele>192.899993896</ele>
        <time>2015-11-11T12:08:21.975Z</time>
      </trkpt>
      <trkpt lat="45.93955" lon="4.78377">
        <ele>193.100006104</ele>
        <time>2015-11-11T12:08:22.962Z</time>
      </trkpt>
      <trkpt lat="45.93956" lon="4.7837">
        <ele>193.800003052</ele>
        <time>2015-11-11T12:08:23.975Z</time>
      </trkpt>
      <trkpt lat="45.93957" lon="4.78363">
        <ele>194.5</ele>
        <time>2015-11-11T12:08:24.962Z</time>
      </trkpt>
      <trkpt lat="45.93958" lon="4.78356">
        <ele>194.5</ele>
        <time>2015-11-11T12:08:25.976Z</time>
      </trkpt>
      <trkpt lat="45.93959" lon="4.7835">
        <ele>194.600006104</ele>
        <time>2015-11-11T12:08:26.964Z</time>
      </trkpt>
      <trkpt lat="45.9396" lon="4.78343">
        <ele>194.899993896</ele>
        <time>2015-11-11T12:08:27.975Z</time>
      </trkpt>
      <trkpt lat="45.93961" lon="4.78336">
        <ele>195.399993896</ele>
        <time>2015-11-11T12:08:28.963Z</time>
      </trkpt>
      <trkpt lat="45.93962" lon="4.78329">
        <ele>195.699996948</ele>
        <time>2015-11-11T12:08:29.975Z</time>
      </trkpt>
      <trkpt lat="45.93963" lon="4.78323">
        <ele>196</ele>
        <time>2015-11-11T12:08:30.961Z</time>
      </trkpt>
      <trkpt lat="45.93964" lon="4.78317">
        <ele>196.300003052</ele>
        <time>2015-11-11T12:08:31.989Z</time>
      </trkpt>
      <trkpt lat="45.93965" lon="4.7831">
        <ele>196.699996948</ele>
        <time>2015-11-11T12:08:32.964Z</time>
      </trkpt>
      <trkpt lat="45.93966" lon="4.78299">
        <ele>197</ele>
        <time>2015-11-11T12:08:34.977Z</time>
      </trkpt>
      <trkpt lat="45.93967" lon="4.78293">
        <ele>197.600006104</ele>
        <time>2015-11-11T12:08:35.961Z</time>
      </trkpt>
      <trkpt lat="45.93968" lon="4.78281">
        <ele>197.800003052</ele>
        <time>2015-11-11T12:08:37.977Z</time>
      </trkpt>
      <trkpt lat="45.93969" lon="4.78274">
        <ele>198.199996948</ele>
        <time>2015-11-11T12:08:38.964Z</time>
      </trkpt>
      <trkpt lat="45.9397" lon="4.78268">
        <ele>198.399993896</ele>
        <time>2015-11-11T12:08:39.978Z</time>
      </trkpt>
      <trkpt lat="45.93971" lon="4.78261">
        <ele>198.800003052</ele>
        <time>2015-11-11T12:08:40.962Z</time>
      </trkpt>
      <trkpt lat="45.93972" lon="4.78254">
        <ele>199.100006104</ele>
        <time>2015-11-11T12:08:42.01Z</time>
      </trkpt>
      <trkpt lat="45.93972" lon="4.78247">
        <ele>199.5</ele>
        <time>2015-11-11T12:08:42.961Z</time>
      </trkpt>
      <trkpt lat="45.93974" lon="4.78234">
        <ele>200</ele>
        <time>2015-11-11T12:08:44.98Z</time>
      </trkpt>
      <trkpt lat="45.93974" lon="4.78229">
        <ele>200.300003052</ele>
        <time>2015-11-11T12:08:45.961Z</time>
      </trkpt>
      <trkpt lat="45.93975" lon="4.78219">
        <ele>201.300003052</ele>
        <time>2015-11-11T12:08:47.99Z</time>
      </trkpt>
      <trkpt lat="45.93976" lon="4.78214">
        <ele>201.5</ele>
        <time>2015-11-11T12:08:48.961Z</time>
      </trkpt>
      <trkpt lat="45.93977" lon="4.78205">
        <ele>202.199996948</ele>
        <time>2015-11-11T12:08:50.979Z</time>
      </trkpt>
      <trkpt lat="45.93978" lon="4.782">
        <ele>202.699996948</ele>
        <time>2015-11-11T12:08:51.961Z</time>
      </trkpt>
      <trkpt lat="45.9398" lon="4.78191">
        <ele>203</ele>
        <time>2015-11-11T12:08:53.975Z</time>
      </trkpt>
      <trkpt lat="45.93982" lon="4.78187">
        <ele>203.300003052</ele>
        <time>2015-11-11T12:08:54.96Z</time>
      </trkpt>
      <trkpt lat="45.93985" lon="4.78178">
        <ele>204.199996948</ele>
        <time>2015-11-11T12:08:56.979Z</time>
      </trkpt>
      <trkpt lat="45.93986" lon="4.78174">
        <ele>204.5</ele>
        <time>2015-11-11T12:08:57.961Z</time>
      </trkpt>
      <trkpt lat="45.9399" lon="4.78163">
        <ele>205.199996948</ele>
        <time>2015-11-11T12:09:00.975Z</time>
      </trkpt>
      <trkpt lat="45.93991" lon="4.78159">
        <ele>205.600006104</ele>
        <time>2015-11-11T12:09:01.962Z</time>
      </trkpt>
      <trkpt lat="45.93998" lon="4.78154">
        <ele>202.699996948</ele>
        <time>2015-11-11T12:09:05.976Z</time>
      </trkpt>
      <trkpt lat="45.93999" lon="4.78152">
        <ele>202.699996948</ele>
        <time>2015-11-11T12:09:06.96Z</time>
      </trkpt>
      <trkpt lat="45.94002" lon="4.7814">
        <ele>203.100006104</ele>
        <time>2015-11-11T12:09:09.976Z</time>
      </trkpt>
      <trkpt lat="45.94004" lon="4.78137">
        <ele>203.300003052</ele>
        <time>2015-11-11T12:09:10.962Z</time>
      </trkpt>
      <trkpt lat="45.94006" lon="4.78124">
        <ele>203.5</ele>
        <time>2015-11-11T12:09:12.976Z</time>
      </trkpt>
      <trkpt lat="45.94008" lon="4.78118">
        <ele>203.800003052</ele>
        <time>2015-11-11T12:09:13.961Z</time>
      </trkpt>
      <trkpt lat="45.94012" lon="4.78107">
        <ele>204.399993896</ele>
        <time>2015-11-11T12:09:15.975Z</time>
      </trkpt>
      <trkpt lat="45.94014" lon="4.78102">
        <ele>204.5</ele>
        <time>2015-11-11T12:09:16.963Z</time>
      </trkpt>
      <trkpt lat="45.94016" lon="4.78093">
        <ele>204.899993896</ele>
        <time>2015-11-11T12:09:18.976Z</time>
      </trkpt>
      <trkpt lat="45.94018" lon="4.78088">
        <ele>205.300003052</ele>
        <time>2015-11-11T12:09:19.961Z</time>
      </trkpt>
      <trkpt lat="45.9402" lon="4.78078">
        <ele>205.699996948</ele>
        <time>2015-11-11T12:09:21.976Z</time>
      </trkpt>
      <trkpt lat="45.94021" lon="4.78072">
        <ele>206</ele>
        <time>2015-11-11T12:09:22.962Z</time>
      </trkpt>
      <trkpt lat="45.94021" lon="4.78063">
        <ele>206.600006104</ele>
        <time>2015-11-11T12:09:24.975Z</time>
      </trkpt>
      <trkpt lat="45.94022" lon="4.78058">
        <ele>206.899993896</ele>
        <time>2015-11-11T12:09:25.961Z</time>
      </trkpt>
      <trkpt lat="45.94024" lon="4.78046">
        <ele>208.5</ele>
        <time>2015-11-11T12:09:28.977Z</time>
      </trkpt>
      <trkpt lat="45.94025" lon="4.78043">
        <ele>208.899993896</ele>
        <time>2015-11-11T12:09:29.96Z</time>
      </trkpt>
      <trkpt lat="45.94028" lon="4.78032">
        <ele>208</ele>
        <time>2015-11-11T12:09:33.975Z</time>
      </trkpt>
      <trkpt lat="45.94028" lon="4.78029">
        <ele>207.300003052</ele>
        <time>2015-11-11T12:09:34.962Z</time>
      </trkpt>
      <trkpt lat="45.9403" lon="4.78018">
        <ele>205.300003052</ele>
        <time>2015-11-11T12:09:37.976Z</time>
      </trkpt>
      <trkpt lat="45.94029" lon="4.78015">
        <ele>205</ele>
        <time>2015-11-11T12:09:38.963Z</time>
      </trkpt>
      <trkpt lat="45.94029" lon="4.78011">
        <ele>204.699996948</ele>
        <time>2015-11-11T12:09:40.976Z</time>
      </trkpt>
      <trkpt lat="45.94029" lon="4.7801">
        <ele>204.399993896</ele>
        <time>2015-11-11T12:09:41.961Z</time>
      </trkpt>
      <trkpt lat="45.94028" lon="4.78004">
        <ele>203.699996948</ele>
        <time>2015-11-11T12:09:47.976Z</time>
      </trkpt>
      <trkpt lat="45.9403" lon="4.77999">
        <ele>203.199996948</ele>
        <time>2015-11-11T12:09:48.961Z</time>
      </trkpt>
      <trkpt lat="45.94032" lon="4.7799">
        <ele>202.699996948</ele>
        <time>2015-11-11T12:09:50.978Z</time>
      </trkpt>
      <trkpt lat="45.94032" lon="4.77985">
        <ele>202.5</ele>
        <time>2015-11-11T12:09:51.96Z</time>
      </trkpt>
      <trkpt lat="45.94033" lon="4.77973">
        <ele>202</ele>
        <time>2015-11-11T12:09:53.975Z</time>
      </trkpt>
      <trkpt lat="45.94033" lon="4.77968">
        <ele>201.800003052</ele>
        <time>2015-11-11T12:09:54.962Z</time>
      </trkpt>
      <trkpt lat="45.94033" lon="4.77958">
        <ele>201.600006104</ele>
        <time>2015-11-11T12:09:57.977Z</time>
      </trkpt>
      <trkpt lat="45.94033" lon="4.77957">
        <ele>201.800003052</ele>
        <time>2015-11-11T12:09:58.963Z</time>
      </trkpt>
      <trkpt lat="45.94034" lon="4.77951">
        <ele>202.100006104</ele>
        <time>2015-11-11T12:10:04.976Z</time>
      </trkpt>
      <trkpt lat="45.94034" lon="4.77947">
        <ele>201.800003052</ele>
        <time>2015-11-11T12:10:05.974Z</time>
      </trkpt>
      <trkpt lat="45.94026" lon="4.77944">
        <ele>200.899993896</ele>
        <time>2015-11-11T12:10:10.009Z</time>
      </trkpt>
      <trkpt lat="45.94023" lon="4.77942">
        <ele>200.699996948</ele>
        <time>2015-11-11T12:10:10.962Z</time>
      </trkpt>
      <trkpt lat="45.94019" lon="4.77936">
        <ele>200.300003052</ele>
        <time>2015-11-11T12:10:12.975Z</time>
      </trkpt>
      <trkpt lat="45.94018" lon="4.77932">
        <ele>200.100006104</ele>
        <time>2015-11-11T12:10:13.96Z</time>
      </trkpt>
      <trkpt lat="45.94011" lon="4.77924">
        <ele>199.399993896</ele>
        <time>2015-11-11T12:10:15.975Z</time>
      </trkpt>
      <trkpt lat="45.94006" lon="4.77924">
        <ele>199.199996948</ele>
        <time>2015-11-11T12:10:16.962Z</time>
      </trkpt>
      <trkpt lat="45.94" lon="4.77925">
        <ele>198.5</ele>
        <time>2015-11-11T12:10:17.976Z</time>
      </trkpt>
      <trkpt lat="45.93993" lon="4.77929">
        <ele>197.300003052</ele>
        <time>2015-11-11T12:10:18.973Z</time>
      </trkpt>
      <trkpt lat="45.93993" lon="4.77929">
        <ele>197.300003052</ele>
        <time>2015-11-11T12:10:18.99Z</time>
      </trkpt>
      <trkpt lat="45.93984" lon="4.77934">
        <ele>196.600006104</ele>
        <time>2015-11-11T12:10:19.96Z</time>
      </trkpt>
      <trkpt lat="45.93976" lon="4.77938">
        <ele>195.899993896</ele>
        <time>2015-11-11T12:10:20.978Z</time>
      </trkpt>
      <trkpt lat="45.9397" lon="4.77942">
        <ele>195</ele>
        <time>2015-11-11T12:10:21.96Z</time>
      </trkpt>
      <trkpt lat="45.9397" lon="4.77942">
        <ele>195</ele>
        <time>2015-11-11T12:10:21.977Z</time>
      </trkpt>
      <trkpt lat="45.93962" lon="4.77947">
        <ele>193.800003052</ele>
        <time>2015-11-11T12:10:22.962Z</time>
      </trkpt>
      <trkpt lat="45.93962" lon="4.77947">
        <ele>193.800003052</ele>
        <time>2015-11-11T12:10:22.978Z</time>
      </trkpt>
      <trkpt lat="45.93953" lon="4.77953">
        <ele>192.899993896</ele>
        <time>2015-11-11T12:10:23.96Z</time>
      </trkpt>
      <trkpt lat="45.93953" lon="4.77953">
        <ele>192.899993896</ele>
        <time>2015-11-11T12:10:23.977Z</time>
      </trkpt>
      <trkpt lat="45.93945" lon="4.77959">
        <ele>192</ele>
        <time>2015-11-11T12:10:24.961Z</time>
      </trkpt>
      <trkpt lat="45.93945" lon="4.77959">
        <ele>192</ele>
        <time>2015-11-11T12:10:25.102Z</time>
      </trkpt>
      <trkpt lat="45.93936" lon="4.77965">
        <ele>190.800003052</ele>
        <time>2015-11-11T12:10:25.961Z</time>
      </trkpt>
      <trkpt lat="45.93936" lon="4.77965">
        <ele>190.800003052</ele>
        <time>2015-11-11T12:10:25.977Z</time>
      </trkpt>
      <trkpt lat="45.93927" lon="4.77971">
        <ele>189.699996948</ele>
        <time>2015-11-11T12:10:26.964Z</time>
      </trkpt>
      <trkpt lat="45.9392" lon="4.77978">
        <ele>188.600006104</ele>
        <time>2015-11-11T12:10:27.974Z</time>
      </trkpt>
      <trkpt lat="45.93913" lon="4.77983">
        <ele>187.5</ele>
        <time>2015-11-11T12:10:28.962Z</time>
      </trkpt>
      <trkpt lat="45.93908" lon="4.77987">
        <ele>186.600006104</ele>
        <time>2015-11-11T12:10:29.975Z</time>
      </trkpt>
      <trkpt lat="45.93903" lon="4.77989">
        <ele>185.699996948</ele>
        <time>2015-11-11T12:10:30.999Z</time>
      </trkpt>
      <trkpt lat="45.93896" lon="4.77993">
        <ele>183.100006104</ele>
        <time>2015-11-11T12:10:33.975Z</time>
      </trkpt>
      <trkpt lat="45.93895" lon="4.77996">
        <ele>182.399993896</ele>
        <time>2015-11-11T12:10:34.977Z</time>
      </trkpt>
      <trkpt lat="45.93891" lon="4.78003">
        <ele>181.300003052</ele>
        <time>2015-11-11T12:10:36.976Z</time>
      </trkpt>
      <trkpt lat="45.93888" lon="4.78007">
        <ele>180</ele>
        <time>2015-11-11T12:10:37.961Z</time>
      </trkpt>
      <trkpt lat="45.93883" lon="4.78011">
        <ele>179.600006104</ele>
        <time>2015-11-11T12:10:38.979Z</time>
      </trkpt>
      <trkpt lat="45.93878" lon="4.78013">
        <ele>179.100006104</ele>
        <time>2015-11-11T12:10:39.962Z</time>
      </trkpt>
      <trkpt lat="45.93872" lon="4.78011">
        <ele>178.699996948</ele>
        <time>2015-11-11T12:10:40.976Z</time>
      </trkpt>
      <trkpt lat="45.93865" lon="4.78006">
        <ele>178.300003052</ele>
        <time>2015-11-11T12:10:41.96Z</time>
      </trkpt>
      <trkpt lat="45.93859" lon="4.78001">
        <ele>177.800003052</ele>
        <time>2015-11-11T12:10:42.975Z</time>
      </trkpt>
      <trkpt lat="45.93854" lon="4.77996">
        <ele>177.300003052</ele>
        <time>2015-11-11T12:10:43.96Z</time>
      </trkpt>
      <trkpt lat="45.93849" lon="4.77992">
        <ele>176.699996948</ele>
        <time>2015-11-11T12:10:45.008Z</time>
      </trkpt>
      <trkpt lat="45.93843" lon="4.77987">
        <ele>176.600006104</ele>
        <time>2015-11-11T12:10:45.96Z</time>
      </trkpt>
      <trkpt lat="45.93839" lon="4.77983">
        <ele>176.300003052</ele>
        <time>2015-11-11T12:10:46.976Z</time>
      </trkpt>
      <trkpt lat="45.93835" lon="4.77977">
        <ele>177</ele>
        <time>2015-11-11T12:10:47.96Z</time>
      </trkpt>
      <trkpt lat="45.93831" lon="4.77971">
        <ele>176.600006104</ele>
        <time>2015-11-11T12:10:48.976Z</time>
      </trkpt>
      <trkpt lat="45.93828" lon="4.77966">
        <ele>176.800003052</ele>
        <time>2015-11-11T12:10:49.961Z</time>
      </trkpt>
      <trkpt lat="45.93825" lon="4.7796">
        <ele>176.800003052</ele>
        <time>2015-11-11T12:10:50.991Z</time>
      </trkpt>
      <trkpt lat="45.93821" lon="4.77955">
        <ele>177</ele>
        <time>2015-11-11T12:10:51.96Z</time>
      </trkpt>
      <trkpt lat="45.93817" lon="4.7795">
        <ele>177.199996948</ele>
        <time>2015-11-11T12:10:52.976Z</time>
      </trkpt>
      <trkpt lat="45.93814" lon="4.77945">
        <ele>176.899993896</ele>
        <time>2015-11-11T12:10:53.96Z</time>
      </trkpt>
      <trkpt lat="45.9381" lon="4.77941">
        <ele>177.100006104</ele>
        <time>2015-11-11T12:10:54.978Z</time>
      </trkpt>
      <trkpt lat="45.93807" lon="4.77936">
        <ele>176.899993896</ele>
        <time>2015-11-11T12:10:55.961Z</time>
      </trkpt>
      <trkpt lat="45.93803" lon="4.77932">
        <ele>176.699996948</ele>
        <time>2015-11-11T12:10:56.978Z</time>
      </trkpt>
      <trkpt lat="45.938" lon="4.77927">
        <ele>176.699996948</ele>
        <time>2015-11-11T12:10:57.96Z</time>
      </trkpt>
      <trkpt lat="45.93796" lon="4.77923">
        <ele>176.600006104</ele>
        <time>2015-11-11T12:10:58.976Z</time>
      </trkpt>
      <trkpt lat="45.93792" lon="4.77918">
        <ele>176.699996948</ele>
        <time>2015-11-11T12:10:59.961Z</time>
      </trkpt>
      <trkpt lat="45.93789" lon="4.77914">
        <ele>176.600006104</ele>
        <time>2015-11-11T12:11:00.977Z</time>
      </trkpt>
      <trkpt lat="45.93785" lon="4.77909">
        <ele>176.300003052</ele>
        <time>2015-11-11T12:11:01.961Z</time>
      </trkpt>
      <trkpt lat="45.93782" lon="4.77904">
        <ele>176.300003052</ele>
        <time>2015-11-11T12:11:02.978Z</time>
      </trkpt>
      <trkpt lat="45.93778" lon="4.77899">
        <ele>176.100006104</ele>
        <time>2015-11-11T12:11:03.961Z</time>
      </trkpt>
      <trkpt lat="45.93774" lon="4.77894">
        <ele>175.899993896</ele>
        <time>2015-11-11T12:11:04.976Z</time>
      </trkpt>
      <trkpt lat="45.9377" lon="4.77889">
        <ele>176</ele>
        <time>2015-11-11T12:11:05.96Z</time>
      </trkpt>
      <trkpt lat="45.93766" lon="4.77884">
        <ele>175.899993896</ele>
        <time>2015-11-11T12:11:06.99Z</time>
      </trkpt>
      <trkpt lat="45.93762" lon="4.77879">
        <ele>175.899993896</ele>
        <time>2015-11-11T12:11:07.96Z</time>
      </trkpt>
      <trkpt lat="45.93758" lon="4.77874">
        <ele>175.899993896</ele>
        <time>2015-11-11T12:11:08.977Z</time>
      </trkpt>
      <trkpt lat="45.93754" lon="4.77869">
        <ele>175.800003052</ele>
        <time>2015-11-11T12:11:09.96Z</time>
      </trkpt>
      <trkpt lat="45.9375" lon="4.77863">
        <ele>175.600006104</ele>
        <time>2015-11-11T12:11:10.976Z</time>
      </trkpt>
      <trkpt lat="45.93746" lon="4.77858">
        <ele>175.600006104</ele>
        <time>2015-11-11T12:11:11.96Z</time>
      </trkpt>
      <trkpt lat="45.93741" lon="4.77852">
        <ele>175.300003052</ele>
        <time>2015-11-11T12:11:12.975Z</time>
      </trkpt>
      <trkpt lat="45.93738" lon="4.77847">
        <ele>175.199996948</ele>
        <time>2015-11-11T12:11:13.96Z</time>
      </trkpt>
      <trkpt lat="45.93734" lon="4.77841">
        <ele>175</ele>
        <time>2015-11-11T12:11:14.978Z</time>
      </trkpt>
      <trkpt lat="45.93729" lon="4.77836">
        <ele>174.800003052</ele>
        <time>2015-11-11T12:11:15.96Z</time>
      </trkpt>
      <trkpt lat="45.93725" lon="4.77831">
        <ele>174.600006104</ele>
        <time>2015-11-11T12:11:16.977Z</time>
      </trkpt>
      <trkpt lat="45.93721" lon="4.77826">
        <ele>174.300003052</ele>
        <time>2015-11-11T12:11:17.96Z</time>
      </trkpt>
      <trkpt lat="45.93717" lon="4.77821">
        <ele>174.100006104</ele>
        <time>2015-11-11T12:11:18.975Z</time>
      </trkpt>
      <trkpt lat="45.93713" lon="4.77815">
        <ele>173.800003052</ele>
        <time>2015-11-11T12:11:19.96Z</time>
      </trkpt>
      <trkpt lat="45.93708" lon="4.77809">
        <ele>173.600006104</ele>
        <time>2015-11-11T12:11:20.977Z</time>
      </trkpt>
      <trkpt lat="45.93704" lon="4.77803">
        <ele>173.300003052</ele>
        <time>2015-11-11T12:11:21.96Z</time>
      </trkpt>
      <trkpt lat="45.937" lon="4.77798">
        <ele>173.100006104</ele>
        <time>2015-11-11T12:11:22.99Z</time>
      </trkpt>
      <trkpt lat="45.93695" lon="4.77792">
        <ele>172.899993896</ele>
        <time>2015-11-11T12:11:23.96Z</time>
      </trkpt>
      <trkpt lat="45.9369" lon="4.77787">
        <ele>172.699996948</ele>
        <time>2015-11-11T12:11:25.013Z</time>
      </trkpt>
      <trkpt lat="45.93686" lon="4.77781">
        <ele>172.5</ele>
        <time>2015-11-11T12:11:25.961Z</time>
      </trkpt>
      <trkpt lat="45.93682" lon="4.77774">
        <ele>172.199996948</ele>
        <time>2015-11-11T12:11:26.978Z</time>
      </trkpt>
      <trkpt lat="45.93677" lon="4.77768">
        <ele>171.899993896</ele>
        <time>2015-11-11T12:11:27.961Z</time>
      </trkpt>
      <trkpt lat="45.93673" lon="4.77761">
        <ele>171.399993896</ele>
        <time>2015-11-11T12:11:28.976Z</time>
      </trkpt>
      <trkpt lat="45.93668" lon="4.77754">
        <ele>170.899993896</ele>
        <time>2015-11-11T12:11:29.96Z</time>
      </trkpt>
      <trkpt lat="45.93663" lon="4.77746">
        <ele>170.5</ele>
        <time>2015-11-11T12:11:30.976Z</time>
      </trkpt>
      <trkpt lat="45.93659" lon="4.77739">
        <ele>170</ele>
        <time>2015-11-11T12:11:31.96Z</time>
      </trkpt>
      <trkpt lat="45.93654" lon="4.77731">
        <ele>169.699996948</ele>
        <time>2015-11-11T12:11:32.979Z</time>
      </trkpt>
      <trkpt lat="45.93649" lon="4.77723">
        <ele>169.199996948</ele>
        <time>2015-11-11T12:11:33.961Z</time>
      </trkpt>
      <trkpt lat="45.93645" lon="4.77714">
        <ele>168.699996948</ele>
        <time>2015-11-11T12:11:34.977Z</time>
      </trkpt>
      <trkpt lat="45.9364" lon="4.77706">
        <ele>168.199996948</ele>
        <time>2015-11-11T12:11:35.961Z</time>
      </trkpt>
      <trkpt lat="45.93635" lon="4.77696">
        <ele>167.899993896</ele>
        <time>2015-11-11T12:11:36.975Z</time>
      </trkpt>
      <trkpt lat="45.93631" lon="4.77687">
        <ele>167.5</ele>
        <time>2015-11-11T12:11:37.961Z</time>
      </trkpt>
      <trkpt lat="45.93627" lon="4.77678">
        <ele>167.300003052</ele>
        <time>2015-11-11T12:11:39.123Z</time>
      </trkpt>
      <trkpt lat="45.93622" lon="4.77668">
        <ele>167.199996948</ele>
        <time>2015-11-11T12:11:39.963Z</time>
      </trkpt>
      <trkpt lat="45.93618" lon="4.77659">
        <ele>167</ele>
        <time>2015-11-11T12:11:40.978Z</time>
      </trkpt>
      <trkpt lat="45.93614" lon="4.7765">
        <ele>166.899993896</ele>
        <time>2015-11-11T12:11:41.961Z</time>
      </trkpt>
      <trkpt lat="45.9361" lon="4.77641">
        <ele>166.800003052</ele>
        <time>2015-11-11T12:11:42.975Z</time>
      </trkpt>
      <trkpt lat="45.93607" lon="4.77632">
        <ele>166.899993896</ele>
        <time>2015-11-11T12:11:43.96Z</time>
      </trkpt>
      <trkpt lat="45.93603" lon="4.77623">
        <ele>167</ele>
        <time>2015-11-11T12:11:44.978Z</time>
      </trkpt>
      <trkpt lat="45.936" lon="4.77615">
        <ele>167</ele>
        <time>2015-11-11T12:11:45.96Z</time>
      </trkpt>
      <trkpt lat="45.93597" lon="4.77606">
        <ele>167</ele>
        <time>2015-11-11T12:11:46.976Z</time>
      </trkpt>
      <trkpt lat="45.93595" lon="4.77598">
        <ele>167.100006104</ele>
        <time>2015-11-11T12:11:47.96Z</time>
      </trkpt>
      <trkpt lat="45.93592" lon="4.7759">
        <ele>167.100006104</ele>
        <time>2015-11-11T12:11:48.974Z</time>
      </trkpt>
      <trkpt lat="45.9359" lon="4.77582">
        <ele>167</ele>
        <time>2015-11-11T12:11:49.96Z</time>
      </trkpt>
      <trkpt lat="45.93587" lon="4.77574">
        <ele>167</ele>
        <time>2015-11-11T12:11:50.979Z</time>
      </trkpt>
      <trkpt lat="45.93585" lon="4.77566">
        <ele>166.899993896</ele>
        <time>2015-11-11T12:11:51.96Z</time>
      </trkpt>
      <trkpt lat="45.93582" lon="4.77558">
        <ele>166.899993896</ele>
        <time>2015-11-11T12:11:53.008Z</time>
      </trkpt>
      <trkpt lat="45.9358" lon="4.7755">
        <ele>166.899993896</ele>
        <time>2015-11-11T12:11:53.96Z</time>
      </trkpt>
      <trkpt lat="45.93578" lon="4.77542">
        <ele>167</ele>
        <time>2015-11-11T12:11:54.988Z</time>
      </trkpt>
      <trkpt lat="45.93576" lon="4.77534">
        <ele>167.100006104</ele>
        <time>2015-11-11T12:11:55.96Z</time>
      </trkpt>
      <trkpt lat="45.93574" lon="4.77526">
        <ele>167.100006104</ele>
        <time>2015-11-11T12:11:56.978Z</time>
      </trkpt>
      <trkpt lat="45.93572" lon="4.77518">
        <ele>167.100006104</ele>
        <time>2015-11-11T12:11:57.96Z</time>
      </trkpt>
      <trkpt lat="45.9357" lon="4.7751">
        <ele>167.199996948</ele>
        <time>2015-11-11T12:11:58.976Z</time>
      </trkpt>
      <trkpt lat="45.93569" lon="4.77501">
        <ele>167.199996948</ele>
        <time>2015-11-11T12:11:59.96Z</time>
      </trkpt>
      <trkpt lat="45.93567" lon="4.77493">
        <ele>167.300003052</ele>
        <time>2015-11-11T12:12:00.975Z</time>
      </trkpt>
      <trkpt lat="45.93565" lon="4.77485">
        <ele>167.300003052</ele>
        <time>2015-11-11T12:12:01.96Z</time>
      </trkpt>
      <trkpt lat="45.93564" lon="4.77476">
        <ele>167.300003052</ele>
        <time>2015-11-11T12:12:02.978Z</time>
      </trkpt>
      <trkpt lat="45.93562" lon="4.77468">
        <ele>167.300003052</ele>
        <time>2015-11-11T12:12:03.96Z</time>
      </trkpt>
      <trkpt lat="45.9356" lon="4.7746">
        <ele>167.300003052</ele>
        <time>2015-11-11T12:12:04.976Z</time>
      </trkpt>
      <trkpt lat="45.93559" lon="4.77452">
        <ele>167.300003052</ele>
        <time>2015-11-11T12:12:05.96Z</time>
      </trkpt>
      <trkpt lat="45.93557" lon="4.77443">
        <ele>167.300003052</ele>
        <time>2015-11-11T12:12:06.975Z</time>
      </trkpt>
      <trkpt lat="45.93555" lon="4.77435">
        <ele>167.300003052</ele>
        <time>2015-11-11T12:12:08.074Z</time>
      </trkpt>
      <trkpt lat="45.93552" lon="4.77427">
        <ele>167.300003052</ele>
        <time>2015-11-11T12:12:08.977Z</time>
      </trkpt>
      <trkpt lat="45.9355" lon="4.77419">
        <ele>167.699996948</ele>
        <time>2015-11-11T12:12:09.96Z</time>
      </trkpt>
      <trkpt lat="45.93548" lon="4.77411">
        <ele>167.600006104</ele>
        <time>2015-11-11T12:12:10.989Z</time>
      </trkpt>
      <trkpt lat="45.93546" lon="4.77402">
        <ele>167.5</ele>
        <time>2015-11-11T12:12:11.96Z</time>
      </trkpt>
      <trkpt lat="45.93545" lon="4.77394">
        <ele>167.600006104</ele>
        <time>2015-11-11T12:12:12.975Z</time>
      </trkpt>
      <trkpt lat="45.93543" lon="4.77386">
        <ele>167.5</ele>
        <time>2015-11-11T12:12:13.96Z</time>
      </trkpt>
      <trkpt lat="45.93541" lon="4.77377">
        <ele>167.5</ele>
        <time>2015-11-11T12:12:14.977Z</time>
      </trkpt>
      <trkpt lat="45.93539" lon="4.77369">
        <ele>167.600006104</ele>
        <time>2015-11-11T12:12:15.96Z</time>
      </trkpt>
      <trkpt lat="45.93538" lon="4.77362">
        <ele>167.600006104</ele>
        <time>2015-11-11T12:12:16.975Z</time>
      </trkpt>
      <trkpt lat="45.93536" lon="4.77354">
        <ele>167.600006104</ele>
        <time>2015-11-11T12:12:17.96Z</time>
      </trkpt>
      <trkpt lat="45.93534" lon="4.77346">
        <ele>167.600006104</ele>
        <time>2015-11-11T12:12:18.994Z</time>
      </trkpt>
      <trkpt lat="45.93533" lon="4.77339">
        <ele>167.600006104</ele>
        <time>2015-11-11T12:12:19.96Z</time>
      </trkpt>
      <trkpt lat="45.93531" lon="4.77331">
        <ele>167.699996948</ele>
        <time>2015-11-11T12:12:20.977Z</time>
      </trkpt>
      <trkpt lat="45.93529" lon="4.77323">
        <ele>167.699996948</ele>
        <time>2015-11-11T12:12:21.96Z</time>
      </trkpt>
      <trkpt lat="45.93527" lon="4.77316">
        <ele>167.800003052</ele>
        <time>2015-11-11T12:12:23.095Z</time>
      </trkpt>
      <trkpt lat="45.93526" lon="4.77308">
        <ele>167.800003052</ele>
        <time>2015-11-11T12:12:23.959Z</time>
      </trkpt>
      <trkpt lat="45.93524" lon="4.773">
        <ele>167.800003052</ele>
        <time>2015-11-11T12:12:24.98Z</time>
      </trkpt>
      <trkpt lat="45.93523" lon="4.77292">
        <ele>167.899993896</ele>
        <time>2015-11-11T12:12:25.959Z</time>
      </trkpt>
      <trkpt lat="45.93521" lon="4.77285">
        <ele>167.899993896</ele>
        <time>2015-11-11T12:12:26.991Z</time>
      </trkpt>
      <trkpt lat="45.93519" lon="4.77277">
        <ele>167.899993896</ele>
        <time>2015-11-11T12:12:27.959Z</time>
      </trkpt>
      <trkpt lat="45.93518" lon="4.77269">
        <ele>168</ele>
        <time>2015-11-11T12:12:28.975Z</time>
      </trkpt>
      <trkpt lat="45.93516" lon="4.77261">
        <ele>168</ele>
        <time>2015-11-11T12:12:29.959Z</time>
      </trkpt>
      <trkpt lat="45.93514" lon="4.77253">
        <ele>168</ele>
        <time>2015-11-11T12:12:30.973Z</time>
      </trkpt>
      <trkpt lat="45.93513" lon="4.77246">
        <ele>168</ele>
        <time>2015-11-11T12:12:31.959Z</time>
      </trkpt>
      <trkpt lat="45.93511" lon="4.77239">
        <ele>168</ele>
        <time>2015-11-11T12:12:32.976Z</time>
      </trkpt>
      <trkpt lat="45.9351" lon="4.77232">
        <ele>168</ele>
        <time>2015-11-11T12:12:33.959Z</time>
      </trkpt>
      <trkpt lat="45.93508" lon="4.77225">
        <ele>168.100006104</ele>
        <time>2015-11-11T12:12:34.974Z</time>
      </trkpt>
      <trkpt lat="45.93507" lon="4.77218">
        <ele>168.199996948</ele>
        <time>2015-11-11T12:12:35.959Z</time>
      </trkpt>
      <trkpt lat="45.93505" lon="4.77212">
        <ele>168</ele>
        <time>2015-11-11T12:12:37.104Z</time>
      </trkpt>
      <trkpt lat="45.93504" lon="4.77205">
        <ele>168</ele>
        <time>2015-11-11T12:12:37.959Z</time>
      </trkpt>
      <trkpt lat="45.93502" lon="4.77199">
        <ele>168</ele>
        <time>2015-11-11T12:12:38.976Z</time>
      </trkpt>
      <trkpt lat="45.93501" lon="4.77192">
        <ele>167.899993896</ele>
        <time>2015-11-11T12:12:39.962Z</time>
      </trkpt>
      <trkpt lat="45.93499" lon="4.77185">
        <ele>167.899993896</ele>
        <time>2015-11-11T12:12:40.974Z</time>
      </trkpt>
      <trkpt lat="45.93497" lon="4.77178">
        <ele>167.800003052</ele>
        <time>2015-11-11T12:12:41.959Z</time>
      </trkpt>
      <trkpt lat="45.93496" lon="4.77171">
        <ele>167.800003052</ele>
        <time>2015-11-11T12:12:42.973Z</time>
      </trkpt>
      <trkpt lat="45.93494" lon="4.77163">
        <ele>167.800003052</ele>
        <time>2015-11-11T12:12:43.959Z</time>
      </trkpt>
      <trkpt lat="45.93493" lon="4.77156">
        <ele>167.800003052</ele>
        <time>2015-11-11T12:12:44.977Z</time>
      </trkpt>
      <trkpt lat="45.93491" lon="4.77149">
        <ele>167.800003052</ele>
        <time>2015-11-11T12:12:45.959Z</time>
      </trkpt>
      <trkpt lat="45.9349" lon="4.77141">
        <ele>167.800003052</ele>
        <time>2015-11-11T12:12:46.974Z</time>
      </trkpt>
      <trkpt lat="45.93488" lon="4.77133">
        <ele>167.800003052</ele>
        <time>2015-11-11T12:12:47.972Z</time>
      </trkpt>
      <trkpt lat="45.93487" lon="4.77125">
        <ele>167.800003052</ele>
        <time>2015-11-11T12:12:48.973Z</time>
      </trkpt>
      <trkpt lat="45.93485" lon="4.77117">
        <ele>167.699996948</ele>
        <time>2015-11-11T12:12:49.959Z</time>
      </trkpt>
      <trkpt lat="45.93484" lon="4.77109">
        <ele>167.699996948</ele>
        <time>2015-11-11T12:12:50.977Z</time>
      </trkpt>
      <trkpt lat="45.93482" lon="4.77101">
        <ele>167.699996948</ele>
        <time>2015-11-11T12:12:51.959Z</time>
      </trkpt>
      <trkpt lat="45.93481" lon="4.77093">
        <ele>167.699996948</ele>
        <time>2015-11-11T12:12:52.975Z</time>
      </trkpt>
      <trkpt lat="45.93479" lon="4.77085">
        <ele>167.699996948</ele>
        <time>2015-11-11T12:12:53.959Z</time>
      </trkpt>
      <trkpt lat="45.93478" lon="4.77077">
        <ele>167.600006104</ele>
        <time>2015-11-11T12:12:54.973Z</time>
      </trkpt>
      <trkpt lat="45.93477" lon="4.7707">
        <ele>167.600006104</ele>
        <time>2015-11-11T12:12:55.96Z</time>
      </trkpt>
      <trkpt lat="45.93475" lon="4.77063">
        <ele>167.600006104</ele>
        <time>2015-11-11T12:12:56.977Z</time>
      </trkpt>
      <trkpt lat="45.93473" lon="4.77055">
        <ele>167.600006104</ele>
        <time>2015-11-11T12:12:57.959Z</time>
      </trkpt>
      <trkpt lat="45.93472" lon="4.77048">
        <ele>167.5</ele>
        <time>2015-11-11T12:12:58.974Z</time>
      </trkpt>
      <trkpt lat="45.93471" lon="4.7704">
        <ele>167.5</ele>
        <time>2015-11-11T12:12:59.959Z</time>
      </trkpt>
      <trkpt lat="45.9347" lon="4.77032">
        <ele>167.5</ele>
        <time>2015-11-11T12:13:00.974Z</time>
      </trkpt>
      <trkpt lat="45.93468" lon="4.77025">
        <ele>167.600006104</ele>
        <time>2015-11-11T12:13:01.959Z</time>
      </trkpt>
      <trkpt lat="45.93467" lon="4.77017">
        <ele>167.5</ele>
        <time>2015-11-11T12:13:02.976Z</time>
      </trkpt>
      <trkpt lat="45.93466" lon="4.77009">
        <ele>167.5</ele>
        <time>2015-11-11T12:13:03.959Z</time>
      </trkpt>
      <trkpt lat="45.93465" lon="4.77001">
        <ele>167.5</ele>
        <time>2015-11-11T12:13:04.974Z</time>
      </trkpt>
      <trkpt lat="45.93463" lon="4.76994">
        <ele>167.5</ele>
        <time>2015-11-11T12:13:05.959Z</time>
      </trkpt>
      <trkpt lat="45.93462" lon="4.76986">
        <ele>167.5</ele>
        <time>2015-11-11T12:13:06.973Z</time>
      </trkpt>
      <trkpt lat="45.93461" lon="4.76979">
        <ele>167.600006104</ele>
        <time>2015-11-11T12:13:07.959Z</time>
      </trkpt>
      <trkpt lat="45.9346" lon="4.76971">
        <ele>167.600006104</ele>
        <time>2015-11-11T12:13:08.99Z</time>
      </trkpt>
      <trkpt lat="45.93459" lon="4.76963">
        <ele>167.5</ele>
        <time>2015-11-11T12:13:09.959Z</time>
      </trkpt>
      <trkpt lat="45.93458" lon="4.76955">
        <ele>167.600006104</ele>
        <time>2015-11-11T12:13:10.974Z</time>
      </trkpt>
      <trkpt lat="45.93457" lon="4.76948">
        <ele>167.600006104</ele>
        <time>2015-11-11T12:13:11.997Z</time>
      </trkpt>
      <trkpt lat="45.93456" lon="4.7694">
        <ele>167.600006104</ele>
        <time>2015-11-11T12:13:12.973Z</time>
      </trkpt>
      <trkpt lat="45.93454" lon="4.76932">
        <ele>167.600006104</ele>
        <time>2015-11-11T12:13:13.959Z</time>
      </trkpt>
      <trkpt lat="45.93453" lon="4.76925">
        <ele>167.699996948</ele>
        <time>2015-11-11T12:13:14.977Z</time>
      </trkpt>
      <trkpt lat="45.93452" lon="4.76917">
        <ele>167.699996948</ele>
        <time>2015-11-11T12:13:15.959Z</time>
      </trkpt>
      <trkpt lat="45.9345" lon="4.76909">
        <ele>167.699996948</ele>
        <time>2015-11-11T12:13:16.975Z</time>
      </trkpt>
      <trkpt lat="45.93448" lon="4.76902">
        <ele>167.699996948</ele>
        <time>2015-11-11T12:13:17.959Z</time>
      </trkpt>
      <trkpt lat="45.93446" lon="4.76894">
        <ele>167.699996948</ele>
        <time>2015-11-11T12:13:18.974Z</time>
      </trkpt>
      <trkpt lat="45.93444" lon="4.76886">
        <ele>167.699996948</ele>
        <time>2015-11-11T12:13:19.959Z</time>
      </trkpt>
      <trkpt lat="45.93442" lon="4.76878">
        <ele>167.699996948</ele>
        <time>2015-11-11T12:13:20.977Z</time>
      </trkpt>
      <trkpt lat="45.93439" lon="4.76871">
        <ele>167.699996948</ele>
        <time>2015-11-11T12:13:21.96Z</time>
      </trkpt>
      <trkpt lat="45.93436" lon="4.76863">
        <ele>167.699996948</ele>
        <time>2015-11-11T12:13:22.975Z</time>
      </trkpt>
      <trkpt lat="45.93433" lon="4.76855">
        <ele>167.800003052</ele>
        <time>2015-11-11T12:13:23.959Z</time>
      </trkpt>
      <trkpt lat="45.9343" lon="4.76848">
        <ele>167.800003052</ele>
        <time>2015-11-11T12:13:24.987Z</time>
      </trkpt>
      <trkpt lat="45.93426" lon="4.76841">
        <ele>167.800003052</ele>
        <time>2015-11-11T12:13:25.959Z</time>
      </trkpt>
      <trkpt lat="45.93422" lon="4.76834">
        <ele>167.800003052</ele>
        <time>2015-11-11T12:13:26.977Z</time>
      </trkpt>
      <trkpt lat="45.93418" lon="4.76826">
        <ele>167.800003052</ele>
        <time>2015-11-11T12:13:27.959Z</time>
      </trkpt>
      <trkpt lat="45.93415" lon="4.7682">
        <ele>167.699996948</ele>
        <time>2015-11-11T12:13:28.974Z</time>
      </trkpt>
      <trkpt lat="45.93411" lon="4.76813">
        <ele>167.800003052</ele>
        <time>2015-11-11T12:13:29.959Z</time>
      </trkpt>
      <trkpt lat="45.93407" lon="4.76807">
        <ele>167.899993896</ele>
        <time>2015-11-11T12:13:30.973Z</time>
      </trkpt>
      <trkpt lat="45.93403" lon="4.76802">
        <ele>168</ele>
        <time>2015-11-11T12:13:31.959Z</time>
      </trkpt>
      <trkpt lat="45.93399" lon="4.76797">
        <ele>168.100006104</ele>
        <time>2015-11-11T12:13:32.977Z</time>
      </trkpt>
      <trkpt lat="45.93395" lon="4.76792">
        <ele>168</ele>
        <time>2015-11-11T12:13:33.958Z</time>
      </trkpt>
      <trkpt lat="45.93391" lon="4.76787">
        <ele>168.100006104</ele>
        <time>2015-11-11T12:13:34.974Z</time>
      </trkpt>
      <trkpt lat="45.93386" lon="4.76782">
        <ele>168.100006104</ele>
        <time>2015-11-11T12:13:35.958Z</time>
      </trkpt>
      <trkpt lat="45.93382" lon="4.76778">
        <ele>168</ele>
        <time>2015-11-11T12:13:36.972Z</time>
      </trkpt>
      <trkpt lat="45.93377" lon="4.76773">
        <ele>168</ele>
        <time>2015-11-11T12:13:37.959Z</time>
      </trkpt>
      <trkpt lat="45.93373" lon="4.76768">
        <ele>168.399993896</ele>
        <time>2015-11-11T12:13:38.976Z</time>
      </trkpt>
      <trkpt lat="45.93368" lon="4.76764">
        <ele>168.300003052</ele>
        <time>2015-11-11T12:13:39.961Z</time>
      </trkpt>
      <trkpt lat="45.93364" lon="4.76759">
        <ele>168.300003052</ele>
        <time>2015-11-11T12:13:40.988Z</time>
      </trkpt>
      <trkpt lat="45.93359" lon="4.76755">
        <ele>168.300003052</ele>
        <time>2015-11-11T12:13:41.958Z</time>
      </trkpt>
      <trkpt lat="45.93355" lon="4.7675">
        <ele>168.300003052</ele>
        <time>2015-11-11T12:13:42.973Z</time>
      </trkpt>
      <trkpt lat="45.9335" lon="4.76745">
        <ele>168.5</ele>
        <time>2015-11-11T12:13:43.958Z</time>
      </trkpt>
      <trkpt lat="45.93345" lon="4.76741">
        <ele>168.399993896</ele>
        <time>2015-11-11T12:13:44.976Z</time>
      </trkpt>
      <trkpt lat="45.93341" lon="4.76736">
        <ele>168.300003052</ele>
        <time>2015-11-11T12:13:45.958Z</time>
      </trkpt>
      <trkpt lat="45.93337" lon="4.76732">
        <ele>168.100006104</ele>
        <time>2015-11-11T12:13:46.973Z</time>
      </trkpt>
      <trkpt lat="45.93332" lon="4.76727">
        <ele>167.800003052</ele>
        <time>2015-11-11T12:13:47.959Z</time>
      </trkpt>
      <trkpt lat="45.93328" lon="4.76723">
        <ele>168</ele>
        <time>2015-11-11T12:13:48.972Z</time>
      </trkpt>
      <trkpt lat="45.93323" lon="4.76718">
        <ele>168.100006104</ele>
        <time>2015-11-11T12:13:49.958Z</time>
      </trkpt>
      <trkpt lat="45.93319" lon="4.76714">
        <ele>168.199996948</ele>
        <time>2015-11-11T12:13:50.976Z</time>
      </trkpt>
      <trkpt lat="45.93314" lon="4.7671">
        <ele>168.399993896</ele>
        <time>2015-11-11T12:13:51.958Z</time>
      </trkpt>
      <trkpt lat="45.93309" lon="4.76705">
        <ele>168.300003052</ele>
        <time>2015-11-11T12:13:52.974Z</time>
      </trkpt>
      <trkpt lat="45.93305" lon="4.76701">
        <ele>167.899993896</ele>
        <time>2015-11-11T12:13:53.958Z</time>
      </trkpt>
      <trkpt lat="45.933" lon="4.76697">
        <ele>168</ele>
        <time>2015-11-11T12:13:54.972Z</time>
      </trkpt>
      <trkpt lat="45.93295" lon="4.76692">
        <ele>167.899993896</ele>
        <time>2015-11-11T12:13:55.958Z</time>
      </trkpt>
      <trkpt lat="45.93291" lon="4.76687">
        <ele>167.699996948</ele>
        <time>2015-11-11T12:13:56.998Z</time>
      </trkpt>
      <trkpt lat="45.93286" lon="4.76683">
        <ele>167.600006104</ele>
        <time>2015-11-11T12:13:57.968Z</time>
      </trkpt>
      <trkpt lat="45.93282" lon="4.76678">
        <ele>167.5</ele>
        <time>2015-11-11T12:13:58.974Z</time>
      </trkpt>
      <trkpt lat="45.93277" lon="4.76674">
        <ele>167.300003052</ele>
        <time>2015-11-11T12:13:59.958Z</time>
      </trkpt>
      <trkpt lat="45.93272" lon="4.7667">
        <ele>167.100006104</ele>
        <time>2015-11-11T12:14:00.973Z</time>
      </trkpt>
      <trkpt lat="45.93267" lon="4.76664">
        <ele>167.100006104</ele>
        <time>2015-11-11T12:14:01.959Z</time>
      </trkpt>
      <trkpt lat="45.93262" lon="4.7666">
        <ele>166.899993896</ele>
        <time>2015-11-11T12:14:02.976Z</time>
      </trkpt>
      <trkpt lat="45.93258" lon="4.76656">
        <ele>166.899993896</ele>
        <time>2015-11-11T12:14:03.958Z</time>
      </trkpt>
      <trkpt lat="45.93253" lon="4.76652">
        <ele>166.699996948</ele>
        <time>2015-11-11T12:14:04.974Z</time>
      </trkpt>
      <trkpt lat="45.93249" lon="4.76648">
        <ele>166.300003052</ele>
        <time>2015-11-11T12:14:05.958Z</time>
      </trkpt>
      <trkpt lat="45.93245" lon="4.76644">
        <ele>166.300003052</ele>
        <time>2015-11-11T12:14:06.973Z</time>
      </trkpt>
      <trkpt lat="45.93241" lon="4.7664">
        <ele>166.300003052</ele>
        <time>2015-11-11T12:14:07.958Z</time>
      </trkpt>
      <trkpt lat="45.93237" lon="4.76636">
        <ele>166.100006104</ele>
        <time>2015-11-11T12:14:08.976Z</time>
      </trkpt>
      <trkpt lat="45.93232" lon="4.76632">
        <ele>165.5</ele>
        <time>2015-11-11T12:14:09.958Z</time>
      </trkpt>
      <trkpt lat="45.93227" lon="4.76627">
        <ele>164.699996948</ele>
        <time>2015-11-11T12:14:10.975Z</time>
      </trkpt>
      <trkpt lat="45.93222" lon="4.76623">
        <ele>164</ele>
        <time>2015-11-11T12:14:11.958Z</time>
      </trkpt>
      <trkpt lat="45.93217" lon="4.76619">
        <ele>163.800003052</ele>
        <time>2015-11-11T12:14:12.973Z</time>
      </trkpt>
      <trkpt lat="45.93213" lon="4.76614">
        <ele>163.600006104</ele>
        <time>2015-11-11T12:14:13.959Z</time>
      </trkpt>
      <trkpt lat="45.93207" lon="4.7661">
        <ele>163.100006104</ele>
        <time>2015-11-11T12:14:15.048Z</time>
      </trkpt>
      <trkpt lat="45.93202" lon="4.76606">
        <ele>162.699996948</ele>
        <time>2015-11-11T12:14:15.958Z</time>
      </trkpt>
      <trkpt lat="45.93197" lon="4.76601">
        <ele>162.5</ele>
        <time>2015-11-11T12:14:16.974Z</time>
      </trkpt>
      <trkpt lat="45.93193" lon="4.76596">
        <ele>161.899993896</ele>
        <time>2015-11-11T12:14:17.971Z</time>
      </trkpt>
      <trkpt lat="45.93188" lon="4.76591">
        <ele>161.899993896</ele>
        <time>2015-11-11T12:14:18.972Z</time>
      </trkpt>
      <trkpt lat="45.93183" lon="4.76586">
        <ele>161.699996948</ele>
        <time>2015-11-11T12:14:19.958Z</time>
      </trkpt>
      <trkpt lat="45.93178" lon="4.76582">
        <ele>161.5</ele>
        <time>2015-11-11T12:14:20.976Z</time>
      </trkpt>
      <trkpt lat="45.93173" lon="4.76577">
        <ele>161.199996948</ele>
        <time>2015-11-11T12:14:21.995Z</time>
      </trkpt>
      <trkpt lat="45.93168" lon="4.76572">
        <ele>161.600006104</ele>
        <time>2015-11-11T12:14:22.973Z</time>
      </trkpt>
      <trkpt lat="45.93163" lon="4.76567">
        <ele>161.600006104</ele>
        <time>2015-11-11T12:14:23.958Z</time>
      </trkpt>
      <trkpt lat="45.93159" lon="4.76562">
        <ele>162.199996948</ele>
        <time>2015-11-11T12:14:24.973Z</time>
      </trkpt>
      <trkpt lat="45.93155" lon="4.76557">
        <ele>162.399993896</ele>
        <time>2015-11-11T12:14:25.958Z</time>
      </trkpt>
      <trkpt lat="45.9315" lon="4.76553">
        <ele>162.800003052</ele>
        <time>2015-11-11T12:14:26.98Z</time>
      </trkpt>
      <trkpt lat="45.93146" lon="4.76549">
        <ele>162.800003052</ele>
        <time>2015-11-11T12:14:27.958Z</time>
      </trkpt>
      <trkpt lat="45.93142" lon="4.76544">
        <ele>162.699996948</ele>
        <time>2015-11-11T12:14:28.974Z</time>
      </trkpt>
      <trkpt lat="45.93137" lon="4.7654">
        <ele>162.899993896</ele>
        <time>2015-11-11T12:14:29.958Z</time>
      </trkpt>
      <trkpt lat="45.93133" lon="4.76536">
        <ele>163</ele>
        <time>2015-11-11T12:14:31.093Z</time>
      </trkpt>
      <trkpt lat="45.93129" lon="4.76531">
        <ele>162.899993896</ele>
        <time>2015-11-11T12:14:31.959Z</time>
      </trkpt>
      <trkpt lat="45.93125" lon="4.76526">
        <ele>162.800003052</ele>
        <time>2015-11-11T12:14:32.976Z</time>
      </trkpt>
      <trkpt lat="45.9312" lon="4.76521">
        <ele>162.600006104</ele>
        <time>2015-11-11T12:14:33.971Z</time>
      </trkpt>
      <trkpt lat="45.93116" lon="4.76517">
        <ele>162.300003052</ele>
        <time>2015-11-11T12:14:34.973Z</time>
      </trkpt>
      <trkpt lat="45.93111" lon="4.76513">
        <ele>161.899993896</ele>
        <time>2015-11-11T12:14:35.958Z</time>
      </trkpt>
      <trkpt lat="45.93107" lon="4.76508">
        <ele>161.600006104</ele>
        <time>2015-11-11T12:14:36.973Z</time>
      </trkpt>
      <trkpt lat="45.93102" lon="4.76503">
        <ele>161.600006104</ele>
        <time>2015-11-11T12:14:37.958Z</time>
      </trkpt>
      <trkpt lat="45.93097" lon="4.76499">
        <ele>161.5</ele>
        <time>2015-11-11T12:14:38.975Z</time>
      </trkpt>
      <trkpt lat="45.93092" lon="4.76494">
        <ele>161.399993896</ele>
        <time>2015-11-11T12:14:39.962Z</time>
      </trkpt>
      <trkpt lat="45.93087" lon="4.7649">
        <ele>161.300003052</ele>
        <time>2015-11-11T12:14:40.975Z</time>
      </trkpt>
      <trkpt lat="45.93083" lon="4.76486">
        <ele>161.199996948</ele>
        <time>2015-11-11T12:14:41.958Z</time>
      </trkpt>
      <trkpt lat="45.93078" lon="4.76482">
        <ele>161.199996948</ele>
        <time>2015-11-11T12:14:42.973Z</time>
      </trkpt>
      <trkpt lat="45.93074" lon="4.76478">
        <ele>161.399993896</ele>
        <time>2015-11-11T12:14:43.958Z</time>
      </trkpt>
      <trkpt lat="45.9307" lon="4.76473">
        <ele>161.5</ele>
        <time>2015-11-11T12:14:45.09Z</time>
      </trkpt>
      <trkpt lat="45.93065" lon="4.76469">
        <ele>161.699996948</ele>
        <time>2015-11-11T12:14:45.958Z</time>
      </trkpt>
      <trkpt lat="45.9306" lon="4.76464">
        <ele>161.800003052</ele>
        <time>2015-11-11T12:14:46.974Z</time>
      </trkpt>
      <trkpt lat="45.93056" lon="4.7646">
        <ele>162</ele>
        <time>2015-11-11T12:14:47.959Z</time>
      </trkpt>
      <trkpt lat="45.93051" lon="4.76456">
        <ele>162.199996948</ele>
        <time>2015-11-11T12:14:48.973Z</time>
      </trkpt>
      <trkpt lat="45.93047" lon="4.76452">
        <ele>162.300003052</ele>
        <time>2015-11-11T12:14:49.958Z</time>
      </trkpt>
      <trkpt lat="45.93042" lon="4.76448">
        <ele>162.5</ele>
        <time>2015-11-11T12:14:50.976Z</time>
      </trkpt>
      <trkpt lat="45.93038" lon="4.76444">
        <ele>162.800003052</ele>
        <time>2015-11-11T12:14:51.958Z</time>
      </trkpt>
      <trkpt lat="45.93033" lon="4.76439">
        <ele>162.800003052</ele>
        <time>2015-11-11T12:14:52.974Z</time>
      </trkpt>
      <trkpt lat="45.93029" lon="4.76435">
        <ele>163</ele>
        <time>2015-11-11T12:14:53.958Z</time>
      </trkpt>
      <trkpt lat="45.93024" lon="4.76431">
        <ele>163.300003052</ele>
        <time>2015-11-11T12:14:54.973Z</time>
      </trkpt>
      <trkpt lat="45.93019" lon="4.76426">
        <ele>163.399993896</ele>
        <time>2015-11-11T12:14:55.958Z</time>
      </trkpt>
      <trkpt lat="45.93014" lon="4.76422">
        <ele>163.100006104</ele>
        <time>2015-11-11T12:14:56.976Z</time>
      </trkpt>
      <trkpt lat="45.9301" lon="4.76418">
        <ele>163.199996948</ele>
        <time>2015-11-11T12:14:57.958Z</time>
      </trkpt>
      <trkpt lat="45.93006" lon="4.76413">
        <ele>163.699996948</ele>
        <time>2015-11-11T12:14:58.974Z</time>
      </trkpt>
      <trkpt lat="45.93002" lon="4.76408">
        <ele>163.800003052</ele>
        <time>2015-11-11T12:14:59.96Z</time>
      </trkpt>
      <trkpt lat="45.92997" lon="4.76404">
        <ele>163.800003052</ele>
        <time>2015-11-11T12:15:00.988Z</time>
      </trkpt>
      <trkpt lat="45.92993" lon="4.76399">
        <ele>163.899993896</ele>
        <time>2015-11-11T12:15:01.959Z</time>
      </trkpt>
      <trkpt lat="45.92989" lon="4.76394">
        <ele>164.100006104</ele>
        <time>2015-11-11T12:15:02.978Z</time>
      </trkpt>
      <trkpt lat="45.92984" lon="4.76389">
        <ele>164.199996948</ele>
        <time>2015-11-11T12:15:03.959Z</time>
      </trkpt>
      <trkpt lat="45.9298" lon="4.76385">
        <ele>164.100006104</ele>
        <time>2015-11-11T12:15:04.973Z</time>
      </trkpt>
      <trkpt lat="45.92975" lon="4.7638">
        <ele>164.100006104</ele>
        <time>2015-11-11T12:15:05.959Z</time>
      </trkpt>
      <trkpt lat="45.92971" lon="4.76375">
        <ele>164</ele>
        <time>2015-11-11T12:15:06.972Z</time>
      </trkpt>
      <trkpt lat="45.92966" lon="4.76371">
        <ele>164</ele>
        <time>2015-11-11T12:15:07.958Z</time>
      </trkpt>
      <trkpt lat="45.92962" lon="4.76366">
        <ele>164</ele>
        <time>2015-11-11T12:15:08.976Z</time>
      </trkpt>
      <trkpt lat="45.92957" lon="4.76361">
        <ele>163.899993896</ele>
        <time>2015-11-11T12:15:09.958Z</time>
      </trkpt>
      <trkpt lat="45.92952" lon="4.76356">
        <ele>164.199996948</ele>
        <time>2015-11-11T12:15:10.973Z</time>
      </trkpt>
      <trkpt lat="45.92947" lon="4.76352">
        <ele>164.199996948</ele>
        <time>2015-11-11T12:15:11.958Z</time>
      </trkpt>
      <trkpt lat="45.92943" lon="4.76346">
        <ele>164.199996948</ele>
        <time>2015-11-11T12:15:12.972Z</time>
      </trkpt>
      <trkpt lat="45.92938" lon="4.76341">
        <ele>164.399993896</ele>
        <time>2015-11-11T12:15:13.958Z</time>
      </trkpt>
      <trkpt lat="45.92934" lon="4.76336">
        <ele>165</ele>
        <time>2015-11-11T12:15:14.975Z</time>
      </trkpt>
      <trkpt lat="45.9293" lon="4.76331">
        <ele>165.800003052</ele>
        <time>2015-11-11T12:15:15.996Z</time>
      </trkpt>
      <trkpt lat="45.92925" lon="4.76327">
        <ele>165.300003052</ele>
        <time>2015-11-11T12:15:16.987Z</time>
      </trkpt>
      <trkpt lat="45.9292" lon="4.76322">
        <ele>165.300003052</ele>
        <time>2015-11-11T12:15:17.958Z</time>
      </trkpt>
      <trkpt lat="45.92916" lon="4.76318">
        <ele>165.399993896</ele>
        <time>2015-11-11T12:15:18.972Z</time>
      </trkpt>
      <trkpt lat="45.92912" lon="4.76314">
        <ele>165.899993896</ele>
        <time>2015-11-11T12:15:19.958Z</time>
      </trkpt>
      <trkpt lat="45.92907" lon="4.7631">
        <ele>166</ele>
        <time>2015-11-11T12:15:20.976Z</time>
      </trkpt>
      <trkpt lat="45.92903" lon="4.76305">
        <ele>165.899993896</ele>
        <time>2015-11-11T12:15:21.958Z</time>
      </trkpt>
      <trkpt lat="45.92899" lon="4.76301">
        <ele>166</ele>
        <time>2015-11-11T12:15:22.973Z</time>
      </trkpt>
      <trkpt lat="45.92894" lon="4.76297">
        <ele>166.100006104</ele>
        <time>2015-11-11T12:15:23.958Z</time>
      </trkpt>
      <trkpt lat="45.92889" lon="4.76293">
        <ele>166.100006104</ele>
        <time>2015-11-11T12:15:24.972Z</time>
      </trkpt>
      <trkpt lat="45.92885" lon="4.76288">
        <ele>166.300003052</ele>
        <time>2015-11-11T12:15:25.958Z</time>
      </trkpt>
      <trkpt lat="45.9288" lon="4.76283">
        <ele>166.199996948</ele>
        <time>2015-11-11T12:15:26.979Z</time>
      </trkpt>
      <trkpt lat="45.92876" lon="4.76279">
        <ele>166.199996948</ele>
        <time>2015-11-11T12:15:27.958Z</time>
      </trkpt>
      <trkpt lat="45.92871" lon="4.76275">
        <ele>165.800003052</ele>
        <time>2015-11-11T12:15:28.974Z</time>
      </trkpt>
      <trkpt lat="45.92867" lon="4.7627">
        <ele>165.5</ele>
        <time>2015-11-11T12:15:29.958Z</time>
      </trkpt>
      <trkpt lat="45.92862" lon="4.76266">
        <ele>164</ele>
        <time>2015-11-11T12:15:30.973Z</time>
      </trkpt>
      <trkpt lat="45.92858" lon="4.76261">
        <ele>163.899993896</ele>
        <time>2015-11-11T12:15:31.959Z</time>
      </trkpt>
      <trkpt lat="45.92853" lon="4.76257">
        <ele>163.800003052</ele>
        <time>2015-11-11T12:15:32.992Z</time>
      </trkpt>
      <trkpt lat="45.92848" lon="4.76252">
        <ele>163.600006104</ele>
        <time>2015-11-11T12:15:33.959Z</time>
      </trkpt>
      <trkpt lat="45.92843" lon="4.76247">
        <ele>163.399993896</ele>
        <time>2015-11-11T12:15:34.974Z</time>
      </trkpt>
      <trkpt lat="45.92838" lon="4.76242">
        <ele>163.100006104</ele>
        <time>2015-11-11T12:15:35.958Z</time>
      </trkpt>
      <trkpt lat="45.92833" lon="4.76237">
        <ele>163</ele>
        <time>2015-11-11T12:15:36.972Z</time>
      </trkpt>
      <trkpt lat="45.92828" lon="4.76232">
        <ele>162.800003052</ele>
        <time>2015-11-11T12:15:37.958Z</time>
      </trkpt>
      <trkpt lat="45.92823" lon="4.76228">
        <ele>162.899993896</ele>
        <time>2015-11-11T12:15:38.976Z</time>
      </trkpt>
      <trkpt lat="45.92819" lon="4.76223">
        <ele>163.199996948</ele>
        <time>2015-11-11T12:15:39.96Z</time>
      </trkpt>
      <trkpt lat="45.92814" lon="4.76219">
        <ele>163.100006104</ele>
        <time>2015-11-11T12:15:40.974Z</time>
      </trkpt>
      <trkpt lat="45.92809" lon="4.76214">
        <ele>163.100006104</ele>
        <time>2015-11-11T12:15:41.958Z</time>
      </trkpt>
      <trkpt lat="45.92805" lon="4.7621">
        <ele>162.800003052</ele>
        <time>2015-11-11T12:15:42.973Z</time>
      </trkpt>
      <trkpt lat="45.928" lon="4.76206">
        <ele>162.899993896</ele>
        <time>2015-11-11T12:15:43.958Z</time>
      </trkpt>
      <trkpt lat="45.92796" lon="4.76201">
        <ele>163</ele>
        <time>2015-11-11T12:15:44.975Z</time>
      </trkpt>
      <trkpt lat="45.92792" lon="4.76197">
        <ele>163</ele>
        <time>2015-11-11T12:15:45.958Z</time>
      </trkpt>
      <trkpt lat="45.92788" lon="4.76193">
        <ele>163.199996948</ele>
        <time>2015-11-11T12:15:46.973Z</time>
      </trkpt>
      <trkpt lat="45.92784" lon="4.76188">
        <ele>163.699996948</ele>
        <time>2015-11-11T12:15:47.958Z</time>
      </trkpt>
      <trkpt lat="45.92779" lon="4.76184">
        <ele>164</ele>
        <time>2015-11-11T12:15:48.987Z</time>
      </trkpt>
      <trkpt lat="45.92775" lon="4.7618">
        <ele>164</ele>
        <time>2015-11-11T12:15:49.958Z</time>
      </trkpt>
      <trkpt lat="45.9277" lon="4.76176">
        <ele>164.399993896</ele>
        <time>2015-11-11T12:15:50.976Z</time>
      </trkpt>
      <trkpt lat="45.92765" lon="4.76172">
        <ele>164.5</ele>
        <time>2015-11-11T12:15:51.958Z</time>
      </trkpt>
      <trkpt lat="45.9276" lon="4.76168">
        <ele>164.5</ele>
        <time>2015-11-11T12:15:52.974Z</time>
      </trkpt>
      <trkpt lat="45.92756" lon="4.76165">
        <ele>164.5</ele>
        <time>2015-11-11T12:15:53.958Z</time>
      </trkpt>
      <trkpt lat="45.92751" lon="4.76161">
        <ele>164.399993896</ele>
        <time>2015-11-11T12:15:54.972Z</time>
      </trkpt>
      <trkpt lat="45.92746" lon="4.76157">
        <ele>164.699996948</ele>
        <time>2015-11-11T12:15:55.958Z</time>
      </trkpt>
      <trkpt lat="45.92741" lon="4.76153">
        <ele>164.699996948</ele>
        <time>2015-11-11T12:15:56.976Z</time>
      </trkpt>
      <trkpt lat="45.92736" lon="4.76149">
        <ele>164.899993896</ele>
        <time>2015-11-11T12:15:57.959Z</time>
      </trkpt>
      <trkpt lat="45.92731" lon="4.76146">
        <ele>165.100006104</ele>
        <time>2015-11-11T12:15:58.974Z</time>
      </trkpt>
      <trkpt lat="45.92726" lon="4.76142">
        <ele>164.899993896</ele>
        <time>2015-11-11T12:15:59.972Z</time>
      </trkpt>
      <trkpt lat="45.92721" lon="4.76138">
        <ele>165.5</ele>
        <time>2015-11-11T12:16:00.973Z</time>
      </trkpt>
      <trkpt lat="45.92717" lon="4.76135">
        <ele>165.800003052</ele>
        <time>2015-11-11T12:16:01.958Z</time>
      </trkpt>
      <trkpt lat="45.92712" lon="4.76132">
        <ele>166.100006104</ele>
        <time>2015-11-11T12:16:02.977Z</time>
      </trkpt>
      <trkpt lat="45.92707" lon="4.76129">
        <ele>166.300003052</ele>
        <time>2015-11-11T12:16:03.958Z</time>
      </trkpt>
      <trkpt lat="45.92703" lon="4.76125">
        <ele>166.300003052</ele>
        <time>2015-11-11T12:16:04.973Z</time>
      </trkpt>
      <trkpt lat="45.92698" lon="4.76122">
        <ele>166.600006104</ele>
        <time>2015-11-11T12:16:05.958Z</time>
      </trkpt>
      <trkpt lat="45.92694" lon="4.76118">
        <ele>166.699996948</ele>
        <time>2015-11-11T12:16:06.972Z</time>
      </trkpt>
      <trkpt lat="45.9269" lon="4.76115">
        <ele>167</ele>
        <time>2015-11-11T12:16:07.958Z</time>
      </trkpt>
      <trkpt lat="45.92685" lon="4.76111">
        <ele>167.300003052</ele>
        <time>2015-11-11T12:16:08.976Z</time>
      </trkpt>
      <trkpt lat="45.92681" lon="4.76108">
        <ele>167.600006104</ele>
        <time>2015-11-11T12:16:09.958Z</time>
      </trkpt>
      <trkpt lat="45.92674" lon="4.76101">
        <ele>167.800003052</ele>
        <time>2015-11-11T12:16:11.972Z</time>
      </trkpt>
      <trkpt lat="45.9267" lon="4.76098">
        <ele>168.199996948</ele>
        <time>2015-11-11T12:16:12.958Z</time>
      </trkpt>
      <trkpt lat="45.92663" lon="4.76091">
        <ele>169.100006104</ele>
        <time>2015-11-11T12:16:14.975Z</time>
      </trkpt>
      <trkpt lat="45.92659" lon="4.76087">
        <ele>169.199996948</ele>
        <time>2015-11-11T12:16:15.958Z</time>
      </trkpt>
      <trkpt lat="45.92652" lon="4.76081">
        <ele>169.399993896</ele>
        <time>2015-11-11T12:16:17.972Z</time>
      </trkpt>
      <trkpt lat="45.92648" lon="4.76078">
        <ele>169.5</ele>
        <time>2015-11-11T12:16:18.958Z</time>
      </trkpt>
      <trkpt lat="45.9264" lon="4.76072">
        <ele>169.399993896</ele>
        <time>2015-11-11T12:16:20.989Z</time>
      </trkpt>
      <trkpt lat="45.92636" lon="4.7607">
        <ele>169.899993896</ele>
        <time>2015-11-11T12:16:21.958Z</time>
      </trkpt>
      <trkpt lat="45.92629" lon="4.76065">
        <ele>170.300003052</ele>
        <time>2015-11-11T12:16:23.976Z</time>
      </trkpt>
      <trkpt lat="45.92625" lon="4.76063">
        <ele>170.5</ele>
        <time>2015-11-11T12:16:24.957Z</time>
      </trkpt>
      <trkpt lat="45.92617" lon="4.76058">
        <ele>170.699996948</ele>
        <time>2015-11-11T12:16:26.975Z</time>
      </trkpt>
      <trkpt lat="45.92614" lon="4.76056">
        <ele>170.800003052</ele>
        <time>2015-11-11T12:16:27.958Z</time>
      </trkpt>
      <trkpt lat="45.92607" lon="4.7605">
        <ele>170.899993896</ele>
        <time>2015-11-11T12:16:29.972Z</time>
      </trkpt>
      <trkpt lat="45.92604" lon="4.76047">
        <ele>170.899993896</ele>
        <time>2015-11-11T12:16:30.958Z</time>
      </trkpt>
      <trkpt lat="45.92597" lon="4.76041">
        <ele>171</ele>
        <time>2015-11-11T12:16:32.975Z</time>
      </trkpt>
      <trkpt lat="45.92593" lon="4.76039">
        <ele>171</ele>
        <time>2015-11-11T12:16:33.958Z</time>
      </trkpt>
      <trkpt lat="45.92586" lon="4.76033">
        <ele>171.199996948</ele>
        <time>2015-11-11T12:16:35.972Z</time>
      </trkpt>
      <trkpt lat="45.92583" lon="4.76031">
        <ele>171.300003052</ele>
        <time>2015-11-11T12:16:36.958Z</time>
      </trkpt>
      <trkpt lat="45.92575" lon="4.76026">
        <ele>171.5</ele>
        <time>2015-11-11T12:16:38.976Z</time>
      </trkpt>
      <trkpt lat="45.92572" lon="4.76023">
        <ele>171.399993896</ele>
        <time>2015-11-11T12:16:39.96Z</time>
      </trkpt>
      <trkpt lat="45.92564" lon="4.76018">
        <ele>171.399993896</ele>
        <time>2015-11-11T12:16:41.972Z</time>
      </trkpt>
      <trkpt lat="45.9256" lon="4.76015">
        <ele>171.399993896</ele>
        <time>2015-11-11T12:16:42.958Z</time>
      </trkpt>
      <trkpt lat="45.92552" lon="4.7601">
        <ele>171.399993896</ele>
        <time>2015-11-11T12:16:44.975Z</time>
      </trkpt>
      <trkpt lat="45.92548" lon="4.76007">
        <ele>171.600006104</ele>
        <time>2015-11-11T12:16:45.958Z</time>
      </trkpt>
      <trkpt lat="45.92544" lon="4.76004">
        <ele>171.5</ele>
        <time>2015-11-11T12:16:46.973Z</time>
      </trkpt>
      <trkpt lat="45.9254" lon="4.76001">
        <ele>171.5</ele>
        <time>2015-11-11T12:16:47.97Z</time>
      </trkpt>
      <trkpt lat="45.92536" lon="4.75999">
        <ele>171.600006104</ele>
        <time>2015-11-11T12:16:48.973Z</time>
      </trkpt>
      <trkpt lat="45.92532" lon="4.75996">
        <ele>171.399993896</ele>
        <time>2015-11-11T12:16:49.959Z</time>
      </trkpt>
      <trkpt lat="45.92527" lon="4.75993">
        <ele>171.300003052</ele>
        <time>2015-11-11T12:16:50.976Z</time>
      </trkpt>
      <trkpt lat="45.92523" lon="4.7599">
        <ele>171.199996948</ele>
        <time>2015-11-11T12:16:51.957Z</time>
      </trkpt>
      <trkpt lat="45.92519" lon="4.75987">
        <ele>171.100006104</ele>
        <time>2015-11-11T12:16:52.974Z</time>
      </trkpt>
      <trkpt lat="45.92515" lon="4.75984">
        <ele>171</ele>
        <time>2015-11-11T12:16:53.957Z</time>
      </trkpt>
      <trkpt lat="45.92511" lon="4.75982">
        <ele>171</ele>
        <time>2015-11-11T12:16:54.972Z</time>
      </trkpt>
      <trkpt lat="45.92506" lon="4.75979">
        <ele>171.100006104</ele>
        <time>2015-11-11T12:16:55.957Z</time>
      </trkpt>
      <trkpt lat="45.92502" lon="4.75976">
        <ele>171.100006104</ele>
        <time>2015-11-11T12:16:56.976Z</time>
      </trkpt>
      <trkpt lat="45.92497" lon="4.75973">
        <ele>170.899993896</ele>
        <time>2015-11-11T12:16:57.958Z</time>
      </trkpt>
      <trkpt lat="45.92493" lon="4.7597">
        <ele>170.899993896</ele>
        <time>2015-11-11T12:16:58.973Z</time>
      </trkpt>
      <trkpt lat="45.92488" lon="4.75967">
        <ele>170.699996948</ele>
        <time>2015-11-11T12:16:59.958Z</time>
      </trkpt>
      <trkpt lat="45.92483" lon="4.75963">
        <ele>170.600006104</ele>
        <time>2015-11-11T12:17:00.973Z</time>
      </trkpt>
      <trkpt lat="45.92478" lon="4.7596">
        <ele>170.199996948</ele>
        <time>2015-11-11T12:17:01.958Z</time>
      </trkpt>
      <trkpt lat="45.92474" lon="4.75956">
        <ele>170.100006104</ele>
        <time>2015-11-11T12:17:02.977Z</time>
      </trkpt>
      <trkpt lat="45.92468" lon="4.75953">
        <ele>169.899993896</ele>
        <time>2015-11-11T12:17:03.958Z</time>
      </trkpt>
      <trkpt lat="45.92463" lon="4.7595">
        <ele>169.800003052</ele>
        <time>2015-11-11T12:17:04.973Z</time>
      </trkpt>
      <trkpt lat="45.92458" lon="4.75947">
        <ele>169.5</ele>
        <time>2015-11-11T12:17:05.958Z</time>
      </trkpt>
      <trkpt lat="45.92452" lon="4.75944">
        <ele>169.300003052</ele>
        <time>2015-11-11T12:17:06.972Z</time>
      </trkpt>
      <trkpt lat="45.92447" lon="4.7594">
        <ele>169</ele>
        <time>2015-11-11T12:17:07.957Z</time>
      </trkpt>
      <trkpt lat="45.92441" lon="4.75936">
        <ele>168.800003052</ele>
        <time>2015-11-11T12:17:08.99Z</time>
      </trkpt>
      <trkpt lat="45.92436" lon="4.75932">
        <ele>168.600006104</ele>
        <time>2015-11-11T12:17:09.957Z</time>
      </trkpt>
      <trkpt lat="45.9243" lon="4.75928">
        <ele>168.399993896</ele>
        <time>2015-11-11T12:17:10.974Z</time>
      </trkpt>
      <trkpt lat="45.92424" lon="4.75924">
        <ele>168</ele>
        <time>2015-11-11T12:17:11.958Z</time>
      </trkpt>
      <trkpt lat="45.92418" lon="4.7592">
        <ele>167.800003052</ele>
        <time>2015-11-11T12:17:13.087Z</time>
      </trkpt>
      <trkpt lat="45.92412" lon="4.75916">
        <ele>167.600006104</ele>
        <time>2015-11-11T12:17:13.958Z</time>
      </trkpt>
      <trkpt lat="45.92405" lon="4.75912">
        <ele>167.300003052</ele>
        <time>2015-11-11T12:17:14.975Z</time>
      </trkpt>
      <trkpt lat="45.92399" lon="4.75907">
        <ele>167.100006104</ele>
        <time>2015-11-11T12:17:15.959Z</time>
      </trkpt>
      <trkpt lat="45.92393" lon="4.75903">
        <ele>166.899993896</ele>
        <time>2015-11-11T12:17:16.974Z</time>
      </trkpt>
      <trkpt lat="45.92386" lon="4.75899">
        <ele>166.800003052</ele>
        <time>2015-11-11T12:17:17.958Z</time>
      </trkpt>
      <trkpt lat="45.9238" lon="4.75894">
        <ele>166.699996948</ele>
        <time>2015-11-11T12:17:18.979Z</time>
      </trkpt>
      <trkpt lat="45.92374" lon="4.7589">
        <ele>166.699996948</ele>
        <time>2015-11-11T12:17:19.958Z</time>
      </trkpt>
      <trkpt lat="45.92368" lon="4.75886">
        <ele>166.600006104</ele>
        <time>2015-11-11T12:17:20.975Z</time>
      </trkpt>
      <trkpt lat="45.92363" lon="4.75881">
        <ele>166.600006104</ele>
        <time>2015-11-11T12:17:21.957Z</time>
      </trkpt>
      <trkpt lat="45.92357" lon="4.75877">
        <ele>166.5</ele>
        <time>2015-11-11T12:17:22.973Z</time>
      </trkpt>
      <trkpt lat="45.92351" lon="4.75874">
        <ele>166.5</ele>
        <time>2015-11-11T12:17:23.958Z</time>
      </trkpt>
      <trkpt lat="45.92346" lon="4.7587">
        <ele>166.600006104</ele>
        <time>2015-11-11T12:17:24.972Z</time>
      </trkpt>
      <trkpt lat="45.92341" lon="4.75867">
        <ele>166.600006104</ele>
        <time>2015-11-11T12:17:25.958Z</time>
      </trkpt>
      <trkpt lat="45.92336" lon="4.75864">
        <ele>166.300003052</ele>
        <time>2015-11-11T12:17:26.975Z</time>
      </trkpt>
      <trkpt lat="45.9233" lon="4.75861">
        <ele>166.300003052</ele>
        <time>2015-11-11T12:17:27.958Z</time>
      </trkpt>
      <trkpt lat="45.92325" lon="4.75858">
        <ele>166.300003052</ele>
        <time>2015-11-11T12:17:28.973Z</time>
      </trkpt>
      <trkpt lat="45.92321" lon="4.75855">
        <ele>166.300003052</ele>
        <time>2015-11-11T12:17:29.957Z</time>
      </trkpt>
      <trkpt lat="45.92316" lon="4.75852">
        <ele>166.300003052</ele>
        <time>2015-11-11T12:17:30.985Z</time>
      </trkpt>
      <trkpt lat="45.92311" lon="4.75849">
        <ele>166.300003052</ele>
        <time>2015-11-11T12:17:31.957Z</time>
      </trkpt>
      <trkpt lat="45.92306" lon="4.75845">
        <ele>166.300003052</ele>
        <time>2015-11-11T12:17:32.975Z</time>
      </trkpt>
      <trkpt lat="45.92302" lon="4.75842">
        <ele>166.300003052</ele>
        <time>2015-11-11T12:17:33.957Z</time>
      </trkpt>
      <trkpt lat="45.92297" lon="4.75839">
        <ele>166.399993896</ele>
        <time>2015-11-11T12:17:34.973Z</time>
      </trkpt>
      <trkpt lat="45.92292" lon="4.75836">
        <ele>166.300003052</ele>
        <time>2015-11-11T12:17:35.957Z</time>
      </trkpt>
      <trkpt lat="45.92287" lon="4.75833">
        <ele>166.300003052</ele>
        <time>2015-11-11T12:17:36.972Z</time>
      </trkpt>
      <trkpt lat="45.92282" lon="4.7583">
        <ele>166.399993896</ele>
        <time>2015-11-11T12:17:37.957Z</time>
      </trkpt>
      <trkpt lat="45.92277" lon="4.75827">
        <ele>166.300003052</ele>
        <time>2015-11-11T12:17:38.975Z</time>
      </trkpt>
      <trkpt lat="45.92272" lon="4.75822">
        <ele>166.5</ele>
        <time>2015-11-11T12:17:39.96Z</time>
      </trkpt>
      <trkpt lat="45.92268" lon="4.75817">
        <ele>166.699996948</ele>
        <time>2015-11-11T12:17:40.973Z</time>
      </trkpt>
      <trkpt lat="45.92264" lon="4.75811">
        <ele>166.800003052</ele>
        <time>2015-11-11T12:17:41.959Z</time>
      </trkpt>
      <trkpt lat="45.92262" lon="4.75804">
        <ele>166.800003052</ele>
        <time>2015-11-11T12:17:42.972Z</time>
      </trkpt>
      <trkpt lat="45.9226" lon="4.75797">
        <ele>166.699996948</ele>
        <time>2015-11-11T12:17:43.958Z</time>
      </trkpt>
      <trkpt lat="45.92258" lon="4.7579">
        <ele>166.600006104</ele>
        <time>2015-11-11T12:17:44.975Z</time>
      </trkpt>
      <trkpt lat="45.92256" lon="4.75783">
        <ele>166.699996948</ele>
        <time>2015-11-11T12:17:45.957Z</time>
      </trkpt>
      <trkpt lat="45.92255" lon="4.75775">
        <ele>167.100006104</ele>
        <time>2015-11-11T12:17:46.987Z</time>
      </trkpt>
      <trkpt lat="45.92254" lon="4.75767">
        <ele>167.199996948</ele>
        <time>2015-11-11T12:17:47.957Z</time>
      </trkpt>
      <trkpt lat="45.92253" lon="4.75759">
        <ele>167.600006104</ele>
        <time>2015-11-11T12:17:48.972Z</time>
      </trkpt>
      <trkpt lat="45.92252" lon="4.75751">
        <ele>168</ele>
        <time>2015-11-11T12:17:49.995Z</time>
      </trkpt>
      <trkpt lat="45.9225" lon="4.75743">
        <ele>168.100006104</ele>
        <time>2015-11-11T12:17:50.975Z</time>
      </trkpt>
      <trkpt lat="45.92249" lon="4.75735">
        <ele>168.5</ele>
        <time>2015-11-11T12:17:51.958Z</time>
      </trkpt>
      <trkpt lat="45.92246" lon="4.75728">
        <ele>168.699996948</ele>
        <time>2015-11-11T12:17:52.973Z</time>
      </trkpt>
      <trkpt lat="45.92244" lon="4.7572">
        <ele>169.199996948</ele>
        <time>2015-11-11T12:17:53.957Z</time>
      </trkpt>
      <trkpt lat="45.92241" lon="4.75713">
        <ele>169.100006104</ele>
        <time>2015-11-11T12:17:54.972Z</time>
      </trkpt>
      <trkpt lat="45.92237" lon="4.75706">
        <ele>168.899993896</ele>
        <time>2015-11-11T12:17:55.957Z</time>
      </trkpt>
      <trkpt lat="45.92234" lon="4.757">
        <ele>168.899993896</ele>
        <time>2015-11-11T12:17:56.975Z</time>
      </trkpt>
      <trkpt lat="45.92229" lon="4.75695">
        <ele>169</ele>
        <time>2015-11-11T12:17:57.957Z</time>
      </trkpt>
      <trkpt lat="45.92225" lon="4.7569">
        <ele>169</ele>
        <time>2015-11-11T12:17:58.973Z</time>
      </trkpt>
      <trkpt lat="45.92221" lon="4.75686">
        <ele>168.899993896</ele>
        <time>2015-11-11T12:17:59.957Z</time>
      </trkpt>
      <trkpt lat="45.92216" lon="4.75681">
        <ele>168.399993896</ele>
        <time>2015-11-11T12:18:00.972Z</time>
      </trkpt>
      <trkpt lat="45.92211" lon="4.75676">
        <ele>168.399993896</ele>
        <time>2015-11-11T12:18:01.958Z</time>
      </trkpt>
      <trkpt lat="45.92206" lon="4.75672">
        <ele>168.300003052</ele>
        <time>2015-11-11T12:18:02.989Z</time>
      </trkpt>
      <trkpt lat="45.92201" lon="4.75667">
        <ele>168.199996948</ele>
        <time>2015-11-11T12:18:03.957Z</time>
      </trkpt>
      <trkpt lat="45.92196" lon="4.75662">
        <ele>168.100006104</ele>
        <time>2015-11-11T12:18:04.973Z</time>
      </trkpt>
      <trkpt lat="45.92191" lon="4.75657">
        <ele>168.199996948</ele>
        <time>2015-11-11T12:18:05.958Z</time>
      </trkpt>
      <trkpt lat="45.92186" lon="4.75652">
        <ele>168.100006104</ele>
        <time>2015-11-11T12:18:06.972Z</time>
      </trkpt>
      <trkpt lat="45.92181" lon="4.75648">
        <ele>167.899993896</ele>
        <time>2015-11-11T12:18:07.957Z</time>
      </trkpt>
      <trkpt lat="45.92176" lon="4.75643">
        <ele>167.800003052</ele>
        <time>2015-11-11T12:18:08.975Z</time>
      </trkpt>
      <trkpt lat="45.92172" lon="4.75639">
        <ele>167.800003052</ele>
        <time>2015-11-11T12:18:09.957Z</time>
      </trkpt>
      <trkpt lat="45.92167" lon="4.75635">
        <ele>167.600006104</ele>
        <time>2015-11-11T12:18:10.978Z</time>
      </trkpt>
      <trkpt lat="45.92162" lon="4.7563">
        <ele>167.600006104</ele>
        <time>2015-11-11T12:18:12.068Z</time>
      </trkpt>
      <trkpt lat="45.92158" lon="4.75626">
        <ele>167.399993896</ele>
        <time>2015-11-11T12:18:12.972Z</time>
      </trkpt>
      <trkpt lat="45.92154" lon="4.75622">
        <ele>167.399993896</ele>
        <time>2015-11-11T12:18:13.957Z</time>
      </trkpt>
      <trkpt lat="45.9215" lon="4.75618">
        <ele>167.300003052</ele>
        <time>2015-11-11T12:18:14.974Z</time>
      </trkpt>
      <trkpt lat="45.92146" lon="4.75613">
        <ele>167.5</ele>
        <time>2015-11-11T12:18:15.957Z</time>
      </trkpt>
      <trkpt lat="45.92142" lon="4.75609">
        <ele>167.699996948</ele>
        <time>2015-11-11T12:18:16.973Z</time>
      </trkpt>
      <trkpt lat="45.92138" lon="4.75605">
        <ele>167.600006104</ele>
        <time>2015-11-11T12:18:17.958Z</time>
      </trkpt>
      <trkpt lat="45.92134" lon="4.75601">
        <ele>167.5</ele>
        <time>2015-11-11T12:18:18.984Z</time>
      </trkpt>
      <trkpt lat="45.92129" lon="4.75597">
        <ele>167.300003052</ele>
        <time>2015-11-11T12:18:19.958Z</time>
      </trkpt>
      <trkpt lat="45.92126" lon="4.75592">
        <ele>167.5</ele>
        <time>2015-11-11T12:18:20.975Z</time>
      </trkpt>
      <trkpt lat="45.92121" lon="4.75587">
        <ele>167.199996948</ele>
        <time>2015-11-11T12:18:21.957Z</time>
      </trkpt>
      <trkpt lat="45.92118" lon="4.75582">
        <ele>167.300003052</ele>
        <time>2015-11-11T12:18:22.973Z</time>
      </trkpt>
      <trkpt lat="45.92116" lon="4.75575">
        <ele>167.399993896</ele>
        <time>2015-11-11T12:18:23.957Z</time>
      </trkpt>
      <trkpt lat="45.92114" lon="4.75564">
        <ele>166.800003052</ele>
        <time>2015-11-11T12:18:25.972Z</time>
      </trkpt>
      <trkpt lat="45.92116" lon="4.75559">
        <ele>166.199996948</ele>
        <time>2015-11-11T12:18:26.961Z</time>
      </trkpt>
      <trkpt lat="45.9212" lon="4.7555">
        <ele>165.699996948</ele>
        <time>2015-11-11T12:18:28.973Z</time>
      </trkpt>
      <trkpt lat="45.92123" lon="4.75545">
        <ele>165.399993896</ele>
        <time>2015-11-11T12:18:29.958Z</time>
      </trkpt>
      <trkpt lat="45.92128" lon="4.75536">
        <ele>165.600006104</ele>
        <time>2015-11-11T12:18:31.972Z</time>
      </trkpt>
      <trkpt lat="45.92131" lon="4.75531">
        <ele>165.899993896</ele>
        <time>2015-11-11T12:18:32.961Z</time>
      </trkpt>
      <trkpt lat="45.92134" lon="4.75526">
        <ele>166.100006104</ele>
        <time>2015-11-11T12:18:33.973Z</time>
      </trkpt>
      <trkpt lat="45.92137" lon="4.7552">
        <ele>166.300003052</ele>
        <time>2015-11-11T12:18:34.971Z</time>
      </trkpt>
      <trkpt lat="45.92141" lon="4.75514">
        <ele>166.5</ele>
        <time>2015-11-11T12:18:35.972Z</time>
      </trkpt>
      <trkpt lat="45.92144" lon="4.75508">
        <ele>166.5</ele>
        <time>2015-11-11T12:18:36.958Z</time>
      </trkpt>
      <trkpt lat="45.92147" lon="4.75502">
        <ele>166.699996948</ele>
        <time>2015-11-11T12:18:37.972Z</time>
      </trkpt>
      <trkpt lat="45.92149" lon="4.75496">
        <ele>167</ele>
        <time>2015-11-11T12:18:38.961Z</time>
      </trkpt>
      <trkpt lat="45.92152" lon="4.75489">
        <ele>167.5</ele>
        <time>2015-11-11T12:18:39.975Z</time>
      </trkpt>
      <trkpt lat="45.92155" lon="4.75483">
        <ele>167.300003052</ele>
        <time>2015-11-11T12:18:40.958Z</time>
      </trkpt>
      <trkpt lat="45.92157" lon="4.75476">
        <ele>167.399993896</ele>
        <time>2015-11-11T12:18:41.971Z</time>
      </trkpt>
      <trkpt lat="45.9216" lon="4.7547">
        <ele>167.699996948</ele>
        <time>2015-11-11T12:18:42.957Z</time>
      </trkpt>
      <trkpt lat="45.92162" lon="4.75464">
        <ele>168</ele>
        <time>2015-11-11T12:18:43.972Z</time>
      </trkpt>
      <trkpt lat="45.92165" lon="4.75458">
        <ele>168.300003052</ele>
        <time>2015-11-11T12:18:44.998Z</time>
      </trkpt>
      <trkpt lat="45.92167" lon="4.75451">
        <ele>168.699996948</ele>
        <time>2015-11-11T12:18:45.972Z</time>
      </trkpt>
      <trkpt lat="45.9217" lon="4.75445">
        <ele>168.800003052</ele>
        <time>2015-11-11T12:18:46.958Z</time>
      </trkpt>
      <trkpt lat="45.92172" lon="4.75439">
        <ele>169</ele>
        <time>2015-11-11T12:18:47.972Z</time>
      </trkpt>
      <trkpt lat="45.92174" lon="4.75432">
        <ele>169.199996948</ele>
        <time>2015-11-11T12:18:48.957Z</time>
      </trkpt>
      <trkpt lat="45.92176" lon="4.75426">
        <ele>169.600006104</ele>
        <time>2015-11-11T12:18:49.971Z</time>
      </trkpt>
      <trkpt lat="45.92178" lon="4.7542">
        <ele>170</ele>
        <time>2015-11-11T12:18:50.96Z</time>
      </trkpt>
      <trkpt lat="45.9218" lon="4.75414">
        <ele>170.199996948</ele>
        <time>2015-11-11T12:18:51.971Z</time>
      </trkpt>
      <trkpt lat="45.92183" lon="4.75408">
        <ele>170.600006104</ele>
        <time>2015-11-11T12:18:52.958Z</time>
      </trkpt>
      <trkpt lat="45.92186" lon="4.75397">
        <ele>170.800003052</ele>
        <time>2015-11-11T12:18:54.971Z</time>
      </trkpt>
      <trkpt lat="45.92188" lon="4.75391">
        <ele>171.199996948</ele>
        <time>2015-11-11T12:18:55.957Z</time>
      </trkpt>
      <trkpt lat="45.92191" lon="4.75385">
        <ele>171.600006104</ele>
        <time>2015-11-11T12:18:56.975Z</time>
      </trkpt>
      <trkpt lat="45.92192" lon="4.75379">
        <ele>171.699996948</ele>
        <time>2015-11-11T12:18:57.957Z</time>
      </trkpt>
      <trkpt lat="45.92195" lon="4.75373">
        <ele>171.800003052</ele>
        <time>2015-11-11T12:18:58.973Z</time>
      </trkpt>
      <trkpt lat="45.92197" lon="4.75367">
        <ele>171.899993896</ele>
        <time>2015-11-11T12:18:59.959Z</time>
      </trkpt>
      <trkpt lat="45.92199" lon="4.75361">
        <ele>171.800003052</ele>
        <time>2015-11-11T12:19:00.972Z</time>
      </trkpt>
      <trkpt lat="45.92201" lon="4.75355">
        <ele>171.899993896</ele>
        <time>2015-11-11T12:19:01.957Z</time>
      </trkpt>
      <trkpt lat="45.92203" lon="4.75348">
        <ele>171.899993896</ele>
        <time>2015-11-11T12:19:02.976Z</time>
      </trkpt>
      <trkpt lat="45.92205" lon="4.75341">
        <ele>171.800003052</ele>
        <time>2015-11-11T12:19:03.957Z</time>
      </trkpt>
      <trkpt lat="45.92207" lon="4.75334">
        <ele>171.800003052</ele>
        <time>2015-11-11T12:19:04.974Z</time>
      </trkpt>
      <trkpt lat="45.92208" lon="4.75326">
        <ele>171.600006104</ele>
        <time>2015-11-11T12:19:05.957Z</time>
      </trkpt>
      <trkpt lat="45.9221" lon="4.75318">
        <ele>170.199996948</ele>
        <time>2015-11-11T12:19:06.985Z</time>
      </trkpt>
      <trkpt lat="45.92212" lon="4.75311">
        <ele>170.100006104</ele>
        <time>2015-11-11T12:19:07.957Z</time>
      </trkpt>
      <trkpt lat="45.92212" lon="4.75303">
        <ele>170</ele>
        <time>2015-11-11T12:19:08.975Z</time>
      </trkpt>
      <trkpt lat="45.92212" lon="4.75294">
        <ele>169.699996948</ele>
        <time>2015-11-11T12:19:09.957Z</time>
      </trkpt>
      <trkpt lat="45.92213" lon="4.75285">
        <ele>169.399993896</ele>
        <time>2015-11-11T12:19:10.973Z</time>
      </trkpt>
      <trkpt lat="45.92213" lon="4.75277">
        <ele>169</ele>
        <time>2015-11-11T12:19:11.958Z</time>
      </trkpt>
      <trkpt lat="45.92213" lon="4.75267">
        <ele>168.600006104</ele>
        <time>2015-11-11T12:19:12.971Z</time>
      </trkpt>
      <trkpt lat="45.92214" lon="4.75258">
        <ele>168.300003052</ele>
        <time>2015-11-11T12:19:13.957Z</time>
      </trkpt>
      <trkpt lat="45.92214" lon="4.7525">
        <ele>167.899993896</ele>
        <time>2015-11-11T12:19:14.975Z</time>
      </trkpt>
      <trkpt lat="45.92214" lon="4.75241">
        <ele>167.600006104</ele>
        <time>2015-11-11T12:19:15.957Z</time>
      </trkpt>
      <trkpt lat="45.92215" lon="4.75233">
        <ele>167.100006104</ele>
        <time>2015-11-11T12:19:16.972Z</time>
      </trkpt>
      <trkpt lat="45.92215" lon="4.75225">
        <ele>166.699996948</ele>
        <time>2015-11-11T12:19:17.957Z</time>
      </trkpt>
      <trkpt lat="45.92216" lon="4.75216">
        <ele>166.300003052</ele>
        <time>2015-11-11T12:19:18.971Z</time>
      </trkpt>
      <trkpt lat="45.92217" lon="4.75208">
        <ele>166</ele>
        <time>2015-11-11T12:19:19.957Z</time>
      </trkpt>
      <trkpt lat="45.92219" lon="4.75199">
        <ele>165.899993896</ele>
        <time>2015-11-11T12:19:20.974Z</time>
      </trkpt>
      <trkpt lat="45.92221" lon="4.75191">
        <ele>165.800003052</ele>
        <time>2015-11-11T12:19:21.957Z</time>
      </trkpt>
      <trkpt lat="45.92223" lon="4.75183">
        <ele>165.5</ele>
        <time>2015-11-11T12:19:22.986Z</time>
      </trkpt>
      <trkpt lat="45.92226" lon="4.75175">
        <ele>165.300003052</ele>
        <time>2015-11-11T12:19:23.956Z</time>
      </trkpt>
      <trkpt lat="45.9223" lon="4.75167">
        <ele>165.199996948</ele>
        <time>2015-11-11T12:19:24.971Z</time>
      </trkpt>
      <trkpt lat="45.92233" lon="4.7516">
        <ele>165</ele>
        <time>2015-11-11T12:19:25.957Z</time>
      </trkpt>
      <trkpt lat="45.92236" lon="4.75153">
        <ele>164.800003052</ele>
        <time>2015-11-11T12:19:26.974Z</time>
      </trkpt>
      <trkpt lat="45.9224" lon="4.75146">
        <ele>164.5</ele>
        <time>2015-11-11T12:19:27.957Z</time>
      </trkpt>
      <trkpt lat="45.92244" lon="4.7514">
        <ele>164.300003052</ele>
        <time>2015-11-11T12:19:28.972Z</time>
      </trkpt>
      <trkpt lat="45.92249" lon="4.75134">
        <ele>164.100006104</ele>
        <time>2015-11-11T12:19:29.957Z</time>
      </trkpt>
      <trkpt lat="45.92253" lon="4.75128">
        <ele>163.899993896</ele>
        <time>2015-11-11T12:19:30.99Z</time>
      </trkpt>
      <trkpt lat="45.92257" lon="4.75122">
        <ele>163.600006104</ele>
        <time>2015-11-11T12:19:31.956Z</time>
      </trkpt>
      <trkpt lat="45.92261" lon="4.75117">
        <ele>163.300003052</ele>
        <time>2015-11-11T12:19:32.974Z</time>
      </trkpt>
      <trkpt lat="45.92266" lon="4.75112">
        <ele>163</ele>
        <time>2015-11-11T12:19:33.957Z</time>
      </trkpt>
      <trkpt lat="45.9227" lon="4.75107">
        <ele>163</ele>
        <time>2015-11-11T12:19:34.972Z</time>
      </trkpt>
      <trkpt lat="45.92274" lon="4.75103">
        <ele>162.899993896</ele>
        <time>2015-11-11T12:19:35.957Z</time>
      </trkpt>
      <trkpt lat="45.92279" lon="4.75098">
        <ele>163</ele>
        <time>2015-11-11T12:19:36.972Z</time>
      </trkpt>
      <trkpt lat="45.92284" lon="4.75093">
        <ele>162.899993896</ele>
        <time>2015-11-11T12:19:37.957Z</time>
      </trkpt>
      <trkpt lat="45.92288" lon="4.75089">
        <ele>162.800003052</ele>
        <time>2015-11-11T12:19:38.988Z</time>
      </trkpt>
      <trkpt lat="45.92293" lon="4.75084">
        <ele>162.600006104</ele>
        <time>2015-11-11T12:19:39.996Z</time>
      </trkpt>
      <trkpt lat="45.92297" lon="4.75079">
        <ele>162.399993896</ele>
        <time>2015-11-11T12:19:40.972Z</time>
      </trkpt>
      <trkpt lat="45.92302" lon="4.75074">
        <ele>162.399993896</ele>
        <time>2015-11-11T12:19:41.957Z</time>
      </trkpt>
      <trkpt lat="45.92306" lon="4.75068">
        <ele>162.600006104</ele>
        <time>2015-11-11T12:19:42.971Z</time>
      </trkpt>
      <trkpt lat="45.92311" lon="4.75061">
        <ele>162.699996948</ele>
        <time>2015-11-11T12:19:43.957Z</time>
      </trkpt>
      <trkpt lat="45.92315" lon="4.75055">
        <ele>163</ele>
        <time>2015-11-11T12:19:44.974Z</time>
      </trkpt>
      <trkpt lat="45.9232" lon="4.75048">
        <ele>163.100006104</ele>
        <time>2015-11-11T12:19:45.957Z</time>
      </trkpt>
      <trkpt lat="45.92324" lon="4.75042">
        <ele>162.899993896</ele>
        <time>2015-11-11T12:19:46.972Z</time>
      </trkpt>
      <trkpt lat="45.92327" lon="4.75036">
        <ele>163.100006104</ele>
        <time>2015-11-11T12:19:47.957Z</time>
      </trkpt>
      <trkpt lat="45.9233" lon="4.75031">
        <ele>164.100006104</ele>
        <time>2015-11-11T12:19:48.971Z</time>
      </trkpt>
      <trkpt lat="45.92332" lon="4.75024">
        <ele>164</ele>
        <time>2015-11-11T12:19:49.957Z</time>
      </trkpt>
      <trkpt lat="45.92335" lon="4.75018">
        <ele>164.300003052</ele>
        <time>2015-11-11T12:19:50.974Z</time>
      </trkpt>
      <trkpt lat="45.92338" lon="4.75012">
        <ele>164.5</ele>
        <time>2015-11-11T12:19:51.957Z</time>
      </trkpt>
      <trkpt lat="45.92341" lon="4.75006">
        <ele>164.5</ele>
        <time>2015-11-11T12:19:52.972Z</time>
      </trkpt>
      <trkpt lat="45.92344" lon="4.75">
        <ele>164.600006104</ele>
        <time>2015-11-11T12:19:53.957Z</time>
      </trkpt>
      <trkpt lat="45.92346" lon="4.74994">
        <ele>164.800003052</ele>
        <time>2015-11-11T12:19:54.985Z</time>
      </trkpt>
      <trkpt lat="45.92348" lon="4.74987">
        <ele>164.800003052</ele>
        <time>2015-11-11T12:19:55.957Z</time>
      </trkpt>
      <trkpt lat="45.9235" lon="4.7498">
        <ele>165</ele>
        <time>2015-11-11T12:19:56.974Z</time>
      </trkpt>
      <trkpt lat="45.92353" lon="4.74974">
        <ele>164.699996948</ele>
        <time>2015-11-11T12:19:57.957Z</time>
      </trkpt>
      <trkpt lat="45.92355" lon="4.74967">
        <ele>164.600006104</ele>
        <time>2015-11-11T12:19:58.972Z</time>
      </trkpt>
      <trkpt lat="45.92357" lon="4.7496">
        <ele>164.399993896</ele>
        <time>2015-11-11T12:19:59.957Z</time>
      </trkpt>
      <trkpt lat="45.9236" lon="4.74953">
        <ele>164.199996948</ele>
        <time>2015-11-11T12:20:00.972Z</time>
      </trkpt>
      <trkpt lat="45.92363" lon="4.74946">
        <ele>164.5</ele>
        <time>2015-11-11T12:20:01.956Z</time>
      </trkpt>
      <trkpt lat="45.92366" lon="4.74939">
        <ele>164.699996948</ele>
        <time>2015-11-11T12:20:02.974Z</time>
      </trkpt>
      <trkpt lat="45.92368" lon="4.74932">
        <ele>164.899993896</ele>
        <time>2015-11-11T12:20:03.956Z</time>
      </trkpt>
      <trkpt lat="45.92371" lon="4.74925">
        <ele>164.800003052</ele>
        <time>2015-11-11T12:20:04.974Z</time>
      </trkpt>
      <trkpt lat="45.92373" lon="4.74919">
        <ele>165.199996948</ele>
        <time>2015-11-11T12:20:05.958Z</time>
      </trkpt>
      <trkpt lat="45.92376" lon="4.74912">
        <ele>165.399993896</ele>
        <time>2015-11-11T12:20:06.973Z</time>
      </trkpt>
      <trkpt lat="45.92379" lon="4.74904">
        <ele>165.199996948</ele>
        <time>2015-11-11T12:20:07.958Z</time>
      </trkpt>
      <trkpt lat="45.92382" lon="4.74897">
        <ele>165.300003052</ele>
        <time>2015-11-11T12:20:08.976Z</time>
      </trkpt>
      <trkpt lat="45.92385" lon="4.7489">
        <ele>165.800003052</ele>
        <time>2015-11-11T12:20:09.957Z</time>
      </trkpt>
      <trkpt lat="45.92388" lon="4.74884">
        <ele>166.100006104</ele>
        <time>2015-11-11T12:20:11.008Z</time>
      </trkpt>
      <trkpt lat="45.92391" lon="4.74877">
        <ele>166.399993896</ele>
        <time>2015-11-11T12:20:11.956Z</time>
      </trkpt>
      <trkpt lat="45.92393" lon="4.7487">
        <ele>166.300003052</ele>
        <time>2015-11-11T12:20:12.971Z</time>
      </trkpt>
      <trkpt lat="45.92395" lon="4.74863">
        <ele>166.399993896</ele>
        <time>2015-11-11T12:20:13.957Z</time>
      </trkpt>
      <trkpt lat="45.92397" lon="4.74856">
        <ele>166.699996948</ele>
        <time>2015-11-11T12:20:14.974Z</time>
      </trkpt>
      <trkpt lat="45.92399" lon="4.7485">
        <ele>166.699996948</ele>
        <time>2015-11-11T12:20:15.956Z</time>
      </trkpt>
      <trkpt lat="45.92401" lon="4.74843">
        <ele>166.699996948</ele>
        <time>2015-11-11T12:20:16.972Z</time>
      </trkpt>
      <trkpt lat="45.92404" lon="4.74835">
        <ele>166.5</ele>
        <time>2015-11-11T12:20:17.956Z</time>
      </trkpt>
      <trkpt lat="45.92406" lon="4.74827">
        <ele>165.899993896</ele>
        <time>2015-11-11T12:20:18.971Z</time>
      </trkpt>
      <trkpt lat="45.92407" lon="4.7482">
        <ele>165.899993896</ele>
        <time>2015-11-11T12:20:19.957Z</time>
      </trkpt>
      <trkpt lat="45.92409" lon="4.74812">
        <ele>165.5</ele>
        <time>2015-11-11T12:20:20.974Z</time>
      </trkpt>
      <trkpt lat="45.9241" lon="4.74805">
        <ele>164.800003052</ele>
        <time>2015-11-11T12:20:21.956Z</time>
      </trkpt>
      <trkpt lat="45.92411" lon="4.74797">
        <ele>164.300003052</ele>
        <time>2015-11-11T12:20:22.972Z</time>
      </trkpt>
      <trkpt lat="45.92413" lon="4.7479">
        <ele>163.899993896</ele>
        <time>2015-11-11T12:20:23.956Z</time>
      </trkpt>
      <trkpt lat="45.92414" lon="4.74783">
        <ele>163.5</ele>
        <time>2015-11-11T12:20:24.971Z</time>
      </trkpt>
      <trkpt lat="45.92416" lon="4.74776">
        <ele>163.800003052</ele>
        <time>2015-11-11T12:20:25.956Z</time>
      </trkpt>
      <trkpt lat="45.92418" lon="4.74768">
        <ele>164</ele>
        <time>2015-11-11T12:20:26.992Z</time>
      </trkpt>
      <trkpt lat="45.92421" lon="4.74761">
        <ele>164.100006104</ele>
        <time>2015-11-11T12:20:27.956Z</time>
      </trkpt>
      <trkpt lat="45.92423" lon="4.74754">
        <ele>164.300003052</ele>
        <time>2015-11-11T12:20:28.973Z</time>
      </trkpt>
      <trkpt lat="45.92425" lon="4.74747">
        <ele>164.600006104</ele>
        <time>2015-11-11T12:20:29.956Z</time>
      </trkpt>
      <trkpt lat="45.92427" lon="4.7474">
        <ele>165</ele>
        <time>2015-11-11T12:20:30.971Z</time>
      </trkpt>
      <trkpt lat="45.9243" lon="4.74733">
        <ele>165.100006104</ele>
        <time>2015-11-11T12:20:31.956Z</time>
      </trkpt>
      <trkpt lat="45.92432" lon="4.74726">
        <ele>165.300003052</ele>
        <time>2015-11-11T12:20:32.974Z</time>
      </trkpt>
      <trkpt lat="45.92434" lon="4.74719">
        <ele>165.300003052</ele>
        <time>2015-11-11T12:20:33.956Z</time>
      </trkpt>
      <trkpt lat="45.92437" lon="4.74713">
        <ele>165.300003052</ele>
        <time>2015-11-11T12:20:34.988Z</time>
      </trkpt>
      <trkpt lat="45.9244" lon="4.74706">
        <ele>165.300003052</ele>
        <time>2015-11-11T12:20:35.957Z</time>
      </trkpt>
      <trkpt lat="45.92442" lon="4.747">
        <ele>165.199996948</ele>
        <time>2015-11-11T12:20:36.971Z</time>
      </trkpt>
      <trkpt lat="45.92445" lon="4.74695">
        <ele>165.199996948</ele>
        <time>2015-11-11T12:20:37.956Z</time>
      </trkpt>
      <trkpt lat="45.92448" lon="4.74689">
        <ele>165.100006104</ele>
        <time>2015-11-11T12:20:38.974Z</time>
      </trkpt>
      <trkpt lat="45.9245" lon="4.74683">
        <ele>165.100006104</ele>
        <time>2015-11-11T12:20:39.959Z</time>
      </trkpt>
      <trkpt lat="45.92453" lon="4.74678">
        <ele>165.100006104</ele>
        <time>2015-11-11T12:20:40.972Z</time>
      </trkpt>
      <trkpt lat="45.92456" lon="4.74672">
        <ele>165.100006104</ele>
        <time>2015-11-11T12:20:41.956Z</time>
      </trkpt>
      <trkpt lat="45.9246" lon="4.74662">
        <ele>165</ele>
        <time>2015-11-11T12:20:43.976Z</time>
      </trkpt>
      <trkpt lat="45.92463" lon="4.74656">
        <ele>164.899993896</ele>
        <time>2015-11-11T12:20:44.959Z</time>
      </trkpt>
      <trkpt lat="45.92466" lon="4.7465">
        <ele>164.800003052</ele>
        <time>2015-11-11T12:20:45.971Z</time>
      </trkpt>
      <trkpt lat="45.92469" lon="4.74644">
        <ele>165.100006104</ele>
        <time>2015-11-11T12:20:46.957Z</time>
      </trkpt>
      <trkpt lat="45.92472" lon="4.74638">
        <ele>165.199996948</ele>
        <time>2015-11-11T12:20:47.971Z</time>
      </trkpt>
      <trkpt lat="45.92476" lon="4.74633">
        <ele>165.300003052</ele>
        <time>2015-11-11T12:20:48.957Z</time>
      </trkpt>
      <trkpt lat="45.92479" lon="4.74628">
        <ele>165.199996948</ele>
        <time>2015-11-11T12:20:49.984Z</time>
      </trkpt>
      <trkpt lat="45.92484" lon="4.74622">
        <ele>165.399993896</ele>
        <time>2015-11-11T12:20:50.96Z</time>
      </trkpt>
      <trkpt lat="45.92488" lon="4.74616">
        <ele>165.300003052</ele>
        <time>2015-11-11T12:20:51.971Z</time>
      </trkpt>
      <trkpt lat="45.92492" lon="4.74611">
        <ele>165.5</ele>
        <time>2015-11-11T12:20:52.957Z</time>
      </trkpt>
      <trkpt lat="45.92497" lon="4.74606">
        <ele>165.600006104</ele>
        <time>2015-11-11T12:20:53.97Z</time>
      </trkpt>
      <trkpt lat="45.92501" lon="4.74601">
        <ele>165.600006104</ele>
        <time>2015-11-11T12:20:54.956Z</time>
      </trkpt>
      <trkpt lat="45.92506" lon="4.74596">
        <ele>165.5</ele>
        <time>2015-11-11T12:20:55.971Z</time>
      </trkpt>
      <trkpt lat="45.92511" lon="4.74591">
        <ele>165.600006104</ele>
        <time>2015-11-11T12:20:56.96Z</time>
      </trkpt>
      <trkpt lat="45.92515" lon="4.74587">
        <ele>165.699996948</ele>
        <time>2015-11-11T12:20:57.971Z</time>
      </trkpt>
      <trkpt lat="45.92519" lon="4.74582">
        <ele>165.5</ele>
        <time>2015-11-11T12:20:58.958Z</time>
      </trkpt>
      <trkpt lat="45.92523" lon="4.74577">
        <ele>165.600006104</ele>
        <time>2015-11-11T12:20:59.971Z</time>
      </trkpt>
      <trkpt lat="45.92527" lon="4.74572">
        <ele>165.699996948</ele>
        <time>2015-11-11T12:21:00.957Z</time>
      </trkpt>
      <trkpt lat="45.92531" lon="4.74567">
        <ele>165.399993896</ele>
        <time>2015-11-11T12:21:01.971Z</time>
      </trkpt>
      <trkpt lat="45.92534" lon="4.74562">
        <ele>165.800003052</ele>
        <time>2015-11-11T12:21:02.96Z</time>
      </trkpt>
      <trkpt lat="45.92538" lon="4.74557">
        <ele>165.800003052</ele>
        <time>2015-11-11T12:21:03.984Z</time>
      </trkpt>
      <trkpt lat="45.92541" lon="4.74551">
        <ele>165.699996948</ele>
        <time>2015-11-11T12:21:04.957Z</time>
      </trkpt>
      <trkpt lat="45.92545" lon="4.74545">
        <ele>165.699996948</ele>
        <time>2015-11-11T12:21:05.971Z</time>
      </trkpt>
      <trkpt lat="45.92548" lon="4.74539">
        <ele>165.600006104</ele>
        <time>2015-11-11T12:21:06.956Z</time>
      </trkpt>
      <trkpt lat="45.92552" lon="4.74533">
        <ele>165.5</ele>
        <time>2015-11-11T12:21:07.971Z</time>
      </trkpt>
      <trkpt lat="45.92556" lon="4.74527">
        <ele>165.399993896</ele>
        <time>2015-11-11T12:21:08.96Z</time>
      </trkpt>
      <trkpt lat="45.92559" lon="4.74521">
        <ele>165.5</ele>
        <time>2015-11-11T12:21:09.972Z</time>
      </trkpt>
      <trkpt lat="45.92562" lon="4.74515">
        <ele>165.5</ele>
        <time>2015-11-11T12:21:10.957Z</time>
      </trkpt>
      <trkpt lat="45.92564" lon="4.7451">
        <ele>165.199996948</ele>
        <time>2015-11-11T12:21:11.971Z</time>
      </trkpt>
      <trkpt lat="45.92567" lon="4.74505">
        <ele>165.399993896</ele>
        <time>2015-11-11T12:21:12.956Z</time>
      </trkpt>
      <trkpt lat="45.9257" lon="4.74499">
        <ele>165.199996948</ele>
        <time>2015-11-11T12:21:13.971Z</time>
      </trkpt>
      <trkpt lat="45.92573" lon="4.74494">
        <ele>164.899993896</ele>
        <time>2015-11-11T12:21:14.959Z</time>
      </trkpt>
      <trkpt lat="45.92576" lon="4.74488">
        <ele>164.600006104</ele>
        <time>2015-11-11T12:21:15.971Z</time>
      </trkpt>
      <trkpt lat="45.92579" lon="4.74482">
        <ele>164.300003052</ele>
        <time>2015-11-11T12:21:16.957Z</time>
      </trkpt>
      <trkpt lat="45.92583" lon="4.74476">
        <ele>164</ele>
        <time>2015-11-11T12:21:17.971Z</time>
      </trkpt>
      <trkpt lat="45.92586" lon="4.7447">
        <ele>164.5</ele>
        <time>2015-11-11T12:21:18.956Z</time>
      </trkpt>
      <trkpt lat="45.92589" lon="4.74464">
        <ele>164.800003052</ele>
        <time>2015-11-11T12:21:19.984Z</time>
      </trkpt>
      <trkpt lat="45.92592" lon="4.74458">
        <ele>164.5</ele>
        <time>2015-11-11T12:21:20.959Z</time>
      </trkpt>
      <trkpt lat="45.92596" lon="4.74452">
        <ele>164.800003052</ele>
        <time>2015-11-11T12:21:21.971Z</time>
      </trkpt>
      <trkpt lat="45.92599" lon="4.74447">
        <ele>164.899993896</ele>
        <time>2015-11-11T12:21:22.957Z</time>
      </trkpt>
      <trkpt lat="45.92602" lon="4.74441">
        <ele>164.800003052</ele>
        <time>2015-11-11T12:21:24.078Z</time>
      </trkpt>
      <trkpt lat="45.92606" lon="4.74435">
        <ele>164.600006104</ele>
        <time>2015-11-11T12:21:24.956Z</time>
      </trkpt>
      <trkpt lat="45.9261" lon="4.74428">
        <ele>164</ele>
        <time>2015-11-11T12:21:25.971Z</time>
      </trkpt>
      <trkpt lat="45.92613" lon="4.74422">
        <ele>163.5</ele>
        <time>2015-11-11T12:21:26.96Z</time>
      </trkpt>
      <trkpt lat="45.92616" lon="4.74416">
        <ele>163.600006104</ele>
        <time>2015-11-11T12:21:27.97Z</time>
      </trkpt>
      <trkpt lat="45.92619" lon="4.7441">
        <ele>163.5</ele>
        <time>2015-11-11T12:21:28.958Z</time>
      </trkpt>
      <trkpt lat="45.92623" lon="4.74404">
        <ele>163.5</ele>
        <time>2015-11-11T12:21:29.98Z</time>
      </trkpt>
      <trkpt lat="45.92626" lon="4.74398">
        <ele>163.5</ele>
        <time>2015-11-11T12:21:30.956Z</time>
      </trkpt>
      <trkpt lat="45.92629" lon="4.74392">
        <ele>163.399993896</ele>
        <time>2015-11-11T12:21:31.971Z</time>
      </trkpt>
      <trkpt lat="45.92632" lon="4.74386">
        <ele>163.300003052</ele>
        <time>2015-11-11T12:21:32.96Z</time>
      </trkpt>
      <trkpt lat="45.92635" lon="4.74381">
        <ele>163.399993896</ele>
        <time>2015-11-11T12:21:33.971Z</time>
      </trkpt>
      <trkpt lat="45.92639" lon="4.74375">
        <ele>163.5</ele>
        <time>2015-11-11T12:21:34.957Z</time>
      </trkpt>
      <trkpt lat="45.92642" lon="4.74369">
        <ele>163.600006104</ele>
        <time>2015-11-11T12:21:35.988Z</time>
      </trkpt>
      <trkpt lat="45.92645" lon="4.74363">
        <ele>164</ele>
        <time>2015-11-11T12:21:36.956Z</time>
      </trkpt>
      <trkpt lat="45.92648" lon="4.74357">
        <ele>164.199996948</ele>
        <time>2015-11-11T12:21:37.97Z</time>
      </trkpt>
      <trkpt lat="45.92651" lon="4.74352">
        <ele>164.199996948</ele>
        <time>2015-11-11T12:21:38.959Z</time>
      </trkpt>
      <trkpt lat="45.92655" lon="4.74346">
        <ele>164.300003052</ele>
        <time>2015-11-11T12:21:39.973Z</time>
      </trkpt>
      <trkpt lat="45.92658" lon="4.7434">
        <ele>164.300003052</ele>
        <time>2015-11-11T12:21:40.957Z</time>
      </trkpt>
      <trkpt lat="45.92661" lon="4.74334">
        <ele>164.399993896</ele>
        <time>2015-11-11T12:21:41.97Z</time>
      </trkpt>
      <trkpt lat="45.92664" lon="4.74328">
        <ele>164.300003052</ele>
        <time>2015-11-11T12:21:42.956Z</time>
      </trkpt>
      <trkpt lat="45.92667" lon="4.74322">
        <ele>164.300003052</ele>
        <time>2015-11-11T12:21:43.97Z</time>
      </trkpt>
      <trkpt lat="45.9267" lon="4.74316">
        <ele>164.300003052</ele>
        <time>2015-11-11T12:21:44.959Z</time>
      </trkpt>
      <trkpt lat="45.92673" lon="4.7431">
        <ele>164.399993896</ele>
        <time>2015-11-11T12:21:45.971Z</time>
      </trkpt>
      <trkpt lat="45.92677" lon="4.74304">
        <ele>164.399993896</ele>
        <time>2015-11-11T12:21:46.957Z</time>
      </trkpt>
      <trkpt lat="45.9268" lon="4.74299">
        <ele>164.300003052</ele>
        <time>2015-11-11T12:21:47.971Z</time>
      </trkpt>
      <trkpt lat="45.92683" lon="4.74293">
        <ele>164.300003052</ele>
        <time>2015-11-11T12:21:48.956Z</time>
      </trkpt>
      <trkpt lat="45.92687" lon="4.74287">
        <ele>164.399993896</ele>
        <time>2015-11-11T12:21:49.97Z</time>
      </trkpt>
      <trkpt lat="45.9269" lon="4.74281">
        <ele>164.399993896</ele>
        <time>2015-11-11T12:21:50.959Z</time>
      </trkpt>
      <trkpt lat="45.92693" lon="4.74275">
        <ele>164.300003052</ele>
        <time>2015-11-11T12:21:51.984Z</time>
      </trkpt>
      <trkpt lat="45.92697" lon="4.74269">
        <ele>164.300003052</ele>
        <time>2015-11-11T12:21:52.959Z</time>
      </trkpt>
      <trkpt lat="45.927" lon="4.74263">
        <ele>164.199996948</ele>
        <time>2015-11-11T12:21:53.97Z</time>
      </trkpt>
      <trkpt lat="45.92704" lon="4.74257">
        <ele>164.199996948</ele>
        <time>2015-11-11T12:21:54.956Z</time>
      </trkpt>
      <trkpt lat="45.92708" lon="4.74251">
        <ele>164.100006104</ele>
        <time>2015-11-11T12:21:55.97Z</time>
      </trkpt>
      <trkpt lat="45.92712" lon="4.74245">
        <ele>164.100006104</ele>
        <time>2015-11-11T12:21:56.959Z</time>
      </trkpt>
      <trkpt lat="45.92715" lon="4.74239">
        <ele>164.100006104</ele>
        <time>2015-11-11T12:21:57.97Z</time>
      </trkpt>
      <trkpt lat="45.92719" lon="4.74233">
        <ele>164.100006104</ele>
        <time>2015-11-11T12:21:58.957Z</time>
      </trkpt>
      <trkpt lat="45.92723" lon="4.74227">
        <ele>164.100006104</ele>
        <time>2015-11-11T12:21:59.97Z</time>
      </trkpt>
      <trkpt lat="45.92727" lon="4.74221">
        <ele>164</ele>
        <time>2015-11-11T12:22:00.956Z</time>
      </trkpt>
      <trkpt lat="45.92731" lon="4.74215">
        <ele>164</ele>
        <time>2015-11-11T12:22:01.986Z</time>
      </trkpt>
      <trkpt lat="45.92735" lon="4.74209">
        <ele>163.899993896</ele>
        <time>2015-11-11T12:22:02.96Z</time>
      </trkpt>
      <trkpt lat="45.92739" lon="4.74203">
        <ele>163.899993896</ele>
        <time>2015-11-11T12:22:03.97Z</time>
      </trkpt>
      <trkpt lat="45.92743" lon="4.74197">
        <ele>163.800003052</ele>
        <time>2015-11-11T12:22:04.957Z</time>
      </trkpt>
      <trkpt lat="45.92748" lon="4.74192">
        <ele>163.800003052</ele>
        <time>2015-11-11T12:22:05.97Z</time>
      </trkpt>
      <trkpt lat="45.92751" lon="4.74187">
        <ele>163.699996948</ele>
        <time>2015-11-11T12:22:06.956Z</time>
      </trkpt>
      <trkpt lat="45.92756" lon="4.74182">
        <ele>163.600006104</ele>
        <time>2015-11-11T12:22:07.984Z</time>
      </trkpt>
      <trkpt lat="45.9276" lon="4.74176">
        <ele>163.5</ele>
        <time>2015-11-11T12:22:08.959Z</time>
      </trkpt>
      <trkpt lat="45.92764" lon="4.74171">
        <ele>163.399993896</ele>
        <time>2015-11-11T12:22:09.97Z</time>
      </trkpt>
      <trkpt lat="45.92768" lon="4.74167">
        <ele>163.399993896</ele>
        <time>2015-11-11T12:22:10.957Z</time>
      </trkpt>
      <trkpt lat="45.92772" lon="4.74162">
        <ele>163.300003052</ele>
        <time>2015-11-11T12:22:11.998Z</time>
      </trkpt>
      <trkpt lat="45.92777" lon="4.74157">
        <ele>163.300003052</ele>
        <time>2015-11-11T12:22:12.956Z</time>
      </trkpt>
      <trkpt lat="45.92781" lon="4.74153">
        <ele>163.199996948</ele>
        <time>2015-11-11T12:22:13.971Z</time>
      </trkpt>
      <trkpt lat="45.92785" lon="4.74149">
        <ele>163.199996948</ele>
        <time>2015-11-11T12:22:14.959Z</time>
      </trkpt>
      <trkpt lat="45.92789" lon="4.74144">
        <ele>163.300003052</ele>
        <time>2015-11-11T12:22:15.971Z</time>
      </trkpt>
      <trkpt lat="45.92793" lon="4.7414">
        <ele>163.5</ele>
        <time>2015-11-11T12:22:16.957Z</time>
      </trkpt>
      <trkpt lat="45.92797" lon="4.74135">
        <ele>163.5</ele>
        <time>2015-11-11T12:22:17.971Z</time>
      </trkpt>
      <trkpt lat="45.92801" lon="4.7413">
        <ele>163.5</ele>
        <time>2015-11-11T12:22:18.957Z</time>
      </trkpt>
      <trkpt lat="45.92805" lon="4.74125">
        <ele>163.300003052</ele>
        <time>2015-11-11T12:22:19.97Z</time>
      </trkpt>
      <trkpt lat="45.9281" lon="4.74121">
        <ele>163.300003052</ele>
        <time>2015-11-11T12:22:20.959Z</time>
      </trkpt>
      <trkpt lat="45.92814" lon="4.74116">
        <ele>163.300003052</ele>
        <time>2015-11-11T12:22:21.97Z</time>
      </trkpt>
      <trkpt lat="45.92819" lon="4.74112">
        <ele>163.300003052</ele>
        <time>2015-11-11T12:22:22.957Z</time>
      </trkpt>
      <trkpt lat="45.92823" lon="4.74107">
        <ele>163.300003052</ele>
        <time>2015-11-11T12:22:23.984Z</time>
      </trkpt>
      <trkpt lat="45.92826" lon="4.74102">
        <ele>163.300003052</ele>
        <time>2015-11-11T12:22:24.964Z</time>
      </trkpt>
      <trkpt lat="45.9283" lon="4.74098">
        <ele>163.399993896</ele>
        <time>2015-11-11T12:22:25.971Z</time>
      </trkpt>
      <trkpt lat="45.92834" lon="4.74093">
        <ele>163.399993896</ele>
        <time>2015-11-11T12:22:26.959Z</time>
      </trkpt>
      <trkpt lat="45.92837" lon="4.74089">
        <ele>163.399993896</ele>
        <time>2015-11-11T12:22:27.972Z</time>
      </trkpt>
      <trkpt lat="45.92841" lon="4.74085">
        <ele>163.300003052</ele>
        <time>2015-11-11T12:22:28.957Z</time>
      </trkpt>
      <trkpt lat="45.92845" lon="4.7408">
        <ele>163.199996948</ele>
        <time>2015-11-11T12:22:29.971Z</time>
      </trkpt>
      <trkpt lat="45.92849" lon="4.74076">
        <ele>163.199996948</ele>
        <time>2015-11-11T12:22:30.956Z</time>
      </trkpt>
      <trkpt lat="45.92853" lon="4.74071">
        <ele>163.100006104</ele>
        <time>2015-11-11T12:22:31.97Z</time>
      </trkpt>
      <trkpt lat="45.92856" lon="4.74066">
        <ele>163.100006104</ele>
        <time>2015-11-11T12:22:32.959Z</time>
      </trkpt>
      <trkpt lat="45.9286" lon="4.74061">
        <ele>163</ele>
        <time>2015-11-11T12:22:33.971Z</time>
      </trkpt>
      <trkpt lat="45.92865" lon="4.74056">
        <ele>163</ele>
        <time>2015-11-11T12:22:34.957Z</time>
      </trkpt>
      <trkpt lat="45.92869" lon="4.74052">
        <ele>163</ele>
        <time>2015-11-11T12:22:35.998Z</time>
      </trkpt>
      <trkpt lat="45.92873" lon="4.74048">
        <ele>163.100006104</ele>
        <time>2015-11-11T12:22:36.956Z</time>
      </trkpt>
      <trkpt lat="45.92878" lon="4.74046">
        <ele>163.100006104</ele>
        <time>2015-11-11T12:22:37.97Z</time>
      </trkpt>
      <trkpt lat="45.92883" lon="4.74044">
        <ele>163.5</ele>
        <time>2015-11-11T12:22:38.961Z</time>
      </trkpt>
      <trkpt lat="45.92888" lon="4.74044">
        <ele>163.699996948</ele>
        <time>2015-11-11T12:22:39.986Z</time>
      </trkpt>
      <trkpt lat="45.92893" lon="4.74044">
        <ele>163.899993896</ele>
        <time>2015-11-11T12:22:40.957Z</time>
      </trkpt>
      <trkpt lat="45.92898" lon="4.74044">
        <ele>164</ele>
        <time>2015-11-11T12:22:41.971Z</time>
      </trkpt>
      <trkpt lat="45.92903" lon="4.74043">
        <ele>164.199996948</ele>
        <time>2015-11-11T12:22:42.956Z</time>
      </trkpt>
      <trkpt lat="45.92908" lon="4.74039">
        <ele>164</ele>
        <time>2015-11-11T12:22:43.97Z</time>
      </trkpt>
      <trkpt lat="45.92911" lon="4.74033">
        <ele>163.899993896</ele>
        <time>2015-11-11T12:22:44.959Z</time>
      </trkpt>
      <trkpt lat="45.92913" lon="4.74026">
        <ele>163.899993896</ele>
        <time>2015-11-11T12:22:45.971Z</time>
      </trkpt>
      <trkpt lat="45.92915" lon="4.74018">
        <ele>163.699996948</ele>
        <time>2015-11-11T12:22:46.958Z</time>
      </trkpt>
      <trkpt lat="45.92915" lon="4.7401">
        <ele>163.600006104</ele>
        <time>2015-11-11T12:22:47.971Z</time>
      </trkpt>
      <trkpt lat="45.92913" lon="4.74002">
        <ele>163.899993896</ele>
        <time>2015-11-11T12:22:48.957Z</time>
      </trkpt>
      <trkpt lat="45.9291" lon="4.73995">
        <ele>164.5</ele>
        <time>2015-11-11T12:22:49.971Z</time>
      </trkpt>
      <trkpt lat="45.92906" lon="4.73989">
        <ele>164.699996948</ele>
        <time>2015-11-11T12:22:50.959Z</time>
      </trkpt>
      <trkpt lat="45.92901" lon="4.73985">
        <ele>165.100006104</ele>
        <time>2015-11-11T12:22:51.998Z</time>
      </trkpt>
      <trkpt lat="45.92897" lon="4.7398">
        <ele>165.300003052</ele>
        <time>2015-11-11T12:22:52.957Z</time>
      </trkpt>
      <trkpt lat="45.92893" lon="4.73976">
        <ele>165.199996948</ele>
        <time>2015-11-11T12:22:53.971Z</time>
      </trkpt>
      <trkpt lat="45.92889" lon="4.73971">
        <ele>165.100006104</ele>
        <time>2015-11-11T12:22:54.956Z</time>
      </trkpt>
      <trkpt lat="45.92886" lon="4.73964">
        <ele>164.699996948</ele>
        <time>2015-11-11T12:22:55.983Z</time>
      </trkpt>
      <trkpt lat="45.92885" lon="4.73957">
        <ele>164.600006104</ele>
        <time>2015-11-11T12:22:56.959Z</time>
      </trkpt>
      <trkpt lat="45.92884" lon="4.73949">
        <ele>164.300003052</ele>
        <time>2015-11-11T12:22:57.97Z</time>
      </trkpt>
      <trkpt lat="45.92884" lon="4.73941">
        <ele>164.199996948</ele>
        <time>2015-11-11T12:22:58.957Z</time>
      </trkpt>
      <trkpt lat="45.92883" lon="4.73932">
        <ele>164</ele>
        <time>2015-11-11T12:22:59.97Z</time>
      </trkpt>
      <trkpt lat="45.92882" lon="4.73923">
        <ele>164.100006104</ele>
        <time>2015-11-11T12:23:00.956Z</time>
      </trkpt>
      <trkpt lat="45.92881" lon="4.73915">
        <ele>163.800003052</ele>
        <time>2015-11-11T12:23:01.978Z</time>
      </trkpt>
      <trkpt lat="45.9288" lon="4.73906">
        <ele>164</ele>
        <time>2015-11-11T12:23:02.959Z</time>
      </trkpt>
      <trkpt lat="45.92879" lon="4.73897">
        <ele>163.600006104</ele>
        <time>2015-11-11T12:23:03.97Z</time>
      </trkpt>
      <trkpt lat="45.92878" lon="4.73889">
        <ele>163.399993896</ele>
        <time>2015-11-11T12:23:04.957Z</time>
      </trkpt>
      <trkpt lat="45.92876" lon="4.73881">
        <ele>163.199996948</ele>
        <time>2015-11-11T12:23:05.97Z</time>
      </trkpt>
      <trkpt lat="45.92874" lon="4.73873">
        <ele>163.199996948</ele>
        <time>2015-11-11T12:23:06.956Z</time>
      </trkpt>
      <trkpt lat="45.92872" lon="4.73865">
        <ele>163.100006104</ele>
        <time>2015-11-11T12:23:07.97Z</time>
      </trkpt>
      <trkpt lat="45.9287" lon="4.73858">
        <ele>163.100006104</ele>
        <time>2015-11-11T12:23:08.961Z</time>
      </trkpt>
      <trkpt lat="45.92868" lon="4.7385">
        <ele>163.100006104</ele>
        <time>2015-11-11T12:23:09.97Z</time>
      </trkpt>
      <trkpt lat="45.92867" lon="4.73843">
        <ele>163.100006104</ele>
        <time>2015-11-11T12:23:10.957Z</time>
      </trkpt>
      <trkpt lat="45.92865" lon="4.73836">
        <ele>163</ele>
        <time>2015-11-11T12:23:11.983Z</time>
      </trkpt>
      <trkpt lat="45.92865" lon="4.7383">
        <ele>162.899993896</ele>
        <time>2015-11-11T12:23:12.956Z</time>
      </trkpt>
      <trkpt lat="45.92863" lon="4.73822">
        <ele>162.899993896</ele>
        <time>2015-11-11T12:23:13.97Z</time>
      </trkpt>
      <trkpt lat="45.9286" lon="4.73814">
        <ele>162.800003052</ele>
        <time>2015-11-11T12:23:14.959Z</time>
      </trkpt>
      <trkpt lat="45.92857" lon="4.73807">
        <ele>162.899993896</ele>
        <time>2015-11-11T12:23:15.971Z</time>
      </trkpt>
      <trkpt lat="45.92855" lon="4.73801">
        <ele>163.199996948</ele>
        <time>2015-11-11T12:23:16.957Z</time>
      </trkpt>
      <trkpt lat="45.92852" lon="4.73795">
        <ele>163.5</ele>
        <time>2015-11-11T12:23:18.009Z</time>
      </trkpt>
      <trkpt lat="45.92848" lon="4.73789">
        <ele>163.899993896</ele>
        <time>2015-11-11T12:23:18.957Z</time>
      </trkpt>
      <trkpt lat="45.92844" lon="4.73785">
        <ele>164.100006104</ele>
        <time>2015-11-11T12:23:19.971Z</time>
      </trkpt>
      <trkpt lat="45.92839" lon="4.73783">
        <ele>163.899993896</ele>
        <time>2015-11-11T12:23:20.959Z</time>
      </trkpt>
      <trkpt lat="45.92834" lon="4.73781">
        <ele>164</ele>
        <time>2015-11-11T12:23:21.97Z</time>
      </trkpt>
      <trkpt lat="45.92829" lon="4.73778">
        <ele>164.300003052</ele>
        <time>2015-11-11T12:23:22.957Z</time>
      </trkpt>
      <trkpt lat="45.92824" lon="4.73775">
        <ele>164.399993896</ele>
        <time>2015-11-11T12:23:23.97Z</time>
      </trkpt>
      <trkpt lat="45.9282" lon="4.73773">
        <ele>164.5</ele>
        <time>2015-11-11T12:23:24.956Z</time>
      </trkpt>
      <trkpt lat="45.92816" lon="4.73769">
        <ele>164.600006104</ele>
        <time>2015-11-11T12:23:25.97Z</time>
      </trkpt>
      <trkpt lat="45.92812" lon="4.73766">
        <ele>164.699996948</ele>
        <time>2015-11-11T12:23:26.959Z</time>
      </trkpt>
      <trkpt lat="45.92808" lon="4.73764">
        <ele>164.699996948</ele>
        <time>2015-11-11T12:23:27.984Z</time>
      </trkpt>
      <trkpt lat="45.92803" lon="4.73762">
        <ele>164.600006104</ele>
        <time>2015-11-11T12:23:28.962Z</time>
      </trkpt>
      <trkpt lat="45.92799" lon="4.7376">
        <ele>164.600006104</ele>
        <time>2015-11-11T12:23:29.972Z</time>
      </trkpt>
      <trkpt lat="45.92794" lon="4.73758">
        <ele>165</ele>
        <time>2015-11-11T12:23:30.956Z</time>
      </trkpt>
      <trkpt lat="45.92789" lon="4.73756">
        <ele>165.199996948</ele>
        <time>2015-11-11T12:23:31.971Z</time>
      </trkpt>
      <trkpt lat="45.92785" lon="4.73753">
        <ele>165.199996948</ele>
        <time>2015-11-11T12:23:32.959Z</time>
      </trkpt>
      <trkpt lat="45.92781" lon="4.73748">
        <ele>164.899993896</ele>
        <time>2015-11-11T12:23:33.971Z</time>
      </trkpt>
      <trkpt lat="45.92779" lon="4.73743">
        <ele>164.800003052</ele>
        <time>2015-11-11T12:23:34.957Z</time>
      </trkpt>
      <trkpt lat="45.92775" lon="4.73738">
        <ele>164.399993896</ele>
        <time>2015-11-11T12:23:35.971Z</time>
      </trkpt>
      <trkpt lat="45.92772" lon="4.73734">
        <ele>164.100006104</ele>
        <time>2015-11-11T12:23:36.956Z</time>
      </trkpt>
      <trkpt lat="45.92767" lon="4.73732">
        <ele>163.899993896</ele>
        <time>2015-11-11T12:23:37.97Z</time>
      </trkpt>
      <trkpt lat="45.92763" lon="4.7373">
        <ele>163.5</ele>
        <time>2015-11-11T12:23:38.961Z</time>
      </trkpt>
      <trkpt lat="45.92758" lon="4.73728">
        <ele>163.300003052</ele>
        <time>2015-11-11T12:23:39.973Z</time>
      </trkpt>
      <trkpt lat="45.92753" lon="4.73727">
        <ele>163.100006104</ele>
        <time>2015-11-11T12:23:40.957Z</time>
      </trkpt>
      <trkpt lat="45.92747" lon="4.73725">
        <ele>162.899993896</ele>
        <time>2015-11-11T12:23:41.971Z</time>
      </trkpt>
      <trkpt lat="45.92742" lon="4.73724">
        <ele>163</ele>
        <time>2015-11-11T12:23:42.956Z</time>
      </trkpt>
      <trkpt lat="45.92737" lon="4.73723">
        <ele>163.100006104</ele>
        <time>2015-11-11T12:23:43.984Z</time>
      </trkpt>
      <trkpt lat="45.92732" lon="4.73721">
        <ele>163.100006104</ele>
        <time>2015-11-11T12:23:44.959Z</time>
      </trkpt>
      <trkpt lat="45.92726" lon="4.7372">
        <ele>163.399993896</ele>
        <time>2015-11-11T12:23:45.972Z</time>
      </trkpt>
      <trkpt lat="45.92721" lon="4.73718">
        <ele>163.899993896</ele>
        <time>2015-11-11T12:23:46.957Z</time>
      </trkpt>
      <trkpt lat="45.92715" lon="4.73716">
        <ele>163.600006104</ele>
        <time>2015-11-11T12:23:47.97Z</time>
      </trkpt>
      <trkpt lat="45.92711" lon="4.73715">
        <ele>163.300003052</ele>
        <time>2015-11-11T12:23:48.96Z</time>
      </trkpt>
      <trkpt lat="45.92706" lon="4.73714">
        <ele>163.199996948</ele>
        <time>2015-11-11T12:23:49.97Z</time>
      </trkpt>
      <trkpt lat="45.92701" lon="4.73713">
        <ele>163.300003052</ele>
        <time>2015-11-11T12:23:50.959Z</time>
      </trkpt>
      <trkpt lat="45.92696" lon="4.73712">
        <ele>163.399993896</ele>
        <time>2015-11-11T12:23:51.97Z</time>
      </trkpt>
      <trkpt lat="45.92691" lon="4.7371">
        <ele>163.300003052</ele>
        <time>2015-11-11T12:23:52.957Z</time>
      </trkpt>
      <trkpt lat="45.92686" lon="4.73709">
        <ele>163.300003052</ele>
        <time>2015-11-11T12:23:53.97Z</time>
      </trkpt>
      <trkpt lat="45.92681" lon="4.73707">
        <ele>163.300003052</ele>
        <time>2015-11-11T12:23:54.956Z</time>
      </trkpt>
      <trkpt lat="45.92677" lon="4.73706">
        <ele>163.699996948</ele>
        <time>2015-11-11T12:23:55.97Z</time>
      </trkpt>
      <trkpt lat="45.92672" lon="4.73704">
        <ele>164</ele>
        <time>2015-11-11T12:23:56.959Z</time>
      </trkpt>
      <trkpt lat="45.92667" lon="4.73702">
        <ele>164</ele>
        <time>2015-11-11T12:23:57.97Z</time>
      </trkpt>
      <trkpt lat="45.92662" lon="4.73699">
        <ele>164</ele>
        <time>2015-11-11T12:23:58.961Z</time>
      </trkpt>
      <trkpt lat="45.92658" lon="4.73697">
        <ele>164</ele>
        <time>2015-11-11T12:23:59.987Z</time>
      </trkpt>
      <trkpt lat="45.92653" lon="4.73693">
        <ele>164.300003052</ele>
        <time>2015-11-11T12:24:00.956Z</time>
      </trkpt>
      <trkpt lat="45.92648" lon="4.73689">
        <ele>164</ele>
        <time>2015-11-11T12:24:01.97Z</time>
      </trkpt>
      <trkpt lat="45.92644" lon="4.73685">
        <ele>164.100006104</ele>
        <time>2015-11-11T12:24:02.959Z</time>
      </trkpt>
      <trkpt lat="45.92641" lon="4.7368">
        <ele>163.899993896</ele>
        <time>2015-11-11T12:24:03.97Z</time>
      </trkpt>
      <trkpt lat="45.92637" lon="4.73674">
        <ele>163.800003052</ele>
        <time>2015-11-11T12:24:04.957Z</time>
      </trkpt>
      <trkpt lat="45.92634" lon="4.73668">
        <ele>164</ele>
        <time>2015-11-11T12:24:05.97Z</time>
      </trkpt>
      <trkpt lat="45.92631" lon="4.73662">
        <ele>164.199996948</ele>
        <time>2015-11-11T12:24:06.956Z</time>
      </trkpt>
      <trkpt lat="45.92628" lon="4.73655">
        <ele>164.399993896</ele>
        <time>2015-11-11T12:24:07.97Z</time>
      </trkpt>
      <trkpt lat="45.92626" lon="4.73648">
        <ele>164.699996948</ele>
        <time>2015-11-11T12:24:08.969Z</time>
      </trkpt>
      <trkpt lat="45.92623" lon="4.73641">
        <ele>165.100006104</ele>
        <time>2015-11-11T12:24:09.972Z</time>
      </trkpt>
      <trkpt lat="45.9262" lon="4.73635">
        <ele>165.5</ele>
        <time>2015-11-11T12:24:10.957Z</time>
      </trkpt>
      <trkpt lat="45.92617" lon="4.73629">
        <ele>165.5</ele>
        <time>2015-11-11T12:24:11.971Z</time>
      </trkpt>
      <trkpt lat="45.92613" lon="4.73625">
        <ele>165.600006104</ele>
        <time>2015-11-11T12:24:12.999Z</time>
      </trkpt>
      <trkpt lat="45.92608" lon="4.73622">
        <ele>166</ele>
        <time>2015-11-11T12:24:13.971Z</time>
      </trkpt>
      <trkpt lat="45.92603" lon="4.7362">
        <ele>167.199996948</ele>
        <time>2015-11-11T12:24:14.959Z</time>
      </trkpt>
      <trkpt lat="45.92599" lon="4.73619">
        <ele>167.5</ele>
        <time>2015-11-11T12:24:15.991Z</time>
      </trkpt>
      <trkpt lat="45.92593" lon="4.73619">
        <ele>167.199996948</ele>
        <time>2015-11-11T12:24:16.957Z</time>
      </trkpt>
      <trkpt lat="45.92589" lon="4.7362">
        <ele>167.300003052</ele>
        <time>2015-11-11T12:24:17.971Z</time>
      </trkpt>
      <trkpt lat="45.92584" lon="4.73621">
        <ele>167.300003052</ele>
        <time>2015-11-11T12:24:18.966Z</time>
      </trkpt>
      <trkpt lat="45.9258" lon="4.73623">
        <ele>167.300003052</ele>
        <time>2015-11-11T12:24:19.971Z</time>
      </trkpt>
      <trkpt lat="45.92575" lon="4.73624">
        <ele>167.399993896</ele>
        <time>2015-11-11T12:24:20.959Z</time>
      </trkpt>
      <trkpt lat="45.9257" lon="4.73624">
        <ele>167.399993896</ele>
        <time>2015-11-11T12:24:21.97Z</time>
      </trkpt>
      <trkpt lat="45.92565" lon="4.73626">
        <ele>167.399993896</ele>
        <time>2015-11-11T12:24:22.957Z</time>
      </trkpt>
      <trkpt lat="45.9256" lon="4.73627">
        <ele>167.5</ele>
        <time>2015-11-11T12:24:23.97Z</time>
      </trkpt>
      <trkpt lat="45.92555" lon="4.73628">
        <ele>167.600006104</ele>
        <time>2015-11-11T12:24:24.956Z</time>
      </trkpt>
      <trkpt lat="45.9255" lon="4.7363">
        <ele>167.5</ele>
        <time>2015-11-11T12:24:25.976Z</time>
      </trkpt>
      <trkpt lat="45.92545" lon="4.73631">
        <ele>167.399993896</ele>
        <time>2015-11-11T12:24:26.959Z</time>
      </trkpt>
      <trkpt lat="45.9254" lon="4.73633">
        <ele>167.399993896</ele>
        <time>2015-11-11T12:24:27.97Z</time>
      </trkpt>
      <trkpt lat="45.92535" lon="4.73634">
        <ele>167.300003052</ele>
        <time>2015-11-11T12:24:28.968Z</time>
      </trkpt>
      <trkpt lat="45.9253" lon="4.73635">
        <ele>167.399993896</ele>
        <time>2015-11-11T12:24:29.97Z</time>
      </trkpt>
      <trkpt lat="45.92524" lon="4.73635">
        <ele>167.600006104</ele>
        <time>2015-11-11T12:24:30.956Z</time>
      </trkpt>
      <trkpt lat="45.9252" lon="4.73635">
        <ele>167.699996948</ele>
        <time>2015-11-11T12:24:31.984Z</time>
      </trkpt>
      <trkpt lat="45.92515" lon="4.73636">
        <ele>167.600006104</ele>
        <time>2015-11-11T12:24:32.959Z</time>
      </trkpt>
      <trkpt lat="45.9251" lon="4.73636">
        <ele>167.600006104</ele>
        <time>2015-11-11T12:24:33.97Z</time>
      </trkpt>
      <trkpt lat="45.92506" lon="4.73637">
        <ele>167.399993896</ele>
        <time>2015-11-11T12:24:34.957Z</time>
      </trkpt>
      <trkpt lat="45.92498" lon="4.73637">
        <ele>167.800003052</ele>
        <time>2015-11-11T12:24:36.97Z</time>
      </trkpt>
      <trkpt lat="45.92494" lon="4.73637">
        <ele>167.800003052</ele>
        <time>2015-11-11T12:24:37.956Z</time>
      </trkpt>
      <trkpt lat="45.92486" lon="4.73637">
        <ele>168.100006104</ele>
        <time>2015-11-11T12:24:39.973Z</time>
      </trkpt>
      <trkpt lat="45.92482" lon="4.73636">
        <ele>168.300003052</ele>
        <time>2015-11-11T12:24:40.957Z</time>
      </trkpt>
      <trkpt lat="45.92474" lon="4.73638">
        <ele>169.300003052</ele>
        <time>2015-11-11T12:24:42.97Z</time>
      </trkpt>
      <trkpt lat="45.92471" lon="4.73641">
        <ele>169.600006104</ele>
        <time>2015-11-11T12:24:43.956Z</time>
      </trkpt>
      <trkpt lat="45.92467" lon="4.73651">
        <ele>170.699996948</ele>
        <time>2015-11-11T12:24:45.97Z</time>
      </trkpt>
      <trkpt lat="45.92467" lon="4.73657">
        <ele>170.699996948</ele>
        <time>2015-11-11T12:24:46.957Z</time>
      </trkpt>
      <trkpt lat="45.92466" lon="4.73668">
        <ele>170.899993896</ele>
        <time>2015-11-11T12:24:48.982Z</time>
      </trkpt>
      <trkpt lat="45.92466" lon="4.73674">
        <ele>171</ele>
        <time>2015-11-11T12:24:49.956Z</time>
      </trkpt>
      <trkpt lat="45.92465" lon="4.73685">
        <ele>171.199996948</ele>
        <time>2015-11-11T12:24:51.97Z</time>
      </trkpt>
      <trkpt lat="45.92465" lon="4.7369">
        <ele>171.399993896</ele>
        <time>2015-11-11T12:24:52.957Z</time>
      </trkpt>
      <trkpt lat="45.92463" lon="4.73702">
        <ele>171.800003052</ele>
        <time>2015-11-11T12:24:55.971Z</time>
      </trkpt>
      <trkpt lat="45.92462" lon="4.73705">
        <ele>171.899993896</ele>
        <time>2015-11-11T12:24:56.959Z</time>
      </trkpt>
      <trkpt lat="45.92462" lon="4.73708">
        <ele>171.600006104</ele>
        <time>2015-11-11T12:25:05.974Z</time>
      </trkpt>
      <trkpt lat="45.92462" lon="4.73709">
        <ele>171.399993896</ele>
        <time>2015-11-11T12:25:06.956Z</time>
      </trkpt>
      <trkpt lat="45.92461" lon="4.73709">
        <ele>171.399993896</ele>
        <time>2015-11-11T12:25:07.97Z</time>
      </trkpt>
      <trkpt lat="45.92461" lon="4.73709">
        <ele>171.5</ele>
        <time>2015-11-11T12:25:08.97Z</time>
      </trkpt>
      <trkpt lat="45.92456" lon="4.73709">
        <ele>171.600006104</ele>
        <time>2015-11-11T12:25:49.519Z</time>
      </trkpt>
    </trkseg>
  </trk>
</gpx>